<?xml version='1.0' encoding='UTF-8'?><gpx version="1.1" creator="JPX - https://github.com/jenetics/jpx" xmlns="http://www.topografix.com/GPX/1/1"><trk><trkseg><trkpt lat="44.80171737782185" lon="10.336605708702981"><ele>55.0</ele><time>2026-04-04T13:03:13Z</time></trkpt><trkpt lat="44.8016674311068" lon="10.336538232595755"><ele>55.0</ele><time>2026-04-04T13:03:15Z</time></trkpt><trkpt lat="44.80158019750815" lon="10.336559529709184"><ele>55.0</ele><time>2026-04-04T13:03:26Z</time></trkpt><trkpt lat="44.801470692936306" lon="10.336690279929678"><ele>55.0</ele><time>2026-04-04T13:03:28Z</time></trkpt><trkpt lat="44.80141933966509" lon="10.336753172606544"><ele>55.0</ele><time>2026-04-04T13:03:29Z</time></trkpt><trkpt lat="44.80133120697307" lon="10.336829736844482"><ele>54.99999999999999</ele><time>2026-04-04T13:03:31Z</time></trkpt><trkpt lat="44.80126520260241" lon="10.33689651571807"><ele>55.0</ele><time>2026-04-04T13:03:33Z</time></trkpt><trkpt lat="44.801200790913846" lon="10.336982176347147"><ele>55.0</ele><time>2026-04-04T13:03:36Z</time></trkpt><trkpt lat="44.801133965437494" lon="10.337044238491071"><ele>55.0</ele><time>2026-04-04T13:03:39Z</time></trkpt><trkpt lat="44.80106742760216" lon="10.337127356420503"><ele>54.99999999999999</ele><time>2026-04-04T13:03:59.999Z</time></trkpt><trkpt lat="44.800998864375295" lon="10.337177696076944"><ele>55.0</ele><time>2026-04-04T13:04:00.999Z</time></trkpt><trkpt lat="44.80094840619372" lon="10.337263085091296"><ele>55.4</ele><time>2026-04-04T13:04:01.999Z</time></trkpt><trkpt lat="44.800838949130416" lon="10.337362747585205"><ele>55.8</ele><time>2026-04-04T13:04:03.999Z</time></trkpt><trkpt lat="44.8007819398286" lon="10.337435800668667"><ele>56.2</ele><time>2026-04-04T13:04:04.999Z</time></trkpt><trkpt lat="44.80070486836874" lon="10.33754617273426"><ele>56.6</ele><time>2026-04-04T13:04:06.999Z</time></trkpt><trkpt lat="44.80064713216039" lon="10.337598635762056"><ele>57.0</ele><time>2026-04-04T13:04:07.999Z</time></trkpt><trkpt lat="44.80059492336539" lon="10.337670650627473"><ele>57.0</ele><time>2026-04-04T13:04:08.999Z</time></trkpt><trkpt lat="44.80054080391314" lon="10.337737382088488"><ele>57.0</ele><time>2026-04-04T13:04:09.999Z</time></trkpt><trkpt lat="44.80045919283788" lon="10.337845759742562"><ele>57.0</ele><time>2026-04-04T13:04:11.999Z</time></trkpt><trkpt lat="44.800394080291674" lon="10.337914386389164"><ele>57.0</ele><time>2026-04-04T13:04:13.999Z</time></trkpt><trkpt lat="44.800331870798956" lon="10.337995242440261"><ele>57.0</ele><time>2026-04-04T13:04:15.999Z</time></trkpt><trkpt lat="44.80026028547806" lon="10.338079514911103"><ele>57.0</ele><time>2026-04-04T13:04:17.999Z</time></trkpt><trkpt lat="44.80021079865938" lon="10.338137509351087"><ele>57.0</ele><time>2026-04-04T13:04:18.999Z</time></trkpt><trkpt lat="44.8001547782894" lon="10.338203236585763"><ele>57.0</ele><time>2026-04-04T13:04:19.999Z</time></trkpt><trkpt lat="44.80009378248339" lon="10.338275737717076"><ele>57.0</ele><time>2026-04-04T13:04:20.999Z</time></trkpt><trkpt lat="44.800049546682054" lon="10.33834366227218"><ele>57.0</ele><time>2026-04-04T13:04:21.999Z</time></trkpt><trkpt lat="44.79998912179963" lon="10.338437540099829"><ele>57.0</ele><time>2026-04-04T13:04:24Z</time></trkpt><trkpt lat="44.799908124695634" lon="10.338506940425836"><ele>57.0</ele><time>2026-04-04T13:04:27Z</time></trkpt><trkpt lat="44.799751381108926" lon="10.338421008509021"><ele>57.0</ele><time>2026-04-04T13:04:29Z</time></trkpt><trkpt lat="44.799674054632455" lon="10.338395150577895"><ele>57.0</ele><time>2026-04-04T13:04:30Z</time></trkpt><trkpt lat="44.79960158582643" lon="10.338371002743637"><ele>57.0</ele><time>2026-04-04T13:04:31Z</time></trkpt><trkpt lat="44.79950967496311" lon="10.338332929455676"><ele>57.0</ele><time>2026-04-04T13:04:33Z</time></trkpt><trkpt lat="44.799433759007776" lon="10.33822893037806"><ele>57.0</ele><time>2026-04-04T13:04:35Z</time></trkpt><trkpt lat="44.799367010715194" lon="10.338183831171245"><ele>57.0</ele><time>2026-04-04T13:04:36Z</time></trkpt><trkpt lat="44.799309859057395" lon="10.338129877346352"><ele>57.400000000000006</ele><time>2026-04-04T13:04:37Z</time></trkpt><trkpt lat="44.799201980656804" lon="10.338060058987478"><ele>57.800000000000004</ele><time>2026-04-04T13:04:39Z</time></trkpt><trkpt lat="44.799124698708965" lon="10.338033307133706"><ele>58.2</ele><time>2026-04-04T13:04:40Z</time></trkpt><trkpt lat="44.79905184349914" lon="10.338009420000184"><ele>58.6</ele><time>2026-04-04T13:04:41Z</time></trkpt><trkpt lat="44.79897146126632" lon="10.33797032209155"><ele>59.0</ele><time>2026-04-04T13:04:42Z</time></trkpt><trkpt lat="44.79888329842067" lon="10.337919822475808"><ele>59.400000000000006</ele><time>2026-04-04T13:04:43Z</time></trkpt><trkpt lat="44.79878762045629" lon="10.337825893666471"><ele>59.800000000000004</ele><time>2026-04-04T13:04:44Z</time></trkpt><trkpt lat="44.79868139136896" lon="10.337736033212071"><ele>60.199999999999996</ele><time>2026-04-04T13:04:45Z</time></trkpt><trkpt lat="44.798588248524425" lon="10.33765724256721"><ele>60.599999999999994</ele><time>2026-04-04T13:04:46Z</time></trkpt><trkpt lat="44.79851143105271" lon="10.337592261749787"><ele>61.0</ele><time>2026-04-04T13:04:47Z</time></trkpt><trkpt lat="44.79843259427771" lon="10.337541907806235"><ele>61.199999999999996</ele><time>2026-04-04T13:04:48Z</time></trkpt><trkpt lat="44.79835523943639" lon="10.337479818486152"><ele>61.39999999999999</ele><time>2026-04-04T13:04:49Z</time></trkpt><trkpt lat="44.79827749475492" lon="10.337416463368152"><ele>61.6</ele><time>2026-04-04T13:04:50Z</time></trkpt><trkpt lat="44.79819830026784" lon="10.33733875046191"><ele>61.8</ele><time>2026-04-04T13:04:51Z</time></trkpt><trkpt lat="44.79811328768827" lon="10.337266995724073"><ele>62.0</ele><time>2026-04-04T13:04:52Z</time></trkpt><trkpt lat="44.79802537466317" lon="10.337198611150665"><ele>62.0</ele><time>2026-04-04T13:04:53Z</time></trkpt><trkpt lat="44.79794062792276" lon="10.337124824095463"><ele>62.0</ele><time>2026-04-04T13:04:54Z</time></trkpt><trkpt lat="44.7978370922463" lon="10.337026703716315"><ele>62.0</ele><time>2026-04-04T13:04:55Z</time></trkpt><trkpt lat="44.797710911482945" lon="10.336898483029215"><ele>62.0</ele><time>2026-04-04T13:04:56Z</time></trkpt><trkpt lat="44.79757032620176" lon="10.336756838153251"><ele>62.0</ele><time>2026-04-04T13:04:57Z</time></trkpt><trkpt lat="44.79741709322567" lon="10.336618107598"><ele>62.0</ele><time>2026-04-04T13:04:58Z</time></trkpt><trkpt lat="44.797271415308636" lon="10.336500657052348"><ele>62.0</ele><time>2026-04-04T13:04:59Z</time></trkpt><trkpt lat="44.79714154805531" lon="10.336397933080447"><ele>62.0</ele><time>2026-04-04T13:05:00Z</time></trkpt><trkpt lat="44.79701152706597" lon="10.336292265584648"><ele>62.0</ele><time>2026-04-04T13:05:01Z</time></trkpt><trkpt lat="44.79688983951543" lon="10.336194212004736"><ele>62.0</ele><time>2026-04-04T13:05:02Z</time></trkpt><trkpt lat="44.796777362345246" lon="10.336098376762587"><ele>62.0</ele><time>2026-04-04T13:05:03Z</time></trkpt><trkpt lat="44.79666493884455" lon="10.336005796692799"><ele>62.0</ele><time>2026-04-04T13:05:04Z</time></trkpt><trkpt lat="44.79655331294014" lon="10.335926718130034"><ele>62.0</ele><time>2026-04-04T13:05:05Z</time></trkpt><trkpt lat="44.79645543770303" lon="10.335854535715509"><ele>62.0</ele><time>2026-04-04T13:05:06Z</time></trkpt><trkpt lat="44.796366345502825" lon="10.335784159601015"><ele>62.0</ele><time>2026-04-04T13:05:07Z</time></trkpt><trkpt lat="44.79628554763821" lon="10.335717691515919"><ele>62.0</ele><time>2026-04-04T13:05:08Z</time></trkpt><trkpt lat="44.79621504670525" lon="10.33565690179723"><ele>62.0</ele><time>2026-04-04T13:05:09Z</time></trkpt><trkpt lat="44.796151487204725" lon="10.335589174808522"><ele>62.00000000000001</ele><time>2026-04-04T13:05:10Z</time></trkpt><trkpt lat="44.79609505686316" lon="10.335508703659167"><ele>62.0</ele><time>2026-04-04T13:05:11Z</time></trkpt><trkpt lat="44.79603900777319" lon="10.335437139258833"><ele>62.0</ele><time>2026-04-04T13:05:12Z</time></trkpt><trkpt lat="44.79597531116333" lon="10.335399105036576"><ele>62.00000000000001</ele><time>2026-04-04T13:05:13Z</time></trkpt><trkpt lat="44.795909282314945" lon="10.335401042805742"><ele>62.0</ele><time>2026-04-04T13:05:14Z</time></trkpt><trkpt lat="44.795843343100884" lon="10.33543775328374"><ele>62.0</ele><time>2026-04-04T13:05:15Z</time></trkpt><trkpt lat="44.795778585421594" lon="10.335501119582917"><ele>62.0</ele><time>2026-04-04T13:05:16Z</time></trkpt><trkpt lat="44.795716119817904" lon="10.33557974300556"><ele>62.00000000000001</ele><time>2026-04-04T13:05:17Z</time></trkpt><trkpt lat="44.79566693759542" lon="10.335661573000767"><ele>62.0</ele><time>2026-04-04T13:05:18Z</time></trkpt><trkpt lat="44.79562896841891" lon="10.335749937659356"><ele>62.0</ele><time>2026-04-04T13:05:19Z</time></trkpt><trkpt lat="44.79560145034249" lon="10.335833708315302"><ele>62.00000000000001</ele><time>2026-04-04T13:05:20Z</time></trkpt><trkpt lat="44.795570457124825" lon="10.335926146276236"><ele>62.0</ele><time>2026-04-04T13:05:21Z</time></trkpt><trkpt lat="44.795532907898554" lon="10.335997647238871"><ele>62.0</ele><time>2026-04-04T13:05:22Z</time></trkpt><trkpt lat="44.7954358127955" lon="10.336045758043552"><ele>62.0</ele><time>2026-04-04T13:05:24Z</time></trkpt><trkpt lat="44.79537082664839" lon="10.336041233640746"><ele>62.0</ele><time>2026-04-04T13:05:25Z</time></trkpt><trkpt lat="44.7952925253206" lon="10.336021624360066"><ele>62.0</ele><time>2026-04-04T13:05:26Z</time></trkpt><trkpt lat="44.79519588570562" lon="10.336006357869087"><ele>62.0</ele><time>2026-04-04T13:05:27Z</time></trkpt><trkpt lat="44.79508246887975" lon="10.335959298435311"><ele>62.0</ele><time>2026-04-04T13:05:28Z</time></trkpt><trkpt lat="44.79494188846583" lon="10.335937692501243"><ele>62.25</ele><time>2026-04-04T13:05:29Z</time></trkpt><trkpt lat="44.794804076657584" lon="10.335909024316297"><ele>62.5</ele><time>2026-04-04T13:05:30Z</time></trkpt><trkpt lat="44.794664292004654" lon="10.3358783794223"><ele>62.75</ele><time>2026-04-04T13:05:31Z</time></trkpt><trkpt lat="44.79452539956812" lon="10.335846942341329"><ele>63.0</ele><time>2026-04-04T13:05:32Z</time></trkpt><trkpt lat="44.794382876047884" lon="10.335817130425507"><ele>62.5</ele><time>2026-04-04T13:05:33Z</time></trkpt><trkpt lat="44.794241458551795" lon="10.33578791817449"><ele>62.0</ele><time>2026-04-04T13:05:34Z</time></trkpt><trkpt lat="44.79410598470979" lon="10.33576269213001"><ele>61.5</ele><time>2026-04-04T13:05:35Z</time></trkpt><trkpt lat="44.79397025123942" lon="10.33572649945875"><ele>61.0</ele><time>2026-04-04T13:05:36Z</time></trkpt><trkpt lat="44.79382902643166" lon="10.335700119392625"><ele>61.0</ele><time>2026-04-04T13:05:37Z</time></trkpt><trkpt lat="44.79369507700164" lon="10.335677026388154"><ele>61.0</ele><time>2026-04-04T13:05:38Z</time></trkpt><trkpt lat="44.79356644333502" lon="10.335649150988017"><ele>61.0</ele><time>2026-04-04T13:05:39Z</time></trkpt><trkpt lat="44.79343479881696" lon="10.33562881465379"><ele>61.0</ele><time>2026-04-04T13:05:40Z</time></trkpt><trkpt lat="44.79329918490144" lon="10.335609974573812"><ele>61.0</ele><time>2026-04-04T13:05:41Z</time></trkpt><trkpt lat="44.793156885415726" lon="10.335582683500734"><ele>61.0</ele><time>2026-04-04T13:05:42Z</time></trkpt><trkpt lat="44.79300897430282" lon="10.335549198853386"><ele>61.0</ele><time>2026-04-04T13:05:43Z</time></trkpt><trkpt lat="44.792861874814974" lon="10.335518311676699"><ele>61.0</ele><time>2026-04-04T13:05:44Z</time></trkpt><trkpt lat="44.79271426065985" lon="10.335491784914408"><ele>61.5</ele><time>2026-04-04T13:05:45.001Z</time></trkpt><trkpt lat="44.79256676342572" lon="10.335465260815933"><ele>62.0</ele><time>2026-04-04T13:05:46.001Z</time></trkpt><trkpt lat="44.792435849311815" lon="10.33543750707092"><ele>62.5</ele><time>2026-04-04T13:05:47.001Z</time></trkpt><trkpt lat="44.79231814865111" lon="10.335413366801752"><ele>63.0</ele><time>2026-04-04T13:05:48.001Z</time></trkpt><trkpt lat="44.79219890454893" lon="10.335401048491"><ele>63.0</ele><time>2026-04-04T13:05:49.001Z</time></trkpt><trkpt lat="44.792056309447574" lon="10.335371091035643"><ele>63.0</ele><time>2026-04-04T13:05:50.001Z</time></trkpt><trkpt lat="44.791918090053365" lon="10.335330579306296"><ele>63.0</ele><time>2026-04-04T13:05:51.001Z</time></trkpt><trkpt lat="44.79178627858654" lon="10.33525180993629"><ele>63.0</ele><time>2026-04-04T13:05:52.001Z</time></trkpt><trkpt lat="44.79166085592253" lon="10.335158637998608"><ele>62.5</ele><time>2026-04-04T13:05:53.001Z</time></trkpt><trkpt lat="44.79153543977282" lon="10.335039610991123"><ele>62.0</ele><time>2026-04-04T13:05:54.001Z</time></trkpt><trkpt lat="44.791420296361466" lon="10.334918306522434"><ele>61.5</ele><time>2026-04-04T13:05:55.001Z</time></trkpt><trkpt lat="44.79130983319018" lon="10.334793919612398"><ele>61.0</ele><time>2026-04-04T13:05:56.001Z</time></trkpt><trkpt lat="44.79119612897331" lon="10.334660016637597"><ele>61.0</ele><time>2026-04-04T13:05:57.001Z</time></trkpt><trkpt lat="44.79108132292426" lon="10.334523433409759"><ele>61.0</ele><time>2026-04-04T13:05:58.001Z</time></trkpt><trkpt lat="44.79096639122848" lon="10.334401627619766"><ele>61.0</ele><time>2026-04-04T13:05:59.001Z</time></trkpt><trkpt lat="44.7908467018312" lon="10.334287704106378"><ele>61.0</ele><time>2026-04-04T13:06:00.001Z</time></trkpt><trkpt lat="44.79074154433547" lon="10.334161454590404"><ele>61.25</ele><time>2026-04-04T13:06:01.001Z</time></trkpt><trkpt lat="44.79064449875918" lon="10.334052556584128"><ele>61.5</ele><time>2026-04-04T13:06:02.001Z</time></trkpt><trkpt lat="44.79054596593097" lon="10.333941451768812"><ele>61.75</ele><time>2026-04-04T13:06:03.001Z</time></trkpt><trkpt lat="44.7904502625442" lon="10.333847093906817"><ele>62.0</ele><time>2026-04-04T13:06:03.999Z</time></trkpt><trkpt lat="44.79036085494086" lon="10.333754899369868"><ele>62.25</ele><time>2026-04-04T13:06:04.999Z</time></trkpt><trkpt lat="44.79027273078376" lon="10.333658566843406"><ele>62.5</ele><time>2026-04-04T13:06:05.999Z</time></trkpt><trkpt lat="44.79018005477125" lon="10.33355204791424"><ele>62.75</ele><time>2026-04-04T13:06:06.999Z</time></trkpt><trkpt lat="44.790071426721724" lon="10.333438889321155"><ele>63.0</ele><time>2026-04-04T13:06:07.999Z</time></trkpt><trkpt lat="44.78996209405659" lon="10.333326219774097"><ele>63.0</ele><time>2026-04-04T13:06:08.999Z</time></trkpt><trkpt lat="44.789853690871816" lon="10.333211609451388"><ele>63.0</ele><time>2026-04-04T13:06:09.999Z</time></trkpt><trkpt lat="44.78973997467617" lon="10.3331001647794"><ele>63.0</ele><time>2026-04-04T13:06:10.999Z</time></trkpt><trkpt lat="44.789629799493554" lon="10.332962477539521"><ele>63.0</ele><time>2026-04-04T13:06:12Z</time></trkpt><trkpt lat="44.789514924685754" lon="10.332835307762963"><ele>63.0</ele><time>2026-04-04T13:06:13Z</time></trkpt><trkpt lat="44.78940033283079" lon="10.332729357791411"><ele>63.0</ele><time>2026-04-04T13:06:14Z</time></trkpt><trkpt lat="44.7893052839688" lon="10.332591260987154"><ele>63.0</ele><time>2026-04-04T13:06:15Z</time></trkpt><trkpt lat="44.78921415475284" lon="10.33245056109561"><ele>63.0</ele><time>2026-04-04T13:06:16Z</time></trkpt><trkpt lat="44.78912243509943" lon="10.332289328411054"><ele>63.5</ele><time>2026-04-04T13:06:17Z</time></trkpt><trkpt lat="44.78904486408115" lon="10.332120051529081"><ele>64.0</ele><time>2026-04-04T13:06:18Z</time></trkpt><trkpt lat="44.78897726467165" lon="10.331967310817351"><ele>64.5</ele><time>2026-04-04T13:06:19Z</time></trkpt><trkpt lat="44.788920065341934" lon="10.331817523866823"><ele>65.0</ele><time>2026-04-04T13:06:20Z</time></trkpt><trkpt lat="44.788872026929226" lon="10.33166681266263"><ele>65.0</ele><time>2026-04-04T13:06:21Z</time></trkpt><trkpt lat="44.78884031364447" lon="10.331515092372204"><ele>65.0</ele><time>2026-04-04T13:06:22Z</time></trkpt><trkpt lat="44.788814387471426" lon="10.331357348830679"><ele>65.0</ele><time>2026-04-04T13:06:23Z</time></trkpt><trkpt lat="44.78879550895365" lon="10.33117929037594"><ele>65.0</ele><time>2026-04-04T13:06:24Z</time></trkpt><trkpt lat="44.78877666217161" lon="10.331001397965014"><ele>65.4</ele><time>2026-04-04T13:06:25Z</time></trkpt><trkpt lat="44.788770378530565" lon="10.33084825886245"><ele>65.8</ele><time>2026-04-04T13:06:26Z</time></trkpt><trkpt lat="44.78876736649056" lon="10.330712726953209"><ele>66.2</ele><time>2026-04-04T13:06:27Z</time></trkpt><trkpt lat="44.78876188792462" lon="10.330575582098621"><ele>66.6</ele><time>2026-04-04T13:06:28Z</time></trkpt><trkpt lat="44.78875086284588" lon="10.330416743781557"><ele>67.0</ele><time>2026-04-04T13:06:29Z</time></trkpt><trkpt lat="44.78874063866707" lon="10.330221990783734"><ele>67.0</ele><time>2026-04-04T13:06:30Z</time></trkpt><trkpt lat="44.788735924491874" lon="10.329996921549837"><ele>67.0</ele><time>2026-04-04T13:06:31Z</time></trkpt><trkpt lat="44.78872650004411" lon="10.329749915559036"><ele>67.0</ele><time>2026-04-04T13:06:32Z</time></trkpt><trkpt lat="44.78872492945028" lon="10.329499954132705"><ele>67.5</ele><time>2026-04-04T13:06:33Z</time></trkpt><trkpt lat="44.788720936464" lon="10.329277627451159"><ele>68.0</ele><time>2026-04-04T13:06:34Z</time></trkpt><trkpt lat="44.788717145858435" lon="10.329083469476803"><ele>68.5</ele><time>2026-04-04T13:06:35Z</time></trkpt><trkpt lat="44.78871066797208" lon="10.328899853361932"><ele>69.0</ele><time>2026-04-04T13:06:36Z</time></trkpt><trkpt lat="44.78870725784872" lon="10.328743691616795"><ele>69.2</ele><time>2026-04-04T13:06:37Z</time></trkpt><trkpt lat="44.78870371387054" lon="10.328607635703229"><ele>69.4</ele><time>2026-04-04T13:06:38Z</time></trkpt><trkpt lat="44.7886926024041" lon="10.328483342729438"><ele>69.6</ele><time>2026-04-04T13:06:40Z</time></trkpt><trkpt lat="44.78870222897968" lon="10.328327887211238"><ele>69.8</ele><time>2026-04-04T13:06:42Z</time></trkpt><trkpt lat="44.788715896788446" lon="10.32823861663934"><ele>70.0</ele><time>2026-04-04T13:06:43Z</time></trkpt><trkpt lat="44.78868004431952" lon="10.328094123132038"><ele>69.4</ele><time>2026-04-04T13:06:45Z</time></trkpt><trkpt lat="44.788649249927346" lon="10.327950405125536"><ele>68.8</ele><time>2026-04-04T13:06:47Z</time></trkpt><trkpt lat="44.78865139378164" lon="10.327849229302679"><ele>68.2</ele><time>2026-04-04T13:06:48Z</time></trkpt><trkpt lat="44.78864368576124" lon="10.327730904643397"><ele>67.6</ele><time>2026-04-04T13:06:49Z</time></trkpt><trkpt lat="44.7886340805891" lon="10.327559239874965"><ele>67.0</ele><time>2026-04-04T13:06:50Z</time></trkpt><trkpt lat="44.788656538157234" lon="10.32736429174651"><ele>66.66666666666666</ele><time>2026-04-04T13:06:51Z</time></trkpt><trkpt lat="44.788648523416626" lon="10.327155788505875"><ele>66.33333333333333</ele><time>2026-04-04T13:06:52Z</time></trkpt><trkpt lat="44.78862534237458" lon="10.326939295791048"><ele>66.0</ele><time>2026-04-04T13:06:53Z</time></trkpt><trkpt lat="44.78863167351397" lon="10.326705816094817"><ele>66.0</ele><time>2026-04-04T13:06:54Z</time></trkpt><trkpt lat="44.78860775829434" lon="10.326494972558818"><ele>66.0</ele><time>2026-04-04T13:06:55Z</time></trkpt><trkpt lat="44.78859430700708" lon="10.326314564654979"><ele>66.0</ele><time>2026-04-04T13:06:56Z</time></trkpt><trkpt lat="44.78858812542343" lon="10.326144445166879"><ele>66.0</ele><time>2026-04-04T13:06:57Z</time></trkpt><trkpt lat="44.788583651672496" lon="10.32598436723287"><ele>66.0</ele><time>2026-04-04T13:06:58Z</time></trkpt><trkpt lat="44.78857769290939" lon="10.325843838229547"><ele>66.0</ele><time>2026-04-04T13:06:59Z</time></trkpt><trkpt lat="44.78856838028953" lon="10.325729432852025"><ele>66.0</ele><time>2026-04-04T13:07:00Z</time></trkpt><trkpt lat="44.788504736630124" lon="10.325602657323678"><ele>66.0</ele><time>2026-04-04T13:07:02Z</time></trkpt><trkpt lat="44.788357729238214" lon="10.325647427095255"><ele>66.0</ele><time>2026-04-04T13:07:04Z</time></trkpt><trkpt lat="44.78825596124179" lon="10.325697009946829"><ele>65.5</ele><time>2026-04-04T13:07:05Z</time></trkpt><trkpt lat="44.788144221330136" lon="10.325736914475822"><ele>65.0</ele><time>2026-04-04T13:07:06Z</time></trkpt><trkpt lat="44.78801987252466" lon="10.32577498137369"><ele>64.5</ele><time>2026-04-04T13:07:07Z</time></trkpt><trkpt lat="44.7878874328824" lon="10.325815083140995"><ele>64.0</ele><time>2026-04-04T13:07:08Z</time></trkpt><trkpt lat="44.78774338181359" lon="10.325856829985302"><ele>64.33333333333333</ele><time>2026-04-04T13:07:09Z</time></trkpt><trkpt lat="44.78759167884172" lon="10.325902656048283"><ele>64.66666666666667</ele><time>2026-04-04T13:07:10Z</time></trkpt><trkpt lat="44.78743653946941" lon="10.325952406795542"><ele>65.0</ele><time>2026-04-04T13:07:11Z</time></trkpt><trkpt lat="44.787277596940534" lon="10.326004166516926"><ele>65.0</ele><time>2026-04-04T13:07:12Z</time></trkpt><trkpt lat="44.78711516049381" lon="10.32605738406748"><ele>65.0</ele><time>2026-04-04T13:07:13Z</time></trkpt><trkpt lat="44.786944508207654" lon="10.326086632376468"><ele>65.0</ele><time>2026-04-04T13:07:14Z</time></trkpt><trkpt lat="44.786785615376424" lon="10.326133201493553"><ele>65.66666666666667</ele><time>2026-04-04T13:07:15Z</time></trkpt><trkpt lat="44.786621620885334" lon="10.326181508554725"><ele>66.33333333333333</ele><time>2026-04-04T13:07:16Z</time></trkpt><trkpt lat="44.78647153128863" lon="10.326227652166931"><ele>67.0</ele><time>2026-04-04T13:07:17Z</time></trkpt><trkpt lat="44.786337488611615" lon="10.326268830885045"><ele>67.0</ele><time>2026-04-04T13:07:18Z</time></trkpt><trkpt lat="44.78621965569644" lon="10.326304678375"><ele>67.0</ele><time>2026-04-04T13:07:19Z</time></trkpt><trkpt lat="44.78612396715757" lon="10.326354465027766"><ele>67.0</ele><time>2026-04-04T13:07:20Z</time></trkpt><trkpt lat="44.786042295130514" lon="10.32637775178932"><ele>67.0</ele><time>2026-04-04T13:07:21Z</time></trkpt><trkpt lat="44.7859477047215" lon="10.326404952278066"><ele>67.0</ele><time>2026-04-04T13:07:22Z</time></trkpt><trkpt lat="44.78583289932015" lon="10.326422408560928"><ele>67.0</ele><time>2026-04-04T13:07:23Z</time></trkpt><trkpt lat="44.78571280716452" lon="10.326458202093042"><ele>67.0</ele><time>2026-04-04T13:07:24Z</time></trkpt><trkpt lat="44.78560998034925" lon="10.326500048917975"><ele>67.0</ele><time>2026-04-04T13:07:25.001Z</time></trkpt><trkpt lat="44.785512776443426" lon="10.326523289209696"><ele>67.0</ele><time>2026-04-04T13:07:26.001Z</time></trkpt><trkpt lat="44.78542888998856" lon="10.326553784304895"><ele>67.0</ele><time>2026-04-04T13:07:27.001Z</time></trkpt><trkpt lat="44.78536192111157" lon="10.326585627436462"><ele>67.0</ele><time>2026-04-04T13:07:28.001Z</time></trkpt><trkpt lat="44.78525507212558" lon="10.326615092557985"><ele>67.0</ele><time>2026-04-04T13:07:30.001Z</time></trkpt><trkpt lat="44.78514826510271" lon="10.326637951629301"><ele>67.0</ele><time>2026-04-04T13:07:33.001Z</time></trkpt><trkpt lat="44.785062912824216" lon="10.326658378968114"><ele>67.0</ele><time>2026-04-04T13:07:34.001Z</time></trkpt><trkpt lat="44.78495202075433" lon="10.326693013181801"><ele>67.0</ele><time>2026-04-04T13:07:35.001Z</time></trkpt><trkpt lat="44.78483996110126" lon="10.326740352111942"><ele>66.33333333333333</ele><time>2026-04-04T13:07:36.001Z</time></trkpt><trkpt lat="44.78470756663594" lon="10.326825071159641"><ele>65.66666666666667</ele><time>2026-04-04T13:07:37.001Z</time></trkpt><trkpt lat="44.78456822381028" lon="10.326915583382725"><ele>65.0</ele><time>2026-04-04T13:07:38.001Z</time></trkpt><trkpt lat="44.784413727175696" lon="10.327018261215736"><ele>65.0</ele><time>2026-04-04T13:07:39.001Z</time></trkpt><trkpt lat="44.78425413270242" lon="10.327126469198133"><ele>65.0</ele><time>2026-04-04T13:07:40.001Z</time></trkpt><trkpt lat="44.784080169943834" lon="10.327238477157747"><ele>65.0</ele><time>2026-04-04T13:07:41.001Z</time></trkpt><trkpt lat="44.783901666067344" lon="10.327341046726442"><ele>65.66666666666667</ele><time>2026-04-04T13:07:42.001Z</time></trkpt><trkpt lat="44.78371487035284" lon="10.3274369572542"><ele>66.33333333333333</ele><time>2026-04-04T13:07:43.001Z</time></trkpt><trkpt lat="44.78352193985984" lon="10.327513002137284"><ele>67.0</ele><time>2026-04-04T13:07:44.001Z</time></trkpt><trkpt lat="44.783325958709504" lon="10.32756686851648"><ele>67.33333333333333</ele><time>2026-04-04T13:07:45.001Z</time></trkpt><trkpt lat="44.783128599859964" lon="10.327600761225325"><ele>67.66666666666667</ele><time>2026-04-04T13:07:46.001Z</time></trkpt><trkpt lat="44.78293226363147" lon="10.327608082090693"><ele>68.0</ele><time>2026-04-04T13:07:47.001Z</time></trkpt><trkpt lat="44.782732396183654" lon="10.327592910138952"><ele>67.0</ele><time>2026-04-04T13:07:48.001Z</time></trkpt><trkpt lat="44.782533858423996" lon="10.327556144627462"><ele>66.0</ele><time>2026-04-04T13:07:49.001Z</time></trkpt><trkpt lat="44.78232778832979" lon="10.327511291396817"><ele>65.0</ele><time>2026-04-04T13:07:50.001Z</time></trkpt><trkpt lat="44.782116555784036" lon="10.32747405804708"><ele>65.0</ele><time>2026-04-04T13:07:51.001Z</time></trkpt><trkpt lat="44.781897681894975" lon="10.32743922482451"><ele>65.0</ele><time>2026-04-04T13:07:52.001Z</time></trkpt><trkpt lat="44.78167686706591" lon="10.327400660351035"><ele>65.0</ele><time>2026-04-04T13:07:53.001Z</time></trkpt><trkpt lat="44.78145376401119" lon="10.327360188938789"><ele>64.0</ele><time>2026-04-04T13:07:54.001Z</time></trkpt><trkpt lat="44.78122760304832" lon="10.327320421439998"><ele>63.0</ele><time>2026-04-04T13:07:55.001Z</time></trkpt><trkpt lat="44.7810029772597" lon="10.327282172733215"><ele>65.0</ele><time>2026-04-04T13:07:56.001Z</time></trkpt><trkpt lat="44.780777852529276" lon="10.327243237618184"><ele>67.0</ele><time>2026-04-04T13:07:57.001Z</time></trkpt><trkpt lat="44.780551725939915" lon="10.327204021409809"><ele>67.0</ele><time>2026-04-04T13:07:58.001Z</time></trkpt><trkpt lat="44.78032580830001" lon="10.327163848040543"><ele>67.0</ele><time>2026-04-04T13:07:59.001Z</time></trkpt><trkpt lat="44.78010358402013" lon="10.32712302362958"><ele>68.0</ele><time>2026-04-04T13:08:00.001Z</time></trkpt><trkpt lat="44.77987984830162" lon="10.327084583641719"><ele>69.0</ele><time>2026-04-04T13:08:01.001Z</time></trkpt><trkpt lat="44.779658103685776" lon="10.327048565321395"><ele>70.0</ele><time>2026-04-04T13:08:02.001Z</time></trkpt><trkpt lat="44.7794362573097" lon="10.327009668680429"><ele>69.33333333333333</ele><time>2026-04-04T13:08:03.001Z</time></trkpt><trkpt lat="44.779216815339105" lon="10.326969494268486"><ele>68.66666666666667</ele><time>2026-04-04T13:08:04.001Z</time></trkpt><trkpt lat="44.77899652488512" lon="10.3269299954068"><ele>68.0</ele><time>2026-04-04T13:08:05.001Z</time></trkpt><trkpt lat="44.77877506154739" lon="10.326892380491039"><ele>68.0</ele><time>2026-04-04T13:08:06.001Z</time></trkpt><trkpt lat="44.77855496101214" lon="10.326855922487544"><ele>68.0</ele><time>2026-04-04T13:08:07.001Z</time></trkpt><trkpt lat="44.77833939643946" lon="10.3268144474579"><ele>68.0</ele><time>2026-04-04T13:08:08.001Z</time></trkpt><trkpt lat="44.778123459830894" lon="10.326762527233303"><ele>68.0</ele><time>2026-04-04T13:08:09.001Z</time></trkpt><trkpt lat="44.777910404031005" lon="10.326705627953245"><ele>68.0</ele><time>2026-04-04T13:08:10Z</time></trkpt><trkpt lat="44.77771085493418" lon="10.326652096728285"><ele>68.0</ele><time>2026-04-04T13:08:11Z</time></trkpt><trkpt lat="44.77752349305977" lon="10.326607653802892"><ele>68.0</ele><time>2026-04-04T13:08:12Z</time></trkpt><trkpt lat="44.77734432953949" lon="10.32657374872966"><ele>68.0</ele><time>2026-04-04T13:08:13Z</time></trkpt><trkpt lat="44.77717044546223" lon="10.326544764829707"><ele>68.0</ele><time>2026-04-04T13:08:14Z</time></trkpt><trkpt lat="44.77700869322962" lon="10.326513113526264"><ele>68.0</ele><time>2026-04-04T13:08:15Z</time></trkpt><trkpt lat="44.77685470943528" lon="10.326482301129152"><ele>68.0</ele><time>2026-04-04T13:08:16Z</time></trkpt><trkpt lat="44.77671240769615" lon="10.326457108070722"><ele>68.0</ele><time>2026-04-04T13:08:17Z</time></trkpt><trkpt lat="44.776583678605874" lon="10.326439084194895"><ele>68.0</ele><time>2026-04-04T13:08:18Z</time></trkpt><trkpt lat="44.77646893364321" lon="10.326419405807554"><ele>68.2</ele><time>2026-04-04T13:08:19Z</time></trkpt><trkpt lat="44.77636923608351" lon="10.326383138471034"><ele>68.4</ele><time>2026-04-04T13:08:20Z</time></trkpt><trkpt lat="44.77628744252927" lon="10.326310317436965"><ele>68.60000000000001</ele><time>2026-04-04T13:08:21Z</time></trkpt><trkpt lat="44.776227798824046" lon="10.326193592954946"><ele>68.8</ele><time>2026-04-04T13:08:22Z</time></trkpt><trkpt lat="44.776190103376436" lon="10.32604372943036"><ele>69.0</ele><time>2026-04-04T13:08:23Z</time></trkpt><trkpt lat="44.77617865326127" lon="10.325880441884442"><ele>69.0</ele><time>2026-04-04T13:08:24Z</time></trkpt><trkpt lat="44.776162527935696" lon="10.3257126741132"><ele>69.0</ele><time>2026-04-04T13:08:25Z</time></trkpt><trkpt lat="44.77620483663714" lon="10.32551547695023"><ele>69.0</ele><time>2026-04-04T13:08:26Z</time></trkpt><trkpt lat="44.77621428746041" lon="10.325309555284736"><ele>69.0</ele><time>2026-04-04T13:08:27Z</time></trkpt><trkpt lat="44.776216478434215" lon="10.32507588789018"><ele>68.66666666666667</ele><time>2026-04-04T13:08:28Z</time></trkpt><trkpt lat="44.77622252743424" lon="10.324838242164631"><ele>68.33333333333334</ele><time>2026-04-04T13:08:29Z</time></trkpt><trkpt lat="44.77624104540901" lon="10.324590062159558"><ele>68.0</ele><time>2026-04-04T13:08:30Z</time></trkpt><trkpt lat="44.776262905919516" lon="10.324334323773613"><ele>68.33333333333334</ele><time>2026-04-04T13:08:31Z</time></trkpt><trkpt lat="44.77627159738686" lon="10.324064047640533"><ele>68.66666666666667</ele><time>2026-04-04T13:08:32Z</time></trkpt><trkpt lat="44.7762617807428" lon="10.323807891841517"><ele>69.0</ele><time>2026-04-04T13:08:33Z</time></trkpt><trkpt lat="44.77624373220812" lon="10.323570451283759"><ele>69.0</ele><time>2026-04-04T13:08:34Z</time></trkpt><trkpt lat="44.77622343851072" lon="10.323359283756124"><ele>69.0</ele><time>2026-04-04T13:08:35Z</time></trkpt><trkpt lat="44.776199335113375" lon="10.323154821247869"><ele>69.0</ele><time>2026-04-04T13:08:36Z</time></trkpt><trkpt lat="44.7761779231659" lon="10.32296728713384"><ele>69.0</ele><time>2026-04-04T13:08:37Z</time></trkpt><trkpt lat="44.77616475932398" lon="10.322797796893841"><ele>69.33333333333333</ele><time>2026-04-04T13:08:38Z</time></trkpt><trkpt lat="44.77615689079927" lon="10.322649016060177"><ele>69.66666666666667</ele><time>2026-04-04T13:08:39Z</time></trkpt><trkpt lat="44.77614916805067" lon="10.322516404573589"><ele>70.0</ele><time>2026-04-04T13:08:40Z</time></trkpt><trkpt lat="44.77615514097414" lon="10.32239459588527"><ele>70.33333333333334</ele><time>2026-04-04T13:08:41Z</time></trkpt><trkpt lat="44.77617706073115" lon="10.322286676738976"><ele>70.66666666666667</ele><time>2026-04-04T13:08:42Z</time></trkpt><trkpt lat="44.7761709194448" lon="10.322188535976045"><ele>71.0</ele><time>2026-04-04T13:08:43Z</time></trkpt><trkpt lat="44.77614530567378" lon="10.322085687021195"><ele>71.0</ele><time>2026-04-04T13:08:44Z</time></trkpt><trkpt lat="44.776055129034155" lon="10.322027587931716"><ele>71.0</ele><time>2026-04-04T13:08:45Z</time></trkpt><trkpt lat="44.77593371663075" lon="10.322022023521829"><ele>71.0</ele><time>2026-04-04T13:08:46Z</time></trkpt><trkpt lat="44.77581300271178" lon="10.322002861781229"><ele>71.0</ele><time>2026-04-04T13:08:47Z</time></trkpt><trkpt lat="44.77567695498872" lon="10.321988914173167"><ele>71.25</ele><time>2026-04-04T13:08:48Z</time></trkpt><trkpt lat="44.77552984467744" lon="10.322005417133953"><ele>71.5</ele><time>2026-04-04T13:08:49Z</time></trkpt><trkpt lat="44.77538099673267" lon="10.322057649916896"><ele>71.75</ele><time>2026-04-04T13:08:50Z</time></trkpt><trkpt lat="44.77525538220325" lon="10.322124133338539"><ele>72.0</ele><time>2026-04-04T13:08:51Z</time></trkpt><trkpt lat="44.775132253267984" lon="10.322198796459793"><ele>71.75</ele><time>2026-04-04T13:08:52Z</time></trkpt><trkpt lat="44.77500230301269" lon="10.322281131884614"><ele>71.5</ele><time>2026-04-04T13:08:53Z</time></trkpt><trkpt lat="44.77487389580256" lon="10.322371172957466"><ele>71.25</ele><time>2026-04-04T13:08:54Z</time></trkpt><trkpt lat="44.774755368374" lon="10.32245752514974"><ele>71.0</ele><time>2026-04-04T13:08:55Z</time></trkpt><trkpt lat="44.77463969535318" lon="10.322538773759124"><ele>71.0</ele><time>2026-04-04T13:08:56Z</time></trkpt><trkpt lat="44.77451587495404" lon="10.32262163812679"><ele>71.0</ele><time>2026-04-04T13:08:57Z</time></trkpt><trkpt lat="44.77438967881995" lon="10.322705518894495"><ele>71.0</ele><time>2026-04-04T13:08:58Z</time></trkpt><trkpt lat="44.77426021020683" lon="10.322791903271854"><ele>71.0</ele><time>2026-04-04T13:08:59Z</time></trkpt><trkpt lat="44.774124382963606" lon="10.322883671495589"><ele>71.0</ele><time>2026-04-04T13:09:00Z</time></trkpt><trkpt lat="44.77398720890952" lon="10.322973951162217"><ele>71.0</ele><time>2026-04-04T13:09:01Z</time></trkpt><trkpt lat="44.773840387025096" lon="10.323068922878962"><ele>71.0</ele><time>2026-04-04T13:09:02Z</time></trkpt><trkpt lat="44.77370552000578" lon="10.323153097031483"><ele>71.0</ele><time>2026-04-04T13:09:03Z</time></trkpt><trkpt lat="44.773560244205996" lon="10.323238190872825"><ele>71.0</ele><time>2026-04-04T13:09:04Z</time></trkpt><trkpt lat="44.77342371109037" lon="10.32331909277572"><ele>71.0</ele><time>2026-04-04T13:09:05Z</time></trkpt><trkpt lat="44.77327510798086" lon="10.323395306748651"><ele>71.0</ele><time>2026-04-04T13:09:06.001Z</time></trkpt><trkpt lat="44.77312874534591" lon="10.3234652161278"><ele>71.0</ele><time>2026-04-04T13:09:07.001Z</time></trkpt><trkpt lat="44.772984390850546" lon="10.323546219534764"><ele>71.0</ele><time>2026-04-04T13:09:08.001Z</time></trkpt><trkpt lat="44.7728416900215" lon="10.323626833661828"><ele>71.0</ele><time>2026-04-04T13:09:09.001Z</time></trkpt><trkpt lat="44.77269999268797" lon="10.323700468551822"><ele>71.0</ele><time>2026-04-04T13:09:10.001Z</time></trkpt><trkpt lat="44.77256278831252" lon="10.32377405886959"><ele>71.0</ele><time>2026-04-04T13:09:11.001Z</time></trkpt><trkpt lat="44.772421047530266" lon="10.323861239265597"><ele>71.66666666666667</ele><time>2026-04-04T13:09:12.001Z</time></trkpt><trkpt lat="44.772280448822656" lon="10.323939121626028"><ele>72.33333333333333</ele><time>2026-04-04T13:09:13.001Z</time></trkpt><trkpt lat="44.77213272590878" lon="10.324015240002637"><ele>73.0</ele><time>2026-04-04T13:09:14.001Z</time></trkpt><trkpt lat="44.77198310062508" lon="10.32409603573937"><ele>72.66666666666666</ele><time>2026-04-04T13:09:15.001Z</time></trkpt><trkpt lat="44.771835843611996" lon="10.32417243345103"><ele>72.33333333333333</ele><time>2026-04-04T13:09:16.001Z</time></trkpt><trkpt lat="44.77168300575597" lon="10.32423996135346"><ele>72.0</ele><time>2026-04-04T13:09:17.001Z</time></trkpt><trkpt lat="44.77152948858772" lon="10.324283586066779"><ele>72.0</ele><time>2026-04-04T13:09:18.001Z</time></trkpt><trkpt lat="44.771370474683955" lon="10.324309715878176"><ele>72.0</ele><time>2026-04-04T13:09:19.001Z</time></trkpt><trkpt lat="44.77122347254338" lon="10.324325901694664"><ele>72.0</ele><time>2026-04-04T13:09:20.001Z</time></trkpt><trkpt lat="44.7710845895396" lon="10.324331258358065"><ele>72.0</ele><time>2026-04-04T13:09:21.001Z</time></trkpt><trkpt lat="44.77095784964725" lon="10.324319732066726"><ele>72.16666666666667</ele><time>2026-04-04T13:09:22.001Z</time></trkpt><trkpt lat="44.770850382363044" lon="10.324301653509869"><ele>72.33333333333333</ele><time>2026-04-04T13:09:23.001Z</time></trkpt><trkpt lat="44.77076542711891" lon="10.324281643585644"><ele>72.5</ele><time>2026-04-04T13:09:24.001Z</time></trkpt><trkpt lat="44.77069947511304" lon="10.324263486084446"><ele>72.66666666666666</ele><time>2026-04-04T13:09:25.001Z</time></trkpt><trkpt lat="44.770624243582205" lon="10.32424465726651"><ele>72.83333333333333</ele><time>2026-04-04T13:09:27.001Z</time></trkpt><trkpt lat="44.77056122422512" lon="10.324227622882551"><ele>73.0</ele><time>2026-04-04T13:09:30.001Z</time></trkpt><trkpt lat="44.77047334349215" lon="10.3242205417035"><ele>73.0</ele><time>2026-04-04T13:09:48.001Z</time></trkpt><trkpt lat="44.77040214081896" lon="10.32419779629439"><ele>73.0</ele><time>2026-04-04T13:09:49.001Z</time></trkpt><trkpt lat="44.77030978436701" lon="10.32416439544754"><ele>73.0</ele><time>2026-04-04T13:09:50.001Z</time></trkpt><trkpt lat="44.77019853199665" lon="10.324130558608587"><ele>73.0</ele><time>2026-04-04T13:09:51.001Z</time></trkpt><trkpt lat="44.770066785574656" lon="10.324094054996555"><ele>73.0</ele><time>2026-04-04T13:09:52.001Z</time></trkpt><trkpt lat="44.769928012465726" lon="10.324047215564564"><ele>73.25</ele><time>2026-04-04T13:09:53.001Z</time></trkpt><trkpt lat="44.76978452586331" lon="10.324011169367083"><ele>73.5</ele><time>2026-04-04T13:09:54.001Z</time></trkpt><trkpt lat="44.76964484101742" lon="10.323967119397427"><ele>73.75</ele><time>2026-04-04T13:09:55.001Z</time></trkpt><trkpt lat="44.76949933756508" lon="10.323919551573411"><ele>74.0</ele><time>2026-04-04T13:09:56.001Z</time></trkpt><trkpt lat="44.76934847210754" lon="10.32386883575988"><ele>73.33333333333334</ele><time>2026-04-04T13:09:57.001Z</time></trkpt><trkpt lat="44.76919842290707" lon="10.323817403960009"><ele>72.66666666666667</ele><time>2026-04-04T13:09:58.001Z</time></trkpt><trkpt lat="44.76904229561563" lon="10.323762608004557"><ele>72.0</ele><time>2026-04-04T13:09:59.001Z</time></trkpt><trkpt lat="44.76889331352981" lon="10.323712602718471"><ele>72.0</ele><time>2026-04-04T13:10:00.001Z</time></trkpt><trkpt lat="44.768742045823394" lon="10.323660107411712"><ele>72.0</ele><time>2026-04-04T13:10:01.001Z</time></trkpt><trkpt lat="44.76859438780243" lon="10.323603179996246"><ele>72.0</ele><time>2026-04-04T13:10:02.001Z</time></trkpt><trkpt lat="44.76846004118583" lon="10.323544241102018"><ele>72.0</ele><time>2026-04-04T13:10:03.001Z</time></trkpt><trkpt lat="44.768324590163935" lon="10.323489797925353"><ele>72.0</ele><time>2026-04-04T13:10:04.001Z</time></trkpt><trkpt lat="44.76818222465839" lon="10.323434010925649"><ele>72.0</ele><time>2026-04-04T13:10:05.001Z</time></trkpt><trkpt lat="44.768043900387134" lon="10.323378392866811"><ele>72.0</ele><time>2026-04-04T13:10:06.001Z</time></trkpt><trkpt lat="44.767924077615156" lon="10.323327153468021"><ele>72.0</ele><time>2026-04-04T13:10:07.001Z</time></trkpt><trkpt lat="44.76781893184248" lon="10.323277163315161"><ele>72.0</ele><time>2026-04-04T13:10:08.001Z</time></trkpt><trkpt lat="44.76773796299401" lon="10.323234395111571"><ele>72.0</ele><time>2026-04-04T13:10:09.001Z</time></trkpt><trkpt lat="44.76763669973885" lon="10.323156767696423"><ele>72.0</ele><time>2026-04-04T13:10:11.001Z</time></trkpt><trkpt lat="44.76755836243175" lon="10.323108499449088"><ele>72.0</ele><time>2026-04-04T13:10:12.001Z</time></trkpt><trkpt lat="44.76750055777613" lon="10.322952715598294"><ele>72.25</ele><time>2026-04-04T13:10:13.001Z</time></trkpt><trkpt lat="44.76741203047409" lon="10.322841854775836"><ele>72.5</ele><time>2026-04-04T13:10:14.001Z</time></trkpt><trkpt lat="44.767307451280686" lon="10.32275569345424"><ele>72.75</ele><time>2026-04-04T13:10:15.001Z</time></trkpt><trkpt lat="44.76719669793418" lon="10.322706526047817"><ele>73.0</ele><time>2026-04-04T13:10:16.001Z</time></trkpt><trkpt lat="44.7670437727715" lon="10.32269031858613"><ele>73.0</ele><time>2026-04-04T13:10:17.001Z</time></trkpt><trkpt lat="44.76691142268395" lon="10.32272791142591"><ele>73.0</ele><time>2026-04-04T13:10:18.001Z</time></trkpt><trkpt lat="44.76678146779885" lon="10.322805919341578"><ele>73.0</ele><time>2026-04-04T13:10:19.001Z</time></trkpt><trkpt lat="44.766674428371275" lon="10.322909197901335"><ele>73.0</ele><time>2026-04-04T13:10:20.001Z</time></trkpt><trkpt lat="44.766611244340204" lon="10.323038427336032"><ele>72.5</ele><time>2026-04-04T13:10:21.001Z</time></trkpt><trkpt lat="44.766473653883196" lon="10.323053288059066"><ele>72.0</ele><time>2026-04-04T13:10:22.001Z</time></trkpt><trkpt lat="44.76636530409069" lon="10.323052256359"><ele>71.5</ele><time>2026-04-04T13:10:23.001Z</time></trkpt><trkpt lat="44.76627009756552" lon="10.323001671315001"><ele>71.0</ele><time>2026-04-04T13:10:24.001Z</time></trkpt><trkpt lat="44.76616925484653" lon="10.322911135953248"><ele>71.0</ele><time>2026-04-04T13:10:25.001Z</time></trkpt><trkpt lat="44.76605052374497" lon="10.322821031016526"><ele>71.0</ele><time>2026-04-04T13:10:26.001Z</time></trkpt><trkpt lat="44.7659076524804" lon="10.322763717163069"><ele>71.0</ele><time>2026-04-04T13:10:27.001Z</time></trkpt><trkpt lat="44.76576018933531" lon="10.322727831303904"><ele>71.0</ele><time>2026-04-04T13:10:28.001Z</time></trkpt><trkpt lat="44.76560036643173" lon="10.322690862982935"><ele>72.33333333333334</ele><time>2026-04-04T13:10:29Z</time></trkpt><trkpt lat="44.765439602087085" lon="10.322647264939828"><ele>73.66666666666667</ele><time>2026-04-04T13:10:30Z</time></trkpt><trkpt lat="44.7652823493773" lon="10.322605545266978"><ele>75.0</ele><time>2026-04-04T13:10:31.001Z</time></trkpt><trkpt lat="44.76514452845736" lon="10.32257190216884"><ele>75.4</ele><time>2026-04-04T13:10:32.001Z</time></trkpt><trkpt lat="44.7650210333295" lon="10.322561675539617"><ele>75.8</ele><time>2026-04-04T13:10:33.001Z</time></trkpt><trkpt lat="44.76490242240806" lon="10.322568381512637"><ele>76.2</ele><time>2026-04-04T13:10:34.001Z</time></trkpt><trkpt lat="44.76479667830608" lon="10.322573562942102"><ele>76.6</ele><time>2026-04-04T13:10:35.001Z</time></trkpt><trkpt lat="44.764699141404535" lon="10.322571827803213"><ele>77.0</ele><time>2026-04-04T13:10:36.001Z</time></trkpt><trkpt lat="44.7646124359932" lon="10.322566399784668"><ele>77.0</ele><time>2026-04-04T13:10:37.001Z</time></trkpt><trkpt lat="44.764527592982176" lon="10.322536049838087"><ele>77.0</ele><time>2026-04-04T13:10:38.001Z</time></trkpt><trkpt lat="44.764451149278266" lon="10.322465602338896"><ele>77.0</ele><time>2026-04-04T13:10:39.001Z</time></trkpt><trkpt lat="44.764361610532376" lon="10.322386056248586"><ele>77.0</ele><time>2026-04-04T13:10:40.001Z</time></trkpt><trkpt lat="44.76425833824969" lon="10.32232427664777"><ele>77.0</ele><time>2026-04-04T13:10:41.001Z</time></trkpt><trkpt lat="44.76414363869684" lon="10.32227316467177"><ele>76.5</ele><time>2026-04-04T13:10:42.001Z</time></trkpt><trkpt lat="44.764025095822326" lon="10.322227832505567"><ele>76.0</ele><time>2026-04-04T13:10:43.001Z</time></trkpt><trkpt lat="44.76390345328954" lon="10.322179653128348"><ele>75.5</ele><time>2026-04-04T13:10:44.001Z</time></trkpt><trkpt lat="44.76378145808188" lon="10.322131175018551"><ele>75.0</ele><time>2026-04-04T13:10:45.001Z</time></trkpt><trkpt lat="44.76365924170372" lon="10.322086403547237"><ele>75.0</ele><time>2026-04-04T13:10:46.001Z</time></trkpt><trkpt lat="44.76353193215924" lon="10.322039739962687"><ele>75.0</ele><time>2026-04-04T13:10:47.001Z</time></trkpt><trkpt lat="44.76340779738537" lon="10.321992340402822"><ele>75.0</ele><time>2026-04-04T13:10:48.001Z</time></trkpt><trkpt lat="44.763279047101186" lon="10.321942248678287"><ele>75.0</ele><time>2026-04-04T13:10:49.001Z</time></trkpt><trkpt lat="44.763150737877986" lon="10.321893545854726"><ele>75.25</ele><time>2026-04-04T13:10:50.001Z</time></trkpt><trkpt lat="44.76302191888507" lon="10.321840805421786"><ele>75.5</ele><time>2026-04-04T13:10:51.001Z</time></trkpt><trkpt lat="44.76290546063125" lon="10.32179434924516"><ele>75.75</ele><time>2026-04-04T13:10:52.001Z</time></trkpt><trkpt lat="44.76278641492661" lon="10.321749811728283"><ele>76.0</ele><time>2026-04-04T13:10:53.001Z</time></trkpt><trkpt lat="44.762676351860726" lon="10.321704915666645"><ele>76.5</ele><time>2026-04-04T13:10:54.001Z</time></trkpt><trkpt lat="44.762578385353635" lon="10.321656701447548"><ele>77.0</ele><time>2026-04-04T13:10:55.001Z</time></trkpt><trkpt lat="44.762494058010375" lon="10.321605622630056"><ele>77.5</ele><time>2026-04-04T13:10:56.001Z</time></trkpt><trkpt lat="44.7624168280794" lon="10.32154794834779"><ele>78.0</ele><time>2026-04-04T13:10:57.001Z</time></trkpt><trkpt lat="44.762342436627115" lon="10.321484170960158"><ele>78.5</ele><time>2026-04-04T13:10:58.001Z</time></trkpt><trkpt lat="44.76228088552072" lon="10.321419010596385"><ele>79.0</ele><time>2026-04-04T13:10:59.001Z</time></trkpt><trkpt lat="44.76222785227755" lon="10.321342856451755"><ele>79.16666666666666</ele><time>2026-04-04T13:11:00.001Z</time></trkpt><trkpt lat="44.76216704438127" lon="10.321280830907703"><ele>79.33333333333333</ele><time>2026-04-04T13:11:01.001Z</time></trkpt><trkpt lat="44.762089632008085" lon="10.321268824873815"><ele>79.5</ele><time>2026-04-04T13:11:02.001Z</time></trkpt><trkpt lat="44.76201530691167" lon="10.321293252684388"><ele>79.66666666666667</ele><time>2026-04-04T13:11:03.001Z</time></trkpt><trkpt lat="44.761944050295774" lon="10.321315299283013"><ele>79.83333333333334</ele><time>2026-04-04T13:11:04.001Z</time></trkpt><trkpt lat="44.76185940667548" lon="10.321322126928717"><ele>80.0</ele><time>2026-04-04T13:11:05.001Z</time></trkpt><trkpt lat="44.76177104168675" lon="10.321353049390426"><ele>80.4</ele><time>2026-04-04T13:11:06.001Z</time></trkpt><trkpt lat="44.76168120341568" lon="10.321299752508011"><ele>80.8</ele><time>2026-04-04T13:11:07.001Z</time></trkpt><trkpt lat="44.761587446135344" lon="10.321275127501446"><ele>81.19999999999999</ele><time>2026-04-04T13:11:08.001Z</time></trkpt><trkpt lat="44.76149384147532" lon="10.321239712945204"><ele>81.6</ele><time>2026-04-04T13:11:09.001Z</time></trkpt><trkpt lat="44.76138801378006" lon="10.32119390391979"><ele>82.0</ele><time>2026-04-04T13:11:10.001Z</time></trkpt><trkpt lat="44.76126684098722" lon="10.321150643815496"><ele>82.0</ele><time>2026-04-04T13:11:11.001Z</time></trkpt><trkpt lat="44.76113186751053" lon="10.321107415997023"><ele>82.0</ele><time>2026-04-04T13:11:12.001Z</time></trkpt><trkpt lat="44.76097431396906" lon="10.321052448239644"><ele>82.0</ele><time>2026-04-04T13:11:13.001Z</time></trkpt><trkpt lat="44.76082279391194" lon="10.320990375914135"><ele>81.0</ele><time>2026-04-04T13:11:14.001Z</time></trkpt><trkpt lat="44.76067279978105" lon="10.320927941194055"><ele>80.0</ele><time>2026-04-04T13:11:15.001Z</time></trkpt><trkpt lat="44.76053630471516" lon="10.32087174773623"><ele>79.0</ele><time>2026-04-04T13:11:16.001Z</time></trkpt><trkpt lat="44.760401438724394" lon="10.320819588601237"><ele>78.0</ele><time>2026-04-04T13:11:17.001Z</time></trkpt><trkpt lat="44.76027291825051" lon="10.32076800442393"><ele>78.25</ele><time>2026-04-04T13:11:18.001Z</time></trkpt><trkpt lat="44.76014437276169" lon="10.320713809045962"><ele>78.5</ele><time>2026-04-04T13:11:19.001Z</time></trkpt><trkpt lat="44.760010970422215" lon="10.320660117409863"><ele>78.75</ele><time>2026-04-04T13:11:20.001Z</time></trkpt><trkpt lat="44.75987810515373" lon="10.32060781754667"><ele>79.0</ele><time>2026-04-04T13:11:21.001Z</time></trkpt><trkpt lat="44.75974563983633" lon="10.320557276565433"><ele>79.5</ele><time>2026-04-04T13:11:22.001Z</time></trkpt><trkpt lat="44.75961395066323" lon="10.320505812547212"><ele>80.0</ele><time>2026-04-04T13:11:23.001Z</time></trkpt><trkpt lat="44.75948026046571" lon="10.32045192533599"><ele>80.5</ele><time>2026-04-04T13:11:24.001Z</time></trkpt><trkpt lat="44.759345819746756" lon="10.320397155603956"><ele>81.0</ele><time>2026-04-04T13:11:25.001Z</time></trkpt><trkpt lat="44.75920949010805" lon="10.320343718533492"><ele>81.25</ele><time>2026-04-04T13:11:26.001Z</time></trkpt><trkpt lat="44.75907204752282" lon="10.320291369380119"><ele>81.5</ele><time>2026-04-04T13:11:27.001Z</time></trkpt><trkpt lat="44.75893052725319" lon="10.320236234307878"><ele>81.75</ele><time>2026-04-04T13:11:28.001Z</time></trkpt><trkpt lat="44.75879152064191" lon="10.320181901694724"><ele>82.0</ele><time>2026-04-04T13:11:29.001Z</time></trkpt><trkpt lat="44.75865261959024" lon="10.320132400002066"><ele>82.25</ele><time>2026-04-04T13:11:30.001Z</time></trkpt><trkpt lat="44.75851968120903" lon="10.320083517986673"><ele>82.5</ele><time>2026-04-04T13:11:31.001Z</time></trkpt><trkpt lat="44.75838243746646" lon="10.320032602324122"><ele>82.75</ele><time>2026-04-04T13:11:32.001Z</time></trkpt><trkpt lat="44.75824569209968" lon="10.319981410076073"><ele>83.0</ele><time>2026-04-04T13:11:33.001Z</time></trkpt><trkpt lat="44.75811564178354" lon="10.31993003047675"><ele>83.0</ele><time>2026-04-04T13:11:34.001Z</time></trkpt><trkpt lat="44.75798481586281" lon="10.319880478598664"><ele>83.0</ele><time>2026-04-04T13:11:35.001Z</time></trkpt><trkpt lat="44.75785475027474" lon="10.319832040155688"><ele>83.0</ele><time>2026-04-04T13:11:36.001Z</time></trkpt><trkpt lat="44.75771608854283" lon="10.319781464462999"><ele>83.0</ele><time>2026-04-04T13:11:37.001Z</time></trkpt><trkpt lat="44.75756931375468" lon="10.319723256847158"><ele>83.5</ele><time>2026-04-04T13:11:38.001Z</time></trkpt><trkpt lat="44.7574215942941" lon="10.319660092163701"><ele>84.0</ele><time>2026-04-04T13:11:39.001Z</time></trkpt><trkpt lat="44.75728573139088" lon="10.319598603051872"><ele>84.5</ele><time>2026-04-04T13:11:40.001Z</time></trkpt><trkpt lat="44.75715308471848" lon="10.319538355929053"><ele>85.0</ele><time>2026-04-04T13:11:41.001Z</time></trkpt><trkpt lat="44.757023779043095" lon="10.31948030357655"><ele>85.0</ele><time>2026-04-04T13:11:42.001Z</time></trkpt><trkpt lat="44.75688539525853" lon="10.319417376415982"><ele>85.0</ele><time>2026-04-04T13:11:43.001Z</time></trkpt><trkpt lat="44.75672741868554" lon="10.319351944427494"><ele>85.0</ele><time>2026-04-04T13:11:44.001Z</time></trkpt><trkpt lat="44.756547907643665" lon="10.319273263741136"><ele>85.0</ele><time>2026-04-04T13:11:45.001Z</time></trkpt><trkpt lat="44.756367641124406" lon="10.31918646286699"><ele>85.0</ele><time>2026-04-04T13:11:46.001Z</time></trkpt><trkpt lat="44.756202724210915" lon="10.31910782016361"><ele>85.0</ele><time>2026-04-04T13:11:47.001Z</time></trkpt><trkpt lat="44.756056535422644" lon="10.319040055212938"><ele>85.0</ele><time>2026-04-04T13:11:48.001Z</time></trkpt><trkpt lat="44.75590993416354" lon="10.318972372795182"><ele>85.0</ele><time>2026-04-04T13:11:49.001Z</time></trkpt><trkpt lat="44.75576288752111" lon="10.318906450931314"><ele>85.0</ele><time>2026-04-04T13:11:50.001Z</time></trkpt><trkpt lat="44.75561609341077" lon="10.318841879153881"><ele>85.33333333333333</ele><time>2026-04-04T13:11:51.001Z</time></trkpt><trkpt lat="44.755462275833274" lon="10.318777117179227"><ele>85.66666666666667</ele><time>2026-04-04T13:11:52.001Z</time></trkpt><trkpt lat="44.755315759535804" lon="10.31871364864015"><ele>86.0</ele><time>2026-04-04T13:11:53.001Z</time></trkpt><trkpt lat="44.755165443764085" lon="10.31864769683959"><ele>86.33333333333334</ele><time>2026-04-04T13:11:54.001Z</time></trkpt><trkpt lat="44.75501720557271" lon="10.31858274756165"><ele>86.66666666666667</ele><time>2026-04-04T13:11:55.001Z</time></trkpt><trkpt lat="44.754872119050766" lon="10.31852275184486"><ele>87.0</ele><time>2026-04-04T13:11:56.001Z</time></trkpt><trkpt lat="44.75472815191894" lon="10.318462474861825"><ele>87.0</ele><time>2026-04-04T13:11:57.001Z</time></trkpt><trkpt lat="44.754585602213" lon="10.31839896364312"><ele>87.0</ele><time>2026-04-04T13:11:58.001Z</time></trkpt><trkpt lat="44.75444128314912" lon="10.318337346069061"><ele>87.0</ele><time>2026-04-04T13:11:59.001Z</time></trkpt><trkpt lat="44.754297234852224" lon="10.318281531211056"><ele>86.75</ele><time>2026-04-04T13:12:00.001Z</time></trkpt><trkpt lat="44.75415689067491" lon="10.318231743934948"><ele>86.5</ele><time>2026-04-04T13:12:01.001Z</time></trkpt><trkpt lat="44.754022797467414" lon="10.31818225922415"><ele>86.25</ele><time>2026-04-04T13:12:02.001Z</time></trkpt><trkpt lat="44.7538787730263" lon="10.318125760783968"><ele>86.0</ele><time>2026-04-04T13:12:03.001Z</time></trkpt><trkpt lat="44.7537337374236" lon="10.318070253061626"><ele>86.0</ele><time>2026-04-04T13:12:04.001Z</time></trkpt><trkpt lat="44.75358389479185" lon="10.318010807984585"><ele>86.0</ele><time>2026-04-04T13:12:05.001Z</time></trkpt><trkpt lat="44.75343519982528" lon="10.3179521872369"><ele>86.0</ele><time>2026-04-04T13:12:06.001Z</time></trkpt><trkpt lat="44.75329051812708" lon="10.317901263361343"><ele>86.0</ele><time>2026-04-04T13:12:07.001Z</time></trkpt><trkpt lat="44.75315067859141" lon="10.317850110035057"><ele>86.0</ele><time>2026-04-04T13:12:08.001Z</time></trkpt><trkpt lat="44.75301292186115" lon="10.31779638403515"><ele>86.0</ele><time>2026-04-04T13:12:09.001Z</time></trkpt><trkpt lat="44.75287044384793" lon="10.317743060793614"><ele>86.0</ele><time>2026-04-04T13:12:10.001Z</time></trkpt><trkpt lat="44.75273229006591" lon="10.317691561194806"><ele>86.75</ele><time>2026-04-04T13:12:11.001Z</time></trkpt><trkpt lat="44.75259706392769" lon="10.317638603007076"><ele>87.5</ele><time>2026-04-04T13:12:12.001Z</time></trkpt><trkpt lat="44.752464100808275" lon="10.317587469170672"><ele>88.25</ele><time>2026-04-04T13:12:13.001Z</time></trkpt><trkpt lat="44.75233137785211" lon="10.31753879405312"><ele>89.0</ele><time>2026-04-04T13:12:14.001Z</time></trkpt><trkpt lat="44.75219576563417" lon="10.317486902850998"><ele>89.0</ele><time>2026-04-04T13:12:15.001Z</time></trkpt><trkpt lat="44.75206114332563" lon="10.317435460641347"><ele>89.0</ele><time>2026-04-04T13:12:16.001Z</time></trkpt><trkpt lat="44.751925075136405" lon="10.31738192076182"><ele>89.0</ele><time>2026-04-04T13:12:17.001Z</time></trkpt><trkpt lat="44.751786276664824" lon="10.317325817926795"><ele>89.0</ele><time>2026-04-04T13:12:18.001Z</time></trkpt><trkpt lat="44.75165438168362" lon="10.31726898198671"><ele>89.25</ele><time>2026-04-04T13:12:19.002Z</time></trkpt><trkpt lat="44.75152797405317" lon="10.317212592437214"><ele>89.5</ele><time>2026-04-04T13:12:20.002Z</time></trkpt><trkpt lat="44.75139919033373" lon="10.317151230748223"><ele>89.75</ele><time>2026-04-04T13:12:21.002Z</time></trkpt><trkpt lat="44.7512623795224" lon="10.317093260044047"><ele>90.0</ele><time>2026-04-04T13:12:22.001Z</time></trkpt><trkpt lat="44.751115572849805" lon="10.317044997099368"><ele>90.25</ele><time>2026-04-04T13:12:23.001Z</time></trkpt><trkpt lat="44.75097169713569" lon="10.31700419782364"><ele>90.5</ele><time>2026-04-04T13:12:24.001Z</time></trkpt><trkpt lat="44.750823791502036" lon="10.316961939010708"><ele>90.75</ele><time>2026-04-04T13:12:25.001Z</time></trkpt><trkpt lat="44.7506812696668" lon="10.31692109647708"><ele>91.0</ele><time>2026-04-04T13:12:26.001Z</time></trkpt><trkpt lat="44.75053457707586" lon="10.31687791962801"><ele>91.0</ele><time>2026-04-04T13:12:27.001Z</time></trkpt><trkpt lat="44.75039204514347" lon="10.316829927292238"><ele>91.0</ele><time>2026-04-04T13:12:28.001Z</time></trkpt><trkpt lat="44.75024651300177" lon="10.316781305008574"><ele>91.0</ele><time>2026-04-04T13:12:29.001Z</time></trkpt><trkpt lat="44.750097387978286" lon="10.316735813367394"><ele>91.0</ele><time>2026-04-04T13:12:30.001Z</time></trkpt><trkpt lat="44.749950053927975" lon="10.316686615669031"><ele>91.0</ele><time>2026-04-04T13:12:31.001Z</time></trkpt><trkpt lat="44.74980177407616" lon="10.316636893073117"><ele>91.0</ele><time>2026-04-04T13:12:32.001Z</time></trkpt><trkpt lat="44.74965250338562" lon="10.316585729893868"><ele>91.0</ele><time>2026-04-04T13:12:33.001Z</time></trkpt><trkpt lat="44.749501525678895" lon="10.316534304225446"><ele>91.33333333333333</ele><time>2026-04-04T13:12:34.001Z</time></trkpt><trkpt lat="44.749345233709576" lon="10.316483585268163"><ele>91.66666666666667</ele><time>2026-04-04T13:12:35.001Z</time></trkpt><trkpt lat="44.749196124157564" lon="10.31642256010941"><ele>92.0</ele><time>2026-04-04T13:12:36.001Z</time></trkpt><trkpt lat="44.74905471031621" lon="10.316360173461485"><ele>92.0</ele><time>2026-04-04T13:12:37.001Z</time></trkpt><trkpt lat="44.748907789152184" lon="10.316298916555757"><ele>92.0</ele><time>2026-04-04T13:12:38.001Z</time></trkpt><trkpt lat="44.74875861060473" lon="10.316238642315747"><ele>92.0</ele><time>2026-04-04T13:12:39.001Z</time></trkpt><trkpt lat="44.74861009138534" lon="10.316179391706239"><ele>92.66666666666667</ele><time>2026-04-04T13:12:40.001Z</time></trkpt><trkpt lat="44.748460418727184" lon="10.316118807244095"><ele>93.33333333333333</ele><time>2026-04-04T13:12:41.001Z</time></trkpt><trkpt lat="44.748310579889356" lon="10.316058746968755"><ele>94.0</ele><time>2026-04-04T13:12:42.001Z</time></trkpt><trkpt lat="44.748150161139655" lon="10.31596778161427"><ele>94.0</ele><time>2026-04-04T13:12:43.001Z</time></trkpt><trkpt lat="44.747960171632215" lon="10.315887444305131"><ele>94.0</ele><time>2026-04-04T13:12:44.001Z</time></trkpt><trkpt lat="44.747759656732164" lon="10.315804398621484"><ele>94.0</ele><time>2026-04-04T13:12:45.001Z</time></trkpt><trkpt lat="44.74754956670964" lon="10.31571738728856"><ele>94.0</ele><time>2026-04-04T13:12:46.001Z</time></trkpt><trkpt lat="44.747337537568356" lon="10.315628068959162"><ele>94.0</ele><time>2026-04-04T13:12:47.001Z</time></trkpt><trkpt lat="44.747113786174616" lon="10.315532934147003"><ele>93.5</ele><time>2026-04-04T13:12:48.001Z</time></trkpt><trkpt lat="44.746892555882766" lon="10.315438502856788"><ele>93.0</ele><time>2026-04-04T13:12:49.001Z</time></trkpt><trkpt lat="44.74666605534917" lon="10.315342134506295"><ele>93.66666666666667</ele><time>2026-04-04T13:12:50.001Z</time></trkpt><trkpt lat="44.74644834318201" lon="10.315261021920373"><ele>94.33333333333334</ele><time>2026-04-04T13:12:51.001Z</time></trkpt><trkpt lat="44.74624218765729" lon="10.315169469905465"><ele>95.0</ele><time>2026-04-04T13:12:52.001Z</time></trkpt><trkpt lat="44.74602882860821" lon="10.315078611335213"><ele>95.66666666666667</ele><time>2026-04-04T13:12:53.001Z</time></trkpt><trkpt lat="44.745819029103494" lon="10.314987857728832"><ele>96.33333333333334</ele><time>2026-04-04T13:12:54.001Z</time></trkpt><trkpt lat="44.74560653310466" lon="10.31489836499031"><ele>97.0</ele><time>2026-04-04T13:12:55.001Z</time></trkpt><trkpt lat="44.74539311935065" lon="10.31481292567421"><ele>96.66666666666667</ele><time>2026-04-04T13:12:56.001Z</time></trkpt><trkpt lat="44.74517762756205" lon="10.314725636744956"><ele>96.33333333333334</ele><time>2026-04-04T13:12:57.001Z</time></trkpt><trkpt lat="44.74496277330874" lon="10.314632274767186"><ele>96.0</ele><time>2026-04-04T13:12:58.001Z</time></trkpt><trkpt lat="44.74474474025329" lon="10.314540019128865"><ele>96.0</ele><time>2026-04-04T13:12:59.001Z</time></trkpt><trkpt lat="44.74452532672287" lon="10.314449572588034"><ele>96.0</ele><time>2026-04-04T13:13:00.001Z</time></trkpt><trkpt lat="44.74431611042062" lon="10.314364414050209"><ele>96.0</ele><time>2026-04-04T13:13:01.001Z</time></trkpt><trkpt lat="44.74411134163547" lon="10.314281765710378"><ele>96.66666666666666</ele><time>2026-04-04T13:13:02.001Z</time></trkpt><trkpt lat="44.74391009027907" lon="10.31420082593024"><ele>97.33333333333333</ele><time>2026-04-04T13:13:03.001Z</time></trkpt><trkpt lat="44.743710621327935" lon="10.31411511510288"><ele>98.0</ele><time>2026-04-04T13:13:04.001Z</time></trkpt><trkpt lat="44.74351153207698" lon="10.314029503644504"><ele>97.66666666666666</ele><time>2026-04-04T13:13:05.001Z</time></trkpt><trkpt lat="44.74331352590407" lon="10.313943775259238"><ele>97.33333333333334</ele><time>2026-04-04T13:13:06.001Z</time></trkpt><trkpt lat="44.743116829881515" lon="10.313861443375195"><ele>97.0</ele><time>2026-04-04T13:13:07.001Z</time></trkpt><trkpt lat="44.74291538612545" lon="10.313778079573979"><ele>97.0</ele><time>2026-04-04T13:13:08.001Z</time></trkpt><trkpt lat="44.74271634601843" lon="10.313694836278826"><ele>97.0</ele><time>2026-04-04T13:13:09.001Z</time></trkpt><trkpt lat="44.74251469176617" lon="10.31360909284994"><ele>97.0</ele><time>2026-04-04T13:13:10.001Z</time></trkpt><trkpt lat="44.74231110147275" lon="10.31352434973279"><ele>98.0</ele><time>2026-04-04T13:13:11.001Z</time></trkpt><trkpt lat="44.74210463912291" lon="10.31343330718933"><ele>99.0</ele><time>2026-04-04T13:13:12.001Z</time></trkpt><trkpt lat="44.74189579251821" lon="10.313341350359211"><ele>100.0</ele><time>2026-04-04T13:13:13.001Z</time></trkpt><trkpt lat="44.7416857988042" lon="10.313250430982485"><ele>100.33333333333334</ele><time>2026-04-04T13:13:14.001Z</time></trkpt><trkpt lat="44.741477019970255" lon="10.313157393336866"><ele>100.66666666666666</ele><time>2026-04-04T13:13:15.001Z</time></trkpt><trkpt lat="44.74126224112026" lon="10.313062799220782"><ele>101.0</ele><time>2026-04-04T13:13:16.001Z</time></trkpt><trkpt lat="44.741050600578816" lon="10.312968987997184"><ele>101.0</ele><time>2026-04-04T13:13:17.001Z</time></trkpt><trkpt lat="44.74083403105491" lon="10.31287232357631"><ele>101.0</ele><time>2026-04-04T13:13:18.001Z</time></trkpt><trkpt lat="44.74062451301066" lon="10.312778932049973"><ele>101.0</ele><time>2026-04-04T13:13:19.001Z</time></trkpt><trkpt lat="44.74041376545942" lon="10.312685547810629"><ele>102.0</ele><time>2026-04-04T13:13:20.001Z</time></trkpt><trkpt lat="44.74019526109502" lon="10.312590318139652"><ele>103.0</ele><time>2026-04-04T13:13:21.001Z</time></trkpt><trkpt lat="44.73998217732302" lon="10.312497880183873"><ele>103.0</ele><time>2026-04-04T13:13:22.001Z</time></trkpt><trkpt lat="44.73976489932002" lon="10.312403983671532"><ele>103.0</ele><time>2026-04-04T13:13:23.001Z</time></trkpt><trkpt lat="44.73955374499373" lon="10.312311577871018"><ele>103.0</ele><time>2026-04-04T13:13:24.001Z</time></trkpt><trkpt lat="44.739333358306965" lon="10.312218355127026"><ele>103.5</ele><time>2026-04-04T13:13:25.001Z</time></trkpt><trkpt lat="44.73911594285329" lon="10.312122918068788"><ele>104.0</ele><time>2026-04-04T13:13:26.001Z</time></trkpt><trkpt lat="44.738902423050604" lon="10.312031731487956"><ele>104.0</ele><time>2026-04-04T13:13:27.001Z</time></trkpt><trkpt lat="44.73868852626982" lon="10.311939204575795"><ele>104.0</ele><time>2026-04-04T13:13:28.001Z</time></trkpt><trkpt lat="44.73847714986047" lon="10.311846004798856"><ele>104.0</ele><time>2026-04-04T13:13:29.001Z</time></trkpt><trkpt lat="44.738273472642305" lon="10.31175454850026"><ele>104.0</ele><time>2026-04-04T13:13:30.001Z</time></trkpt><trkpt lat="44.73807763856921" lon="10.311667556651749"><ele>104.0</ele><time>2026-04-04T13:13:31.001Z</time></trkpt><trkpt lat="44.737889089102985" lon="10.31158431995295"><ele>104.0</ele><time>2026-04-04T13:13:32.001Z</time></trkpt><trkpt lat="44.73769601052148" lon="10.311497502556033"><ele>104.33333333333333</ele><time>2026-04-04T13:13:33.001Z</time></trkpt><trkpt lat="44.737497009630346" lon="10.311410279826212"><ele>104.66666666666666</ele><time>2026-04-04T13:13:34.001Z</time></trkpt><trkpt lat="44.737300737658565" lon="10.311328476113614"><ele>105.0</ele><time>2026-04-04T13:13:35.001Z</time></trkpt><trkpt lat="44.737100791136335" lon="10.311242485574823"><ele>105.33333333333334</ele><time>2026-04-04T13:13:36.001Z</time></trkpt><trkpt lat="44.73690182457459" lon="10.311155309812628"><ele>105.66666666666667</ele><time>2026-04-04T13:13:37.001Z</time></trkpt><trkpt lat="44.73670123657194" lon="10.311064340451388"><ele>106.0</ele><time>2026-04-04T13:13:38.001Z</time></trkpt><trkpt lat="44.73649865757083" lon="10.3109765859518"><ele>106.0</ele><time>2026-04-04T13:13:39.001Z</time></trkpt><trkpt lat="44.73629411934902" lon="10.31088519861664"><ele>106.0</ele><time>2026-04-04T13:13:40.001Z</time></trkpt><trkpt lat="44.73608483903502" lon="10.310794833502609"><ele>106.0</ele><time>2026-04-04T13:13:41.001Z</time></trkpt><trkpt lat="44.73587488360601" lon="10.310697911631099"><ele>106.0</ele><time>2026-04-04T13:13:42.001Z</time></trkpt><trkpt lat="44.735667311539046" lon="10.310599663813138"><ele>106.0</ele><time>2026-04-04T13:13:43.001Z</time></trkpt><trkpt lat="44.73545657008419" lon="10.31050465368285"><ele>106.0</ele><time>2026-04-04T13:13:44.001Z</time></trkpt><trkpt lat="44.73524336932615" lon="10.310413981010099"><ele>106.66666666666667</ele><time>2026-04-04T13:13:45.001Z</time></trkpt><trkpt lat="44.735029564410944" lon="10.310325570355184"><ele>107.33333333333334</ele><time>2026-04-04T13:13:46.001Z</time></trkpt><trkpt lat="44.73482080833906" lon="10.310239801164787"><ele>108.0</ele><time>2026-04-04T13:13:47.001Z</time></trkpt><trkpt lat="44.73460927163537" lon="10.310157984392355"><ele>108.0</ele><time>2026-04-04T13:13:48.001Z</time></trkpt><trkpt lat="44.734393208583555" lon="10.310077172482234"><ele>108.0</ele><time>2026-04-04T13:13:49.001Z</time></trkpt><trkpt lat="44.73417922433723" lon="10.309998823228662"><ele>108.0</ele><time>2026-04-04T13:13:50.001Z</time></trkpt><trkpt lat="44.73396180295627" lon="10.309918889946305"><ele>108.66666666666666</ele><time>2026-04-04T13:13:51.001Z</time></trkpt><trkpt lat="44.733747500763066" lon="10.309835918577168"><ele>109.33333333333333</ele><time>2026-04-04T13:13:52.001Z</time></trkpt><trkpt lat="44.733540772809484" lon="10.309756814248772"><ele>110.0</ele><time>2026-04-04T13:13:53.001Z</time></trkpt><trkpt lat="44.733342525999966" lon="10.309680511080176"><ele>110.0</ele><time>2026-04-04T13:13:54.001Z</time></trkpt><trkpt lat="44.73314604686433" lon="10.309607440342504"><ele>110.0</ele><time>2026-04-04T13:13:55.001Z</time></trkpt><trkpt lat="44.73294992627436" lon="10.309534436795301"><ele>110.0</ele><time>2026-04-04T13:13:56.001Z</time></trkpt><trkpt lat="44.73274820078702" lon="10.309458154626629"><ele>110.0</ele><time>2026-04-04T13:13:57.001Z</time></trkpt><trkpt lat="44.73254576832529" lon="10.309379148648912"><ele>110.0</ele><time>2026-04-04T13:13:58.001Z</time></trkpt><trkpt lat="44.732339312566836" lon="10.309297107662326"><ele>110.0</ele><time>2026-04-04T13:13:59.001Z</time></trkpt><trkpt lat="44.732132525649" lon="10.309217497055833"><ele>110.0</ele><time>2026-04-04T13:14:00.001Z</time></trkpt><trkpt lat="44.731926317641445" lon="10.309136068109382"><ele>110.0</ele><time>2026-04-04T13:14:01.001Z</time></trkpt><trkpt lat="44.73171644176589" lon="10.309048859173963"><ele>110.0</ele><time>2026-04-04T13:14:02.001Z</time></trkpt><trkpt lat="44.73152299525654" lon="10.308966386711559"><ele>110.33333333333333</ele><time>2026-04-04T13:14:03.001Z</time></trkpt><trkpt lat="44.73132953765266" lon="10.308886558401635"><ele>110.66666666666666</ele><time>2026-04-04T13:14:04.001Z</time></trkpt><trkpt lat="44.731135121342334" lon="10.308805438961146"><ele>111.0</ele><time>2026-04-04T13:14:05.001Z</time></trkpt><trkpt lat="44.73093395406264" lon="10.30871845524579"><ele>111.33333333333334</ele><time>2026-04-04T13:14:06.001Z</time></trkpt><trkpt lat="44.730734731344626" lon="10.308634465323388"><ele>111.66666666666667</ele><time>2026-04-04T13:14:07.001Z</time></trkpt><trkpt lat="44.73054894817622" lon="10.308558728982534"><ele>112.0</ele><time>2026-04-04T13:14:08.001Z</time></trkpt><trkpt lat="44.73037768050165" lon="10.30848761467648"><ele>112.0</ele><time>2026-04-04T13:14:09.001Z</time></trkpt><trkpt lat="44.73022051351659" lon="10.308420019910951"><ele>112.0</ele><time>2026-04-04T13:14:10.001Z</time></trkpt><trkpt lat="44.730085386331815" lon="10.30836127355358"><ele>112.0</ele><time>2026-04-04T13:14:11.001Z</time></trkpt><trkpt lat="44.72996970339318" lon="10.308311514888796"><ele>112.0</ele><time>2026-04-04T13:14:12.001Z</time></trkpt><trkpt lat="44.72988648582871" lon="10.308261711611445"><ele>112.00000000000001</ele><time>2026-04-04T13:14:13.001Z</time></trkpt><trkpt lat="44.729835261902466" lon="10.308199720689792"><ele>112.0</ele><time>2026-04-04T13:14:14.002Z</time></trkpt><trkpt lat="44.72980875856342" lon="10.308088566508415"><ele>112.0</ele><time>2026-04-04T13:14:15.002Z</time></trkpt><trkpt lat="44.729771302015834" lon="10.307977356333263"><ele>112.0</ele><time>2026-04-04T13:14:16.002Z</time></trkpt><trkpt lat="44.729705396875545" lon="10.307937376998998"><ele>112.00000000000001</ele><time>2026-04-04T13:14:19.002Z</time></trkpt><trkpt lat="44.729627735306" lon="10.307947292074191"><ele>112.0</ele><time>2026-04-04T13:15:28.001Z</time></trkpt><trkpt lat="44.72958617615072" lon="10.307874218350852"><ele>112.00000000000001</ele><time>2026-04-04T13:16:01.001Z</time></trkpt><trkpt lat="44.7296467189498" lon="10.307937338546475"><ele>112.0</ele><time>2026-04-04T13:16:24.001Z</time></trkpt><trkpt lat="44.72958383107086" lon="10.307987756520864"><ele>112.0</ele><time>2026-04-04T13:18:37.002Z</time></trkpt><trkpt lat="44.729504583456496" lon="10.308029101609105"><ele>112.0</ele><time>2026-04-04T13:18:40.002Z</time></trkpt><trkpt lat="44.72938412955054" lon="10.308086610457504"><ele>112.00000000000001</ele><time>2026-04-04T13:18:42.002Z</time></trkpt><trkpt lat="44.729298440193446" lon="10.308085392342203"><ele>112.0</ele><time>2026-04-04T13:18:43.002Z</time></trkpt><trkpt lat="44.72920800043292" lon="10.30804841938673"><ele>112.0</ele><time>2026-04-04T13:18:44.002Z</time></trkpt><trkpt lat="44.72910029853364" lon="10.307988162543449"><ele>112.0</ele><time>2026-04-04T13:18:45.002Z</time></trkpt><trkpt lat="44.728978533865906" lon="10.307925011217932"><ele>112.0</ele><time>2026-04-04T13:18:46.002Z</time></trkpt><trkpt lat="44.728839583961566" lon="10.307868878156542"><ele>112.0</ele><time>2026-04-04T13:18:47.002Z</time></trkpt><trkpt lat="44.7286941640155" lon="10.307809831181311"><ele>112.66666666666667</ele><time>2026-04-04T13:18:48.002Z</time></trkpt><trkpt lat="44.72854418215685" lon="10.307747125553757"><ele>113.33333333333334</ele><time>2026-04-04T13:18:49.002Z</time></trkpt><trkpt lat="44.72838732190592" lon="10.307677668734465"><ele>114.0</ele><time>2026-04-04T13:18:50.002Z</time></trkpt><trkpt lat="44.728237153303475" lon="10.307615061115152"><ele>114.0</ele><time>2026-04-04T13:18:51.002Z</time></trkpt><trkpt lat="44.72809542833297" lon="10.307558489226347"><ele>114.0</ele><time>2026-04-04T13:18:52.002Z</time></trkpt><trkpt lat="44.72795706808012" lon="10.307500534420166"><ele>114.0</ele><time>2026-04-04T13:18:53.001Z</time></trkpt><trkpt lat="44.727812633566245" lon="10.307442774007162"><ele>114.0</ele><time>2026-04-04T13:18:54.001Z</time></trkpt><trkpt lat="44.72766091286493" lon="10.307378356181307"><ele>114.33333333333334</ele><time>2026-04-04T13:18:55.001Z</time></trkpt><trkpt lat="44.727507888639884" lon="10.307315419441737"><ele>114.66666666666667</ele><time>2026-04-04T13:18:56.001Z</time></trkpt><trkpt lat="44.72734683319106" lon="10.307249259316373"><ele>115.0</ele><time>2026-04-04T13:18:57.001Z</time></trkpt><trkpt lat="44.72718342474104" lon="10.307183721579946"><ele>115.0</ele><time>2026-04-04T13:18:58.001Z</time></trkpt><trkpt lat="44.72701717978287" lon="10.307113571278835"><ele>115.0</ele><time>2026-04-04T13:18:59.001Z</time></trkpt><trkpt lat="44.726849294897676" lon="10.307045777027918"><ele>115.0</ele><time>2026-04-04T13:19:00.001Z</time></trkpt><trkpt lat="44.72667839753341" lon="10.306978075381133"><ele>115.66666666666667</ele><time>2026-04-04T13:19:01.001Z</time></trkpt><trkpt lat="44.72651015087658" lon="10.306913462383243"><ele>116.33333333333334</ele><time>2026-04-04T13:19:02.001Z</time></trkpt><trkpt lat="44.72633986650177" lon="10.3068447385151"><ele>117.0</ele><time>2026-04-04T13:19:03.001Z</time></trkpt><trkpt lat="44.72616789493855" lon="10.306776902215361"><ele>117.33333333333334</ele><time>2026-04-04T13:19:04.001Z</time></trkpt><trkpt lat="44.72599236798458" lon="10.306707907730006"><ele>117.66666666666667</ele><time>2026-04-04T13:19:05.001Z</time></trkpt><trkpt lat="44.72581422557647" lon="10.306638430897737"><ele>118.0</ele><time>2026-04-04T13:19:06.001Z</time></trkpt><trkpt lat="44.72563983810016" lon="10.30656754239116"><ele>118.0</ele><time>2026-04-04T13:19:07.001Z</time></trkpt><trkpt lat="44.725463412638646" lon="10.306494230980954"><ele>118.0</ele><time>2026-04-04T13:19:08.001Z</time></trkpt><trkpt lat="44.72528403806652" lon="10.306418113544382"><ele>118.0</ele><time>2026-04-04T13:19:09.001Z</time></trkpt><trkpt lat="44.72511371446065" lon="10.306345471046038"><ele>118.0</ele><time>2026-04-04T13:19:10.001Z</time></trkpt><trkpt lat="44.724944484185116" lon="10.30627542341204"><ele>118.0</ele><time>2026-04-04T13:19:11.001Z</time></trkpt><trkpt lat="44.724773293538895" lon="10.306206565299558"><ele>118.0</ele><time>2026-04-04T13:19:12.001Z</time></trkpt><trkpt lat="44.72460298803191" lon="10.306135614756975"><ele>118.0</ele><time>2026-04-04T13:19:13.001Z</time></trkpt><trkpt lat="44.72442817650348" lon="10.306060196912608"><ele>118.0</ele><time>2026-04-04T13:19:14.001Z</time></trkpt><trkpt lat="44.72425284899035" lon="10.30598659991965"><ele>118.0</ele><time>2026-04-04T13:19:15.001Z</time></trkpt><trkpt lat="44.72407572252831" lon="10.305914051477174"><ele>118.66666666666667</ele><time>2026-04-04T13:19:16.001Z</time></trkpt><trkpt lat="44.723892407205426" lon="10.30584292006934"><ele>119.33333333333334</ele><time>2026-04-04T13:19:17.001Z</time></trkpt><trkpt lat="44.72371790442565" lon="10.30577179477766"><ele>120.0</ele><time>2026-04-04T13:19:18.001Z</time></trkpt><trkpt lat="44.72354339532333" lon="10.305698315623811"><ele>120.33333333333334</ele><time>2026-04-04T13:19:19.001Z</time></trkpt><trkpt lat="44.72337142065138" lon="10.305626397566353"><ele>120.66666666666667</ele><time>2026-04-04T13:19:20.001Z</time></trkpt><trkpt lat="44.72320245733685" lon="10.305555375763866"><ele>121.0</ele><time>2026-04-04T13:19:21.001Z</time></trkpt><trkpt lat="44.72304921222628" lon="10.305492864899877"><ele>121.0</ele><time>2026-04-04T13:19:22.001Z</time></trkpt><trkpt lat="44.72290368107843" lon="10.305434190347139"><ele>121.0</ele><time>2026-04-04T13:19:23.001Z</time></trkpt><trkpt lat="44.72275903862708" lon="10.305374618719325"><ele>121.0</ele><time>2026-04-04T13:19:24.001Z</time></trkpt><trkpt lat="44.72260886212942" lon="10.305311883980634"><ele>121.66666666666667</ele><time>2026-04-04T13:19:25.001Z</time></trkpt><trkpt lat="44.722460636654816" lon="10.305253637114612"><ele>122.33333333333334</ele><time>2026-04-04T13:19:26.001Z</time></trkpt><trkpt lat="44.722308656300946" lon="10.30519159023467"><ele>123.0</ele><time>2026-04-04T13:19:27.001Z</time></trkpt><trkpt lat="44.72215831107461" lon="10.305129777085677"><ele>123.0</ele><time>2026-04-04T13:19:28.001Z</time></trkpt><trkpt lat="44.7220111753303" lon="10.305071691694547"><ele>123.0</ele><time>2026-04-04T13:19:29.001Z</time></trkpt><trkpt lat="44.7218599315003" lon="10.305016546492023"><ele>123.0</ele><time>2026-04-04T13:19:30.001Z</time></trkpt><trkpt lat="44.72171800727164" lon="10.304962081634446"><ele>123.5</ele><time>2026-04-04T13:19:31.001Z</time></trkpt><trkpt lat="44.72157822805796" lon="10.304906108782653"><ele>124.0</ele><time>2026-04-04T13:19:32.001Z</time></trkpt><trkpt lat="44.72144297855021" lon="10.304857998854928"><ele>124.5</ele><time>2026-04-04T13:19:33.001Z</time></trkpt><trkpt lat="44.72131782611904" lon="10.304818357229978"><ele>125.0</ele><time>2026-04-04T13:19:34.001Z</time></trkpt><trkpt lat="44.72120173733525" lon="10.30478415982873"><ele>125.0</ele><time>2026-04-04T13:19:35.001Z</time></trkpt><trkpt lat="44.72109392639037" lon="10.3047513939773"><ele>125.0</ele><time>2026-04-04T13:19:36.001Z</time></trkpt><trkpt lat="44.72098819402151" lon="10.30471365409897"><ele>125.0</ele><time>2026-04-04T13:19:37.001Z</time></trkpt><trkpt lat="44.7208794346968" lon="10.304674398371636"><ele>125.0</ele><time>2026-04-04T13:19:38.001Z</time></trkpt><trkpt lat="44.72077811901881" lon="10.304635097311737"><ele>125.0</ele><time>2026-04-04T13:19:39.001Z</time></trkpt><trkpt lat="44.72068888607622" lon="10.304599859604888"><ele>124.83333333333333</ele><time>2026-04-04T13:19:40.001Z</time></trkpt><trkpt lat="44.720615258284745" lon="10.304570417615723"><ele>124.66666666666666</ele><time>2026-04-04T13:19:41.001Z</time></trkpt><trkpt lat="44.720555304202" lon="10.304540391111589"><ele>124.5</ele><time>2026-04-04T13:19:42.001Z</time></trkpt><trkpt lat="44.72045839463042" lon="10.304498942234535"><ele>124.33333333333334</ele><time>2026-04-04T13:19:44.001Z</time></trkpt><trkpt lat="44.72038873308111" lon="10.30447785305828"><ele>124.16666666666667</ele><time>2026-04-04T13:19:45.001Z</time></trkpt><trkpt lat="44.720284033911106" lon="10.304441241796885"><ele>124.0</ele><time>2026-04-04T13:19:46.001Z</time></trkpt><trkpt lat="44.72016621463313" lon="10.304388667941915"><ele>124.5</ele><time>2026-04-04T13:19:47.001Z</time></trkpt><trkpt lat="44.72003785869145" lon="10.304321314917532"><ele>125.0</ele><time>2026-04-04T13:19:48.001Z</time></trkpt><trkpt lat="44.71990094312235" lon="10.30425857976522"><ele>125.5</ele><time>2026-04-04T13:19:49.001Z</time></trkpt><trkpt lat="44.71975731022438" lon="10.304201212157988"><ele>126.0</ele><time>2026-04-04T13:19:50.001Z</time></trkpt><trkpt lat="44.719602766101985" lon="10.304144112320929"><ele>126.0</ele><time>2026-04-04T13:19:51.001Z</time></trkpt><trkpt lat="44.71944379952144" lon="10.304085059409566"><ele>126.0</ele><time>2026-04-04T13:19:52.001Z</time></trkpt><trkpt lat="44.71929774214101" lon="10.30402309699334"><ele>126.0</ele><time>2026-04-04T13:19:53.001Z</time></trkpt><trkpt lat="44.71916029887477" lon="10.303962951233459"><ele>126.25</ele><time>2026-04-04T13:19:54.001Z</time></trkpt><trkpt lat="44.71902332713165" lon="10.303900645738866"><ele>126.5</ele><time>2026-04-04T13:19:55.001Z</time></trkpt><trkpt lat="44.7189054613042" lon="10.303842492739113"><ele>126.75</ele><time>2026-04-04T13:19:56.001Z</time></trkpt><trkpt lat="44.71877474525142" lon="10.303779220037601"><ele>127.0</ele><time>2026-04-04T13:19:57.001Z</time></trkpt><trkpt lat="44.71862949492744" lon="10.303708759622062"><ele>127.0</ele><time>2026-04-04T13:19:58.001Z</time></trkpt><trkpt lat="44.71847084652352" lon="10.30362978658541"><ele>127.0</ele><time>2026-04-04T13:19:59.001Z</time></trkpt><trkpt lat="44.718314723803324" lon="10.303545657621877"><ele>127.0</ele><time>2026-04-04T13:20:00.001Z</time></trkpt><trkpt lat="44.71815196183739" lon="10.303464033198033"><ele>127.0</ele><time>2026-04-04T13:20:01.001Z</time></trkpt><trkpt lat="44.71799427804963" lon="10.303381262246223"><ele>127.0</ele><time>2026-04-04T13:20:02.001Z</time></trkpt><trkpt lat="44.71784096380805" lon="10.303306065891144"><ele>127.0</ele><time>2026-04-04T13:20:03.001Z</time></trkpt><trkpt lat="44.71768842918796" lon="10.303235136506082"><ele>127.0</ele><time>2026-04-04T13:20:04.001Z</time></trkpt><trkpt lat="44.71753023413861" lon="10.303173321829858"><ele>127.0</ele><time>2026-04-04T13:20:05.001Z</time></trkpt><trkpt lat="44.717365230717284" lon="10.303119908924776"><ele>127.0</ele><time>2026-04-04T13:20:06.001Z</time></trkpt><trkpt lat="44.71719104191224" lon="10.30304367219237"><ele>127.0</ele><time>2026-04-04T13:20:07.001Z</time></trkpt><trkpt lat="44.717005180640705" lon="10.302980824066447"><ele>127.0</ele><time>2026-04-04T13:20:08.001Z</time></trkpt><trkpt lat="44.71680858369022" lon="10.302937542938812"><ele>127.0</ele><time>2026-04-04T13:20:09.001Z</time></trkpt><trkpt lat="44.71661284713245" lon="10.302862594971673"><ele>127.0</ele><time>2026-04-04T13:20:10.001Z</time></trkpt><trkpt lat="44.716408949483174" lon="10.302787733208868"><ele>127.0</ele><time>2026-04-04T13:20:11.001Z</time></trkpt><trkpt lat="44.71621239067689" lon="10.302721259614158"><ele>127.0</ele><time>2026-04-04T13:20:12.001Z</time></trkpt><trkpt lat="44.71601727942758" lon="10.302658018554554"><ele>127.33333333333334</ele><time>2026-04-04T13:20:13.001Z</time></trkpt><trkpt lat="44.71582073295973" lon="10.3025938410751"><ele>127.66666666666666</ele><time>2026-04-04T13:20:14.001Z</time></trkpt><trkpt lat="44.71562168373936" lon="10.302518592905212"><ele>128.0</ele><time>2026-04-04T13:20:15.001Z</time></trkpt><trkpt lat="44.7154227363008" lon="10.302432759538954"><ele>128.33333333333331</ele><time>2026-04-04T13:20:16.001Z</time></trkpt><trkpt lat="44.71522511466024" lon="10.302344010542972"><ele>128.66666666666666</ele><time>2026-04-04T13:20:17.001Z</time></trkpt><trkpt lat="44.71502724669435" lon="10.302251286421548"><ele>129.0</ele><time>2026-04-04T13:20:18.001Z</time></trkpt><trkpt lat="44.71482766540512" lon="10.3021573036273"><ele>129.0</ele><time>2026-04-04T13:20:19.001Z</time></trkpt><trkpt lat="44.7146281113879" lon="10.30206610987036"><ele>129.0</ele><time>2026-04-04T13:20:20.001Z</time></trkpt><trkpt lat="44.71442402443559" lon="10.301974331486411"><ele>129.0</ele><time>2026-04-04T13:20:21.001Z</time></trkpt><trkpt lat="44.714218113603394" lon="10.301883048083882"><ele>129.33333333333334</ele><time>2026-04-04T13:20:22.001Z</time></trkpt><trkpt lat="44.71401223197498" lon="10.301792382489698"><ele>129.66666666666669</ele><time>2026-04-04T13:20:23.001Z</time></trkpt><trkpt lat="44.71380617911859" lon="10.301701757562899"><ele>130.0</ele><time>2026-04-04T13:20:24.001Z</time></trkpt><trkpt lat="44.71359609544886" lon="10.301611367173296"><ele>130.0</ele><time>2026-04-04T13:20:25.001Z</time></trkpt><trkpt lat="44.71338534554412" lon="10.301523201262524"><ele>130.0</ele><time>2026-04-04T13:20:26.001Z</time></trkpt><trkpt lat="44.7131696295889" lon="10.301433169229778"><ele>130.0</ele><time>2026-04-04T13:20:27.001Z</time></trkpt><trkpt lat="44.712954910421224" lon="10.30134375093711"><ele>130.0</ele><time>2026-04-04T13:20:28.001Z</time></trkpt><trkpt lat="44.71274306413865" lon="10.301256495051582"><ele>130.0</ele><time>2026-04-04T13:20:29.001Z</time></trkpt><trkpt lat="44.712543446649896" lon="10.301172674433417"><ele>130.0</ele><time>2026-04-04T13:20:30.001Z</time></trkpt><trkpt lat="44.71234411410093" lon="10.301089055484505"><ele>130.66666666666669</ele><time>2026-04-04T13:20:31.001Z</time></trkpt><trkpt lat="44.71214481444333" lon="10.301006044055846"><ele>131.33333333333334</ele><time>2026-04-04T13:20:32.001Z</time></trkpt><trkpt lat="44.71194752802664" lon="10.30092063139566"><ele>132.0</ele><time>2026-04-04T13:20:33.001Z</time></trkpt><trkpt lat="44.71174974221001" lon="10.30083342513369"><ele>132.33333333333334</ele><time>2026-04-04T13:20:34.001Z</time></trkpt><trkpt lat="44.71155519530729" lon="10.300742719866145"><ele>132.66666666666669</ele><time>2026-04-04T13:20:35.001Z</time></trkpt><trkpt lat="44.71137942498706" lon="10.300652681717123"><ele>133.0</ele><time>2026-04-04T13:20:36.001Z</time></trkpt><trkpt lat="44.71122533268173" lon="10.300565504788993"><ele>133.0</ele><time>2026-04-04T13:20:37.001Z</time></trkpt><trkpt lat="44.71108559058708" lon="10.300479644695036"><ele>133.0</ele><time>2026-04-04T13:20:38.001Z</time></trkpt><trkpt lat="44.71094243709721" lon="10.300389683616128"><ele>133.0</ele><time>2026-04-04T13:20:39.001Z</time></trkpt><trkpt lat="44.710786228222226" lon="10.300300185736608"><ele>133.0</ele><time>2026-04-04T13:20:40.001Z</time></trkpt><trkpt lat="44.71062323290998" lon="10.300216141517074"><ele>133.0</ele><time>2026-04-04T13:20:41.001Z</time></trkpt><trkpt lat="44.710453146677025" lon="10.300134332879274"><ele>133.0</ele><time>2026-04-04T13:20:42.001Z</time></trkpt><trkpt lat="44.71027332083722" lon="10.300057176721793"><ele>133.33333333333334</ele><time>2026-04-04T13:20:43.001Z</time></trkpt><trkpt lat="44.71008713501508" lon="10.299987433243524"><ele>133.66666666666666</ele><time>2026-04-04T13:20:44.001Z</time></trkpt><trkpt lat="44.709896839512304" lon="10.29993003868916"><ele>134.0</ele><time>2026-04-04T13:20:45.001Z</time></trkpt><trkpt lat="44.70970088965011" lon="10.299889202539445"><ele>134.0</ele><time>2026-04-04T13:20:46.001Z</time></trkpt><trkpt lat="44.709503410987395" lon="10.299855284417685"><ele>134.0</ele><time>2026-04-04T13:20:47.001Z</time></trkpt><trkpt lat="44.709298389253334" lon="10.299818448714689"><ele>134.0</ele><time>2026-04-04T13:20:48.001Z</time></trkpt><trkpt lat="44.70909527456736" lon="10.29977724372991"><ele>134.33333333333331</ele><time>2026-04-04T13:20:49.001Z</time></trkpt><trkpt lat="44.70889520201473" lon="10.299731470806524"><ele>134.66666666666666</ele><time>2026-04-04T13:20:50.001Z</time></trkpt><trkpt lat="44.708695669899726" lon="10.299675711936986"><ele>135.0</ele><time>2026-04-04T13:20:51.001Z</time></trkpt><trkpt lat="44.70849945130296" lon="10.299609511261377"><ele>135.33333333333334</ele><time>2026-04-04T13:20:52.001Z</time></trkpt><trkpt lat="44.70830380826267" lon="10.29953740828745"><ele>135.66666666666669</ele><time>2026-04-04T13:20:53.001Z</time></trkpt><trkpt lat="44.70810818135391" lon="10.299461608759204"><ele>136.0</ele><time>2026-04-04T13:20:54.001Z</time></trkpt><trkpt lat="44.70792242704109" lon="10.299389358360534"><ele>136.0</ele><time>2026-04-04T13:20:55.001Z</time></trkpt><trkpt lat="44.70774455870141" lon="10.299321721504837"><ele>136.0</ele><time>2026-04-04T13:20:56.001Z</time></trkpt><trkpt lat="44.707569541847256" lon="10.29925335160402"><ele>136.0</ele><time>2026-04-04T13:20:57.001Z</time></trkpt><trkpt lat="44.70739538234935" lon="10.299187031059041"><ele>137.0</ele><time>2026-04-04T13:20:58.001Z</time></trkpt><trkpt lat="44.707224668881764" lon="10.299123655218839"><ele>138.0</ele><time>2026-04-04T13:20:59.001Z</time></trkpt><trkpt lat="44.707052506673556" lon="10.299059575164746"><ele>139.0</ele><time>2026-04-04T13:21:00.001Z</time></trkpt><trkpt lat="44.706881086714525" lon="10.298996094508725"><ele>139.0</ele><time>2026-04-04T13:21:01.001Z</time></trkpt><trkpt lat="44.70671171264015" lon="10.298932245663593"><ele>139.0</ele><time>2026-04-04T13:21:02.001Z</time></trkpt><trkpt lat="44.70654465831544" lon="10.298870445291058"><ele>139.0</ele><time>2026-04-04T13:21:03.001Z</time></trkpt><trkpt lat="44.706373903323254" lon="10.298806949280431"><ele>139.0</ele><time>2026-04-04T13:21:04.001Z</time></trkpt><trkpt lat="44.70620652952916" lon="10.298744354298663"><ele>139.0</ele><time>2026-04-04T13:21:05.001Z</time></trkpt><trkpt lat="44.70603911112901" lon="10.298679937207618"><ele>139.0</ele><time>2026-04-04T13:21:06.001Z</time></trkpt><trkpt lat="44.70586709511991" lon="10.29861464511539"><ele>139.66666666666669</ele><time>2026-04-04T13:21:07.001Z</time></trkpt><trkpt lat="44.70569764763599" lon="10.298548869408219"><ele>140.33333333333334</ele><time>2026-04-04T13:21:08.001Z</time></trkpt><trkpt lat="44.70552343205138" lon="10.298483462555746"><ele>141.0</ele><time>2026-04-04T13:21:09.001Z</time></trkpt><trkpt lat="44.705351022552186" lon="10.29842068078571"><ele>141.33333333333334</ele><time>2026-04-04T13:21:10.001Z</time></trkpt><trkpt lat="44.7051774720074" lon="10.298359753378271"><ele>141.66666666666669</ele><time>2026-04-04T13:21:11.001Z</time></trkpt><trkpt lat="44.70499748207024" lon="10.298292223787248"><ele>142.0</ele><time>2026-04-04T13:21:12.001Z</time></trkpt><trkpt lat="44.70482187289946" lon="10.298223722782774"><ele>142.0</ele><time>2026-04-04T13:21:13.001Z</time></trkpt><trkpt lat="44.70464281219067" lon="10.298155970921018"><ele>142.0</ele><time>2026-04-04T13:21:14.001Z</time></trkpt><trkpt lat="44.70446313022176" lon="10.298086732542917"><ele>142.0</ele><time>2026-04-04T13:21:15.001Z</time></trkpt><trkpt lat="44.704279964714026" lon="10.298010112534236"><ele>142.33333333333334</ele><time>2026-04-04T13:21:16.001Z</time></trkpt><trkpt lat="44.704091139148474" lon="10.297926126427468"><ele>142.66666666666666</ele><time>2026-04-04T13:21:17.001Z</time></trkpt><trkpt lat="44.70389641319709" lon="10.297835028114601"><ele>143.0</ele><time>2026-04-04T13:21:18.001Z</time></trkpt><trkpt lat="44.703695173422936" lon="10.297742395478135"><ele>142.33333333333331</ele><time>2026-04-04T13:21:19.001Z</time></trkpt><trkpt lat="44.70349044688096" lon="10.297647070054179"><ele>141.66666666666666</ele><time>2026-04-04T13:21:20.001Z</time></trkpt><trkpt lat="44.70327850074003" lon="10.297552201061851"><ele>141.0</ele><time>2026-04-04T13:21:21.001Z</time></trkpt><trkpt lat="44.70306175070473" lon="10.297455336811884"><ele>141.0</ele><time>2026-04-04T13:21:22.001Z</time></trkpt><trkpt lat="44.702836445009645" lon="10.297357035660918"><ele>141.0</ele><time>2026-04-04T13:21:23.001Z</time></trkpt><trkpt lat="44.70262307823492" lon="10.297259464897728"><ele>142.0</ele><time>2026-04-04T13:21:24.001Z</time></trkpt><trkpt lat="44.702401321335465" lon="10.297155608752965"><ele>143.0</ele><time>2026-04-04T13:21:25.001Z</time></trkpt><trkpt lat="44.70217458664911" lon="10.297052447403228"><ele>143.0</ele><time>2026-04-04T13:21:26.001Z</time></trkpt><trkpt lat="44.70194844432126" lon="10.29695026755262"><ele>143.0</ele><time>2026-04-04T13:21:27.001Z</time></trkpt><trkpt lat="44.701727648643555" lon="10.296850662179935"><ele>143.5</ele><time>2026-04-04T13:21:28.001Z</time></trkpt><trkpt lat="44.70150780408599" lon="10.296749986593094"><ele>144.0</ele><time>2026-04-04T13:21:29.001Z</time></trkpt><trkpt lat="44.70128730077958" lon="10.296653150418443"><ele>143.5</ele><time>2026-04-04T13:21:30.001Z</time></trkpt><trkpt lat="44.70106887299403" lon="10.29655646117262"><ele>143.0</ele><time>2026-04-04T13:21:31.001Z</time></trkpt><trkpt lat="44.700852671243474" lon="10.29645718385345"><ele>143.66666666666666</ele><time>2026-04-04T13:21:32.001Z</time></trkpt><trkpt lat="44.70064321333512" lon="10.296358225145383"><ele>144.33333333333334</ele><time>2026-04-04T13:21:33.001Z</time></trkpt><trkpt lat="44.700433826806986" lon="10.296259509516824"><ele>145.0</ele><time>2026-04-04T13:21:34.001Z</time></trkpt><trkpt lat="44.70022639590845" lon="10.296158043030669"><ele>145.66666666666669</ele><time>2026-04-04T13:21:35.001Z</time></trkpt><trkpt lat="44.70002182125329" lon="10.296049628427532"><ele>146.33333333333334</ele><time>2026-04-04T13:21:36.001Z</time></trkpt><trkpt lat="44.6998163374391" lon="10.295933249119559"><ele>147.0</ele><time>2026-04-04T13:21:37.001Z</time></trkpt><trkpt lat="44.69961030777892" lon="10.295821167899055"><ele>147.0</ele><time>2026-04-04T13:21:38.001Z</time></trkpt><trkpt lat="44.69939691864207" lon="10.29571566949855"><ele>147.0</ele><time>2026-04-04T13:21:39.001Z</time></trkpt><trkpt lat="44.69918497809591" lon="10.295629486143294"><ele>147.0</ele><time>2026-04-04T13:21:40.001Z</time></trkpt><trkpt lat="44.69896603003645" lon="10.295559188534197"><ele>147.0</ele><time>2026-04-04T13:21:41.001Z</time></trkpt><trkpt lat="44.69874030998803" lon="10.295500865293214"><ele>147.0</ele><time>2026-04-04T13:21:42.001Z</time></trkpt><trkpt lat="44.69852034325555" lon="10.295461030473044"><ele>147.5</ele><time>2026-04-04T13:21:43.001Z</time></trkpt><trkpt lat="44.69829049433028" lon="10.295421141505134"><ele>148.0</ele><time>2026-04-04T13:21:44.001Z</time></trkpt><trkpt lat="44.698066998181076" lon="10.295381758363634"><ele>148.0</ele><time>2026-04-04T13:21:45.001Z</time></trkpt><trkpt lat="44.69784528208504" lon="10.295340515895248"><ele>148.0</ele><time>2026-04-04T13:21:46.001Z</time></trkpt><trkpt lat="44.697626676727886" lon="10.295298196040337"><ele>148.0</ele><time>2026-04-04T13:21:47.001Z</time></trkpt><trkpt lat="44.69741469634849" lon="10.29525606274171"><ele>148.0</ele><time>2026-04-04T13:21:48.001Z</time></trkpt><trkpt lat="44.697200515253776" lon="10.295205563863451"><ele>148.0</ele><time>2026-04-04T13:21:49.001Z</time></trkpt><trkpt lat="44.69698379377102" lon="10.29514317615292"><ele>148.0</ele><time>2026-04-04T13:21:50.001Z</time></trkpt><trkpt lat="44.69677074691659" lon="10.295071194500514"><ele>149.0</ele><time>2026-04-04T13:21:51.001Z</time></trkpt><trkpt lat="44.6965555954427" lon="10.294991821022252"><ele>150.0</ele><time>2026-04-04T13:21:52.001Z</time></trkpt><trkpt lat="44.69635070257103" lon="10.294912231497449"><ele>151.0</ele><time>2026-04-04T13:21:53.001Z</time></trkpt><trkpt lat="44.696141063994574" lon="10.294827514840675"><ele>151.33333333333334</ele><time>2026-04-04T13:21:54.001Z</time></trkpt><trkpt lat="44.695931458874085" lon="10.294739356210147"><ele>151.66666666666666</ele><time>2026-04-04T13:21:55.001Z</time></trkpt><trkpt lat="44.695716874840485" lon="10.29464339692214"><ele>152.0</ele><time>2026-04-04T13:21:56.001Z</time></trkpt><trkpt lat="44.69550781057627" lon="10.294548788129536"><ele>152.0</ele><time>2026-04-04T13:21:57.001Z</time></trkpt><trkpt lat="44.69528822172421" lon="10.294454792083945"><ele>152.0</ele><time>2026-04-04T13:21:58.001Z</time></trkpt><trkpt lat="44.695074972646" lon="10.294365129425714"><ele>152.33333333333331</ele><time>2026-04-04T13:21:59.001Z</time></trkpt><trkpt lat="44.69486759478433" lon="10.294278274395957"><ele>152.66666666666666</ele><time>2026-04-04T13:22:00.001Z</time></trkpt><trkpt lat="44.69466048057619" lon="10.294188952703996"><ele>153.0</ele><time>2026-04-04T13:22:01.001Z</time></trkpt><trkpt lat="44.69445143203537" lon="10.294098483588725"><ele>153.0</ele><time>2026-04-04T13:22:02.001Z</time></trkpt><trkpt lat="44.69424732102107" lon="10.294013618789945"><ele>153.0</ele><time>2026-04-04T13:22:03.001Z</time></trkpt><trkpt lat="44.694037946371864" lon="10.293931097896452"><ele>153.0</ele><time>2026-04-04T13:22:04.001Z</time></trkpt><trkpt lat="44.69381690135722" lon="10.293858905556364"><ele>154.0</ele><time>2026-04-04T13:22:05.001Z</time></trkpt><trkpt lat="44.6935786407743" lon="10.293803348001514"><ele>155.0</ele><time>2026-04-04T13:22:06.001Z</time></trkpt><trkpt lat="44.69333544438402" lon="10.293725611400042"><ele>155.0</ele><time>2026-04-04T13:22:07.001Z</time></trkpt><trkpt lat="44.69308303954618" lon="10.293670448237481"><ele>155.0</ele><time>2026-04-04T13:22:08.001Z</time></trkpt><trkpt lat="44.69283611910556" lon="10.29361281435741"><ele>155.0</ele><time>2026-04-04T13:22:09.001Z</time></trkpt><trkpt lat="44.692600779998415" lon="10.293575651882833"><ele>155.0</ele><time>2026-04-04T13:22:10.001Z</time></trkpt><trkpt lat="44.69238234852771" lon="10.293499156034645"><ele>155.0</ele><time>2026-04-04T13:22:11.001Z</time></trkpt><trkpt lat="44.692167336917514" lon="10.293419782452478"><ele>155.0</ele><time>2026-04-04T13:22:12.001Z</time></trkpt><trkpt lat="44.691961863949224" lon="10.293336869452087"><ele>155.0</ele><time>2026-04-04T13:22:13.001Z</time></trkpt><trkpt lat="44.69176824297991" lon="10.293249983447653"><ele>155.66666666666666</ele><time>2026-04-04T13:22:14.001Z</time></trkpt><trkpt lat="44.69158578908052" lon="10.29316048586551"><ele>156.33333333333334</ele><time>2026-04-04T13:22:15.001Z</time></trkpt><trkpt lat="44.69141405171863" lon="10.293070893097694"><ele>157.0</ele><time>2026-04-04T13:22:16.001Z</time></trkpt><trkpt lat="44.691255014140644" lon="10.29298425139048"><ele>157.0</ele><time>2026-04-04T13:22:17.001Z</time></trkpt><trkpt lat="44.6911091663756" lon="10.292905992929322"><ele>157.0</ele><time>2026-04-04T13:22:18.001Z</time></trkpt><trkpt lat="44.6909681901608" lon="10.292832766287178"><ele>157.0</ele><time>2026-04-04T13:22:19.001Z</time></trkpt><trkpt lat="44.690843554538986" lon="10.292763513466836"><ele>157.0</ele><time>2026-04-04T13:22:20.001Z</time></trkpt><trkpt lat="44.69074446551197" lon="10.292689177642341"><ele>157.5</ele><time>2026-04-04T13:22:21.001Z</time></trkpt><trkpt lat="44.69065933543737" lon="10.292589163032597"><ele>158.0</ele><time>2026-04-04T13:22:22.001Z</time></trkpt><trkpt lat="44.69059734845922" lon="10.2924525275791"><ele>158.5</ele><time>2026-04-04T13:22:23.001Z</time></trkpt><trkpt lat="44.690529600747155" lon="10.292314012545324"><ele>159.0</ele><time>2026-04-04T13:22:24.001Z</time></trkpt><trkpt lat="44.69042937188649" lon="10.29221362420904"><ele>159.0</ele><time>2026-04-04T13:22:25.001Z</time></trkpt><trkpt lat="44.69030606659467" lon="10.29216411319026"><ele>159.0</ele><time>2026-04-04T13:22:26.001Z</time></trkpt><trkpt lat="44.690177104312546" lon="10.29215706197632"><ele>159.0</ele><time>2026-04-04T13:22:27.001Z</time></trkpt><trkpt lat="44.690049138051705" lon="10.292188722824454"><ele>159.0</ele><time>2026-04-04T13:22:28.001Z</time></trkpt><trkpt lat="44.68991814977574" lon="10.29223473878348"><ele>159.0</ele><time>2026-04-04T13:22:29.001Z</time></trkpt><trkpt lat="44.689783237475346" lon="10.292239816390927"><ele>159.0</ele><time>2026-04-04T13:22:30.001Z</time></trkpt><trkpt lat="44.68965212859771" lon="10.292183786569664"><ele>159.0</ele><time>2026-04-04T13:22:31.001Z</time></trkpt><trkpt lat="44.68951562221339" lon="10.292097093363218"><ele>159.0</ele><time>2026-04-04T13:22:32.001Z</time></trkpt><trkpt lat="44.689378524333044" lon="10.292019918741058"><ele>160.0</ele><time>2026-04-04T13:22:33.001Z</time></trkpt><trkpt lat="44.68922982894897" lon="10.29194672929512"><ele>161.0</ele><time>2026-04-04T13:22:34.001Z</time></trkpt><trkpt lat="44.68908169580781" lon="10.29187673377614"><ele>162.0</ele><time>2026-04-04T13:22:35.001Z</time></trkpt><trkpt lat="44.68892680217707" lon="10.291802649781221"><ele>162.0</ele><time>2026-04-04T13:22:36.001Z</time></trkpt><trkpt lat="44.68876813582507" lon="10.291723928417278"><ele>162.0</ele><time>2026-04-04T13:22:37.001Z</time></trkpt><trkpt lat="44.688611432033554" lon="10.291638555607381"><ele>162.0</ele><time>2026-04-04T13:22:38.001Z</time></trkpt><trkpt lat="44.68844571754371" lon="10.291544474282556"><ele>162.0</ele><time>2026-04-04T13:22:39.001Z</time></trkpt><trkpt lat="44.688283014154166" lon="10.291447426695983"><ele>162.0</ele><time>2026-04-04T13:22:40.001Z</time></trkpt><trkpt lat="44.68812490154505" lon="10.291344242502536"><ele>162.0</ele><time>2026-04-04T13:22:41Z</time></trkpt><trkpt lat="44.68796286133679" lon="10.291232958606352"><ele>162.0</ele><time>2026-04-04T13:22:42Z</time></trkpt><trkpt lat="44.687798194109156" lon="10.291119943691163"><ele>162.0</ele><time>2026-04-04T13:22:43Z</time></trkpt><trkpt lat="44.68762910330596" lon="10.291009338335572"><ele>162.0</ele><time>2026-04-04T13:22:44Z</time></trkpt><trkpt lat="44.68746667717904" lon="10.29090720309712"><ele>162.66666666666666</ele><time>2026-04-04T13:22:45Z</time></trkpt><trkpt lat="44.687317367401626" lon="10.290822180527913"><ele>163.33333333333331</ele><time>2026-04-04T13:22:46Z</time></trkpt><trkpt lat="44.687163676156935" lon="10.290737804492997"><ele>164.0</ele><time>2026-04-04T13:22:47Z</time></trkpt><trkpt lat="44.686988798099804" lon="10.290652970804967"><ele>164.33333333333331</ele><time>2026-04-04T13:22:48Z</time></trkpt><trkpt lat="44.68681350743285" lon="10.29056590563922"><ele>164.66666666666666</ele><time>2026-04-04T13:22:49Z</time></trkpt><trkpt lat="44.68664803707079" lon="10.290489691050952"><ele>165.0</ele><time>2026-04-04T13:22:50Z</time></trkpt><trkpt lat="44.686480047798625" lon="10.290411261865485"><ele>165.0</ele><time>2026-04-04T13:22:51Z</time></trkpt><trkpt lat="44.68631246300801" lon="10.290334197104892"><ele>165.0</ele><time>2026-04-04T13:22:52Z</time></trkpt><trkpt lat="44.686142676182406" lon="10.29026140050413"><ele>165.0</ele><time>2026-04-04T13:22:53Z</time></trkpt><trkpt lat="44.68597615739399" lon="10.290193427355534"><ele>164.66666666666666</ele><time>2026-04-04T13:22:54Z</time></trkpt><trkpt lat="44.68581846970788" lon="10.29013024661127"><ele>164.33333333333331</ele><time>2026-04-04T13:22:55Z</time></trkpt><trkpt lat="44.68567182757886" lon="10.290071682969742"><ele>164.0</ele><time>2026-04-04T13:22:56Z</time></trkpt><trkpt lat="44.68553917793826" lon="10.290017025812523"><ele>164.0</ele><time>2026-04-04T13:22:57Z</time></trkpt><trkpt lat="44.68541280197963" lon="10.289959632906127"><ele>164.0</ele><time>2026-04-04T13:22:58Z</time></trkpt><trkpt lat="44.685293371959965" lon="10.289905258466115"><ele>164.0</ele><time>2026-04-04T13:22:59Z</time></trkpt><trkpt lat="44.6851755994408" lon="10.289859521715421"><ele>164.0</ele><time>2026-04-04T13:23:00Z</time></trkpt><trkpt lat="44.68504511143996" lon="10.289808966669622"><ele>165.0</ele><time>2026-04-04T13:23:01Z</time></trkpt><trkpt lat="44.684915523108835" lon="10.289760713203862"><ele>166.0</ele><time>2026-04-04T13:23:02Z</time></trkpt><trkpt lat="44.68479386437515" lon="10.289711392354052"><ele>167.0</ele><time>2026-04-04T13:23:03Z</time></trkpt><trkpt lat="44.684682962908646" lon="10.289654342594488"><ele>168.0</ele><time>2026-04-04T13:23:04Z</time></trkpt><trkpt lat="44.68457807669335" lon="10.28959830330418"><ele>168.0</ele><time>2026-04-04T13:23:05Z</time></trkpt><trkpt lat="44.68446315951767" lon="10.289544302307412"><ele>168.0</ele><time>2026-04-04T13:23:06Z</time></trkpt><trkpt lat="44.68435373906305" lon="10.289501712916996"><ele>168.0</ele><time>2026-04-04T13:23:07Z</time></trkpt><trkpt lat="44.684235289045674" lon="10.289460056929085"><ele>168.0</ele><time>2026-04-04T13:23:08Z</time></trkpt><trkpt lat="44.68411304926579" lon="10.289377563059386"><ele>168.5</ele><time>2026-04-04T13:23:09Z</time></trkpt><trkpt lat="44.683970782971976" lon="10.28933437481235"><ele>169.0</ele><time>2026-04-04T13:23:10Z</time></trkpt><trkpt lat="44.683838991153756" lon="10.28925082373215"><ele>169.5</ele><time>2026-04-04T13:23:11Z</time></trkpt><trkpt lat="44.683713525018824" lon="10.289169470969584"><ele>170.0</ele><time>2026-04-04T13:23:12Z</time></trkpt><trkpt lat="44.68358547968996" lon="10.289090997896333"><ele>170.25</ele><time>2026-04-04T13:23:13Z</time></trkpt><trkpt lat="44.68346417570259" lon="10.289020410020633"><ele>170.5</ele><time>2026-04-04T13:23:14Z</time></trkpt><trkpt lat="44.683350325491475" lon="10.28895766600415"><ele>170.75</ele><time>2026-04-04T13:23:15Z</time></trkpt><trkpt lat="44.68324267219651" lon="10.288902371282079"><ele>171.0</ele><time>2026-04-04T13:23:16Z</time></trkpt><trkpt lat="44.68313580675505" lon="10.288819076531746"><ele>171.0</ele><time>2026-04-04T13:23:17Z</time></trkpt><trkpt lat="44.68302153777259" lon="10.288753858862224"><ele>171.0</ele><time>2026-04-04T13:23:18Z</time></trkpt><trkpt lat="44.68291697326872" lon="10.288712646958794"><ele>171.0</ele><time>2026-04-04T13:23:19Z</time></trkpt><trkpt lat="44.6828221149844" lon="10.288629144791118"><ele>171.0</ele><time>2026-04-04T13:23:20Z</time></trkpt><trkpt lat="44.68272168968103" lon="10.288554344356973"><ele>171.25</ele><time>2026-04-04T13:23:21Z</time></trkpt><trkpt lat="44.68261178915806" lon="10.288492839341666"><ele>171.5</ele><time>2026-04-04T13:23:22Z</time></trkpt><trkpt lat="44.682494264471416" lon="10.288430805919402"><ele>171.75</ele><time>2026-04-04T13:23:23Z</time></trkpt><trkpt lat="44.68238504563537" lon="10.288369226141139"><ele>172.0</ele><time>2026-04-04T13:23:24Z</time></trkpt><trkpt lat="44.68227695448918" lon="10.288300667888569"><ele>172.0</ele><time>2026-04-04T13:23:25Z</time></trkpt><trkpt lat="44.68215578639163" lon="10.288222689827093"><ele>172.0</ele><time>2026-04-04T13:23:26Z</time></trkpt><trkpt lat="44.68203161110278" lon="10.288156677720538"><ele>172.0</ele><time>2026-04-04T13:23:27Z</time></trkpt><trkpt lat="44.68192388856321" lon="10.28810559649846"><ele>172.0</ele><time>2026-04-04T13:23:28Z</time></trkpt><trkpt lat="44.68183305251846" lon="10.288058747250206"><ele>172.66666666666669</ele><time>2026-04-04T13:23:29Z</time></trkpt><trkpt lat="44.681753689052506" lon="10.28801127785708"><ele>173.33333333333334</ele><time>2026-04-04T13:23:30Z</time></trkpt><trkpt lat="44.681683494324915" lon="10.287972232313313"><ele>174.0</ele><time>2026-04-04T13:23:31Z</time></trkpt><trkpt lat="44.68161386858046" lon="10.287931737444794"><ele>174.66666666666666</ele><time>2026-04-04T13:23:32Z</time></trkpt><trkpt lat="44.681537867531794" lon="10.28788725908564"><ele>175.33333333333331</ele><time>2026-04-04T13:23:33Z</time></trkpt><trkpt lat="44.68146288468095" lon="10.287849324401826"><ele>176.0</ele><time>2026-04-04T13:23:34Z</time></trkpt><trkpt lat="44.68139131361992" lon="10.28780562309459"><ele>176.0</ele><time>2026-04-04T13:23:35Z</time></trkpt><trkpt lat="44.68132714372478" lon="10.287767807403053"><ele>176.0</ele><time>2026-04-04T13:23:36Z</time></trkpt><trkpt lat="44.68126535083186" lon="10.287732284497315"><ele>176.0</ele><time>2026-04-04T13:23:37Z</time></trkpt><trkpt lat="44.68120078251417" lon="10.28769001553261"><ele>176.0</ele><time>2026-04-04T13:23:38Z</time></trkpt><trkpt lat="44.68110202388082" lon="10.287609673474288"><ele>176.0</ele><time>2026-04-04T13:23:40Z</time></trkpt><trkpt lat="44.68100497851295" lon="10.287492838507537"><ele>176.0</ele><time>2026-04-04T13:23:42Z</time></trkpt><trkpt lat="44.68095109359334" lon="10.287434190937624"><ele>176.0</ele><time>2026-04-04T13:23:43Z</time></trkpt><trkpt lat="44.6808943354323" lon="10.287392081127125"><ele>176.0</ele><time>2026-04-04T13:23:44Z</time></trkpt><trkpt lat="44.68079578353025" lon="10.2873344522882"><ele>176.0</ele><time>2026-04-04T13:23:46Z</time></trkpt><trkpt lat="44.68069612931576" lon="10.287268655436986"><ele>176.0</ele><time>2026-04-04T13:23:48Z</time></trkpt><trkpt lat="44.68059040409891" lon="10.287211525470873"><ele>176.0</ele><time>2026-04-04T13:23:50Z</time></trkpt><trkpt lat="44.680474469149175" lon="10.28712683250272"><ele>175.60000000000002</ele><time>2026-04-04T13:23:52Z</time></trkpt><trkpt lat="44.680418833985044" lon="10.287051703765854"><ele>175.2</ele><time>2026-04-04T13:23:53Z</time></trkpt><trkpt lat="44.68037609048738" lon="10.286947950785002"><ele>174.8</ele><time>2026-04-04T13:23:54Z</time></trkpt><trkpt lat="44.68034400981016" lon="10.286826884290711"><ele>174.39999999999998</ele><time>2026-04-04T13:23:55Z</time></trkpt><trkpt lat="44.68031894772217" lon="10.28668054542905"><ele>174.0</ele><time>2026-04-04T13:23:56Z</time></trkpt><trkpt lat="44.68031770207037" lon="10.286519008131657"><ele>173.75</ele><time>2026-04-04T13:23:57Z</time></trkpt><trkpt lat="44.68032725582202" lon="10.286334443912303"><ele>173.5</ele><time>2026-04-04T13:23:58Z</time></trkpt><trkpt lat="44.680332626761846" lon="10.286140334771954"><ele>173.25</ele><time>2026-04-04T13:23:59Z</time></trkpt><trkpt lat="44.68032810127489" lon="10.285927174129572"><ele>173.0</ele><time>2026-04-04T13:24:00Z</time></trkpt><trkpt lat="44.68031657490823" lon="10.285704666072812"><ele>173.0</ele><time>2026-04-04T13:24:01Z</time></trkpt><trkpt lat="44.68030508916461" lon="10.285474330649327"><ele>173.0</ele><time>2026-04-04T13:24:02Z</time></trkpt><trkpt lat="44.68029368454825" lon="10.285238706973223"><ele>173.0</ele><time>2026-04-04T13:24:03Z</time></trkpt><trkpt lat="44.68029103646251" lon="10.28501593289964"><ele>173.0</ele><time>2026-04-04T13:24:04Z</time></trkpt><trkpt lat="44.68028838674464" lon="10.284808452113397"><ele>173.0</ele><time>2026-04-04T13:24:05Z</time></trkpt><trkpt lat="44.680279383091516" lon="10.284621182937295"><ele>173.0</ele><time>2026-04-04T13:24:06Z</time></trkpt><trkpt lat="44.68027379286474" lon="10.284457733774955"><ele>173.0</ele><time>2026-04-04T13:24:07Z</time></trkpt><trkpt lat="44.68027693053589" lon="10.284283927039478"><ele>172.75</ele><time>2026-04-04T13:24:08Z</time></trkpt><trkpt lat="44.680285088759355" lon="10.284088261838876"><ele>172.5</ele><time>2026-04-04T13:24:09Z</time></trkpt><trkpt lat="44.68029940947617" lon="10.283881432575846"><ele>172.25</ele><time>2026-04-04T13:24:10Z</time></trkpt><trkpt lat="44.68033848532827" lon="10.283669855950077"><ele>172.0</ele><time>2026-04-04T13:24:11Z</time></trkpt><trkpt lat="44.68039287743872" lon="10.283455409185889"><ele>172.0</ele><time>2026-04-04T13:24:12Z</time></trkpt><trkpt lat="44.680451421108614" lon="10.28324030413083"><ele>172.0</ele><time>2026-04-04T13:24:13Z</time></trkpt><trkpt lat="44.68050856035431" lon="10.283026351673422"><ele>172.0</ele><time>2026-04-04T13:24:14Z</time></trkpt><trkpt lat="44.68057007187183" lon="10.28280616884742"><ele>172.33333333333334</ele><time>2026-04-04T13:24:15Z</time></trkpt><trkpt lat="44.680631269924675" lon="10.28258251095437"><ele>172.66666666666666</ele><time>2026-04-04T13:24:16Z</time></trkpt><trkpt lat="44.680692963009186" lon="10.282361065629859"><ele>173.0</ele><time>2026-04-04T13:24:17Z</time></trkpt><trkpt lat="44.680754917215104" lon="10.282134202033165"><ele>174.33333333333331</ele><time>2026-04-04T13:24:18Z</time></trkpt><trkpt lat="44.680816546261" lon="10.28190883488059"><ele>175.66666666666666</ele><time>2026-04-04T13:24:19Z</time></trkpt><trkpt lat="44.68087864698758" lon="10.281683640126415"><ele>177.0</ele><time>2026-04-04T13:24:20Z</time></trkpt><trkpt lat="44.68094160028352" lon="10.281454858209804"><ele>177.0</ele><time>2026-04-04T13:24:21Z</time></trkpt><trkpt lat="44.68100643082698" lon="10.281230637290323"><ele>177.0</ele><time>2026-04-04T13:24:22Z</time></trkpt><trkpt lat="44.68107949297078" lon="10.281000550431125"><ele>177.0</ele><time>2026-04-04T13:24:23Z</time></trkpt><trkpt lat="44.6811529877366" lon="10.280768656601381"><ele>177.33333333333334</ele><time>2026-04-04T13:24:24Z</time></trkpt><trkpt lat="44.68123261492028" lon="10.280549356028152"><ele>177.66666666666669</ele><time>2026-04-04T13:24:25Z</time></trkpt><trkpt lat="44.68131332209667" lon="10.280324782134375"><ele>178.0</ele><time>2026-04-04T13:24:26Z</time></trkpt><trkpt lat="44.6813924171328" lon="10.280103082884526"><ele>178.0</ele><time>2026-04-04T13:24:27Z</time></trkpt><trkpt lat="44.68147109315385" lon="10.279887679750574"><ele>178.0</ele><time>2026-04-04T13:24:28Z</time></trkpt><trkpt lat="44.681546751788076" lon="10.279671816559649"><ele>178.0</ele><time>2026-04-04T13:24:29Z</time></trkpt><trkpt lat="44.6816208527606" lon="10.27946633091191"><ele>178.66666666666669</ele><time>2026-04-04T13:24:30Z</time></trkpt><trkpt lat="44.68169842904181" lon="10.279260985746948"><ele>179.33333333333334</ele><time>2026-04-04T13:24:31Z</time></trkpt><trkpt lat="44.681784115876866" lon="10.27906422122308"><ele>180.0</ele><time>2026-04-04T13:24:32Z</time></trkpt><trkpt lat="44.68187650841836" lon="10.278871935292548"><ele>180.0</ele><time>2026-04-04T13:24:33Z</time></trkpt><trkpt lat="44.68197720575181" lon="10.278681648156358"><ele>180.0</ele><time>2026-04-04T13:24:34Z</time></trkpt><trkpt lat="44.68208342823334" lon="10.27849041090738"><ele>180.0</ele><time>2026-04-04T13:24:35Z</time></trkpt><trkpt lat="44.682189320164575" lon="10.278286261782693"><ele>180.33333333333334</ele><time>2026-04-04T13:24:36Z</time></trkpt><trkpt lat="44.68229516104242" lon="10.278085502396161"><ele>180.66666666666669</ele><time>2026-04-04T13:24:37Z</time></trkpt><trkpt lat="44.682398476807464" lon="10.277881224587295"><ele>181.0</ele><time>2026-04-04T13:24:38Z</time></trkpt><trkpt lat="44.68250228521931" lon="10.277682017471598"><ele>181.0</ele><time>2026-04-04T13:24:39Z</time></trkpt><trkpt lat="44.682603865632565" lon="10.277487063834737"><ele>181.0</ele><time>2026-04-04T13:24:40Z</time></trkpt><trkpt lat="44.68269646226126" lon="10.27730160346667"><ele>181.0</ele><time>2026-04-04T13:24:41Z</time></trkpt><trkpt lat="44.682793218919265" lon="10.277122012671752"><ele>180.0</ele><time>2026-04-04T13:24:42Z</time></trkpt><trkpt lat="44.68288717372614" lon="10.27693827864043"><ele>179.0</ele><time>2026-04-04T13:24:43Z</time></trkpt><trkpt lat="44.68298372494886" lon="10.276748670026668"><ele>178.0</ele><time>2026-04-04T13:24:44Z</time></trkpt><trkpt lat="44.68307024132138" lon="10.276579046369163"><ele>178.0</ele><time>2026-04-04T13:24:45Z</time></trkpt><trkpt lat="44.683154104145174" lon="10.276417785000664"><ele>178.0</ele><time>2026-04-04T13:24:46Z</time></trkpt><trkpt lat="44.68323288290027" lon="10.276263987332541"><ele>178.0</ele><time>2026-04-04T13:24:47Z</time></trkpt><trkpt lat="44.683302337034576" lon="10.276125219825309"><ele>178.0</ele><time>2026-04-04T13:24:48Z</time></trkpt><trkpt lat="44.683366288000556" lon="10.276000940428986"><ele>178.0</ele><time>2026-04-04T13:24:49Z</time></trkpt><trkpt lat="44.68342189887193" lon="10.275896655115815"><ele>178.0</ele><time>2026-04-04T13:24:50Z</time></trkpt><trkpt lat="44.683471007292695" lon="10.275806725349055"><ele>178.0</ele><time>2026-04-04T13:24:51Z</time></trkpt><trkpt lat="44.683509169419764" lon="10.275728860461625"><ele>178.0</ele><time>2026-04-04T13:24:52Z</time></trkpt><trkpt lat="44.68356305387369" lon="10.275653806979605"><ele>178.0</ele><time>2026-04-04T13:24:54Z</time></trkpt><trkpt lat="44.683450879386186" lon="10.275543156390714"><ele>177.8</ele><time>2026-04-04T13:24:55Z</time></trkpt><trkpt lat="44.683373069126105" lon="10.275512324897825"><ele>177.60000000000002</ele><time>2026-04-04T13:24:56Z</time></trkpt><trkpt lat="44.68328652858717" lon="10.275479342213465"><ele>177.39999999999998</ele><time>2026-04-04T13:24:57Z</time></trkpt><trkpt lat="44.68318911465408" lon="10.275438131542595"><ele>177.2</ele><time>2026-04-04T13:24:58Z</time></trkpt><trkpt lat="44.68308171114104" lon="10.275391416447562"><ele>177.0</ele><time>2026-04-04T13:24:59Z</time></trkpt><trkpt lat="44.68296801093884" lon="10.27534272867065"><ele>177.0</ele><time>2026-04-04T13:25:00Z</time></trkpt><trkpt lat="44.68284819613117" lon="10.27529268930707"><ele>177.0</ele><time>2026-04-04T13:25:01Z</time></trkpt><trkpt lat="44.68273502053393" lon="10.275240569498886"><ele>177.0</ele><time>2026-04-04T13:25:02Z</time></trkpt><trkpt lat="44.68263440063089" lon="10.275191776612987"><ele>177.0</ele><time>2026-04-04T13:25:03Z</time></trkpt><trkpt lat="44.68254355061089" lon="10.27514586425175"><ele>177.0</ele><time>2026-04-04T13:25:04Z</time></trkpt><trkpt lat="44.68245899479533" lon="10.27508865298719"><ele>177.2</ele><time>2026-04-04T13:25:05Z</time></trkpt><trkpt lat="44.68238715703247" lon="10.275000002561555"><ele>177.39999999999998</ele><time>2026-04-04T13:25:06Z</time></trkpt><trkpt lat="44.682337252943896" lon="10.274867394359365"><ele>177.60000000000002</ele><time>2026-04-04T13:25:07Z</time></trkpt><trkpt lat="44.682343378555196" lon="10.274700198513422"><ele>177.8</ele><time>2026-04-04T13:25:08Z</time></trkpt><trkpt lat="44.68231305631345" lon="10.27453436855248"><ele>178.0</ele><time>2026-04-04T13:25:09Z</time></trkpt><trkpt lat="44.68227511465581" lon="10.274347319337416"><ele>178.0</ele><time>2026-04-04T13:25:10Z</time></trkpt><trkpt lat="44.68223898146661" lon="10.274158115815906"><ele>178.0</ele><time>2026-04-04T13:25:11Z</time></trkpt><trkpt lat="44.682208130471885" lon="10.273957416169285"><ele>178.0</ele><time>2026-04-04T13:25:12Z</time></trkpt><trkpt lat="44.682179958845836" lon="10.273749591040051"><ele>178.0</ele><time>2026-04-04T13:25:13Z</time></trkpt><trkpt lat="44.68215596352815" lon="10.273535114988906"><ele>177.75</ele><time>2026-04-04T13:25:14Z</time></trkpt><trkpt lat="44.682138726346665" lon="10.27333317479984"><ele>177.5</ele><time>2026-04-04T13:25:15Z</time></trkpt><trkpt lat="44.68212955700791" lon="10.273132909415176"><ele>177.25</ele><time>2026-04-04T13:25:16Z</time></trkpt><trkpt lat="44.6821334291733" lon="10.272924280867706"><ele>177.0</ele><time>2026-04-04T13:25:17Z</time></trkpt><trkpt lat="44.68215177814181" lon="10.272707281667657"><ele>177.5</ele><time>2026-04-04T13:25:18Z</time></trkpt><trkpt lat="44.68216863807823" lon="10.27250639527714"><ele>178.0</ele><time>2026-04-04T13:25:19Z</time></trkpt><trkpt lat="44.68218128807232" lon="10.272319927836813"><ele>178.5</ele><time>2026-04-04T13:25:20Z</time></trkpt><trkpt lat="44.68219727468545" lon="10.272133154219736"><ele>179.0</ele><time>2026-04-04T13:25:21Z</time></trkpt><trkpt lat="44.68221404948013" lon="10.271934020996051"><ele>179.5</ele><time>2026-04-04T13:25:22Z</time></trkpt><trkpt lat="44.68222738379228" lon="10.271734435722193"><ele>180.0</ele><time>2026-04-04T13:25:23Z</time></trkpt><trkpt lat="44.68224184825937" lon="10.271538832163246"><ele>180.5</ele><time>2026-04-04T13:25:24Z</time></trkpt><trkpt lat="44.68225815097644" lon="10.271351621966499"><ele>181.0</ele><time>2026-04-04T13:25:25Z</time></trkpt><trkpt lat="44.68227260617742" lon="10.271172430212014"><ele>181.5</ele><time>2026-04-04T13:25:26Z</time></trkpt><trkpt lat="44.68228626181292" lon="10.270992156231266"><ele>182.0</ele><time>2026-04-04T13:25:27Z</time></trkpt><trkpt lat="44.68229563044777" lon="10.270815376845055"><ele>182.5</ele><time>2026-04-04T13:25:28Z</time></trkpt><trkpt lat="44.68230504439139" lon="10.270664520152167"><ele>183.0</ele><time>2026-04-04T13:25:29Z</time></trkpt><trkpt lat="44.682315392535614" lon="10.270527250068438"><ele>183.0</ele><time>2026-04-04T13:25:30Z</time></trkpt><trkpt lat="44.682326577969285" lon="10.270403690964745"><ele>183.0</ele><time>2026-04-04T13:25:31Z</time></trkpt><trkpt lat="44.68233444358714" lon="10.27029446833019"><ele>183.0</ele><time>2026-04-04T13:25:32Z</time></trkpt><trkpt lat="44.68234152181055" lon="10.27019160610059"><ele>183.0</ele><time>2026-04-04T13:25:33Z</time></trkpt><trkpt lat="44.68235271454529" lon="10.270026861891543"><ele>183.0</ele><time>2026-04-04T13:25:35Z</time></trkpt><trkpt lat="44.682372529961675" lon="10.269818708801"><ele>182.25</ele><time>2026-04-04T13:25:37Z</time></trkpt><trkpt lat="44.68238226672233" lon="10.26966888537046"><ele>181.5</ele><time>2026-04-04T13:25:38Z</time></trkpt><trkpt lat="44.68238074199116" lon="10.269502873284578"><ele>180.75</ele><time>2026-04-04T13:25:39Z</time></trkpt><trkpt lat="44.68236785454048" lon="10.269324014511477"><ele>180.0</ele><time>2026-04-04T13:25:40Z</time></trkpt><trkpt lat="44.68234401817413" lon="10.269142002021447"><ele>180.0</ele><time>2026-04-04T13:25:41Z</time></trkpt><trkpt lat="44.682320157004504" lon="10.268972524034858"><ele>180.0</ele><time>2026-04-04T13:25:42Z</time></trkpt><trkpt lat="44.682282162552745" lon="10.268812412804019"><ele>180.0</ele><time>2026-04-04T13:25:43Z</time></trkpt><trkpt lat="44.68222007767141" lon="10.268666487990307"><ele>180.0</ele><time>2026-04-04T13:25:44Z</time></trkpt><trkpt lat="44.68213203182314" lon="10.268555308034248"><ele>180.5</ele><time>2026-04-04T13:25:45Z</time></trkpt><trkpt lat="44.68202475091749" lon="10.26847224262851"><ele>181.0</ele><time>2026-04-04T13:25:46Z</time></trkpt><trkpt lat="44.68190866617682" lon="10.268391757771735"><ele>181.5</ele><time>2026-04-04T13:25:47Z</time></trkpt><trkpt lat="44.681784005284726" lon="10.268296998901668"><ele>182.0</ele><time>2026-04-04T13:25:48Z</time></trkpt><trkpt lat="44.68166204568563" lon="10.268207075108652"><ele>182.6</ele><time>2026-04-04T13:25:49Z</time></trkpt><trkpt lat="44.68155921634802" lon="10.268123051320051"><ele>183.2</ele><time>2026-04-04T13:25:50Z</time></trkpt><trkpt lat="44.68147190025407" lon="10.268048140775834"><ele>183.8</ele><time>2026-04-04T13:25:51Z</time></trkpt><trkpt lat="44.6813919056207" lon="10.267982481642768"><ele>184.4</ele><time>2026-04-04T13:25:52Z</time></trkpt><trkpt lat="44.68132831552895" lon="10.267928891880137"><ele>185.0</ele><time>2026-04-04T13:25:53Z</time></trkpt><trkpt lat="44.68127602805886" lon="10.267871108433512"><ele>185.0</ele><time>2026-04-04T13:25:54Z</time></trkpt><trkpt lat="44.68118831001585" lon="10.267791696640117"><ele>185.0</ele><time>2026-04-04T13:25:56Z</time></trkpt><trkpt lat="44.681056809769466" lon="10.267857048140911"><ele>185.0</ele><time>2026-04-04T13:25:58Z</time></trkpt><trkpt lat="44.680998866596056" lon="10.26795269074602"><ele>185.0</ele><time>2026-04-04T13:25:59Z</time></trkpt><trkpt lat="44.680953137078625" lon="10.268073791204543"><ele>185.0</ele><time>2026-04-04T13:26:00Z</time></trkpt><trkpt lat="44.68091327564745" lon="10.268199247794872"><ele>184.75</ele><time>2026-04-04T13:26:01Z</time></trkpt><trkpt lat="44.680868777400654" lon="10.26833511776911"><ele>184.5</ele><time>2026-04-04T13:26:02Z</time></trkpt><trkpt lat="44.680805823758774" lon="10.268488526904418"><ele>184.25</ele><time>2026-04-04T13:26:03Z</time></trkpt><trkpt lat="44.680768352622714" lon="10.26866648452546"><ele>184.0</ele><time>2026-04-04T13:26:04Z</time></trkpt><trkpt lat="44.680697758302465" lon="10.26883200006895"><ele>184.25</ele><time>2026-04-04T13:26:05Z</time></trkpt><trkpt lat="44.68058919372263" lon="10.268969239853204"><ele>184.5</ele><time>2026-04-04T13:26:06Z</time></trkpt><trkpt lat="44.68047203782524" lon="10.269106080962057"><ele>184.75</ele><time>2026-04-04T13:26:07Z</time></trkpt><trkpt lat="44.68036457169646" lon="10.269254922657533"><ele>185.0</ele><time>2026-04-04T13:26:08Z</time></trkpt><trkpt lat="44.68024715300737" lon="10.269403320180016"><ele>186.0</ele><time>2026-04-04T13:26:09Z</time></trkpt><trkpt lat="44.68014308317117" lon="10.269541161531134"><ele>187.0</ele><time>2026-04-04T13:26:10Z</time></trkpt><trkpt lat="44.680043281104815" lon="10.269667953628574"><ele>188.0</ele><time>2026-04-04T13:26:11Z</time></trkpt><trkpt lat="44.67994128705352" lon="10.269777990701227"><ele>189.0</ele><time>2026-04-04T13:26:12Z</time></trkpt><trkpt lat="44.67982857011175" lon="10.269823964909026"><ele>189.79999999999998</ele><time>2026-04-04T13:26:13Z</time></trkpt><trkpt lat="44.67973026600021" lon="10.269874908646633"><ele>190.6</ele><time>2026-04-04T13:26:14Z</time></trkpt><trkpt lat="44.67961855700129" lon="10.26986153663195"><ele>191.4</ele><time>2026-04-04T13:26:15Z</time></trkpt><trkpt lat="44.67952374719421" lon="10.269793195396959"><ele>192.2</ele><time>2026-04-04T13:26:16Z</time></trkpt><trkpt lat="44.679424309993365" lon="10.26972515341753"><ele>193.0</ele><time>2026-04-04T13:26:17Z</time></trkpt><trkpt lat="44.67930752907376" lon="10.269653143055471"><ele>193.25</ele><time>2026-04-04T13:26:18Z</time></trkpt><trkpt lat="44.67919434909227" lon="10.26954030328301"><ele>193.5</ele><time>2026-04-04T13:26:19Z</time></trkpt><trkpt lat="44.67907444488635" lon="10.269430072845704"><ele>193.75</ele><time>2026-04-04T13:26:20Z</time></trkpt><trkpt lat="44.67895514658361" lon="10.269322879379633"><ele>194.0</ele><time>2026-04-04T13:26:21Z</time></trkpt><trkpt lat="44.67883975568811" lon="10.269225197446257"><ele>194.0</ele><time>2026-04-04T13:26:22Z</time></trkpt><trkpt lat="44.678711635232" lon="10.269141336158947"><ele>194.0</ele><time>2026-04-04T13:26:23Z</time></trkpt><trkpt lat="44.67859103358648" lon="10.269053388248132"><ele>194.0</ele><time>2026-04-04T13:26:24Z</time></trkpt><trkpt lat="44.678465541491015" lon="10.268966067848801"><ele>194.0</ele><time>2026-04-04T13:26:25Z</time></trkpt><trkpt lat="44.67835698679523" lon="10.26888260810929"><ele>193.2</ele><time>2026-04-04T13:26:26Z</time></trkpt><trkpt lat="44.67826142686561" lon="10.268809407669119"><ele>192.39999999999998</ele><time>2026-04-04T13:26:27Z</time></trkpt><trkpt lat="44.678173533349735" lon="10.268760576336904"><ele>191.6</ele><time>2026-04-04T13:26:28Z</time></trkpt><trkpt lat="44.67808038934366" lon="10.2687413154099"><ele>190.8</ele><time>2026-04-04T13:26:29Z</time></trkpt><trkpt lat="44.67796520657599" lon="10.268749993555254"><ele>190.0</ele><time>2026-04-04T13:26:30Z</time></trkpt><trkpt lat="44.67783230302875" lon="10.268777390727593"><ele>192.75</ele><time>2026-04-04T13:26:31Z</time></trkpt><trkpt lat="44.677687601449506" lon="10.268809234888304"><ele>195.5</ele><time>2026-04-04T13:26:32Z</time></trkpt><trkpt lat="44.67754025960662" lon="10.268835611799396"><ele>198.25</ele><time>2026-04-04T13:26:33Z</time></trkpt><trkpt lat="44.677390986232034" lon="10.268853652961127"><ele>201.0</ele><time>2026-04-04T13:26:34Z</time></trkpt><trkpt lat="44.67725166427956" lon="10.268855188665325"><ele>201.0</ele><time>2026-04-04T13:26:35Z</time></trkpt><trkpt lat="44.67713493526385" lon="10.268782148582515"><ele>201.0</ele><time>2026-04-04T13:26:36Z</time></trkpt><trkpt lat="44.677030100427054" lon="10.26874134237184"><ele>201.0</ele><time>2026-04-04T13:26:37Z</time></trkpt><trkpt lat="44.67695255240655" lon="10.268685555513084"><ele>201.0</ele><time>2026-04-04T13:26:38Z</time></trkpt><trkpt lat="44.67686678272941" lon="10.268650016495783"><ele>201.0</ele><time>2026-04-04T13:26:39Z</time></trkpt><trkpt lat="44.676763222050674" lon="10.268620404375788"><ele>204.0</ele><time>2026-04-04T13:26:40Z</time></trkpt><trkpt lat="44.67666055119421" lon="10.268617748625001"><ele>207.0</ele><time>2026-04-04T13:26:41Z</time></trkpt><trkpt lat="44.67658372779616" lon="10.268647001081234"><ele>210.00000000000003</ele><time>2026-04-04T13:26:42Z</time></trkpt><trkpt lat="44.67650830102344" lon="10.268679521627632"><ele>213.0</ele><time>2026-04-04T13:26:43Z</time></trkpt><trkpt lat="44.67643546443242" lon="10.268812377142899"><ele>216.0</ele><time>2026-04-04T13:26:44Z</time></trkpt><trkpt lat="44.67635009794716" lon="10.26891700439923"><ele>220.0</ele><time>2026-04-04T13:26:45Z</time></trkpt><trkpt lat="44.676255166316956" lon="10.269017246470792"><ele>224.0</ele><time>2026-04-04T13:26:46Z</time></trkpt><trkpt lat="44.67614980357665" lon="10.269097966976583"><ele>228.0</ele><time>2026-04-04T13:26:47Z</time></trkpt><trkpt lat="44.67601863331417" lon="10.269156717643343"><ele>232.0</ele><time>2026-04-04T13:26:48Z</time></trkpt><trkpt lat="44.67587436497647" lon="10.269201293734662"><ele>233.0</ele><time>2026-04-04T13:26:49Z</time></trkpt><trkpt lat="44.67572742681373" lon="10.26924365543754"><ele>234.0</ele><time>2026-04-04T13:26:50Z</time></trkpt><trkpt lat="44.67558039857907" lon="10.269294947093549"><ele>235.0</ele><time>2026-04-04T13:26:51Z</time></trkpt><trkpt lat="44.6754319132905" lon="10.26936105927227"><ele>235.0</ele><time>2026-04-04T13:26:52Z</time></trkpt><trkpt lat="44.67530319721204" lon="10.269417622000752"><ele>235.0</ele><time>2026-04-04T13:26:53Z</time></trkpt><trkpt lat="44.67518537261351" lon="10.269461901021156"><ele>235.0</ele><time>2026-04-04T13:26:54Z</time></trkpt><trkpt lat="44.675081381765295" lon="10.26948984280544"><ele>235.0</ele><time>2026-04-04T13:26:55Z</time></trkpt><trkpt lat="44.67497949064031" lon="10.269512340514842"><ele>236.25</ele><time>2026-04-04T13:26:56Z</time></trkpt><trkpt lat="44.67487332553567" lon="10.269481170631531"><ele>237.5</ele><time>2026-04-04T13:26:57Z</time></trkpt><trkpt lat="44.67475610489954" lon="10.269485811098342"><ele>238.75</ele><time>2026-04-04T13:26:58Z</time></trkpt><trkpt lat="44.67463028804767" lon="10.26944783091726"><ele>240.0</ele><time>2026-04-04T13:26:59Z</time></trkpt><trkpt lat="44.67449980571406" lon="10.269446118089192"><ele>242.75</ele><time>2026-04-04T13:27:00Z</time></trkpt><trkpt lat="44.67436725724804" lon="10.26942088761587"><ele>245.5</ele><time>2026-04-04T13:27:01Z</time></trkpt><trkpt lat="44.674238986334636" lon="10.269402988082083"><ele>248.25</ele><time>2026-04-04T13:27:02Z</time></trkpt><trkpt lat="44.67410254609447" lon="10.269384116138738"><ele>251.0</ele><time>2026-04-04T13:27:03Z</time></trkpt><trkpt lat="44.673976249931385" lon="10.269369646910654"><ele>251.0</ele><time>2026-04-04T13:27:04Z</time></trkpt><trkpt lat="44.673860462597986" lon="10.269370716909325"><ele>251.00000000000003</ele><time>2026-04-04T13:27:05Z</time></trkpt><trkpt lat="44.67375378747014" lon="10.269391240045033"><ele>251.00000000000003</ele><time>2026-04-04T13:27:06Z</time></trkpt><trkpt lat="44.6736471872393" lon="10.26940255563237"><ele>251.0</ele><time>2026-04-04T13:27:07Z</time></trkpt><trkpt lat="44.673552690756985" lon="10.26938539422206"><ele>251.0</ele><time>2026-04-04T13:27:08Z</time></trkpt><trkpt lat="44.67347112626276" lon="10.269337026650545"><ele>251.5</ele><time>2026-04-04T13:27:09Z</time></trkpt><trkpt lat="44.67340299572863" lon="10.269218945586564"><ele>252.0</ele><time>2026-04-04T13:27:10Z</time></trkpt><trkpt lat="44.67331670078088" lon="10.26910061066327"><ele>252.5</ele><time>2026-04-04T13:27:11Z</time></trkpt><trkpt lat="44.673202488053334" lon="10.269004841361639"><ele>253.0</ele><time>2026-04-04T13:27:12Z</time></trkpt><trkpt lat="44.67309076172204" lon="10.268898428668402"><ele>256.0</ele><time>2026-04-04T13:27:13Z</time></trkpt><trkpt lat="44.67297571010926" lon="10.268822314263966"><ele>259.0</ele><time>2026-04-04T13:27:14Z</time></trkpt><trkpt lat="44.67285519572121" lon="10.268769567849512"><ele>262.0</ele><time>2026-04-04T13:27:15Z</time></trkpt><trkpt lat="44.672727720732844" lon="10.268737421268536"><ele>265.0</ele><time>2026-04-04T13:27:16Z</time></trkpt><trkpt lat="44.672600452161305" lon="10.268726005663968"><ele>265.6</ele><time>2026-04-04T13:27:17Z</time></trkpt><trkpt lat="44.67248786533264" lon="10.268727658113313"><ele>266.2</ele><time>2026-04-04T13:27:18Z</time></trkpt><trkpt lat="44.67238971541901" lon="10.268732607993053"><ele>266.8</ele><time>2026-04-04T13:27:19Z</time></trkpt><trkpt lat="44.67229521786875" lon="10.268746267287511"><ele>267.4</ele><time>2026-04-04T13:27:20Z</time></trkpt><trkpt lat="44.67219488408443" lon="10.2687897743838"><ele>268.0</ele><time>2026-04-04T13:27:21Z</time></trkpt><trkpt lat="44.67208756986878" lon="10.268851873233286"><ele>268.0</ele><time>2026-04-04T13:27:22Z</time></trkpt><trkpt lat="44.67197860873573" lon="10.268914987294645"><ele>268.0</ele><time>2026-04-04T13:27:23Z</time></trkpt><trkpt lat="44.67185981115706" lon="10.268942262688759"><ele>268.0</ele><time>2026-04-04T13:27:24Z</time></trkpt><trkpt lat="44.67174395872709" lon="10.268981504328993"><ele>268.0</ele><time>2026-04-04T13:27:25Z</time></trkpt><trkpt lat="44.67162042637189" lon="10.26903084730466"><ele>268.0</ele><time>2026-04-04T13:27:26Z</time></trkpt><trkpt lat="44.67151503904454" lon="10.269005863089506"><ele>268.0</ele><time>2026-04-04T13:27:27Z</time></trkpt><trkpt lat="44.67141071214834" lon="10.268976788129445"><ele>268.0</ele><time>2026-04-04T13:27:28Z</time></trkpt><trkpt lat="44.67131321629192" lon="10.268939366599817"><ele>268.0</ele><time>2026-04-04T13:27:29Z</time></trkpt><trkpt lat="44.671166504072474" lon="10.268872366469097"><ele>266.4</ele><time>2026-04-04T13:27:30Z</time></trkpt><trkpt lat="44.67107728218587" lon="10.268817572199193"><ele>264.8</ele><time>2026-04-04T13:27:31Z</time></trkpt><trkpt lat="44.67100865583976" lon="10.268721275591453"><ele>263.2</ele><time>2026-04-04T13:27:32Z</time></trkpt><trkpt lat="44.6709523492738" lon="10.268592489293754"><ele>261.6</ele><time>2026-04-04T13:27:33Z</time></trkpt><trkpt lat="44.67089239736631" lon="10.268463572209564"><ele>260.0</ele><time>2026-04-04T13:27:34Z</time></trkpt><trkpt lat="44.67083036251676" lon="10.268330192878707"><ele>260.0</ele><time>2026-04-04T13:27:35Z</time></trkpt><trkpt lat="44.67076647407702" lon="10.26819423231926"><ele>260.0</ele><time>2026-04-04T13:27:36Z</time></trkpt><trkpt lat="44.67070504952081" lon="10.268064977027173"><ele>260.0</ele><time>2026-04-04T13:27:37Z</time></trkpt><trkpt lat="44.67065042950251" lon="10.267942236270757"><ele>260.0</ele><time>2026-04-04T13:27:38Z</time></trkpt><trkpt lat="44.67060281389105" lon="10.267808444578089"><ele>260.0</ele><time>2026-04-04T13:27:39Z</time></trkpt><trkpt lat="44.67056177907752" lon="10.267649745793046"><ele>262.25</ele><time>2026-04-04T13:27:40Z</time></trkpt><trkpt lat="44.670524939212896" lon="10.267477625942197"><ele>264.5</ele><time>2026-04-04T13:27:41Z</time></trkpt><trkpt lat="44.6704892366234" lon="10.267300362245331"><ele>266.75</ele><time>2026-04-04T13:27:42Z</time></trkpt><trkpt lat="44.67045152173434" lon="10.267098766000148"><ele>269.0</ele><time>2026-04-04T13:27:43Z</time></trkpt><trkpt lat="44.67041274600907" lon="10.266890598841089"><ele>269.5</ele><time>2026-04-04T13:27:44Z</time></trkpt><trkpt lat="44.67037582911873" lon="10.266692410831181"><ele>270.0</ele><time>2026-04-04T13:27:45Z</time></trkpt><trkpt lat="44.67034235499617" lon="10.266512705294058"><ele>270.5</ele><time>2026-04-04T13:27:46Z</time></trkpt><trkpt lat="44.67031133111304" lon="10.266371427436694"><ele>271.0</ele><time>2026-04-04T13:27:47Z</time></trkpt><trkpt lat="44.67026305211649" lon="10.266245931681334"><ele>267.25</ele><time>2026-04-04T13:27:49Z</time></trkpt><trkpt lat="44.670194111938386" lon="10.266072790449511"><ele>263.5</ele><time>2026-04-04T13:27:51Z</time></trkpt><trkpt lat="44.67009533262882" lon="10.265983124314301"><ele>259.75</ele><time>2026-04-04T13:27:52Z</time></trkpt><trkpt lat="44.670035165036985" lon="10.265899471647845"><ele>256.0</ele><time>2026-04-04T13:27:53Z</time></trkpt><trkpt lat="44.66986766256526" lon="10.26580945942362"><ele>256.0</ele><time>2026-04-04T13:27:54Z</time></trkpt><trkpt lat="44.669757650399625" lon="10.26575451755897"><ele>256.0</ele><time>2026-04-04T13:27:55Z</time></trkpt><trkpt lat="44.669645507224494" lon="10.265695591177401"><ele>256.0</ele><time>2026-04-04T13:27:56Z</time></trkpt><trkpt lat="44.66952919945453" lon="10.265638845790624"><ele>256.0</ele><time>2026-04-04T13:27:57Z</time></trkpt><trkpt lat="44.66941154843537" lon="10.265594082671969"><ele>254.25</ele><time>2026-04-04T13:27:58Z</time></trkpt><trkpt lat="44.66929481583743" lon="10.26551453801508"><ele>252.5</ele><time>2026-04-04T13:27:59Z</time></trkpt><trkpt lat="44.6691756054477" lon="10.265429494181168"><ele>250.75</ele><time>2026-04-04T13:28:00Z</time></trkpt><trkpt lat="44.66906718868461" lon="10.2653219509018"><ele>249.0</ele><time>2026-04-04T13:28:01Z</time></trkpt><trkpt lat="44.668960925812044" lon="10.265206552821034"><ele>249.0</ele><time>2026-04-04T13:28:02Z</time></trkpt><trkpt lat="44.668855435582806" lon="10.265096904580236"><ele>249.0</ele><time>2026-04-04T13:28:03Z</time></trkpt><trkpt lat="44.668751348840715" lon="10.264990642871657"><ele>249.0</ele><time>2026-04-04T13:28:04Z</time></trkpt><trkpt lat="44.66864463576537" lon="10.264882275865233"><ele>249.0</ele><time>2026-04-04T13:28:05Z</time></trkpt><trkpt lat="44.66854173580779" lon="10.264780524258319"><ele>248.6</ele><time>2026-04-04T13:28:06Z</time></trkpt><trkpt lat="44.66845206637671" lon="10.264691855542335"><ele>248.2</ele><time>2026-04-04T13:28:07Z</time></trkpt><trkpt lat="44.668373926993866" lon="10.264614588207772"><ele>247.79999999999998</ele><time>2026-04-04T13:28:08Z</time></trkpt><trkpt lat="44.66829134776387" lon="10.264535756608243"><ele>247.39999999999998</ele><time>2026-04-04T13:28:09Z</time></trkpt><trkpt lat="44.66821184047978" lon="10.264487610068654"><ele>247.0</ele><time>2026-04-04T13:28:10Z</time></trkpt><trkpt lat="44.66814306934576" lon="10.264432537300756"><ele>247.0</ele><time>2026-04-04T13:28:11Z</time></trkpt><trkpt lat="44.66807581329405" lon="10.26438449794649"><ele>247.0</ele><time>2026-04-04T13:28:12Z</time></trkpt><trkpt lat="44.66794961317119" lon="10.264283977018618"><ele>247.0</ele><time>2026-04-04T13:28:14Z</time></trkpt><trkpt lat="44.66788705495279" lon="10.26422815829259"><ele>247.0</ele><time>2026-04-04T13:28:15Z</time></trkpt><trkpt lat="44.66783026518338" lon="10.264186766968631"><ele>247.0</ele><time>2026-04-04T13:28:16Z</time></trkpt><trkpt lat="44.66775144990669" lon="10.264114084076947"><ele>247.66666666666666</ele><time>2026-04-04T13:28:18Z</time></trkpt><trkpt lat="44.6676848959379" lon="10.264098989782473"><ele>248.33333333333331</ele><time>2026-04-04T13:28:20Z</time></trkpt><trkpt lat="44.66760806978299" lon="10.264204223634074"><ele>249.0</ele><time>2026-04-04T13:28:21Z</time></trkpt><trkpt lat="44.667560779036066" lon="10.264274018775753"><ele>249.66666666666669</ele><time>2026-04-04T13:28:22Z</time></trkpt><trkpt lat="44.66751106003654" lon="10.264337723751918"><ele>250.33333333333334</ele><time>2026-04-04T13:28:23Z</time></trkpt><trkpt lat="44.66747703239043" lon="10.264469991371199"><ele>251.0</ele><time>2026-04-04T13:28:25Z</time></trkpt><trkpt lat="44.66742160828334" lon="10.264608050596602"><ele>251.0</ele><time>2026-04-04T13:28:27Z</time></trkpt><trkpt lat="44.667350504649626" lon="10.264744017541961"><ele>251.00000000000003</ele><time>2026-04-04T13:28:29Z</time></trkpt><trkpt lat="44.667300673531074" lon="10.264835092039855"><ele>251.00000000000003</ele><time>2026-04-04T13:28:30Z</time></trkpt><trkpt lat="44.66724404503161" lon="10.264937056843994"><ele>251.0</ele><time>2026-04-04T13:28:31Z</time></trkpt><trkpt lat="44.66718489600589" lon="10.265049714801876"><ele>251.0</ele><time>2026-04-04T13:28:32Z</time></trkpt><trkpt lat="44.66712002281949" lon="10.265167340704517"><ele>249.66666666666669</ele><time>2026-04-04T13:28:33Z</time></trkpt><trkpt lat="44.66705820248489" lon="10.265276097413153"><ele>248.33333333333334</ele><time>2026-04-04T13:28:34Z</time></trkpt><trkpt lat="44.66699914169616" lon="10.265373947515265"><ele>247.0</ele><time>2026-04-04T13:28:35Z</time></trkpt><trkpt lat="44.66692976525754" lon="10.265453386836992"><ele>245.66666666666669</ele><time>2026-04-04T13:28:36Z</time></trkpt><trkpt lat="44.66685583732876" lon="10.26550390987643"><ele>244.33333333333334</ele><time>2026-04-04T13:28:37Z</time></trkpt><trkpt lat="44.66677407998127" lon="10.26550164137379"><ele>243.0</ele><time>2026-04-04T13:28:38Z</time></trkpt><trkpt lat="44.66669988407204" lon="10.265432690172455"><ele>242.2</ele><time>2026-04-04T13:28:39Z</time></trkpt><trkpt lat="44.66660073993385" lon="10.265396898662736"><ele>241.4</ele><time>2026-04-04T13:28:40Z</time></trkpt><trkpt lat="44.66651040813843" lon="10.265362673659784"><ele>240.59999999999997</ele><time>2026-04-04T13:28:41Z</time></trkpt><trkpt lat="44.666408630459536" lon="10.265355602638898"><ele>239.79999999999998</ele><time>2026-04-04T13:28:42Z</time></trkpt><trkpt lat="44.66630639515572" lon="10.265365266248605"><ele>239.0</ele><time>2026-04-04T13:28:43Z</time></trkpt><trkpt lat="44.66622468316461" lon="10.265379127170768"><ele>239.00000000000003</ele><time>2026-04-04T13:28:44Z</time></trkpt><trkpt lat="44.666158511744335" lon="10.26539708588529"><ele>239.0</ele><time>2026-04-04T13:28:45Z</time></trkpt><trkpt lat="44.66604601891589" lon="10.265459592038184"><ele>239.0</ele><time>2026-04-04T13:28:47Z</time></trkpt><trkpt lat="44.66597065881654" lon="10.26550786463839"><ele>239.0</ele><time>2026-04-04T13:28:48Z</time></trkpt><trkpt lat="44.66589636602871" lon="10.265564739504006"><ele>239.00000000000003</ele><time>2026-04-04T13:28:49Z</time></trkpt><trkpt lat="44.66581708211579" lon="10.265611789863904"><ele>239.0</ele><time>2026-04-04T13:28:50Z</time></trkpt><trkpt lat="44.66574799719966" lon="10.265644345168806"><ele>241.2</ele><time>2026-04-04T13:28:51Z</time></trkpt><trkpt lat="44.66567057091988" lon="10.265671777947755"><ele>243.39999999999998</ele><time>2026-04-04T13:28:53Z</time></trkpt><trkpt lat="44.6655752505634" lon="10.265717932266543"><ele>245.6</ele><time>2026-04-04T13:28:59Z</time></trkpt><trkpt lat="44.6654791641758" lon="10.265761536930725"><ele>247.8</ele><time>2026-04-04T13:29:01Z</time></trkpt><trkpt lat="44.665399898033485" lon="10.265814161787196"><ele>250.0</ele><time>2026-04-04T13:29:10Z</time></trkpt><trkpt lat="44.66528509863753" lon="10.265880134785101"><ele>251.4</ele><time>2026-04-04T13:29:12Z</time></trkpt><trkpt lat="44.66515583172817" lon="10.265984444608568"><ele>252.8</ele><time>2026-04-04T13:29:14Z</time></trkpt><trkpt lat="44.665086564257486" lon="10.266030394800108"><ele>254.2</ele><time>2026-04-04T13:29:15Z</time></trkpt><trkpt lat="44.6650071951825" lon="10.26606804095722"><ele>255.6</ele><time>2026-04-04T13:29:16Z</time></trkpt><trkpt lat="44.664931353823484" lon="10.266118228842373"><ele>257.0</ele><time>2026-04-04T13:29:17.999Z</time></trkpt><trkpt lat="44.66487163845539" lon="10.266183008431566"><ele>257.0</ele><time>2026-04-04T13:35:32Z</time></trkpt><trkpt lat="44.6648452325984" lon="10.266277043678654"><ele>257.0</ele><time>2026-04-04T13:35:42Z</time></trkpt><trkpt lat="44.66486324228386" lon="10.266411715346777"><ele>257.0</ele><time>2026-04-04T13:35:44Z</time></trkpt><trkpt lat="44.66493054288074" lon="10.266547653271248"><ele>257.0</ele><time>2026-04-04T13:35:46Z</time></trkpt><trkpt lat="44.664982849408005" lon="10.266627061426941"><ele>257.0</ele><time>2026-04-04T13:35:47Z</time></trkpt><trkpt lat="44.665025670438055" lon="10.26674956391691"><ele>258.5</ele><time>2026-04-04T13:35:48Z</time></trkpt><trkpt lat="44.66508502087398" lon="10.266855395783548"><ele>260.0</ele><time>2026-04-04T13:35:49Z</time></trkpt><trkpt lat="44.66513217735522" lon="10.266968274363505"><ele>261.5</ele><time>2026-04-04T13:35:50Z</time></trkpt><trkpt lat="44.665158292205234" lon="10.267074615283438"><ele>263.0</ele><time>2026-04-04T13:35:51Z</time></trkpt><trkpt lat="44.66517669972602" lon="10.267183267247864"><ele>264.5</ele><time>2026-04-04T13:35:52Z</time></trkpt><trkpt lat="44.66519416753618" lon="10.267283298228653"><ele>266.0</ele><time>2026-04-04T13:35:53Z</time></trkpt><trkpt lat="44.665215785779715" lon="10.267424153519295"><ele>266.6666666666667</ele><time>2026-04-04T13:35:55Z</time></trkpt><trkpt lat="44.6652329515037" lon="10.267537849679274"><ele>267.33333333333337</ele><time>2026-04-04T13:35:56Z</time></trkpt><trkpt lat="44.665252821573745" lon="10.26765244869069"><ele>268.0</ele><time>2026-04-04T13:35:57Z</time></trkpt><trkpt lat="44.665277575620074" lon="10.267770934849503"><ele>268.6666666666667</ele><time>2026-04-04T13:35:58Z</time></trkpt><trkpt lat="44.66532823272248" lon="10.267891932689572"><ele>269.3333333333333</ele><time>2026-04-04T13:35:59Z</time></trkpt><trkpt lat="44.665359914374044" lon="10.267995038374991"><ele>270.0</ele><time>2026-04-04T13:36:00Z</time></trkpt><trkpt lat="44.66537389584513" lon="10.26817891063517"><ele>272.8333333333333</ele><time>2026-04-04T13:36:02Z</time></trkpt><trkpt lat="44.665379690762954" lon="10.268280481281087"><ele>275.6666666666667</ele><time>2026-04-04T13:36:03Z</time></trkpt><trkpt lat="44.66543759033068" lon="10.26842054530742"><ele>278.5</ele><time>2026-04-04T13:36:05Z</time></trkpt><trkpt lat="44.66550183519925" lon="10.268471805765675"><ele>281.33333333333337</ele><time>2026-04-04T13:36:06Z</time></trkpt><trkpt lat="44.665576977436906" lon="10.268490536273765"><ele>284.1666666666667</ele><time>2026-04-04T13:36:07Z</time></trkpt><trkpt lat="44.665663999134246" lon="10.268501492269401"><ele>287.0</ele><time>2026-04-04T13:36:08Z</time></trkpt><trkpt lat="44.66573737292819" lon="10.268555993834559"><ele>287.0</ele><time>2026-04-04T13:36:09Z</time></trkpt><trkpt lat="44.66579805380941" lon="10.26860307593094"><ele>287.0</ele><time>2026-04-04T13:36:10Z</time></trkpt><trkpt lat="44.66585450008489" lon="10.268656341621721"><ele>287.0</ele><time>2026-04-04T13:36:11Z</time></trkpt><trkpt lat="44.665884793838366" lon="10.268740343423174"><ele>287.0</ele><time>2026-04-04T13:36:12Z</time></trkpt><trkpt lat="44.66588325288866" lon="10.268921101676252"><ele>287.0</ele><time>2026-04-04T13:36:14Z</time></trkpt><trkpt lat="44.665878491121155" lon="10.269010360297221"><ele>287.0</ele><time>2026-04-04T13:36:15Z</time></trkpt><trkpt lat="44.66589386114118" lon="10.269165823701435"><ele>287.5</ele><time>2026-04-04T13:36:17Z</time></trkpt><trkpt lat="44.665899430168466" lon="10.269280612883678"><ele>288.0</ele><time>2026-04-04T13:36:18Z</time></trkpt><trkpt lat="44.66591931347134" lon="10.269394493768425"><ele>288.5</ele><time>2026-04-04T13:36:19Z</time></trkpt><trkpt lat="44.665949797516056" lon="10.269515683206894"><ele>289.0</ele><time>2026-04-04T13:36:20Z</time></trkpt><trkpt lat="44.665978594431145" lon="10.269644952999023"><ele>289.5</ele><time>2026-04-04T13:36:21Z</time></trkpt><trkpt lat="44.66601009514453" lon="10.269758950557824"><ele>290.0</ele><time>2026-04-04T13:36:22Z</time></trkpt><trkpt lat="44.666002750805966" lon="10.269862499059418"><ele>290.0</ele><time>2026-04-04T13:36:23Z</time></trkpt><trkpt lat="44.666004155899394" lon="10.269953153865297"><ele>290.0</ele><time>2026-04-04T13:36:24Z</time></trkpt><trkpt lat="44.66593211197102" lon="10.270013130981203"><ele>290.0</ele><time>2026-04-04T13:36:25Z</time></trkpt><trkpt lat="44.665866587729695" lon="10.2700621732807"><ele>290.0</ele><time>2026-04-04T13:36:26Z</time></trkpt><trkpt lat="44.66578448945586" lon="10.270121805459379"><ele>290.0</ele><time>2026-04-04T13:36:27Z</time></trkpt><trkpt lat="44.66569888603047" lon="10.27019557571915"><ele>290.0</ele><time>2026-04-04T13:36:28Z</time></trkpt><trkpt lat="44.6656051820554" lon="10.270277991773883"><ele>290.0</ele><time>2026-04-04T13:36:29Z</time></trkpt><trkpt lat="44.66553645858779" lon="10.270352481628995"><ele>290.0</ele><time>2026-04-04T13:36:30Z</time></trkpt><trkpt lat="44.66546499281872" lon="10.270445082736499"><ele>290.0</ele><time>2026-04-04T13:36:31Z</time></trkpt><trkpt lat="44.66538350691959" lon="10.270515395506692"><ele>290.0</ele><time>2026-04-04T13:36:32Z</time></trkpt><trkpt lat="44.66530132704168" lon="10.27058731305034"><ele>290.0</ele><time>2026-04-04T13:36:33Z</time></trkpt><trkpt lat="44.665217443101916" lon="10.270644476358191"><ele>290.4</ele><time>2026-04-04T13:36:34Z</time></trkpt><trkpt lat="44.66511988325467" lon="10.270671954000274"><ele>290.8</ele><time>2026-04-04T13:36:35Z</time></trkpt><trkpt lat="44.66502276447412" lon="10.270692773291943"><ele>291.2</ele><time>2026-04-04T13:36:36Z</time></trkpt><trkpt lat="44.66492118269162" lon="10.270683484740536"><ele>291.6</ele><time>2026-04-04T13:36:37Z</time></trkpt><trkpt lat="44.66481936700468" lon="10.270691381952915"><ele>292.0</ele><time>2026-04-04T13:36:38Z</time></trkpt><trkpt lat="44.664724530056894" lon="10.270726187894596"><ele>292.0</ele><time>2026-04-04T13:36:39Z</time></trkpt><trkpt lat="44.66463139997697" lon="10.270771005233135"><ele>292.0</ele><time>2026-04-04T13:36:40Z</time></trkpt><trkpt lat="44.66454260885942" lon="10.270796524272622"><ele>292.0</ele><time>2026-04-04T13:36:41Z</time></trkpt><trkpt lat="44.66445299598594" lon="10.270786053254376"><ele>292.0</ele><time>2026-04-04T13:36:42Z</time></trkpt><trkpt lat="44.664382866075755" lon="10.270721093921871"><ele>292.0</ele><time>2026-04-04T13:36:43Z</time></trkpt><trkpt lat="44.66430189116776" lon="10.270653684910659"><ele>296.0</ele><time>2026-04-04T13:36:44Z</time></trkpt><trkpt lat="44.664210302349126" lon="10.270596379767504"><ele>300.0</ele><time>2026-04-04T13:36:45Z</time></trkpt><trkpt lat="44.66410599237013" lon="10.270570178161135"><ele>304.0</ele><time>2026-04-04T13:36:46Z</time></trkpt><trkpt lat="44.66400749864615" lon="10.2705474133438"><ele>308.0</ele><time>2026-04-04T13:36:47Z</time></trkpt><trkpt lat="44.66391515919516" lon="10.270551340847137"><ele>312.0</ele><time>2026-04-04T13:36:48Z</time></trkpt><trkpt lat="44.66381485303699" lon="10.270579194660971"><ele>312.0</ele><time>2026-04-04T13:36:49Z</time></trkpt><trkpt lat="44.66371339775336" lon="10.270598143508092"><ele>312.0</ele><time>2026-04-04T13:36:50Z</time></trkpt><trkpt lat="44.66362545339" lon="10.270720987020558"><ele>312.0</ele><time>2026-04-04T13:36:51Z</time></trkpt><trkpt lat="44.66354750724408" lon="10.270814446788744"><ele>312.0</ele><time>2026-04-04T13:36:52Z</time></trkpt><trkpt lat="44.66347105569716" lon="10.270845277558337"><ele>312.0</ele><time>2026-04-04T13:36:53Z</time></trkpt><trkpt lat="44.66340041009803" lon="10.27088317098544"><ele>308.8</ele><time>2026-04-04T13:36:54Z</time></trkpt><trkpt lat="44.663307977296434" lon="10.270939844248527"><ele>305.6</ele><time>2026-04-04T13:36:55Z</time></trkpt><trkpt lat="44.66321804001495" lon="10.271011106830786"><ele>302.40000000000003</ele><time>2026-04-04T13:36:56Z</time></trkpt><trkpt lat="44.663135439100756" lon="10.27105551551477"><ele>299.2</ele><time>2026-04-04T13:36:57Z</time></trkpt><trkpt lat="44.6630531174561" lon="10.271089580017689"><ele>296.0</ele><time>2026-04-04T13:36:58Z</time></trkpt><trkpt lat="44.66297162735842" lon="10.271146264792938"><ele>296.0</ele><time>2026-04-04T13:36:59Z</time></trkpt><trkpt lat="44.66287457839279" lon="10.271179992996688"><ele>296.0</ele><time>2026-04-04T13:37:00Z</time></trkpt><trkpt lat="44.66277596892932" lon="10.271191327973442"><ele>296.0</ele><time>2026-04-04T13:37:01Z</time></trkpt><trkpt lat="44.66269204324593" lon="10.271217011043388"><ele>296.0</ele><time>2026-04-04T13:37:02Z</time></trkpt><trkpt lat="44.66261070142747" lon="10.271238455901265"><ele>296.0</ele><time>2026-04-04T13:37:03Z</time></trkpt><trkpt lat="44.66254222607669" lon="10.271254883606122"><ele>296.0</ele><time>2026-04-04T13:37:04Z</time></trkpt><trkpt lat="44.66243516609419" lon="10.271296740186452"><ele>296.8</ele><time>2026-04-04T13:37:06Z</time></trkpt><trkpt lat="44.662314325912796" lon="10.27130021892709"><ele>297.6</ele><time>2026-04-04T13:37:08Z</time></trkpt><trkpt lat="44.66223553706569" lon="10.271323648079521"><ele>298.4</ele><time>2026-04-04T13:37:09Z</time></trkpt><trkpt lat="44.66214571440075" lon="10.271348404776825"><ele>299.2</ele><time>2026-04-04T13:37:10Z</time></trkpt><trkpt lat="44.66204326093703" lon="10.271363955351408"><ele>300.0</ele><time>2026-04-04T13:37:11Z</time></trkpt><trkpt lat="44.66195231064283" lon="10.271340553082018"><ele>300.3333333333333</ele><time>2026-04-04T13:37:12Z</time></trkpt><trkpt lat="44.661881856622024" lon="10.27135781437399"><ele>300.6666666666667</ele><time>2026-04-04T13:37:13Z</time></trkpt><trkpt lat="44.66179952618995" lon="10.27134923423289"><ele>301.0</ele><time>2026-04-04T13:37:14Z</time></trkpt><trkpt lat="44.661707100512395" lon="10.271340489637549"><ele>301.33333333333337</ele><time>2026-04-04T13:37:15Z</time></trkpt><trkpt lat="44.661613762039536" lon="10.271351258388306"><ele>301.6666666666667</ele><time>2026-04-04T13:37:16Z</time></trkpt><trkpt lat="44.66153048284164" lon="10.271363115404956"><ele>302.0</ele><time>2026-04-04T13:37:17Z</time></trkpt><trkpt lat="44.661455516324395" lon="10.271383251323376"><ele>302.0</ele><time>2026-04-04T13:37:18Z</time></trkpt><trkpt lat="44.661380232772906" lon="10.271389750470535"><ele>302.0</ele><time>2026-04-04T13:37:19Z</time></trkpt><trkpt lat="44.66129375100161" lon="10.271389759953461"><ele>302.0</ele><time>2026-04-04T13:37:20Z</time></trkpt><trkpt lat="44.66121727134168" lon="10.271399451648971"><ele>302.0</ele><time>2026-04-04T13:37:21Z</time></trkpt><trkpt lat="44.66114154125561" lon="10.271422033600391"><ele>302.0</ele><time>2026-04-04T13:37:22Z</time></trkpt><trkpt lat="44.66105818167492" lon="10.27143040740245"><ele>302.0</ele><time>2026-04-04T13:37:23Z</time></trkpt><trkpt lat="44.660978946335824" lon="10.271465561370796"><ele>300.1666666666667</ele><time>2026-04-04T13:37:24Z</time></trkpt><trkpt lat="44.660906683933824" lon="10.271507017733276"><ele>298.33333333333337</ele><time>2026-04-04T13:37:25Z</time></trkpt><trkpt lat="44.66084601611171" lon="10.271559099847709"><ele>296.5</ele><time>2026-04-04T13:37:26Z</time></trkpt><trkpt lat="44.66078956651567" lon="10.271627107789367"><ele>294.6666666666667</ele><time>2026-04-04T13:37:27Z</time></trkpt><trkpt lat="44.6607563436718" lon="10.2717037769003"><ele>292.8333333333333</ele><time>2026-04-04T13:37:28Z</time></trkpt><trkpt lat="44.660746163282255" lon="10.271854472427652"><ele>291.0</ele><time>2026-04-04T13:37:30Z</time></trkpt><trkpt lat="44.66080524007501" lon="10.271951112282036"><ele>291.0</ele><time>2026-04-04T13:37:31Z</time></trkpt><trkpt lat="44.660856317765614" lon="10.272051784446699"><ele>291.0</ele><time>2026-04-04T13:37:32Z</time></trkpt><trkpt lat="44.66089436768233" lon="10.27214752449534"><ele>291.0</ele><time>2026-04-04T13:37:32.999Z</time></trkpt><trkpt lat="44.66092886189705" lon="10.27225880055763"><ele>291.0</ele><time>2026-04-04T13:37:33.999Z</time></trkpt><trkpt lat="44.66096505282313" lon="10.272383457000908"><ele>291.0</ele><time>2026-04-04T13:37:34.999Z</time></trkpt><trkpt lat="44.66099740499261" lon="10.272512044179098"><ele>291.0</ele><time>2026-04-04T13:37:35.999Z</time></trkpt><trkpt lat="44.661043439968125" lon="10.272626711963964"><ele>291.0</ele><time>2026-04-04T13:37:36.999Z</time></trkpt><trkpt lat="44.66110386105479" lon="10.272729868852466"><ele>291.0</ele><time>2026-04-04T13:37:37.999Z</time></trkpt><trkpt lat="44.66116332272591" lon="10.272828254768609"><ele>291.0</ele><time>2026-04-04T13:37:38.999Z</time></trkpt><trkpt lat="44.661215274441744" lon="10.272950097974299"><ele>291.0</ele><time>2026-04-04T13:37:39.999Z</time></trkpt><trkpt lat="44.66126999594069" lon="10.273068524106034"><ele>291.0</ele><time>2026-04-04T13:37:40.999Z</time></trkpt><trkpt lat="44.661322806296155" lon="10.27319256543726"><ele>291.0</ele><time>2026-04-04T13:37:41.999Z</time></trkpt><trkpt lat="44.66138065355376" lon="10.273321906647901"><ele>291.0</ele><time>2026-04-04T13:37:42.999Z</time></trkpt><trkpt lat="44.66142508926711" lon="10.273463776204212"><ele>291.0</ele><time>2026-04-04T13:37:43.999Z</time></trkpt><trkpt lat="44.66148119425191" lon="10.273595533006894"><ele>291.0</ele><time>2026-04-04T13:37:44.999Z</time></trkpt><trkpt lat="44.6615496716236" lon="10.27372071888611"><ele>291.0</ele><time>2026-04-04T13:37:45.999Z</time></trkpt><trkpt lat="44.66162722251282" lon="10.273830372082362"><ele>291.0</ele><time>2026-04-04T13:37:46.999Z</time></trkpt><trkpt lat="44.66167939889873" lon="10.273924045819658"><ele>291.0</ele><time>2026-04-04T13:37:47.999Z</time></trkpt><trkpt lat="44.66174110254526" lon="10.274037499779249"><ele>291.0</ele><time>2026-04-04T13:37:50Z</time></trkpt><trkpt lat="44.66175487875322" lon="10.274196981837598"><ele>291.0</ele><time>2026-04-04T13:37:52Z</time></trkpt><trkpt lat="44.661891251141796" lon="10.274266955271985"><ele>291.0</ele><time>2026-04-04T13:37:53Z</time></trkpt><trkpt lat="44.66197168990214" lon="10.27436725124732"><ele>291.0</ele><time>2026-04-04T13:37:54Z</time></trkpt><trkpt lat="44.66207099875485" lon="10.274462381160358"><ele>291.0</ele><time>2026-04-04T13:37:55Z</time></trkpt><trkpt lat="44.66217831031097" lon="10.274552188872725"><ele>291.0</ele><time>2026-04-04T13:37:56Z</time></trkpt><trkpt lat="44.662305806134476" lon="10.27463087002342"><ele>291.0</ele><time>2026-04-04T13:37:57Z</time></trkpt><trkpt lat="44.662412075210455" lon="10.274718757995062"><ele>290.0</ele><time>2026-04-04T13:37:58Z</time></trkpt><trkpt lat="44.662505927450454" lon="10.274799126152848"><ele>289.0</ele><time>2026-04-04T13:37:59Z</time></trkpt><trkpt lat="44.66259724481938" lon="10.274896645894268"><ele>288.0</ele><time>2026-04-04T13:38:00Z</time></trkpt><trkpt lat="44.66270378663392" lon="10.274987663744252"><ele>287.0</ele><time>2026-04-04T13:38:01Z</time></trkpt><trkpt lat="44.66279940623811" lon="10.275076211549578"><ele>287.0</ele><time>2026-04-04T13:38:02Z</time></trkpt><trkpt lat="44.662891585857246" lon="10.275146409593761"><ele>287.0</ele><time>2026-04-04T13:38:03Z</time></trkpt><trkpt lat="44.66296978040375" lon="10.275266791519956"><ele>287.0</ele><time>2026-04-04T13:38:04Z</time></trkpt><trkpt lat="44.663064103989605" lon="10.27535142639658"><ele>287.0</ele><time>2026-04-04T13:38:05Z</time></trkpt><trkpt lat="44.66314053576325" lon="10.275438142045353"><ele>287.0</ele><time>2026-04-04T13:38:06Z</time></trkpt><trkpt lat="44.66320056431547" lon="10.275509403017516"><ele>287.0</ele><time>2026-04-04T13:38:07Z</time></trkpt><trkpt lat="44.66328576800639" lon="10.275597690519733"><ele>287.0</ele><time>2026-04-04T13:38:09Z</time></trkpt><trkpt lat="44.66320888037595" lon="10.275760500053764"><ele>287.0</ele><time>2026-04-04T13:38:12Z</time></trkpt><trkpt lat="44.66313805270409" lon="10.275786368763255"><ele>287.0</ele><time>2026-04-04T13:38:13Z</time></trkpt><trkpt lat="44.663044347806554" lon="10.275828714547316"><ele>287.0</ele><time>2026-04-04T13:38:14Z</time></trkpt><trkpt lat="44.66293632622907" lon="10.275875808452794"><ele>287.75</ele><time>2026-04-04T13:38:15Z</time></trkpt><trkpt lat="44.66282662371107" lon="10.275922731436108"><ele>288.5</ele><time>2026-04-04T13:38:16Z</time></trkpt><trkpt lat="44.662713967706054" lon="10.275970917698501"><ele>289.25</ele><time>2026-04-04T13:38:17Z</time></trkpt><trkpt lat="44.66260054404936" lon="10.276042462439818"><ele>290.0</ele><time>2026-04-04T13:38:18Z</time></trkpt><trkpt lat="44.662473729102466" lon="10.276099226811839"><ele>290.0</ele><time>2026-04-04T13:38:19Z</time></trkpt><trkpt lat="44.662343366318225" lon="10.276154493411159"><ele>290.0</ele><time>2026-04-04T13:38:20Z</time></trkpt><trkpt lat="44.66221688984845" lon="10.27623448850753"><ele>290.0</ele><time>2026-04-04T13:38:21Z</time></trkpt><trkpt lat="44.66209389315223" lon="10.27632944623566"><ele>290.0</ele><time>2026-04-04T13:38:22Z</time></trkpt><trkpt lat="44.66197432002901" lon="10.276439364796104"><ele>285.75</ele><time>2026-04-04T13:38:23Z</time></trkpt><trkpt lat="44.661861108152856" lon="10.276552651801492"><ele>281.5</ele><time>2026-04-04T13:38:24Z</time></trkpt><trkpt lat="44.66173987457902" lon="10.276634251157875"><ele>277.25</ele><time>2026-04-04T13:38:25Z</time></trkpt><trkpt lat="44.661627771068154" lon="10.276721913639323"><ele>273.0</ele><time>2026-04-04T13:38:26Z</time></trkpt><trkpt lat="44.66151142632264" lon="10.27680513042568"><ele>273.0</ele><time>2026-04-04T13:38:27Z</time></trkpt><trkpt lat="44.66140013008145" lon="10.276870077155488"><ele>273.0</ele><time>2026-04-04T13:38:28Z</time></trkpt><trkpt lat="44.661288082439754" lon="10.276910149774388"><ele>273.0</ele><time>2026-04-04T13:38:29Z</time></trkpt><trkpt lat="44.661167952349025" lon="10.276934255118627"><ele>273.0</ele><time>2026-04-04T13:38:30Z</time></trkpt><trkpt lat="44.661034561655924" lon="10.276954740919848"><ele>272.0</ele><time>2026-04-04T13:38:31Z</time></trkpt><trkpt lat="44.66089662403365" lon="10.27698989661737"><ele>271.0</ele><time>2026-04-04T13:38:32Z</time></trkpt><trkpt lat="44.660761982265676" lon="10.276991696995548"><ele>270.0</ele><time>2026-04-04T13:38:33Z</time></trkpt><trkpt lat="44.66062500674467" lon="10.276998626193244"><ele>269.0</ele><time>2026-04-04T13:38:34Z</time></trkpt><trkpt lat="44.66047685293215" lon="10.276987578823372"><ele>269.0</ele><time>2026-04-04T13:38:35Z</time></trkpt><trkpt lat="44.66032739550684" lon="10.277025298616085"><ele>269.0</ele><time>2026-04-04T13:38:36Z</time></trkpt><trkpt lat="44.6601763854361" lon="10.277038179131797"><ele>269.0</ele><time>2026-04-04T13:38:37Z</time></trkpt><trkpt lat="44.66004369270934" lon="10.27706881517833"><ele>269.0</ele><time>2026-04-04T13:38:38Z</time></trkpt><trkpt lat="44.65990472628989" lon="10.277098693315263"><ele>266.25</ele><time>2026-04-04T13:38:39Z</time></trkpt><trkpt lat="44.65977128724226" lon="10.277142064997706"><ele>263.5</ele><time>2026-04-04T13:38:40Z</time></trkpt><trkpt lat="44.65964060091742" lon="10.277147521345002"><ele>260.75</ele><time>2026-04-04T13:38:41Z</time></trkpt><trkpt lat="44.65950522648046" lon="10.277104413838543"><ele>258.0</ele><time>2026-04-04T13:38:42Z</time></trkpt><trkpt lat="44.659364477851454" lon="10.277063819979976"><ele>255.5</ele><time>2026-04-04T13:38:43Z</time></trkpt><trkpt lat="44.659215145458596" lon="10.277046089554934"><ele>253.0</ele><time>2026-04-04T13:38:44Z</time></trkpt><trkpt lat="44.65907180245561" lon="10.277010438467183"><ele>250.5</ele><time>2026-04-04T13:38:45Z</time></trkpt><trkpt lat="44.658928770528256" lon="10.276974088279852"><ele>248.0</ele><time>2026-04-04T13:38:46Z</time></trkpt><trkpt lat="44.658796429039036" lon="10.276917713275381"><ele>248.0</ele><time>2026-04-04T13:38:47Z</time></trkpt><trkpt lat="44.658659828905805" lon="10.276873752806305"><ele>248.0</ele><time>2026-04-04T13:38:48Z</time></trkpt><trkpt lat="44.658515326082224" lon="10.276836309865326"><ele>248.0</ele><time>2026-04-04T13:38:49Z</time></trkpt><trkpt lat="44.658382051876835" lon="10.276763197519655"><ele>248.0</ele><time>2026-04-04T13:38:50Z</time></trkpt><trkpt lat="44.65825996331482" lon="10.276685831561407"><ele>248.0</ele><time>2026-04-04T13:38:51Z</time></trkpt><trkpt lat="44.6581468182658" lon="10.276601044073548"><ele>248.0</ele><time>2026-04-04T13:38:52Z</time></trkpt><trkpt lat="44.658047460121345" lon="10.276500230676618"><ele>248.0</ele><time>2026-04-04T13:38:53Z</time></trkpt><trkpt lat="44.657954501818494" lon="10.276403221058006"><ele>248.0</ele><time>2026-04-04T13:38:54Z</time></trkpt><trkpt lat="44.657855185062104" lon="10.276315516757384"><ele>245.0</ele><time>2026-04-04T13:38:55Z</time></trkpt><trkpt lat="44.65775061283822" lon="10.276235108406988"><ele>242.0</ele><time>2026-04-04T13:38:56Z</time></trkpt><trkpt lat="44.65765062947807" lon="10.276165179084236"><ele>239.0</ele><time>2026-04-04T13:38:57Z</time></trkpt><trkpt lat="44.65756287182781" lon="10.276109964329681"><ele>236.0</ele><time>2026-04-04T13:38:58Z</time></trkpt><trkpt lat="44.65748823638359" lon="10.276065250620682"><ele>233.0</ele><time>2026-04-04T13:38:59Z</time></trkpt><trkpt lat="44.657420111452396" lon="10.276043288288276"><ele>233.00000000000003</ele><time>2026-04-04T13:39:00Z</time></trkpt><trkpt lat="44.657357209102145" lon="10.276052700460115"><ele>233.0</ele><time>2026-04-04T13:39:01Z</time></trkpt><trkpt lat="44.65728811519615" lon="10.276063833544946"><ele>233.0</ele><time>2026-04-04T13:39:02Z</time></trkpt><trkpt lat="44.657237654232084" lon="10.27613786539074"><ele>233.0</ele><time>2026-04-04T13:39:03Z</time></trkpt><trkpt lat="44.65718872857037" lon="10.276203381159515"><ele>233.00000000000003</ele><time>2026-04-04T13:39:05Z</time></trkpt><trkpt lat="44.65710402220522" lon="10.276100438909076"><ele>233.0</ele><time>2026-04-04T13:39:06Z</time></trkpt><trkpt lat="44.657025817341356" lon="10.276036884096422"><ele>234.25</ele><time>2026-04-04T13:39:07Z</time></trkpt><trkpt lat="44.65693375938961" lon="10.2759627599679"><ele>235.5</ele><time>2026-04-04T13:39:08Z</time></trkpt><trkpt lat="44.65682773869145" lon="10.275900731698835"><ele>236.75</ele><time>2026-04-04T13:39:09Z</time></trkpt><trkpt lat="44.65672201191178" lon="10.275826055581735"><ele>238.0</ele><time>2026-04-04T13:39:10Z</time></trkpt><trkpt lat="44.65661670856042" lon="10.27572748809832"><ele>238.0</ele><time>2026-04-04T13:39:11Z</time></trkpt><trkpt lat="44.65649517177062" lon="10.275642629792948"><ele>238.0</ele><time>2026-04-04T13:39:12Z</time></trkpt><trkpt lat="44.65637147216096" lon="10.275543432675809"><ele>238.0</ele><time>2026-04-04T13:39:13Z</time></trkpt><trkpt lat="44.65625020603288" lon="10.275449613159626"><ele>238.0</ele><time>2026-04-04T13:39:14Z</time></trkpt><trkpt lat="44.65613768893694" lon="10.275362477360783"><ele>242.75</ele><time>2026-04-04T13:39:15Z</time></trkpt><trkpt lat="44.65601500635097" lon="10.275264792167835"><ele>247.5</ele><time>2026-04-04T13:39:16Z</time></trkpt><trkpt lat="44.65589434577243" lon="10.275172085588455"><ele>252.25</ele><time>2026-04-04T13:39:17Z</time></trkpt><trkpt lat="44.65577196154053" lon="10.275076401078465"><ele>257.0</ele><time>2026-04-04T13:39:18Z</time></trkpt><trkpt lat="44.65564798538898" lon="10.274979343453834"><ele>257.0</ele><time>2026-04-04T13:39:19Z</time></trkpt><trkpt lat="44.65553338144554" lon="10.274898279032785"><ele>257.0</ele><time>2026-04-04T13:39:20Z</time></trkpt><trkpt lat="44.655427714218185" lon="10.274810866981468"><ele>257.0</ele><time>2026-04-04T13:39:21Z</time></trkpt><trkpt lat="44.65532528568292" lon="10.274733034497324"><ele>257.0</ele><time>2026-04-04T13:39:22Z</time></trkpt><trkpt lat="44.65523084457248" lon="10.274659007473327"><ele>259.1666666666667</ele><time>2026-04-04T13:39:23Z</time></trkpt><trkpt lat="44.65515740437543" lon="10.274580639860304"><ele>261.33333333333337</ele><time>2026-04-04T13:39:24Z</time></trkpt><trkpt lat="44.655083158272" lon="10.274530290163938"><ele>263.5</ele><time>2026-04-04T13:39:25Z</time></trkpt><trkpt lat="44.655022762218024" lon="10.274451745192618"><ele>265.6666666666667</ele><time>2026-04-04T13:39:26Z</time></trkpt><trkpt lat="44.65497396764433" lon="10.274362639626988"><ele>267.8333333333333</ele><time>2026-04-04T13:39:27Z</time></trkpt><trkpt lat="44.65494351704966" lon="10.27428428956171"><ele>270.0</ele><time>2026-04-04T13:39:28Z</time></trkpt><trkpt lat="44.65492067201476" lon="10.274147417022558"><ele>270.0</ele><time>2026-04-04T13:39:30Z</time></trkpt><trkpt lat="44.65489084000372" lon="10.274044274089167"><ele>270.0</ele><time>2026-04-04T13:39:32Z</time></trkpt><trkpt lat="44.65484612098891" lon="10.273887737886968"><ele>270.0</ele><time>2026-04-04T13:39:34Z</time></trkpt><trkpt lat="44.654810049585315" lon="10.273722371623448"><ele>270.0</ele><time>2026-04-04T13:39:36Z</time></trkpt><trkpt lat="44.654792734179985" lon="10.273626016327636"><ele>270.0</ele><time>2026-04-04T13:39:37Z</time></trkpt><trkpt lat="44.65480443435611" lon="10.273524195399562"><ele>270.5</ele><time>2026-04-04T13:39:37.999Z</time></trkpt><trkpt lat="44.654835528411695" lon="10.273387127388265"><ele>271.0</ele><time>2026-04-04T13:39:39.999Z</time></trkpt><trkpt lat="44.65486874997796" lon="10.273287725859317"><ele>271.5</ele><time>2026-04-04T13:39:41.999Z</time></trkpt><trkpt lat="44.65490623806101" lon="10.2732031039638"><ele>272.0</ele><time>2026-04-04T13:39:43.999Z</time></trkpt><trkpt lat="44.65494709613217" lon="10.273131312884189"><ele>272.5</ele><time>2026-04-04T13:39:45.999Z</time></trkpt><trkpt lat="44.65501487095281" lon="10.272991505193861"><ele>273.0</ele><time>2026-04-04T13:39:47.999Z</time></trkpt><trkpt lat="44.65504973412368" lon="10.272905660448002"><ele>270.3333333333333</ele><time>2026-04-04T13:39:49.999Z</time></trkpt><trkpt lat="44.655080533335436" lon="10.272777469220452"><ele>267.6666666666667</ele><time>2026-04-04T13:39:51.999Z</time></trkpt><trkpt lat="44.65501535471503" lon="10.272702861884664"><ele>265.0</ele><time>2026-04-04T13:39:52.999Z</time></trkpt><trkpt lat="44.654943518671566" lon="10.272650329990917"><ele>262.33333333333337</ele><time>2026-04-04T13:39:53.999Z</time></trkpt><trkpt lat="44.65486268920078" lon="10.2725877754007"><ele>259.6666666666667</ele><time>2026-04-04T13:39:54.999Z</time></trkpt><trkpt lat="44.65477996691029" lon="10.272528723158144"><ele>257.0</ele><time>2026-04-04T13:39:55.999Z</time></trkpt><trkpt lat="44.65471239909564" lon="10.272482182987927"><ele>257.0</ele><time>2026-04-04T13:39:56.999Z</time></trkpt><trkpt lat="44.65465044965216" lon="10.272430066652037"><ele>257.0</ele><time>2026-04-04T13:39:57.999Z</time></trkpt><trkpt lat="44.65458058015524" lon="10.272358311516847"><ele>257.0</ele><time>2026-04-04T13:39:58.999Z</time></trkpt><trkpt lat="44.65453723528935" lon="10.272268913115992"><ele>257.0</ele><time>2026-04-04T13:40:00Z</time></trkpt><trkpt lat="44.654485759300144" lon="10.272168412469686"><ele>257.0</ele><time>2026-04-04T13:40:01Z</time></trkpt><trkpt lat="44.654455325818574" lon="10.272073908114075"><ele>257.0</ele><time>2026-04-04T13:40:02Z</time></trkpt><trkpt lat="44.65441485671584" lon="10.271997885758283"><ele>256.33333333333337</ele><time>2026-04-04T13:40:03Z</time></trkpt><trkpt lat="44.654382658814264" lon="10.271865236004365"><ele>255.66666666666669</ele><time>2026-04-04T13:40:05Z</time></trkpt><trkpt lat="44.65410457363044" lon="10.27199495488195"><ele>255.0</ele><time>2026-04-04T13:40:06Z</time></trkpt><trkpt lat="44.65403127921794" lon="10.271865549642785"><ele>255.0</ele><time>2026-04-04T13:40:08Z</time></trkpt><trkpt lat="44.65397008550409" lon="10.271757316974131"><ele>255.0</ele><time>2026-04-04T13:40:10Z</time></trkpt><trkpt lat="44.65396675157592" lon="10.271640019912594"><ele>255.0</ele><time>2026-04-04T13:40:21Z</time></trkpt><trkpt lat="44.65396707738294" lon="10.271520484910667"><ele>255.0</ele><time>2026-04-04T13:40:24Z</time></trkpt><trkpt lat="44.65393725586781" lon="10.271426671865271"><ele>255.0</ele><time>2026-04-04T13:40:26Z</time></trkpt><trkpt lat="44.65391757496378" lon="10.271332376735867"><ele>255.0</ele><time>2026-04-04T13:40:41Z</time></trkpt><trkpt lat="44.65389693347016" lon="10.271205482682673"><ele>255.4</ele><time>2026-04-04T13:40:44Z</time></trkpt><trkpt lat="44.653868751189876" lon="10.271092642158271"><ele>255.8</ele><time>2026-04-04T13:40:46Z</time></trkpt><trkpt lat="44.65380840326138" lon="10.270945569077186"><ele>256.2</ele><time>2026-04-04T13:40:48Z</time></trkpt><trkpt lat="44.65377608799678" lon="10.270866737026566"><ele>256.6</ele><time>2026-04-04T13:40:49Z</time></trkpt><trkpt lat="44.653737784272415" lon="10.270775535371884"><ele>257.0</ele><time>2026-04-04T13:40:50Z</time></trkpt><trkpt lat="44.65367237601447" lon="10.270629492761831"><ele>256.4</ele><time>2026-04-04T13:40:52Z</time></trkpt><trkpt lat="44.65362210305492" lon="10.270525825723292"><ele>255.79999999999998</ele><time>2026-04-04T13:40:54Z</time></trkpt><trkpt lat="44.65356626430059" lon="10.270408861868944"><ele>255.2</ele><time>2026-04-04T13:40:56Z</time></trkpt><trkpt lat="44.653496414970554" lon="10.270292133552704"><ele>254.6</ele><time>2026-04-04T13:40:58Z</time></trkpt><trkpt lat="44.65344580360399" lon="10.270202906060659"><ele>254.0</ele><time>2026-04-04T13:41:00Z</time></trkpt><trkpt lat="44.6533812715166" lon="10.270093862142"><ele>258.2</ele><time>2026-04-04T13:41:02Z</time></trkpt><trkpt lat="44.65329451624303" lon="10.269975873883222"><ele>262.4</ele><time>2026-04-04T13:41:04Z</time></trkpt><trkpt lat="44.653235026352995" lon="10.26986090214985"><ele>266.6</ele><time>2026-04-04T13:41:06Z</time></trkpt><trkpt lat="44.653198730614285" lon="10.269786664457165"><ele>270.8</ele><time>2026-04-04T13:41:07Z</time></trkpt><trkpt lat="44.65315827555336" lon="10.269704523814767"><ele>275.0</ele><time>2026-04-04T13:41:08Z</time></trkpt><trkpt lat="44.653055768976145" lon="10.269561712216777"><ele>275.0</ele><time>2026-04-04T13:41:10Z</time></trkpt><trkpt lat="44.65298687958614" lon="10.269489125384519"><ele>275.0</ele><time>2026-04-04T13:41:11Z</time></trkpt><trkpt lat="44.65291581158859" lon="10.269346967306708"><ele>275.0</ele><time>2026-04-04T13:41:13Z</time></trkpt><trkpt lat="44.65285948771011" lon="10.269278323376625"><ele>275.0</ele><time>2026-04-04T13:41:14Z</time></trkpt><trkpt lat="44.65280829568433" lon="10.269203550279554"><ele>275.0</ele><time>2026-04-04T13:41:15Z</time></trkpt><trkpt lat="44.65276639758122" lon="10.26913148797458"><ele>275.0</ele><time>2026-04-04T13:41:16Z</time></trkpt><trkpt lat="44.65271485181207" lon="10.269060512272038"><ele>277.6666666666667</ele><time>2026-04-04T13:41:17Z</time></trkpt><trkpt lat="44.652666897659984" lon="10.268996699875412"><ele>280.33333333333337</ele><time>2026-04-04T13:41:18Z</time></trkpt><trkpt lat="44.652600752830054" lon="10.268842732389697"><ele>283.0</ele><time>2026-04-04T13:41:20Z</time></trkpt><trkpt lat="44.65256159081554" lon="10.268730103991174"><ele>285.6666666666667</ele><time>2026-04-04T13:41:21Z</time></trkpt><trkpt lat="44.652533904872534" lon="10.268641935146807"><ele>288.3333333333333</ele><time>2026-04-04T13:41:22Z</time></trkpt><trkpt lat="44.65250112047182" lon="10.26852268966816"><ele>291.0</ele><time>2026-04-04T13:41:23Z</time></trkpt><trkpt lat="44.65246536095916" lon="10.268435375979811"><ele>292.0</ele><time>2026-04-04T13:41:24Z</time></trkpt><trkpt lat="44.65242725712458" lon="10.268320616677258"><ele>293.0</ele><time>2026-04-04T13:41:25Z</time></trkpt><trkpt lat="44.65239014554032" lon="10.268223727270584"><ele>294.0</ele><time>2026-04-04T13:41:26Z</time></trkpt><trkpt lat="44.65234534454124" lon="10.268127091934582"><ele>295.0</ele><time>2026-04-04T13:41:27Z</time></trkpt><trkpt lat="44.652315803790906" lon="10.268033420819874"><ele>296.0</ele><time>2026-04-04T13:41:28Z</time></trkpt><trkpt lat="44.65227796710725" lon="10.267934962530626"><ele>297.0</ele><time>2026-04-04T13:41:29Z</time></trkpt><trkpt lat="44.652245515079024" lon="10.26783924849099"><ele>297.0</ele><time>2026-04-04T13:41:30Z</time></trkpt><trkpt lat="44.65221109106623" lon="10.267743994086626"><ele>297.0</ele><time>2026-04-04T13:41:31Z</time></trkpt><trkpt lat="44.652126782261305" lon="10.267581555583934"><ele>297.0</ele><time>2026-04-04T13:41:33Z</time></trkpt><trkpt lat="44.652068423596646" lon="10.267488645511799"><ele>297.0</ele><time>2026-04-04T13:41:34Z</time></trkpt><trkpt lat="44.65200552724192" lon="10.267387169279681"><ele>297.0</ele><time>2026-04-04T13:41:35Z</time></trkpt><trkpt lat="44.65194426965858" lon="10.267271468860697"><ele>299.0</ele><time>2026-04-04T13:41:36Z</time></trkpt><trkpt lat="44.65188783023759" lon="10.267168949956126"><ele>301.0</ele><time>2026-04-04T13:41:37Z</time></trkpt><trkpt lat="44.651833081201936" lon="10.26707306408332"><ele>303.0</ele><time>2026-04-04T13:41:38Z</time></trkpt><trkpt lat="44.65178851534649" lon="10.266985531138067"><ele>305.0</ele><time>2026-04-04T13:41:39Z</time></trkpt><trkpt lat="44.65175045790237" lon="10.266903795697482"><ele>307.0</ele><time>2026-04-04T13:41:40Z</time></trkpt><trkpt lat="44.651713277073384" lon="10.266760614119447"><ele>309.0</ele><time>2026-04-04T13:41:42Z</time></trkpt><trkpt lat="44.651712202346005" lon="10.26666124954696"><ele>309.0</ele><time>2026-04-04T13:41:43Z</time></trkpt><trkpt lat="44.651756690391565" lon="10.26652690734203"><ele>309.0</ele><time>2026-04-04T13:41:43.999Z</time></trkpt><trkpt lat="44.65173736551319" lon="10.26640577245099"><ele>309.0</ele><time>2026-04-04T13:41:44.999Z</time></trkpt><trkpt lat="44.65170462008354" lon="10.266295371089072"><ele>309.0</ele><time>2026-04-04T13:41:45.999Z</time></trkpt><trkpt lat="44.65169488472302" lon="10.266172325618637"><ele>309.0</ele><time>2026-04-04T13:41:46.999Z</time></trkpt><trkpt lat="44.65167180693833" lon="10.266053559139433"><ele>308.6666666666667</ele><time>2026-04-04T13:41:47.999Z</time></trkpt><trkpt lat="44.65165211298069" lon="10.265930650128263"><ele>308.3333333333333</ele><time>2026-04-04T13:41:48.999Z</time></trkpt><trkpt lat="44.65163355962055" lon="10.265806441482546"><ele>308.0</ele><time>2026-04-04T13:41:50Z</time></trkpt><trkpt lat="44.651610515632036" lon="10.2656875594397"><ele>307.66666666666663</ele><time>2026-04-04T13:41:51Z</time></trkpt><trkpt lat="44.6515881282861" lon="10.265568240044315"><ele>307.3333333333333</ele><time>2026-04-04T13:41:52Z</time></trkpt><trkpt lat="44.65156610447659" lon="10.26545619595785"><ele>307.0</ele><time>2026-04-04T13:41:53Z</time></trkpt><trkpt lat="44.651546726892725" lon="10.265350248274391"><ele>307.0</ele><time>2026-04-04T13:41:54Z</time></trkpt><trkpt lat="44.651523237352954" lon="10.265248038743287"><ele>307.0</ele><time>2026-04-04T13:41:55Z</time></trkpt><trkpt lat="44.6515054389455" lon="10.265139295768106"><ele>307.0</ele><time>2026-04-04T13:41:56Z</time></trkpt><trkpt lat="44.65148603944419" lon="10.265037703366586"><ele>307.0</ele><time>2026-04-04T13:41:57Z</time></trkpt><trkpt lat="44.651459759410336" lon="10.264905719209784"><ele>307.0</ele><time>2026-04-04T13:41:58Z</time></trkpt><trkpt lat="44.651431526739124" lon="10.264790943695704"><ele>307.0</ele><time>2026-04-04T13:41:59Z</time></trkpt><trkpt lat="44.651397419242876" lon="10.26464443892803"><ele>308.2</ele><time>2026-04-04T13:42:00Z</time></trkpt><trkpt lat="44.65137532497424" lon="10.26451034532198"><ele>309.4</ele><time>2026-04-04T13:42:01Z</time></trkpt><trkpt lat="44.6513442899924" lon="10.264378356977184"><ele>310.6</ele><time>2026-04-04T13:42:02Z</time></trkpt><trkpt lat="44.65131496409359" lon="10.264242395846612"><ele>311.8</ele><time>2026-04-04T13:42:03Z</time></trkpt><trkpt lat="44.65127981964563" lon="10.264093998104006"><ele>313.0</ele><time>2026-04-04T13:42:04Z</time></trkpt><trkpt lat="44.65124201951217" lon="10.263941171796874"><ele>315.75</ele><time>2026-04-04T13:42:05Z</time></trkpt><trkpt lat="44.65120470746592" lon="10.263778930407728"><ele>318.5</ele><time>2026-04-04T13:42:06Z</time></trkpt><trkpt lat="44.65116672328599" lon="10.263610623343187"><ele>321.25</ele><time>2026-04-04T13:42:07Z</time></trkpt><trkpt lat="44.651129256876835" lon="10.263433224744059"><ele>324.0</ele><time>2026-04-04T13:42:08Z</time></trkpt><trkpt lat="44.65110980760615" lon="10.26325661012646"><ele>327.0</ele><time>2026-04-04T13:42:09Z</time></trkpt><trkpt lat="44.65111675925956" lon="10.26307838010843"><ele>330.0</ele><time>2026-04-04T13:42:10Z</time></trkpt><trkpt lat="44.65114552892575" lon="10.262926108263539"><ele>333.0</ele><time>2026-04-04T13:42:11Z</time></trkpt><trkpt lat="44.65117563924102" lon="10.262809633045434"><ele>336.0</ele><time>2026-04-04T13:42:12Z</time></trkpt><trkpt lat="44.65118021745442" lon="10.262709437795717"><ele>339.0</ele><time>2026-04-04T13:42:13Z</time></trkpt><trkpt lat="44.651147967989914" lon="10.262614715286794"><ele>339.0</ele><time>2026-04-04T13:42:14Z</time></trkpt><trkpt lat="44.65108929925718" lon="10.262518942653466"><ele>339.0</ele><time>2026-04-04T13:42:15Z</time></trkpt><trkpt lat="44.65102089205189" lon="10.262411189449194"><ele>339.0</ele><time>2026-04-04T13:42:16Z</time></trkpt><trkpt lat="44.65096743765091" lon="10.262280395850704"><ele>339.0</ele><time>2026-04-04T13:42:17Z</time></trkpt><trkpt lat="44.65089613398471" lon="10.262179004787404"><ele>339.0</ele><time>2026-04-04T13:42:18Z</time></trkpt><trkpt lat="44.65083958665158" lon="10.262096722841479"><ele>341.2</ele><time>2026-04-04T13:42:19Z</time></trkpt><trkpt lat="44.65075280786754" lon="10.26204431622977"><ele>343.4</ele><time>2026-04-04T13:42:20Z</time></trkpt><trkpt lat="44.65064846248337" lon="10.262038273200314"><ele>345.6</ele><time>2026-04-04T13:42:21Z</time></trkpt><trkpt lat="44.65053363964727" lon="10.26206352031173"><ele>347.8</ele><time>2026-04-04T13:42:22Z</time></trkpt><trkpt lat="44.65042386493132" lon="10.26208129192108"><ele>350.0</ele><time>2026-04-04T13:42:23Z</time></trkpt><trkpt lat="44.65033315668897" lon="10.262096716732827"><ele>348.6</ele><time>2026-04-04T13:42:24Z</time></trkpt><trkpt lat="44.6502570521333" lon="10.262094093773241"><ele>347.2</ele><time>2026-04-04T13:42:25Z</time></trkpt><trkpt lat="44.65015515893424" lon="10.262025792717413"><ele>345.79999999999995</ele><time>2026-04-04T13:42:27Z</time></trkpt><trkpt lat="44.650127645083984" lon="10.261933448148831"><ele>344.4</ele><time>2026-04-04T13:42:28Z</time></trkpt><trkpt lat="44.65015388267736" lon="10.261759154828908"><ele>343.0</ele><time>2026-04-04T13:42:30Z</time></trkpt><trkpt lat="44.650210756052935" lon="10.261664743577256"><ele>343.0</ele><time>2026-04-04T13:42:31Z</time></trkpt><trkpt lat="44.65028151284087" lon="10.261592315682096"><ele>343.0</ele><time>2026-04-04T13:42:32Z</time></trkpt><trkpt lat="44.650338329159254" lon="10.261508027829391"><ele>343.0</ele><time>2026-04-04T13:42:33Z</time></trkpt><trkpt lat="44.650357609275055" lon="10.26139603575871"><ele>343.0</ele><time>2026-04-04T13:42:34Z</time></trkpt><trkpt lat="44.6503543111916" lon="10.261260293211732"><ele>343.0</ele><time>2026-04-04T13:42:35Z</time></trkpt><trkpt lat="44.65034491803087" lon="10.261108504527893"><ele>345.25</ele><time>2026-04-04T13:42:36Z</time></trkpt><trkpt lat="44.650330313089604" lon="10.260959132768882"><ele>347.5</ele><time>2026-04-04T13:42:37Z</time></trkpt><trkpt lat="44.650303876606785" lon="10.260792451521997"><ele>349.75</ele><time>2026-04-04T13:42:38Z</time></trkpt><trkpt lat="44.650284292687836" lon="10.260621129813575"><ele>352.0</ele><time>2026-04-04T13:42:39Z</time></trkpt><trkpt lat="44.65025927322054" lon="10.26044306211239"><ele>354.25</ele><time>2026-04-04T13:42:40Z</time></trkpt><trkpt lat="44.650222966451466" lon="10.260274261181094"><ele>356.5</ele><time>2026-04-04T13:42:41Z</time></trkpt><trkpt lat="44.65018193530766" lon="10.260102333277711"><ele>358.75</ele><time>2026-04-04T13:42:42Z</time></trkpt><trkpt lat="44.65007539435492" lon="10.259960966860012"><ele>361.0</ele><time>2026-04-04T13:42:43Z</time></trkpt><trkpt lat="44.64997923276857" lon="10.259815843269937"><ele>364.0</ele><time>2026-04-04T13:42:44Z</time></trkpt><trkpt lat="44.649893376191635" lon="10.259656316613453"><ele>367.0</ele><time>2026-04-04T13:42:45Z</time></trkpt><trkpt lat="44.64981895489253" lon="10.259499719662447"><ele>370.0</ele><time>2026-04-04T13:42:46Z</time></trkpt><trkpt lat="44.64975358693152" lon="10.259373181799948"><ele>373.0</ele><time>2026-04-04T13:42:47Z</time></trkpt><trkpt lat="44.64968474823225" lon="10.259237371750524"><ele>373.0</ele><time>2026-04-04T13:42:48Z</time></trkpt><trkpt lat="44.649639896496446" lon="10.259081164034344"><ele>373.0</ele><time>2026-04-04T13:42:49Z</time></trkpt><trkpt lat="44.64958221752188" lon="10.258959320546273"><ele>373.0</ele><time>2026-04-04T13:42:50Z</time></trkpt><trkpt lat="44.64955397283183" lon="10.258827810629752"><ele>373.0</ele><time>2026-04-04T13:42:51Z</time></trkpt><trkpt lat="44.64954684983193" lon="10.258690826598274"><ele>373.0</ele><time>2026-04-04T13:42:52Z</time></trkpt><trkpt lat="44.6495622891375" lon="10.25854930391945"><ele>373.5</ele><time>2026-04-04T13:42:53Z</time></trkpt><trkpt lat="44.64960865115539" lon="10.258432884247"><ele>374.0</ele><time>2026-04-04T13:42:54Z</time></trkpt><trkpt lat="44.649645245779325" lon="10.258345017206684"><ele>374.5</ele><time>2026-04-04T13:42:55Z</time></trkpt><trkpt lat="44.64968306008799" lon="10.258273267537477"><ele>375.0</ele><time>2026-04-04T13:42:56Z</time></trkpt><trkpt lat="44.64964370244139" lon="10.258126193471531"><ele>375.5</ele><time>2026-04-04T13:42:57Z</time></trkpt><trkpt lat="44.64966184677477" lon="10.258038030102052"><ele>376.0</ele><time>2026-04-04T13:42:58Z</time></trkpt><trkpt lat="44.64969929723242" lon="10.257947560990162"><ele>376.0</ele><time>2026-04-04T13:42:59Z</time></trkpt><trkpt lat="44.64974332882131" lon="10.25785760580007"><ele>376.0</ele><time>2026-04-04T13:43:00Z</time></trkpt><trkpt lat="44.649776980511554" lon="10.257771212112116"><ele>376.0</ele><time>2026-04-04T13:43:01Z</time></trkpt><trkpt lat="44.649789590509" lon="10.25768090415049"><ele>376.0</ele><time>2026-04-04T13:43:02Z</time></trkpt><trkpt lat="44.64977833489079" lon="10.2575910702566"><ele>376.0</ele><time>2026-04-04T13:43:03Z</time></trkpt><trkpt lat="44.649752091992376" lon="10.257498151261117"><ele>376.0</ele><time>2026-04-04T13:43:04Z</time></trkpt><trkpt lat="44.64970946973082" lon="10.257419725551513"><ele>376.0</ele><time>2026-04-04T13:43:05Z</time></trkpt><trkpt lat="44.649651551298454" lon="10.257336944425623"><ele>377.16666666666663</ele><time>2026-04-04T13:43:06Z</time></trkpt><trkpt lat="44.64960445190796" lon="10.257230669965777"><ele>378.3333333333333</ele><time>2026-04-04T13:43:07Z</time></trkpt><trkpt lat="44.649527137635495" lon="10.257133689847048"><ele>379.5</ele><time>2026-04-04T13:43:08Z</time></trkpt><trkpt lat="44.64946178762644" lon="10.257045600349102"><ele>380.6666666666667</ele><time>2026-04-04T13:43:09Z</time></trkpt><trkpt lat="44.64941602425291" lon="10.256974539681096"><ele>381.83333333333337</ele><time>2026-04-04T13:43:10Z</time></trkpt><trkpt lat="44.64936137659113" lon="10.256883536110507"><ele>383.0</ele><time>2026-04-04T13:43:11Z</time></trkpt><trkpt lat="44.649299692368274" lon="10.256779357382763"><ele>382.0</ele><time>2026-04-04T13:43:12Z</time></trkpt><trkpt lat="44.649237611254875" lon="10.256677865001757"><ele>381.0</ele><time>2026-04-04T13:43:13Z</time></trkpt><trkpt lat="44.649167381848315" lon="10.256581463285617"><ele>380.0</ele><time>2026-04-04T13:43:14Z</time></trkpt><trkpt lat="44.649087642896795" lon="10.256482227275331"><ele>379.0</ele><time>2026-04-04T13:43:15Z</time></trkpt><trkpt lat="44.6490093000465" lon="10.256389292390804"><ele>378.0</ele><time>2026-04-04T13:43:16Z</time></trkpt><trkpt lat="44.648927819474196" lon="10.256299299986114"><ele>378.0</ele><time>2026-04-04T13:43:17Z</time></trkpt><trkpt lat="44.64883709960721" lon="10.256239745869824"><ele>378.0</ele><time>2026-04-04T13:43:18Z</time></trkpt><trkpt lat="44.64875618472238" lon="10.256194790624605"><ele>378.0</ele><time>2026-04-04T13:43:19Z</time></trkpt><trkpt lat="44.648664741683646" lon="10.256168123360304"><ele>378.0</ele><time>2026-04-04T13:43:20Z</time></trkpt><trkpt lat="44.64856588934039" lon="10.25616175461548"><ele>378.0</ele><time>2026-04-04T13:43:21Z</time></trkpt><trkpt lat="44.64848094112869" lon="10.256132211920022"><ele>377.4</ele><time>2026-04-04T13:43:22Z</time></trkpt><trkpt lat="44.648381067501454" lon="10.256111073459726"><ele>376.79999999999995</ele><time>2026-04-04T13:43:23Z</time></trkpt><trkpt lat="44.648287551100836" lon="10.256085185132713"><ele>376.2</ele><time>2026-04-04T13:43:24Z</time></trkpt><trkpt lat="44.64820494553261" lon="10.256052108800953"><ele>375.6</ele><time>2026-04-04T13:43:25Z</time></trkpt><trkpt lat="44.648125479175896" lon="10.256011143222446"><ele>375.0</ele><time>2026-04-04T13:43:26Z</time></trkpt><trkpt lat="44.64804578620931" lon="10.255973833188452"><ele>375.0</ele><time>2026-04-04T13:43:27Z</time></trkpt><trkpt lat="44.64797155490855" lon="10.255944947873335"><ele>375.0</ele><time>2026-04-04T13:43:28Z</time></trkpt><trkpt lat="44.647856894227814" lon="10.255939979132476"><ele>375.0</ele><time>2026-04-04T13:43:29Z</time></trkpt><trkpt lat="44.64775728141589" lon="10.255949482176419"><ele>375.0</ele><time>2026-04-04T13:43:30Z</time></trkpt><trkpt lat="44.64766050011666" lon="10.255971236271483"><ele>375.0</ele><time>2026-04-04T13:43:31Z</time></trkpt><trkpt lat="44.647558748815406" lon="10.255982881300215"><ele>374.5</ele><time>2026-04-04T13:43:32Z</time></trkpt><trkpt lat="44.64745888368637" lon="10.255969587963738"><ele>374.0</ele><time>2026-04-04T13:43:33Z</time></trkpt><trkpt lat="44.6473633668362" lon="10.255979205975855"><ele>373.5</ele><time>2026-04-04T13:43:34Z</time></trkpt><trkpt lat="44.64726371410233" lon="10.255988401843409"><ele>373.0</ele><time>2026-04-04T13:43:35Z</time></trkpt><trkpt lat="44.64718146752144" lon="10.25599037118949"><ele>372.5</ele><time>2026-04-04T13:43:36Z</time></trkpt><trkpt lat="44.64711562185742" lon="10.255986061346864"><ele>372.0</ele><time>2026-04-04T13:43:37Z</time></trkpt><trkpt lat="44.647023363264175" lon="10.255973256021615"><ele>371.3333333333333</ele><time>2026-04-04T13:43:38Z</time></trkpt><trkpt lat="44.64693816349214" lon="10.255956445557871"><ele>370.6666666666667</ele><time>2026-04-04T13:43:39Z</time></trkpt><trkpt lat="44.64684277196233" lon="10.255976625273622"><ele>370.0</ele><time>2026-04-04T13:43:40Z</time></trkpt><trkpt lat="44.64675937378587" lon="10.25599139600222"><ele>369.33333333333337</ele><time>2026-04-04T13:43:41Z</time></trkpt><trkpt lat="44.646664938970524" lon="10.256022826121933"><ele>368.6666666666667</ele><time>2026-04-04T13:43:42Z</time></trkpt><trkpt lat="44.64658188997458" lon="10.256032016466422"><ele>368.0</ele><time>2026-04-04T13:43:43Z</time></trkpt><trkpt lat="44.64649783111899" lon="10.256070633138238"><ele>368.0</ele><time>2026-04-04T13:43:44Z</time></trkpt><trkpt lat="44.64640852102383" lon="10.256112999908641"><ele>368.0</ele><time>2026-04-04T13:43:45Z</time></trkpt><trkpt lat="44.64633049435184" lon="10.25615619499859"><ele>368.0</ele><time>2026-04-04T13:43:46Z</time></trkpt><trkpt lat="44.64625634417683" lon="10.256208301794063"><ele>368.0</ele><time>2026-04-04T13:43:47Z</time></trkpt><trkpt lat="44.64614491427827" lon="10.256343478012482"><ele>368.0</ele><time>2026-04-04T13:43:49Z</time></trkpt><trkpt lat="44.646062716936655" lon="10.256425769083725"><ele>367.1666666666667</ele><time>2026-04-04T13:43:50Z</time></trkpt><trkpt lat="44.64599754605955" lon="10.25651995661605"><ele>366.33333333333337</ele><time>2026-04-04T13:43:51Z</time></trkpt><trkpt lat="44.64595376382236" lon="10.256600622926154"><ele>365.5</ele><time>2026-04-04T13:43:52Z</time></trkpt><trkpt lat="44.64589690345636" lon="10.256685858478004"><ele>364.6666666666667</ele><time>2026-04-04T13:43:54Z</time></trkpt><trkpt lat="44.64583478728375" lon="10.256742554485033"><ele>363.8333333333333</ele><time>2026-04-04T13:43:56Z</time></trkpt><trkpt lat="44.645732158542664" lon="10.256844779711525"><ele>363.0</ele><time>2026-04-04T13:43:58Z</time></trkpt><trkpt lat="44.64565239305736" lon="10.256897427785038"><ele>363.0</ele><time>2026-04-04T13:43:59Z</time></trkpt><trkpt lat="44.64558069612044" lon="10.25696132007618"><ele>363.0</ele><time>2026-04-04T13:44:00Z</time></trkpt><trkpt lat="44.64552325291961" lon="10.25703332049282"><ele>363.0</ele><time>2026-04-04T13:44:01Z</time></trkpt><trkpt lat="44.645453210733386" lon="10.257081185478938"><ele>363.0</ele><time>2026-04-04T13:44:02Z</time></trkpt><trkpt lat="44.64539612182516" lon="10.257137684540174"><ele>363.0</ele><time>2026-04-04T13:44:03Z</time></trkpt><trkpt lat="44.64533314538489" lon="10.257198772759152"><ele>363.0</ele><time>2026-04-04T13:44:04Z</time></trkpt><trkpt lat="44.64526411420318" lon="10.257265304729026"><ele>363.2</ele><time>2026-04-04T13:44:05Z</time></trkpt><trkpt lat="44.64519794833848" lon="10.257329094217024"><ele>363.4</ele><time>2026-04-04T13:44:06Z</time></trkpt><trkpt lat="44.64513535789263" lon="10.257391057050475"><ele>363.59999999999997</ele><time>2026-04-04T13:44:07Z</time></trkpt><trkpt lat="44.64505157048083" lon="10.257475560909423"><ele>363.79999999999995</ele><time>2026-04-04T13:44:09Z</time></trkpt><trkpt lat="44.644992968428575" lon="10.257532709172827"><ele>364.0</ele><time>2026-04-04T13:44:10Z</time></trkpt><trkpt lat="44.64488293043688" lon="10.257615374802413"><ele>364.0</ele><time>2026-04-04T13:44:12Z</time></trkpt><trkpt lat="44.64475542264964" lon="10.257689948453901"><ele>364.0</ele><time>2026-04-04T13:44:14Z</time></trkpt><trkpt lat="44.64468007193895" lon="10.25773118322526"><ele>364.0</ele><time>2026-04-04T13:44:15Z</time></trkpt><trkpt lat="44.64461115155189" lon="10.257768899080055"><ele>364.0</ele><time>2026-04-04T13:44:16Z</time></trkpt><trkpt lat="44.64449749675666" lon="10.257824884014354"><ele>364.0</ele><time>2026-04-04T13:44:18Z</time></trkpt><trkpt lat="44.64436899451682" lon="10.257832419234058"><ele>364.5</ele><time>2026-04-04T13:44:20Z</time></trkpt><trkpt lat="44.64431079722936" lon="10.257757422324124"><ele>365.0</ele><time>2026-04-04T13:44:21Z</time></trkpt><trkpt lat="44.64424305740994" lon="10.257735406116394"><ele>365.5</ele><time>2026-04-04T13:44:22Z</time></trkpt><trkpt lat="44.64414907973072" lon="10.257744603059164"><ele>366.0</ele><time>2026-04-04T13:44:24Z</time></trkpt><trkpt lat="44.64406194679558" lon="10.257879435214637"><ele>366.5</ele><time>2026-04-04T13:44:26Z</time></trkpt><trkpt lat="44.644025749250766" lon="10.257971522523244"><ele>367.0</ele><time>2026-04-04T13:44:27Z</time></trkpt><trkpt lat="44.64399607407001" lon="10.25808143037786"><ele>366.66666666666663</ele><time>2026-04-04T13:44:28Z</time></trkpt><trkpt lat="44.643943769156" lon="10.25816997728634"><ele>366.3333333333333</ele><time>2026-04-04T13:44:29Z</time></trkpt><trkpt lat="44.643855226104776" lon="10.258250865564117"><ele>366.0</ele><time>2026-04-04T13:44:31Z</time></trkpt><trkpt lat="44.64377162151577" lon="10.258285372956781"><ele>365.6666666666667</ele><time>2026-04-04T13:44:33Z</time></trkpt><trkpt lat="44.643694659218525" lon="10.258341404126645"><ele>365.33333333333337</ele><time>2026-04-04T13:44:35Z</time></trkpt><trkpt lat="44.64365275341174" lon="10.258433664479481"><ele>365.0</ele><time>2026-04-04T13:44:37Z</time></trkpt><trkpt lat="44.64360679892785" lon="10.258505905686183"><ele>365.0</ele><time>2026-04-04T13:44:39Z</time></trkpt><trkpt lat="44.643543115749836" lon="10.258594404992762"><ele>365.0</ele><time>2026-04-04T13:44:41Z</time></trkpt><trkpt lat="44.643457879390525" lon="10.258687127156017"><ele>365.0</ele><time>2026-04-04T13:44:43Z</time></trkpt><trkpt lat="44.64338795417497" lon="10.258768226149032"><ele>365.0</ele><time>2026-04-04T13:44:45Z</time></trkpt><trkpt lat="44.6433288328182" lon="10.258882841777123"><ele>365.0</ele><time>2026-04-04T13:44:47Z</time></trkpt><trkpt lat="44.643262364401515" lon="10.259021655796172"><ele>364.1666666666667</ele><time>2026-04-04T13:44:49Z</time></trkpt><trkpt lat="44.64321863705316" lon="10.259097973755528"><ele>363.33333333333337</ele><time>2026-04-04T13:44:50Z</time></trkpt><trkpt lat="44.643157236636156" lon="10.259208883043847"><ele>362.5</ele><time>2026-04-04T13:44:52Z</time></trkpt><trkpt lat="44.64310963990332" lon="10.25929597380031"><ele>361.6666666666667</ele><time>2026-04-04T13:44:54Z</time></trkpt><trkpt lat="44.643103015856354" lon="10.259472183286448"><ele>360.8333333333333</ele><time>2026-04-04T13:44:56Z</time></trkpt><trkpt lat="44.64308270637984" lon="10.259571002426021"><ele>360.0</ele><time>2026-04-04T13:44:57Z</time></trkpt><trkpt lat="44.64306368524221" lon="10.259688853685507"><ele>359.0</ele><time>2026-04-04T13:44:58Z</time></trkpt><trkpt lat="44.6430495877913" lon="10.259811179346649"><ele>358.0</ele><time>2026-04-04T13:44:59Z</time></trkpt><trkpt lat="44.6430459856662" lon="10.259945184551544"><ele>357.0</ele><time>2026-04-04T13:45:00Z</time></trkpt><trkpt lat="44.64303219416864" lon="10.260078222970396"><ele>356.0</ele><time>2026-04-04T13:45:01Z</time></trkpt><trkpt lat="44.64300483908355" lon="10.260204139876988"><ele>355.0</ele><time>2026-04-04T13:45:02Z</time></trkpt><trkpt lat="44.64299185865907" lon="10.260325305107932"><ele>355.0</ele><time>2026-04-04T13:45:03Z</time></trkpt><trkpt lat="44.64299601643649" lon="10.260442358497162"><ele>355.0</ele><time>2026-04-04T13:45:04Z</time></trkpt><trkpt lat="44.64298190367072" lon="10.260554084347223"><ele>355.0</ele><time>2026-04-04T13:45:05Z</time></trkpt><trkpt lat="44.64297766326382" lon="10.260665620405174"><ele>355.0</ele><time>2026-04-04T13:45:06Z</time></trkpt><trkpt lat="44.642974372386625" lon="10.260762337879079"><ele>355.0</ele><time>2026-04-04T13:45:07Z</time></trkpt><trkpt lat="44.64295536157245" lon="10.260888618783424"><ele>355.0</ele><time>2026-04-04T13:45:08Z</time></trkpt><trkpt lat="44.642946989703056" lon="10.261010888531539"><ele>355.16666666666663</ele><time>2026-04-04T13:45:09Z</time></trkpt><trkpt lat="44.64293568211528" lon="10.261127371250911"><ele>355.3333333333333</ele><time>2026-04-04T13:45:10Z</time></trkpt><trkpt lat="44.64292403904191" lon="10.261247122754515"><ele>355.5</ele><time>2026-04-04T13:45:11Z</time></trkpt><trkpt lat="44.64291280704741" lon="10.261358442104658"><ele>355.6666666666667</ele><time>2026-04-04T13:45:12Z</time></trkpt><trkpt lat="44.642904783520656" lon="10.261475724949017"><ele>355.83333333333337</ele><time>2026-04-04T13:45:13Z</time></trkpt><trkpt lat="44.64288080402746" lon="10.261578730004935"><ele>356.0</ele><time>2026-04-04T13:45:14Z</time></trkpt><trkpt lat="44.642871240523796" lon="10.261711858260027"><ele>353.8</ele><time>2026-04-04T13:45:16Z</time></trkpt><trkpt lat="44.64289249575305" lon="10.261798321383433"><ele>351.6</ele><time>2026-04-04T13:45:28Z</time></trkpt><trkpt lat="44.642878094835964" lon="10.261895912694543"><ele>349.4</ele><time>2026-04-04T13:45:30Z</time></trkpt><trkpt lat="44.64287338058468" lon="10.262067078818179"><ele>347.2</ele><time>2026-04-04T13:45:32Z</time></trkpt><trkpt lat="44.642844301004" lon="10.262182704407813"><ele>345.0</ele><time>2026-04-04T13:45:34Z</time></trkpt><trkpt lat="44.642731914818036" lon="10.262273362881496"><ele>342.8333333333333</ele><time>2026-04-04T13:45:36Z</time></trkpt><trkpt lat="44.64265167624628" lon="10.26229714545695"><ele>340.6666666666667</ele><time>2026-04-04T13:45:37Z</time></trkpt><trkpt lat="44.64256594688383" lon="10.262316935624254"><ele>338.5</ele><time>2026-04-04T13:45:38Z</time></trkpt><trkpt lat="44.64247952015771" lon="10.262335274089615"><ele>336.33333333333337</ele><time>2026-04-04T13:45:39Z</time></trkpt><trkpt lat="44.64239528666725" lon="10.262353063311984"><ele>334.1666666666667</ele><time>2026-04-04T13:45:40Z</time></trkpt><trkpt lat="44.64231728348982" lon="10.262360535586744"><ele>332.0</ele><time>2026-04-04T13:45:41Z</time></trkpt><trkpt lat="44.64224225875779" lon="10.262357991583002"><ele>332.0</ele><time>2026-04-04T13:45:42Z</time></trkpt><trkpt lat="44.64217626715783" lon="10.262348413569693"><ele>332.0</ele><time>2026-04-04T13:45:43Z</time></trkpt><trkpt lat="44.64206919843949" lon="10.26232111642121"><ele>332.0</ele><time>2026-04-04T13:45:45Z</time></trkpt><trkpt lat="44.64202355190158" lon="10.262217547639855"><ele>332.0</ele><time>2026-04-04T13:45:46Z</time></trkpt><trkpt lat="44.6419678219845" lon="10.262172290702773"><ele>332.0</ele><time>2026-04-04T13:45:47Z</time></trkpt><trkpt lat="44.641897921212895" lon="10.2621408025371"><ele>332.0</ele><time>2026-04-04T13:45:48Z</time></trkpt><trkpt lat="44.641833976549144" lon="10.2620948601467"><ele>330.85714285714283</ele><time>2026-04-04T13:45:49Z</time></trkpt><trkpt lat="44.641767612028964" lon="10.262061979779501"><ele>329.7142857142857</ele><time>2026-04-04T13:45:50Z</time></trkpt><trkpt lat="44.64169760624035" lon="10.262031538178364"><ele>328.57142857142856</ele><time>2026-04-04T13:45:51Z</time></trkpt><trkpt lat="44.64162198460133" lon="10.262006274763472"><ele>327.42857142857144</ele><time>2026-04-04T13:45:52Z</time></trkpt><trkpt lat="44.64155094414546" lon="10.261982747776884"><ele>326.2857142857143</ele><time>2026-04-04T13:45:53Z</time></trkpt><trkpt lat="44.64147740120732" lon="10.261966690240767"><ele>325.14285714285717</ele><time>2026-04-04T13:45:54Z</time></trkpt><trkpt lat="44.64140567817516" lon="10.261922792411303"><ele>324.0</ele><time>2026-04-04T13:45:55Z</time></trkpt><trkpt lat="44.6413268658705" lon="10.26188687574946"><ele>324.0</ele><time>2026-04-04T13:45:56Z</time></trkpt><trkpt lat="44.64124184081798" lon="10.261844101175164"><ele>324.0</ele><time>2026-04-04T13:45:57Z</time></trkpt><trkpt lat="44.641147744156335" lon="10.261807848786425"><ele>324.0</ele><time>2026-04-04T13:45:58Z</time></trkpt><trkpt lat="44.641075289028855" lon="10.261732884552258"><ele>324.0</ele><time>2026-04-04T13:45:59Z</time></trkpt><trkpt lat="44.64099962761437" lon="10.261668694938024"><ele>324.0</ele><time>2026-04-04T13:46:00Z</time></trkpt><trkpt lat="44.640929966365476" lon="10.26159743855084"><ele>324.1666666666667</ele><time>2026-04-04T13:46:01Z</time></trkpt><trkpt lat="44.64086138789566" lon="10.261515650139046"><ele>324.3333333333333</ele><time>2026-04-04T13:46:02Z</time></trkpt><trkpt lat="44.640793255417854" lon="10.261421962143675"><ele>324.5</ele><time>2026-04-04T13:46:03Z</time></trkpt><trkpt lat="44.640735009223754" lon="10.261332557725545"><ele>324.66666666666663</ele><time>2026-04-04T13:46:04Z</time></trkpt><trkpt lat="44.64066262564657" lon="10.261249467173155"><ele>324.8333333333333</ele><time>2026-04-04T13:46:05Z</time></trkpt><trkpt lat="44.64060019551806" lon="10.261174359450816"><ele>325.0</ele><time>2026-04-04T13:46:06Z</time></trkpt><trkpt lat="44.6405282099427" lon="10.261110406596677"><ele>325.0</ele><time>2026-04-04T13:46:07Z</time></trkpt><trkpt lat="44.64045678985888" lon="10.261066619314697"><ele>325.0</ele><time>2026-04-04T13:46:08Z</time></trkpt><trkpt lat="44.6403804482855" lon="10.26103633840968"><ele>325.0</ele><time>2026-04-04T13:46:09Z</time></trkpt><trkpt lat="44.64030662167459" lon="10.26101160472853"><ele>325.0</ele><time>2026-04-04T13:46:10Z</time></trkpt><trkpt lat="44.64023653939218" lon="10.260978475069061"><ele>325.0</ele><time>2026-04-04T13:46:11Z</time></trkpt><trkpt lat="44.64015618521271" lon="10.260919359939194"><ele>325.0</ele><time>2026-04-04T13:46:12Z</time></trkpt><trkpt lat="44.64008501945903" lon="10.260854357240083"><ele>324.16666666666663</ele><time>2026-04-04T13:46:13Z</time></trkpt><trkpt lat="44.64000492702501" lon="10.260795509239637"><ele>323.3333333333333</ele><time>2026-04-04T13:46:14Z</time></trkpt><trkpt lat="44.63993710237669" lon="10.260748816355898"><ele>322.5</ele><time>2026-04-04T13:46:15Z</time></trkpt><trkpt lat="44.6398572168521" lon="10.260713001373817"><ele>321.6666666666667</ele><time>2026-04-04T13:46:16Z</time></trkpt><trkpt lat="44.639773761227474" lon="10.260690291239712"><ele>320.83333333333337</ele><time>2026-04-04T13:46:17Z</time></trkpt><trkpt lat="44.639696027943145" lon="10.260677846174788"><ele>320.0</ele><time>2026-04-04T13:46:18Z</time></trkpt><trkpt lat="44.639620687827566" lon="10.260663933320076"><ele>320.0</ele><time>2026-04-04T13:46:19Z</time></trkpt><trkpt lat="44.639554653479244" lon="10.260644199319715"><ele>320.0</ele><time>2026-04-04T13:46:20Z</time></trkpt><trkpt lat="44.63947763287964" lon="10.260622130024165"><ele>320.0</ele><time>2026-04-04T13:46:21Z</time></trkpt><trkpt lat="44.639410771197085" lon="10.260588474869266"><ele>320.0</ele><time>2026-04-04T13:46:22Z</time></trkpt><trkpt lat="44.63934017988111" lon="10.260533667577368"><ele>320.0</ele><time>2026-04-04T13:46:23Z</time></trkpt><trkpt lat="44.63927495596363" lon="10.26046536290057"><ele>320.0</ele><time>2026-04-04T13:46:24Z</time></trkpt><trkpt lat="44.63921313583668" lon="10.260398077060522"><ele>319.1666666666667</ele><time>2026-04-04T13:46:25Z</time></trkpt><trkpt lat="44.63914401542236" lon="10.260322359769994"><ele>318.33333333333337</ele><time>2026-04-04T13:46:26Z</time></trkpt><trkpt lat="44.63907252893742" lon="10.260237513588255"><ele>317.5</ele><time>2026-04-04T13:46:27Z</time></trkpt><trkpt lat="44.639006225258576" lon="10.260148503261465"><ele>316.6666666666667</ele><time>2026-04-04T13:46:28Z</time></trkpt><trkpt lat="44.638954222098796" lon="10.26006327487981"><ele>315.8333333333333</ele><time>2026-04-04T13:46:29Z</time></trkpt><trkpt lat="44.638917776986915" lon="10.25998226216916"><ele>315.0</ele><time>2026-04-04T13:46:30Z</time></trkpt><trkpt lat="44.638885011804845" lon="10.259885210113328"><ele>314.6666666666667</ele><time>2026-04-04T13:46:31Z</time></trkpt><trkpt lat="44.63886028544852" lon="10.25977277685056"><ele>314.3333333333333</ele><time>2026-04-04T13:46:32Z</time></trkpt><trkpt lat="44.638847936819936" lon="10.259673271016329"><ele>314.0</ele><time>2026-04-04T13:46:33Z</time></trkpt><trkpt lat="44.638833873595416" lon="10.259569693830116"><ele>313.66666666666663</ele><time>2026-04-04T13:46:34Z</time></trkpt><trkpt lat="44.63874305619217" lon="10.259440699453831"><ele>313.3333333333333</ele><time>2026-04-04T13:46:36Z</time></trkpt><trkpt lat="44.638668001041886" lon="10.259393718221428"><ele>313.0</ele><time>2026-04-04T13:46:37Z</time></trkpt><trkpt lat="44.638600321264455" lon="10.259352847154581"><ele>313.0</ele><time>2026-04-04T13:46:38Z</time></trkpt><trkpt lat="44.63853657421214" lon="10.259314478071413"><ele>313.0</ele><time>2026-04-04T13:46:39Z</time></trkpt><trkpt lat="44.63847492597207" lon="10.259277557622545"><ele>313.0</ele><time>2026-04-04T13:46:40Z</time></trkpt><trkpt lat="44.63840951306752" lon="10.259236412068203"><ele>313.0</ele><time>2026-04-04T13:46:41Z</time></trkpt><trkpt lat="44.63832908890216" lon="10.259172595386437"><ele>313.0</ele><time>2026-04-04T13:46:43Z</time></trkpt><trkpt lat="44.638245456656826" lon="10.259127147166069"><ele>313.0</ele><time>2026-04-04T13:46:46Z</time></trkpt><trkpt lat="44.638181956726925" lon="10.259104409554418"><ele>313.0</ele><time>2026-04-04T13:46:48Z</time></trkpt><trkpt lat="44.63811596957577" lon="10.259066524358186"><ele>313.0</ele><time>2026-04-04T13:46:50Z</time></trkpt><trkpt lat="44.63804306519372" lon="10.259013125575883"><ele>313.0</ele><time>2026-04-04T13:46:52Z</time></trkpt><trkpt lat="44.637979228730565" lon="10.258959882488321"><ele>313.0</ele><time>2026-04-04T13:46:54Z</time></trkpt><trkpt lat="44.63791725085338" lon="10.258915885985516"><ele>313.0</ele><time>2026-04-04T13:46:56Z</time></trkpt><trkpt lat="44.63782727821472" lon="10.258849188718214"><ele>313.0</ele><time>2026-04-04T13:46:58Z</time></trkpt><trkpt lat="44.63774669041598" lon="10.258805202490514"><ele>312.6</ele><time>2026-04-04T13:47:00Z</time></trkpt><trkpt lat="44.63763716244391" lon="10.258756103334754"><ele>312.20000000000005</ele><time>2026-04-04T13:47:02Z</time></trkpt><trkpt lat="44.63751451769874" lon="10.258714590737375"><ele>311.8</ele><time>2026-04-04T13:47:04Z</time></trkpt><trkpt lat="44.637428687676326" lon="10.258703922102255"><ele>311.40000000000003</ele><time>2026-04-04T13:47:05Z</time></trkpt><trkpt lat="44.63733912776179" lon="10.258691282465621"><ele>311.0</ele><time>2026-04-04T13:47:06Z</time></trkpt><trkpt lat="44.637227460880126" lon="10.258665758197548"><ele>311.0</ele><time>2026-04-04T13:47:08Z</time></trkpt><trkpt lat="44.63715907492471" lon="10.258644132249893"><ele>311.0</ele><time>2026-04-04T13:47:09Z</time></trkpt><trkpt lat="44.6370791211218" lon="10.258619275469004"><ele>311.0</ele><time>2026-04-04T13:47:10Z</time></trkpt><trkpt lat="44.63700137187929" lon="10.258599081425938"><ele>311.0</ele><time>2026-04-04T13:47:11Z</time></trkpt><trkpt lat="44.63687003041809" lon="10.258556561521365"><ele>311.0</ele><time>2026-04-04T13:47:13Z</time></trkpt><trkpt lat="44.63680710765654" lon="10.258525278259134"><ele>311.0</ele><time>2026-04-04T13:47:14Z</time></trkpt><trkpt lat="44.63668781716587" lon="10.258472660580122"><ele>312.40000000000003</ele><time>2026-04-04T13:47:16Z</time></trkpt><trkpt lat="44.63656640021676" lon="10.258420979760338"><ele>313.8</ele><time>2026-04-04T13:47:18Z</time></trkpt><trkpt lat="44.6364594987505" lon="10.258388933507936"><ele>315.20000000000005</ele><time>2026-04-04T13:47:20Z</time></trkpt><trkpt lat="44.63639532493571" lon="10.258365268456206"><ele>316.6</ele><time>2026-04-04T13:47:21Z</time></trkpt><trkpt lat="44.636317768239216" lon="10.258330797844799"><ele>318.0</ele><time>2026-04-04T13:47:22Z</time></trkpt><trkpt lat="44.6362302029426" lon="10.258295022752831"><ele>318.0</ele><time>2026-04-04T13:47:23.001Z</time></trkpt><trkpt lat="44.636152382507" lon="10.258271020534323"><ele>318.0</ele><time>2026-04-04T13:47:24.001Z</time></trkpt><trkpt lat="44.63607246904537" lon="10.258256318637788"><ele>318.0</ele><time>2026-04-04T13:47:25.001Z</time></trkpt><trkpt lat="44.63598664829847" lon="10.258236295935202"><ele>318.0</ele><time>2026-04-04T13:47:26.001Z</time></trkpt><trkpt lat="44.63590939083484" lon="10.258211072632177"><ele>318.0</ele><time>2026-04-04T13:47:27.001Z</time></trkpt><trkpt lat="44.635840012112205" lon="10.258187329524167"><ele>318.0</ele><time>2026-04-04T13:47:28.001Z</time></trkpt><trkpt lat="44.63577279970249" lon="10.258142042197465"><ele>319.8333333333333</ele><time>2026-04-04T13:47:29.001Z</time></trkpt><trkpt lat="44.63570467738863" lon="10.258107895919334"><ele>321.6666666666667</ele><time>2026-04-04T13:47:30.001Z</time></trkpt><trkpt lat="44.63561714317298" lon="10.25807452673822"><ele>323.5</ele><time>2026-04-04T13:47:31.001Z</time></trkpt><trkpt lat="44.635520665033695" lon="10.258056596319175"><ele>325.33333333333337</ele><time>2026-04-04T13:47:33.001Z</time></trkpt><trkpt lat="44.6354485921654" lon="10.25804624520267"><ele>327.1666666666667</ele><time>2026-04-04T13:47:34.001Z</time></trkpt><trkpt lat="44.63535715816407" lon="10.258028388504615"><ele>329.0</ele><time>2026-04-04T13:47:36.001Z</time></trkpt><trkpt lat="44.635254863217654" lon="10.258045716346706"><ele>329.57142857142856</ele><time>2026-04-04T13:47:38.001Z</time></trkpt><trkpt lat="44.63519732766899" lon="10.25808482831674"><ele>330.1428571428571</ele><time>2026-04-04T13:47:39.001Z</time></trkpt><trkpt lat="44.63513901697092" lon="10.258131464252923"><ele>330.7142857142857</ele><time>2026-04-04T13:47:40.001Z</time></trkpt><trkpt lat="44.63507772786852" lon="10.258168941477642"><ele>331.2857142857143</ele><time>2026-04-04T13:47:41.001Z</time></trkpt><trkpt lat="44.634991792105176" lon="10.258201017476157"><ele>331.85714285714283</ele><time>2026-04-04T13:47:43.001Z</time></trkpt><trkpt lat="44.634912476088566" lon="10.258225875033991"><ele>332.42857142857144</ele><time>2026-04-04T13:47:46.001Z</time></trkpt><trkpt lat="44.63487310710045" lon="10.258296241783091"><ele>333.0</ele><time>2026-04-04T13:47:58.001Z</time></trkpt><trkpt lat="44.634936221496446" lon="10.25826264723367"><ele>333.0</ele><time>2026-04-04T13:48:11Z</time></trkpt><trkpt lat="44.63500141160952" lon="10.258215885305354"><ele>333.0</ele><time>2026-04-04T13:48:14Z</time></trkpt><trkpt lat="44.635066676666696" lon="10.258140474881825"><ele>333.0</ele><time>2026-04-04T13:48:17Z</time></trkpt><trkpt lat="44.635102470764956" lon="10.258065718846014"><ele>333.0</ele><time>2026-04-04T13:48:19Z</time></trkpt><trkpt lat="44.63514212975882" lon="10.257992719752213"><ele>333.0</ele><time>2026-04-04T13:48:20Z</time></trkpt><trkpt lat="44.635187470071024" lon="10.257859937362904"><ele>333.0</ele><time>2026-04-04T13:48:22Z</time></trkpt><trkpt lat="44.63523868290113" lon="10.257747412800496"><ele>333.4</ele><time>2026-04-04T13:48:24Z</time></trkpt><trkpt lat="44.63529261382148" lon="10.257638772537888"><ele>333.79999999999995</ele><time>2026-04-04T13:48:26Z</time></trkpt><trkpt lat="44.635347735913726" lon="10.257533290346156"><ele>334.2</ele><time>2026-04-04T13:48:28Z</time></trkpt><trkpt lat="44.63539966209898" lon="10.257423538034846"><ele>334.6</ele><time>2026-04-04T13:48:30Z</time></trkpt><trkpt lat="44.63545912790953" lon="10.257300788228486"><ele>335.0</ele><time>2026-04-04T13:48:32Z</time></trkpt><trkpt lat="44.6355050606461" lon="10.257188031872646"><ele>336.8</ele><time>2026-04-04T13:48:34Z</time></trkpt><trkpt lat="44.63553231191825" lon="10.257076060751608"><ele>338.6</ele><time>2026-04-04T13:48:36Z</time></trkpt><trkpt lat="44.635582048650406" lon="10.256951099993895"><ele>340.4</ele><time>2026-04-04T13:48:38Z</time></trkpt><trkpt lat="44.6356524337388" lon="10.256820560577996"><ele>342.2</ele><time>2026-04-04T13:48:40Z</time></trkpt><trkpt lat="44.63571797595627" lon="10.2567108952042"><ele>344.0</ele><time>2026-04-04T13:48:42Z</time></trkpt><trkpt lat="44.635802988662405" lon="10.256596579574344"><ele>344.0</ele><time>2026-04-04T13:48:44Z</time></trkpt><trkpt lat="44.63587658929594" lon="10.256484791501284"><ele>344.0</ele><time>2026-04-04T13:48:46Z</time></trkpt><trkpt lat="44.63594465007036" lon="10.256367693480003"><ele>344.0</ele><time>2026-04-04T13:48:48Z</time></trkpt><trkpt lat="44.63601591082096" lon="10.256243241702869"><ele>344.0</ele><time>2026-04-04T13:48:50Z</time></trkpt><trkpt lat="44.636076649451375" lon="10.25611649870995"><ele>344.0</ele><time>2026-04-04T13:48:52Z</time></trkpt><trkpt lat="44.63610829196037" lon="10.256039384800637"><ele>345.0</ele><time>2026-04-04T13:48:53Z</time></trkpt><trkpt lat="44.63615276189006" lon="10.255895055363576"><ele>346.0</ele><time>2026-04-04T13:48:55Z</time></trkpt><trkpt lat="44.636237730590054" lon="10.25578312013342"><ele>347.0</ele><time>2026-04-04T13:48:57Z</time></trkpt><trkpt lat="44.636318688727485" lon="10.255658195444743"><ele>348.0</ele><time>2026-04-04T13:48:59Z</time></trkpt><trkpt lat="44.63638978333413" lon="10.25556164564061"><ele>349.0</ele><time>2026-04-04T13:49:01Z</time></trkpt><trkpt lat="44.63645860247376" lon="10.25542918900738"><ele>349.4285714285714</ele><time>2026-04-04T13:49:03Z</time></trkpt><trkpt lat="44.636496421858595" lon="10.255352417151366"><ele>349.85714285714283</ele><time>2026-04-04T13:49:04Z</time></trkpt><trkpt lat="44.63653578199771" lon="10.255271307452684"><ele>350.2857142857143</ele><time>2026-04-04T13:49:05Z</time></trkpt><trkpt lat="44.63657046325638" lon="10.255181442361762"><ele>350.71428571428567</ele><time>2026-04-04T13:49:06.001Z</time></trkpt><trkpt lat="44.6365942144514" lon="10.25509303698352"><ele>351.1428571428571</ele><time>2026-04-04T13:49:07.001Z</time></trkpt><trkpt lat="44.63662403431087" lon="10.254986491153787"><ele>351.57142857142856</ele><time>2026-04-04T13:49:08.001Z</time></trkpt><trkpt lat="44.636651252416385" lon="10.25487935883713"><ele>352.0</ele><time>2026-04-04T13:49:09.001Z</time></trkpt><trkpt lat="44.63667958611204" lon="10.25477396881353"><ele>352.0</ele><time>2026-04-04T13:49:10.001Z</time></trkpt><trkpt lat="44.636711203187936" lon="10.254660656838205"><ele>352.0</ele><time>2026-04-04T13:49:11.001Z</time></trkpt><trkpt lat="44.636740710490315" lon="10.25456170904695"><ele>352.0</ele><time>2026-04-04T13:49:12.001Z</time></trkpt><trkpt lat="44.63677027975313" lon="10.254468638343749"><ele>352.0</ele><time>2026-04-04T13:49:13.001Z</time></trkpt><trkpt lat="44.636805028932976" lon="10.25437124118405"><ele>352.0</ele><time>2026-04-04T13:49:14.001Z</time></trkpt><trkpt lat="44.636835845022524" lon="10.254291017565313"><ele>352.0</ele><time>2026-04-04T13:49:15.001Z</time></trkpt><trkpt lat="44.636875872154434" lon="10.254197746136672"><ele>352.0</ele><time>2026-04-04T13:49:16.001Z</time></trkpt><trkpt lat="44.63691869163547" lon="10.25410131131013"><ele>352.0</ele><time>2026-04-04T13:49:17.001Z</time></trkpt><trkpt lat="44.63694976380075" lon="10.254015191094194"><ele>352.0</ele><time>2026-04-04T13:49:18.001Z</time></trkpt><trkpt lat="44.63698840322914" lon="10.253931871928991"><ele>352.0</ele><time>2026-04-04T13:49:19.001Z</time></trkpt><trkpt lat="44.63703010758457" lon="10.253838130801903"><ele>352.0</ele><time>2026-04-04T13:49:20.001Z</time></trkpt><trkpt lat="44.63707297667833" lon="10.253742205280199"><ele>352.0</ele><time>2026-04-04T13:49:21.001Z</time></trkpt><trkpt lat="44.63711141204519" lon="10.253669818068921"><ele>352.0</ele><time>2026-04-04T13:49:22.001Z</time></trkpt><trkpt lat="44.6371680604563" lon="10.253585141678949"><ele>354.0</ele><time>2026-04-04T13:49:23.001Z</time></trkpt><trkpt lat="44.63722958101727" lon="10.253520375108891"><ele>356.0</ele><time>2026-04-04T13:49:24.001Z</time></trkpt><trkpt lat="44.6373122971818" lon="10.253388459756417"><ele>358.0</ele><time>2026-04-04T13:49:26.001Z</time></trkpt><trkpt lat="44.637357582898716" lon="10.253314283829509"><ele>360.0</ele><time>2026-04-04T13:49:27.001Z</time></trkpt><trkpt lat="44.63739286496085" lon="10.253232222825462"><ele>362.0</ele><time>2026-04-04T13:49:28.001Z</time></trkpt><trkpt lat="44.637429105650206" lon="10.253149857809413"><ele>364.0</ele><time>2026-04-04T13:49:29.001Z</time></trkpt><trkpt lat="44.63747658663556" lon="10.253058237619134"><ele>365.8333333333333</ele><time>2026-04-04T13:49:30.001Z</time></trkpt><trkpt lat="44.63753010198176" lon="10.252968512018269"><ele>367.66666666666663</ele><time>2026-04-04T13:49:31.001Z</time></trkpt><trkpt lat="44.63758593859194" lon="10.252867634344101"><ele>369.5</ele><time>2026-04-04T13:49:32.001Z</time></trkpt><trkpt lat="44.6376395254148" lon="10.252770389093461"><ele>371.3333333333333</ele><time>2026-04-04T13:49:33.001Z</time></trkpt><trkpt lat="44.63768276532285" lon="10.252677668593277"><ele>373.1666666666667</ele><time>2026-04-04T13:49:34.001Z</time></trkpt><trkpt lat="44.63773140189116" lon="10.252589016288152"><ele>375.0</ele><time>2026-04-04T13:49:35.001Z</time></trkpt><trkpt lat="44.637771113847606" lon="10.252496954153655"><ele>375.0</ele><time>2026-04-04T13:49:36.001Z</time></trkpt><trkpt lat="44.63780105328893" lon="10.25238540030394"><ele>375.0</ele><time>2026-04-04T13:49:37.001Z</time></trkpt><trkpt lat="44.637829161377326" lon="10.252256297898676"><ele>375.0</ele><time>2026-04-04T13:49:38.001Z</time></trkpt><trkpt lat="44.6378535599246" lon="10.252132694068038"><ele>375.0</ele><time>2026-04-04T13:49:39.001Z</time></trkpt><trkpt lat="44.637862773322794" lon="10.252023578928144"><ele>375.0</ele><time>2026-04-04T13:49:40.001Z</time></trkpt><trkpt lat="44.63787560902161" lon="10.25189994059853"><ele>375.0</ele><time>2026-04-04T13:49:41.001Z</time></trkpt><trkpt lat="44.63789183513589" lon="10.251789255470737"><ele>376.0</ele><time>2026-04-04T13:49:42.001Z</time></trkpt><trkpt lat="44.63791551510381" lon="10.251688220409468"><ele>377.0</ele><time>2026-04-04T13:49:43.001Z</time></trkpt><trkpt lat="44.637945282214005" lon="10.251557459472611"><ele>378.0</ele><time>2026-04-04T13:49:44.001Z</time></trkpt><trkpt lat="44.63798010704612" lon="10.251448445292569"><ele>379.0</ele><time>2026-04-04T13:49:45.001Z</time></trkpt><trkpt lat="44.63802343875922" lon="10.251316752880395"><ele>380.0</ele><time>2026-04-04T13:49:46.001Z</time></trkpt><trkpt lat="44.63806146212688" lon="10.251199821501018"><ele>382.0</ele><time>2026-04-04T13:49:47.001Z</time></trkpt><trkpt lat="44.638100225977766" lon="10.251084230526878"><ele>384.0</ele><time>2026-04-04T13:49:48.001Z</time></trkpt><trkpt lat="44.63813524177891" lon="10.250962047596676"><ele>386.0</ele><time>2026-04-04T13:49:49.001Z</time></trkpt><trkpt lat="44.63817186945512" lon="10.250841238037019"><ele>388.0</ele><time>2026-04-04T13:49:50.001Z</time></trkpt><trkpt lat="44.638211175817446" lon="10.250712711505855"><ele>390.0</ele><time>2026-04-04T13:49:51.001Z</time></trkpt><trkpt lat="44.638244986426486" lon="10.250594007548175"><ele>391.0</ele><time>2026-04-04T13:49:52.001Z</time></trkpt><trkpt lat="44.63828830185161" lon="10.250455872927075"><ele>392.0</ele><time>2026-04-04T13:49:53.001Z</time></trkpt><trkpt lat="44.63833477320734" lon="10.250348538356771"><ele>393.0</ele><time>2026-04-04T13:49:54.001Z</time></trkpt><trkpt lat="44.63839221789857" lon="10.250237095331302"><ele>394.0</ele><time>2026-04-04T13:49:55.001Z</time></trkpt><trkpt lat="44.63845323308808" lon="10.250126874939008"><ele>395.0</ele><time>2026-04-04T13:49:56.001Z</time></trkpt><trkpt lat="44.63851054298941" lon="10.250025296910923"><ele>394.99999999999994</ele><time>2026-04-04T13:49:57.001Z</time></trkpt><trkpt lat="44.638559982993904" lon="10.249950160694183"><ele>395.0</ele><time>2026-04-04T13:49:58.001Z</time></trkpt><trkpt lat="44.638604936890964" lon="10.249874201038327"><ele>395.0</ele><time>2026-04-04T13:49:59.001Z</time></trkpt><trkpt lat="44.638682285150864" lon="10.249761267627795"><ele>395.0</ele><time>2026-04-04T13:50:01.001Z</time></trkpt><trkpt lat="44.63873967688137" lon="10.249685498115406"><ele>394.99999999999994</ele><time>2026-04-04T13:50:02.001Z</time></trkpt><trkpt lat="44.63878774711746" lon="10.24961564239338"><ele>395.0</ele><time>2026-04-04T13:50:03.001Z</time></trkpt><trkpt lat="44.638836992112104" lon="10.249546794689095"><ele>397.16666666666663</ele><time>2026-04-04T13:50:04.001Z</time></trkpt><trkpt lat="44.638884740442634" lon="10.249477457754375"><ele>399.3333333333333</ele><time>2026-04-04T13:50:05.001Z</time></trkpt><trkpt lat="44.63894466567721" lon="10.249399887426094"><ele>401.5</ele><time>2026-04-04T13:50:06.001Z</time></trkpt><trkpt lat="44.63899850811988" lon="10.249342272353193"><ele>403.66666666666663</ele><time>2026-04-04T13:50:07Z</time></trkpt><trkpt lat="44.63906416739851" lon="10.249270616139004"><ele>405.8333333333333</ele><time>2026-04-04T13:50:08Z</time></trkpt><trkpt lat="44.63913377910199" lon="10.249205266389582"><ele>408.0</ele><time>2026-04-04T13:50:09Z</time></trkpt><trkpt lat="44.63918077556008" lon="10.249139572692316"><ele>408.0</ele><time>2026-04-04T13:50:10Z</time></trkpt><trkpt lat="44.6392268559209" lon="10.24905080700046"><ele>408.0</ele><time>2026-04-04T13:50:11Z</time></trkpt><trkpt lat="44.6392742249591" lon="10.248951962101915"><ele>408.0</ele><time>2026-04-04T13:50:12Z</time></trkpt><trkpt lat="44.639320119608115" lon="10.248880799319958"><ele>408.0</ele><time>2026-04-04T13:50:13Z</time></trkpt><trkpt lat="44.63943883062605" lon="10.248793621855702"><ele>408.0</ele><time>2026-04-04T13:50:15Z</time></trkpt><trkpt lat="44.63952632106165" lon="10.248766669538815"><ele>409.8333333333333</ele><time>2026-04-04T13:50:16Z</time></trkpt><trkpt lat="44.63961207317482" lon="10.248748943844653"><ele>411.66666666666663</ele><time>2026-04-04T13:50:17Z</time></trkpt><trkpt lat="44.639676740536835" lon="10.248747767828993"><ele>413.5</ele><time>2026-04-04T13:50:18Z</time></trkpt><trkpt lat="44.63974542128782" lon="10.248763843048044"><ele>415.3333333333333</ele><time>2026-04-04T13:50:19Z</time></trkpt><trkpt lat="44.63982281624109" lon="10.248794711417187"><ele>417.16666666666663</ele><time>2026-04-04T13:50:20Z</time></trkpt><trkpt lat="44.63989232550658" lon="10.248818388845192"><ele>419.0</ele><time>2026-04-04T13:50:21Z</time></trkpt><trkpt lat="44.639972073097745" lon="10.248823012966454"><ele>418.99999999999994</ele><time>2026-04-04T13:50:22Z</time></trkpt><trkpt lat="44.640052390515635" lon="10.248794723538662"><ele>419.0</ele><time>2026-04-04T13:50:23Z</time></trkpt><trkpt lat="44.640143420247" lon="10.24876580603613"><ele>419.0</ele><time>2026-04-04T13:50:24Z</time></trkpt><trkpt lat="44.64024362828051" lon="10.24873971393852"><ele>419.0</ele><time>2026-04-04T13:50:25Z</time></trkpt><trkpt lat="44.64032940111623" lon="10.248728426869025"><ele>418.99999999999994</ele><time>2026-04-04T13:50:26Z</time></trkpt><trkpt lat="44.64041181289041" lon="10.248728309033993"><ele>419.0</ele><time>2026-04-04T13:50:27Z</time></trkpt><trkpt lat="44.64048041152598" lon="10.24872312926316"><ele>419.49999999999994</ele><time>2026-04-04T13:50:28Z</time></trkpt><trkpt lat="44.64055773930088" lon="10.248692096282886"><ele>420.0</ele><time>2026-04-04T13:50:29Z</time></trkpt><trkpt lat="44.64063958596936" lon="10.248643802414145"><ele>420.5</ele><time>2026-04-04T13:50:30Z</time></trkpt><trkpt lat="44.64070434425062" lon="10.24859537986342"><ele>421.0</ele><time>2026-04-04T13:50:31Z</time></trkpt><trkpt lat="44.640766602751796" lon="10.248517996535643"><ele>421.49999999999994</ele><time>2026-04-04T13:50:32Z</time></trkpt><trkpt lat="44.640815926061826" lon="10.248453166396764"><ele>422.0</ele><time>2026-04-04T13:50:33Z</time></trkpt><trkpt lat="44.64082956188944" lon="10.24833243182668"><ele>422.0</ele><time>2026-04-04T13:50:35Z</time></trkpt><trkpt lat="44.64081378742745" lon="10.24816643441391"><ele>422.0</ele><time>2026-04-04T13:50:37Z</time></trkpt><trkpt lat="44.640779012630524" lon="10.248031958102198"><ele>422.0</ele><time>2026-04-04T13:50:38.001Z</time></trkpt><trkpt lat="44.64073428081104" lon="10.247904007748778"><ele>422.0</ele><time>2026-04-04T13:50:39.001Z</time></trkpt><trkpt lat="44.64069728717702" lon="10.24778379327319"><ele>422.0</ele><time>2026-04-04T13:50:40.001Z</time></trkpt><trkpt lat="44.64067791544438" lon="10.247660604221348"><ele>421.75</ele><time>2026-04-04T13:50:41.001Z</time></trkpt><trkpt lat="44.64065051767963" lon="10.24751638881859"><ele>421.5</ele><time>2026-04-04T13:50:42.001Z</time></trkpt><trkpt lat="44.64060587260921" lon="10.247353571107823"><ele>421.25</ele><time>2026-04-04T13:50:43.001Z</time></trkpt><trkpt lat="44.6405472835735" lon="10.247185025714446"><ele>421.0</ele><time>2026-04-04T13:50:44.001Z</time></trkpt><trkpt lat="44.64047938871042" lon="10.24700575641104"><ele>421.0</ele><time>2026-04-04T13:50:45.001Z</time></trkpt><trkpt lat="44.640410984018715" lon="10.246826049748353"><ele>421.0</ele><time>2026-04-04T13:50:46.001Z</time></trkpt><trkpt lat="44.64034136425601" lon="10.246644516522716"><ele>421.0</ele><time>2026-04-04T13:50:47.001Z</time></trkpt><trkpt lat="44.64027911832841" lon="10.246470152865744"><ele>421.0</ele><time>2026-04-04T13:50:48.001Z</time></trkpt><trkpt lat="44.640234504705695" lon="10.24628283067651"><ele>421.6666666666667</ele><time>2026-04-04T13:50:49.001Z</time></trkpt><trkpt lat="44.64021634095153" lon="10.246077217712513"><ele>422.33333333333337</ele><time>2026-04-04T13:50:50.001Z</time></trkpt><trkpt lat="44.64022182285278" lon="10.245858742338099"><ele>423.0</ele><time>2026-04-04T13:50:51.001Z</time></trkpt><trkpt lat="44.640237733642216" lon="10.245648066060012"><ele>424.0</ele><time>2026-04-04T13:50:52.001Z</time></trkpt><trkpt lat="44.640253721154856" lon="10.245424627279066"><ele>425.0</ele><time>2026-04-04T13:50:53.001Z</time></trkpt><trkpt lat="44.640265760251374" lon="10.245199380451549"><ele>426.0</ele><time>2026-04-04T13:50:54.001Z</time></trkpt><trkpt lat="44.64027849449905" lon="10.244972090272158"><ele>428.0</ele><time>2026-04-04T13:50:55.001Z</time></trkpt><trkpt lat="44.64028669021407" lon="10.244741205907646"><ele>430.0</ele><time>2026-04-04T13:50:56.001Z</time></trkpt><trkpt lat="44.64028864323936" lon="10.244507238170776"><ele>432.0</ele><time>2026-04-04T13:50:57.001Z</time></trkpt><trkpt lat="44.64028073753217" lon="10.244278563789676"><ele>432.0</ele><time>2026-04-04T13:50:58.001Z</time></trkpt><trkpt lat="44.64026560588994" lon="10.244061854692472"><ele>432.0</ele><time>2026-04-04T13:50:59.001Z</time></trkpt><trkpt lat="44.64024587923579" lon="10.243847991430666"><ele>432.0</ele><time>2026-04-04T13:51:00.001Z</time></trkpt><trkpt lat="44.64022471702443" lon="10.24365063454535"><ele>434.0</ele><time>2026-04-04T13:51:01.001Z</time></trkpt><trkpt lat="44.640197032809304" lon="10.243448767761556"><ele>436.0</ele><time>2026-04-04T13:51:02.001Z</time></trkpt><trkpt lat="44.64015205503702" lon="10.243246881458138"><ele>438.0</ele><time>2026-04-04T13:51:03.001Z</time></trkpt><trkpt lat="44.64008942709166" lon="10.243048863674732"><ele>439.75</ele><time>2026-04-04T13:51:04.001Z</time></trkpt><trkpt lat="44.64001652433965" lon="10.242860525354418"><ele>441.5</ele><time>2026-04-04T13:51:05.001Z</time></trkpt><trkpt lat="44.63993738416279" lon="10.242684940726999"><ele>443.25</ele><time>2026-04-04T13:51:06.001Z</time></trkpt><trkpt lat="44.63984767856192" lon="10.242522496223314"><ele>445.0</ele><time>2026-04-04T13:51:07.001Z</time></trkpt><trkpt lat="44.63975252910846" lon="10.242376243708968"><ele>445.75</ele><time>2026-04-04T13:51:08.001Z</time></trkpt><trkpt lat="44.63966338539265" lon="10.242229205673894"><ele>446.5</ele><time>2026-04-04T13:51:09.001Z</time></trkpt><trkpt lat="44.63959737584446" lon="10.24207284239545"><ele>447.25</ele><time>2026-04-04T13:51:10.001Z</time></trkpt><trkpt lat="44.639560358981214" lon="10.241905511280681"><ele>448.0</ele><time>2026-04-04T13:51:11.001Z</time></trkpt><trkpt lat="44.63954254472141" lon="10.241738323811175"><ele>448.0</ele><time>2026-04-04T13:51:12.001Z</time></trkpt><trkpt lat="44.639527393249" lon="10.241596312069218"><ele>447.99999999999994</ele><time>2026-04-04T13:51:13.001Z</time></trkpt><trkpt lat="44.6394988997858" lon="10.241476303075986"><ele>447.99999999999994</ele><time>2026-04-04T13:51:14.001Z</time></trkpt><trkpt lat="44.63944765365707" lon="10.241352573951762"><ele>448.0</ele><time>2026-04-04T13:51:15.001Z</time></trkpt><trkpt lat="44.639368360960376" lon="10.241237646336897"><ele>448.0</ele><time>2026-04-04T13:51:16.001Z</time></trkpt><trkpt lat="44.639264604425634" lon="10.24113044906273"><ele>447.5</ele><time>2026-04-04T13:51:17.001Z</time></trkpt><trkpt lat="44.63915523643394" lon="10.24103050184404"><ele>447.0</ele><time>2026-04-04T13:51:18.001Z</time></trkpt><trkpt lat="44.639048866479015" lon="10.240928200632286"><ele>446.5</ele><time>2026-04-04T13:51:19.001Z</time></trkpt><trkpt lat="44.63894467732522" lon="10.240832656275447"><ele>446.0</ele><time>2026-04-04T13:51:20.001Z</time></trkpt><trkpt lat="44.63883722625364" lon="10.240732068349708"><ele>445.25</ele><time>2026-04-04T13:51:21.001Z</time></trkpt><trkpt lat="44.63873777505011" lon="10.240608191445915"><ele>444.5</ele><time>2026-04-04T13:51:22.001Z</time></trkpt><trkpt lat="44.638645328822214" lon="10.240464585372015"><ele>443.75</ele><time>2026-04-04T13:51:23.001Z</time></trkpt><trkpt lat="44.638552463060165" lon="10.24031038285374"><ele>443.0</ele><time>2026-04-04T13:51:24.001Z</time></trkpt><trkpt lat="44.63846235196117" lon="10.240157644290269"><ele>443.0</ele><time>2026-04-04T13:51:25.001Z</time></trkpt><trkpt lat="44.638360413435166" lon="10.24001013770836"><ele>443.0</ele><time>2026-04-04T13:51:26.001Z</time></trkpt><trkpt lat="44.63824652003699" lon="10.239879105259241"><ele>443.0</ele><time>2026-04-04T13:51:27.001Z</time></trkpt><trkpt lat="44.638122725386566" lon="10.239753063947369"><ele>443.0</ele><time>2026-04-04T13:51:28.001Z</time></trkpt><trkpt lat="44.63800656902321" lon="10.239645467859948"><ele>443.75</ele><time>2026-04-04T13:51:29.001Z</time></trkpt><trkpt lat="44.6378895074052" lon="10.239524198193061"><ele>444.5</ele><time>2026-04-04T13:51:30.001Z</time></trkpt><trkpt lat="44.637781685157876" lon="10.239369022414392"><ele>445.25</ele><time>2026-04-04T13:51:31.001Z</time></trkpt><trkpt lat="44.637692556970585" lon="10.239200833945478"><ele>446.0</ele><time>2026-04-04T13:51:32.001Z</time></trkpt><trkpt lat="44.637607494666405" lon="10.239040943394086"><ele>444.75</ele><time>2026-04-04T13:51:33.001Z</time></trkpt><trkpt lat="44.63752804750738" lon="10.23889447796835"><ele>443.5</ele><time>2026-04-04T13:51:34.001Z</time></trkpt><trkpt lat="44.63745717614556" lon="10.23875761963397"><ele>442.25</ele><time>2026-04-04T13:51:35.001Z</time></trkpt><trkpt lat="44.6373880297273" lon="10.238640952723207"><ele>441.0</ele><time>2026-04-04T13:51:36.001Z</time></trkpt><trkpt lat="44.637298907117376" lon="10.238546612978679"><ele>441.0</ele><time>2026-04-04T13:51:37.001Z</time></trkpt><trkpt lat="44.637183715828954" lon="10.238485344567458"><ele>441.0</ele><time>2026-04-04T13:51:38.001Z</time></trkpt><trkpt lat="44.63707120418899" lon="10.238421742199206"><ele>441.0</ele><time>2026-04-04T13:51:39.001Z</time></trkpt><trkpt lat="44.63697170888582" lon="10.238354143789689"><ele>441.0</ele><time>2026-04-04T13:51:40.001Z</time></trkpt><trkpt lat="44.63687682212322" lon="10.238253721133324"><ele>440.75</ele><time>2026-04-04T13:51:41.001Z</time></trkpt><trkpt lat="44.636779903048456" lon="10.238125968796998"><ele>440.5</ele><time>2026-04-04T13:51:42.001Z</time></trkpt><trkpt lat="44.63665927547977" lon="10.238018195656476"><ele>440.25</ele><time>2026-04-04T13:51:43.001Z</time></trkpt><trkpt lat="44.63651371530838" lon="10.237945253706613"><ele>440.0</ele><time>2026-04-04T13:51:44.001Z</time></trkpt><trkpt lat="44.636361173101875" lon="10.237853519452587"><ele>440.0</ele><time>2026-04-04T13:51:45.001Z</time></trkpt><trkpt lat="44.63623105705475" lon="10.237723471984097"><ele>440.0</ele><time>2026-04-04T13:51:46.001Z</time></trkpt><trkpt lat="44.636121397161276" lon="10.237552343570854"><ele>440.0</ele><time>2026-04-04T13:51:47.001Z</time></trkpt><trkpt lat="44.63601648590467" lon="10.237360438546997"><ele>440.66666666666663</ele><time>2026-04-04T13:51:48.001Z</time></trkpt><trkpt lat="44.63592132664516" lon="10.237166051397736"><ele>441.33333333333337</ele><time>2026-04-04T13:51:49.001Z</time></trkpt><trkpt lat="44.635833355945955" lon="10.236990067363456"><ele>442.0</ele><time>2026-04-04T13:51:50.001Z</time></trkpt><trkpt lat="44.635738241359356" lon="10.236835170992485"><ele>442.0</ele><time>2026-04-04T13:51:51.001Z</time></trkpt><trkpt lat="44.63564168635101" lon="10.236690765539471"><ele>442.00000000000006</ele><time>2026-04-04T13:51:52.001Z</time></trkpt><trkpt lat="44.635553923298644" lon="10.236569330324983"><ele>442.00000000000006</ele><time>2026-04-04T13:51:53.001Z</time></trkpt><trkpt lat="44.63548586191727" lon="10.236484018392805"><ele>442.0</ele><time>2026-04-04T13:51:54.001Z</time></trkpt><trkpt lat="44.63543576410052" lon="10.236429485585306"><ele>442.0</ele><time>2026-04-04T13:51:55.001Z</time></trkpt><trkpt lat="44.6353729262921" lon="10.23636141168021"><ele>443.6</ele><time>2026-04-04T13:51:57.001Z</time></trkpt><trkpt lat="44.63529501105283" lon="10.236276203721419"><ele>445.20000000000005</ele><time>2026-04-04T13:52:00.001Z</time></trkpt><trkpt lat="44.635221843032994" lon="10.236210443322648"><ele>446.8</ele><time>2026-04-04T13:52:01.001Z</time></trkpt><trkpt lat="44.6351466618204" lon="10.236144850603068"><ele>448.4</ele><time>2026-04-04T13:52:02.001Z</time></trkpt><trkpt lat="44.63506286275074" lon="10.236065807498695"><ele>450.0</ele><time>2026-04-04T13:52:03.001Z</time></trkpt><trkpt lat="44.63498959723882" lon="10.235967674664217"><ele>450.0</ele><time>2026-04-04T13:52:04.001Z</time></trkpt><trkpt lat="44.634942522635875" lon="10.235856841875"><ele>450.0</ele><time>2026-04-04T13:52:05.001Z</time></trkpt><trkpt lat="44.63490906818628" lon="10.235725791479133"><ele>450.0</ele><time>2026-04-04T13:52:06.001Z</time></trkpt><trkpt lat="44.63487011183242" lon="10.235595408120362"><ele>450.0</ele><time>2026-04-04T13:52:07.001Z</time></trkpt><trkpt lat="44.6348173664917" lon="10.235443866960766"><ele>450.0</ele><time>2026-04-04T13:52:08.001Z</time></trkpt><trkpt lat="44.63474836336525" lon="10.235297758793452"><ele>450.5</ele><time>2026-04-04T13:52:09.001Z</time></trkpt><trkpt lat="44.63467636332324" lon="10.235150656332358"><ele>451.0</ele><time>2026-04-04T13:52:10.001Z</time></trkpt><trkpt lat="44.63461308324834" lon="10.235013118345675"><ele>451.5</ele><time>2026-04-04T13:52:11.001Z</time></trkpt><trkpt lat="44.63454503385129" lon="10.234894306202275"><ele>452.0</ele><time>2026-04-04T13:52:12Z</time></trkpt><trkpt lat="44.634460841722294" lon="10.234793168483206"><ele>453.0</ele><time>2026-04-04T13:52:13Z</time></trkpt><trkpt lat="44.63436678420972" lon="10.234700867347803"><ele>454.0</ele><time>2026-04-04T13:52:14Z</time></trkpt><trkpt lat="44.63426317665284" lon="10.23461638213267"><ele>455.0</ele><time>2026-04-04T13:52:15Z</time></trkpt><trkpt lat="44.634155140054695" lon="10.234547846068457"><ele>456.0</ele><time>2026-04-04T13:52:16Z</time></trkpt><trkpt lat="44.63403666230505" lon="10.234507767884004"><ele>456.0</ele><time>2026-04-04T13:52:17Z</time></trkpt><trkpt lat="44.63391403217347" lon="10.234505379848725"><ele>456.0</ele><time>2026-04-04T13:52:18Z</time></trkpt><trkpt lat="44.63378723772143" lon="10.234538197328563"><ele>456.0</ele><time>2026-04-04T13:52:19Z</time></trkpt><trkpt lat="44.63366506878454" lon="10.23459877066738"><ele>456.0</ele><time>2026-04-04T13:52:20Z</time></trkpt><trkpt lat="44.63354839192702" lon="10.234673823413612"><ele>458.5</ele><time>2026-04-04T13:52:21Z</time></trkpt><trkpt lat="44.63344021289877" lon="10.234731775402581"><ele>461.0</ele><time>2026-04-04T13:52:22Z</time></trkpt><trkpt lat="44.63333171418709" lon="10.234757442424653"><ele>463.5</ele><time>2026-04-04T13:52:23Z</time></trkpt><trkpt lat="44.63322512542795" lon="10.23473684206281"><ele>466.0</ele><time>2026-04-04T13:52:24Z</time></trkpt><trkpt lat="44.63311374119891" lon="10.23468307192843"><ele>466.0</ele><time>2026-04-04T13:52:25Z</time></trkpt><trkpt lat="44.633000030008255" lon="10.234621704706546"><ele>466.0</ele><time>2026-04-04T13:52:26Z</time></trkpt><trkpt lat="44.632879445947374" lon="10.234568081237065"><ele>466.0</ele><time>2026-04-04T13:52:27Z</time></trkpt><trkpt lat="44.63275768232664" lon="10.234514409076619"><ele>466.0</ele><time>2026-04-04T13:52:28Z</time></trkpt><trkpt lat="44.63264053232724" lon="10.234458195748498"><ele>469.25</ele><time>2026-04-04T13:52:29Z</time></trkpt><trkpt lat="44.632530321244616" lon="10.234390903188343"><ele>472.5</ele><time>2026-04-04T13:52:30Z</time></trkpt><trkpt lat="44.63242350479113" lon="10.234307846645208"><ele>475.75</ele><time>2026-04-04T13:52:31Z</time></trkpt><trkpt lat="44.63231311216326" lon="10.234210829745777"><ele>479.0</ele><time>2026-04-04T13:52:32Z</time></trkpt><trkpt lat="44.632203290113075" lon="10.23410022619017"><ele>479.0</ele><time>2026-04-04T13:52:33Z</time></trkpt><trkpt lat="44.63209000395913" lon="10.23398333661445"><ele>479.0</ele><time>2026-04-04T13:52:34Z</time></trkpt><trkpt lat="44.63196799740826" lon="10.233860364902014"><ele>479.0</ele><time>2026-04-04T13:52:35Z</time></trkpt><trkpt lat="44.63184663108839" lon="10.233739136543496"><ele>479.0</ele><time>2026-04-04T13:52:36Z</time></trkpt><trkpt lat="44.63172647542967" lon="10.233619499813209"><ele>482.75</ele><time>2026-04-04T13:52:37Z</time></trkpt><trkpt lat="44.63160315778823" lon="10.233499955032162"><ele>486.5</ele><time>2026-04-04T13:52:38Z</time></trkpt><trkpt lat="44.63149248250452" lon="10.23339276716321"><ele>490.25</ele><time>2026-04-04T13:52:39Z</time></trkpt><trkpt lat="44.6313956852701" lon="10.233298080263872"><ele>494.0</ele><time>2026-04-04T13:52:40Z</time></trkpt><trkpt lat="44.63129749843677" lon="10.233199041771162"><ele>494.0</ele><time>2026-04-04T13:52:41Z</time></trkpt><trkpt lat="44.63119481590692" lon="10.233086742247963"><ele>494.0</ele><time>2026-04-04T13:52:42Z</time></trkpt><trkpt lat="44.631084397273476" lon="10.232969874645775"><ele>494.0</ele><time>2026-04-04T13:52:43Z</time></trkpt><trkpt lat="44.63096484953422" lon="10.232854002779495"><ele>494.0</ele><time>2026-04-04T13:52:44Z</time></trkpt><trkpt lat="44.630844830081074" lon="10.232730232515236"><ele>497.75</ele><time>2026-04-04T13:52:45Z</time></trkpt><trkpt lat="44.6307274727283" lon="10.232603975511456"><ele>501.5</ele><time>2026-04-04T13:52:46.001Z</time></trkpt><trkpt lat="44.63061339606778" lon="10.232476862492254"><ele>505.25</ele><time>2026-04-04T13:52:47.001Z</time></trkpt><trkpt lat="44.63050604523013" lon="10.232356527032403"><ele>509.0</ele><time>2026-04-04T13:52:48.001Z</time></trkpt><trkpt lat="44.63042029270095" lon="10.232248990080452"><ele>509.0</ele><time>2026-04-04T13:52:49.001Z</time></trkpt><trkpt lat="44.63034571153754" lon="10.232142611645212"><ele>509.0</ele><time>2026-04-04T13:52:50.001Z</time></trkpt><trkpt lat="44.63028104047075" lon="10.232031323946176"><ele>509.0</ele><time>2026-04-04T13:52:51.001Z</time></trkpt><trkpt lat="44.63022287977107" lon="10.231918246623264"><ele>509.0</ele><time>2026-04-04T13:52:52.001Z</time></trkpt><trkpt lat="44.63017473939123" lon="10.231831323895777"><ele>509.0</ele><time>2026-04-04T13:52:53.001Z</time></trkpt><trkpt lat="44.63013180166645" lon="10.23175830343577"><ele>511.79999999999995</ele><time>2026-04-04T13:52:54.001Z</time></trkpt><trkpt lat="44.63007880208807" lon="10.231683193166267"><ele>514.5999999999999</ele><time>2026-04-04T13:52:56.001Z</time></trkpt><trkpt lat="44.63000160792796" lon="10.231596996176807"><ele>517.4</ele><time>2026-04-04T13:52:59.001Z</time></trkpt><trkpt lat="44.629919373802935" lon="10.23162406504312"><ele>520.1999999999999</ele><time>2026-04-04T13:53:01.001Z</time></trkpt><trkpt lat="44.629846607138035" lon="10.231716008193779"><ele>523.0</ele><time>2026-04-04T13:53:03.001Z</time></trkpt><trkpt lat="44.62976920641126" lon="10.231875096142092"><ele>523.0</ele><time>2026-04-04T13:53:05.001Z</time></trkpt><trkpt lat="44.62970824705102" lon="10.231975964320355"><ele>523.0</ele><time>2026-04-04T13:53:06.001Z</time></trkpt><trkpt lat="44.62965009606311" lon="10.232064284004782"><ele>523.0</ele><time>2026-04-04T13:53:07.001Z</time></trkpt><trkpt lat="44.62959297255509" lon="10.232162494113018"><ele>523.0</ele><time>2026-04-04T13:53:08.001Z</time></trkpt><trkpt lat="44.62954003063618" lon="10.232246853682259"><ele>523.0</ele><time>2026-04-04T13:53:09.001Z</time></trkpt><trkpt lat="44.62948194626142" lon="10.232335846294804"><ele>523.0</ele><time>2026-04-04T13:53:10.001Z</time></trkpt><trkpt lat="44.62942152209592" lon="10.23244144278464"><ele>527.0</ele><time>2026-04-04T13:53:11.001Z</time></trkpt><trkpt lat="44.62937672926604" lon="10.232538412575094"><ele>531.0</ele><time>2026-04-04T13:53:12.001Z</time></trkpt><trkpt lat="44.62932608413651" lon="10.232629593599995"><ele>535.0</ele><time>2026-04-04T13:53:13.001Z</time></trkpt><trkpt lat="44.62928369254848" lon="10.232706468025178"><ele>539.0</ele><time>2026-04-04T13:53:14.001Z</time></trkpt><trkpt lat="44.629222026774805" lon="10.232789769720048"><ele>543.0</ele><time>2026-04-04T13:53:15.001Z</time></trkpt><trkpt lat="44.629155827059684" lon="10.232852220643188"><ele>547.0</ele><time>2026-04-04T13:53:16.001Z</time></trkpt><trkpt lat="44.629090547734215" lon="10.232906543695249"><ele>547.0</ele><time>2026-04-04T13:53:17.001Z</time></trkpt><trkpt lat="44.629022361290346" lon="10.232970699613302"><ele>547.0</ele><time>2026-04-04T13:53:18.001Z</time></trkpt><trkpt lat="44.62894696181754" lon="10.233037346580184"><ele>547.0</ele><time>2026-04-04T13:53:19.001Z</time></trkpt><trkpt lat="44.628869315553764" lon="10.233101400088335"><ele>547.0</ele><time>2026-04-04T13:53:20.001Z</time></trkpt><trkpt lat="44.628797417139694" lon="10.233158579551285"><ele>547.0</ele><time>2026-04-04T13:53:21.001Z</time></trkpt><trkpt lat="44.628725106450766" lon="10.233224846703626"><ele>547.0</ele><time>2026-04-04T13:53:22.001Z</time></trkpt><trkpt lat="44.62865937199402" lon="10.233299208176186"><ele>550.1666666666667</ele><time>2026-04-04T13:53:23.001Z</time></trkpt><trkpt lat="44.62860146202564" lon="10.233379020065854"><ele>553.3333333333334</ele><time>2026-04-04T13:53:24.001Z</time></trkpt><trkpt lat="44.62852990156929" lon="10.233473276241257"><ele>556.5</ele><time>2026-04-04T13:53:25.001Z</time></trkpt><trkpt lat="44.628454645135754" lon="10.233571649266281"><ele>559.6666666666666</ele><time>2026-04-04T13:53:26.001Z</time></trkpt><trkpt lat="44.62839166077234" lon="10.233666886713625"><ele>562.8333333333333</ele><time>2026-04-04T13:53:27.001Z</time></trkpt><trkpt lat="44.628342350147015" lon="10.233735821432806"><ele>566.0</ele><time>2026-04-04T13:53:28.001Z</time></trkpt><trkpt lat="44.62828563976687" lon="10.23380338533852"><ele>566.0</ele><time>2026-04-04T13:53:29.001Z</time></trkpt><trkpt lat="44.62822339143979" lon="10.233854737356122"><ele>566.0</ele><time>2026-04-04T13:53:30.001Z</time></trkpt><trkpt lat="44.62815026165831" lon="10.233874509449738"><ele>566.0</ele><time>2026-04-04T13:53:31.001Z</time></trkpt><trkpt lat="44.628062919510675" lon="10.233887405775649"><ele>566.0</ele><time>2026-04-04T13:53:32.001Z</time></trkpt><trkpt lat="44.62796046708494" lon="10.233912865127351"><ele>566.0</ele><time>2026-04-04T13:53:33.001Z</time></trkpt><trkpt lat="44.62785483831231" lon="10.233951719025487"><ele>566.0</ele><time>2026-04-04T13:53:34.001Z</time></trkpt><trkpt lat="44.627746930078466" lon="10.233987882028655"><ele>565.8</ele><time>2026-04-04T13:53:35.001Z</time></trkpt><trkpt lat="44.62763841972351" lon="10.234026534764768"><ele>565.6</ele><time>2026-04-04T13:53:36.001Z</time></trkpt><trkpt lat="44.6275365915342" lon="10.234047717952254"><ele>565.4</ele><time>2026-04-04T13:53:37.001Z</time></trkpt><trkpt lat="44.62745507499371" lon="10.234061510941455"><ele>565.2</ele><time>2026-04-04T13:53:38.001Z</time></trkpt><trkpt lat="44.627380838019675" lon="10.234109062888008"><ele>565.0</ele><time>2026-04-04T13:53:39.001Z</time></trkpt><trkpt lat="44.62730846734721" lon="10.234178473224517"><ele>565.0</ele><time>2026-04-04T13:53:40.001Z</time></trkpt><trkpt lat="44.627245109216524" lon="10.234245765561376"><ele>565.0</ele><time>2026-04-04T13:53:41.001Z</time></trkpt><trkpt lat="44.627165084069404" lon="10.234307977575407"><ele>565.0</ele><time>2026-04-04T13:53:42.001Z</time></trkpt><trkpt lat="44.62708396255879" lon="10.234343915996623"><ele>565.0</ele><time>2026-04-04T13:53:43.001Z</time></trkpt><trkpt lat="44.626993478548044" lon="10.234358625792039"><ele>565.0</ele><time>2026-04-04T13:53:44.001Z</time></trkpt><trkpt lat="44.62692283975121" lon="10.234353615710857"><ele>565.0</ele><time>2026-04-04T13:53:45.001Z</time></trkpt><trkpt lat="44.626841147359976" lon="10.234343451217498"><ele>565.0</ele><time>2026-04-04T13:53:46.001Z</time></trkpt><trkpt lat="44.62676012564393" lon="10.234317330269148"><ele>565.0</ele><time>2026-04-04T13:53:47.001Z</time></trkpt><trkpt lat="44.626663748929424" lon="10.234281313956268"><ele>565.0</ele><time>2026-04-04T13:53:48.001Z</time></trkpt><trkpt lat="44.62656813926345" lon="10.23426764980499"><ele>565.0</ele><time>2026-04-04T13:53:49.001Z</time></trkpt><trkpt lat="44.62645981128098" lon="10.234270818367376"><ele>565.0</ele><time>2026-04-04T13:53:50.001Z</time></trkpt><trkpt lat="44.62635576489918" lon="10.234273706793118"><ele>565.0</ele><time>2026-04-04T13:53:51.001Z</time></trkpt><trkpt lat="44.626258100642495" lon="10.23426371499077"><ele>565.0</ele><time>2026-04-04T13:53:52.001Z</time></trkpt><trkpt lat="44.62616085128499" lon="10.234232465272822"><ele>565.0</ele><time>2026-04-04T13:53:53.001Z</time></trkpt><trkpt lat="44.62606620856693" lon="10.234200865657161"><ele>565.0</ele><time>2026-04-04T13:53:54.001Z</time></trkpt><trkpt lat="44.62598169794744" lon="10.234152435068298"><ele>565.0</ele><time>2026-04-04T13:53:55.001Z</time></trkpt><trkpt lat="44.6258922075589" lon="10.234109799456322"><ele>565.0</ele><time>2026-04-04T13:53:56.001Z</time></trkpt><trkpt lat="44.62579835049684" lon="10.234105216647146"><ele>565.0</ele><time>2026-04-04T13:53:57.001Z</time></trkpt><trkpt lat="44.625699957781826" lon="10.234112625440261"><ele>565.0</ele><time>2026-04-04T13:53:58.001Z</time></trkpt><trkpt lat="44.625600512755305" lon="10.234089793919079"><ele>565.0</ele><time>2026-04-04T13:53:59.001Z</time></trkpt><trkpt lat="44.625515960446194" lon="10.234054576896455"><ele>565.0</ele><time>2026-04-04T13:54:00.001Z</time></trkpt><trkpt lat="44.625433005940195" lon="10.234006260573254"><ele>566.0</ele><time>2026-04-04T13:54:01.001Z</time></trkpt><trkpt lat="44.6253560804587" lon="10.23395501373236"><ele>567.0</ele><time>2026-04-04T13:54:02.001Z</time></trkpt><trkpt lat="44.625284647454954" lon="10.233902920358462"><ele>568.0</ele><time>2026-04-04T13:54:03.001Z</time></trkpt><trkpt lat="44.625246923483424" lon="10.233788159284426"><ele>569.0</ele><time>2026-04-04T13:54:05.001Z</time></trkpt><trkpt lat="44.625197660441486" lon="10.233710020836645"><ele>570.0</ele><time>2026-04-04T13:54:06.001Z</time></trkpt><trkpt lat="44.625139471301864" lon="10.233628219526361"><ele>571.0</ele><time>2026-04-04T13:54:07.001Z</time></trkpt><trkpt lat="44.625064542934794" lon="10.233548819702055"><ele>571.0</ele><time>2026-04-04T13:54:08.001Z</time></trkpt><trkpt lat="44.624977024821824" lon="10.233486478884119"><ele>571.0</ele><time>2026-04-04T13:54:09.001Z</time></trkpt><trkpt lat="44.62488794136159" lon="10.233423744592095"><ele>571.0</ele><time>2026-04-04T13:54:10.001Z</time></trkpt><trkpt lat="44.624801350947905" lon="10.23334146884133"><ele>571.0</ele><time>2026-04-04T13:54:11.001Z</time></trkpt><trkpt lat="44.62471272706208" lon="10.233261825850429"><ele>571.0</ele><time>2026-04-04T13:54:12.001Z</time></trkpt><trkpt lat="44.624607699686514" lon="10.233201367654486"><ele>571.0</ele><time>2026-04-04T13:54:13.001Z</time></trkpt><trkpt lat="44.62450199480424" lon="10.233148465835564"><ele>571.0</ele><time>2026-04-04T13:54:14.001Z</time></trkpt><trkpt lat="44.6244063687499" lon="10.23309132152126"><ele>571.0</ele><time>2026-04-04T13:54:15.001Z</time></trkpt><trkpt lat="44.624322748447256" lon="10.233038069312402"><ele>571.0</ele><time>2026-04-04T13:54:16.001Z</time></trkpt><trkpt lat="44.62425640408497" lon="10.232989594002733"><ele>571.0</ele><time>2026-04-04T13:54:17.001Z</time></trkpt><trkpt lat="44.624202949180045" lon="10.232934552577408"><ele>571.0</ele><time>2026-04-04T13:54:18.001Z</time></trkpt><trkpt lat="44.62415124845008" lon="10.232867292631788"><ele>570.5</ele><time>2026-04-04T13:54:19.001Z</time></trkpt><trkpt lat="44.624058513253374" lon="10.232789738032055"><ele>570.0</ele><time>2026-04-04T13:54:21.001Z</time></trkpt><trkpt lat="44.62396421925155" lon="10.232760721849035"><ele>569.5</ele><time>2026-04-04T13:54:23.001Z</time></trkpt><trkpt lat="44.62389033538619" lon="10.232694738515182"><ele>569.0</ele><time>2026-04-04T13:54:25.001Z</time></trkpt><trkpt lat="44.62382152594538" lon="10.232665456822897"><ele>568.5</ele><time>2026-04-04T13:54:27.001Z</time></trkpt><trkpt lat="44.62374048086623" lon="10.232674756248956"><ele>568.0</ele><time>2026-04-04T13:54:29.001Z</time></trkpt><trkpt lat="44.62360409713938" lon="10.232737742519056"><ele>568.0</ele><time>2026-04-04T13:54:31Z</time></trkpt><trkpt lat="44.62353442849952" lon="10.23277775413165"><ele>568.0</ele><time>2026-04-04T13:54:32Z</time></trkpt><trkpt lat="44.62345460865446" lon="10.23280559586059"><ele>568.0</ele><time>2026-04-04T13:54:33Z</time></trkpt><trkpt lat="44.62338241049731" lon="10.23281467233528"><ele>568.0</ele><time>2026-04-04T13:54:34Z</time></trkpt><trkpt lat="44.62330304455777" lon="10.232834515662395"><ele>568.0</ele><time>2026-04-04T13:54:35Z</time></trkpt><trkpt lat="44.6232177129144" lon="10.232853375914287"><ele>568.0</ele><time>2026-04-04T13:54:36Z</time></trkpt><trkpt lat="44.623141812445404" lon="10.232860563948202"><ele>568.0</ele><time>2026-04-04T13:54:37Z</time></trkpt><trkpt lat="44.623065869862515" lon="10.232845466069554"><ele>568.0</ele><time>2026-04-04T13:54:38Z</time></trkpt><trkpt lat="44.622993791744456" lon="10.232831707528854"><ele>568.0</ele><time>2026-04-04T13:54:39Z</time></trkpt><trkpt lat="44.62290761087222" lon="10.232808946196148"><ele>568.0</ele><time>2026-04-04T13:54:40Z</time></trkpt><trkpt lat="44.622832302467934" lon="10.23281009817763"><ele>568.0</ele><time>2026-04-04T13:54:41Z</time></trkpt><trkpt lat="44.622763028222444" lon="10.232823698831911"><ele>568.0</ele><time>2026-04-04T13:54:42Z</time></trkpt><trkpt lat="44.622695070421834" lon="10.232828031692064"><ele>566.5</ele><time>2026-04-04T13:54:43Z</time></trkpt><trkpt lat="44.62261869949372" lon="10.232818087765198"><ele>565.0</ele><time>2026-04-04T13:54:45Z</time></trkpt><trkpt lat="44.62253779417811" lon="10.23283537510932"><ele>563.5</ele><time>2026-04-04T13:54:46Z</time></trkpt><trkpt lat="44.62245461330791" lon="10.232821668928896"><ele>562.0</ele><time>2026-04-04T13:54:47Z</time></trkpt><trkpt lat="44.62239041730549" lon="10.232797121437725"><ele>560.5</ele><time>2026-04-04T13:54:48Z</time></trkpt><trkpt lat="44.62231944762226" lon="10.232763452863612"><ele>559.0</ele><time>2026-04-04T13:54:49Z</time></trkpt><trkpt lat="44.622253414990446" lon="10.232694709677862"><ele>559.0</ele><time>2026-04-04T13:54:50Z</time></trkpt><trkpt lat="44.6221863500436" lon="10.232605714034046"><ele>559.0</ele><time>2026-04-04T13:54:51Z</time></trkpt><trkpt lat="44.62211905665091" lon="10.23252615832807"><ele>559.0</ele><time>2026-04-04T13:54:52Z</time></trkpt><trkpt lat="44.6220341970579" lon="10.23245776189825"><ele>559.0</ele><time>2026-04-04T13:54:53Z</time></trkpt><trkpt lat="44.62193589474623" lon="10.23240848839038"><ele>559.0</ele><time>2026-04-04T13:54:54Z</time></trkpt><trkpt lat="44.62182740677179" lon="10.232367307771293"><ele>559.8333333333334</ele><time>2026-04-04T13:54:55Z</time></trkpt><trkpt lat="44.621741064249726" lon="10.23232255719984"><ele>560.6666666666667</ele><time>2026-04-04T13:54:56Z</time></trkpt><trkpt lat="44.62166019375067" lon="10.23227679487621"><ele>561.5</ele><time>2026-04-04T13:54:57Z</time></trkpt><trkpt lat="44.62159114541484" lon="10.232229498735782"><ele>562.3333333333334</ele><time>2026-04-04T13:54:58Z</time></trkpt><trkpt lat="44.62152435902444" lon="10.23216493026229"><ele>563.1666666666666</ele><time>2026-04-04T13:54:59Z</time></trkpt><trkpt lat="44.62145511490263" lon="10.232112788280155"><ele>564.0</ele><time>2026-04-04T13:55:00Z</time></trkpt><trkpt lat="44.62137714218873" lon="10.23208179281952"><ele>564.0</ele><time>2026-04-04T13:55:01Z</time></trkpt><trkpt lat="44.62128269999748" lon="10.232054738993083"><ele>564.0</ele><time>2026-04-04T13:55:02Z</time></trkpt><trkpt lat="44.62118459261569" lon="10.232025587302152"><ele>564.0</ele><time>2026-04-04T13:55:03Z</time></trkpt><trkpt lat="44.621106999194005" lon="10.23199584673869"><ele>564.0</ele><time>2026-04-04T13:55:04Z</time></trkpt><trkpt lat="44.62104512933179" lon="10.231957950601334"><ele>564.0</ele><time>2026-04-04T13:55:05Z</time></trkpt><trkpt lat="44.62097524640852" lon="10.231886920764296"><ele>564.0</ele><time>2026-04-04T13:55:06Z</time></trkpt><trkpt lat="44.62089580946871" lon="10.231824296040699"><ele>564.3333333333334</ele><time>2026-04-04T13:55:07Z</time></trkpt><trkpt lat="44.62081205184418" lon="10.231756976909114"><ele>564.6666666666666</ele><time>2026-04-04T13:55:08Z</time></trkpt><trkpt lat="44.62074635546689" lon="10.231697769909061"><ele>565.0</ele><time>2026-04-04T13:55:09Z</time></trkpt><trkpt lat="44.62067628833935" lon="10.231635244697609"><ele>565.3333333333333</ele><time>2026-04-04T13:55:10Z</time></trkpt><trkpt lat="44.62061388622509" lon="10.231584894476065"><ele>565.6666666666666</ele><time>2026-04-04T13:55:11Z</time></trkpt><trkpt lat="44.62051285173972" lon="10.23149467735799"><ele>566.0</ele><time>2026-04-04T13:55:13Z</time></trkpt><trkpt lat="44.62043333690748" lon="10.231402142248122"><ele>566.0</ele><time>2026-04-04T13:55:15Z</time></trkpt><trkpt lat="44.62033854853388" lon="10.231324892420112"><ele>566.0</ele><time>2026-04-04T13:55:17Z</time></trkpt><trkpt lat="44.62028065990812" lon="10.231188977484463"><ele>566.0</ele><time>2026-04-04T13:55:19Z</time></trkpt><trkpt lat="44.6202584561605" lon="10.231089743790479"><ele>566.0</ele><time>2026-04-04T13:55:20Z</time></trkpt><trkpt lat="44.62022818638977" lon="10.231007439022282"><ele>566.0</ele><time>2026-04-04T13:55:21Z</time></trkpt><trkpt lat="44.62015718614312" lon="10.230880631678149"><ele>562.0</ele><time>2026-04-04T13:55:23Z</time></trkpt><trkpt lat="44.62011727970827" lon="10.230753644124496"><ele>558.0</ele><time>2026-04-04T13:55:25Z</time></trkpt><trkpt lat="44.62010809332898" lon="10.230566081354244"><ele>554.0</ele><time>2026-04-04T13:55:27Z</time></trkpt><trkpt lat="44.62008985938665" lon="10.23045850885165"><ele>550.0</ele><time>2026-04-04T13:55:28Z</time></trkpt><trkpt lat="44.620049850613526" lon="10.230337852104963"><ele>546.0</ele><time>2026-04-04T13:55:30Z</time></trkpt><trkpt lat="44.61998591873605" lon="10.23024220126254"><ele>546.0</ele><time>2026-04-04T13:55:32Z</time></trkpt><trkpt lat="44.61993134639418" lon="10.230145311483007"><ele>546.0</ele><time>2026-04-04T13:55:34Z</time></trkpt><trkpt lat="44.61989227276351" lon="10.230045047223479"><ele>546.0</ele><time>2026-04-04T13:55:51Z</time></trkpt><trkpt lat="44.61986321200861" lon="10.229950191405145"><ele>546.0</ele><time>2026-04-04T13:55:55Z</time></trkpt><trkpt lat="44.61978296712379" lon="10.229895851544"><ele>546.0</ele><time>2026-04-04T13:55:59Z</time></trkpt><trkpt lat="44.61968975510702" lon="10.229954831503761"><ele>546.0</ele><time>2026-04-04T13:56:02Z</time></trkpt><trkpt lat="44.619635334941194" lon="10.230049028781586"><ele>546.0</ele><time>2026-04-04T13:56:04Z</time></trkpt><trkpt lat="44.619599154219" lon="10.230130328431928"><ele>546.0</ele><time>2026-04-04T13:56:06Z</time></trkpt><trkpt lat="44.61953444056156" lon="10.23025074150518"><ele>546.0</ele><time>2026-04-04T13:56:08Z</time></trkpt><trkpt lat="44.61947688514496" lon="10.230332730155567"><ele>546.0</ele><time>2026-04-04T13:56:10Z</time></trkpt><trkpt lat="44.619433326754006" lon="10.230436232078667"><ele>546.0</ele><time>2026-04-04T13:56:12Z</time></trkpt><trkpt lat="44.61938478777024" lon="10.230616430572006"><ele>545.5</ele><time>2026-04-04T13:56:14Z</time></trkpt><trkpt lat="44.61935997197857" lon="10.230717837209669"><ele>545.0</ele><time>2026-04-04T13:56:15Z</time></trkpt><trkpt lat="44.619332525391805" lon="10.230812396927725"><ele>544.5</ele><time>2026-04-04T13:56:16Z</time></trkpt><trkpt lat="44.61929249322911" lon="10.230886721833608"><ele>544.0</ele><time>2026-04-04T13:56:17Z</time></trkpt><trkpt lat="44.6192293965332" lon="10.230966563330638"><ele>543.5</ele><time>2026-04-04T13:56:18Z</time></trkpt><trkpt lat="44.61917065984854" lon="10.231029403669814"><ele>543.0</ele><time>2026-04-04T13:56:19Z</time></trkpt><trkpt lat="44.619100769437054" lon="10.231092861217878"><ele>543.0</ele><time>2026-04-04T13:56:20Z</time></trkpt><trkpt lat="44.619046299277784" lon="10.231169826140345"><ele>543.0</ele><time>2026-04-04T13:56:21Z</time></trkpt><trkpt lat="44.61901471114794" lon="10.23124898803325"><ele>543.0</ele><time>2026-04-04T13:56:22Z</time></trkpt><trkpt lat="44.61892420416252" lon="10.231351439878846"><ele>543.0</ele><time>2026-04-04T13:56:24Z</time></trkpt><trkpt lat="44.61886162632571" lon="10.231367598675742"><ele>543.0</ele><time>2026-04-04T13:56:25Z</time></trkpt><trkpt lat="44.61879368916926" lon="10.231358232018907"><ele>543.0</ele><time>2026-04-04T13:56:26Z</time></trkpt><trkpt lat="44.61872571650726" lon="10.231326345486739"><ele>543.0</ele><time>2026-04-04T13:56:27Z</time></trkpt><trkpt lat="44.61866132800797" lon="10.231282058387109"><ele>543.0</ele><time>2026-04-04T13:56:28Z</time></trkpt><trkpt lat="44.61856142664459" lon="10.231170914566574"><ele>543.0</ele><time>2026-04-04T13:56:30Z</time></trkpt><trkpt lat="44.61846578707205" lon="10.231143714428658"><ele>543.0</ele><time>2026-04-04T13:56:32Z</time></trkpt><trkpt lat="44.61840319239553" lon="10.23124243447657"><ele>543.0</ele><time>2026-04-04T13:56:34Z</time></trkpt><trkpt lat="44.61846320672718" lon="10.231392660971734"><ele>547.0</ele><time>2026-04-04T13:56:36Z</time></trkpt><trkpt lat="44.61850435397468" lon="10.23147652995369"><ele>551.0</ele><time>2026-04-04T13:56:37Z</time></trkpt><trkpt lat="44.618556867307" lon="10.2315537032783"><ele>555.0</ele><time>2026-04-04T13:56:38Z</time></trkpt><trkpt lat="44.61859852911424" lon="10.231625449507115"><ele>559.0</ele><time>2026-04-04T13:56:39Z</time></trkpt><trkpt lat="44.61863300941465" lon="10.231735337442192"><ele>563.0</ele><time>2026-04-04T13:56:41Z</time></trkpt><trkpt lat="44.61861740492427" lon="10.23182116507651"><ele>567.0</ele><time>2026-04-04T13:56:42Z</time></trkpt><trkpt lat="44.61852536995269" lon="10.231925869166577"><ele>567.0</ele><time>2026-04-04T13:56:44Z</time></trkpt><trkpt lat="44.61840729724839" lon="10.231975273088608"><ele>567.0</ele><time>2026-04-04T13:56:46Z</time></trkpt><trkpt lat="44.61834091265344" lon="10.231960765429648"><ele>567.0</ele><time>2026-04-04T13:56:47Z</time></trkpt><trkpt lat="44.618271974984545" lon="10.231911720411183"><ele>567.0</ele><time>2026-04-04T13:56:48Z</time></trkpt><trkpt lat="44.61820970724674" lon="10.23184671852785"><ele>567.0</ele><time>2026-04-04T13:56:49Z</time></trkpt><trkpt lat="44.618155805853384" lon="10.231782990970215"><ele>567.0</ele><time>2026-04-04T13:56:51Z</time></trkpt><trkpt lat="44.618088970502164" lon="10.231767937329156"><ele>567.0</ele><time>2026-04-04T13:56:52Z</time></trkpt><trkpt lat="44.61802555890157" lon="10.231738361171955"><ele>567.0</ele><time>2026-04-04T13:56:53Z</time></trkpt><trkpt lat="44.61789651934785" lon="10.231745225043545"><ele>567.0</ele><time>2026-04-04T13:56:55Z</time></trkpt><trkpt lat="44.617799035985406" lon="10.231773703183599"><ele>567.0</ele><time>2026-04-04T13:56:56Z</time></trkpt><trkpt lat="44.61771059354561" lon="10.23180863902721"><ele>567.0</ele><time>2026-04-04T13:56:57Z</time></trkpt><trkpt lat="44.617646731874466" lon="10.231853284598879"><ele>570.8000000000001</ele><time>2026-04-04T13:56:58Z</time></trkpt><trkpt lat="44.61752196803447" lon="10.231934466762727"><ele>574.6</ele><time>2026-04-04T13:57:00Z</time></trkpt><trkpt lat="44.617452909619324" lon="10.231965774993878"><ele>578.4000000000001</ele><time>2026-04-04T13:57:01Z</time></trkpt><trkpt lat="44.617391433966134" lon="10.232016912829838"><ele>582.2</ele><time>2026-04-04T13:57:02Z</time></trkpt><trkpt lat="44.61732944472573" lon="10.232055752954663"><ele>586.0</ele><time>2026-04-04T13:57:03Z</time></trkpt><trkpt lat="44.61723172481973" lon="10.232113464648718"><ele>585.9999999999999</ele><time>2026-04-04T13:57:05Z</time></trkpt><trkpt lat="44.617169225753635" lon="10.232158397810492"><ele>586.0</ele><time>2026-04-04T13:57:06Z</time></trkpt><trkpt lat="44.61709564040282" lon="10.232185360732768"><ele>586.0</ele><time>2026-04-04T13:57:07Z</time></trkpt><trkpt lat="44.617013703059804" lon="10.232195875510886"><ele>586.0</ele><time>2026-04-04T13:57:08Z</time></trkpt><trkpt lat="44.61694145912313" lon="10.232201560816963"><ele>586.0</ele><time>2026-04-04T13:57:09Z</time></trkpt><trkpt lat="44.61687435031501" lon="10.232198410270836"><ele>585.9999999999999</ele><time>2026-04-04T13:57:10Z</time></trkpt><trkpt lat="44.6168107584551" lon="10.232189430380794"><ele>586.0</ele><time>2026-04-04T13:57:11Z</time></trkpt><trkpt lat="44.61670981669252" lon="10.232153771753927"><ele>583.25</ele><time>2026-04-04T13:57:13Z</time></trkpt><trkpt lat="44.616601112387144" lon="10.232102102128987"><ele>580.5</ele><time>2026-04-04T13:57:15Z</time></trkpt><trkpt lat="44.61648827290854" lon="10.23203816966806"><ele>577.75</ele><time>2026-04-04T13:57:17Z</time></trkpt><trkpt lat="44.616391759573254" lon="10.231956752353035"><ele>575.0</ele><time>2026-04-04T13:57:19Z</time></trkpt><trkpt lat="44.616297371470246" lon="10.231886200807944"><ele>575.0</ele><time>2026-04-04T13:57:21Z</time></trkpt><trkpt lat="44.6162089377753" lon="10.231803779840043"><ele>575.0</ele><time>2026-04-04T13:57:23Z</time></trkpt><trkpt lat="44.61611929879917" lon="10.231697852654902"><ele>575.0</ele><time>2026-04-04T13:57:25Z</time></trkpt><trkpt lat="44.61606198579238" lon="10.231627520595241"><ele>575.0</ele><time>2026-04-04T13:57:26Z</time></trkpt><trkpt lat="44.61600675211665" lon="10.23156380574778"><ele>575.0</ele><time>2026-04-04T13:57:27Z</time></trkpt><trkpt lat="44.61594463335545" lon="10.231511696335975"><ele>575.0</ele><time>2026-04-04T13:57:28Z</time></trkpt><trkpt lat="44.61588084932286" lon="10.231460194582453"><ele>573.6666666666666</ele><time>2026-04-04T13:57:29Z</time></trkpt><trkpt lat="44.615819857917494" lon="10.231400333454092"><ele>572.3333333333333</ele><time>2026-04-04T13:57:30Z</time></trkpt><trkpt lat="44.61575555185385" lon="10.231354692501862"><ele>571.0</ele><time>2026-04-04T13:57:31Z</time></trkpt><trkpt lat="44.61568932669293" lon="10.23131165659766"><ele>569.6666666666666</ele><time>2026-04-04T13:57:32Z</time></trkpt><trkpt lat="44.61562037135966" lon="10.231273409190614"><ele>568.3333333333334</ele><time>2026-04-04T13:57:33Z</time></trkpt><trkpt lat="44.615546193494765" lon="10.231236878545323"><ele>567.0</ele><time>2026-04-04T13:57:34Z</time></trkpt><trkpt lat="44.6154638760266" lon="10.231198675133786"><ele>567.0</ele><time>2026-04-04T13:57:35Z</time></trkpt><trkpt lat="44.61538671010703" lon="10.231153319065276"><ele>567.0</ele><time>2026-04-04T13:57:36Z</time></trkpt><trkpt lat="44.615310570683086" lon="10.23110682153107"><ele>567.0</ele><time>2026-04-04T13:57:37Z</time></trkpt><trkpt lat="44.61521517823025" lon="10.231052865664504"><ele>567.0</ele><time>2026-04-04T13:57:38Z</time></trkpt><trkpt lat="44.61511610479393" lon="10.23099238314351"><ele>567.0</ele><time>2026-04-04T13:57:39Z</time></trkpt><trkpt lat="44.61503312639171" lon="10.23094482079118"><ele>566.8000000000001</ele><time>2026-04-04T13:57:40Z</time></trkpt><trkpt lat="44.614974802605886" lon="10.230910414778677"><ele>566.6</ele><time>2026-04-04T13:57:41Z</time></trkpt><trkpt lat="44.61490995336259" lon="10.230835277818226"><ele>566.4000000000001</ele><time>2026-04-04T13:57:43Z</time></trkpt><trkpt lat="44.61483090540623" lon="10.230701500003649"><ele>566.2</ele><time>2026-04-04T13:57:45Z</time></trkpt><trkpt lat="44.61478056743804" lon="10.230564994296403"><ele>566.0</ele><time>2026-04-04T13:57:47Z</time></trkpt><trkpt lat="44.61472970588461" lon="10.230414548220633"><ele>566.0</ele><time>2026-04-04T13:57:49Z</time></trkpt><trkpt lat="44.614691767324416" lon="10.230319735571486"><ele>566.0</ele><time>2026-04-04T13:57:50Z</time></trkpt><trkpt lat="44.61465146814414" lon="10.230222473892596"><ele>566.0</ele><time>2026-04-04T13:57:51Z</time></trkpt><trkpt lat="44.614623218343205" lon="10.230129486490968"><ele>566.0</ele><time>2026-04-04T13:57:52Z</time></trkpt><trkpt lat="44.61456738950943" lon="10.229983089882355"><ele>566.0</ele><time>2026-04-04T13:57:54Z</time></trkpt><trkpt lat="44.61452497679949" lon="10.229908397700097"><ele>566.0</ele><time>2026-04-04T13:57:55Z</time></trkpt><trkpt lat="44.61447843688649" lon="10.22983928583928"><ele>563.6666666666666</ele><time>2026-04-04T13:57:56Z</time></trkpt><trkpt lat="44.61442379597609" lon="10.229787815509889"><ele>561.3333333333333</ele><time>2026-04-04T13:57:57Z</time></trkpt><trkpt lat="44.61432700636215" lon="10.229675537740064"><ele>559.0</ele><time>2026-04-04T13:57:59Z</time></trkpt><trkpt lat="44.614275578778084" lon="10.229586771382243"><ele>556.6666666666666</ele><time>2026-04-04T13:58:00Z</time></trkpt><trkpt lat="44.614225789919836" lon="10.229487067635022"><ele>554.3333333333334</ele><time>2026-04-04T13:58:01Z</time></trkpt><trkpt lat="44.61417189277763" lon="10.2293953365048"><ele>552.0</ele><time>2026-04-04T13:58:02Z</time></trkpt><trkpt lat="44.61411421944322" lon="10.229310257932614"><ele>552.0</ele><time>2026-04-04T13:58:03Z</time></trkpt><trkpt lat="44.61406022847241" lon="10.229201108530686"><ele>552.0</ele><time>2026-04-04T13:58:04Z</time></trkpt><trkpt lat="44.6140149194645" lon="10.229071789268382"><ele>552.0</ele><time>2026-04-04T13:58:05Z</time></trkpt><trkpt lat="44.6139773007155" lon="10.228941959540505"><ele>552.0</ele><time>2026-04-04T13:58:06Z</time></trkpt><trkpt lat="44.61394463005958" lon="10.228819066922133"><ele>552.0</ele><time>2026-04-04T13:58:07Z</time></trkpt><trkpt lat="44.6139156867397" lon="10.228710552095519"><ele>551.8000000000001</ele><time>2026-04-04T13:58:08Z</time></trkpt><trkpt lat="44.613894844559816" lon="10.228617972700942"><ele>551.6</ele><time>2026-04-04T13:58:09Z</time></trkpt><trkpt lat="44.613879795393935" lon="10.228515305076805"><ele>551.4000000000001</ele><time>2026-04-04T13:58:10Z</time></trkpt><trkpt lat="44.61385676625795" lon="10.22838921049877"><ele>551.2</ele><time>2026-04-04T13:58:11Z</time></trkpt><trkpt lat="44.613829378103986" lon="10.228233082283177"><ele>551.0</ele><time>2026-04-04T13:58:12Z</time></trkpt><trkpt lat="44.61379825538347" lon="10.228067000095479"><ele>551.75</ele><time>2026-04-04T13:58:13Z</time></trkpt><trkpt lat="44.6137699912998" lon="10.227897820240386"><ele>552.5</ele><time>2026-04-04T13:58:14Z</time></trkpt><trkpt lat="44.61373192117614" lon="10.227724805457816"><ele>553.25</ele><time>2026-04-04T13:58:15Z</time></trkpt><trkpt lat="44.613671087799865" lon="10.22757727164694"><ele>554.0</ele><time>2026-04-04T13:58:16Z</time></trkpt><trkpt lat="44.613589174479124" lon="10.22746847426235"><ele>552.25</ele><time>2026-04-04T13:58:17Z</time></trkpt><trkpt lat="44.61349901275996" lon="10.227398834495927"><ele>550.5</ele><time>2026-04-04T13:58:18Z</time></trkpt><trkpt lat="44.613391265861466" lon="10.227358200561785"><ele>548.75</ele><time>2026-04-04T13:58:19Z</time></trkpt><trkpt lat="44.613269975422504" lon="10.227340611108637"><ele>547.0</ele><time>2026-04-04T13:58:20Z</time></trkpt><trkpt lat="44.613133977755645" lon="10.227310999421324"><ele>550.5</ele><time>2026-04-04T13:58:21Z</time></trkpt><trkpt lat="44.61299678668207" lon="10.22725735259742"><ele>554.0</ele><time>2026-04-04T13:58:22Z</time></trkpt><trkpt lat="44.612854792941285" lon="10.227198977705383"><ele>557.5</ele><time>2026-04-04T13:58:23Z</time></trkpt><trkpt lat="44.61271309014899" lon="10.227141549633426"><ele>561.0</ele><time>2026-04-04T13:58:24Z</time></trkpt><trkpt lat="44.6125876683795" lon="10.227096189553887"><ele>561.0</ele><time>2026-04-04T13:58:25Z</time></trkpt><trkpt lat="44.61247352381927" lon="10.227059642975098"><ele>561.0</ele><time>2026-04-04T13:58:26Z</time></trkpt><trkpt lat="44.6123772039392" lon="10.227015098130371"><ele>561.0</ele><time>2026-04-04T13:58:27Z</time></trkpt><trkpt lat="44.61231006106131" lon="10.226944295206641"><ele>561.0</ele><time>2026-04-04T13:58:28Z</time></trkpt><trkpt lat="44.61227607797051" lon="10.226844692807116"><ele>561.0</ele><time>2026-04-04T13:58:29Z</time></trkpt><trkpt lat="44.61226168839183" lon="10.226757432980735"><ele>561.0</ele><time>2026-04-04T13:58:30Z</time></trkpt><trkpt lat="44.612254824313936" lon="10.226666010099938"><ele>561.0</ele><time>2026-04-04T13:58:31Z</time></trkpt><trkpt lat="44.61224494800029" lon="10.226548087842634"><ele>561.0</ele><time>2026-04-04T13:58:32Z</time></trkpt><trkpt lat="44.61223648528698" lon="10.226412088372204"><ele>561.0</ele><time>2026-04-04T13:58:33Z</time></trkpt><trkpt lat="44.61221620242296" lon="10.226267599592362"><ele>561.0</ele><time>2026-04-04T13:58:34Z</time></trkpt><trkpt lat="44.61216549659782" lon="10.226153708403482"><ele>561.0</ele><time>2026-04-04T13:58:35Z</time></trkpt><trkpt lat="44.61209020314825" lon="10.226074459578754"><ele>560.1666666666666</ele><time>2026-04-04T13:58:36Z</time></trkpt><trkpt lat="44.612017952972366" lon="10.226027727478039"><ele>559.3333333333334</ele><time>2026-04-04T13:58:37Z</time></trkpt><trkpt lat="44.611954292399176" lon="10.22598363367401"><ele>558.5</ele><time>2026-04-04T13:58:38Z</time></trkpt><trkpt lat="44.611896499957005" lon="10.22593141575079"><ele>557.6666666666667</ele><time>2026-04-04T13:58:39Z</time></trkpt><trkpt lat="44.61183682176672" lon="10.225877297235435"><ele>556.8333333333334</ele><time>2026-04-04T13:58:40Z</time></trkpt><trkpt lat="44.611766876377416" lon="10.225819887729102"><ele>556.0</ele><time>2026-04-04T13:58:42Z</time></trkpt><trkpt lat="44.61171183796066" lon="10.225710203296574"><ele>556.2</ele><time>2026-04-04T13:58:44Z</time></trkpt><trkpt lat="44.61167847044182" lon="10.225537984407351"><ele>556.4000000000001</ele><time>2026-04-04T13:58:46Z</time></trkpt><trkpt lat="44.611664866357295" lon="10.22544605135365"><ele>556.6</ele><time>2026-04-04T13:58:47Z</time></trkpt><trkpt lat="44.61170183049769" lon="10.225261262439433"><ele>556.8000000000001</ele><time>2026-04-04T13:58:48Z</time></trkpt><trkpt lat="44.61173737642541" lon="10.22512800233273"><ele>557.0</ele><time>2026-04-04T13:58:49Z</time></trkpt><trkpt lat="44.611741837784685" lon="10.225032470469346"><ele>557.0</ele><time>2026-04-04T13:58:50Z</time></trkpt><trkpt lat="44.61166307550411" lon="10.224980461799355"><ele>557.0</ele><time>2026-04-04T13:58:55Z</time></trkpt><trkpt lat="44.61161185196041" lon="10.224863779918666"><ele>557.0</ele><time>2026-04-04T13:58:57Z</time></trkpt><trkpt lat="44.61158715688275" lon="10.22477758423205"><ele>557.0</ele><time>2026-04-04T13:58:58Z</time></trkpt><trkpt lat="44.61156269243627" lon="10.224692972717339"><ele>557.0</ele><time>2026-04-04T13:58:59Z</time></trkpt><trkpt lat="44.61153806222053" lon="10.224603915608999"><ele>557.0</ele><time>2026-04-04T13:59:00Z</time></trkpt><trkpt lat="44.61148701286384" lon="10.224449596947556"><ele>557.6</ele><time>2026-04-04T13:59:02Z</time></trkpt><trkpt lat="44.61143196917658" lon="10.22430253173564"><ele>558.2</ele><time>2026-04-04T13:59:04Z</time></trkpt><trkpt lat="44.61140961508601" lon="10.224217581080534"><ele>558.8</ele><time>2026-04-04T13:59:05Z</time></trkpt><trkpt lat="44.6113872424235" lon="10.224121377068789"><ele>559.4</ele><time>2026-04-04T13:59:06Z</time></trkpt><trkpt lat="44.6113722516607" lon="10.223947834931286"><ele>560.0</ele><time>2026-04-04T13:59:08Z</time></trkpt><trkpt lat="44.611354133675796" lon="10.223775696838048"><ele>560.3333333333333</ele><time>2026-04-04T13:59:10Z</time></trkpt><trkpt lat="44.61134752634969" lon="10.223686943648147"><ele>560.6666666666666</ele><time>2026-04-04T13:59:11Z</time></trkpt><trkpt lat="44.61133332648485" lon="10.22353023978557"><ele>561.0</ele><time>2026-04-04T13:59:13Z</time></trkpt><trkpt lat="44.6113668494368" lon="10.223374172775438"><ele>561.3333333333334</ele><time>2026-04-04T13:59:15Z</time></trkpt><trkpt lat="44.61140529558619" lon="10.22329859711948"><ele>561.6666666666667</ele><time>2026-04-04T13:59:16Z</time></trkpt><trkpt lat="44.61142617565355" lon="10.223203153536547"><ele>562.0</ele><time>2026-04-04T13:59:17Z</time></trkpt><trkpt lat="44.611418553996536" lon="10.223108736155151"><ele>563.5</ele><time>2026-04-04T13:59:18Z</time></trkpt><trkpt lat="44.61135981163656" lon="10.22295469880637"><ele>565.0</ele><time>2026-04-04T13:59:20Z</time></trkpt><trkpt lat="44.611347227092615" lon="10.22286323852269"><ele>566.5</ele><time>2026-04-04T13:59:21Z</time></trkpt><trkpt lat="44.61132130644777" lon="10.222770716948443"><ele>568.0</ele><time>2026-04-04T13:59:22Z</time></trkpt><trkpt lat="44.611281084901314" lon="10.222674843291685"><ele>569.5</ele><time>2026-04-04T13:59:23Z</time></trkpt><trkpt lat="44.61125028984442" lon="10.222583480295585"><ele>571.0</ele><time>2026-04-04T13:59:24Z</time></trkpt><trkpt lat="44.61122410880765" lon="10.22250049358103"><ele>571.0</ele><time>2026-04-04T13:59:25Z</time></trkpt><trkpt lat="44.61116819517367" lon="10.222371339880809"><ele>571.0</ele><time>2026-04-04T13:59:27Z</time></trkpt><trkpt lat="44.611129119909506" lon="10.222298757187676"><ele>571.0</ele><time>2026-04-04T13:59:28Z</time></trkpt><trkpt lat="44.611065404121675" lon="10.222167186690603"><ele>571.0</ele><time>2026-04-04T13:59:30Z</time></trkpt><trkpt lat="44.61106283186215" lon="10.222006182364934"><ele>571.0</ele><time>2026-04-04T13:59:32Z</time></trkpt><trkpt lat="44.611053782229845" lon="10.221894434616566"><ele>568.2</ele><time>2026-04-04T13:59:33Z</time></trkpt><trkpt lat="44.611055810708415" lon="10.221783929873917"><ele>565.4000000000001</ele><time>2026-04-04T13:59:34Z</time></trkpt><trkpt lat="44.611006470563275" lon="10.221627290528582"><ele>562.6</ele><time>2026-04-04T13:59:36Z</time></trkpt><trkpt lat="44.610951523475265" lon="10.221557050837143"><ele>559.8000000000001</ele><time>2026-04-04T13:59:37Z</time></trkpt><trkpt lat="44.610882664381485" lon="10.221506534216367"><ele>557.0</ele><time>2026-04-04T13:59:38Z</time></trkpt><trkpt lat="44.6107785855093" lon="10.221444246411718"><ele>557.0</ele><time>2026-04-04T13:59:40Z</time></trkpt><trkpt lat="44.610699388622514" lon="10.22133912334203"><ele>557.0</ele><time>2026-04-04T13:59:42Z</time></trkpt><trkpt lat="44.61065337082072" lon="10.221275576152095"><ele>557.0</ele><time>2026-04-04T13:59:43Z</time></trkpt><trkpt lat="44.610613518221314" lon="10.221187479113865"><ele>557.0</ele><time>2026-04-04T13:59:44Z</time></trkpt><trkpt lat="44.610581002020915" lon="10.221030742817218"><ele>557.0</ele><time>2026-04-04T13:59:46Z</time></trkpt><trkpt lat="44.61057110939323" lon="10.220924843456224"><ele>557.0</ele><time>2026-04-04T13:59:47Z</time></trkpt><trkpt lat="44.61058081670489" lon="10.220825020011485"><ele>557.0</ele><time>2026-04-04T13:59:48Z</time></trkpt><trkpt lat="44.610609733203994" lon="10.220731970755036"><ele>557.0</ele><time>2026-04-04T13:59:49Z</time></trkpt><trkpt lat="44.61062182193926" lon="10.22062742383112"><ele>557.0</ele><time>2026-04-04T13:59:50Z</time></trkpt><trkpt lat="44.61059053249296" lon="10.220485662874456"><ele>557.0</ele><time>2026-04-04T13:59:52Z</time></trkpt><trkpt lat="44.61047893063305" lon="10.220423297347875"><ele>557.0</ele><time>2026-04-04T13:59:54Z</time></trkpt><trkpt lat="44.61041149419459" lon="10.22041685474178"><ele>557.0</ele><time>2026-04-04T13:59:55Z</time></trkpt><trkpt lat="44.61034865908538" lon="10.220392554879218"><ele>555.6</ele><time>2026-04-04T13:59:59Z</time></trkpt><trkpt lat="44.61026221400645" lon="10.220345947007479"><ele>554.2</ele><time>2026-04-04T14:00:22Z</time></trkpt><trkpt lat="44.61014820623549" lon="10.220307212603267"><ele>552.8</ele><time>2026-04-04T14:00:24Z</time></trkpt><trkpt lat="44.61008670299232" lon="10.220270130648164"><ele>551.4</ele><time>2026-04-04T14:00:25Z</time></trkpt><trkpt lat="44.61002435744961" lon="10.220227872448643"><ele>550.0</ele><time>2026-04-04T14:00:26Z</time></trkpt><trkpt lat="44.609906098739415" lon="10.220184591509012"><ele>550.0</ele><time>2026-04-04T14:00:28Z</time></trkpt><trkpt lat="44.60981450925071" lon="10.220175792129721"><ele>550.0</ele><time>2026-04-04T14:00:29Z</time></trkpt><trkpt lat="44.60974507220031" lon="10.220188286186357"><ele>550.0</ele><time>2026-04-04T14:00:30Z</time></trkpt><trkpt lat="44.60967850478074" lon="10.220224988235774"><ele>550.0</ele><time>2026-04-04T14:00:31Z</time></trkpt><trkpt lat="44.60961864837797" lon="10.220256732184822"><ele>550.0</ele><time>2026-04-04T14:00:32Z</time></trkpt><trkpt lat="44.609517034857575" lon="10.220332112944519"><ele>550.0</ele><time>2026-04-04T14:00:34Z</time></trkpt><trkpt lat="44.60946944282265" lon="10.220460933182844"><ele>554.6</ele><time>2026-04-04T14:00:36Z</time></trkpt><trkpt lat="44.609398650314404" lon="10.22046808583336"><ele>559.2</ele><time>2026-04-04T14:00:38Z</time></trkpt><trkpt lat="44.609314689316754" lon="10.220396271479785"><ele>563.8</ele><time>2026-04-04T14:00:40Z</time></trkpt><trkpt lat="44.60919681442716" lon="10.22038814459368"><ele>568.4</ele><time>2026-04-04T14:00:42Z</time></trkpt><trkpt lat="44.60914535339751" lon="10.220440163464954"><ele>573.0</ele><time>2026-04-04T14:00:43Z</time></trkpt><trkpt lat="44.60903872007678" lon="10.220499516989435"><ele>573.0</ele><time>2026-04-04T14:00:45Z</time></trkpt><trkpt lat="44.60895087059605" lon="10.220546512359043"><ele>573.0</ele><time>2026-04-04T14:00:47Z</time></trkpt><trkpt lat="44.608908459592286" lon="10.220645428519472"><ele>573.0</ele><time>2026-04-04T14:00:49Z</time></trkpt><trkpt lat="44.6088728758539" lon="10.220725514438094"><ele>573.0</ele><time>2026-04-04T14:00:50Z</time></trkpt><trkpt lat="44.60876925617216" lon="10.220832903848823"><ele>573.0</ele><time>2026-04-04T14:00:52Z</time></trkpt><trkpt lat="44.60870874999514" lon="10.220889853516237"><ele>573.0</ele><time>2026-04-04T14:00:53Z</time></trkpt><trkpt lat="44.608660548639186" lon="10.220958895430853"><ele>576.0</ele><time>2026-04-04T14:00:54Z</time></trkpt><trkpt lat="44.6085524881856" lon="10.22101815709849"><ele>579.0</ele><time>2026-04-04T14:00:57Z</time></trkpt><trkpt lat="44.60848201101442" lon="10.221042003491194"><ele>582.0</ele><time>2026-04-04T14:00:58Z</time></trkpt><trkpt lat="44.60841473804515" lon="10.22106032581065"><ele>585.0</ele><time>2026-04-04T14:00:59Z</time></trkpt><trkpt lat="44.60835008861004" lon="10.221103841573461"><ele>588.0</ele><time>2026-04-04T14:01:00Z</time></trkpt><trkpt lat="44.60830568208265" lon="10.221172138650608"><ele>591.0</ele><time>2026-04-04T14:01:01Z</time></trkpt><trkpt lat="44.608274317837356" lon="10.221258175407439"><ele>591.0</ele><time>2026-04-04T14:01:02Z</time></trkpt><trkpt lat="44.60829652770722" lon="10.221437551939564"><ele>591.0</ele><time>2026-04-04T14:01:04Z</time></trkpt><trkpt lat="44.608309801408005" lon="10.221544115172247"><ele>591.0</ele><time>2026-04-04T14:01:05Z</time></trkpt><trkpt lat="44.608309842553616" lon="10.221662732091799"><ele>591.0</ele><time>2026-04-04T14:01:07Z</time></trkpt><trkpt lat="44.60829886950187" lon="10.221791148776251"><ele>591.0</ele><time>2026-04-04T14:01:09Z</time></trkpt><trkpt lat="44.60831145816975" lon="10.22194458757958"><ele>590.8333333333334</ele><time>2026-04-04T14:01:11Z</time></trkpt><trkpt lat="44.60832882007709" lon="10.222054996376471"><ele>590.6666666666666</ele><time>2026-04-04T14:01:12Z</time></trkpt><trkpt lat="44.60832409597139" lon="10.22215563471631"><ele>590.5</ele><time>2026-04-04T14:01:13Z</time></trkpt><trkpt lat="44.60828896076819" lon="10.22229605303752"><ele>590.3333333333333</ele><time>2026-04-04T14:01:15Z</time></trkpt><trkpt lat="44.60820399349851" lon="10.222392206916423"><ele>590.1666666666666</ele><time>2026-04-04T14:01:17Z</time></trkpt><trkpt lat="44.60813882436132" lon="10.222417883721487"><ele>590.0</ele><time>2026-04-04T14:01:18Z</time></trkpt><trkpt lat="44.60806029678921" lon="10.222451404299571"><ele>590.1666666666666</ele><time>2026-04-04T14:01:19Z</time></trkpt><trkpt lat="44.607987751160394" lon="10.222473578829993"><ele>590.3333333333333</ele><time>2026-04-04T14:01:20Z</time></trkpt><trkpt lat="44.60790069628787" lon="10.22249410282207"><ele>590.5</ele><time>2026-04-04T14:01:21Z</time></trkpt><trkpt lat="44.607816382427565" lon="10.222525451175006"><ele>590.6666666666666</ele><time>2026-04-04T14:01:22Z</time></trkpt><trkpt lat="44.60774870740667" lon="10.22256661143611"><ele>590.8333333333334</ele><time>2026-04-04T14:01:23Z</time></trkpt><trkpt lat="44.60767615534238" lon="10.222611318663281"><ele>591.0</ele><time>2026-04-04T14:01:24Z</time></trkpt><trkpt lat="44.607599993650986" lon="10.222638300973022"><ele>591.0</ele><time>2026-04-04T14:01:25Z</time></trkpt><trkpt lat="44.607474986319396" lon="10.222663279494832"><ele>591.0</ele><time>2026-04-04T14:01:27Z</time></trkpt><trkpt lat="44.607410910970835" lon="10.222674800154982"><ele>591.0</ele><time>2026-04-04T14:01:28Z</time></trkpt><trkpt lat="44.60731624134954" lon="10.222644293633476"><ele>591.0</ele><time>2026-04-04T14:01:30Z</time></trkpt><trkpt lat="44.60721558868751" lon="10.222559953510608"><ele>591.0</ele><time>2026-04-04T14:01:32Z</time></trkpt><trkpt lat="44.60714045839764" lon="10.222470166106238"><ele>591.0</ele><time>2026-04-04T14:01:34Z</time></trkpt><trkpt lat="44.60710379177564" lon="10.222329119601056"><ele>591.0</ele><time>2026-04-04T14:01:36Z</time></trkpt><trkpt lat="44.60706751289347" lon="10.222148647206852"><ele>591.0</ele><time>2026-04-04T14:01:38Z</time></trkpt><trkpt lat="44.60704053075199" lon="10.222043899416816"><ele>591.0</ele><time>2026-04-04T14:01:39Z</time></trkpt><trkpt lat="44.607017243476264" lon="10.22195380287657"><ele>591.0</ele><time>2026-04-04T14:01:40Z</time></trkpt><trkpt lat="44.6069950255207" lon="10.221832834554569"><ele>591.8333333333334</ele><time>2026-04-04T14:01:41Z</time></trkpt><trkpt lat="44.606976788012446" lon="10.221722882522322"><ele>592.6666666666666</ele><time>2026-04-04T14:01:42Z</time></trkpt><trkpt lat="44.60694381973518" lon="10.221595843537456"><ele>593.5</ele><time>2026-04-04T14:01:43Z</time></trkpt><trkpt lat="44.60691661212559" lon="10.22148780250687"><ele>594.3333333333333</ele><time>2026-04-04T14:01:44Z</time></trkpt><trkpt lat="44.60688726275613" lon="10.221379068577123"><ele>595.1666666666666</ele><time>2026-04-04T14:01:45Z</time></trkpt><trkpt lat="44.606839568333605" lon="10.221277753913208"><ele>596.0</ele><time>2026-04-04T14:01:46Z</time></trkpt><trkpt lat="44.6067905447862" lon="10.221184352879455"><ele>596.0</ele><time>2026-04-04T14:01:47Z</time></trkpt><trkpt lat="44.60675480116341" lon="10.221106146685889"><ele>596.0</ele><time>2026-04-04T14:01:48Z</time></trkpt><trkpt lat="44.60667411839383" lon="10.220961929142272"><ele>596.0</ele><time>2026-04-04T14:01:50Z</time></trkpt><trkpt lat="44.606616567500595" lon="10.220866560265394"><ele>596.0</ele><time>2026-04-04T14:01:51Z</time></trkpt><trkpt lat="44.606562498699176" lon="10.220781317269088"><ele>596.0</ele><time>2026-04-04T14:01:52Z</time></trkpt><trkpt lat="44.60649213491779" lon="10.220710491992543"><ele>596.0</ele><time>2026-04-04T14:01:53Z</time></trkpt><trkpt lat="44.60641830629688" lon="10.22065337728892"><ele>596.0</ele><time>2026-04-04T14:01:54Z</time></trkpt><trkpt lat="44.606348565876004" lon="10.220604076223664"><ele>596.0</ele><time>2026-04-04T14:01:55Z</time></trkpt><trkpt lat="44.606285416251986" lon="10.220558209996653"><ele>596.0</ele><time>2026-04-04T14:01:56Z</time></trkpt><trkpt lat="44.60621196276306" lon="10.220500074492525"><ele>596.0</ele><time>2026-04-04T14:01:57Z</time></trkpt><trkpt lat="44.60615087266172" lon="10.220446709028588"><ele>596.0</ele><time>2026-04-04T14:01:58Z</time></trkpt><trkpt lat="44.60605751278248" lon="10.220357333478882"><ele>595.8</ele><time>2026-04-04T14:02:00Z</time></trkpt><trkpt lat="44.6060047902897" lon="10.220212620559462"><ele>595.6</ele><time>2026-04-04T14:02:02Z</time></trkpt><trkpt lat="44.605945940501464" lon="10.220055441445266"><ele>595.4</ele><time>2026-04-04T14:02:04Z</time></trkpt><trkpt lat="44.60590418426056" lon="10.219967040968534"><ele>595.2</ele><time>2026-04-04T14:02:05Z</time></trkpt><trkpt lat="44.6058669277806" lon="10.219878057481788"><ele>595.0</ele><time>2026-04-04T14:02:06Z</time></trkpt><trkpt lat="44.60583317322955" lon="10.219797606068074"><ele>595.0</ele><time>2026-04-04T14:02:07Z</time></trkpt><trkpt lat="44.60580282707474" lon="10.219698765430161"><ele>595.0</ele><time>2026-04-04T14:02:08Z</time></trkpt><trkpt lat="44.60577675274619" lon="10.21958514530014"><ele>595.0</ele><time>2026-04-04T14:02:09Z</time></trkpt><trkpt lat="44.605741385910626" lon="10.219487004987558"><ele>595.0</ele><time>2026-04-04T14:02:10Z</time></trkpt><trkpt lat="44.605708838955735" lon="10.219401709101701"><ele>595.0</ele><time>2026-04-04T14:02:11Z</time></trkpt><trkpt lat="44.60568183046878" lon="10.219310757190865"><ele>595.0</ele><time>2026-04-04T14:02:12Z</time></trkpt><trkpt lat="44.60565948381579" lon="10.21921518983912"><ele>595.0</ele><time>2026-04-04T14:02:13Z</time></trkpt><trkpt lat="44.605626862061854" lon="10.21911686924525"><ele>595.0</ele><time>2026-04-04T14:02:14Z</time></trkpt><trkpt lat="44.60560174903858" lon="10.219029380958418"><ele>595.0</ele><time>2026-04-04T14:02:15Z</time></trkpt><trkpt lat="44.60557802381428" lon="10.21891712518817"><ele>595.0</ele><time>2026-04-04T14:02:16Z</time></trkpt><trkpt lat="44.605569585858355" lon="10.218815006265434"><ele>595.0</ele><time>2026-04-04T14:02:17Z</time></trkpt><trkpt lat="44.60555750062673" lon="10.218715425585485"><ele>595.0</ele><time>2026-04-04T14:02:18Z</time></trkpt><trkpt lat="44.60555595931027" lon="10.218598046118458"><ele>596.0</ele><time>2026-04-04T14:02:19Z</time></trkpt><trkpt lat="44.605560410524234" lon="10.218506357249936"><ele>597.0</ele><time>2026-04-04T14:02:20Z</time></trkpt><trkpt lat="44.605566307315954" lon="10.218396555007462"><ele>598.0</ele><time>2026-04-04T14:02:21Z</time></trkpt><trkpt lat="44.60558196802098" lon="10.218295159388443"><ele>599.0</ele><time>2026-04-04T14:02:22Z</time></trkpt><trkpt lat="44.605602073262226" lon="10.218194570058786"><ele>600.0</ele><time>2026-04-04T14:02:23Z</time></trkpt><trkpt lat="44.60562356771993" lon="10.218108305032285"><ele>601.0</ele><time>2026-04-04T14:02:24Z</time></trkpt><trkpt lat="44.60565371322108" lon="10.217964921295247"><ele>601.1666666666667</ele><time>2026-04-04T14:02:26Z</time></trkpt><trkpt lat="44.6056546353843" lon="10.217855768857202"><ele>601.3333333333334</ele><time>2026-04-04T14:02:27Z</time></trkpt><trkpt lat="44.60564778050224" lon="10.217715665715042"><ele>601.5</ele><time>2026-04-04T14:02:28Z</time></trkpt><trkpt lat="44.60564240846467" lon="10.217581080629094"><ele>601.6666666666666</ele><time>2026-04-04T14:02:29Z</time></trkpt><trkpt lat="44.605635294367914" lon="10.217493198559618"><ele>601.8333333333333</ele><time>2026-04-04T14:02:30Z</time></trkpt><trkpt lat="44.60562824965189" lon="10.217394143765151"><ele>602.0</ele><time>2026-04-04T14:02:31Z</time></trkpt><trkpt lat="44.60564499174072" lon="10.217298827586543"><ele>601.3333333333333</ele><time>2026-04-04T14:02:32Z</time></trkpt><trkpt lat="44.60565953819807" lon="10.21719842986648"><ele>600.6666666666666</ele><time>2026-04-04T14:02:33Z</time></trkpt><trkpt lat="44.60568146414441" lon="10.217095181305474"><ele>600.0</ele><time>2026-04-04T14:02:34Z</time></trkpt><trkpt lat="44.60570920541208" lon="10.216993243338058"><ele>599.3333333333334</ele><time>2026-04-04T14:02:35Z</time></trkpt><trkpt lat="44.60574492238066" lon="10.2168878460353"><ele>598.6666666666667</ele><time>2026-04-04T14:02:36Z</time></trkpt><trkpt lat="44.6057937975663" lon="10.216777479756225"><ele>598.0</ele><time>2026-04-04T14:02:37Z</time></trkpt><trkpt lat="44.60583631286224" lon="10.216671926585208"><ele>598.0</ele><time>2026-04-04T14:02:38Z</time></trkpt><trkpt lat="44.60587314430703" lon="10.216588492107611"><ele>598.0</ele><time>2026-04-04T14:02:39Z</time></trkpt><trkpt lat="44.60591882802257" lon="10.216491901034276"><ele>598.0</ele><time>2026-04-04T14:02:40Z</time></trkpt><trkpt lat="44.605955563095776" lon="10.216390593959987"><ele>598.0</ele><time>2026-04-04T14:02:41Z</time></trkpt><trkpt lat="44.60597473481237" lon="10.216302377338915"><ele>598.0</ele><time>2026-04-04T14:02:42Z</time></trkpt><trkpt lat="44.60601475506319" lon="10.216223240857763"><ele>598.0</ele><time>2026-04-04T14:02:43Z</time></trkpt><trkpt lat="44.60604163470919" lon="10.216140844039787"><ele>598.0</ele><time>2026-04-04T14:02:44Z</time></trkpt><trkpt lat="44.606068069557224" lon="10.216051586775583"><ele>597.1999999999999</ele><time>2026-04-04T14:02:46Z</time></trkpt><trkpt lat="44.60602340838056" lon="10.215919507167731"><ele>596.4</ele><time>2026-04-04T14:04:06Z</time></trkpt><trkpt lat="44.605979246702134" lon="10.215755700064555"><ele>595.5999999999999</ele><time>2026-04-04T14:04:08Z</time></trkpt><trkpt lat="44.60595718358404" lon="10.215660288644909"><ele>594.8</ele><time>2026-04-04T14:04:09Z</time></trkpt><trkpt lat="44.60593945002246" lon="10.215554714058142"><ele>594.0</ele><time>2026-04-04T14:04:10Z</time></trkpt><trkpt lat="44.60593339860646" lon="10.21544649016497"><ele>594.0</ele><time>2026-04-04T14:04:11Z</time></trkpt><trkpt lat="44.60593038635479" lon="10.215336579511826"><ele>594.0</ele><time>2026-04-04T14:04:12Z</time></trkpt><trkpt lat="44.60594233279935" lon="10.215232127851856"><ele>594.0</ele><time>2026-04-04T14:04:13Z</time></trkpt><trkpt lat="44.60595137668543" lon="10.215142008195796"><ele>594.0</ele><time>2026-04-04T14:04:14Z</time></trkpt><trkpt lat="44.60596956144805" lon="10.215052843105147"><ele>594.0</ele><time>2026-04-04T14:04:15Z</time></trkpt><trkpt lat="44.60599394780494" lon="10.214890048779015"><ele>594.0</ele><time>2026-04-04T14:04:17Z</time></trkpt><trkpt lat="44.605955357367456" lon="10.214718317352434"><ele>594.8</ele><time>2026-04-04T14:04:19Z</time></trkpt><trkpt lat="44.605919911978475" lon="10.214600684142562"><ele>595.5999999999999</ele><time>2026-04-04T14:04:20Z</time></trkpt><trkpt lat="44.60587585965674" lon="10.214456582698158"><ele>596.4</ele><time>2026-04-04T14:04:21Z</time></trkpt><trkpt lat="44.60582642629456" lon="10.214316690943102"><ele>597.1999999999999</ele><time>2026-04-04T14:04:22Z</time></trkpt><trkpt lat="44.60576312864851" lon="10.214178175778398"><ele>598.0</ele><time>2026-04-04T14:04:23Z</time></trkpt><trkpt lat="44.605681726863196" lon="10.214056747630854"><ele>596.5</ele><time>2026-04-04T14:04:24Z</time></trkpt><trkpt lat="44.605588819685934" lon="10.213960234479273"><ele>595.0</ele><time>2026-04-04T14:04:25Z</time></trkpt><trkpt lat="44.605485289834576" lon="10.213886232122736"><ele>593.5</ele><time>2026-04-04T14:04:26Z</time></trkpt><trkpt lat="44.60537606577829" lon="10.213824848152038"><ele>592.0</ele><time>2026-04-04T14:04:27Z</time></trkpt><trkpt lat="44.60526880850379" lon="10.213776381545522"><ele>592.0</ele><time>2026-04-04T14:04:28Z</time></trkpt><trkpt lat="44.60515434060832" lon="10.213730285011172"><ele>592.0</ele><time>2026-04-04T14:04:29Z</time></trkpt><trkpt lat="44.605046771651146" lon="10.21368844050295"><ele>592.0</ele><time>2026-04-04T14:04:30Z</time></trkpt><trkpt lat="44.604943484472884" lon="10.213647405437344"><ele>592.0</ele><time>2026-04-04T14:04:31Z</time></trkpt><trkpt lat="44.60484978921479" lon="10.213609162581621"><ele>592.0</ele><time>2026-04-04T14:04:32Z</time></trkpt><trkpt lat="44.60476146695691" lon="10.21357209222116"><ele>592.0</ele><time>2026-04-04T14:04:33Z</time></trkpt><trkpt lat="44.604674530588184" lon="10.213524677101189"><ele>592.0</ele><time>2026-04-04T14:04:34Z</time></trkpt><trkpt lat="44.60458532697771" lon="10.213468340221128"><ele>592.0</ele><time>2026-04-04T14:04:35Z</time></trkpt><trkpt lat="44.60449799211008" lon="10.213390570593495"><ele>592.0</ele><time>2026-04-04T14:04:36Z</time></trkpt><trkpt lat="44.60442734223059" lon="10.213300353952093"><ele>592.0</ele><time>2026-04-04T14:04:37Z</time></trkpt><trkpt lat="44.6043665251266" lon="10.213209371267602"><ele>588.5</ele><time>2026-04-04T14:04:38Z</time></trkpt><trkpt lat="44.60431146705917" lon="10.213120540550074"><ele>585.0</ele><time>2026-04-04T14:04:39Z</time></trkpt><trkpt lat="44.60426020051099" lon="10.213022370208884"><ele>581.5</ele><time>2026-04-04T14:04:40Z</time></trkpt><trkpt lat="44.604224342200176" lon="10.212898933870726"><ele>578.0</ele><time>2026-04-04T14:04:41Z</time></trkpt><trkpt lat="44.604217360940076" lon="10.212759039584938"><ele>574.5</ele><time>2026-04-04T14:04:42Z</time></trkpt><trkpt lat="44.60423244458348" lon="10.21264291114309"><ele>571.0</ele><time>2026-04-04T14:04:43Z</time></trkpt><trkpt lat="44.604255712282274" lon="10.212546613689666"><ele>571.0</ele><time>2026-04-04T14:04:44Z</time></trkpt><trkpt lat="44.604304749398025" lon="10.212390294194853"><ele>571.0</ele><time>2026-04-04T14:04:46Z</time></trkpt><trkpt lat="44.60435191911186" lon="10.212320122376406"><ele>571.0</ele><time>2026-04-04T14:04:47Z</time></trkpt><trkpt lat="44.604394352351314" lon="10.212237973114417"><ele>571.0</ele><time>2026-04-04T14:04:48Z</time></trkpt><trkpt lat="44.60439842664763" lon="10.212138377613332"><ele>571.0</ele><time>2026-04-04T14:04:49Z</time></trkpt><trkpt lat="44.60437645187773" lon="10.212041838264435"><ele>571.0</ele><time>2026-04-04T14:04:50Z</time></trkpt><trkpt lat="44.604328080786196" lon="10.211966133367552"><ele>574.1666666666667</ele><time>2026-04-04T14:04:51Z</time></trkpt><trkpt lat="44.60427372800163" lon="10.21189672074646"><ele>577.3333333333334</ele><time>2026-04-04T14:04:52Z</time></trkpt><trkpt lat="44.604217925210605" lon="10.211807728125931"><ele>580.5</ele><time>2026-04-04T14:04:53Z</time></trkpt><trkpt lat="44.60415687850758" lon="10.211728247253888"><ele>583.6666666666666</ele><time>2026-04-04T14:04:54Z</time></trkpt><trkpt lat="44.60408018296357" lon="10.21167824251783"><ele>586.8333333333333</ele><time>2026-04-04T14:04:55Z</time></trkpt><trkpt lat="44.60398863539919" lon="10.211658066875787"><ele>590.0</ele><time>2026-04-04T14:04:56Z</time></trkpt><trkpt lat="44.6039079775471" lon="10.211645137657182"><ele>590.0</ele><time>2026-04-04T14:04:57Z</time></trkpt><trkpt lat="44.603840490851844" lon="10.211604913579302"><ele>590.0</ele><time>2026-04-04T14:04:58Z</time></trkpt><trkpt lat="44.603787321804674" lon="10.211521793570526"><ele>590.0</ele><time>2026-04-04T14:04:59Z</time></trkpt><trkpt lat="44.60374462493651" lon="10.211402354122498"><ele>590.0</ele><time>2026-04-04T14:05:00Z</time></trkpt><trkpt lat="44.60370580301535" lon="10.211259740963696"><ele>590.0</ele><time>2026-04-04T14:05:01Z</time></trkpt><trkpt lat="44.60366661568727" lon="10.211119199031918"><ele>590.25</ele><time>2026-04-04T14:05:02Z</time></trkpt><trkpt lat="44.603610208336235" lon="10.210981784494484"><ele>590.5</ele><time>2026-04-04T14:05:03Z</time></trkpt><trkpt lat="44.60353803057988" lon="10.210856203242368"><ele>590.75</ele><time>2026-04-04T14:05:04Z</time></trkpt><trkpt lat="44.60345488733765" lon="10.210747398505184"><ele>591.0</ele><time>2026-04-04T14:05:05Z</time></trkpt><trkpt lat="44.604674530588184" lon="10.213524677101189"><ele>591.2</ele><time>2026-04-04T14:04:34Z</time></trkpt><trkpt lat="44.60458532697771" lon="10.213468340221128"><ele>591.4000000000001</ele><time>2026-04-04T14:04:35Z</time></trkpt><trkpt lat="44.60449799211008" lon="10.213390570593495"><ele>591.6</ele><time>2026-04-04T14:04:36Z</time></trkpt><trkpt lat="44.60442734223059" lon="10.213300353952093"><ele>591.8000000000001</ele><time>2026-04-04T14:04:37Z</time></trkpt><trkpt lat="44.6043665251266" lon="10.213209371267602"><ele>592.0</ele><time>2026-04-04T14:04:38Z</time></trkpt><trkpt lat="44.60431146705917" lon="10.213120540550074"><ele>588.5</ele><time>2026-04-04T14:04:39Z</time></trkpt><trkpt lat="44.60426020051099" lon="10.213022370208884"><ele>585.0</ele><time>2026-04-04T14:04:40Z</time></trkpt><trkpt lat="44.604224342200176" lon="10.212898933870726"><ele>581.5</ele><time>2026-04-04T14:04:41Z</time></trkpt><trkpt lat="44.604217360940076" lon="10.212759039584938"><ele>578.0</ele><time>2026-04-04T14:04:42Z</time></trkpt><trkpt lat="44.60423244458348" lon="10.21264291114309"><ele>574.5</ele><time>2026-04-04T14:04:43Z</time></trkpt><trkpt lat="44.604255712282274" lon="10.212546613689666"><ele>571.0</ele><time>2026-04-04T14:04:44Z</time></trkpt><trkpt lat="44.604304749398025" lon="10.212390294194853"><ele>573.7142857142858</ele><time>2026-04-04T14:04:46Z</time></trkpt><trkpt lat="44.60435191911186" lon="10.212320122376406"><ele>576.4285714285714</ele><time>2026-04-04T14:04:47Z</time></trkpt><trkpt lat="44.604394352351314" lon="10.212237973114417"><ele>579.1428571428571</ele><time>2026-04-04T14:04:48Z</time></trkpt><trkpt lat="44.60439842664763" lon="10.212138377613332"><ele>581.8571428571429</ele><time>2026-04-04T14:04:49Z</time></trkpt><trkpt lat="44.60437645187773" lon="10.212041838264435"><ele>584.5714285714286</ele><time>2026-04-04T14:04:50Z</time></trkpt><trkpt lat="44.604328080786196" lon="10.211966133367552"><ele>587.2857142857143</ele><time>2026-04-04T14:04:51Z</time></trkpt><trkpt lat="44.60427372800163" lon="10.21189672074646"><ele>590.0</ele><time>2026-04-04T14:04:52Z</time></trkpt><trkpt lat="44.604217925210605" lon="10.211807728125931"><ele>590.0</ele><time>2026-04-04T14:04:53Z</time></trkpt><trkpt lat="44.60415687850758" lon="10.211728247253888"><ele>590.0</ele><time>2026-04-04T14:04:54Z</time></trkpt><trkpt lat="44.60408018296357" lon="10.21167824251783"><ele>590.0</ele><time>2026-04-04T14:04:55Z</time></trkpt><trkpt lat="44.60398863539919" lon="10.211658066875787"><ele>590.0</ele><time>2026-04-04T14:04:56Z</time></trkpt><trkpt lat="44.6039079775471" lon="10.211645137657182"><ele>590.0</ele><time>2026-04-04T14:04:57Z</time></trkpt><trkpt lat="44.603840490851844" lon="10.211604913579302"><ele>590.0</ele><time>2026-04-04T14:04:58Z</time></trkpt><trkpt lat="44.603787321804674" lon="10.211521793570526"><ele>590.2</ele><time>2026-04-04T14:04:59Z</time></trkpt><trkpt lat="44.60374462493651" lon="10.211402354122498"><ele>590.4</ele><time>2026-04-04T14:05:00Z</time></trkpt><trkpt lat="44.60370580301535" lon="10.211259740963696"><ele>590.6</ele><time>2026-04-04T14:05:01Z</time></trkpt><trkpt lat="44.60366661568727" lon="10.211119199031918"><ele>590.8</ele><time>2026-04-04T14:05:02Z</time></trkpt><trkpt lat="44.603610208336235" lon="10.210981784494484"><ele>591.0</ele><time>2026-04-04T14:05:03Z</time></trkpt><trkpt lat="44.60353803057988" lon="10.210856203242368"><ele>591.0</ele><time>2026-04-04T14:05:04Z</time></trkpt><trkpt lat="44.60345488733765" lon="10.210747398505184"><ele>591.0</ele><time>2026-04-04T14:05:05Z</time></trkpt><trkpt lat="44.60336887175286" lon="10.210648605200264"><ele>591.0</ele><time>2026-04-04T14:05:06Z</time></trkpt><trkpt lat="44.60329553220777" lon="10.210563878878183"><ele>591.0</ele><time>2026-04-04T14:05:07Z</time></trkpt><trkpt lat="44.60323677070967" lon="10.210482830823183"><ele>591.0</ele><time>2026-04-04T14:05:08Z</time></trkpt><trkpt lat="44.60318444627441" lon="10.210395355542097"><ele>592.3333333333334</ele><time>2026-04-04T14:05:09Z</time></trkpt><trkpt lat="44.60314573646863" lon="10.210312076432324"><ele>593.6666666666666</ele><time>2026-04-04T14:05:10Z</time></trkpt><trkpt lat="44.60313165757391" lon="10.210223060113494"><ele>595.0</ele><time>2026-04-04T14:05:11Z</time></trkpt><trkpt lat="44.60317823141316" lon="10.210119456456672"><ele>596.3333333333333</ele><time>2026-04-04T14:05:13Z</time></trkpt><trkpt lat="44.603295463475796" lon="10.210054261553243"><ele>597.6666666666666</ele><time>2026-04-04T14:05:15Z</time></trkpt><trkpt lat="44.60336954501064" lon="10.210024271264801"><ele>599.0</ele><time>2026-04-04T14:05:16Z</time></trkpt><trkpt lat="44.603448721276855" lon="10.209985063243067"><ele>599.0</ele><time>2026-04-04T14:05:17Z</time></trkpt><trkpt lat="44.60352523257659" lon="10.209933335421875"><ele>599.0</ele><time>2026-04-04T14:05:18Z</time></trkpt><trkpt lat="44.60357962989414" lon="10.209882717126396"><ele>599.0</ele><time>2026-04-04T14:05:19Z</time></trkpt><trkpt lat="44.60366440057855" lon="10.209801618324969"><ele>599.0</ele><time>2026-04-04T14:05:21Z</time></trkpt><trkpt lat="44.60367427444071" lon="10.209680933637367"><ele>599.0</ele><time>2026-04-04T14:05:23Z</time></trkpt><trkpt lat="44.603668515293464" lon="10.209581838516026"><ele>599.0</ele><time>2026-04-04T14:05:25Z</time></trkpt><trkpt lat="44.60370437581717" lon="10.20945148911163"><ele>600.1666666666666</ele><time>2026-04-04T14:05:27Z</time></trkpt><trkpt lat="44.60377926624183" lon="10.209362814371511"><ele>601.3333333333333</ele><time>2026-04-04T14:05:29Z</time></trkpt><trkpt lat="44.6037827917487" lon="10.209268888319544"><ele>602.5</ele><time>2026-04-04T14:05:31Z</time></trkpt><trkpt lat="44.603708972354724" lon="10.209187747243247"><ele>603.6666666666666</ele><time>2026-04-04T14:05:33Z</time></trkpt><trkpt lat="44.60361526170964" lon="10.209241922483713"><ele>604.8333333333334</ele><time>2026-04-04T14:05:35Z</time></trkpt><trkpt lat="44.60353735952871" lon="10.209290295147886"><ele>606.0</ele><time>2026-04-04T14:05:37Z</time></trkpt><trkpt lat="44.603446235445354" lon="10.209288118127528"><ele>606.0</ele><time>2026-04-04T14:05:39Z</time></trkpt><trkpt lat="44.603359840279936" lon="10.209263098844483"><ele>606.0</ele><time>2026-04-04T14:05:41Z</time></trkpt><trkpt lat="44.60323314979027" lon="10.209195641485612"><ele>606.0</ele><time>2026-04-04T14:05:43Z</time></trkpt><trkpt lat="44.60316660887363" lon="10.209160233435384"><ele>606.0</ele><time>2026-04-04T14:05:44Z</time></trkpt><trkpt lat="44.603093711211834" lon="10.209112010748896"><ele>606.0</ele><time>2026-04-04T14:05:46Z</time></trkpt><trkpt lat="44.60304516848369" lon="10.2089989869859"><ele>609.3333333333334</ele><time>2026-04-04T14:05:48Z</time></trkpt><trkpt lat="44.603057070361054" lon="10.208861917211637"><ele>612.6666666666666</ele><time>2026-04-04T14:05:50Z</time></trkpt><trkpt lat="44.603122507866175" lon="10.20875489190532"><ele>616.0</ele><time>2026-04-04T14:05:52Z</time></trkpt><trkpt lat="44.603175574012454" lon="10.20865467663572"><ele>619.3333333333333</ele><time>2026-04-04T14:05:54Z</time></trkpt><trkpt lat="44.603113346937135" lon="10.208586502538763"><ele>622.6666666666666</ele><time>2026-04-04T14:05:56Z</time></trkpt><trkpt lat="44.60304560142969" lon="10.208543716424348"><ele>626.0</ele><time>2026-04-04T14:05:58Z</time></trkpt><trkpt lat="44.602944239236535" lon="10.208466617389076"><ele>626.0</ele><time>2026-04-04T14:06:00Z</time></trkpt><trkpt lat="44.60288539605531" lon="10.208357895120367"><ele>626.0</ele><time>2026-04-04T14:06:02Z</time></trkpt><trkpt lat="44.602807157145776" lon="10.20828788212173"><ele>626.0</ele><time>2026-04-04T14:06:04Z</time></trkpt><trkpt lat="44.60268534224182" lon="10.208262143376075"><ele>626.0</ele><time>2026-04-04T14:06:05Z</time></trkpt><trkpt lat="44.60261830005156" lon="10.208271041773365"><ele>626.0</ele><time>2026-04-04T14:06:06Z</time></trkpt><trkpt lat="44.60246995662581" lon="10.208261239874428"><ele>625.6666666666666</ele><time>2026-04-04T14:06:08Z</time></trkpt><trkpt lat="44.60238715654756" lon="10.2082595566005"><ele>625.3333333333333</ele><time>2026-04-04T14:06:09Z</time></trkpt><trkpt lat="44.60230696205851" lon="10.208258134841138"><ele>625.0</ele><time>2026-04-04T14:06:10Z</time></trkpt><trkpt lat="44.602235053643575" lon="10.208263466169793"><ele>624.6666666666666</ele><time>2026-04-04T14:06:11Z</time></trkpt><trkpt lat="44.602164117983264" lon="10.208289300121232"><ele>624.3333333333334</ele><time>2026-04-04T14:06:12Z</time></trkpt><trkpt lat="44.60209185381462" lon="10.208320605062575"><ele>624.0</ele><time>2026-04-04T14:06:13Z</time></trkpt><trkpt lat="44.602026752635965" lon="10.20835955977299"><ele>625.1666666666666</ele><time>2026-04-04T14:06:14Z</time></trkpt><trkpt lat="44.601897789032805" lon="10.208394292993944"><ele>626.3333333333334</ele><time>2026-04-04T14:06:16Z</time></trkpt><trkpt lat="44.60183191653678" lon="10.208421899465057"><ele>627.5</ele><time>2026-04-04T14:06:17Z</time></trkpt><trkpt lat="44.6017569740671" lon="10.208438053793932"><ele>628.6666666666667</ele><time>2026-04-04T14:06:18Z</time></trkpt><trkpt lat="44.601682659683995" lon="10.208449844857995"><ele>629.8333333333334</ele><time>2026-04-04T14:06:19Z</time></trkpt><trkpt lat="44.60161719606213" lon="10.2084715292771"><ele>631.0</ele><time>2026-04-04T14:06:20Z</time></trkpt><trkpt lat="44.60155735299383" lon="10.208508204470528"><ele>631.0</ele><time>2026-04-04T14:06:21Z</time></trkpt><trkpt lat="44.60143532366416" lon="10.208508965572253"><ele>631.0</ele><time>2026-04-04T14:06:23Z</time></trkpt><trkpt lat="44.601324270343376" lon="10.208465365914194"><ele>631.0</ele><time>2026-04-04T14:06:25Z</time></trkpt><trkpt lat="44.6012685684255" lon="10.208389914399785"><ele>631.0</ele><time>2026-04-04T14:06:27Z</time></trkpt><trkpt lat="44.6012486943535" lon="10.208277199922676"><ele>631.0</ele><time>2026-04-04T14:06:29Z</time></trkpt><trkpt lat="44.60127637107877" lon="10.20814344575225"><ele>633.8333333333334</ele><time>2026-04-04T14:06:31Z</time></trkpt><trkpt lat="44.60130886538313" lon="10.20806047640529"><ele>636.6666666666667</ele><time>2026-04-04T14:06:32Z</time></trkpt><trkpt lat="44.60134287488021" lon="10.207983429347689"><ele>639.5</ele><time>2026-04-04T14:06:33Z</time></trkpt><trkpt lat="44.60133963840851" lon="10.20780489564502"><ele>642.3333333333334</ele><time>2026-04-04T14:06:35Z</time></trkpt><trkpt lat="44.60131631945608" lon="10.207708493718878"><ele>645.1666666666666</ele><time>2026-04-04T14:06:36Z</time></trkpt><trkpt lat="44.601297012463576" lon="10.207619804481045"><ele>648.0</ele><time>2026-04-04T14:06:37Z</time></trkpt><trkpt lat="44.60128825548408" lon="10.207530723224835"><ele>648.0</ele><time>2026-04-04T14:06:38Z</time></trkpt><trkpt lat="44.60125601606249" lon="10.207411747808559"><ele>648.0</ele><time>2026-04-04T14:06:40Z</time></trkpt><trkpt lat="44.601259863784016" lon="10.207321953743925"><ele>648.0</ele><time>2026-04-04T14:06:41Z</time></trkpt><trkpt lat="44.601241635187364" lon="10.207192570806802"><ele>648.0</ele><time>2026-04-04T14:06:43Z</time></trkpt><trkpt lat="44.60119387621295" lon="10.207131161543556"><ele>648.0</ele><time>2026-04-04T14:06:44Z</time></trkpt><trkpt lat="44.6011335671217" lon="10.207096706048498"><ele>648.0</ele><time>2026-04-04T14:06:45Z</time></trkpt><trkpt lat="44.6010703023292" lon="10.20708550111528"><ele>648.0</ele><time>2026-04-04T14:06:46Z</time></trkpt><trkpt lat="44.601012347667805" lon="10.207028457202732"><ele>647.0</ele><time>2026-04-04T14:06:48Z</time></trkpt><trkpt lat="44.60094811151568" lon="10.206889207901952"><ele>646.0</ele><time>2026-04-04T14:06:50Z</time></trkpt><trkpt lat="44.60091457941658" lon="10.206751025814494"><ele>645.0</ele><time>2026-04-04T14:06:52Z</time></trkpt><trkpt lat="44.60084276228548" lon="10.206615416809074"><ele>644.0</ele><time>2026-04-04T14:06:53.999Z</time></trkpt><trkpt lat="44.6007813667513" lon="10.20659338897084"><ele>643.0</ele><time>2026-04-04T14:06:54.999Z</time></trkpt><trkpt lat="44.600648649993495" lon="10.206603737372362"><ele>643.0</ele><time>2026-04-04T14:06:56.999Z</time></trkpt><trkpt lat="44.60057335557752" lon="10.206620060059826"><ele>643.0</ele><time>2026-04-04T14:06:57.999Z</time></trkpt><trkpt lat="44.600502514260306" lon="10.206635762175068"><ele>643.0</ele><time>2026-04-04T14:06:58.999Z</time></trkpt><trkpt lat="44.600435235178374" lon="10.206638404108725"><ele>643.0</ele><time>2026-04-04T14:06:59.999Z</time></trkpt><trkpt lat="44.600369563464504" lon="10.20664372185285"><ele>643.0</ele><time>2026-04-04T14:07:00.999Z</time></trkpt><trkpt lat="44.60029829040794" lon="10.206658193435326"><ele>643.0</ele><time>2026-04-04T14:07:01.999Z</time></trkpt><trkpt lat="44.600195420138256" lon="10.206669582755417"><ele>642.5</ele><time>2026-04-04T14:07:03.999Z</time></trkpt><trkpt lat="44.60009521583112" lon="10.206663299249202"><ele>642.0</ele><time>2026-04-04T14:07:05.999Z</time></trkpt><trkpt lat="44.60003089686364" lon="10.206679875276917"><ele>641.5</ele><time>2026-04-04T14:07:07.999Z</time></trkpt><trkpt lat="44.59996321280926" lon="10.206724551916064"><ele>641.0</ele><time>2026-04-04T14:07:10Z</time></trkpt><trkpt lat="44.59988701611145" lon="10.20671467388214"><ele>640.5</ele><time>2026-04-04T14:07:16Z</time></trkpt><trkpt lat="44.59980805362679" lon="10.206765189467527"><ele>640.0</ele><time>2026-04-04T14:07:18Z</time></trkpt><trkpt lat="44.59969974461081" lon="10.206847490999875"><ele>640.0</ele><time>2026-04-04T14:07:20Z</time></trkpt><trkpt lat="44.59962824836823" lon="10.206896424801572"><ele>640.0</ele><time>2026-04-04T14:07:21Z</time></trkpt><trkpt lat="44.59955999486062" lon="10.20694158436411"><ele>640.0</ele><time>2026-04-04T14:07:22Z</time></trkpt><trkpt lat="44.59948918891977" lon="10.206983146384193"><ele>640.0</ele><time>2026-04-04T14:07:23Z</time></trkpt><trkpt lat="44.599410933364354" lon="10.207022160953775"><ele>640.0</ele><time>2026-04-04T14:07:24Z</time></trkpt><trkpt lat="44.59932680835683" lon="10.20705957297148"><ele>640.0</ele><time>2026-04-04T14:07:25Z</time></trkpt><trkpt lat="44.59924887908534" lon="10.207079721923732"><ele>640.8333333333334</ele><time>2026-04-04T14:07:26Z</time></trkpt><trkpt lat="44.59917050647517" lon="10.207093189815742"><ele>641.6666666666667</ele><time>2026-04-04T14:07:27Z</time></trkpt><trkpt lat="44.59910364327136" lon="10.207092763060695"><ele>642.5</ele><time>2026-04-04T14:07:28Z</time></trkpt><trkpt lat="44.598987158573756" lon="10.207080197875381"><ele>643.3333333333334</ele><time>2026-04-04T14:07:30Z</time></trkpt><trkpt lat="44.59894367527263" lon="10.20699299532939"><ele>644.1666666666666</ele><time>2026-04-04T14:07:32Z</time></trkpt><trkpt lat="44.598932019825575" lon="10.206870997477699"><ele>645.0</ele><time>2026-04-04T14:07:34Z</time></trkpt><trkpt lat="44.59893296259951" lon="10.206773666730871"><ele>645.0</ele><time>2026-04-04T14:07:36Z</time></trkpt><trkpt lat="44.59884635563336" lon="10.206674824540423"><ele>645.0</ele><time>2026-04-04T14:07:38Z</time></trkpt><trkpt lat="44.59873306308759" lon="10.206575287341584"><ele>645.0</ele><time>2026-04-04T14:07:40Z</time></trkpt><trkpt lat="44.598683388886364" lon="10.206519645092488"><ele>645.0</ele><time>2026-04-04T14:07:41Z</time></trkpt><trkpt lat="44.598598134614264" lon="10.20643270160439"><ele>645.0</ele><time>2026-04-04T14:07:43Z</time></trkpt><trkpt lat="44.5985288245679" lon="10.206320540944835"><ele>640.6</ele><time>2026-04-04T14:07:45Z</time></trkpt><trkpt lat="44.59846973134557" lon="10.206205671923758"><ele>636.2</ele><time>2026-04-04T14:07:47Z</time></trkpt><trkpt lat="44.59840021268618" lon="10.206088693330312"><ele>631.8</ele><time>2026-04-04T14:07:49Z</time></trkpt><trkpt lat="44.59834830281471" lon="10.205963225558992"><ele>627.4</ele><time>2026-04-04T14:07:51Z</time></trkpt><trkpt lat="44.59832067365553" lon="10.205813065076393"><ele>623.0</ele><time>2026-04-04T14:07:53Z</time></trkpt><trkpt lat="44.598322932054884" lon="10.20567256005625"><ele>621.8</ele><time>2026-04-04T14:07:55Z</time></trkpt><trkpt lat="44.59831945147823" lon="10.205562097637051"><ele>620.5999999999999</ele><time>2026-04-04T14:07:58Z</time></trkpt><trkpt lat="44.59833242689748" lon="10.205434156351169"><ele>619.4000000000001</ele><time>2026-04-04T14:08:01Z</time></trkpt><trkpt lat="44.5983256207638" lon="10.205283865972586"><ele>618.2</ele><time>2026-04-04T14:08:03Z</time></trkpt><trkpt lat="44.59829846477886" lon="10.205136554529478"><ele>617.0</ele><time>2026-04-04T14:08:05Z</time></trkpt><trkpt lat="44.59827945039738" lon="10.205023043744314"><ele>617.0</ele><time>2026-04-04T14:08:06Z</time></trkpt><trkpt lat="44.598272254011334" lon="10.204920487896338"><ele>617.0</ele><time>2026-04-04T14:08:07Z</time></trkpt><trkpt lat="44.59826305655458" lon="10.204829647011517"><ele>617.0</ele><time>2026-04-04T14:08:08Z</time></trkpt><trkpt lat="44.5982724285097" lon="10.20466614241481"><ele>617.0</ele><time>2026-04-04T14:08:10Z</time></trkpt><trkpt lat="44.59832833689326" lon="10.204523746317031"><ele>617.0</ele><time>2026-04-04T14:08:12Z</time></trkpt><trkpt lat="44.598335168901386" lon="10.204434482817843"><ele>617.0</ele><time>2026-04-04T14:08:14Z</time></trkpt><trkpt lat="44.59826555314107" lon="10.204354016943233"><ele>617.8333333333333</ele><time>2026-04-04T14:08:16Z</time></trkpt><trkpt lat="44.598204229837066" lon="10.204320099617206"><ele>618.6666666666666</ele><time>2026-04-04T14:08:17Z</time></trkpt><trkpt lat="44.59811039333525" lon="10.204237674820336"><ele>619.5</ele><time>2026-04-04T14:08:19Z</time></trkpt><trkpt lat="44.598064134615136" lon="10.20417641906016"><ele>620.3333333333334</ele><time>2026-04-04T14:08:20Z</time></trkpt><trkpt lat="44.597983739793065" lon="10.204075588305093"><ele>621.1666666666667</ele><time>2026-04-04T14:08:22Z</time></trkpt><trkpt lat="44.5979449915399" lon="10.203944391886825"><ele>622.0</ele><time>2026-04-04T14:08:24Z</time></trkpt><trkpt lat="44.59792672108043" lon="10.203830592203044"><ele>623.8000000000001</ele><time>2026-04-04T14:08:26Z</time></trkpt><trkpt lat="44.5978789340808" lon="10.203740773207842"><ele>625.6</ele><time>2026-04-04T14:08:28Z</time></trkpt><trkpt lat="44.59783100492116" lon="10.203630953880035"><ele>627.4000000000001</ele><time>2026-04-04T14:08:30Z</time></trkpt><trkpt lat="44.59781417664344" lon="10.203451553114409"><ele>629.2</ele><time>2026-04-04T14:08:32Z</time></trkpt><trkpt lat="44.59780381008936" lon="10.203338618920398"><ele>631.0</ele><time>2026-04-04T14:08:33Z</time></trkpt><trkpt lat="44.59776688762149" lon="10.203200786136984"><ele>625.2</ele><time>2026-04-04T14:08:35Z</time></trkpt><trkpt lat="44.59773433770693" lon="10.203087176056433"><ele>619.4000000000001</ele><time>2026-04-04T14:08:37Z</time></trkpt><trkpt lat="44.597700257859934" lon="10.202940330905234"><ele>613.6</ele><time>2026-04-04T14:08:39Z</time></trkpt><trkpt lat="44.59768932851754" lon="10.202846530965514"><ele>607.8000000000001</ele><time>2026-04-04T14:08:40Z</time></trkpt><trkpt lat="44.59769288146026" lon="10.202706087784781"><ele>602.0</ele><time>2026-04-04T14:08:42Z</time></trkpt><trkpt lat="44.597715382288115" lon="10.20256507185146"><ele>602.0</ele><time>2026-04-04T14:08:44Z</time></trkpt><trkpt lat="44.59767558084602" lon="10.20246290198365"><ele>602.0</ele><time>2026-04-04T14:08:46Z</time></trkpt><trkpt lat="44.597616686137656" lon="10.202414934596995"><ele>602.0</ele><time>2026-04-04T14:08:47Z</time></trkpt><trkpt lat="44.59754724799632" lon="10.202355169736725"><ele>602.0</ele><time>2026-04-04T14:08:48Z</time></trkpt><trkpt lat="44.59747254430382" lon="10.202274873603372"><ele>602.0</ele><time>2026-04-04T14:08:49Z</time></trkpt><trkpt lat="44.597419411029264" lon="10.202201383821448"><ele>602.0</ele><time>2026-04-04T14:08:50Z</time></trkpt><trkpt lat="44.597344653201276" lon="10.202043310979455"><ele>602.1428571428571</ele><time>2026-04-04T14:08:52Z</time></trkpt><trkpt lat="44.59730309548982" lon="10.201944925200127"><ele>602.2857142857142</ele><time>2026-04-04T14:08:53Z</time></trkpt><trkpt lat="44.59725801324146" lon="10.201862369368884"><ele>602.4285714285714</ele><time>2026-04-04T14:08:54Z</time></trkpt><trkpt lat="44.59720906948417" lon="10.201799745911002"><ele>602.5714285714286</ele><time>2026-04-04T14:08:55Z</time></trkpt><trkpt lat="44.597151341088356" lon="10.20176056820452"><ele>602.7142857142857</ele><time>2026-04-04T14:08:56Z</time></trkpt><trkpt lat="44.597083908224334" lon="10.201738899844658"><ele>602.8571428571429</ele><time>2026-04-04T14:08:57Z</time></trkpt><trkpt lat="44.597015064710575" lon="10.20174267656885"><ele>603.0</ele><time>2026-04-04T14:08:58Z</time></trkpt><trkpt lat="44.596933915535786" lon="10.201759583878115"><ele>601.6666666666666</ele><time>2026-04-04T14:08:59Z</time></trkpt><trkpt lat="44.59686261509247" lon="10.201782785117956"><ele>600.3333333333334</ele><time>2026-04-04T14:09:00Z</time></trkpt><trkpt lat="44.596788040699025" lon="10.201804918513846"><ele>599.0</ele><time>2026-04-04T14:09:01Z</time></trkpt><trkpt lat="44.59671034901628" lon="10.201829018861373"><ele>597.6666666666667</ele><time>2026-04-04T14:09:02Z</time></trkpt><trkpt lat="44.59660862173136" lon="10.201804556332723"><ele>596.3333333333334</ele><time>2026-04-04T14:09:04Z</time></trkpt><trkpt lat="44.59654225499271" lon="10.20171873948108"><ele>595.0</ele><time>2026-04-04T14:09:06Z</time></trkpt><trkpt lat="44.59648634921722" lon="10.201626411959309"><ele>595.0</ele><time>2026-04-04T14:09:08Z</time></trkpt><trkpt lat="44.59645497568905" lon="10.201536587724942"><ele>595.0</ele><time>2026-04-04T14:09:09Z</time></trkpt><trkpt lat="44.596420662438966" lon="10.20143270224655"><ele>595.0</ele><time>2026-04-04T14:09:10Z</time></trkpt><trkpt lat="44.59637986566517" lon="10.20131858089623"><ele>595.0</ele><time>2026-04-04T14:09:11Z</time></trkpt><trkpt lat="44.59634116594189" lon="10.201196665143625"><ele>595.0</ele><time>2026-04-04T14:09:12Z</time></trkpt><trkpt lat="44.59630790568892" lon="10.201059278208087"><ele>595.0</ele><time>2026-04-04T14:09:13Z</time></trkpt><trkpt lat="44.596278602856785" lon="10.200921826407136"><ele>596.4</ele><time>2026-04-04T14:09:14Z</time></trkpt><trkpt lat="44.596239370250615" lon="10.200785671597657"><ele>597.8</ele><time>2026-04-04T14:09:15Z</time></trkpt><trkpt lat="44.59617997999382" lon="10.200655707979191"><ele>599.2</ele><time>2026-04-04T14:09:16Z</time></trkpt><trkpt lat="44.59610438700456" lon="10.20053722847552"><ele>600.6</ele><time>2026-04-04T14:09:17Z</time></trkpt><trkpt lat="44.596018272381535" lon="10.200431079571464"><ele>602.0</ele><time>2026-04-04T14:09:18Z</time></trkpt><trkpt lat="44.595933536871" lon="10.200329387367491"><ele>602.0</ele><time>2026-04-04T14:09:19Z</time></trkpt><trkpt lat="44.59585080556184" lon="10.200228753735585"><ele>602.0</ele><time>2026-04-04T14:09:20Z</time></trkpt><trkpt lat="44.59576792021698" lon="10.20012745358539"><ele>602.0</ele><time>2026-04-04T14:09:21Z</time></trkpt><trkpt lat="44.595697279695145" lon="10.200036915531628"><ele>602.0</ele><time>2026-04-04T14:09:22Z</time></trkpt><trkpt lat="44.59564468431028" lon="10.199964222632632"><ele>602.0</ele><time>2026-04-04T14:09:23Z</time></trkpt><trkpt lat="44.595565205384965" lon="10.199818607375198"><ele>603.2</ele><time>2026-04-04T14:09:25Z</time></trkpt><trkpt lat="44.59552224619706" lon="10.19968341420245"><ele>604.4000000000001</ele><time>2026-04-04T14:09:27Z</time></trkpt><trkpt lat="44.59557420121463" lon="10.19959024793595"><ele>605.5999999999999</ele><time>2026-04-04T14:09:29Z</time></trkpt><trkpt lat="44.595634080647365" lon="10.199499277196647"><ele>606.8</ele><time>2026-04-04T14:09:30Z</time></trkpt><trkpt lat="44.59569014246985" lon="10.199363738760814"><ele>608.0</ele><time>2026-04-04T14:09:31Z</time></trkpt><trkpt lat="44.59572273753959" lon="10.199201690666907"><ele>608.0</ele><time>2026-04-04T14:09:32Z</time></trkpt><trkpt lat="44.595719507536636" lon="10.199048126259585"><ele>608.0</ele><time>2026-04-04T14:09:33Z</time></trkpt><trkpt lat="44.595683697890195" lon="10.198907566078422"><ele>608.0</ele><time>2026-04-04T14:09:34Z</time></trkpt><trkpt lat="44.595628669159616" lon="10.198773818962762"><ele>608.0</ele><time>2026-04-04T14:09:35Z</time></trkpt><trkpt lat="44.59558212556337" lon="10.198629989220708"><ele>608.0</ele><time>2026-04-04T14:09:36Z</time></trkpt><trkpt lat="44.595559265096206" lon="10.1984784823474"><ele>607.75</ele><time>2026-04-04T14:09:37Z</time></trkpt><trkpt lat="44.59555283631084" lon="10.198312752808137"><ele>607.5</ele><time>2026-04-04T14:09:38Z</time></trkpt><trkpt lat="44.59556445292454" lon="10.198150680152908"><ele>607.25</ele><time>2026-04-04T14:09:39Z</time></trkpt><trkpt lat="44.59557641873555" lon="10.198000491854568"><ele>607.0</ele><time>2026-04-04T14:09:40Z</time></trkpt><trkpt lat="44.59557569842726" lon="10.197844658821495"><ele>607.6</ele><time>2026-04-04T14:09:41Z</time></trkpt><trkpt lat="44.595555760621195" lon="10.197683288669664"><ele>608.2</ele><time>2026-04-04T14:09:42Z</time></trkpt><trkpt lat="44.59552256699236" lon="10.197541508080409"><ele>608.8</ele><time>2026-04-04T14:09:43Z</time></trkpt><trkpt lat="44.59550256090691" lon="10.197403729608917"><ele>609.4</ele><time>2026-04-04T14:09:44Z</time></trkpt><trkpt lat="44.59551313010227" lon="10.19725146433252"><ele>610.0</ele><time>2026-04-04T14:09:45Z</time></trkpt><trkpt lat="44.59554975374229" lon="10.197093114948927"><ele>611.25</ele><time>2026-04-04T14:09:46Z</time></trkpt><trkpt lat="44.595595297557246" lon="10.1969227881855"><ele>612.5</ele><time>2026-04-04T14:09:47Z</time></trkpt><trkpt lat="44.595605712778585" lon="10.196761873849038"><ele>613.75</ele><time>2026-04-04T14:09:48Z</time></trkpt><trkpt lat="44.595571936816654" lon="10.196609886489465"><ele>615.0</ele><time>2026-04-04T14:09:49Z</time></trkpt><trkpt lat="44.59552952339667" lon="10.19644737452045"><ele>615.0</ele><time>2026-04-04T14:09:50Z</time></trkpt><trkpt lat="44.59550779326617" lon="10.196267340591794"><ele>615.0</ele><time>2026-04-04T14:09:51Z</time></trkpt><trkpt lat="44.59550992446" lon="10.196067320543566"><ele>615.0</ele><time>2026-04-04T14:09:52Z</time></trkpt><trkpt lat="44.595522715489935" lon="10.195858633113765"><ele>615.0</ele><time>2026-04-04T14:09:53Z</time></trkpt><trkpt lat="44.59553414493053" lon="10.195664585878694"><ele>618.0</ele><time>2026-04-04T14:09:54Z</time></trkpt><trkpt lat="44.595541433170126" lon="10.195491578619501"><ele>621.0</ele><time>2026-04-04T14:09:55Z</time></trkpt><trkpt lat="44.595526980053535" lon="10.195327996150677"><ele>624.0</ele><time>2026-04-04T14:09:56Z</time></trkpt><trkpt lat="44.59548582290261" lon="10.195180515802933"><ele>627.0</ele><time>2026-04-04T14:09:57Z</time></trkpt><trkpt lat="44.59542787920448" lon="10.19506007441337"><ele>627.0</ele><time>2026-04-04T14:09:58Z</time></trkpt><trkpt lat="44.595356320958615" lon="10.194963121848271"><ele>627.0</ele><time>2026-04-04T14:09:59Z</time></trkpt><trkpt lat="44.59525922076851" lon="10.194897567555747"><ele>627.0</ele><time>2026-04-04T14:10:00Z</time></trkpt><trkpt lat="44.595156300713995" lon="10.194893847520659"><ele>627.0</ele><time>2026-04-04T14:10:01Z</time></trkpt><trkpt lat="44.59506138384489" lon="10.194942192225225"><ele>627.0</ele><time>2026-04-04T14:10:02Z</time></trkpt><trkpt lat="44.59498650254198" lon="10.195039130917634"><ele>624.5</ele><time>2026-04-04T14:10:03Z</time></trkpt><trkpt lat="44.594929219686925" lon="10.195170726068278"><ele>622.0</ele><time>2026-04-04T14:10:04Z</time></trkpt><trkpt lat="44.59487357168082" lon="10.195312846137655"><ele>619.5</ele><time>2026-04-04T14:10:05Z</time></trkpt><trkpt lat="44.5947952012051" lon="10.195435091251117"><ele>617.0</ele><time>2026-04-04T14:10:06Z</time></trkpt><trkpt lat="44.59468514300985" lon="10.19551776752137"><ele>617.0</ele><time>2026-04-04T14:10:07Z</time></trkpt><trkpt lat="44.59455932185734" lon="10.195552204292648"><ele>617.0</ele><time>2026-04-04T14:10:08Z</time></trkpt><trkpt lat="44.594434599369535" lon="10.195559167722674"><ele>617.0</ele><time>2026-04-04T14:10:09Z</time></trkpt><trkpt lat="44.59431627302935" lon="10.195542678035604"><ele>617.0</ele><time>2026-04-04T14:10:10Z</time></trkpt><trkpt lat="44.59420216287715" lon="10.195490177880352"><ele>618.25</ele><time>2026-04-04T14:10:11Z</time></trkpt><trkpt lat="44.594083044099534" lon="10.19539330866753"><ele>619.5</ele><time>2026-04-04T14:10:12Z</time></trkpt><trkpt lat="44.59396148649277" lon="10.19530899661888"><ele>620.75</ele><time>2026-04-04T14:10:13Z</time></trkpt><trkpt lat="44.5938433304658" lon="10.195212308606013"><ele>622.0</ele><time>2026-04-04T14:10:14Z</time></trkpt><trkpt lat="44.59369488086835" lon="10.195109088109675"><ele>623.0</ele><time>2026-04-04T14:10:15Z</time></trkpt><trkpt lat="44.59355804008869" lon="10.195019904847783"><ele>624.0</ele><time>2026-04-04T14:10:16Z</time></trkpt><trkpt lat="44.59342394046653" lon="10.194903983965624"><ele>625.0</ele><time>2026-04-04T14:10:17Z</time></trkpt><trkpt lat="44.593289900766905" lon="10.194781150739272"><ele>625.0</ele><time>2026-04-04T14:10:18Z</time></trkpt><trkpt lat="44.593157840467" lon="10.194657770470462"><ele>625.0</ele><time>2026-04-04T14:10:19Z</time></trkpt><trkpt lat="44.59303719373217" lon="10.194536933646587"><ele>625.0</ele><time>2026-04-04T14:10:20Z</time></trkpt><trkpt lat="44.59291040685624" lon="10.19441874945249"><ele>625.3333333333334</ele><time>2026-04-04T14:10:21Z</time></trkpt><trkpt lat="44.59277624893229" lon="10.194295267553338"><ele>625.6666666666666</ele><time>2026-04-04T14:10:22Z</time></trkpt><trkpt lat="44.5926447281609" lon="10.194174094241731"><ele>626.0</ele><time>2026-04-04T14:10:23Z</time></trkpt><trkpt lat="44.59251863699644" lon="10.194057061041566"><ele>627.75</ele><time>2026-04-04T14:10:24Z</time></trkpt><trkpt lat="44.59239140723372" lon="10.193964767760198"><ele>629.5</ele><time>2026-04-04T14:10:25Z</time></trkpt><trkpt lat="44.59226395321733" lon="10.193913900353932"><ele>631.25</ele><time>2026-04-04T14:10:26Z</time></trkpt><trkpt lat="44.59213750090431" lon="10.193902758870248"><ele>633.0</ele><time>2026-04-04T14:10:27Z</time></trkpt><trkpt lat="44.59201314046556" lon="10.193906162083238"><ele>633.75</ele><time>2026-04-04T14:10:28Z</time></trkpt><trkpt lat="44.59187902934889" lon="10.193898938812266"><ele>634.5</ele><time>2026-04-04T14:10:29Z</time></trkpt><trkpt lat="44.59174120323806" lon="10.193878826308982"><ele>635.25</ele><time>2026-04-04T14:10:30Z</time></trkpt><trkpt lat="44.59159822990628" lon="10.193856419561675"><ele>636.0</ele><time>2026-04-04T14:10:31Z</time></trkpt><trkpt lat="44.59146195074128" lon="10.19381773772856"><ele>636.0</ele><time>2026-04-04T14:10:32Z</time></trkpt><trkpt lat="44.59133750334432" lon="10.19374168902731"><ele>636.0</ele><time>2026-04-04T14:10:33Z</time></trkpt><trkpt lat="44.59121744530026" lon="10.193623040861699"><ele>636.0</ele><time>2026-04-04T14:10:34Z</time></trkpt><trkpt lat="44.59111182069889" lon="10.193489026788248"><ele>636.0</ele><time>2026-04-04T14:10:35Z</time></trkpt><trkpt lat="44.5909940494385" lon="10.193352786478775"><ele>636.0</ele><time>2026-04-04T14:10:36Z</time></trkpt><trkpt lat="44.590863226071434" lon="10.193220879896595"><ele>636.0</ele><time>2026-04-04T14:10:37Z</time></trkpt><trkpt lat="44.590716768845326" lon="10.193097618301515"><ele>636.0</ele><time>2026-04-04T14:10:38Z</time></trkpt><trkpt lat="44.59057373211995" lon="10.192995204346994"><ele>638.75</ele><time>2026-04-04T14:10:39Z</time></trkpt><trkpt lat="44.590432118578754" lon="10.192902896561911"><ele>641.5</ele><time>2026-04-04T14:10:40Z</time></trkpt><trkpt lat="44.59029113349372" lon="10.192846279553294"><ele>644.25</ele><time>2026-04-04T14:10:41Z</time></trkpt><trkpt lat="44.59014469923795" lon="10.19284113447635"><ele>647.0</ele><time>2026-04-04T14:10:42Z</time></trkpt><trkpt lat="44.59000715636112" lon="10.19287680109717"><ele>647.0</ele><time>2026-04-04T14:10:43Z</time></trkpt><trkpt lat="44.58989320503349" lon="10.192935432819633"><ele>647.0</ele><time>2026-04-04T14:10:44Z</time></trkpt><trkpt lat="44.5897935829664" lon="10.192984880290643"><ele>647.0</ele><time>2026-04-04T14:10:45Z</time></trkpt><trkpt lat="44.589706304387406" lon="10.192993949152694"><ele>647.0</ele><time>2026-04-04T14:10:46Z</time></trkpt><trkpt lat="44.58961851723749" lon="10.19294802819583"><ele>647.0</ele><time>2026-04-04T14:10:47Z</time></trkpt><trkpt lat="44.589545826675106" lon="10.192832562792509"><ele>647.5</ele><time>2026-04-04T14:10:48Z</time></trkpt><trkpt lat="44.58947685814252" lon="10.192731877056637"><ele>648.0</ele><time>2026-04-04T14:10:49Z</time></trkpt><trkpt lat="44.58939822921453" lon="10.192607509112381"><ele>648.5</ele><time>2026-04-04T14:10:50Z</time></trkpt><trkpt lat="44.58931296170446" lon="10.192480605446386"><ele>649.0</ele><time>2026-04-04T14:10:51Z</time></trkpt><trkpt lat="44.58920939036865" lon="10.192368123450722"><ele>651.75</ele><time>2026-04-04T14:10:52Z</time></trkpt><trkpt lat="44.58908940354612" lon="10.192269209245884"><ele>654.5</ele><time>2026-04-04T14:10:53Z</time></trkpt><trkpt lat="44.58895844984143" lon="10.192176949628609"><ele>657.25</ele><time>2026-04-04T14:10:54Z</time></trkpt><trkpt lat="44.58881810971033" lon="10.192098808566223"><ele>660.0</ele><time>2026-04-04T14:10:55Z</time></trkpt><trkpt lat="44.58867583096785" lon="10.19203873199841"><ele>661.75</ele><time>2026-04-04T14:10:56Z</time></trkpt><trkpt lat="44.5885284238843" lon="10.191993261844726"><ele>663.5</ele><time>2026-04-04T14:10:57Z</time></trkpt><trkpt lat="44.58838132157526" lon="10.1919540511339"><ele>665.25</ele><time>2026-04-04T14:10:58Z</time></trkpt><trkpt lat="44.588254927011825" lon="10.191925892101954"><ele>667.0</ele><time>2026-04-04T14:10:59Z</time></trkpt><trkpt lat="44.588149560265975" lon="10.191896212477857"><ele>667.0</ele><time>2026-04-04T14:11:00Z</time></trkpt><trkpt lat="44.58805841415112" lon="10.191872550316178"><ele>667.0</ele><time>2026-04-04T14:11:01Z</time></trkpt><trkpt lat="44.5879633602727" lon="10.191870803703022"><ele>667.0</ele><time>2026-04-04T14:11:02Z</time></trkpt><trkpt lat="44.587882531330145" lon="10.191922193556964"><ele>667.0</ele><time>2026-04-04T14:11:03Z</time></trkpt><trkpt lat="44.587825622176375" lon="10.192032272971526"><ele>667.0</ele><time>2026-04-04T14:11:04Z</time></trkpt><trkpt lat="44.587793409228205" lon="10.192177859053082"><ele>670.0</ele><time>2026-04-04T14:11:05Z</time></trkpt><trkpt lat="44.587781132294175" lon="10.192352565906555"><ele>673.0</ele><time>2026-04-04T14:11:06Z</time></trkpt><trkpt lat="44.58778674997317" lon="10.192543421293704"><ele>676.0</ele><time>2026-04-04T14:11:07Z</time></trkpt><trkpt lat="44.58779766317957" lon="10.192746706148675"><ele>679.0</ele><time>2026-04-04T14:11:08Z</time></trkpt><trkpt lat="44.58780615674696" lon="10.192969169592832"><ele>681.0</ele><time>2026-04-04T14:11:09Z</time></trkpt><trkpt lat="44.587814832473725" lon="10.193195219306663"><ele>683.0</ele><time>2026-04-04T14:11:10Z</time></trkpt><trkpt lat="44.58783392739628" lon="10.19339169179227"><ele>685.0</ele><time>2026-04-04T14:11:11Z</time></trkpt><trkpt lat="44.58784772521654" lon="10.193545540730058"><ele>687.0</ele><time>2026-04-04T14:11:12Z</time></trkpt><trkpt lat="44.58783689126514" lon="10.193645731817766"><ele>687.0</ele><time>2026-04-04T14:11:13Z</time></trkpt><trkpt lat="44.587729444923" lon="10.193767574465035"><ele>687.0</ele><time>2026-04-04T14:11:15Z</time></trkpt><trkpt lat="44.58764283325946" lon="10.1937762845414"><ele>687.0</ele><time>2026-04-04T14:11:16Z</time></trkpt><trkpt lat="44.58754890596848" lon="10.19372391425008"><ele>687.0</ele><time>2026-04-04T14:11:17Z</time></trkpt><trkpt lat="44.58747028640284" lon="10.193616062423619"><ele>687.0</ele><time>2026-04-04T14:11:18Z</time></trkpt><trkpt lat="44.58740496678413" lon="10.193478241234448"><ele>687.0</ele><time>2026-04-04T14:11:19Z</time></trkpt><trkpt lat="44.58735009383429" lon="10.193314223147084"><ele>687.0</ele><time>2026-04-04T14:11:20Z</time></trkpt><trkpt lat="44.58730227848029" lon="10.193123361043263"><ele>687.0</ele><time>2026-04-04T14:11:21Z</time></trkpt><trkpt lat="44.587232890517924" lon="10.192939311376058"><ele>687.0</ele><time>2026-04-04T14:11:22Z</time></trkpt><trkpt lat="44.58716524916384" lon="10.19274855215873"><ele>686.0</ele><time>2026-04-04T14:11:23Z</time></trkpt><trkpt lat="44.587105505473055" lon="10.192532145402579"><ele>685.0</ele><time>2026-04-04T14:11:24Z</time></trkpt><trkpt lat="44.587046296000324" lon="10.192319879034073"><ele>684.0</ele><time>2026-04-04T14:11:25Z</time></trkpt><trkpt lat="44.586996917298606" lon="10.192103533116201"><ele>696.3333333333334</ele><time>2026-04-04T14:11:26Z</time></trkpt><trkpt lat="44.58695439707628" lon="10.191883729194563"><ele>708.6666666666667</ele><time>2026-04-04T14:11:27Z</time></trkpt><trkpt lat="44.58689490970665" lon="10.19166767943227"><ele>721.0</ele><time>2026-04-04T14:11:28Z</time></trkpt><trkpt lat="44.58683795136331" lon="10.191460153487407"><ele>722.5</ele><time>2026-04-04T14:11:29Z</time></trkpt><trkpt lat="44.58681515012377" lon="10.191256662251641"><ele>724.0</ele><time>2026-04-04T14:11:30Z</time></trkpt><trkpt lat="44.58683672773756" lon="10.191061984994851"><ele>725.5</ele><time>2026-04-04T14:11:31Z</time></trkpt><trkpt lat="44.58688859337328" lon="10.190880061746354"><ele>727.0</ele><time>2026-04-04T14:11:32Z</time></trkpt><trkpt lat="44.586917478825264" lon="10.190698297882973"><ele>728.0</ele><time>2026-04-04T14:11:33Z</time></trkpt><trkpt lat="44.586906135323446" lon="10.190497542979621"><ele>729.0</ele><time>2026-04-04T14:11:34Z</time></trkpt><trkpt lat="44.586881766491324" lon="10.190288332837993"><ele>730.0</ele><time>2026-04-04T14:11:35Z</time></trkpt><trkpt lat="44.58685798084104" lon="10.19009564523335"><ele>731.0</ele><time>2026-04-04T14:11:36Z</time></trkpt><trkpt lat="44.58685238002799" lon="10.18991267977838"><ele>731.25</ele><time>2026-04-04T14:11:37Z</time></trkpt><trkpt lat="44.58688984244708" lon="10.189753112995486"><ele>731.5</ele><time>2026-04-04T14:11:38Z</time></trkpt><trkpt lat="44.58697518950035" lon="10.189613384693926"><ele>731.75</ele><time>2026-04-04T14:11:39Z</time></trkpt><trkpt lat="44.587093572378876" lon="10.189501800169124"><ele>732.0</ele><time>2026-04-04T14:11:40Z</time></trkpt><trkpt lat="44.5872287161927" lon="10.189404162828204"><ele>728.5</ele><time>2026-04-04T14:11:41Z</time></trkpt><trkpt lat="44.587357693180486" lon="10.189315543455809"><ele>725.0</ele><time>2026-04-04T14:11:42Z</time></trkpt><trkpt lat="44.58747906865781" lon="10.189243531486309"><ele>721.5</ele><time>2026-04-04T14:11:43Z</time></trkpt><trkpt lat="44.587621692740925" lon="10.189192475274645"><ele>718.0</ele><time>2026-04-04T14:11:44Z</time></trkpt><trkpt lat="44.58778112254638" lon="10.18916248568794"><ele>718.0</ele><time>2026-04-04T14:11:45Z</time></trkpt><trkpt lat="44.58793836056284" lon="10.189138394665862"><ele>718.0</ele><time>2026-04-04T14:11:46Z</time></trkpt><trkpt lat="44.58810260050635" lon="10.189114639216157"><ele>718.0</ele><time>2026-04-04T14:11:47Z</time></trkpt><trkpt lat="44.588268716800215" lon="10.189081061801664"><ele>718.0</ele><time>2026-04-04T14:11:48Z</time></trkpt><trkpt lat="44.588437810579194" lon="10.189056971776829"><ele>718.0</ele><time>2026-04-04T14:11:49Z</time></trkpt><trkpt lat="44.58860425843139" lon="10.189062007238125"><ele>718.0</ele><time>2026-04-04T14:11:50Z</time></trkpt><trkpt lat="44.58877482078787" lon="10.189118016992628"><ele>722.6666666666667</ele><time>2026-04-04T14:11:51Z</time></trkpt><trkpt lat="44.58894387121907" lon="10.189221054114556"><ele>727.3333333333334</ele><time>2026-04-04T14:11:52Z</time></trkpt><trkpt lat="44.589120530114876" lon="10.189335854673281"><ele>732.0</ele><time>2026-04-04T14:11:53Z</time></trkpt><trkpt lat="44.58930326619044" lon="10.189432146078472"><ele>732.0</ele><time>2026-04-04T14:11:54Z</time></trkpt><trkpt lat="44.5894884373052" lon="10.189511181012586"><ele>732.0</ele><time>2026-04-04T14:11:55Z</time></trkpt><trkpt lat="44.58966682952707" lon="10.189587690458751"><ele>732.0</ele><time>2026-04-04T14:11:56Z</time></trkpt><trkpt lat="44.58982361890855" lon="10.18965507463839"><ele>733.4000000000001</ele><time>2026-04-04T14:11:57Z</time></trkpt><trkpt lat="44.589963986436985" lon="10.189716478666863"><ele>734.8000000000001</ele><time>2026-04-04T14:11:58Z</time></trkpt><trkpt lat="44.59007521733517" lon="10.189765520008137"><ele>736.2</ele><time>2026-04-04T14:11:59Z</time></trkpt><trkpt lat="44.5901684818101" lon="10.189788688187262"><ele>737.6</ele><time>2026-04-04T14:12:00Z</time></trkpt><trkpt lat="44.59025250596064" lon="10.189767611755384"><ele>739.0</ele><time>2026-04-04T14:12:01Z</time></trkpt><trkpt lat="44.59032683580362" lon="10.189689478822835"><ele>734.5</ele><time>2026-04-04T14:12:02Z</time></trkpt><trkpt lat="44.590377870006506" lon="10.189560118070752"><ele>730.0</ele><time>2026-04-04T14:12:03Z</time></trkpt><trkpt lat="44.59040148600719" lon="10.189396138811968"><ele>725.5</ele><time>2026-04-04T14:12:04Z</time></trkpt><trkpt lat="44.59039553846815" lon="10.189204512906697"><ele>721.0</ele><time>2026-04-04T14:12:05Z</time></trkpt><trkpt lat="44.590392500191705" lon="10.188992915779364"><ele>721.0</ele><time>2026-04-04T14:12:06Z</time></trkpt><trkpt lat="44.59037868872021" lon="10.188775418390687"><ele>721.0</ele><time>2026-04-04T14:12:07Z</time></trkpt><trkpt lat="44.59037064729386" lon="10.188536472413315"><ele>721.0</ele><time>2026-04-04T14:12:08Z</time></trkpt><trkpt lat="44.590362812291666" lon="10.188284967762877"><ele>722.0</ele><time>2026-04-04T14:12:09Z</time></trkpt><trkpt lat="44.590352985469536" lon="10.188028577323257"><ele>723.0</ele><time>2026-04-04T14:12:10Z</time></trkpt><trkpt lat="44.59033923321227" lon="10.187768849435558"><ele>724.0</ele><time>2026-04-04T14:12:11Z</time></trkpt><trkpt lat="44.59033937118975" lon="10.187515404903627"><ele>728.3333333333334</ele><time>2026-04-04T14:12:12Z</time></trkpt><trkpt lat="44.59036842711562" lon="10.187275063388734"><ele>732.6666666666666</ele><time>2026-04-04T14:12:13Z</time></trkpt><trkpt lat="44.5904267408262" lon="10.18704605395197"><ele>737.0</ele><time>2026-04-04T14:12:14Z</time></trkpt><trkpt lat="44.59050960523687" lon="10.186817292267168"><ele>737.0</ele><time>2026-04-04T14:12:15Z</time></trkpt><trkpt lat="44.59061802543803" lon="10.186620687573651"><ele>737.0</ele><time>2026-04-04T14:12:16Z</time></trkpt><trkpt lat="44.59074699110277" lon="10.1864368161146"><ele>737.0</ele><time>2026-04-04T14:12:17Z</time></trkpt><trkpt lat="44.59088890200733" lon="10.1862599607998"><ele>739.0</ele><time>2026-04-04T14:12:18Z</time></trkpt><trkpt lat="44.59103945734528" lon="10.186090897738893"><ele>741.0</ele><time>2026-04-04T14:12:19Z</time></trkpt><trkpt lat="44.591175930095744" lon="10.185926185833816"><ele>743.0</ele><time>2026-04-04T14:12:20Z</time></trkpt><trkpt lat="44.59128829445981" lon="10.185785517287846"><ele>743.0</ele><time>2026-04-04T14:12:21Z</time></trkpt><trkpt lat="44.59139028563987" lon="10.185688825789487"><ele>743.0</ele><time>2026-04-04T14:12:22Z</time></trkpt><trkpt lat="44.5915071797647" lon="10.185642010748625"><ele>743.0</ele><time>2026-04-04T14:12:23Z</time></trkpt><trkpt lat="44.5916346613823" lon="10.18565597354972"><ele>743.0</ele><time>2026-04-04T14:12:24Z</time></trkpt><trkpt lat="44.59176313232801" lon="10.18571157218027"><ele>743.0</ele><time>2026-04-04T14:12:25Z</time></trkpt><trkpt lat="44.59188448754099" lon="10.18577681581837"><ele>743.0</ele><time>2026-04-04T14:12:26Z</time></trkpt><trkpt lat="44.59199083227189" lon="10.185816461749623"><ele>743.0</ele><time>2026-04-04T14:12:27Z</time></trkpt><trkpt lat="44.592082579949476" lon="10.185818872200622"><ele>743.0</ele><time>2026-04-04T14:12:28Z</time></trkpt><trkpt lat="44.59216034820573" lon="10.185776176284552"><ele>743.0</ele><time>2026-04-04T14:12:29Z</time></trkpt><trkpt lat="44.592214561628886" lon="10.185690770112597"><ele>745.2</ele><time>2026-04-04T14:12:30Z</time></trkpt><trkpt lat="44.59223877965957" lon="10.185569428552647"><ele>747.4</ele><time>2026-04-04T14:12:31Z</time></trkpt><trkpt lat="44.59221600418564" lon="10.1854426733879"><ele>749.6</ele><time>2026-04-04T14:12:32Z</time></trkpt><trkpt lat="44.59215473057226" lon="10.185326571511414"><ele>751.8000000000001</ele><time>2026-04-04T14:12:33Z</time></trkpt><trkpt lat="44.59206859027369" lon="10.185205585269317"><ele>754.0</ele><time>2026-04-04T14:12:34Z</time></trkpt><trkpt lat="44.591974720912994" lon="10.185072186301399"><ele>754.0</ele><time>2026-04-04T14:12:35Z</time></trkpt><trkpt lat="44.591877239463116" lon="10.184929880374865"><ele>754.0</ele><time>2026-04-04T14:12:36Z</time></trkpt><trkpt lat="44.591787669090685" lon="10.184796967158022"><ele>754.0</ele><time>2026-04-04T14:12:37Z</time></trkpt><trkpt lat="44.59170812999585" lon="10.184673328986685"><ele>754.0</ele><time>2026-04-04T14:12:38Z</time></trkpt><trkpt lat="44.59161338412563" lon="10.184591055603704"><ele>756.5</ele><time>2026-04-04T14:12:39Z</time></trkpt><trkpt lat="44.59149646735993" lon="10.184562672488164"><ele>759.0</ele><time>2026-04-04T14:12:40Z</time></trkpt><trkpt lat="44.591369879904526" lon="10.184595023810182"><ele>761.5</ele><time>2026-04-04T14:12:41Z</time></trkpt><trkpt lat="44.5912456624963" lon="10.184674288776662"><ele>764.0</ele><time>2026-04-04T14:12:42Z</time></trkpt><trkpt lat="44.5911239259235" lon="10.18478350222641"><ele>765.6666666666666</ele><time>2026-04-04T14:12:43Z</time></trkpt><trkpt lat="44.59100291000114" lon="10.18491503274008"><ele>767.3333333333333</ele><time>2026-04-04T14:12:44Z</time></trkpt><trkpt lat="44.590893507199034" lon="10.185087547296023"><ele>769.0</ele><time>2026-04-04T14:12:45Z</time></trkpt><trkpt lat="44.590778750584995" lon="10.18527394660075"><ele>769.0</ele><time>2026-04-04T14:12:46Z</time></trkpt><trkpt lat="44.590656796009974" lon="10.185458016255089"><ele>769.0</ele><time>2026-04-04T14:12:47Z</time></trkpt><trkpt lat="44.590522605716465" lon="10.185649768669819"><ele>769.0</ele><time>2026-04-04T14:12:48Z</time></trkpt><trkpt lat="44.59038469626622" lon="10.18584009647538"><ele>778.3333333333333</ele><time>2026-04-04T14:12:49Z</time></trkpt><trkpt lat="44.59024198289115" lon="10.186036194807901"><ele>787.6666666666667</ele><time>2026-04-04T14:12:50Z</time></trkpt><trkpt lat="44.590103339674414" lon="10.18624764116801"><ele>797.0</ele><time>2026-04-04T14:12:51Z</time></trkpt><trkpt lat="44.58998609640191" lon="10.186481603670046"><ele>792.0</ele><time>2026-04-04T14:12:52Z</time></trkpt><trkpt lat="44.589912473550115" lon="10.18669600518328"><ele>787.0</ele><time>2026-04-04T14:12:53Z</time></trkpt><trkpt lat="44.58984348489754" lon="10.186926487535873"><ele>782.0</ele><time>2026-04-04T14:12:54Z</time></trkpt><trkpt lat="44.58978003661962" lon="10.187145515010725"><ele>782.0</ele><time>2026-04-04T14:12:55Z</time></trkpt><trkpt lat="44.589718513149705" lon="10.187338294453157"><ele>782.0</ele><time>2026-04-04T14:12:56Z</time></trkpt><trkpt lat="44.58966430567117" lon="10.187513067478346"><ele>782.0</ele><time>2026-04-04T14:12:57Z</time></trkpt><trkpt lat="44.58961372468688" lon="10.187660108206947"><ele>782.0</ele><time>2026-04-04T14:12:58Z</time></trkpt><trkpt lat="44.58956609214793" lon="10.187787866850911"><ele>784.0000000000001</ele><time>2026-04-04T14:12:59Z</time></trkpt><trkpt lat="44.58951375093768" lon="10.18788662473238"><ele>786.0</ele><time>2026-04-04T14:13:00Z</time></trkpt><trkpt lat="44.589449001948694" lon="10.18793054526045"><ele>788.0</ele><time>2026-04-04T14:13:01Z</time></trkpt><trkpt lat="44.58936591383873" lon="10.187940646167023"><ele>790.0</ele><time>2026-04-04T14:13:02Z</time></trkpt><trkpt lat="44.58927955165433" lon="10.187904446123204"><ele>792.0000000000001</ele><time>2026-04-04T14:13:03Z</time></trkpt><trkpt lat="44.58918241092383" lon="10.187825734553424"><ele>794.0</ele><time>2026-04-04T14:13:04.001Z</time></trkpt><trkpt lat="44.58907809724403" lon="10.187727991134643"><ele>794.0</ele><time>2026-04-04T14:13:05.001Z</time></trkpt><trkpt lat="44.588958638848105" lon="10.1876196739774"><ele>794.0</ele><time>2026-04-04T14:13:06.001Z</time></trkpt><trkpt lat="44.58883267389733" lon="10.187508299789028"><ele>794.0</ele><time>2026-04-04T14:13:07.001Z</time></trkpt><trkpt lat="44.588696359786624" lon="10.187397187371456"><ele>794.0</ele><time>2026-04-04T14:13:08.001Z</time></trkpt><trkpt lat="44.588553874227934" lon="10.18728983932563"><ele>802.0</ele><time>2026-04-04T14:13:09.001Z</time></trkpt><trkpt lat="44.58840961161122" lon="10.1871850910262"><ele>810.0</ele><time>2026-04-04T14:13:10.001Z</time></trkpt><trkpt lat="44.58827018446137" lon="10.187074263351148"><ele>818.0</ele><time>2026-04-04T14:13:11.001Z</time></trkpt><trkpt lat="44.58812629891007" lon="10.186963108069385"><ele>818.0</ele><time>2026-04-04T14:13:12Z</time></trkpt><trkpt lat="44.587995935713074" lon="10.186846387054471"><ele>818.0</ele><time>2026-04-04T14:13:13Z</time></trkpt><trkpt lat="44.587886969330754" lon="10.186703704430338"><ele>818.0</ele><time>2026-04-04T14:13:14Z</time></trkpt><trkpt lat="44.58779434743685" lon="10.186566410579001"><ele>818.0</ele><time>2026-04-04T14:13:15Z</time></trkpt><trkpt lat="44.587678727182684" lon="10.186470603624269"><ele>819.5</ele><time>2026-04-04T14:13:16Z</time></trkpt><trkpt lat="44.58755088420362" lon="10.18644554220447"><ele>821.0</ele><time>2026-04-04T14:13:17Z</time></trkpt><trkpt lat="44.58743206384305" lon="10.186434647994727"><ele>822.5</ele><time>2026-04-04T14:13:18Z</time></trkpt><trkpt lat="44.587327412545164" lon="10.186360143319957"><ele>824.0</ele><time>2026-04-04T14:13:19Z</time></trkpt><trkpt lat="44.58722943400218" lon="10.186219434886052"><ele>824.0</ele><time>2026-04-04T14:13:20Z</time></trkpt><trkpt lat="44.58713558556415" lon="10.186043083024007"><ele>824.0</ele><time>2026-04-04T14:13:21Z</time></trkpt><trkpt lat="44.587034997195154" lon="10.185847551499565"><ele>824.0</ele><time>2026-04-04T14:13:22Z</time></trkpt><trkpt lat="44.5869341838714" lon="10.18565422232003"><ele>823.0</ele><time>2026-04-04T14:13:23Z</time></trkpt><trkpt lat="44.58682260377981" lon="10.185465479759127"><ele>822.0</ele><time>2026-04-04T14:13:24Z</time></trkpt><trkpt lat="44.58671683951052" lon="10.185271639836838"><ele>821.0</ele><time>2026-04-04T14:13:25Z</time></trkpt><trkpt lat="44.58662273235506" lon="10.185070028530772"><ele>821.0</ele><time>2026-04-04T14:13:26Z</time></trkpt><trkpt lat="44.58654421948354" lon="10.184859016129556"><ele>821.0</ele><time>2026-04-04T14:13:27Z</time></trkpt><trkpt lat="44.586486107507945" lon="10.18465935249754"><ele>821.0</ele><time>2026-04-04T14:13:28Z</time></trkpt><trkpt lat="44.58642980895132" lon="10.184475389572093"><ele>820.5</ele><time>2026-04-04T14:13:29Z</time></trkpt><trkpt lat="44.58635579623286" lon="10.184307286041097"><ele>820.0</ele><time>2026-04-04T14:13:30Z</time></trkpt><trkpt lat="44.58626308399086" lon="10.184143162444753"><ele>819.5</ele><time>2026-04-04T14:13:31Z</time></trkpt><trkpt lat="44.58614268444498" lon="10.184020008101673"><ele>819.0</ele><time>2026-04-04T14:13:32Z</time></trkpt><trkpt lat="44.58599715975621" lon="10.183933361636694"><ele>823.5</ele><time>2026-04-04T14:13:33Z</time></trkpt><trkpt lat="44.58583995595654" lon="10.183870770564651"><ele>828.0</ele><time>2026-04-04T14:13:34Z</time></trkpt><trkpt lat="44.58569164104417" lon="10.183835985890399"><ele>832.5</ele><time>2026-04-04T14:13:35Z</time></trkpt><trkpt lat="44.585586220127" lon="10.183834266397989"><ele>837.0</ele><time>2026-04-04T14:13:36Z</time></trkpt><trkpt lat="44.585483770450345" lon="10.183900727580477"><ele>835.5</ele><time>2026-04-04T14:13:37Z</time></trkpt><trkpt lat="44.585382906074926" lon="10.184024673790576"><ele>834.0</ele><time>2026-04-04T14:13:38Z</time></trkpt><trkpt lat="44.585277825261464" lon="10.184173928001087"><ele>832.5</ele><time>2026-04-04T14:13:39Z</time></trkpt><trkpt lat="44.58515521914415" lon="10.184330771416086"><ele>831.0</ele><time>2026-04-04T14:13:40Z</time></trkpt><trkpt lat="44.5850250556107" lon="10.184492671328359"><ele>831.0</ele><time>2026-04-04T14:13:41Z</time></trkpt><trkpt lat="44.584884666034164" lon="10.184683345477174"><ele>831.0</ele><time>2026-04-04T14:13:42Z</time></trkpt><trkpt lat="44.58475958004722" lon="10.18489592253591"><ele>831.0</ele><time>2026-04-04T14:13:43Z</time></trkpt><trkpt lat="44.58466025731183" lon="10.185068736337302"><ele>828.6666666666667</ele><time>2026-04-04T14:13:44Z</time></trkpt><trkpt lat="44.584596553164815" lon="10.185250036660447"><ele>826.3333333333334</ele><time>2026-04-04T14:13:45Z</time></trkpt><trkpt lat="44.584517392830286" lon="10.185437150145964"><ele>824.0</ele><time>2026-04-04T14:13:46Z</time></trkpt><trkpt lat="44.58444572846926" lon="10.185632673999425"><ele>833.0</ele><time>2026-04-04T14:13:47Z</time></trkpt><trkpt lat="44.584393587888265" lon="10.185854176842406"><ele>842.0</ele><time>2026-04-04T14:13:48Z</time></trkpt><trkpt lat="44.584361170671826" lon="10.186098438340537"><ele>851.0</ele><time>2026-04-04T14:13:49Z</time></trkpt><trkpt lat="44.5843567844305" lon="10.186328896467996"><ele>851.3333333333334</ele><time>2026-04-04T14:13:50Z</time></trkpt><trkpt lat="44.58435524225594" lon="10.18658085051847"><ele>851.6666666666667</ele><time>2026-04-04T14:13:51Z</time></trkpt><trkpt lat="44.58435480809732" lon="10.186827894064898"><ele>852.0</ele><time>2026-04-04T14:13:52Z</time></trkpt><trkpt lat="44.58434783077894" lon="10.187055639488232"><ele>852.0</ele><time>2026-04-04T14:13:53Z</time></trkpt><trkpt lat="44.58435625214496" lon="10.187269567099305"><ele>852.0</ele><time>2026-04-04T14:13:54Z</time></trkpt><trkpt lat="44.584363482805365" lon="10.187457386578554"><ele>852.0</ele><time>2026-04-04T14:13:55Z</time></trkpt><trkpt lat="44.5843224328412" lon="10.1876537548763"><ele>852.0</ele><time>2026-04-04T14:13:56Z</time></trkpt><trkpt lat="44.58426285802437" lon="10.18784647647817"><ele>850.6666666666667</ele><time>2026-04-04T14:13:57Z</time></trkpt><trkpt lat="44.584157738767274" lon="10.1879802096407"><ele>849.3333333333334</ele><time>2026-04-04T14:13:58Z</time></trkpt><trkpt lat="44.58403090441437" lon="10.188111736395845"><ele>848.0</ele><time>2026-04-04T14:13:59Z</time></trkpt><trkpt lat="44.58388996972815" lon="10.188230939966196"><ele>845.6666666666667</ele><time>2026-04-04T14:14:00Z</time></trkpt><trkpt lat="44.58375400127548" lon="10.188365556676672"><ele>843.3333333333333</ele><time>2026-04-04T14:14:01Z</time></trkpt><trkpt lat="44.58360481504423" lon="10.188497899449747"><ele>841.0</ele><time>2026-04-04T14:14:02Z</time></trkpt><trkpt lat="44.58344914171244" lon="10.188632065167901"><ele>844.0</ele><time>2026-04-04T14:14:03Z</time></trkpt><trkpt lat="44.583304605947404" lon="10.18875663371309"><ele>847.0</ele><time>2026-04-04T14:14:04Z</time></trkpt><trkpt lat="44.58318768087739" lon="10.18886552333362"><ele>850.0</ele><time>2026-04-04T14:14:05Z</time></trkpt><trkpt lat="44.58307682807779" lon="10.188952530196357"><ele>853.0</ele><time>2026-04-04T14:14:06Z</time></trkpt><trkpt lat="44.582927322671324" lon="10.18902612227361"><ele>857.3333333333333</ele><time>2026-04-04T14:14:07Z</time></trkpt><trkpt lat="44.58279423331306" lon="10.189058923010071"><ele>861.6666666666667</ele><time>2026-04-04T14:14:08Z</time></trkpt><trkpt lat="44.58264302628084" lon="10.189045604226612"><ele>866.0</ele><time>2026-04-04T14:14:09Z</time></trkpt><trkpt lat="44.582476385121566" lon="10.189049160491399"><ele>866.0</ele><time>2026-04-04T14:14:10Z</time></trkpt><trkpt lat="44.58231278624872" lon="10.189070660913767"><ele>866.0</ele><time>2026-04-04T14:14:11Z</time></trkpt><trkpt lat="44.5821640725193" lon="10.18906043671649"><ele>866.0</ele><time>2026-04-04T14:14:12.001Z</time></trkpt><trkpt lat="44.58203357005575" lon="10.18905240059586"><ele>866.0</ele><time>2026-04-04T14:14:13.001Z</time></trkpt><trkpt lat="44.58192887716087" lon="10.189040719045307"><ele>866.0</ele><time>2026-04-04T14:14:14.001Z</time></trkpt><trkpt lat="44.58185625506336" lon="10.1890425850834"><ele>865.9999999999999</ele><time>2026-04-04T14:14:15.001Z</time></trkpt><trkpt lat="44.58177715694328" lon="10.18901936017601"><ele>865.9999999999999</ele><time>2026-04-04T14:14:16.001Z</time></trkpt><trkpt lat="44.581684666671435" lon="10.189041453856714"><ele>866.0</ele><time>2026-04-04T14:14:17.001Z</time></trkpt><trkpt lat="44.58158082653333" lon="10.18902091474069"><ele>866.0</ele><time>2026-04-04T14:14:18.001Z</time></trkpt><trkpt lat="44.58150167024298" lon="10.188935130993405"><ele>866.0</ele><time>2026-04-04T14:14:19.001Z</time></trkpt><trkpt lat="44.58143969705639" lon="10.18883701977929"><ele>865.9999999999999</ele><time>2026-04-04T14:14:20.001Z</time></trkpt><trkpt lat="44.58144422939887" lon="10.188701161241944"><ele>865.9999999999999</ele><time>2026-04-04T14:14:21.001Z</time></trkpt><trkpt lat="44.581470870617856" lon="10.188575988215682"><ele>866.0</ele><time>2026-04-04T14:14:22.001Z</time></trkpt><trkpt lat="44.58149263726407" lon="10.188413798228526"><ele>866.0</ele><time>2026-04-04T14:14:23.001Z</time></trkpt><trkpt lat="44.58150937268475" lon="10.18825959892018"><ele>866.75</ele><time>2026-04-04T14:14:24.001Z</time></trkpt><trkpt lat="44.5815179928648" lon="10.188087735303174"><ele>867.5</ele><time>2026-04-04T14:14:25.001Z</time></trkpt><trkpt lat="44.581501440503246" lon="10.187930132697518"><ele>868.25</ele><time>2026-04-04T14:14:26.001Z</time></trkpt><trkpt lat="44.58144720840741" lon="10.187781204588156"><ele>869.0</ele><time>2026-04-04T14:14:27.001Z</time></trkpt><trkpt lat="44.58139495842536" lon="10.187651453090433"><ele>869.0</ele><time>2026-04-04T14:14:28.001Z</time></trkpt><trkpt lat="44.581310498386046" lon="10.187527832155103"><ele>869.0</ele><time>2026-04-04T14:14:29.001Z</time></trkpt><trkpt lat="44.581189507010215" lon="10.187460622690292"><ele>869.0</ele><time>2026-04-04T14:14:30.001Z</time></trkpt><trkpt lat="44.58106065962707" lon="10.187434939913137"><ele>869.0</ele><time>2026-04-04T14:14:31.001Z</time></trkpt><trkpt lat="44.58092693565888" lon="10.18744686434545"><ele>866.25</ele><time>2026-04-04T14:14:32.001Z</time></trkpt><trkpt lat="44.5807929243609" lon="10.18746398258712"><ele>863.5</ele><time>2026-04-04T14:14:33.001Z</time></trkpt><trkpt lat="44.58066283145133" lon="10.187469459596509"><ele>860.75</ele><time>2026-04-04T14:14:34.001Z</time></trkpt><trkpt lat="44.580553040295314" lon="10.187442033811891"><ele>858.0</ele><time>2026-04-04T14:14:35.001Z</time></trkpt><trkpt lat="44.580468511204465" lon="10.187400011175297"><ele>857.25</ele><time>2026-04-04T14:14:36.001Z</time></trkpt><trkpt lat="44.58039362292497" lon="10.18730513270313"><ele>856.5</ele><time>2026-04-04T14:14:37.001Z</time></trkpt><trkpt lat="44.580320707155465" lon="10.18716153007331"><ele>855.75</ele><time>2026-04-04T14:14:38.001Z</time></trkpt><trkpt lat="44.58023853695794" lon="10.186997682770398"><ele>855.0</ele><time>2026-04-04T14:14:39.001Z</time></trkpt><trkpt lat="44.58015495850638" lon="10.186808901858345"><ele>855.0</ele><time>2026-04-04T14:14:40.001Z</time></trkpt><trkpt lat="44.58005073208717" lon="10.186621912406538"><ele>855.0</ele><time>2026-04-04T14:14:41.001Z</time></trkpt><trkpt lat="44.57995670394958" lon="10.186437993330074"><ele>855.0</ele><time>2026-04-04T14:14:42.001Z</time></trkpt><trkpt lat="44.57986465679319" lon="10.18626134803428"><ele>855.25</ele><time>2026-04-04T14:14:43.001Z</time></trkpt><trkpt lat="44.579788633372" lon="10.186068564609139"><ele>855.5</ele><time>2026-04-04T14:14:44.001Z</time></trkpt><trkpt lat="44.57972199145282" lon="10.185882784319631"><ele>855.75</ele><time>2026-04-04T14:14:45.001Z</time></trkpt><trkpt lat="44.57966207566821" lon="10.185725312959779"><ele>856.0</ele><time>2026-04-04T14:14:46.001Z</time></trkpt><trkpt lat="44.57960361345798" lon="10.185606178905994"><ele>855.4</ele><time>2026-04-04T14:14:47.001Z</time></trkpt><trkpt lat="44.57953091181076" lon="10.185532477057055"><ele>854.8</ele><time>2026-04-04T14:14:48.001Z</time></trkpt><trkpt lat="44.579440340552104" lon="10.185515332409269"><ele>854.1999999999999</ele><time>2026-04-04T14:14:49.001Z</time></trkpt><trkpt lat="44.57934365928976" lon="10.18552358232967"><ele>853.5999999999999</ele><time>2026-04-04T14:14:50.001Z</time></trkpt><trkpt lat="44.57926462969531" lon="10.185645652029985"><ele>853.0</ele><time>2026-04-04T14:14:51.001Z</time></trkpt><trkpt lat="44.57919909837114" lon="10.185765315447764"><ele>852.9999999999999</ele><time>2026-04-04T14:14:52.001Z</time></trkpt><trkpt lat="44.57914765007484" lon="10.18588217229075"><ele>853.0</ele><time>2026-04-04T14:14:53.001Z</time></trkpt><trkpt lat="44.57908321625093" lon="10.185966760863108"><ele>853.0</ele><time>2026-04-04T14:14:54.001Z</time></trkpt><trkpt lat="44.57905352702102" lon="10.186052623567813"><ele>853.0</ele><time>2026-04-04T14:14:55.001Z</time></trkpt><trkpt lat="44.57898830707039" lon="10.18611364955409"><ele>852.9999999999999</ele><time>2026-04-04T14:14:57.001Z</time></trkpt><trkpt lat="44.57892230671674" lon="10.186154536623917"><ele>853.0</ele><time>2026-04-04T14:18:59.001Z</time></trkpt><trkpt lat="44.57884653635854" lon="10.186163148923963"><ele>853.0</ele><time>2026-04-04T14:19:09.001Z</time></trkpt><trkpt lat="44.578781710162446" lon="10.186156864238708"><ele>853.0</ele><time>2026-04-04T14:19:39.001Z</time></trkpt><trkpt lat="44.57878955984648" lon="10.186277321355378"><ele>853.0</ele><time>2026-04-04T14:20:31.001Z</time></trkpt><trkpt lat="44.578770846595475" lon="10.186167141789852"><ele>853.0</ele><time>2026-04-04T14:22:43.001Z</time></trkpt></trkseg><trkseg><trkpt lat="44.57897838264233" lon="10.186122604848235"><ele>853.0</ele><time>2026-04-04T14:38:51Z</time></trkpt><trkpt lat="44.5789706720392" lon="10.186245870679043"><ele>853.0</ele><time>2026-04-04T14:39:00Z</time></trkpt><trkpt lat="44.57895847550494" lon="10.186351480463511"><ele>853.0</ele><time>2026-04-04T14:39:01Z</time></trkpt><trkpt lat="44.5789265462893" lon="10.186495043599525"><ele>853.0</ele><time>2026-04-04T14:39:02Z</time></trkpt><trkpt lat="44.57888563558674" lon="10.18666407394026"><ele>853.0</ele><time>2026-04-04T14:39:03Z</time></trkpt><trkpt lat="44.57883519471679" lon="10.18680593300971"><ele>850.8</ele><time>2026-04-04T14:39:04Z</time></trkpt><trkpt lat="44.578811587593655" lon="10.186942354612688"><ele>848.5999999999999</ele><time>2026-04-04T14:39:05Z</time></trkpt><trkpt lat="44.57878903910439" lon="10.187075514094037"><ele>846.4000000000001</ele><time>2026-04-04T14:39:06Z</time></trkpt><trkpt lat="44.5787619826138" lon="10.187217834011381"><ele>844.2</ele><time>2026-04-04T14:39:07Z</time></trkpt><trkpt lat="44.578758397690066" lon="10.1873160406906"><ele>842.0</ele><time>2026-04-04T14:39:08Z</time></trkpt><trkpt lat="44.5787083832558" lon="10.187448637278878"><ele>840.8</ele><time>2026-04-04T14:39:09Z</time></trkpt><trkpt lat="44.57865597331362" lon="10.187565457604721"><ele>839.6</ele><time>2026-04-04T14:39:10Z</time></trkpt><trkpt lat="44.578596017483605" lon="10.187650748737928"><ele>838.4</ele><time>2026-04-04T14:39:11Z</time></trkpt><trkpt lat="44.57855336848781" lon="10.187758471395162"><ele>837.1999999999999</ele><time>2026-04-04T14:39:12Z</time></trkpt><trkpt lat="44.57851129002607" lon="10.187867728179821"><ele>836.0</ele><time>2026-04-04T14:39:13Z</time></trkpt><trkpt lat="44.578497691268375" lon="10.187996696316265"><ele>836.0</ele><time>2026-04-04T14:39:14Z</time></trkpt><trkpt lat="44.578502787168766" lon="10.18810755889017"><ele>836.0</ele><time>2026-04-04T14:39:15Z</time></trkpt><trkpt lat="44.57851098529923" lon="10.188231436043043"><ele>836.0</ele><time>2026-04-04T14:39:16Z</time></trkpt><trkpt lat="44.5785031501425" lon="10.188369367308919"><ele>836.0</ele><time>2026-04-04T14:39:17Z</time></trkpt><trkpt lat="44.578467043589" lon="10.18850473384692"><ele>836.0</ele><time>2026-04-04T14:39:18Z</time></trkpt><trkpt lat="44.578427266376906" lon="10.188629731771032"><ele>834.5999999999999</ele><time>2026-04-04T14:39:19Z</time></trkpt><trkpt lat="44.57838612726409" lon="10.188747164353273"><ele>833.2</ele><time>2026-04-04T14:39:20Z</time></trkpt><trkpt lat="44.578341521726955" lon="10.188875248794224"><ele>831.8</ele><time>2026-04-04T14:39:21Z</time></trkpt><trkpt lat="44.57830464922811" lon="10.189001516796917"><ele>830.4000000000001</ele><time>2026-04-04T14:39:22Z</time></trkpt><trkpt lat="44.57826736837116" lon="10.189117865127042"><ele>829.0</ele><time>2026-04-04T14:39:23Z</time></trkpt><trkpt lat="44.57821041906859" lon="10.189208804099453"><ele>828.6666666666666</ele><time>2026-04-04T14:39:24Z</time></trkpt><trkpt lat="44.57816799170678" lon="10.189309722401191"><ele>828.3333333333333</ele><time>2026-04-04T14:39:25Z</time></trkpt><trkpt lat="44.57810372959114" lon="10.189399398312293"><ele>828.0</ele><time>2026-04-04T14:39:26Z</time></trkpt><trkpt lat="44.57804252737136" lon="10.189464226437924"><ele>827.6666666666667</ele><time>2026-04-04T14:39:27Z</time></trkpt><trkpt lat="44.57797975400514" lon="10.189544893848336"><ele>827.3333333333334</ele><time>2026-04-04T14:39:29Z</time></trkpt><trkpt lat="44.57791856177031" lon="10.189441908430991"><ele>827.0</ele><time>2026-04-04T14:39:33Z</time></trkpt><trkpt lat="44.57786870243461" lon="10.18928557050281"><ele>824.0000000000001</ele><time>2026-04-04T14:39:35Z</time></trkpt><trkpt lat="44.57784121930032" lon="10.18919654071017"><ele>821.0</ele><time>2026-04-04T14:39:36Z</time></trkpt><trkpt lat="44.57780370242018" lon="10.18906783712981"><ele>818.0</ele><time>2026-04-04T14:39:38Z</time></trkpt><trkpt lat="44.57767709315213" lon="10.189084628104023"><ele>815.0</ele><time>2026-04-04T14:39:41Z</time></trkpt><trkpt lat="44.57761054380845" lon="10.189137403720077"><ele>812.0000000000001</ele><time>2026-04-04T14:39:42Z</time></trkpt><trkpt lat="44.57754206566145" lon="10.189183037752711"><ele>809.0</ele><time>2026-04-04T14:39:43Z</time></trkpt><trkpt lat="44.57747650170391" lon="10.18921998904422"><ele>809.0000000000001</ele><time>2026-04-04T14:39:44Z</time></trkpt><trkpt lat="44.577409063433834" lon="10.189250891906816"><ele>809.0</ele><time>2026-04-04T14:39:45Z</time></trkpt><trkpt lat="44.577325829053336" lon="10.18927833275824"><ele>809.0</ele><time>2026-04-04T14:39:46Z</time></trkpt><trkpt lat="44.577258084900855" lon="10.18933327697919"><ele>809.0</ele><time>2026-04-04T14:39:47Z</time></trkpt><trkpt lat="44.577193039435166" lon="10.189362548019151"><ele>809.0000000000001</ele><time>2026-04-04T14:39:48Z</time></trkpt><trkpt lat="44.577129134366544" lon="10.189379931228201"><ele>809.0</ele><time>2026-04-04T14:39:49Z</time></trkpt><trkpt lat="44.577016182407625" lon="10.189405503339222"><ele>804.6666666666667</ele><time>2026-04-04T14:39:51Z</time></trkpt><trkpt lat="44.57691920225364" lon="10.18946061991193"><ele>800.3333333333334</ele><time>2026-04-04T14:39:53Z</time></trkpt><trkpt lat="44.576833444286514" lon="10.189494768793955"><ele>796.0</ele><time>2026-04-04T14:39:55Z</time></trkpt><trkpt lat="44.57676448509697" lon="10.1895297937848"><ele>791.6666666666667</ele><time>2026-04-04T14:39:57Z</time></trkpt><trkpt lat="44.576724523432844" lon="10.189461359350158"><ele>787.3333333333334</ele><time>2026-04-04T14:39:59Z</time></trkpt><trkpt lat="44.576718637981266" lon="10.189322830803095"><ele>783.0</ele><time>2026-04-04T14:40:02Z</time></trkpt><trkpt lat="44.576666991507274" lon="10.189263775269497"><ele>783.0</ele><time>2026-04-04T14:40:04Z</time></trkpt><trkpt lat="44.576563907904635" lon="10.189409696347946"><ele>783.0</ele><time>2026-04-04T14:40:06Z</time></trkpt><trkpt lat="44.57650755405297" lon="10.18950713728202"><ele>783.0</ele><time>2026-04-04T14:40:07Z</time></trkpt><trkpt lat="44.576429517351905" lon="10.189603940681772"><ele>783.0</ele><time>2026-04-04T14:40:08Z</time></trkpt><trkpt lat="44.576360728981236" lon="10.189701672798526"><ele>783.0</ele><time>2026-04-04T14:40:09Z</time></trkpt><trkpt lat="44.576313459294994" lon="10.189813214677581"><ele>783.5999999999999</ele><time>2026-04-04T14:40:10Z</time></trkpt><trkpt lat="44.57628898222684" lon="10.189919297851194"><ele>784.1999999999999</ele><time>2026-04-04T14:40:11Z</time></trkpt><trkpt lat="44.576272897193085" lon="10.190044300067544"><ele>784.8</ele><time>2026-04-04T14:40:13Z</time></trkpt><trkpt lat="44.57617065554768" lon="10.189989047784389"><ele>785.4</ele><time>2026-04-04T14:40:16Z</time></trkpt><trkpt lat="44.57606856674417" lon="10.18992864952033"><ele>786.0</ele><time>2026-04-04T14:40:18Z</time></trkpt><trkpt lat="44.57597105721419" lon="10.190022600620331"><ele>781.5</ele><time>2026-04-04T14:40:20Z</time></trkpt><trkpt lat="44.5759223932906" lon="10.190123944654149"><ele>777.0</ele><time>2026-04-04T14:40:21Z</time></trkpt><trkpt lat="44.57587043777941" lon="10.19023262027631"><ele>772.5</ele><time>2026-04-04T14:40:22Z</time></trkpt><trkpt lat="44.575799121104936" lon="10.190312051042133"><ele>768.0</ele><time>2026-04-04T14:40:23Z</time></trkpt><trkpt lat="44.575723318131054" lon="10.190370278563558"><ele>763.5</ele><time>2026-04-04T14:40:24Z</time></trkpt><trkpt lat="44.57563808300852" lon="10.190404973657477"><ele>759.0</ele><time>2026-04-04T14:40:25Z</time></trkpt><trkpt lat="44.57555423297942" lon="10.190433131637294"><ele>759.0</ele><time>2026-04-04T14:40:26Z</time></trkpt><trkpt lat="44.57547109218967" lon="10.190462034104312"><ele>759.0</ele><time>2026-04-04T14:40:27Z</time></trkpt><trkpt lat="44.575397013618336" lon="10.190501959465292"><ele>759.0</ele><time>2026-04-04T14:40:28Z</time></trkpt><trkpt lat="44.57533614684076" lon="10.190562526658846"><ele>759.0</ele><time>2026-04-04T14:40:29Z</time></trkpt><trkpt lat="44.575283463290056" lon="10.190649438667522"><ele>759.0</ele><time>2026-04-04T14:40:30Z</time></trkpt><trkpt lat="44.57523402491238" lon="10.190746939009212"><ele>759.0</ele><time>2026-04-04T14:40:31Z</time></trkpt><trkpt lat="44.575177437743456" lon="10.190855311066533"><ele>755.8000000000001</ele><time>2026-04-04T14:40:32Z</time></trkpt><trkpt lat="44.57513946571868" lon="10.19097826485055"><ele>752.6</ele><time>2026-04-04T14:40:33Z</time></trkpt><trkpt lat="44.57508975589386" lon="10.191081129815855"><ele>749.4</ele><time>2026-04-04T14:40:34Z</time></trkpt><trkpt lat="44.57504888652705" lon="10.191212509557948"><ele>746.2</ele><time>2026-04-04T14:40:35Z</time></trkpt><trkpt lat="44.57501459547826" lon="10.191365617193954"><ele>743.0</ele><time>2026-04-04T14:40:36Z</time></trkpt><trkpt lat="44.57497739807799" lon="10.191522338985733"><ele>743.0</ele><time>2026-04-04T14:40:37Z</time></trkpt><trkpt lat="44.57492368206282" lon="10.191664520202965"><ele>743.0</ele><time>2026-04-04T14:40:38Z</time></trkpt><trkpt lat="44.57484981058513" lon="10.191799086251667"><ele>743.0</ele><time>2026-04-04T14:40:39Z</time></trkpt><trkpt lat="44.57476939305175" lon="10.191933235195382"><ele>743.0</ele><time>2026-04-04T14:40:40Z</time></trkpt><trkpt lat="44.57470528684854" lon="10.192072016148181"><ele>743.0</ele><time>2026-04-04T14:40:41Z</time></trkpt><trkpt lat="44.57464271296162" lon="10.192191910650058"><ele>743.0</ele><time>2026-04-04T14:40:42Z</time></trkpt><trkpt lat="44.57460686632298" lon="10.192296729436338"><ele>743.0</ele><time>2026-04-04T14:40:43Z</time></trkpt><trkpt lat="44.57456809732657" lon="10.192407708961996"><ele>743.0</ele><time>2026-04-04T14:40:45Z</time></trkpt><trkpt lat="44.57449142577734" lon="10.19234964218136"><ele>743.0</ele><time>2026-04-04T14:40:48Z</time></trkpt><trkpt lat="44.57444622542567" lon="10.192235675462923"><ele>738.0</ele><time>2026-04-04T14:40:49Z</time></trkpt><trkpt lat="44.574380798705384" lon="10.192108743184297"><ele>733.0</ele><time>2026-04-04T14:40:50Z</time></trkpt><trkpt lat="44.57434235574678" lon="10.191964142223046"><ele>728.0</ele><time>2026-04-04T14:40:51Z</time></trkpt><trkpt lat="44.574297833819614" lon="10.191836016491818"><ele>723.0</ele><time>2026-04-04T14:40:52Z</time></trkpt><trkpt lat="44.57425338198841" lon="10.191704656907541"><ele>718.0</ele><time>2026-04-04T14:40:53Z</time></trkpt><trkpt lat="44.57421634918465" lon="10.191553518405026"><ele>717.5</ele><time>2026-04-04T14:40:54Z</time></trkpt><trkpt lat="44.57421598431601" lon="10.191388224544271"><ele>717.0</ele><time>2026-04-04T14:40:55Z</time></trkpt><trkpt lat="44.57418933200338" lon="10.191218766129404"><ele>716.5</ele><time>2026-04-04T14:40:56Z</time></trkpt><trkpt lat="44.57419346962815" lon="10.191052285086133"><ele>716.0</ele><time>2026-04-04T14:40:57Z</time></trkpt><trkpt lat="44.57420243791547" lon="10.190895607222982"><ele>716.0</ele><time>2026-04-04T14:40:58Z</time></trkpt><trkpt lat="44.57421716169183" lon="10.190757291744843"><ele>716.0</ele><time>2026-04-04T14:40:59Z</time></trkpt><trkpt lat="44.57421498943562" lon="10.190638074031044"><ele>716.0</ele><time>2026-04-04T14:41:00Z</time></trkpt><trkpt lat="44.57421654311146" lon="10.190540557408921"><ele>716.0</ele><time>2026-04-04T14:41:01Z</time></trkpt><trkpt lat="44.57417684448229" lon="10.190384829032984"><ele>716.0</ele><time>2026-04-04T14:41:03Z</time></trkpt><trkpt lat="44.574199263550916" lon="10.1902708162105"><ele>715.0</ele><time>2026-04-04T14:41:04Z</time></trkpt><trkpt lat="44.57427116343713" lon="10.190164550898343"><ele>714.0</ele><time>2026-04-04T14:41:05Z</time></trkpt><trkpt lat="44.5743381752857" lon="10.190029575973217"><ele>713.0</ele><time>2026-04-04T14:41:06Z</time></trkpt><trkpt lat="44.57441793093857" lon="10.18988634247947"><ele>712.0</ele><time>2026-04-04T14:41:07Z</time></trkpt><trkpt lat="44.57448330846644" lon="10.189715696971753"><ele>720.0</ele><time>2026-04-04T14:41:08Z</time></trkpt><trkpt lat="44.5745258809591" lon="10.189517995703607"><ele>728.0</ele><time>2026-04-04T14:41:09Z</time></trkpt><trkpt lat="44.57454128602351" lon="10.189302714571298"><ele>736.0</ele><time>2026-04-04T14:41:10Z</time></trkpt><trkpt lat="44.574546267794304" lon="10.18907046050043"><ele>735.6666666666667</ele><time>2026-04-04T14:41:11Z</time></trkpt><trkpt lat="44.57455731186175" lon="10.188829388119501"><ele>735.3333333333334</ele><time>2026-04-04T14:41:12Z</time></trkpt><trkpt lat="44.57458157850938" lon="10.188583585047578"><ele>735.0</ele><time>2026-04-04T14:41:13Z</time></trkpt><trkpt lat="44.57462544229096" lon="10.188339729754704"><ele>736.6666666666666</ele><time>2026-04-04T14:41:14Z</time></trkpt><trkpt lat="44.574683369915725" lon="10.188104144259077"><ele>738.3333333333333</ele><time>2026-04-04T14:41:15Z</time></trkpt><trkpt lat="44.574751407942394" lon="10.187873211736417"><ele>740.0</ele><time>2026-04-04T14:41:16Z</time></trkpt><trkpt lat="44.57480320117721" lon="10.187643714425763"><ele>740.0</ele><time>2026-04-04T14:41:17Z</time></trkpt><trkpt lat="44.574816247422994" lon="10.187411033334774"><ele>740.0</ele><time>2026-04-04T14:41:18Z</time></trkpt><trkpt lat="44.57480050341094" lon="10.187176902307458"><ele>740.0</ele><time>2026-04-04T14:41:19Z</time></trkpt><trkpt lat="44.574760245485294" lon="10.186949146839659"><ele>742.0</ele><time>2026-04-04T14:41:20Z</time></trkpt><trkpt lat="44.57472492241533" lon="10.186745425356161"><ele>744.0</ele><time>2026-04-04T14:41:21Z</time></trkpt><trkpt lat="44.57470921284974" lon="10.186551694112241"><ele>746.0</ele><time>2026-04-04T14:41:22Z</time></trkpt><trkpt lat="44.574744239495885" lon="10.186375511062282"><ele>748.0</ele><time>2026-04-04T14:41:23Z</time></trkpt><trkpt lat="44.57481354430816" lon="10.186222598909563"><ele>748.5</ele><time>2026-04-04T14:41:24Z</time></trkpt><trkpt lat="44.574878027973966" lon="10.1860527787451"><ele>749.0</ele><time>2026-04-04T14:41:25Z</time></trkpt><trkpt lat="44.574935438178024" lon="10.185878053849828"><ele>749.5</ele><time>2026-04-04T14:41:26Z</time></trkpt><trkpt lat="44.57493998621987" lon="10.185680605457767"><ele>750.0</ele><time>2026-04-04T14:41:27Z</time></trkpt><trkpt lat="44.57491012625061" lon="10.1854793880104"><ele>752.0</ele><time>2026-04-04T14:41:28Z</time></trkpt><trkpt lat="44.57485597490985" lon="10.18527317667389"><ele>754.0</ele><time>2026-04-04T14:41:29Z</time></trkpt><trkpt lat="44.57480149787792" lon="10.185063292259905"><ele>756.0</ele><time>2026-04-04T14:41:30Z</time></trkpt><trkpt lat="44.574754905374206" lon="10.18484325731136"><ele>759.0</ele><time>2026-04-04T14:41:31Z</time></trkpt><trkpt lat="44.57471353426047" lon="10.184613314547557"><ele>762.0</ele><time>2026-04-04T14:41:32Z</time></trkpt><trkpt lat="44.57466921393516" lon="10.184374792530921"><ele>765.0</ele><time>2026-04-04T14:41:33Z</time></trkpt><trkpt lat="44.57461854183593" lon="10.184134929033696"><ele>769.0</ele><time>2026-04-04T14:41:34Z</time></trkpt><trkpt lat="44.57456903650519" lon="10.183890144303067"><ele>773.0</ele><time>2026-04-04T14:41:35Z</time></trkpt><trkpt lat="44.574520826995204" lon="10.18364379534902"><ele>777.0</ele><time>2026-04-04T14:41:36Z</time></trkpt><trkpt lat="44.57447374107395" lon="10.183401088170235"><ele>769.0</ele><time>2026-04-04T14:41:37Z</time></trkpt><trkpt lat="44.57442889987355" lon="10.183174243879563"><ele>761.0</ele><time>2026-04-04T14:41:38Z</time></trkpt><trkpt lat="44.574385489177004" lon="10.182969799386049"><ele>753.0</ele><time>2026-04-04T14:41:39Z</time></trkpt><trkpt lat="44.574354977907696" lon="10.182755626756677"><ele>753.0</ele><time>2026-04-04T14:41:40Z</time></trkpt><trkpt lat="44.57435700131763" lon="10.182519781551571"><ele>753.0</ele><time>2026-04-04T14:41:41Z</time></trkpt><trkpt lat="44.574382630472876" lon="10.1822866762338"><ele>753.0</ele><time>2026-04-04T14:41:42Z</time></trkpt><trkpt lat="44.574416740173056" lon="10.182077057067183"><ele>752.25</ele><time>2026-04-04T14:41:43Z</time></trkpt><trkpt lat="44.57449137721063" lon="10.181931371174926"><ele>751.5</ele><time>2026-04-04T14:41:44Z</time></trkpt><trkpt lat="44.57456478482985" lon="10.181811208478297"><ele>750.75</ele><time>2026-04-04T14:41:45Z</time></trkpt><trkpt lat="44.57463924613493" lon="10.181669559092144"><ele>750.0</ele><time>2026-04-04T14:41:46Z</time></trkpt><trkpt lat="44.57472418597472" lon="10.181521991935435"><ele>759.3333333333333</ele><time>2026-04-04T14:41:47Z</time></trkpt><trkpt lat="44.574784637020244" lon="10.181329139661056"><ele>768.6666666666666</ele><time>2026-04-04T14:41:48Z</time></trkpt><trkpt lat="44.574852374872" lon="10.181123686727362"><ele>778.0</ele><time>2026-04-04T14:41:49Z</time></trkpt><trkpt lat="44.574964039649934" lon="10.18094675255225"><ele>778.0</ele><time>2026-04-04T14:41:50Z</time></trkpt><trkpt lat="44.57506549244147" lon="10.180750451897904"><ele>778.0</ele><time>2026-04-04T14:41:51Z</time></trkpt><trkpt lat="44.57516338303586" lon="10.180576332364806"><ele>778.0</ele><time>2026-04-04T14:41:52Z</time></trkpt><trkpt lat="44.575222020384174" lon="10.180401782002534"><ele>777.6666666666666</ele><time>2026-04-04T14:41:53Z</time></trkpt><trkpt lat="44.57524734207685" lon="10.180191785341373"><ele>777.3333333333333</ele><time>2026-04-04T14:41:54Z</time></trkpt><trkpt lat="44.57524819603256" lon="10.179956862741516"><ele>777.0</ele><time>2026-04-04T14:41:55Z</time></trkpt><trkpt lat="44.57523734313598" lon="10.179708152170749"><ele>777.0</ele><time>2026-04-04T14:41:56Z</time></trkpt><trkpt lat="44.575230505202974" lon="10.179449074097258"><ele>777.0</ele><time>2026-04-04T14:41:57Z</time></trkpt><trkpt lat="44.57522918302045" lon="10.179172987198776"><ele>777.0</ele><time>2026-04-04T14:41:58Z</time></trkpt><trkpt lat="44.575228151463804" lon="10.178898757785015"><ele>779.6666666666667</ele><time>2026-04-04T14:41:59Z</time></trkpt><trkpt lat="44.57522759096243" lon="10.178643335911758"><ele>782.3333333333334</ele><time>2026-04-04T14:42:00Z</time></trkpt><trkpt lat="44.57522307148079" lon="10.178391722404555"><ele>785.0</ele><time>2026-04-04T14:42:01Z</time></trkpt><trkpt lat="44.575229711221105" lon="10.178148875115177"><ele>786.3333333333334</ele><time>2026-04-04T14:42:02Z</time></trkpt><trkpt lat="44.57525738227772" lon="10.177910656757236"><ele>787.6666666666667</ele><time>2026-04-04T14:42:03Z</time></trkpt><trkpt lat="44.57533461352428" lon="10.17769483883894"><ele>789.0</ele><time>2026-04-04T14:42:04Z</time></trkpt><trkpt lat="44.57541197443725" lon="10.177468910394907"><ele>799.3333333333333</ele><time>2026-04-04T14:42:05Z</time></trkpt><trkpt lat="44.57547961537091" lon="10.177248194581518"><ele>809.6666666666666</ele><time>2026-04-04T14:42:06Z</time></trkpt><trkpt lat="44.57554585330319" lon="10.177059003652928"><ele>820.0</ele><time>2026-04-04T14:42:07Z</time></trkpt><trkpt lat="44.57559965765239" lon="10.17687325977655"><ele>820.0</ele><time>2026-04-04T14:42:08Z</time></trkpt><trkpt lat="44.575627920164585" lon="10.176684719732428"><ele>820.0</ele><time>2026-04-04T14:42:09Z</time></trkpt><trkpt lat="44.5756152940441" lon="10.17649742174439"><ele>820.0</ele><time>2026-04-04T14:42:10Z</time></trkpt><trkpt lat="44.57556966250527" lon="10.17630553048397"><ele>820.0</ele><time>2026-04-04T14:42:11Z</time></trkpt><trkpt lat="44.57549338508568" lon="10.176128725858197"><ele>819.0</ele><time>2026-04-04T14:42:12Z</time></trkpt><trkpt lat="44.575390245897836" lon="10.175977483466182"><ele>818.0</ele><time>2026-04-04T14:42:13Z</time></trkpt><trkpt lat="44.5752713686853" lon="10.175857790597243"><ele>817.0</ele><time>2026-04-04T14:42:14Z</time></trkpt><trkpt lat="44.57515172730267" lon="10.175744141628831"><ele>816.0</ele><time>2026-04-04T14:42:15Z</time></trkpt><trkpt lat="44.57505822566197" lon="10.17559858477269"><ele>816.0</ele><time>2026-04-04T14:42:16Z</time></trkpt><trkpt lat="44.57502771383807" lon="10.175406888308498"><ele>816.0</ele><time>2026-04-04T14:42:17Z</time></trkpt><trkpt lat="44.57501831478704" lon="10.175215345996032"><ele>816.0</ele><time>2026-04-04T14:42:18Z</time></trkpt><trkpt lat="44.575004560393474" lon="10.17499218034402"><ele>816.0</ele><time>2026-04-04T14:42:19Z</time></trkpt><trkpt lat="44.574980741678566" lon="10.174764691738622"><ele>818.6666666666667</ele><time>2026-04-04T14:42:20Z</time></trkpt><trkpt lat="44.57496850954616" lon="10.17452183595741"><ele>821.3333333333334</ele><time>2026-04-04T14:42:21Z</time></trkpt><trkpt lat="44.574950187485534" lon="10.174267317677282"><ele>824.0</ele><time>2026-04-04T14:42:22Z</time></trkpt><trkpt lat="44.57493319274013" lon="10.174004993643575"><ele>825.0</ele><time>2026-04-04T14:42:23Z</time></trkpt><trkpt lat="44.5749174034601" lon="10.173735352271269"><ele>826.0</ele><time>2026-04-04T14:42:24Z</time></trkpt><trkpt lat="44.574901833544885" lon="10.173472630796185"><ele>827.0</ele><time>2026-04-04T14:42:25Z</time></trkpt><trkpt lat="44.574885774496074" lon="10.173231325509567"><ele>829.5</ele><time>2026-04-04T14:42:26Z</time></trkpt><trkpt lat="44.57485044232542" lon="10.173029801359911"><ele>832.0</ele><time>2026-04-04T14:42:27Z</time></trkpt><trkpt lat="44.574775899829646" lon="10.172856413288478"><ele>834.5</ele><time>2026-04-04T14:42:28Z</time></trkpt><trkpt lat="44.57467319369108" lon="10.172704756597035"><ele>837.0</ele><time>2026-04-04T14:42:29Z</time></trkpt><trkpt lat="44.574568085700676" lon="10.17257672458616"><ele>834.5</ele><time>2026-04-04T14:42:30Z</time></trkpt><trkpt lat="44.5744809490165" lon="10.172447418785149"><ele>832.0</ele><time>2026-04-04T14:42:31Z</time></trkpt><trkpt lat="44.57445935754707" lon="10.172280610094955"><ele>829.5</ele><time>2026-04-04T14:42:32Z</time></trkpt><trkpt lat="44.57446680073885" lon="10.172102907342962"><ele>827.0</ele><time>2026-04-04T14:42:33Z</time></trkpt><trkpt lat="44.57448779974504" lon="10.171897288157314"><ele>827.0</ele><time>2026-04-04T14:42:34Z</time></trkpt><trkpt lat="44.574512236470746" lon="10.171681682259257"><ele>827.0</ele><time>2026-04-04T14:42:35Z</time></trkpt><trkpt lat="44.57455578151002" lon="10.171452829695035"><ele>827.0</ele><time>2026-04-04T14:42:36Z</time></trkpt><trkpt lat="44.57463707193456" lon="10.171266952676946"><ele>835.25</ele><time>2026-04-04T14:42:37Z</time></trkpt><trkpt lat="44.57466784223822" lon="10.171089223469462"><ele>843.5</ele><time>2026-04-04T14:42:38Z</time></trkpt><trkpt lat="44.57467992729866" lon="10.170935740810569"><ele>851.75</ele><time>2026-04-04T14:42:39Z</time></trkpt><trkpt lat="44.57463709930256" lon="10.170784005974706"><ele>860.0</ele><time>2026-04-04T14:42:40Z</time></trkpt><trkpt lat="44.57456857425588" lon="10.170633023597334"><ele>856.3333333333334</ele><time>2026-04-04T14:42:41Z</time></trkpt><trkpt lat="44.57447986535252" lon="10.17047606454816"><ele>852.6666666666667</ele><time>2026-04-04T14:42:42Z</time></trkpt><trkpt lat="44.57438252338436" lon="10.170306929686413"><ele>849.0</ele><time>2026-04-04T14:42:43Z</time></trkpt><trkpt lat="44.57428597133261" lon="10.170122448086174"><ele>849.0</ele><time>2026-04-04T14:42:44Z</time></trkpt><trkpt lat="44.57419441005828" lon="10.16993180215809"><ele>849.0</ele><time>2026-04-04T14:42:45Z</time></trkpt><trkpt lat="44.57410156102473" lon="10.169744512652525"><ele>849.0</ele><time>2026-04-04T14:42:46Z</time></trkpt><trkpt lat="44.57401272537977" lon="10.169574599904902"><ele>848.0</ele><time>2026-04-04T14:42:47Z</time></trkpt><trkpt lat="44.573927000473695" lon="10.169406395663312"><ele>847.0</ele><time>2026-04-04T14:42:48Z</time></trkpt><trkpt lat="44.57385262268288" lon="10.169252970172218"><ele>846.0</ele><time>2026-04-04T14:42:49Z</time></trkpt><trkpt lat="44.57378083307903" lon="10.169112335232237"><ele>845.0</ele><time>2026-04-04T14:42:50Z</time></trkpt><trkpt lat="44.573722135951655" lon="10.168999956724338"><ele>844.0</ele><time>2026-04-04T14:42:51Z</time></trkpt><trkpt lat="44.57367292096268" lon="10.16891253741789"><ele>843.0</ele><time>2026-04-04T14:42:52Z</time></trkpt><trkpt lat="44.573626530113934" lon="10.168758180637504"><ele>842.0</ele><time>2026-04-04T14:42:54Z</time></trkpt><trkpt lat="44.573493687066744" lon="10.168726564342093"><ele>841.0</ele><time>2026-04-04T14:42:55Z</time></trkpt><trkpt lat="44.57339448564342" lon="10.16873045258826"><ele>840.0</ele><time>2026-04-04T14:42:56Z</time></trkpt><trkpt lat="44.5732970922796" lon="10.16872527879404"><ele>840.0</ele><time>2026-04-04T14:42:57Z</time></trkpt><trkpt lat="44.57323079300532" lon="10.168701881097055"><ele>840.0</ele><time>2026-04-04T14:42:58Z</time></trkpt><trkpt lat="44.57316450394055" lon="10.168695382170508"><ele>840.0</ele><time>2026-04-04T14:43:13Z</time></trkpt><trkpt lat="44.57302420422199" lon="10.168641791998155"><ele>840.0</ele><time>2026-04-04T14:43:15Z</time></trkpt><trkpt lat="44.5729234140039" lon="10.168584506858615"><ele>840.0</ele><time>2026-04-04T14:43:16Z</time></trkpt><trkpt lat="44.57282581707656" lon="10.168489792153121"><ele>840.25</ele><time>2026-04-04T14:43:17Z</time></trkpt><trkpt lat="44.57273654278594" lon="10.168394706948648"><ele>840.5</ele><time>2026-04-04T14:43:18Z</time></trkpt><trkpt lat="44.57266280763708" lon="10.168277615065966"><ele>840.75</ele><time>2026-04-04T14:43:19Z</time></trkpt><trkpt lat="44.57256840384562" lon="10.168181780483708"><ele>841.0</ele><time>2026-04-04T14:43:20Z</time></trkpt><trkpt lat="44.57250539789491" lon="10.168022798173054"><ele>841.25</ele><time>2026-04-04T14:43:21Z</time></trkpt><trkpt lat="44.572448714995204" lon="10.16785921860292"><ele>841.5</ele><time>2026-04-04T14:43:22Z</time></trkpt><trkpt lat="44.57239225650088" lon="10.167702771948461"><ele>841.75</ele><time>2026-04-04T14:43:23Z</time></trkpt><trkpt lat="44.57231571759571" lon="10.1675768506364"><ele>842.0</ele><time>2026-04-04T14:43:24Z</time></trkpt><trkpt lat="44.5722493419689" lon="10.1674718007095"><ele>842.0000000000001</ele><time>2026-04-04T14:43:25Z</time></trkpt><trkpt lat="44.57220016583879" lon="10.167397246455014"><ele>842.0</ele><time>2026-04-04T14:43:26Z</time></trkpt><trkpt lat="44.57215256563088" lon="10.167289131880453"><ele>842.0</ele><time>2026-04-04T14:43:27Z</time></trkpt><trkpt lat="44.57213299142526" lon="10.167154167355925"><ele>842.0</ele><time>2026-04-04T14:43:28Z</time></trkpt><trkpt lat="44.57212046285331" lon="10.167048430480158"><ele>842.0000000000001</ele><time>2026-04-04T14:43:29Z</time></trkpt><trkpt lat="44.57210169433307" lon="10.166956388233775"><ele>842.0</ele><time>2026-04-04T14:43:30Z</time></trkpt><trkpt lat="44.57205044458792" lon="10.166818276459"><ele>841.5000000000001</ele><time>2026-04-04T14:43:32Z</time></trkpt><trkpt lat="44.572005710781276" lon="10.166705024050984"><ele>841.0</ele><time>2026-04-04T14:43:34Z</time></trkpt><trkpt lat="44.57195903408854" lon="10.166633042858948"><ele>840.5</ele><time>2026-04-04T14:43:35Z</time></trkpt><trkpt lat="44.571882318031605" lon="10.166500247528523"><ele>840.0</ele><time>2026-04-04T14:43:37Z</time></trkpt><trkpt lat="44.57185572363018" lon="10.166407160131497"><ele>839.5000000000001</ele><time>2026-04-04T14:43:38Z</time></trkpt><trkpt lat="44.571821812044234" lon="10.166318809410967"><ele>839.0</ele><time>2026-04-04T14:43:39Z</time></trkpt><trkpt lat="44.5718154658864" lon="10.166223122231978"><ele>837.6666666666667</ele><time>2026-04-04T14:43:40Z</time></trkpt><trkpt lat="44.571793435187985" lon="10.166116826420323"><ele>836.3333333333334</ele><time>2026-04-04T14:43:41Z</time></trkpt><trkpt lat="44.57177813555551" lon="10.166023791341457"><ele>835.0</ele><time>2026-04-04T14:43:42Z</time></trkpt><trkpt lat="44.57175472090746" lon="10.165933456767744"><ele>833.6666666666667</ele><time>2026-04-04T14:43:43Z</time></trkpt><trkpt lat="44.57173458325526" lon="10.16577788510134"><ele>832.3333333333334</ele><time>2026-04-04T14:43:45Z</time></trkpt><trkpt lat="44.57170833363411" lon="10.16563297081331"><ele>831.0</ele><time>2026-04-04T14:43:47Z</time></trkpt><trkpt lat="44.571706141573685" lon="10.165474895417828"><ele>829.25</ele><time>2026-04-04T14:43:49Z</time></trkpt><trkpt lat="44.57170104061758" lon="10.165307038237989"><ele>827.5</ele><time>2026-04-04T14:43:51Z</time></trkpt><trkpt lat="44.571664067260336" lon="10.16517470581041"><ele>825.75</ele><time>2026-04-04T14:43:53Z</time></trkpt><trkpt lat="44.571584806370716" lon="10.165078812465088"><ele>824.0</ele><time>2026-04-04T14:43:55Z</time></trkpt><trkpt lat="44.571473588479044" lon="10.16500059428764"><ele>824.0000000000001</ele><time>2026-04-04T14:43:57Z</time></trkpt><trkpt lat="44.57140087881253" lon="10.164964062760463"><ele>824.0</ele><time>2026-04-04T14:43:58Z</time></trkpt><trkpt lat="44.571337937204184" lon="10.164913425884185"><ele>824.0</ele><time>2026-04-04T14:43:59Z</time></trkpt><trkpt lat="44.57128116229917" lon="10.164845614072249"><ele>824.0</ele><time>2026-04-04T14:44:00Z</time></trkpt><trkpt lat="44.57121838159449" lon="10.164785954993096"><ele>824.0000000000001</ele><time>2026-04-04T14:44:01Z</time></trkpt><trkpt lat="44.57116581559205" lon="10.164731219947486"><ele>824.0</ele><time>2026-04-04T14:44:02Z</time></trkpt><trkpt lat="44.57107542446394" lon="10.164610129002583"><ele>822.8571428571428</ele><time>2026-04-04T14:44:04Z</time></trkpt><trkpt lat="44.57103473572696" lon="10.164517428844826"><ele>821.7142857142857</ele><time>2026-04-04T14:44:05Z</time></trkpt><trkpt lat="44.571011000260654" lon="10.164425535364568"><ele>820.5714285714286</ele><time>2026-04-04T14:44:06Z</time></trkpt><trkpt lat="44.570984336342626" lon="10.164333635185821"><ele>819.4285714285713</ele><time>2026-04-04T14:44:07Z</time></trkpt><trkpt lat="44.57094844618179" lon="10.164246324141025"><ele>818.2857142857143</ele><time>2026-04-04T14:44:08Z</time></trkpt><trkpt lat="44.57090920103634" lon="10.16416275574649"><ele>817.1428571428571</ele><time>2026-04-04T14:44:09Z</time></trkpt><trkpt lat="44.57086797960753" lon="10.164085961209581"><ele>816.0</ele><time>2026-04-04T14:44:10Z</time></trkpt><trkpt lat="44.57082108245809" lon="10.164011159537502"><ele>815.0</ele><time>2026-04-04T14:44:11Z</time></trkpt><trkpt lat="44.57072618024676" lon="10.163898802661627"><ele>814.0</ele><time>2026-04-04T14:44:13Z</time></trkpt><trkpt lat="44.5706169360503" lon="10.163817166362454"><ele>813.0</ele><time>2026-04-04T14:44:15Z</time></trkpt><trkpt lat="44.570538999114326" lon="10.163787141152207"><ele>812.0</ele><time>2026-04-04T14:44:16Z</time></trkpt><trkpt lat="44.570452350582705" lon="10.163754244408702"><ele>811.0</ele><time>2026-04-04T14:44:17Z</time></trkpt><trkpt lat="44.570379297505156" lon="10.163720289125084"><ele>809.8333333333333</ele><time>2026-04-04T14:44:18Z</time></trkpt><trkpt lat="44.570302944565036" lon="10.163698242338615"><ele>808.6666666666666</ele><time>2026-04-04T14:44:19Z</time></trkpt><trkpt lat="44.57023899186807" lon="10.163641103825853"><ele>807.5</ele><time>2026-04-04T14:44:20Z</time></trkpt><trkpt lat="44.5701938248983" lon="10.163577795870893"><ele>806.3333333333333</ele><time>2026-04-04T14:44:21Z</time></trkpt><trkpt lat="44.57014964010619" lon="10.163509492036342"><ele>805.1666666666666</ele><time>2026-04-04T14:44:22Z</time></trkpt><trkpt lat="44.5701130237427" lon="10.16342113931141"><ele>804.0</ele><time>2026-04-04T14:44:23Z</time></trkpt><trkpt lat="44.57007881036701" lon="10.163269163386273"><ele>804.6666666666666</ele><time>2026-04-04T14:44:25Z</time></trkpt><trkpt lat="44.5700424413314" lon="10.163115983451604"><ele>805.3333333333333</ele><time>2026-04-04T14:44:27Z</time></trkpt><trkpt lat="44.5700043012692" lon="10.162968790470908"><ele>806.0</ele><time>2026-04-04T14:44:29Z</time></trkpt><trkpt lat="44.56997623108215" lon="10.162885068495333"><ele>806.6666666666666</ele><time>2026-04-04T14:44:30Z</time></trkpt><trkpt lat="44.56993705666382" lon="10.162799424127625"><ele>807.3333333333333</ele><time>2026-04-04T14:44:31Z</time></trkpt><trkpt lat="44.569893767797915" lon="10.162711716949492"><ele>808.0</ele><time>2026-04-04T14:44:32Z</time></trkpt><trkpt lat="44.569831731913155" lon="10.162622555045543"><ele>808.0</ele><time>2026-04-04T14:44:33Z</time></trkpt><trkpt lat="44.569788472854256" lon="10.16250483227788"><ele>808.0</ele><time>2026-04-04T14:44:34Z</time></trkpt><trkpt lat="44.569745677112564" lon="10.162412812746291"><ele>808.0</ele><time>2026-04-04T14:44:35Z</time></trkpt><trkpt lat="44.56969912792416" lon="10.162312738017235"><ele>808.0</ele><time>2026-04-04T14:44:36Z</time></trkpt><trkpt lat="44.5696548857898" lon="10.162222315438063"><ele>808.0</ele><time>2026-04-04T14:44:37Z</time></trkpt><trkpt lat="44.569635845416926" lon="10.162034666922935"><ele>808.3333333333333</ele><time>2026-04-04T14:44:39Z</time></trkpt><trkpt lat="44.56961730197504" lon="10.16194575281923"><ele>808.6666666666666</ele><time>2026-04-04T14:44:40Z</time></trkpt><trkpt lat="44.56957331795977" lon="10.161854518493234"><ele>809.0</ele><time>2026-04-04T14:44:41Z</time></trkpt><trkpt lat="44.56955478687827" lon="10.161745724472999"><ele>809.3333333333333</ele><time>2026-04-04T14:44:42Z</time></trkpt><trkpt lat="44.56954431050193" lon="10.161642750497276"><ele>809.6666666666666</ele><time>2026-04-04T14:44:43Z</time></trkpt><trkpt lat="44.569535179092654" lon="10.161543688321684"><ele>810.0</ele><time>2026-04-04T14:44:44Z</time></trkpt><trkpt lat="44.56951404579114" lon="10.161428195728265"><ele>810.0</ele><time>2026-04-04T14:44:45Z</time></trkpt><trkpt lat="44.56951855370746" lon="10.161316473550652"><ele>810.0</ele><time>2026-04-04T14:44:46Z</time></trkpt><trkpt lat="44.56948530940338" lon="10.161232278216023"><ele>810.0</ele><time>2026-04-04T14:44:47Z</time></trkpt><trkpt lat="44.56946258471461" lon="10.161088422057938"><ele>810.0</ele><time>2026-04-04T14:44:49Z</time></trkpt><trkpt lat="44.569436457410774" lon="10.161001471851788"><ele>810.0</ele><time>2026-04-04T14:44:50Z</time></trkpt><trkpt lat="44.569411600085516" lon="10.160918748159972"><ele>810.0</ele><time>2026-04-04T14:44:51Z</time></trkpt><trkpt lat="44.56938518440737" lon="10.160830838404635"><ele>810.0</ele><time>2026-04-04T14:44:52Z</time></trkpt><trkpt lat="44.5693580871391" lon="10.160740244241303"><ele>810.0</ele><time>2026-04-04T14:44:53Z</time></trkpt><trkpt lat="44.56933308472632" lon="10.160625303115662"><ele>810.0</ele><time>2026-04-04T14:44:54Z</time></trkpt><trkpt lat="44.56931931100643" lon="10.160505553567448"><ele>810.0</ele><time>2026-04-04T14:44:55Z</time></trkpt><trkpt lat="44.56930962699166" lon="10.160401279585482"><ele>810.0</ele><time>2026-04-04T14:44:56Z</time></trkpt><trkpt lat="44.569302591686835" lon="10.160288714531776"><ele>810.0</ele><time>2026-04-04T14:44:57Z</time></trkpt><trkpt lat="44.56925470542181" lon="10.160176387675321"><ele>811.3333333333334</ele><time>2026-04-04T14:44:58Z</time></trkpt><trkpt lat="44.56923622099067" lon="10.160060969038943"><ele>812.6666666666667</ele><time>2026-04-04T14:44:59Z</time></trkpt><trkpt lat="44.569210873481765" lon="10.159951203597457"><ele>814.0</ele><time>2026-04-04T14:45:00Z</time></trkpt><trkpt lat="44.56919742715259" lon="10.159837187799782"><ele>815.3333333333334</ele><time>2026-04-04T14:45:01Z</time></trkpt><trkpt lat="44.56917511134242" lon="10.159751142417369"><ele>816.6666666666667</ele><time>2026-04-04T14:45:02Z</time></trkpt><trkpt lat="44.56914028729202" lon="10.159676401630545"><ele>818.0</ele><time>2026-04-04T14:45:03Z</time></trkpt><trkpt lat="44.56907030176932" lon="10.159627117849961"><ele>818.6666666666667</ele><time>2026-04-04T14:45:04Z</time></trkpt><trkpt lat="44.56900693642939" lon="10.159565522780987"><ele>819.3333333333334</ele><time>2026-04-04T14:45:05Z</time></trkpt><trkpt lat="44.568944501044435" lon="10.159514915319642"><ele>820.0</ele><time>2026-04-04T14:45:06Z</time></trkpt><trkpt lat="44.568877204341256" lon="10.159443953697695"><ele>820.6666666666667</ele><time>2026-04-04T14:45:07Z</time></trkpt><trkpt lat="44.56881809417724" lon="10.159394483836964"><ele>821.3333333333334</ele><time>2026-04-04T14:45:08Z</time></trkpt><trkpt lat="44.56875701220443" lon="10.159290117509228"><ele>822.0</ele><time>2026-04-04T14:45:10Z</time></trkpt><trkpt lat="44.568737083014526" lon="10.159138609745678"><ele>822.0</ele><time>2026-04-04T14:45:12Z</time></trkpt><trkpt lat="44.568731787468195" lon="10.159041229893248"><ele>822.0</ele><time>2026-04-04T14:45:13Z</time></trkpt><trkpt lat="44.56873421051188" lon="10.158927680091953"><ele>822.0</ele><time>2026-04-04T14:45:14Z</time></trkpt><trkpt lat="44.568741479830855" lon="10.158802443728096"><ele>822.0</ele><time>2026-04-04T14:45:15Z</time></trkpt><trkpt lat="44.56873026714115" lon="10.158680874418382"><ele>822.0</ele><time>2026-04-04T14:45:16Z</time></trkpt><trkpt lat="44.56872098117872" lon="10.158587268562233"><ele>822.0</ele><time>2026-04-04T14:45:17Z</time></trkpt><trkpt lat="44.568716842582404" lon="10.158477193166394"><ele>822.3333333333334</ele><time>2026-04-04T14:45:18Z</time></trkpt><trkpt lat="44.56865302643837" lon="10.158383003109694"><ele>822.6666666666667</ele><time>2026-04-04T14:45:19Z</time></trkpt><trkpt lat="44.56860588120508" lon="10.158280728812976"><ele>823.0</ele><time>2026-04-04T14:45:20Z</time></trkpt><trkpt lat="44.56857563196379" lon="10.158168395742063"><ele>823.3333333333334</ele><time>2026-04-04T14:45:21Z</time></trkpt><trkpt lat="44.56853660435195" lon="10.158065172480455"><ele>823.6666666666667</ele><time>2026-04-04T14:45:22Z</time></trkpt><trkpt lat="44.56850047209579" lon="10.157962142520955"><ele>824.0</ele><time>2026-04-04T14:45:23Z</time></trkpt><trkpt lat="44.56847474950441" lon="10.157879366341659"><ele>825.5000000000001</ele><time>2026-04-04T14:45:24Z</time></trkpt><trkpt lat="44.56845220273554" lon="10.157774788528334"><ele>827.0</ele><time>2026-04-04T14:45:25Z</time></trkpt><trkpt lat="44.56844604262888" lon="10.157673435102682"><ele>828.5</ele><time>2026-04-04T14:45:26Z</time></trkpt><trkpt lat="44.5684371851294" lon="10.157561487413563"><ele>830.0</ele><time>2026-04-04T14:45:27Z</time></trkpt><trkpt lat="44.56842162127269" lon="10.157443080831063"><ele>831.5000000000001</ele><time>2026-04-04T14:45:28Z</time></trkpt><trkpt lat="44.56840260403777" lon="10.15732776935026"><ele>833.0</ele><time>2026-04-04T14:45:29Z</time></trkpt><trkpt lat="44.5683776326676" lon="10.157216361882538"><ele>834.5000000000001</ele><time>2026-04-04T14:45:30Z</time></trkpt><trkpt lat="44.568343701802675" lon="10.157122007304475"><ele>836.0</ele><time>2026-04-04T14:45:31Z</time></trkpt><trkpt lat="44.56829561948372" lon="10.157014542086477"><ele>837.5</ele><time>2026-04-04T14:45:32Z</time></trkpt><trkpt lat="44.56824252288818" lon="10.156909796495064"><ele>839.0</ele><time>2026-04-04T14:45:33Z</time></trkpt><trkpt lat="44.56818171314648" lon="10.15681745924722"><ele>840.5000000000001</ele><time>2026-04-04T14:45:34Z</time></trkpt><trkpt lat="44.56811057246049" lon="10.156719598251467"><ele>842.0</ele><time>2026-04-04T14:45:35Z</time></trkpt><trkpt lat="44.568037880488134" lon="10.15664301671433"><ele>842.0</ele><time>2026-04-04T14:45:36Z</time></trkpt><trkpt lat="44.56797270454214" lon="10.156560931245437"><ele>842.0</ele><time>2026-04-04T14:45:37Z</time></trkpt><trkpt lat="44.56788549925834" lon="10.156482263810892"><ele>842.0</ele><time>2026-04-04T14:45:38Z</time></trkpt><trkpt lat="44.56779784165514" lon="10.15644049221451"><ele>842.0</ele><time>2026-04-04T14:45:39Z</time></trkpt><trkpt lat="44.56770466263804" lon="10.156429749502843"><ele>842.0</ele><time>2026-04-04T14:45:40Z</time></trkpt><trkpt lat="44.567566627881014" lon="10.156416206643025"><ele>842.8</ele><time>2026-04-04T14:45:42Z</time></trkpt><trkpt lat="44.567494575692656" lon="10.156375204834916"><ele>843.6</ele><time>2026-04-04T14:45:43Z</time></trkpt><trkpt lat="44.56743394543183" lon="10.156334361492812"><ele>844.4</ele><time>2026-04-04T14:45:44Z</time></trkpt><trkpt lat="44.56735634432001" lon="10.156220785829873"><ele>845.1999999999999</ele><time>2026-04-04T14:45:46Z</time></trkpt><trkpt lat="44.56730724014676" lon="10.1560726943632"><ele>846.0</ele><time>2026-04-04T14:45:48Z</time></trkpt><trkpt lat="44.56728747636468" lon="10.155948096125167"><ele>846.0</ele><time>2026-04-04T14:45:50Z</time></trkpt><trkpt lat="44.56725296324863" lon="10.15586155503555"><ele>846.0</ele><time>2026-04-04T14:45:51Z</time></trkpt><trkpt lat="44.56675004952179" lon="10.155627172640713"><ele>843.5999999999999</ele><time>2026-04-04T14:45:57Z</time></trkpt><trkpt lat="44.56671233128335" lon="10.1555111868963"><ele>841.2</ele><time>2026-04-04T14:45:59Z</time></trkpt><trkpt lat="44.56667354989686" lon="10.15538861569095"><ele>838.8</ele><time>2026-04-04T14:46:01Z</time></trkpt><trkpt lat="44.56664359237064" lon="10.15527810055078"><ele>836.4000000000001</ele><time>2026-04-04T14:46:03Z</time></trkpt><trkpt lat="44.566616993337725" lon="10.15518218058681"><ele>834.0</ele><time>2026-04-04T14:46:05Z</time></trkpt><trkpt lat="44.56656054159017" lon="10.155036177893596"><ele>834.0</ele><time>2026-04-04T14:46:07Z</time></trkpt><trkpt lat="44.566519151461414" lon="10.154960420968097"><ele>834.0</ele><time>2026-04-04T14:46:08Z</time></trkpt><trkpt lat="44.56645801007156" lon="10.154921810680339"><ele>834.0</ele><time>2026-04-04T14:46:09Z</time></trkpt><trkpt lat="44.56639427072315" lon="10.154898758929619"><ele>834.0</ele><time>2026-04-04T14:46:10Z</time></trkpt><trkpt lat="44.566331964992905" lon="10.154868935196417"><ele>834.0</ele><time>2026-04-04T14:46:11Z</time></trkpt><trkpt lat="44.566270544765864" lon="10.15481076100765"><ele>834.0</ele><time>2026-04-04T14:46:12Z</time></trkpt><trkpt lat="44.566215380880436" lon="10.154755133491403"><ele>834.0</ele><time>2026-04-04T14:46:13Z</time></trkpt><trkpt lat="44.56612192788307" lon="10.154654898919032"><ele>834.4000000000001</ele><time>2026-04-04T14:46:15Z</time></trkpt><trkpt lat="44.56607835112462" lon="10.154569839779327"><ele>834.8</ele><time>2026-04-04T14:46:16Z</time></trkpt><trkpt lat="44.56601780624781" lon="10.154401556285732"><ele>835.2</ele><time>2026-04-04T14:46:18Z</time></trkpt><trkpt lat="44.56597575239175" lon="10.1543147220705"><ele>835.5999999999999</ele><time>2026-04-04T14:46:19Z</time></trkpt><trkpt lat="44.565939126139035" lon="10.154216203864403"><ele>836.0</ele><time>2026-04-04T14:46:20Z</time></trkpt><trkpt lat="44.56590744962257" lon="10.154090414434274"><ele>837.6666666666667</ele><time>2026-04-04T14:46:22Z</time></trkpt><trkpt lat="44.56587681450976" lon="10.153969660267519"><ele>839.3333333333334</ele><time>2026-04-04T14:46:24Z</time></trkpt><trkpt lat="44.56584286688443" lon="10.153859259792437"><ele>841.0</ele><time>2026-04-04T14:46:25Z</time></trkpt><trkpt lat="44.565802492213805" lon="10.153746052827517"><ele>842.6666666666667</ele><time>2026-04-04T14:46:26Z</time></trkpt><trkpt lat="44.565765373819694" lon="10.153641106550767"><ele>844.3333333333334</ele><time>2026-04-04T14:46:27Z</time></trkpt><trkpt lat="44.565737332384906" lon="10.153558913254512"><ele>846.0</ele><time>2026-04-04T14:46:28Z</time></trkpt><trkpt lat="44.56569248053158" lon="10.153481455741371"><ele>846.0</ele><time>2026-04-04T14:46:29Z</time></trkpt><trkpt lat="44.565641569655575" lon="10.15339949919232"><ele>846.0</ele><time>2026-04-04T14:46:30Z</time></trkpt><trkpt lat="44.565600069550584" lon="10.15332441197323"><ele>846.0</ele><time>2026-04-04T14:46:31Z</time></trkpt><trkpt lat="44.56556182562003" lon="10.153245114363807"><ele>846.0</ele><time>2026-04-04T14:46:32Z</time></trkpt><trkpt lat="44.565512963388365" lon="10.153169451534925"><ele>846.0</ele><time>2026-04-04T14:46:33Z</time></trkpt><trkpt lat="44.56546049422116" lon="10.15310152298738"><ele>846.0</ele><time>2026-04-04T14:46:34Z</time></trkpt><trkpt lat="44.56539555255542" lon="10.153048964366096"><ele>846.0</ele><time>2026-04-04T14:46:35Z</time></trkpt><trkpt lat="44.56532365618645" lon="10.15302031698374"><ele>846.8333333333334</ele><time>2026-04-04T14:46:36Z</time></trkpt><trkpt lat="44.56524892094098" lon="10.152995807116746"><ele>847.6666666666667</ele><time>2026-04-04T14:46:37Z</time></trkpt><trkpt lat="44.56518604645933" lon="10.152976915163581"><ele>848.5</ele><time>2026-04-04T14:46:38Z</time></trkpt><trkpt lat="44.56505628784972" lon="10.152980488412094"><ele>849.3333333333334</ele><time>2026-04-04T14:46:40Z</time></trkpt><trkpt lat="44.56498545259904" lon="10.15294493083814"><ele>850.1666666666667</ele><time>2026-04-04T14:46:41Z</time></trkpt><trkpt lat="44.56490748977995" lon="10.15289774059068"><ele>851.0</ele><time>2026-04-04T14:46:42Z</time></trkpt><trkpt lat="44.56484224902525" lon="10.15285941261369"><ele>851.0000000000001</ele><time>2026-04-04T14:46:43Z</time></trkpt><trkpt lat="44.56478099410237" lon="10.152824250247052"><ele>851.0</ele><time>2026-04-04T14:46:44Z</time></trkpt><trkpt lat="44.56470604119717" lon="10.152761036960232"><ele>851.0</ele><time>2026-04-04T14:46:46Z</time></trkpt><trkpt lat="44.56461366555816" lon="10.15269306891212"><ele>851.0</ele><time>2026-04-04T14:46:48Z</time></trkpt><trkpt lat="44.564552261738584" lon="10.152670242731233"><ele>851.0000000000001</ele><time>2026-04-04T14:46:49Z</time></trkpt><trkpt lat="44.564436221363735" lon="10.152685917158148"><ele>851.0</ele><time>2026-04-04T14:46:51Z</time></trkpt><trkpt lat="44.56438004374273" lon="10.15272597671006"><ele>852.1666666666667</ele><time>2026-04-04T14:46:52Z</time></trkpt><trkpt lat="44.5643357375046" lon="10.15279479161213"><ele>853.3333333333334</ele><time>2026-04-04T14:46:53Z</time></trkpt><trkpt lat="44.56429324558502" lon="10.152899428859957"><ele>854.5</ele><time>2026-04-04T14:46:54Z</time></trkpt><trkpt lat="44.56428001090763" lon="10.153014512361585"><ele>855.6666666666667</ele><time>2026-04-04T14:46:55Z</time></trkpt><trkpt lat="44.56428853958867" lon="10.153103201360704"><ele>856.8333333333334</ele><time>2026-04-04T14:46:56Z</time></trkpt><trkpt lat="44.56426284260953" lon="10.153240301140091"><ele>858.0</ele><time>2026-04-04T14:46:58Z</time></trkpt><trkpt lat="44.56422512458373" lon="10.153324417827942"><ele>858.0</ele><time>2026-04-04T14:46:59Z</time></trkpt><trkpt lat="44.56418021480251" lon="10.153392523203866"><ele>858.0</ele><time>2026-04-04T14:47:00Z</time></trkpt><trkpt lat="44.56407131436327" lon="10.153408343488938"><ele>858.0</ele><time>2026-04-04T14:47:02Z</time></trkpt><trkpt lat="44.56399109760389" lon="10.153296420457542"><ele>858.0</ele><time>2026-04-04T14:47:04Z</time></trkpt><trkpt lat="44.56396706375692" lon="10.153208376798602"><ele>858.0</ele><time>2026-04-04T14:47:05Z</time></trkpt><trkpt lat="44.564003192610706" lon="10.153034451692477"><ele>859.0</ele><time>2026-04-04T14:47:07Z</time></trkpt><trkpt lat="44.56404694193233" lon="10.152951980789652"><ele>860.0</ele><time>2026-04-04T14:47:08Z</time></trkpt><trkpt lat="44.564086898866314" lon="10.1528644619943"><ele>861.0</ele><time>2026-04-04T14:47:09Z</time></trkpt><trkpt lat="44.5641129568514" lon="10.152747351217002"><ele>862.0</ele><time>2026-04-04T14:47:10Z</time></trkpt><trkpt lat="44.56411951712721" lon="10.152619312065479"><ele>863.0</ele><time>2026-04-04T14:47:11Z</time></trkpt><trkpt lat="44.56412434660348" lon="10.152486341259044"><ele>864.0</ele><time>2026-04-04T14:47:12Z</time></trkpt><trkpt lat="44.564125450829835" lon="10.15239185747582"><ele>865.6666666666666</ele><time>2026-04-04T14:47:13Z</time></trkpt><trkpt lat="44.56414838580115" lon="10.152294425377711"><ele>867.3333333333333</ele><time>2026-04-04T14:47:14Z</time></trkpt><trkpt lat="44.56416755591931" lon="10.152199306152687"><ele>869.0</ele><time>2026-04-04T14:47:15Z</time></trkpt><trkpt lat="44.5642040763909" lon="10.152084829268379"><ele>870.6666666666666</ele><time>2026-04-04T14:47:16Z</time></trkpt><trkpt lat="44.5642293187657" lon="10.15198117482971"><ele>872.3333333333333</ele><time>2026-04-04T14:47:17Z</time></trkpt><trkpt lat="44.56425682172741" lon="10.151878828938765"><ele>874.0</ele><time>2026-04-04T14:47:18Z</time></trkpt><trkpt lat="44.56428612039062" lon="10.151781674555128"><ele>874.0</ele><time>2026-04-04T14:47:19Z</time></trkpt><trkpt lat="44.564331671744505" lon="10.151626039790415"><ele>874.0000000000001</ele><time>2026-04-04T14:47:21Z</time></trkpt><trkpt lat="44.56435162285716" lon="10.15145076082661"><ele>874.0000000000001</ele><time>2026-04-04T14:47:23Z</time></trkpt><trkpt lat="44.56431836467965" lon="10.151304420036368"><ele>874.0</ele><time>2026-04-04T14:47:25Z</time></trkpt><trkpt lat="44.564271169517646" lon="10.151245492350233"><ele>874.0</ele><time>2026-04-04T14:47:26Z</time></trkpt><trkpt lat="44.56421262228279" lon="10.151128619944012"><ele>876.1666666666666</ele><time>2026-04-04T14:47:28Z</time></trkpt><trkpt lat="44.56426708705472" lon="10.150974556000257"><ele>878.3333333333333</ele><time>2026-04-04T14:47:30Z</time></trkpt><trkpt lat="44.564317774790354" lon="10.150920674188205"><ele>880.5</ele><time>2026-04-04T14:47:31Z</time></trkpt><trkpt lat="44.564356892633484" lon="10.150802159481863"><ele>882.6666666666667</ele><time>2026-04-04T14:47:33Z</time></trkpt><trkpt lat="44.56436442617677" lon="10.150662099702904"><ele>884.8333333333334</ele><time>2026-04-04T14:47:35Z</time></trkpt><trkpt lat="44.56438965863222" lon="10.150576230213158"><ele>887.0</ele><time>2026-04-04T14:47:37Z</time></trkpt><trkpt lat="44.56442146324596" lon="10.150484970335713"><ele>889.0000000000001</ele><time>2026-04-04T14:47:39Z</time></trkpt><trkpt lat="44.564463327687676" lon="10.150381311934998"><ele>891.0</ele><time>2026-04-04T14:47:41Z</time></trkpt><trkpt lat="44.56448238131916" lon="10.150284601257297"><ele>893.0</ele><time>2026-04-04T14:47:42Z</time></trkpt><trkpt lat="44.56447263530699" lon="10.150152593004817"><ele>895.0</ele><time>2026-04-04T14:47:44Z</time></trkpt><trkpt lat="44.564411894590464" lon="10.150064411453947"><ele>897.0000000000001</ele><time>2026-04-04T14:47:47Z</time></trkpt><trkpt lat="44.56436079769911" lon="10.150000045744884"><ele>899.0</ele><time>2026-04-04T14:47:51Z</time></trkpt><trkpt lat="44.5642970803721" lon="10.149963713696113"><ele>899.0000000000001</ele><time>2026-04-04T14:47:53Z</time></trkpt><trkpt lat="44.564235536807196" lon="10.149917788791523"><ele>899.0</ele><time>2026-04-04T14:47:55Z</time></trkpt><trkpt lat="44.564175210369775" lon="10.149844700837585"><ele>899.0</ele><time>2026-04-04T14:47:57Z</time></trkpt><trkpt lat="44.564092239936016" lon="10.14979648056231"><ele>899.0</ele><time>2026-04-04T14:47:59Z</time></trkpt><trkpt lat="44.56402014636224" lon="10.149762268714325"><ele>899.0000000000001</ele><time>2026-04-04T14:48:01Z</time></trkpt><trkpt lat="44.56394661294788" lon="10.14971455146247"><ele>899.0</ele><time>2026-04-04T14:48:03Z</time></trkpt><trkpt lat="44.56385220287676" lon="10.149639870790764"><ele>901.4000000000001</ele><time>2026-04-04T14:48:05Z</time></trkpt><trkpt lat="44.56378308661519" lon="10.149598296874982"><ele>903.8000000000001</ele><time>2026-04-04T14:48:06Z</time></trkpt><trkpt lat="44.56371648363842" lon="10.149584630506343"><ele>906.1999999999999</ele><time>2026-04-04T14:48:07Z</time></trkpt><trkpt lat="44.56359141043619" lon="10.149600406360781"><ele>908.5999999999999</ele><time>2026-04-04T14:48:09Z</time></trkpt><trkpt lat="44.56347643524817" lon="10.149648294964747"><ele>911.0</ele><time>2026-04-04T14:48:11Z</time></trkpt><trkpt lat="44.563397702802696" lon="10.149653556431232"><ele>911.3333333333334</ele><time>2026-04-04T14:48:13Z</time></trkpt><trkpt lat="44.56331453457711" lon="10.149647852550775"><ele>911.6666666666667</ele><time>2026-04-04T14:48:15Z</time></trkpt><trkpt lat="44.56318310000339" lon="10.149610206065974"><ele>912.0</ele><time>2026-04-04T14:48:17Z</time></trkpt><trkpt lat="44.56310762999327" lon="10.149576633584317"><ele>912.3333333333333</ele><time>2026-04-04T14:48:18Z</time></trkpt><trkpt lat="44.563042107701435" lon="10.149541117409406"><ele>912.6666666666666</ele><time>2026-04-04T14:48:19Z</time></trkpt><trkpt lat="44.56297619632465" lon="10.149506428437668"><ele>913.0</ele><time>2026-04-04T14:48:20Z</time></trkpt><trkpt lat="44.56290600164363" lon="10.149459702428851"><ele>912.4</ele><time>2026-04-04T14:48:21Z</time></trkpt><trkpt lat="44.56281812349601" lon="10.14933134844182"><ele>911.8</ele><time>2026-04-04T14:48:23Z</time></trkpt><trkpt lat="44.56278833252422" lon="10.149239243057382"><ele>911.2</ele><time>2026-04-04T14:48:24Z</time></trkpt><trkpt lat="44.56274622871295" lon="10.149111499878979"><ele>910.6</ele><time>2026-04-04T14:48:25Z</time></trkpt><trkpt lat="44.56271598517527" lon="10.148965833429967"><ele>910.0</ele><time>2026-04-04T14:48:27Z</time></trkpt><trkpt lat="44.56270877634886" lon="10.148853645494468"><ele>910.0</ele><time>2026-04-04T14:48:28Z</time></trkpt><trkpt lat="44.56270938881736" lon="10.148733670723056"><ele>910.0</ele><time>2026-04-04T14:48:29Z</time></trkpt><trkpt lat="44.56272130440217" lon="10.148628614533427"><ele>910.0</ele><time>2026-04-04T14:48:30Z</time></trkpt><trkpt lat="44.56270577441714" lon="10.1483662512713"><ele>910.0</ele><time>2026-04-04T14:48:32Z</time></trkpt><trkpt lat="44.56270177278152" lon="10.148246639184249"><ele>910.0</ele><time>2026-04-04T14:48:33Z</time></trkpt><trkpt lat="44.56269820862597" lon="10.14812216972747"><ele>910.1666666666666</ele><time>2026-04-04T14:48:34Z</time></trkpt><trkpt lat="44.56270104931591" lon="10.147994473854583"><ele>910.3333333333333</ele><time>2026-04-04T14:48:35Z</time></trkpt><trkpt lat="44.56269415682335" lon="10.147880066356501"><ele>910.5</ele><time>2026-04-04T14:48:36Z</time></trkpt><trkpt lat="44.56267927680998" lon="10.147777034250918"><ele>910.6666666666667</ele><time>2026-04-04T14:48:37Z</time></trkpt><trkpt lat="44.56264755188685" lon="10.147669110112613"><ele>910.8333333333334</ele><time>2026-04-04T14:48:38Z</time></trkpt><trkpt lat="44.56261300320047" lon="10.147577674901912"><ele>911.0</ele><time>2026-04-04T14:48:39Z</time></trkpt><trkpt lat="44.562586794433585" lon="10.14748719053849"><ele>910.4285714285714</ele><time>2026-04-04T14:48:40Z</time></trkpt><trkpt lat="44.56257782063739" lon="10.147376796443154"><ele>909.8571428571429</ele><time>2026-04-04T14:48:41Z</time></trkpt><trkpt lat="44.562585874914454" lon="10.147273027471094"><ele>909.2857142857143</ele><time>2026-04-04T14:48:42Z</time></trkpt><trkpt lat="44.562609077337314" lon="10.147176502495066"><ele>908.7142857142858</ele><time>2026-04-04T14:48:43Z</time></trkpt><trkpt lat="44.562645131729546" lon="10.147088009981864"><ele>908.1428571428571</ele><time>2026-04-04T14:48:44Z</time></trkpt><trkpt lat="44.562688516150544" lon="10.14699250487867"><ele>907.5714285714287</ele><time>2026-04-04T14:48:45Z</time></trkpt><trkpt lat="44.56273132545258" lon="10.146922336784337"><ele>907.0000000000001</ele><time>2026-04-04T14:48:46Z</time></trkpt><trkpt lat="44.562768093218246" lon="10.146832838255229"><ele>906.9999999999999</ele><time>2026-04-04T14:48:47Z</time></trkpt><trkpt lat="44.562789760436466" lon="10.146725006015151"><ele>907.0</ele><time>2026-04-04T14:48:48Z</time></trkpt><trkpt lat="44.56280888362437" lon="10.14660503219717"><ele>907.0</ele><time>2026-04-04T14:48:49Z</time></trkpt><trkpt lat="44.5628153286375" lon="10.146493320572478"><ele>907.0</ele><time>2026-04-04T14:48:50Z</time></trkpt><trkpt lat="44.5628135154142" lon="10.146383444710565"><ele>906.9999999999999</ele><time>2026-04-04T14:48:51Z</time></trkpt><trkpt lat="44.56280756879295" lon="10.14628491082618"><ele>907.0</ele><time>2026-04-04T14:48:52Z</time></trkpt><trkpt lat="44.562810520347554" lon="10.146181315198465"><ele>907.2</ele><time>2026-04-04T14:48:53Z</time></trkpt><trkpt lat="44.56282636435317" lon="10.146095529629134"><ele>907.4000000000001</ele><time>2026-04-04T14:48:54Z</time></trkpt><trkpt lat="44.56283394658544" lon="10.145996637881792"><ele>907.5999999999999</ele><time>2026-04-04T14:48:55Z</time></trkpt><trkpt lat="44.56284279385491" lon="10.14590239264468"><ele>907.8</ele><time>2026-04-04T14:48:56Z</time></trkpt><trkpt lat="44.56283379110393" lon="10.145734343005813"><ele>908.0</ele><time>2026-04-04T14:48:58Z</time></trkpt><trkpt lat="44.56285052382807" lon="10.145548725928721"><ele>909.3333333333334</ele><time>2026-04-04T14:48:59Z</time></trkpt><trkpt lat="44.5628530102569" lon="10.145419464344323"><ele>910.6666666666667</ele><time>2026-04-04T14:49:00Z</time></trkpt><trkpt lat="44.56285806354164" lon="10.145304609722038"><ele>912.0</ele><time>2026-04-04T14:49:01Z</time></trkpt><trkpt lat="44.56284619680955" lon="10.145215306727238"><ele>913.3333333333333</ele><time>2026-04-04T14:49:02Z</time></trkpt><trkpt lat="44.562814333759164" lon="10.14511639454932"><ele>914.6666666666666</ele><time>2026-04-04T14:49:03Z</time></trkpt><trkpt lat="44.562763212963205" lon="10.14504581766466"><ele>916.0</ele><time>2026-04-04T14:49:05Z</time></trkpt><trkpt lat="44.562745813941675" lon="10.144890475714623"><ele>915.8</ele><time>2026-04-04T14:49:06Z</time></trkpt><trkpt lat="44.562662145748014" lon="10.144733972181983"><ele>915.5999999999999</ele><time>2026-04-04T14:49:08Z</time></trkpt><trkpt lat="44.56258766684628" lon="10.144674229051645"><ele>915.4</ele><time>2026-04-04T14:49:09Z</time></trkpt><trkpt lat="44.56251344949615" lon="10.14461327015201"><ele>915.2</ele><time>2026-04-04T14:49:10Z</time></trkpt><trkpt lat="44.56245410459845" lon="10.144550223365615"><ele>915.0</ele><time>2026-04-04T14:49:11Z</time></trkpt><trkpt lat="44.562399603871704" lon="10.14448535229483"><ele>915.0</ele><time>2026-04-04T14:49:12Z</time></trkpt><trkpt lat="44.562343148523674" lon="10.144428775838863"><ele>915.0</ele><time>2026-04-04T14:49:13Z</time></trkpt><trkpt lat="44.562246712035986" lon="10.14432235561592"><ele>915.0</ele><time>2026-04-04T14:49:15Z</time></trkpt><trkpt lat="44.56218544530109" lon="10.144257187535327"><ele>915.0</ele><time>2026-04-04T14:49:16Z</time></trkpt><trkpt lat="44.56213319800076" lon="10.144191746436112"><ele>915.0</ele><time>2026-04-04T14:49:17Z</time></trkpt><trkpt lat="44.56208632426394" lon="10.144124456716689"><ele>915.0</ele><time>2026-04-04T14:49:18Z</time></trkpt><trkpt lat="44.562035749822336" lon="10.14405489635189"><ele>912.4</ele><time>2026-04-04T14:49:19Z</time></trkpt><trkpt lat="44.561944202079005" lon="10.143923945492975"><ele>909.8</ele><time>2026-04-04T14:49:21Z</time></trkpt><trkpt lat="44.561906486057204" lon="10.143834702312203"><ele>907.2</ele><time>2026-04-04T14:49:22Z</time></trkpt><trkpt lat="44.56185929578618" lon="10.143686991039266"><ele>904.6</ele><time>2026-04-04T14:49:24Z</time></trkpt><trkpt lat="44.561854329789256" lon="10.143525134891682"><ele>902.0</ele><time>2026-04-04T14:49:26Z</time></trkpt><trkpt lat="44.56187131273659" lon="10.14342993267"><ele>902.0000000000001</ele><time>2026-04-04T14:49:27Z</time></trkpt><trkpt lat="44.56187871461529" lon="10.143321403567613"><ele>902.0</ele><time>2026-04-04T14:49:28Z</time></trkpt><trkpt lat="44.56186662399684" lon="10.14319958545226"><ele>902.0</ele><time>2026-04-04T14:49:29Z</time></trkpt><trkpt lat="44.561845208319625" lon="10.143101359285291"><ele>902.0</ele><time>2026-04-04T14:49:30Z</time></trkpt><trkpt lat="44.56181643168163" lon="10.143014080362247"><ele>902.0000000000001</ele><time>2026-04-04T14:49:31Z</time></trkpt><trkpt lat="44.56176181491157" lon="10.142918037530524"><ele>902.0</ele><time>2026-04-04T14:49:32Z</time></trkpt><trkpt lat="44.561711725152776" lon="10.142821741089648"><ele>902.6666666666667</ele><time>2026-04-04T14:49:33Z</time></trkpt><trkpt lat="44.56166692387756" lon="10.142749807171"><ele>903.3333333333334</ele><time>2026-04-04T14:49:34Z</time></trkpt><trkpt lat="44.561613439611826" lon="10.142689044436205"><ele>904.0</ele><time>2026-04-04T14:49:35Z</time></trkpt><trkpt lat="44.561545684756524" lon="10.142599548722895"><ele>904.6666666666667</ele><time>2026-04-04T14:49:36Z</time></trkpt><trkpt lat="44.561486419726826" lon="10.142507586550522"><ele>905.3333333333334</ele><time>2026-04-04T14:49:37Z</time></trkpt><trkpt lat="44.56143644949018" lon="10.142398076592512"><ele>906.0</ele><time>2026-04-04T14:49:38Z</time></trkpt><trkpt lat="44.56136980003899" lon="10.142288369427034"><ele>905.0</ele><time>2026-04-04T14:49:39Z</time></trkpt><trkpt lat="44.5613055930193" lon="10.142189378540673"><ele>903.9999999999999</ele><time>2026-04-04T14:49:40Z</time></trkpt><trkpt lat="44.561267091154654" lon="10.142100070928372"><ele>902.9999999999999</ele><time>2026-04-04T14:49:41Z</time></trkpt><trkpt lat="44.561228749546224" lon="10.14199149385719"><ele>902.0</ele><time>2026-04-04T14:49:42Z</time></trkpt><trkpt lat="44.561184434305844" lon="10.141865839739811"><ele>901.0</ele><time>2026-04-04T14:49:43Z</time></trkpt><trkpt lat="44.561137134106254" lon="10.14174734376006"><ele>900.9999999999999</ele><time>2026-04-04T14:49:44Z</time></trkpt><trkpt lat="44.561090982375326" lon="10.141646231475757"><ele>901.0</ele><time>2026-04-04T14:49:45Z</time></trkpt><trkpt lat="44.56103632129085" lon="10.141547199923355"><ele>901.0</ele><time>2026-04-04T14:49:46Z</time></trkpt><trkpt lat="44.56099239986217" lon="10.141445196007178"><ele>901.0</ele><time>2026-04-04T14:49:47Z</time></trkpt><trkpt lat="44.56094974635638" lon="10.14132909523093"><ele>900.9999999999999</ele><time>2026-04-04T14:49:48Z</time></trkpt><trkpt lat="44.560914652115336" lon="10.14121062268729"><ele>901.0</ele><time>2026-04-04T14:49:49Z</time></trkpt><trkpt lat="44.56088569737786" lon="10.141095261107456"><ele>901.4</ele><time>2026-04-04T14:49:50Z</time></trkpt><trkpt lat="44.560852331258864" lon="10.140972276647009"><ele>901.8</ele><time>2026-04-04T14:49:51Z</time></trkpt><trkpt lat="44.56082270433151" lon="10.140852202127427"><ele>902.1999999999999</ele><time>2026-04-04T14:49:52Z</time></trkpt><trkpt lat="44.560796942863185" lon="10.140737962141035"><ele>902.5999999999999</ele><time>2026-04-04T14:49:53Z</time></trkpt><trkpt lat="44.5607761173778" lon="10.14062695279249"><ele>903.0</ele><time>2026-04-04T14:49:54Z</time></trkpt><trkpt lat="44.56072814373533" lon="10.140493185047088"><ele>904.4</ele><time>2026-04-04T14:49:56Z</time></trkpt><trkpt lat="44.560773216906064" lon="10.140316923115881"><ele>905.8</ele><time>2026-04-04T14:49:58Z</time></trkpt><trkpt lat="44.560815754943114" lon="10.140208783941778"><ele>907.2</ele><time>2026-04-04T14:49:59Z</time></trkpt><trkpt lat="44.56085477086645" lon="10.14011362253857"><ele>908.6</ele><time>2026-04-04T14:50:00Z</time></trkpt><trkpt lat="44.56088746778313" lon="10.140018010855243"><ele>910.0</ele><time>2026-04-04T14:50:01Z</time></trkpt><trkpt lat="44.560915433438616" lon="10.139901778016382"><ele>909.6666666666666</ele><time>2026-04-04T14:50:02Z</time></trkpt><trkpt lat="44.56095836016211" lon="10.139791470700946"><ele>909.3333333333333</ele><time>2026-04-04T14:50:03Z</time></trkpt><trkpt lat="44.56099139435423" lon="10.139657765365884"><ele>909.0</ele><time>2026-04-04T14:50:05Z</time></trkpt><trkpt lat="44.56092133943079" lon="10.139620694031553"><ele>908.6666666666667</ele><time>2026-04-04T14:50:08Z</time></trkpt><trkpt lat="44.56084092182003" lon="10.139656303750188"><ele>908.3333333333334</ele><time>2026-04-04T14:50:10Z</time></trkpt><trkpt lat="44.56078206327623" lon="10.139696391612354"><ele>908.0</ele><time>2026-04-04T14:50:12Z</time></trkpt><trkpt lat="44.560695142885876" lon="10.139621787750594"><ele>908.0000000000001</ele><time>2026-04-04T14:59:07Z</time></trkpt><trkpt lat="44.56062488208305" lon="10.139574436581272"><ele>908.0</ele><time>2026-04-04T14:59:08Z</time></trkpt><trkpt lat="44.56054178357586" lon="10.139509294033747"><ele>908.0</ele><time>2026-04-04T14:59:09Z</time></trkpt><trkpt lat="44.560457868594725" lon="10.139436421356086"><ele>908.0</ele><time>2026-04-04T14:59:10Z</time></trkpt><trkpt lat="44.5603975915327" lon="10.13933331763991"><ele>908.0000000000001</ele><time>2026-04-04T14:59:11Z</time></trkpt><trkpt lat="44.56034332572471" lon="10.139266803955698"><ele>908.0</ele><time>2026-04-04T14:59:12Z</time></trkpt><trkpt lat="44.56026640650284" lon="10.139166650555099"><ele>908.0000000000001</ele><time>2026-04-04T14:59:14Z</time></trkpt><trkpt lat="44.56020897769359" lon="10.139087093930018"><ele>908.0</ele><time>2026-04-04T14:59:16Z</time></trkpt><trkpt lat="44.560158046770184" lon="10.139015633392674"><ele>908.0</ele><time>2026-04-04T14:59:18Z</time></trkpt><trkpt lat="44.560109436774255" lon="10.138945084652631"><ele>908.0</ele><time>2026-04-04T14:59:19Z</time></trkpt><trkpt lat="44.560049598418665" lon="10.138854036675667"><ele>908.0000000000001</ele><time>2026-04-04T14:59:20Z</time></trkpt><trkpt lat="44.559978921932135" lon="10.138748058059337"><ele>908.0</ele><time>2026-04-04T14:59:21Z</time></trkpt><trkpt lat="44.55989866227194" lon="10.138632818010587"><ele>907.5</ele><time>2026-04-04T14:59:22Z</time></trkpt><trkpt lat="44.559807913967475" lon="10.138506935182319"><ele>907.0</ele><time>2026-04-04T14:59:23Z</time></trkpt><trkpt lat="44.559724294846866" lon="10.138392678377933"><ele>906.5</ele><time>2026-04-04T14:59:24Z</time></trkpt><trkpt lat="44.559639816761326" lon="10.138275963382723"><ele>906.0</ele><time>2026-04-04T14:59:25Z</time></trkpt><trkpt lat="44.55955292271564" lon="10.138151776480244"><ele>906.75</ele><time>2026-04-04T14:59:26Z</time></trkpt><trkpt lat="44.55946692201233" lon="10.138024278386993"><ele>907.5</ele><time>2026-04-04T14:59:27Z</time></trkpt><trkpt lat="44.559377925018275" lon="10.137887869640679"><ele>908.25</ele><time>2026-04-04T14:59:28Z</time></trkpt><trkpt lat="44.55929075745102" lon="10.137752535948804"><ele>909.0</ele><time>2026-04-04T14:59:29Z</time></trkpt><trkpt lat="44.5592121535786" lon="10.13762872728327"><ele>909.0</ele><time>2026-04-04T14:59:30Z</time></trkpt><trkpt lat="44.55912579889724" lon="10.137497599289734"><ele>909.0</ele><time>2026-04-04T14:59:31Z</time></trkpt><trkpt lat="44.55901443989263" lon="10.137354432389873"><ele>909.0</ele><time>2026-04-04T14:59:32Z</time></trkpt><trkpt lat="44.558886685274864" lon="10.137230557425385"><ele>909.0</ele><time>2026-04-04T14:59:33Z</time></trkpt><trkpt lat="44.55876161272417" lon="10.137118120633085"><ele>909.5</ele><time>2026-04-04T14:59:34Z</time></trkpt><trkpt lat="44.55863982661822" lon="10.137007609764403"><ele>910.0</ele><time>2026-04-04T14:59:35Z</time></trkpt><trkpt lat="44.55852670711821" lon="10.136898077728222"><ele>910.5</ele><time>2026-04-04T14:59:36Z</time></trkpt><trkpt lat="44.55841478713019" lon="10.136824480034102"><ele>911.0</ele><time>2026-04-04T14:59:37Z</time></trkpt><trkpt lat="44.55832119539637" lon="10.136730338295655"><ele>911.0000000000001</ele><time>2026-04-04T14:59:38Z</time></trkpt><trkpt lat="44.55824804998393" lon="10.136654251241122"><ele>911.0</ele><time>2026-04-04T14:59:39Z</time></trkpt><trkpt lat="44.55818148864268" lon="10.136588218618456"><ele>911.0</ele><time>2026-04-04T14:59:40Z</time></trkpt><trkpt lat="44.558125082971124" lon="10.136505467113619"><ele>911.0</ele><time>2026-04-04T14:59:41Z</time></trkpt><trkpt lat="44.55805988912447" lon="10.13646612189109"><ele>911.0000000000001</ele><time>2026-04-04T14:59:42Z</time></trkpt><trkpt lat="44.55799055083064" lon="10.1364398569705"><ele>911.0</ele><time>2026-04-04T14:59:43Z</time></trkpt><trkpt lat="44.55791602351743" lon="10.136431986517557"><ele>914.1999999999999</ele><time>2026-04-04T14:59:44Z</time></trkpt><trkpt lat="44.55783908860532" lon="10.13643664976877"><ele>917.3999999999999</ele><time>2026-04-04T14:59:45Z</time></trkpt><trkpt lat="44.557752336925766" lon="10.136451578255244"><ele>920.6</ele><time>2026-04-04T14:59:46Z</time></trkpt><trkpt lat="44.557654683239186" lon="10.136473536220892"><ele>923.8</ele><time>2026-04-04T14:59:47Z</time></trkpt><trkpt lat="44.55755370774747" lon="10.136499172378185"><ele>927.0</ele><time>2026-04-04T14:59:48Z</time></trkpt><trkpt lat="44.55745415083706" lon="10.136527092256719"><ele>923.2</ele><time>2026-04-04T14:59:49Z</time></trkpt><trkpt lat="44.557349909300825" lon="10.136556325897425"><ele>919.4000000000001</ele><time>2026-04-04T14:59:50Z</time></trkpt><trkpt lat="44.557248920341465" lon="10.13657739520403"><ele>915.5999999999999</ele><time>2026-04-04T14:59:51Z</time></trkpt><trkpt lat="44.55715048747202" lon="10.136596042942404"><ele>911.8</ele><time>2026-04-04T14:59:52Z</time></trkpt><trkpt lat="44.557043438200395" lon="10.136608427223305"><ele>908.0</ele><time>2026-04-04T14:59:53Z</time></trkpt><trkpt lat="44.556941282472835" lon="10.136605852901907"><ele>908.8</ele><time>2026-04-04T14:59:54Z</time></trkpt><trkpt lat="44.5568436536268" lon="10.136590932124625"><ele>909.5999999999999</ele><time>2026-04-04T14:59:55Z</time></trkpt><trkpt lat="44.55675654311436" lon="10.136564304420821"><ele>910.4000000000001</ele><time>2026-04-04T14:59:56Z</time></trkpt><trkpt lat="44.5566709178993" lon="10.136528161677365"><ele>911.2</ele><time>2026-04-04T14:59:57Z</time></trkpt><trkpt lat="44.556584311190136" lon="10.136481489429986"><ele>912.0</ele><time>2026-04-04T14:59:58Z</time></trkpt><trkpt lat="44.55648722438649" lon="10.136425981436426"><ele>912.0</ele><time>2026-04-04T14:59:59Z</time></trkpt><trkpt lat="44.55637796654457" lon="10.13636145477621"><ele>912.0</ele><time>2026-04-04T15:00:00Z</time></trkpt><trkpt lat="44.55626474470861" lon="10.13629092146075"><ele>912.0</ele><time>2026-04-04T15:00:01Z</time></trkpt><trkpt lat="44.55615127668143" lon="10.136225738318416"><ele>912.0</ele><time>2026-04-04T15:00:02Z</time></trkpt><trkpt lat="44.55605676654828" lon="10.136098273052884"><ele>911.25</ele><time>2026-04-04T15:00:03Z</time></trkpt><trkpt lat="44.55597743598977" lon="10.135986174899024"><ele>910.5</ele><time>2026-04-04T15:00:04Z</time></trkpt><trkpt lat="44.55589870166812" lon="10.135864833800229"><ele>909.75</ele><time>2026-04-04T15:00:05Z</time></trkpt><trkpt lat="44.55580874730292" lon="10.135698462085552"><ele>909.0</ele><time>2026-04-04T15:00:06Z</time></trkpt><trkpt lat="44.5557199375946" lon="10.13555714989768"><ele>909.0</ele><time>2026-04-04T15:00:07Z</time></trkpt><trkpt lat="44.55564654595576" lon="10.135447598146838"><ele>909.0000000000001</ele><time>2026-04-04T15:00:08Z</time></trkpt><trkpt lat="44.55557745320444" lon="10.13534446333018"><ele>909.0000000000001</ele><time>2026-04-04T15:00:09Z</time></trkpt><trkpt lat="44.555509288726554" lon="10.135244739449874"><ele>909.0</ele><time>2026-04-04T15:00:10Z</time></trkpt><trkpt lat="44.55544208160749" lon="10.135146791045964"><ele>909.0</ele><time>2026-04-04T15:00:11Z</time></trkpt><trkpt lat="44.555361936089255" lon="10.13502763779768"><ele>907.25</ele><time>2026-04-04T15:00:12Z</time></trkpt><trkpt lat="44.555272950965595" lon="10.1348960308231"><ele>905.5</ele><time>2026-04-04T15:00:13Z</time></trkpt><trkpt lat="44.555173646736485" lon="10.134767376993038"><ele>903.75</ele><time>2026-04-04T15:00:14Z</time></trkpt><trkpt lat="44.55506934205965" lon="10.134649560728654"><ele>902.0</ele><time>2026-04-04T15:00:15Z</time></trkpt><trkpt lat="44.55496460001622" lon="10.134540293697054"><ele>902.0</ele><time>2026-04-04T15:00:16Z</time></trkpt><trkpt lat="44.55485629124996" lon="10.134432680731862"><ele>902.0</ele><time>2026-04-04T15:00:17Z</time></trkpt><trkpt lat="44.55473977599533" lon="10.134320868837495"><ele>902.0</ele><time>2026-04-04T15:00:18Z</time></trkpt><trkpt lat="44.55460645247068" lon="10.1341970999683"><ele>902.0</ele><time>2026-04-04T15:00:19Z</time></trkpt><trkpt lat="44.55446117278376" lon="10.134094242266906"><ele>902.3333333333334</ele><time>2026-04-04T15:00:20Z</time></trkpt><trkpt lat="44.55431750058817" lon="10.133961974908779"><ele>902.6666666666667</ele><time>2026-04-04T15:00:21Z</time></trkpt><trkpt lat="44.5541662528238" lon="10.133833757493912"><ele>903.0</ele><time>2026-04-04T15:00:22Z</time></trkpt><trkpt lat="44.554013497328675" lon="10.13370025522851"><ele>903.0</ele><time>2026-04-04T15:00:23Z</time></trkpt><trkpt lat="44.55388577783659" lon="10.13355341870086"><ele>903.0</ele><time>2026-04-04T15:00:24Z</time></trkpt><trkpt lat="44.55375336507593" lon="10.133428537672549"><ele>903.0</ele><time>2026-04-04T15:00:25Z</time></trkpt><trkpt lat="44.55362913957403" lon="10.133286400011919"><ele>900.25</ele><time>2026-04-04T15:00:26Z</time></trkpt><trkpt lat="44.55351645483305" lon="10.133145106538187"><ele>897.5</ele><time>2026-04-04T15:00:27Z</time></trkpt><trkpt lat="44.55340141735698" lon="10.133015053745144"><ele>894.75</ele><time>2026-04-04T15:00:28Z</time></trkpt><trkpt lat="44.5532951137275" lon="10.132881984699173"><ele>892.0</ele><time>2026-04-04T15:00:29Z</time></trkpt><trkpt lat="44.55318378777018" lon="10.13277495709603"><ele>892.0</ele><time>2026-04-04T15:00:30Z</time></trkpt><trkpt lat="44.5530640352619" lon="10.132673029706712"><ele>892.0</ele><time>2026-04-04T15:00:31Z</time></trkpt><trkpt lat="44.55293999186918" lon="10.132577934347184"><ele>892.0</ele><time>2026-04-04T15:00:32Z</time></trkpt><trkpt lat="44.55281238379215" lon="10.13249412525426"><ele>892.0</ele><time>2026-04-04T15:00:33Z</time></trkpt><trkpt lat="44.5526888840175" lon="10.132420033443571"><ele>892.5</ele><time>2026-04-04T15:00:34Z</time></trkpt><trkpt lat="44.55256108799228" lon="10.132348191099895"><ele>893.0</ele><time>2026-04-04T15:00:35Z</time></trkpt><trkpt lat="44.5524328467737" lon="10.132276478999202"><ele>893.5</ele><time>2026-04-04T15:00:36Z</time></trkpt><trkpt lat="44.55230921177677" lon="10.132212757728025"><ele>894.0</ele><time>2026-04-04T15:00:37Z</time></trkpt><trkpt lat="44.552198234436844" lon="10.132155560198605"><ele>894.0</ele><time>2026-04-04T15:00:38Z</time></trkpt><trkpt lat="44.552093772357416" lon="10.132101720617086"><ele>894.0000000000001</ele><time>2026-04-04T15:00:39Z</time></trkpt><trkpt lat="44.55199398035781" lon="10.13204831611064"><ele>894.0000000000001</ele><time>2026-04-04T15:00:40Z</time></trkpt><trkpt lat="44.55189574950915" lon="10.131990433103292"><ele>894.0</ele><time>2026-04-04T15:00:41Z</time></trkpt><trkpt lat="44.551797132648055" lon="10.13194322944634"><ele>894.0</ele><time>2026-04-04T15:00:42Z</time></trkpt><trkpt lat="44.551707661654255" lon="10.131875965791533"><ele>893.2</ele><time>2026-04-04T15:00:43Z</time></trkpt><trkpt lat="44.551622059504986" lon="10.131827474941963"><ele>892.4000000000001</ele><time>2026-04-04T15:00:44Z</time></trkpt><trkpt lat="44.5515335282606" lon="10.131774621323544"><ele>891.6</ele><time>2026-04-04T15:00:45Z</time></trkpt><trkpt lat="44.55143365556853" lon="10.131751289155455"><ele>890.8</ele><time>2026-04-04T15:00:46Z</time></trkpt><trkpt lat="44.55132950489649" lon="10.131723954548209"><ele>890.0</ele><time>2026-04-04T15:00:47Z</time></trkpt><trkpt lat="44.55122030176753" lon="10.131758726189394"><ele>888.75</ele><time>2026-04-04T15:00:48Z</time></trkpt><trkpt lat="44.551116508161634" lon="10.131809055541158"><ele>887.5</ele><time>2026-04-04T15:00:49Z</time></trkpt><trkpt lat="44.55101361276461" lon="10.131864470471887"><ele>886.25</ele><time>2026-04-04T15:00:50Z</time></trkpt><trkpt lat="44.550906438990886" lon="10.13193204132989"><ele>885.0</ele><time>2026-04-04T15:00:51Z</time></trkpt><trkpt lat="44.55080160316112" lon="10.132001018514595"><ele>885.0</ele><time>2026-04-04T15:00:52Z</time></trkpt><trkpt lat="44.5506983636646" lon="10.13207176635069"><ele>885.0</ele><time>2026-04-04T15:00:53Z</time></trkpt><trkpt lat="44.55061235099961" lon="10.132133833572137"><ele>885.0</ele><time>2026-04-04T15:00:54Z</time></trkpt><trkpt lat="44.55055400002747" lon="10.132175939954665"><ele>885.0</ele><time>2026-04-04T15:01:10Z</time></trkpt><trkpt lat="44.55043714814691" lon="10.13225710452793"><ele>885.0</ele><time>2026-04-04T15:01:12Z</time></trkpt><trkpt lat="44.5503764099959" lon="10.132293144925068"><ele>884.0</ele><time>2026-04-04T15:01:13Z</time></trkpt><trkpt lat="44.55030632256114" lon="10.132329637170564"><ele>883.0</ele><time>2026-04-04T15:01:15Z</time></trkpt><trkpt lat="44.55037228656055" lon="10.132529214543684"><ele>882.0</ele><time>2026-04-04T15:01:19Z</time></trkpt><trkpt lat="44.55042741106006" lon="10.132581873916077"><ele>881.0</ele><time>2026-04-04T15:01:20Z</time></trkpt><trkpt lat="44.550484377559144" lon="10.132631206542863"><ele>880.0</ele><time>2026-04-04T15:01:21Z</time></trkpt><trkpt lat="44.550593731436955" lon="10.132706688756077"><ele>879.6666666666666</ele><time>2026-04-04T15:01:23Z</time></trkpt><trkpt lat="44.55067402003363" lon="10.132730922435831"><ele>879.3333333333333</ele><time>2026-04-04T15:01:25Z</time></trkpt><trkpt lat="44.55079057696728" lon="10.132726737271843"><ele>879.0</ele><time>2026-04-04T15:01:27.001Z</time></trkpt><trkpt lat="44.5508533890196" lon="10.13269399772796"><ele>878.6666666666667</ele><time>2026-04-04T15:01:28.001Z</time></trkpt><trkpt lat="44.55093692389537" lon="10.132635735747888"><ele>878.3333333333334</ele><time>2026-04-04T15:01:30.001Z</time></trkpt><trkpt lat="44.550992243031644" lon="10.132548809425053"><ele>878.0</ele><time>2026-04-04T15:01:39.001Z</time></trkpt><trkpt lat="44.551020630393026" lon="10.132442220240543"><ele>879.4</ele><time>2026-04-04T15:01:41.001Z</time></trkpt><trkpt lat="44.5510378314547" lon="10.132281044345467"><ele>880.8</ele><time>2026-04-04T15:01:43.001Z</time></trkpt><trkpt lat="44.55105387097525" lon="10.132177371031684"><ele>882.2</ele><time>2026-04-04T15:01:44.001Z</time></trkpt><trkpt lat="44.55106333590376" lon="10.132072714770807"><ele>883.6</ele><time>2026-04-04T15:01:45.001Z</time></trkpt><trkpt lat="44.55107437642231" lon="10.131942509584208"><ele>885.0</ele><time>2026-04-04T15:01:47.001Z</time></trkpt><trkpt lat="44.55112501828988" lon="10.131832797122524"><ele>886.25</ele><time>2026-04-04T15:01:49.001Z</time></trkpt><trkpt lat="44.55125808479629" lon="10.131795712436514"><ele>887.5</ele><time>2026-04-04T15:01:51.001Z</time></trkpt><trkpt lat="44.55132899919315" lon="10.131750213586823"><ele>888.75</ele><time>2026-04-04T15:01:52.001Z</time></trkpt><trkpt lat="44.55141025548353" lon="10.13176136767394"><ele>890.0</ele><time>2026-04-04T15:01:54.001Z</time></trkpt><trkpt lat="44.55135168423361" lon="10.131980137763668"><ele>890.0</ele><time>2026-04-04T15:01:59.001Z</time></trkpt><trkpt lat="44.55130861002315" lon="10.132123870654123"><ele>890.0</ele><time>2026-04-04T15:02:01.001Z</time></trkpt><trkpt lat="44.55127550529818" lon="10.132263307292824"><ele>890.0</ele><time>2026-04-04T15:02:03.001Z</time></trkpt><trkpt lat="44.55123999092214" lon="10.132397382963532"><ele>890.0</ele><time>2026-04-04T15:02:05.001Z</time></trkpt><trkpt lat="44.55118050559326" lon="10.13251437813246"><ele>890.0</ele><time>2026-04-04T15:02:07.001Z</time></trkpt><trkpt lat="44.55112424649348" lon="10.13260948646882"><ele>888.0000000000001</ele><time>2026-04-04T15:02:09.001Z</time></trkpt><trkpt lat="44.55107998015057" lon="10.132717077340402"><ele>886.0</ele><time>2026-04-04T15:02:11.001Z</time></trkpt><trkpt lat="44.551049719150434" lon="10.13280871786687"><ele>884.0</ele><time>2026-04-04T15:02:13.001Z</time></trkpt><trkpt lat="44.5509853949855" lon="10.13281770550239"><ele>882.0</ele><time>2026-04-04T15:02:15.001Z</time></trkpt><trkpt lat="44.55089121883274" lon="10.132825041142796"><ele>880.0000000000001</ele><time>2026-04-04T15:02:17.001Z</time></trkpt><trkpt lat="44.550798362957934" lon="10.132826782565347"><ele>878.0</ele><time>2026-04-04T15:02:19.001Z</time></trkpt><trkpt lat="44.55074706351758" lon="10.132942366623144"><ele>878.0</ele><time>2026-04-04T15:02:22Z</time></trkpt><trkpt lat="44.550737353214735" lon="10.133058380269462"><ele>878.0</ele><time>2026-04-04T15:02:24Z</time></trkpt><trkpt lat="44.550702814868906" lon="10.133140877588676"><ele>878.0</ele><time>2026-04-04T15:02:26Z</time></trkpt><trkpt lat="44.55066673581591" lon="10.133224107532614"><ele>878.0</ele><time>2026-04-04T15:02:28Z</time></trkpt><trkpt lat="44.550612996748946" lon="10.133294215130357"><ele>878.0</ele><time>2026-04-04T15:02:30Z</time></trkpt><trkpt lat="44.55055154411979" lon="10.133331181279445"><ele>878.0</ele><time>2026-04-04T15:02:32Z</time></trkpt><trkpt lat="44.55047046193952" lon="10.13337524647635"><ele>878.0</ele><time>2026-04-04T15:02:34Z</time></trkpt><trkpt lat="44.55037720837337" lon="10.133425626135356"><ele>876.3333333333334</ele><time>2026-04-04T15:02:36Z</time></trkpt><trkpt lat="44.55028489335763" lon="10.133485573215"><ele>874.6666666666667</ele><time>2026-04-04T15:02:38Z</time></trkpt><trkpt lat="44.55020318311764" lon="10.133537571753568"><ele>873.0</ele><time>2026-04-04T15:02:40Z</time></trkpt><trkpt lat="44.55013136302065" lon="10.133582820903065"><ele>871.3333333333333</ele><time>2026-04-04T15:02:42Z</time></trkpt><trkpt lat="44.55005873413768" lon="10.13363827575396"><ele>869.6666666666666</ele><time>2026-04-04T15:02:44Z</time></trkpt><trkpt lat="44.55003354795238" lon="10.133739458904296"><ele>868.0</ele><time>2026-04-04T15:02:46Z</time></trkpt><trkpt lat="44.550037789545215" lon="10.133875180987573"><ele>867.9999999999999</ele><time>2026-04-04T15:02:48Z</time></trkpt><trkpt lat="44.55001144071622" lon="10.133979616213976"><ele>868.0</ele><time>2026-04-04T15:02:50Z</time></trkpt><trkpt lat="44.5499411673734" lon="10.134037475046622"><ele>868.0</ele><time>2026-04-04T15:02:52Z</time></trkpt><trkpt lat="44.54988219930828" lon="10.134084384112548"><ele>868.0</ele><time>2026-04-04T15:02:55Z</time></trkpt><trkpt lat="44.549796123866976" lon="10.134143855295711"><ele>867.9999999999999</ele><time>2026-04-04T15:02:58Z</time></trkpt><trkpt lat="44.54972204217237" lon="10.134210814447593"><ele>868.0</ele><time>2026-04-04T15:03:10.001Z</time></trkpt><trkpt lat="44.54966699069276" lon="10.134264865273787"><ele>866.4999999999999</ele><time>2026-04-04T15:03:12.001Z</time></trkpt><trkpt lat="44.54960288103346" lon="10.134284771552627"><ele>865.0</ele><time>2026-04-04T15:03:14.001Z</time></trkpt><trkpt lat="44.54953617091353" lon="10.13431598072317"><ele>863.5</ele><time>2026-04-04T15:03:16.001Z</time></trkpt><trkpt lat="44.54947513714504" lon="10.13434445022813"><ele>862.0</ele><time>2026-04-04T15:03:19.001Z</time></trkpt><trkpt lat="44.549385510612225" lon="10.134374240607302"><ele>860.4999999999999</ele><time>2026-04-04T15:03:22.001Z</time></trkpt><trkpt lat="44.54928669989078" lon="10.134392394086662"><ele>859.0</ele><time>2026-04-04T15:03:25.001Z</time></trkpt><trkpt lat="44.54920431491654" lon="10.134391459923252"><ele>858.9999999999999</ele><time>2026-04-04T15:03:27.001Z</time></trkpt><trkpt lat="44.54911130600066" lon="10.134392801423454"><ele>859.0</ele><time>2026-04-04T15:03:29.001Z</time></trkpt><trkpt lat="44.549044065295654" lon="10.134387675789043"><ele>859.0</ele><time>2026-04-04T15:03:31.001Z</time></trkpt><trkpt lat="44.54895639914418" lon="10.134380462788004"><ele>859.0</ele><time>2026-04-04T15:03:33.001Z</time></trkpt><trkpt lat="44.54886332535039" lon="10.134400137362631"><ele>858.9999999999999</ele><time>2026-04-04T15:03:35.001Z</time></trkpt><trkpt lat="44.548802250044595" lon="10.134430287121392"><ele>859.0</ele><time>2026-04-04T15:03:36.001Z</time></trkpt><trkpt lat="44.54870073491686" lon="10.134488915701649"><ele>858.8000000000001</ele><time>2026-04-04T15:03:38.001Z</time></trkpt><trkpt lat="44.54859311015251" lon="10.134522271425093"><ele>858.6000000000001</ele><time>2026-04-04T15:03:40.001Z</time></trkpt><trkpt lat="44.548473724037585" lon="10.134517455176402"><ele>858.4</ele><time>2026-04-04T15:03:42.001Z</time></trkpt><trkpt lat="44.54837258307606" lon="10.134521480687107"><ele>858.2</ele><time>2026-04-04T15:03:44.001Z</time></trkpt><trkpt lat="44.5482847464239" lon="10.134539213107734"><ele>858.0</ele><time>2026-04-04T15:03:46.001Z</time></trkpt><trkpt lat="44.54819320130478" lon="10.134556811195937"><ele>858.0</ele><time>2026-04-04T15:03:48.001Z</time></trkpt><trkpt lat="44.548110946666235" lon="10.1345931040871"><ele>858.0</ele><time>2026-04-04T15:03:50.001Z</time></trkpt><trkpt lat="44.54803373524106" lon="10.134640370605656"><ele>858.0</ele><time>2026-04-04T15:03:52.001Z</time></trkpt><trkpt lat="44.54795991598945" lon="10.134677997445145"><ele>858.0</ele><time>2026-04-04T15:03:54.001Z</time></trkpt><trkpt lat="44.547893605351355" lon="10.134742945344334"><ele>858.0</ele><time>2026-04-04T15:03:56.001Z</time></trkpt><trkpt lat="44.54784620652649" lon="10.134820303870042"><ele>858.0</ele><time>2026-04-04T15:03:58.001Z</time></trkpt><trkpt lat="44.54779192770443" lon="10.134925951438213"><ele>854.8333333333334</ele><time>2026-04-04T15:04:01.001Z</time></trkpt><trkpt lat="44.54772840061659" lon="10.134994962475506"><ele>851.6666666666667</ele><time>2026-04-04T15:04:03.001Z</time></trkpt><trkpt lat="44.547654846447514" lon="10.135059605902562"><ele>848.5</ele><time>2026-04-04T15:04:05.001Z</time></trkpt><trkpt lat="44.54757618667338" lon="10.135118436108462"><ele>845.3333333333334</ele><time>2026-04-04T15:04:07.001Z</time></trkpt><trkpt lat="44.5475007128036" lon="10.13516157903921"><ele>842.1666666666667</ele><time>2026-04-04T15:04:09.001Z</time></trkpt><trkpt lat="44.54743322056338" lon="10.135164006177028"><ele>839.0</ele><time>2026-04-04T15:04:11.001Z</time></trkpt><trkpt lat="44.5473573688916" lon="10.135147096458562"><ele>839.0</ele><time>2026-04-04T15:04:13.001Z</time></trkpt><trkpt lat="44.547290939761034" lon="10.135104945126125"><ele>839.0</ele><time>2026-04-04T15:04:15.001Z</time></trkpt><trkpt lat="44.54722922711261" lon="10.13504592736869"><ele>839.0</ele><time>2026-04-04T15:04:17.001Z</time></trkpt><trkpt lat="44.54716455561761" lon="10.135014796109731"><ele>839.0</ele><time>2026-04-04T15:04:19.001Z</time></trkpt><trkpt lat="44.54709691975719" lon="10.135079946191974"><ele>839.0</ele><time>2026-04-04T15:04:22.001Z</time></trkpt><trkpt lat="44.54705053590212" lon="10.13515349536464"><ele>839.0</ele><time>2026-04-04T15:04:24.001Z</time></trkpt><trkpt lat="44.54698883264936" lon="10.135211353320042"><ele>839.0</ele><time>2026-04-04T15:04:26.001Z</time></trkpt><trkpt lat="44.54690669103063" lon="10.135244164423"><ele>837.5714285714286</ele><time>2026-04-04T15:04:28.001Z</time></trkpt><trkpt lat="44.54684142092976" lon="10.135288388644945"><ele>836.1428571428572</ele><time>2026-04-04T15:04:30.001Z</time></trkpt><trkpt lat="44.54677076235275" lon="10.135282171853056"><ele>834.7142857142858</ele><time>2026-04-04T15:04:32.001Z</time></trkpt><trkpt lat="44.54669954596687" lon="10.135210558843667"><ele>833.2857142857142</ele><time>2026-04-04T15:04:34.001Z</time></trkpt><trkpt lat="44.54664520939098" lon="10.135155330989734"><ele>831.8571428571429</ele><time>2026-04-04T15:04:35.001Z</time></trkpt><trkpt lat="44.54658595870376" lon="10.135100956958018"><ele>830.4285714285714</ele><time>2026-04-04T15:04:36.001Z</time></trkpt><trkpt lat="44.546512600846036" lon="10.135053688233837"><ele>829.0</ele><time>2026-04-04T15:04:37.001Z</time></trkpt><trkpt lat="44.54644778290497" lon="10.1350207144773"><ele>829.0</ele><time>2026-04-04T15:04:38.001Z</time></trkpt><trkpt lat="44.546347160683716" lon="10.134982172391682"><ele>829.0</ele><time>2026-04-04T15:04:40.001Z</time></trkpt><trkpt lat="44.54621923974931" lon="10.134976380876758"><ele>829.0</ele><time>2026-04-04T15:04:42.001Z</time></trkpt><trkpt lat="44.54610520112739" lon="10.134989258187863"><ele>829.0</ele><time>2026-04-04T15:04:44.001Z</time></trkpt><trkpt lat="44.54599551999717" lon="10.135025370617193"><ele>829.1666666666666</ele><time>2026-04-04T15:04:46.001Z</time></trkpt><trkpt lat="44.545879715065674" lon="10.135041606000495"><ele>829.3333333333333</ele><time>2026-04-04T15:04:48.001Z</time></trkpt><trkpt lat="44.54581179631431" lon="10.135044731923628"><ele>829.5</ele><time>2026-04-04T15:04:49.001Z</time></trkpt><trkpt lat="44.545715867779634" lon="10.135052814863954"><ele>829.6666666666667</ele><time>2026-04-04T15:04:51.001Z</time></trkpt><trkpt lat="44.54565380662606" lon="10.135068883722957"><ele>829.8333333333334</ele><time>2026-04-04T15:04:54.001Z</time></trkpt><trkpt lat="44.545653482989536" lon="10.135161204291395"><ele>830.0</ele><time>2026-04-04T15:05:36.001Z</time></trkpt><trkpt lat="44.54559166607043" lon="10.135212224548065"><ele>830.0000000000001</ele><time>2026-04-04T15:05:41.001Z</time></trkpt><trkpt lat="44.54564867880271" lon="10.135129175085417"><ele>830.0</ele><time>2026-04-04T15:05:58.001Z</time></trkpt><trkpt lat="44.54563667096227" lon="10.135001489219555"><ele>830.0</ele><time>2026-04-04T15:06:00.001Z</time></trkpt><trkpt lat="44.545603858270304" lon="10.134866604202779"><ele>830.0</ele><time>2026-04-04T15:06:02.001Z</time></trkpt><trkpt lat="44.54558259939277" lon="10.134780957634776"><ele>830.0000000000001</ele><time>2026-04-04T15:06:04.001Z</time></trkpt><trkpt lat="44.545557789571156" lon="10.134647753454052"><ele>830.0</ele><time>2026-04-04T15:06:06.001Z</time></trkpt><trkpt lat="44.545553134162695" lon="10.134548824402726"><ele>831.8333333333334</ele><time>2026-04-04T15:06:07.001Z</time></trkpt><trkpt lat="44.5455678985154" lon="10.134443540267451"><ele>833.6666666666667</ele><time>2026-04-04T15:06:08.001Z</time></trkpt><trkpt lat="44.545595972414645" lon="10.134354902356877"><ele>835.5</ele><time>2026-04-04T15:06:09.001Z</time></trkpt><trkpt lat="44.54563102666438" lon="10.134267828060665"><ele>837.3333333333333</ele><time>2026-04-04T15:06:10.001Z</time></trkpt><trkpt lat="44.545660280099725" lon="10.13417567023493"><ele>839.1666666666666</ele><time>2026-04-04T15:06:11.001Z</time></trkpt><trkpt lat="44.545688332664845" lon="10.134095335192445"><ele>841.0</ele><time>2026-04-04T15:06:12.001Z</time></trkpt><trkpt lat="44.5457452496179" lon="10.133977475019107"><ele>842.6666666666666</ele><time>2026-04-04T15:06:14.001Z</time></trkpt><trkpt lat="44.54579356805635" lon="10.133888225566794"><ele>844.3333333333333</ele><time>2026-04-04T15:06:16.001Z</time></trkpt><trkpt lat="44.545861157582735" lon="10.133803972379612"><ele>846.0</ele><time>2026-04-04T15:06:18.001Z</time></trkpt><trkpt lat="44.54594741567249" lon="10.133708020357577"><ele>847.6666666666667</ele><time>2026-04-04T15:06:20.001Z</time></trkpt><trkpt lat="44.545994831314104" lon="10.133646020066394"><ele>849.3333333333334</ele><time>2026-04-04T15:06:21.001Z</time></trkpt><trkpt lat="44.54605118560259" lon="10.133583341868984"><ele>851.0</ele><time>2026-04-04T15:06:23.001Z</time></trkpt><trkpt lat="44.546092497009994" lon="10.133515572324857"><ele>851.0000000000001</ele><time>2026-04-04T15:06:44.001Z</time></trkpt><trkpt lat="44.54614824060041" lon="10.133422027155252"><ele>851.0</ele><time>2026-04-04T15:06:46.001Z</time></trkpt><trkpt lat="44.54622207990696" lon="10.133344840946632"><ele>851.0</ele><time>2026-04-04T15:06:48.001Z</time></trkpt><trkpt lat="44.54629943906711" lon="10.133264613715577"><ele>851.0</ele><time>2026-04-04T15:06:50.001Z</time></trkpt><trkpt lat="44.546335073574745" lon="10.133186725033037"><ele>851.0000000000001</ele><time>2026-04-04T15:06:52.001Z</time></trkpt><trkpt lat="44.54637312010756" lon="10.133097415616563"><ele>851.0</ele><time>2026-04-04T15:06:54.001Z</time></trkpt><trkpt lat="44.54643022049229" lon="10.133014930332518"><ele>854.4</ele><time>2026-04-04T15:06:56.001Z</time></trkpt><trkpt lat="44.54651177887475" lon="10.132925725480337"><ele>857.8</ele><time>2026-04-04T15:06:58.001Z</time></trkpt><trkpt lat="44.546589470048104" lon="10.132814071756771"><ele>861.1999999999999</ele><time>2026-04-04T15:07:00.001Z</time></trkpt><trkpt lat="44.546641488772885" lon="10.132687825965256"><ele>864.5999999999999</ele><time>2026-04-04T15:07:02.001Z</time></trkpt><trkpt lat="44.546715018622365" lon="10.132560930517489"><ele>868.0</ele><time>2026-04-04T15:07:04.001Z</time></trkpt><trkpt lat="44.54675366898403" lon="10.13247509248213"><ele>868.3333333333333</ele><time>2026-04-04T15:07:05.001Z</time></trkpt><trkpt lat="44.546817123774204" lon="10.132356161676924"><ele>868.6666666666666</ele><time>2026-04-04T15:07:07.001Z</time></trkpt><trkpt lat="44.5468668412541" lon="10.13227435293798"><ele>869.0</ele><time>2026-04-04T15:07:08.001Z</time></trkpt><trkpt lat="44.54691771099823" lon="10.132179811792783"><ele>869.3333333333333</ele><time>2026-04-04T15:07:09.001Z</time></trkpt><trkpt lat="44.54697147051764" lon="10.132083702200049"><ele>869.6666666666666</ele><time>2026-04-04T15:07:10.001Z</time></trkpt><trkpt lat="44.5470206736738" lon="10.132000479189776"><ele>870.0</ele><time>2026-04-04T15:07:11.001Z</time></trkpt><trkpt lat="44.547072448553" lon="10.131925834959082"><ele>870.6666666666666</ele><time>2026-04-04T15:07:12.001Z</time></trkpt><trkpt lat="44.54713265116737" lon="10.13185452199635"><ele>871.3333333333333</ele><time>2026-04-04T15:07:13.001Z</time></trkpt><trkpt lat="44.547200061854284" lon="10.131790615322595"><ele>872.0</ele><time>2026-04-04T15:07:14.001Z</time></trkpt><trkpt lat="44.547264570536015" lon="10.131730435145622"><ele>872.6666666666666</ele><time>2026-04-04T15:07:15.001Z</time></trkpt><trkpt lat="44.54732869899527" lon="10.131690805274193"><ele>873.3333333333333</ele><time>2026-04-04T15:07:16.001Z</time></trkpt><trkpt lat="44.54741672575214" lon="10.131611762597851"><ele>874.0</ele><time>2026-04-04T15:07:18.001Z</time></trkpt><trkpt lat="44.54749648549734" lon="10.131570680868817"><ele>875.1666666666666</ele><time>2026-04-04T15:07:20.001Z</time></trkpt><trkpt lat="44.54756213347602" lon="10.131534856392221"><ele>876.3333333333333</ele><time>2026-04-04T15:07:23.001Z</time></trkpt><trkpt lat="44.547565211116556" lon="10.131434328245744"><ele>877.5</ele><time>2026-04-04T15:07:27.001Z</time></trkpt><trkpt lat="44.547500093879165" lon="10.131423547164719"><ele>878.6666666666667</ele><time>2026-04-04T15:07:34.001Z</time></trkpt><trkpt lat="44.547378878949836" lon="10.131413863458095"><ele>879.8333333333334</ele><time>2026-04-04T15:07:36.001Z</time></trkpt><trkpt lat="44.547298872126696" lon="10.131394799526047"><ele>881.0</ele><time>2026-04-04T15:07:37.001Z</time></trkpt><trkpt lat="44.547214742462096" lon="10.131371600126705"><ele>881.0000000000001</ele><time>2026-04-04T15:07:38.001Z</time></trkpt><trkpt lat="44.54712044047756" lon="10.131351715458704"><ele>881.0</ele><time>2026-04-04T15:07:39.001Z</time></trkpt><trkpt lat="44.547029242560576" lon="10.131334511595092"><ele>881.0</ele><time>2026-04-04T15:07:40.001Z</time></trkpt><trkpt lat="44.54694440452895" lon="10.131313006434654"><ele>881.0</ele><time>2026-04-04T15:07:41.001Z</time></trkpt><trkpt lat="44.54686129004909" lon="10.131288004382817"><ele>881.0000000000001</ele><time>2026-04-04T15:07:42.001Z</time></trkpt><trkpt lat="44.546787496951566" lon="10.13126387112527"><ele>881.0</ele><time>2026-04-04T15:07:43.001Z</time></trkpt><trkpt lat="44.54671254754983" lon="10.1312427654877"><ele>879.1666666666667</ele><time>2026-04-04T15:07:44.001Z</time></trkpt><trkpt lat="44.54664813296072" lon="10.131225113216367"><ele>877.3333333333334</ele><time>2026-04-04T15:07:45.001Z</time></trkpt><trkpt lat="44.546581338378644" lon="10.13119809758766"><ele>875.5</ele><time>2026-04-04T15:07:46.001Z</time></trkpt><trkpt lat="44.54651989238" lon="10.131152150367955"><ele>873.6666666666667</ele><time>2026-04-04T15:07:47.001Z</time></trkpt><trkpt lat="44.54647000834603" lon="10.131074661227727"><ele>871.8333333333334</ele><time>2026-04-04T15:07:48.001Z</time></trkpt><trkpt lat="44.54643407237679" lon="10.130964340403192"><ele>870.0</ele><time>2026-04-04T15:07:49.001Z</time></trkpt><trkpt lat="44.54642351357548" lon="10.130837266185612"><ele>869.8</ele><time>2026-04-04T15:07:50.001Z</time></trkpt><trkpt lat="44.54643304094195" lon="10.130705095137325"><ele>869.6</ele><time>2026-04-04T15:07:51.001Z</time></trkpt><trkpt lat="44.54646420007099" lon="10.130575798412771"><ele>869.4000000000001</ele><time>2026-04-04T15:07:52.001Z</time></trkpt><trkpt lat="44.54650280708079" lon="10.130433732714392"><ele>869.2</ele><time>2026-04-04T15:07:53.001Z</time></trkpt><trkpt lat="44.54652380288172" lon="10.130309238912805"><ele>869.0</ele><time>2026-04-04T15:07:54.001Z</time></trkpt><trkpt lat="44.54651549592994" lon="10.130186770988246"><ele>869.0</ele><time>2026-04-04T15:07:55.001Z</time></trkpt><trkpt lat="44.54648074408641" lon="10.13007500861038"><ele>869.0000000000001</ele><time>2026-04-04T15:07:56.001Z</time></trkpt><trkpt lat="44.546423970897266" lon="10.129973134850502"><ele>869.0000000000001</ele><time>2026-04-04T15:07:57.001Z</time></trkpt><trkpt lat="44.546355305014146" lon="10.12987482490876"><ele>869.0</ele><time>2026-04-04T15:07:58.001Z</time></trkpt><trkpt lat="44.54626861649366" lon="10.129775075276868"><ele>869.0</ele><time>2026-04-04T15:07:59.001Z</time></trkpt><trkpt lat="44.54617242273065" lon="10.129668852389178"><ele>866.0</ele><time>2026-04-04T15:08:00.001Z</time></trkpt><trkpt lat="44.546076297383394" lon="10.129559622619103"><ele>863.0</ele><time>2026-04-04T15:08:01.001Z</time></trkpt><trkpt lat="44.54599680002007" lon="10.129447119552003"><ele>860.0</ele><time>2026-04-04T15:08:02.001Z</time></trkpt><trkpt lat="44.54592867185144" lon="10.129301462074457"><ele>857.0</ele><time>2026-04-04T15:08:03.001Z</time></trkpt><trkpt lat="44.545876973394094" lon="10.129128256176745"><ele>858.0</ele><time>2026-04-04T15:08:04.001Z</time></trkpt><trkpt lat="44.54584707711381" lon="10.128962280599445"><ele>859.0</ele><time>2026-04-04T15:08:05.001Z</time></trkpt><trkpt lat="44.545822287983015" lon="10.12880531052354"><ele>860.0</ele><time>2026-04-04T15:08:06.001Z</time></trkpt><trkpt lat="44.54579408575093" lon="10.128652812887966"><ele>861.0</ele><time>2026-04-04T15:08:07.001Z</time></trkpt><trkpt lat="44.54576643214633" lon="10.128509447229055"><ele>861.0</ele><time>2026-04-04T15:08:08.001Z</time></trkpt><trkpt lat="44.545741840956524" lon="10.128377679249107"><ele>861.0</ele><time>2026-04-04T15:08:09.001Z</time></trkpt><trkpt lat="44.54571216657071" lon="10.128257273070874"><ele>861.0</ele><time>2026-04-04T15:08:10.001Z</time></trkpt><trkpt lat="44.54568313011919" lon="10.128143870230994"><ele>861.0</ele><time>2026-04-04T15:08:11.001Z</time></trkpt><trkpt lat="44.54565594783114" lon="10.12803428504231"><ele>861.0</ele><time>2026-04-04T15:08:12.001Z</time></trkpt><trkpt lat="44.5456305561363" lon="10.127933140728123"><ele>861.0</ele><time>2026-04-04T15:08:13.001Z</time></trkpt><trkpt lat="44.545609702028614" lon="10.127834083596829"><ele>861.5</ele><time>2026-04-04T15:08:14.001Z</time></trkpt><trkpt lat="44.545556504454474" lon="10.127733777570096"><ele>862.0</ele><time>2026-04-04T15:08:16.001Z</time></trkpt><trkpt lat="44.54544596727062" lon="10.127746123550647"><ele>862.5</ele><time>2026-04-04T15:08:18.001Z</time></trkpt><trkpt lat="44.545379598922466" lon="10.127771575705212"><ele>863.0</ele><time>2026-04-04T15:08:19.001Z</time></trkpt><trkpt lat="44.545314725217786" lon="10.127795006949281"><ele>863.5</ele><time>2026-04-04T15:08:20.001Z</time></trkpt><trkpt lat="44.54524698055941" lon="10.127823248983258"><ele>864.0</ele><time>2026-04-04T15:08:21.001Z</time></trkpt><trkpt lat="44.54514368646066" lon="10.127863123775406"><ele>860.6</ele><time>2026-04-04T15:08:22.001Z</time></trkpt><trkpt lat="44.545040744281835" lon="10.127909609538323"><ele>857.2</ele><time>2026-04-04T15:08:23.001Z</time></trkpt><trkpt lat="44.544939906174704" lon="10.127956333879371"><ele>853.8000000000001</ele><time>2026-04-04T15:08:24.001Z</time></trkpt><trkpt lat="44.54485025435843" lon="10.127999277717592"><ele>850.4000000000001</ele><time>2026-04-04T15:08:25.001Z</time></trkpt><trkpt lat="44.54475352130331" lon="10.128042522694157"><ele>847.0</ele><time>2026-04-04T15:08:26.001Z</time></trkpt><trkpt lat="44.54466444592161" lon="10.128084455375339"><ele>847.0</ele><time>2026-04-04T15:08:27.001Z</time></trkpt><trkpt lat="44.54457454749502" lon="10.128132619799665"><ele>847.0</ele><time>2026-04-04T15:08:28.001Z</time></trkpt><trkpt lat="44.54448857844432" lon="10.128169703472674"><ele>847.0</ele><time>2026-04-04T15:08:29.001Z</time></trkpt><trkpt lat="44.54439204771688" lon="10.128191470738605"><ele>847.0</ele><time>2026-04-04T15:08:30.001Z</time></trkpt><trkpt lat="44.54429949199604" lon="10.128195768381735"><ele>847.0</ele><time>2026-04-04T15:08:31.001Z</time></trkpt><trkpt lat="44.54420963829384" lon="10.128197762838814"><ele>845.1666666666666</ele><time>2026-04-04T15:08:32.001Z</time></trkpt><trkpt lat="44.5441320435827" lon="10.128212766544145"><ele>843.3333333333333</ele><time>2026-04-04T15:08:33.001Z</time></trkpt><trkpt lat="44.5440376108293" lon="10.128279062418425"><ele>841.5</ele><time>2026-04-04T15:08:35.001Z</time></trkpt><trkpt lat="44.543957201371754" lon="10.128307233116608"><ele>839.6666666666667</ele><time>2026-04-04T15:08:37.001Z</time></trkpt><trkpt lat="44.54389585013485" lon="10.128223579988193"><ele>837.8333333333334</ele><time>2026-04-04T15:08:39.001Z</time></trkpt><trkpt lat="44.54389962202337" lon="10.12809204317072"><ele>836.0</ele><time>2026-04-04T15:08:41.001Z</time></trkpt><trkpt lat="44.54397969675408" lon="10.1279926962883"><ele>835.0000000000001</ele><time>2026-04-04T15:08:43.001Z</time></trkpt><trkpt lat="44.544040536580795" lon="10.127933720203531"><ele>834.0</ele><time>2026-04-04T15:08:44.001Z</time></trkpt><trkpt lat="44.5440920410869" lon="10.127881850342213"><ele>833.0</ele><time>2026-04-04T15:08:45.001Z</time></trkpt><trkpt lat="44.54413759312043" lon="10.127820803482932"><ele>832.0</ele><time>2026-04-04T15:08:46.001Z</time></trkpt><trkpt lat="44.544207238397036" lon="10.127681604378303"><ele>831.0000000000001</ele><time>2026-04-04T15:08:48.001Z</time></trkpt><trkpt lat="44.54420523727639" lon="10.127584006335733"><ele>830.0</ele><time>2026-04-04T15:08:49.001Z</time></trkpt><trkpt lat="44.54417985871561" lon="10.12748034528864"><ele>830.1666666666667</ele><time>2026-04-04T15:08:50.001Z</time></trkpt><trkpt lat="44.54414802687258" lon="10.127365009494945"><ele>830.3333333333334</ele><time>2026-04-04T15:08:51.001Z</time></trkpt><trkpt lat="44.544112288864625" lon="10.127251293688296"><ele>830.5</ele><time>2026-04-04T15:08:52.001Z</time></trkpt><trkpt lat="44.544065995152266" lon="10.127164264539168"><ele>830.6666666666667</ele><time>2026-04-04T15:08:53.001Z</time></trkpt><trkpt lat="44.544009589277266" lon="10.127091662208322"><ele>830.8333333333334</ele><time>2026-04-04T15:08:54.001Z</time></trkpt><trkpt lat="44.543946900372035" lon="10.127031609025243"><ele>831.0</ele><time>2026-04-04T15:08:55.001Z</time></trkpt><trkpt lat="44.543890380907385" lon="10.126966534161195"><ele>830.9999999999999</ele><time>2026-04-04T15:08:56.001Z</time></trkpt><trkpt lat="44.543849205844985" lon="10.126881135062114"><ele>831.0</ele><time>2026-04-04T15:08:57.001Z</time></trkpt><trkpt lat="44.54382431504478" lon="10.12677650630784"><ele>831.0</ele><time>2026-04-04T15:08:58.001Z</time></trkpt><trkpt lat="44.54381879183331" lon="10.126670360517725"><ele>831.0</ele><time>2026-04-04T15:08:59.001Z</time></trkpt><trkpt lat="44.54381196010136" lon="10.126563683492426"><ele>831.0</ele><time>2026-04-04T15:09:00.001Z</time></trkpt><trkpt lat="44.54379149230055" lon="10.126472750776664"><ele>830.9999999999999</ele><time>2026-04-04T15:09:01.001Z</time></trkpt><trkpt lat="44.54374922876052" lon="10.126388307217686"><ele>831.0</ele><time>2026-04-04T15:09:02.001Z</time></trkpt><trkpt lat="44.543692882370166" lon="10.126326488196096"><ele>831.5999999999999</ele><time>2026-04-04T15:09:03.001Z</time></trkpt><trkpt lat="44.54362170023502" lon="10.126261186216466"><ele>832.2</ele><time>2026-04-04T15:09:04.001Z</time></trkpt><trkpt lat="44.54353144547696" lon="10.126199472147187"><ele>832.8</ele><time>2026-04-04T15:09:05.001Z</time></trkpt><trkpt lat="44.54343900296278" lon="10.126158497091481"><ele>833.4000000000001</ele><time>2026-04-04T15:09:06.001Z</time></trkpt><trkpt lat="44.543340863107886" lon="10.126119253127849"><ele>834.0</ele><time>2026-04-04T15:09:07.001Z</time></trkpt><trkpt lat="44.54325342783916" lon="10.126091440636632"><ele>834.0</ele><time>2026-04-04T15:09:08.001Z</time></trkpt><trkpt lat="44.54318400445224" lon="10.12605850761993"><ele>834.0</ele><time>2026-04-04T15:09:09.001Z</time></trkpt><trkpt lat="44.54313043874768" lon="10.126003856832632"><ele>834.0</ele><time>2026-04-04T15:09:10.001Z</time></trkpt><trkpt lat="44.543092658695194" lon="10.125931059393467"><ele>834.0</ele><time>2026-04-04T15:09:11.001Z</time></trkpt><trkpt lat="44.54303347382895" lon="10.125815412881837"><ele>834.0</ele><time>2026-04-04T15:09:12.001Z</time></trkpt><trkpt lat="44.54296790457645" lon="10.125711493640628"><ele>834.0</ele><time>2026-04-04T15:09:13.001Z</time></trkpt><trkpt lat="44.54289684513694" lon="10.125608731803743"><ele>833.0</ele><time>2026-04-04T15:09:14.001Z</time></trkpt><trkpt lat="44.54284120193728" lon="10.125490771737969"><ele>832.0</ele><time>2026-04-04T15:09:15.001Z</time></trkpt><trkpt lat="44.54280579353683" lon="10.125359005566777"><ele>831.0</ele><time>2026-04-04T15:09:16.001Z</time></trkpt><trkpt lat="44.542791927171066" lon="10.125221544452483"><ele>830.0</ele><time>2026-04-04T15:09:17.001Z</time></trkpt><trkpt lat="44.5427913924339" lon="10.125078334940618"><ele>829.0</ele><time>2026-04-04T15:09:18.001Z</time></trkpt><trkpt lat="44.54280153455916" lon="10.12492507852409"><ele>830.6</ele><time>2026-04-04T15:09:19.001Z</time></trkpt><trkpt lat="44.54282260542756" lon="10.12476249145111"><ele>832.2</ele><time>2026-04-04T15:09:20.001Z</time></trkpt><trkpt lat="44.54284669868176" lon="10.124627206042916"><ele>833.8000000000001</ele><time>2026-04-04T15:09:21.001Z</time></trkpt><trkpt lat="44.54287432783563" lon="10.124523320069153"><ele>835.4000000000001</ele><time>2026-04-04T15:09:22.001Z</time></trkpt><trkpt lat="44.54289830381148" lon="10.124440999347758"><ele>837.0</ele><time>2026-04-04T15:09:23.001Z</time></trkpt><trkpt lat="44.5428778145544" lon="10.124271846216327"><ele>837.0</ele><time>2026-04-04T15:09:25.001Z</time></trkpt><trkpt lat="44.542825736088744" lon="10.12420175656518"><ele>837.0</ele><time>2026-04-04T15:09:26.001Z</time></trkpt><trkpt lat="44.54274529682804" lon="10.124139230792347"><ele>837.0</ele><time>2026-04-04T15:09:27.001Z</time></trkpt><trkpt lat="44.54264832809162" lon="10.12410273675898"><ele>837.0</ele><time>2026-04-04T15:09:28.001Z</time></trkpt><trkpt lat="44.54255743097214" lon="10.124104546102858"><ele>837.0</ele><time>2026-04-04T15:09:29.001Z</time></trkpt><trkpt lat="44.54245711649018" lon="10.124128458857573"><ele>837.0</ele><time>2026-04-04T15:09:30.001Z</time></trkpt><trkpt lat="44.54236450189507" lon="10.124162471099458"><ele>837.0</ele><time>2026-04-04T15:09:31.001Z</time></trkpt><trkpt lat="44.54227902940524" lon="10.124173789963502"><ele>837.0</ele><time>2026-04-04T15:09:32.001Z</time></trkpt><trkpt lat="44.5421749479773" lon="10.124104967329961"><ele>837.0</ele><time>2026-04-04T15:09:34.001Z</time></trkpt><trkpt lat="44.54213256065607" lon="10.124032432191033"><ele>837.0</ele><time>2026-04-04T15:09:35.001Z</time></trkpt><trkpt lat="44.542089168729845" lon="10.123924648350945"><ele>835.8</ele><time>2026-04-04T15:09:36.001Z</time></trkpt><trkpt lat="44.54203710762318" lon="10.12381553203518"><ele>834.6</ele><time>2026-04-04T15:09:37.001Z</time></trkpt><trkpt lat="44.541980631964215" lon="10.123701215927221"><ele>833.4</ele><time>2026-04-04T15:09:38.001Z</time></trkpt><trkpt lat="44.541932108401156" lon="10.123583262579027"><ele>832.1999999999999</ele><time>2026-04-04T15:09:39.001Z</time></trkpt><trkpt lat="44.5418888609309" lon="10.123462957688208"><ele>831.0</ele><time>2026-04-04T15:09:40.001Z</time></trkpt><trkpt lat="44.54184546183471" lon="10.123343193311307"><ele>831.0</ele><time>2026-04-04T15:09:41.001Z</time></trkpt><trkpt lat="44.541804147565564" lon="10.123235473160783"><ele>831.0</ele><time>2026-04-04T15:09:42.001Z</time></trkpt><trkpt lat="44.54175663238086" lon="10.123109745075919"><ele>831.0</ele><time>2026-04-04T15:09:43.001Z</time></trkpt><trkpt lat="44.54171453837894" lon="10.122992704400962"><ele>831.0</ele><time>2026-04-04T15:09:44.001Z</time></trkpt><trkpt lat="44.541690912779735" lon="10.122872000469938"><ele>831.0</ele><time>2026-04-04T15:09:45.001Z</time></trkpt><trkpt lat="44.54168235763226" lon="10.122737039192309"><ele>830.5999999999999</ele><time>2026-04-04T15:09:46.001Z</time></trkpt><trkpt lat="44.5416895398448" lon="10.122591228508368"><ele>830.2</ele><time>2026-04-04T15:09:47.001Z</time></trkpt><trkpt lat="44.5417140683405" lon="10.122447957602747"><ele>829.8</ele><time>2026-04-04T15:09:48.001Z</time></trkpt><trkpt lat="44.54175720996217" lon="10.12231617719196"><ele>829.4000000000001</ele><time>2026-04-04T15:09:49.001Z</time></trkpt><trkpt lat="44.54179708427935" lon="10.122222458832377"><ele>829.0</ele><time>2026-04-04T15:09:50.001Z</time></trkpt><trkpt lat="44.541817032460266" lon="10.12204612662756"><ele>828.4999999999999</ele><time>2026-04-04T15:09:52.001Z</time></trkpt><trkpt lat="44.541809081072344" lon="10.121936406839174"><ele>828.0</ele><time>2026-04-04T15:09:54.001Z</time></trkpt><trkpt lat="44.5417808231036" lon="10.121819486119561"><ele>827.5</ele><time>2026-04-04T15:10:33.001Z</time></trkpt><trkpt lat="44.54171104213564" lon="10.12172857895393"><ele>827.0</ele><time>2026-04-04T15:10:35.001Z</time></trkpt><trkpt lat="44.541657278998215" lon="10.121669260210865"><ele>826.4999999999999</ele><time>2026-04-04T15:10:36.001Z</time></trkpt><trkpt lat="44.54159348222836" lon="10.121602612317796"><ele>826.0</ele><time>2026-04-04T15:10:37.001Z</time></trkpt><trkpt lat="44.54153689543232" lon="10.121538173042644"><ele>825.4285714285714</ele><time>2026-04-04T15:10:38.001Z</time></trkpt><trkpt lat="44.54148766066747" lon="10.121473798057885"><ele>824.8571428571429</ele><time>2026-04-04T15:10:39.001Z</time></trkpt><trkpt lat="44.54144204024311" lon="10.12140545363889"><ele>824.2857142857142</ele><time>2026-04-04T15:10:40.001Z</time></trkpt><trkpt lat="44.54139985392985" lon="10.121338917260722"><ele>823.7142857142858</ele><time>2026-04-04T15:10:41.001Z</time></trkpt><trkpt lat="44.54135228977361" lon="10.12126923066334"><ele>823.1428571428571</ele><time>2026-04-04T15:10:42.001Z</time></trkpt><trkpt lat="44.54131005411799" lon="10.121203582515461"><ele>822.5714285714286</ele><time>2026-04-04T15:10:43.001Z</time></trkpt><trkpt lat="44.54122364943575" lon="10.121123702120757"><ele>822.0</ele><time>2026-04-04T15:10:45.001Z</time></trkpt><trkpt lat="44.54113233594886" lon="10.121058209209329"><ele>821.0</ele><time>2026-04-04T15:10:47.001Z</time></trkpt><trkpt lat="44.541026882461395" lon="10.120971144407509"><ele>820.0</ele><time>2026-04-04T15:10:49.001Z</time></trkpt><trkpt lat="44.54096456259132" lon="10.120915904512845"><ele>819.0</ele><time>2026-04-04T15:10:50.001Z</time></trkpt><trkpt lat="44.54090127935614" lon="10.120843424575405"><ele>818.0</ele><time>2026-04-04T15:10:51.001Z</time></trkpt><trkpt lat="44.54083802102627" lon="10.120762682204985"><ele>817.0</ele><time>2026-04-04T15:10:52.001Z</time></trkpt><trkpt lat="44.54078214523645" lon="10.120689590279996"><ele>816.0</ele><time>2026-04-04T15:10:53.001Z</time></trkpt><trkpt lat="44.540728731052006" lon="10.120623092248051"><ele>815.0</ele><time>2026-04-04T15:10:54.001Z</time></trkpt><trkpt lat="44.54062772312623" lon="10.12052153352542"><ele>814.0</ele><time>2026-04-04T15:10:56.001Z</time></trkpt><trkpt lat="44.540578122713676" lon="10.1204585666774"><ele>813.0</ele><time>2026-04-04T15:10:57.001Z</time></trkpt><trkpt lat="44.540527856847554" lon="10.120400823583873"><ele>812.0</ele><time>2026-04-04T15:10:58.001Z</time></trkpt><trkpt lat="44.540443711873515" lon="10.12033101840064"><ele>811.0</ele><time>2026-04-04T15:11:00.001Z</time></trkpt><trkpt lat="44.54037935607153" lon="10.12028058072869"><ele>810.0</ele><time>2026-04-04T15:11:02.001Z</time></trkpt><trkpt lat="44.540318141714586" lon="10.120226630132306"><ele>809.5714285714286</ele><time>2026-04-04T15:11:11.001Z</time></trkpt><trkpt lat="44.54027668684084" lon="10.120157824944924"><ele>809.1428571428571</ele><time>2026-04-04T15:11:13.001Z</time></trkpt><trkpt lat="44.54025513608671" lon="10.120047306340838"><ele>808.7142857142858</ele><time>2026-04-04T15:11:15.001Z</time></trkpt><trkpt lat="44.5402456218535" lon="10.11995528022872"><ele>808.2857142857142</ele><time>2026-04-04T15:11:17.001Z</time></trkpt><trkpt lat="44.54028423701673" lon="10.119861089240244"><ele>807.8571428571429</ele><time>2026-04-04T15:11:19.001Z</time></trkpt><trkpt lat="44.54032695394459" lon="10.11979432584843"><ele>807.4285714285714</ele><time>2026-04-04T15:11:21.001Z</time></trkpt><trkpt lat="44.54039659336132" lon="10.119790161225477"><ele>807.0</ele><time>2026-04-04T15:11:24.001Z</time></trkpt><trkpt lat="44.540491107937534" lon="10.119846008706617"><ele>805.8</ele><time>2026-04-04T15:11:26.001Z</time></trkpt><trkpt lat="44.5406093156323" lon="10.119865311678543"><ele>804.6</ele><time>2026-04-04T15:11:28.001Z</time></trkpt><trkpt lat="44.54071354710633" lon="10.11984487391125"><ele>803.4</ele><time>2026-04-04T15:11:30.001Z</time></trkpt><trkpt lat="44.54079484002746" lon="10.119816626747033"><ele>802.1999999999999</ele><time>2026-04-04T15:11:32.001Z</time></trkpt><trkpt lat="44.540885232029474" lon="10.119767533148286"><ele>801.0</ele><time>2026-04-04T15:11:34.001Z</time></trkpt><trkpt lat="44.54098653534939" lon="10.119748259164199"><ele>801.0</ele><time>2026-04-04T15:11:36.001Z</time></trkpt><trkpt lat="44.54107112634957" lon="10.119701729055459"><ele>801.0</ele><time>2026-04-04T15:11:38.001Z</time></trkpt><trkpt lat="44.54112902205003" lon="10.119613691550594"><ele>801.0</ele><time>2026-04-04T15:11:40.001Z</time></trkpt><trkpt lat="44.54114913861121" lon="10.119525734246768"><ele>801.0</ele><time>2026-04-04T15:11:42.001Z</time></trkpt><trkpt lat="44.541105411015785" lon="10.119438397779428"><ele>801.0</ele><time>2026-04-04T15:11:44.001Z</time></trkpt><trkpt lat="44.54105593621946" lon="10.119357505523256"><ele>801.0</ele><time>2026-04-04T15:11:46.001Z</time></trkpt><trkpt lat="44.541007142533225" lon="10.119270107351191"><ele>801.0</ele><time>2026-04-04T15:11:48.001Z</time></trkpt><trkpt lat="44.540939915715455" lon="10.119151575152337"><ele>801.0</ele><time>2026-04-04T15:11:50.001Z</time></trkpt><trkpt lat="44.54088128287011" lon="10.119032800127554"><ele>801.0</ele><time>2026-04-04T15:11:52.001Z</time></trkpt><trkpt lat="44.54083592038915" lon="10.118941693512689"><ele>801.0</ele><time>2026-04-04T15:11:53.001Z</time></trkpt><trkpt lat="44.540767538522005" lon="10.11880638348044"><ele>801.0</ele><time>2026-04-04T15:11:54.001Z</time></trkpt><trkpt lat="44.540703686447735" lon="10.118677637349686"><ele>799.5999999999999</ele><time>2026-04-04T15:11:55.001Z</time></trkpt><trkpt lat="44.54064847550072" lon="10.118562430867797"><ele>798.2</ele><time>2026-04-04T15:11:56.001Z</time></trkpt><trkpt lat="44.54059714077162" lon="10.118449746224522"><ele>796.8</ele><time>2026-04-04T15:11:57.001Z</time></trkpt><trkpt lat="44.54055648975322" lon="10.118328514845953"><ele>795.4000000000001</ele><time>2026-04-04T15:11:58.001Z</time></trkpt><trkpt lat="44.540529377726266" lon="10.118197577297904"><ele>794.0</ele><time>2026-04-04T15:11:59.001Z</time></trkpt><trkpt lat="44.540505069786384" lon="10.11805852520303"><ele>793.6</ele><time>2026-04-04T15:12:00.001Z</time></trkpt><trkpt lat="44.54045997910791" lon="10.117931797101347"><ele>793.2</ele><time>2026-04-04T15:12:01.001Z</time></trkpt><trkpt lat="44.54039302792389" lon="10.117806930943141"><ele>792.8000000000001</ele><time>2026-04-04T15:12:02.001Z</time></trkpt><trkpt lat="44.540319140674704" lon="10.11768178701658"><ele>792.4000000000001</ele><time>2026-04-04T15:12:03.001Z</time></trkpt><trkpt lat="44.54024036519224" lon="10.117571710637305"><ele>792.0</ele><time>2026-04-04T15:12:04.001Z</time></trkpt><trkpt lat="44.54014484734336" lon="10.117489821473944"><ele>788.0</ele><time>2026-04-04T15:12:05.001Z</time></trkpt><trkpt lat="44.54004206014317" lon="10.11741342501796"><ele>784.0</ele><time>2026-04-04T15:12:06.001Z</time></trkpt><trkpt lat="44.53994110582289" lon="10.117332445889991"><ele>780.0</ele><time>2026-04-04T15:12:07.001Z</time></trkpt><trkpt lat="44.539843889381196" lon="10.117243197836363"><ele>776.0</ele><time>2026-04-04T15:12:08.001Z</time></trkpt><trkpt lat="44.53975586080022" lon="10.117154733992997"><ele>774.8</ele><time>2026-04-04T15:12:09.001Z</time></trkpt><trkpt lat="44.53967902872992" lon="10.1170642070332"><ele>773.5999999999999</ele><time>2026-04-04T15:12:10.001Z</time></trkpt><trkpt lat="44.53960328829729" lon="10.116980420804776"><ele>772.4</ele><time>2026-04-04T15:12:11.001Z</time></trkpt><trkpt lat="44.53951835208107" lon="10.116915560342193"><ele>771.2</ele><time>2026-04-04T15:12:12.001Z</time></trkpt><trkpt lat="44.53942840499564" lon="10.116863482731848"><ele>770.0</ele><time>2026-04-04T15:12:13.001Z</time></trkpt><trkpt lat="44.539341734101946" lon="10.11682521213808"><ele>767.2</ele><time>2026-04-04T15:12:14.001Z</time></trkpt><trkpt lat="44.53924038951182" lon="10.116813609914537"><ele>764.4</ele><time>2026-04-04T15:12:15.001Z</time></trkpt><trkpt lat="44.539132947084724" lon="10.116818627111098"><ele>761.5999999999999</ele><time>2026-04-04T15:12:16.001Z</time></trkpt><trkpt lat="44.53902429929329" lon="10.116807469141369"><ele>758.8</ele><time>2026-04-04T15:12:17.001Z</time></trkpt><trkpt lat="44.538915320249814" lon="10.116760348348887"><ele>756.0</ele><time>2026-04-04T15:12:18.001Z</time></trkpt><trkpt lat="44.53881917335005" lon="10.116679820081352"><ele>756.0</ele><time>2026-04-04T15:12:19.001Z</time></trkpt><trkpt lat="44.53872537665335" lon="10.116611555605381"><ele>756.0</ele><time>2026-04-04T15:12:20.001Z</time></trkpt><trkpt lat="44.538626228407615" lon="10.116588350004674"><ele>756.0</ele><time>2026-04-04T15:12:21.001Z</time></trkpt><trkpt lat="44.538523065141014" lon="10.116583050931515"><ele>756.0</ele><time>2026-04-04T15:12:22.001Z</time></trkpt><trkpt lat="44.53842472543257" lon="10.116575291284624"><ele>756.0</ele><time>2026-04-04T15:12:23.001Z</time></trkpt><trkpt lat="44.53832446190341" lon="10.116543777068792"><ele>753.3333333333334</ele><time>2026-04-04T15:12:24.001Z</time></trkpt><trkpt lat="44.53822897110463" lon="10.116505449393802"><ele>750.6666666666666</ele><time>2026-04-04T15:12:25.001Z</time></trkpt><trkpt lat="44.53814348623143" lon="10.116465433488369"><ele>748.0</ele><time>2026-04-04T15:12:26.001Z</time></trkpt><trkpt lat="44.53806281665695" lon="10.116452030705705"><ele>745.3333333333333</ele><time>2026-04-04T15:12:27.001Z</time></trkpt><trkpt lat="44.53797529410202" lon="10.116455333918207"><ele>742.6666666666666</ele><time>2026-04-04T15:12:28.001Z</time></trkpt><trkpt lat="44.53788815377996" lon="10.116446715052438"><ele>740.0</ele><time>2026-04-04T15:12:29.001Z</time></trkpt><trkpt lat="44.537810985489145" lon="10.11645543115522"><ele>737.7142857142857</ele><time>2026-04-04T15:12:30.001Z</time></trkpt><trkpt lat="44.53771853907569" lon="10.116455459637878"><ele>735.4285714285714</ele><time>2026-04-04T15:12:31.001Z</time></trkpt><trkpt lat="44.5376495204142" lon="10.116459318152643"><ele>733.1428571428571</ele><time>2026-04-04T15:12:32.001Z</time></trkpt><trkpt lat="44.537578864788635" lon="10.116469497714354"><ele>730.8571428571429</ele><time>2026-04-04T15:12:33.001Z</time></trkpt><trkpt lat="44.53751008372781" lon="10.116481097178639"><ele>728.5714285714286</ele><time>2026-04-04T15:12:34.001Z</time></trkpt><trkpt lat="44.53743928875333" lon="10.116475279411814"><ele>726.2857142857142</ele><time>2026-04-04T15:12:35.001Z</time></trkpt><trkpt lat="44.53736871695139" lon="10.116435249019004"><ele>724.0</ele><time>2026-04-04T15:12:36.001Z</time></trkpt><trkpt lat="44.5373103689941" lon="10.11635848788815"><ele>724.0</ele><time>2026-04-04T15:12:37.001Z</time></trkpt><trkpt lat="44.537285679787715" lon="10.116259303913107"><ele>724.0</ele><time>2026-04-04T15:12:38.001Z</time></trkpt><trkpt lat="44.537272753978755" lon="10.11612753415606"><ele>724.0</ele><time>2026-04-04T15:12:39.001Z</time></trkpt><trkpt lat="44.53728885382394" lon="10.115997230162698"><ele>724.0</ele><time>2026-04-04T15:12:40.001Z</time></trkpt><trkpt lat="44.53731925800562" lon="10.115860985892004"><ele>724.0</ele><time>2026-04-04T15:12:41.001Z</time></trkpt><trkpt lat="44.537348456656844" lon="10.115735827958893"><ele>724.4000000000001</ele><time>2026-04-04T15:12:42.001Z</time></trkpt><trkpt lat="44.537371217304795" lon="10.11562574415594"><ele>724.8</ele><time>2026-04-04T15:12:43.001Z</time></trkpt><trkpt lat="44.53739362945966" lon="10.115516024657166"><ele>725.2</ele><time>2026-04-04T15:12:44.001Z</time></trkpt><trkpt lat="44.537430097586395" lon="10.11536192279548"><ele>725.5999999999999</ele><time>2026-04-04T15:12:46.001Z</time></trkpt><trkpt lat="44.53742024895547" lon="10.115237872283926"><ele>726.0</ele><time>2026-04-04T15:12:48.001Z</time></trkpt><trkpt lat="44.53732088202775" lon="10.115164264876057"><ele>726.0</ele><time>2026-04-04T15:12:50.001Z</time></trkpt><trkpt lat="44.53724509516427" lon="10.115156830711381"><ele>726.0</ele><time>2026-04-04T15:12:51.001Z</time></trkpt><trkpt lat="44.537162548033216" lon="10.115133039032951"><ele>726.0</ele><time>2026-04-04T15:12:52.001Z</time></trkpt><trkpt lat="44.53706419219931" lon="10.115092427833195"><ele>726.0</ele><time>2026-04-04T15:12:53.001Z</time></trkpt><trkpt lat="44.53695811679033" lon="10.115049446889536"><ele>726.0</ele><time>2026-04-04T15:12:54.001Z</time></trkpt><trkpt lat="44.536856091510785" lon="10.115009781059829"><ele>725.1999999999999</ele><time>2026-04-04T15:12:55.001Z</time></trkpt><trkpt lat="44.536754385584224" lon="10.114950259294288"><ele>724.4</ele><time>2026-04-04T15:12:56.001Z</time></trkpt><trkpt lat="44.53667400727214" lon="10.114876752012734"><ele>723.6</ele><time>2026-04-04T15:12:57.001Z</time></trkpt><trkpt lat="44.536609061050314" lon="10.114790644000509"><ele>722.8</ele><time>2026-04-04T15:12:58.001Z</time></trkpt><trkpt lat="44.53654208106561" lon="10.114692647238659"><ele>722.0</ele><time>2026-04-04T15:12:59.001Z</time></trkpt><trkpt lat="44.536466732487355" lon="10.114626451975987"><ele>725.4000000000001</ele><time>2026-04-04T15:13:00Z</time></trkpt><trkpt lat="44.536388075872374" lon="10.114596933036658"><ele>728.8000000000001</ele><time>2026-04-04T15:13:01Z</time></trkpt><trkpt lat="44.536308508482726" lon="10.114591385162797"><ele>732.2</ele><time>2026-04-04T15:13:02Z</time></trkpt><trkpt lat="44.53622137834254" lon="10.114612657570483"><ele>735.6</ele><time>2026-04-04T15:13:03Z</time></trkpt><trkpt lat="44.53612612052245" lon="10.114652197489601"><ele>739.0</ele><time>2026-04-04T15:13:04Z</time></trkpt><trkpt lat="44.536028298885874" lon="10.114695948775818"><ele>740.0</ele><time>2026-04-04T15:13:05Z</time></trkpt><trkpt lat="44.53594455298804" lon="10.114732558883993"><ele>741.0</ele><time>2026-04-04T15:13:06Z</time></trkpt><trkpt lat="44.53586956122046" lon="10.114739960804672"><ele>742.0</ele><time>2026-04-04T15:13:07Z</time></trkpt><trkpt lat="44.53579938515806" lon="10.114698472597523"><ele>743.0</ele><time>2026-04-04T15:13:08Z</time></trkpt><trkpt lat="44.5357295930693" lon="10.114639498816269"><ele>744.0</ele><time>2026-04-04T15:13:09Z</time></trkpt><trkpt lat="44.5356608109375" lon="10.11457858957246"><ele>745.0</ele><time>2026-04-04T15:13:10Z</time></trkpt><trkpt lat="44.53559881271801" lon="10.114530463115637"><ele>745.0</ele><time>2026-04-04T15:13:11Z</time></trkpt><trkpt lat="44.53553777969042" lon="10.114442644374314"><ele>745.0</ele><time>2026-04-04T15:13:12Z</time></trkpt><trkpt lat="44.53548809581822" lon="10.114314823609561"><ele>745.0</ele><time>2026-04-04T15:13:13Z</time></trkpt><trkpt lat="44.53546377772912" lon="10.11419643732681"><ele>745.0</ele><time>2026-04-04T15:13:14Z</time></trkpt><trkpt lat="44.53541403937081" lon="10.114100288617657"><ele>745.0</ele><time>2026-04-04T15:13:15Z</time></trkpt><trkpt lat="44.53533244662337" lon="10.11403040486039"><ele>746.8</ele><time>2026-04-04T15:13:16Z</time></trkpt><trkpt lat="44.53524284430013" lon="10.113970398727645"><ele>748.6</ele><time>2026-04-04T15:13:17Z</time></trkpt><trkpt lat="44.53515055256238" lon="10.113875864391682"><ele>750.4000000000001</ele><time>2026-04-04T15:13:18Z</time></trkpt><trkpt lat="44.53507117006308" lon="10.113770629530723"><ele>752.2</ele><time>2026-04-04T15:13:19Z</time></trkpt><trkpt lat="44.53499119754711" lon="10.11368118139382"><ele>754.0</ele><time>2026-04-04T15:13:20Z</time></trkpt><trkpt lat="44.53490647266365" lon="10.113639079971309"><ele>754.0</ele><time>2026-04-04T15:13:21Z</time></trkpt><trkpt lat="44.53483511104768" lon="10.113636305182197"><ele>754.0</ele><time>2026-04-04T15:13:22Z</time></trkpt><trkpt lat="44.5347790235217" lon="10.113525377210099"><ele>754.0</ele><time>2026-04-04T15:13:24Z</time></trkpt><trkpt lat="44.53478168618829" lon="10.113421268530349"><ele>754.0</ele><time>2026-04-04T15:13:25Z</time></trkpt><trkpt lat="44.53481182649099" lon="10.113308785291432"><ele>754.0</ele><time>2026-04-04T15:13:26Z</time></trkpt><trkpt lat="44.53487026752726" lon="10.113213917320826"><ele>754.0</ele><time>2026-04-04T15:13:27Z</time></trkpt><trkpt lat="44.53495259692229" lon="10.113143589657586"><ele>756.6</ele><time>2026-04-04T15:13:28Z</time></trkpt><trkpt lat="44.53505035689474" lon="10.113081581051903"><ele>759.2</ele><time>2026-04-04T15:13:29Z</time></trkpt><trkpt lat="44.535159231903975" lon="10.113023028649135"><ele>761.8000000000001</ele><time>2026-04-04T15:13:30Z</time></trkpt><trkpt lat="44.535271510557244" lon="10.112977819667242"><ele>764.4000000000001</ele><time>2026-04-04T15:13:31Z</time></trkpt><trkpt lat="44.535362967922374" lon="10.112970548632365"><ele>767.0</ele><time>2026-04-04T15:13:32Z</time></trkpt><trkpt lat="44.53543309402956" lon="10.112950501227784"><ele>767.0</ele><time>2026-04-04T15:13:33Z</time></trkpt><trkpt lat="44.53549143121164" lon="10.112876325737961"><ele>767.0</ele><time>2026-04-04T15:13:34Z</time></trkpt><trkpt lat="44.53550865788026" lon="10.11278110889588"><ele>767.0</ele><time>2026-04-04T15:13:35Z</time></trkpt><trkpt lat="44.53545615081458" lon="10.11261742076327"><ele>767.0</ele><time>2026-04-04T15:13:37Z</time></trkpt><trkpt lat="44.535398368885744" lon="10.112540228490152"><ele>767.0</ele><time>2026-04-04T15:13:38Z</time></trkpt><trkpt lat="44.535312224594065" lon="10.112473721877313"><ele>767.0</ele><time>2026-04-04T15:13:39Z</time></trkpt><trkpt lat="44.535221542556044" lon="10.112413228557873"><ele>767.0</ele><time>2026-04-04T15:13:40Z</time></trkpt><trkpt lat="44.53513816921724" lon="10.11233629353671"><ele>767.0</ele><time>2026-04-04T15:13:41Z</time></trkpt><trkpt lat="44.53506564059593" lon="10.112230371803134"><ele>767.0</ele><time>2026-04-04T15:13:42Z</time></trkpt><trkpt lat="44.53501089045742" lon="10.112131788138543"><ele>767.0</ele><time>2026-04-04T15:13:43Z</time></trkpt><trkpt lat="44.53498187162573" lon="10.112050174531788"><ele>768.8</ele><time>2026-04-04T15:13:44Z</time></trkpt><trkpt lat="44.53501736850181" lon="10.111897639040137"><ele>770.6</ele><time>2026-04-04T15:13:46Z</time></trkpt><trkpt lat="44.535116930877365" lon="10.11187860597859"><ele>772.4</ele><time>2026-04-04T15:13:48Z</time></trkpt><trkpt lat="44.53518358916135" lon="10.111864096224366"><ele>774.1999999999999</ele><time>2026-04-04T15:13:49Z</time></trkpt><trkpt lat="44.53525827769015" lon="10.111830302305615"><ele>776.0</ele><time>2026-04-04T15:13:50Z</time></trkpt><trkpt lat="44.53534157607955" lon="10.11177584751984"><ele>778.6666666666667</ele><time>2026-04-04T15:13:52Z</time></trkpt><trkpt lat="44.5353972435453" lon="10.111721572198412"><ele>781.3333333333334</ele><time>2026-04-04T15:14:07Z</time></trkpt><trkpt lat="44.535485940181665" lon="10.111681662824006"><ele>784.0</ele><time>2026-04-04T15:14:09Z</time></trkpt><trkpt lat="44.53558050204628" lon="10.1116819110058"><ele>786.6666666666667</ele><time>2026-04-04T15:14:11Z</time></trkpt><trkpt lat="44.53565280858059" lon="10.111700019376755"><ele>789.3333333333334</ele><time>2026-04-04T15:14:12Z</time></trkpt><trkpt lat="44.535721550859286" lon="10.111712461613017"><ele>792.0</ele><time>2026-04-04T15:14:13Z</time></trkpt><trkpt lat="44.535786562720546" lon="10.111704594502868"><ele>792.0</ele><time>2026-04-04T15:14:14.001Z</time></trkpt><trkpt lat="44.53586062513627" lon="10.111678617305115"><ele>792.0</ele><time>2026-04-04T15:14:15.001Z</time></trkpt><trkpt lat="44.53595502506632" lon="10.111630662643584"><ele>792.0</ele><time>2026-04-04T15:14:17.001Z</time></trkpt><trkpt lat="44.53599499020087" lon="10.11153256825481"><ele>792.0</ele><time>2026-04-04T15:14:19.001Z</time></trkpt><trkpt lat="44.5359811049906" lon="10.111421320318021"><ele>792.0</ele><time>2026-04-04T15:14:21.001Z</time></trkpt><trkpt lat="44.53589709669979" lon="10.111336731350962"><ele>792.0</ele><time>2026-04-04T15:14:23.001Z</time></trkpt><trkpt lat="44.53583423710972" lon="10.111315681588708"><ele>793.8333333333334</ele><time>2026-04-04T15:14:24.001Z</time></trkpt><trkpt lat="44.53576856667913" lon="10.111277819355168"><ele>795.6666666666667</ele><time>2026-04-04T15:14:25.001Z</time></trkpt><trkpt lat="44.535694157230864" lon="10.111147742311951"><ele>797.5</ele><time>2026-04-04T15:14:27.001Z</time></trkpt><trkpt lat="44.53566640984619" lon="10.11106099586327"><ele>799.3333333333334</ele><time>2026-04-04T15:14:28.001Z</time></trkpt><trkpt lat="44.53563735596618" lon="10.110972693000194"><ele>801.1666666666667</ele><time>2026-04-04T15:14:29.001Z</time></trkpt><trkpt lat="44.53561082671824" lon="10.110880216668809"><ele>803.0</ele><time>2026-04-04T15:14:30.001Z</time></trkpt><trkpt lat="44.53557361525298" lon="10.110756914462131"><ele>803.5000000000001</ele><time>2026-04-04T15:14:31.001Z</time></trkpt><trkpt lat="44.53554148215395" lon="10.110645914193789"><ele>804.0</ele><time>2026-04-04T15:14:32.001Z</time></trkpt><trkpt lat="44.535521037740494" lon="10.110544725386093"><ele>804.5</ele><time>2026-04-04T15:14:33.001Z</time></trkpt><trkpt lat="44.53551670637954" lon="10.110448735882663"><ele>805.0</ele><time>2026-04-04T15:14:34.001Z</time></trkpt><trkpt lat="44.535537478823045" lon="10.110341212022353"><ele>805.5000000000001</ele><time>2026-04-04T15:14:35.001Z</time></trkpt><trkpt lat="44.53557804080618" lon="10.110237700792247"><ele>806.0</ele><time>2026-04-04T15:14:36.001Z</time></trkpt><trkpt lat="44.53563138032796" lon="10.1101417793745"><ele>806.0000000000001</ele><time>2026-04-04T15:14:37.001Z</time></trkpt><trkpt lat="44.5356842407152" lon="10.110058575655769"><ele>806.0</ele><time>2026-04-04T15:14:38.001Z</time></trkpt><trkpt lat="44.535712600572175" lon="10.109968087342342"><ele>806.0</ele><time>2026-04-04T15:14:39.001Z</time></trkpt><trkpt lat="44.53571353821226" lon="10.109869883116453"><ele>806.0</ele><time>2026-04-04T15:14:40.001Z</time></trkpt><trkpt lat="44.53569651277326" lon="10.109764187973298"><ele>806.0000000000001</ele><time>2026-04-04T15:14:41.001Z</time></trkpt><trkpt lat="44.53567180822265" lon="10.10964025000812"><ele>806.0</ele><time>2026-04-04T15:14:42.001Z</time></trkpt><trkpt lat="44.535654632803436" lon="10.109510178799887"><ele>806.1999999999999</ele><time>2026-04-04T15:14:43.001Z</time></trkpt><trkpt lat="44.53564621550063" lon="10.109378323556667"><ele>806.4</ele><time>2026-04-04T15:14:44.001Z</time></trkpt><trkpt lat="44.53562817747437" lon="10.109213468768356"><ele>806.6</ele><time>2026-04-04T15:14:45.001Z</time></trkpt><trkpt lat="44.5355917858644" lon="10.109066365832128"><ele>806.8</ele><time>2026-04-04T15:14:46.001Z</time></trkpt><trkpt lat="44.535533119778705" lon="10.108915263652131"><ele>807.0</ele><time>2026-04-04T15:14:47.001Z</time></trkpt><trkpt lat="44.535468270342804" lon="10.108767421436282"><ele>807.5</ele><time>2026-04-04T15:14:48.001Z</time></trkpt><trkpt lat="44.535410215637405" lon="10.108642955122246"><ele>808.0</ele><time>2026-04-04T15:14:49.001Z</time></trkpt><trkpt lat="44.53536242238034" lon="10.108542142454072"><ele>808.5</ele><time>2026-04-04T15:14:50.001Z</time></trkpt><trkpt lat="44.53529900161215" lon="10.108456852784519"><ele>809.0</ele><time>2026-04-04T15:14:51.001Z</time></trkpt><trkpt lat="44.53522326446702" lon="10.108405855419935"><ele>809.5</ele><time>2026-04-04T15:14:52.001Z</time></trkpt><trkpt lat="44.535161225975756" lon="10.108374457141666"><ele>810.0</ele><time>2026-04-04T15:14:53.001Z</time></trkpt><trkpt lat="44.53511105806679" lon="10.108236793753315"><ele>811.6</ele><time>2026-04-04T15:14:55.001Z</time></trkpt><trkpt lat="44.53509899177346" lon="10.10811767044096"><ele>813.2</ele><time>2026-04-04T15:14:56.001Z</time></trkpt><trkpt lat="44.53509465869579" lon="10.107979543419447"><ele>814.8</ele><time>2026-04-04T15:14:57.001Z</time></trkpt><trkpt lat="44.535091497082874" lon="10.107843495032"><ele>816.4</ele><time>2026-04-04T15:14:58Z</time></trkpt><trkpt lat="44.53507104698526" lon="10.107740862160142"><ele>818.0</ele><time>2026-04-04T15:14:59Z</time></trkpt><trkpt lat="44.534983122256" lon="10.107622777202728"><ele>818.0000000000001</ele><time>2026-04-04T15:15:01Z</time></trkpt><trkpt lat="44.534914130734634" lon="10.107612553379397"><ele>818.0</ele><time>2026-04-04T15:15:02Z</time></trkpt><trkpt lat="44.5348411050822" lon="10.107630949488058"><ele>818.0</ele><time>2026-04-04T15:15:03Z</time></trkpt><trkpt lat="44.53476623508047" lon="10.107617729663497"><ele>818.0</ele><time>2026-04-04T15:15:04Z</time></trkpt><trkpt lat="44.53470945081825" lon="10.107570426538704"><ele>818.0000000000001</ele><time>2026-04-04T15:15:05Z</time></trkpt><trkpt lat="44.534650681486" lon="10.107486001893813"><ele>818.0</ele><time>2026-04-04T15:15:06Z</time></trkpt><trkpt lat="44.534579031385526" lon="10.107394964102678"><ele>819.3333333333334</ele><time>2026-04-04T15:15:07Z</time></trkpt><trkpt lat="44.534505512509845" lon="10.107338214130642"><ele>820.6666666666667</ele><time>2026-04-04T15:15:08Z</time></trkpt><trkpt lat="44.53443029776566" lon="10.107297036776904"><ele>822.0</ele><time>2026-04-04T15:15:09Z</time></trkpt><trkpt lat="44.53435521278525" lon="10.107256825875092"><ele>823.3333333333333</ele><time>2026-04-04T15:15:10Z</time></trkpt><trkpt lat="44.5342745124677" lon="10.107222783075425"><ele>824.6666666666666</ele><time>2026-04-04T15:15:11Z</time></trkpt><trkpt lat="44.53419378343774" lon="10.107184984463498"><ele>826.0</ele><time>2026-04-04T15:15:12Z</time></trkpt><trkpt lat="44.534097332702295" lon="10.1071318172223"><ele>825.9999999999999</ele><time>2026-04-04T15:15:13Z</time></trkpt><trkpt lat="44.53400956276378" lon="10.10709421392948"><ele>826.0</ele><time>2026-04-04T15:15:14Z</time></trkpt><trkpt lat="44.53392999144146" lon="10.107078632002047"><ele>826.0</ele><time>2026-04-04T15:15:15Z</time></trkpt><trkpt lat="44.53382557466467" lon="10.107077098857243"><ele>826.0</ele><time>2026-04-04T15:15:17Z</time></trkpt><trkpt lat="44.533744527869" lon="10.107017773734182"><ele>825.9999999999999</ele><time>2026-04-04T15:15:21Z</time></trkpt><trkpt lat="44.53369015878933" lon="10.10695978911372"><ele>826.0</ele><time>2026-04-04T15:15:23Z</time></trkpt><trkpt lat="44.53363657692836" lon="10.106889573013396"><ele>827.1666666666666</ele><time>2026-04-04T15:15:25Z</time></trkpt><trkpt lat="44.53358279585719" lon="10.106823289847872"><ele>828.3333333333333</ele><time>2026-04-04T15:15:58Z</time></trkpt><trkpt lat="44.53349458087059" lon="10.106718792360859"><ele>829.5</ele><time>2026-04-04T15:16:00Z</time></trkpt><trkpt lat="44.53340732528649" lon="10.10662744417223"><ele>830.6666666666667</ele><time>2026-04-04T15:16:02Z</time></trkpt><trkpt lat="44.53334911595335" lon="10.106580944008385"><ele>831.8333333333334</ele><time>2026-04-04T15:16:03Z</time></trkpt><trkpt lat="44.53327899908411" lon="10.10655180420211"><ele>833.0</ele><time>2026-04-04T15:16:04Z</time></trkpt><trkpt lat="44.53320399687539" lon="10.106546108457618"><ele>833.0</ele><time>2026-04-04T15:16:05Z</time></trkpt><trkpt lat="44.533126925813356" lon="10.106559804737731"><ele>833.0</ele><time>2026-04-04T15:16:06Z</time></trkpt><trkpt lat="44.53304122762067" lon="10.106580935606436"><ele>833.0</ele><time>2026-04-04T15:16:07Z</time></trkpt><trkpt lat="44.53293299940181" lon="10.106611433101174"><ele>833.0</ele><time>2026-04-04T15:16:08Z</time></trkpt><trkpt lat="44.532844376624624" lon="10.106639355002267"><ele>833.0</ele><time>2026-04-04T15:16:09Z</time></trkpt><trkpt lat="44.532760695242004" lon="10.106684293601548"><ele>832.3333333333334</ele><time>2026-04-04T15:16:10Z</time></trkpt><trkpt lat="44.532691566173646" lon="10.106755415486058"><ele>831.6666666666667</ele><time>2026-04-04T15:16:11Z</time></trkpt><trkpt lat="44.532635162837074" lon="10.106840243351265"><ele>831.0</ele><time>2026-04-04T15:16:12Z</time></trkpt><trkpt lat="44.5325952364135" lon="10.106917881245641"><ele>830.3333333333333</ele><time>2026-04-04T15:16:13Z</time></trkpt><trkpt lat="44.53251726617958" lon="10.106977060797218"><ele>829.6666666666666</ele><time>2026-04-04T15:16:15Z</time></trkpt><trkpt lat="44.53243925463132" lon="10.10698581777019"><ele>829.0</ele><time>2026-04-04T15:16:17Z</time></trkpt><trkpt lat="44.53237574871989" lon="10.106986017691785"><ele>828.9999999999999</ele><time>2026-04-04T15:16:18Z</time></trkpt><trkpt lat="44.53230987033502" lon="10.106977614340934"><ele>829.0</ele><time>2026-04-04T15:16:19Z</time></trkpt><trkpt lat="44.5322289466971" lon="10.106957391669798"><ele>829.0</ele><time>2026-04-04T15:16:20Z</time></trkpt><trkpt lat="44.53214547577667" lon="10.10692953408017"><ele>829.0</ele><time>2026-04-04T15:16:21Z</time></trkpt><trkpt lat="44.5320611534665" lon="10.10688801274724"><ele>828.9999999999999</ele><time>2026-04-04T15:16:22Z</time></trkpt><trkpt lat="44.531971561596585" lon="10.106855403744046"><ele>829.0</ele><time>2026-04-04T15:16:23Z</time></trkpt><trkpt lat="44.531894325765485" lon="10.106814474999316"><ele>830.4999999999999</ele><time>2026-04-04T15:16:24Z</time></trkpt><trkpt lat="44.53181269561806" lon="10.10678198974565"><ele>832.0</ele><time>2026-04-04T15:16:25Z</time></trkpt><trkpt lat="44.53172733517673" lon="10.106778208885533"><ele>833.5</ele><time>2026-04-04T15:16:26Z</time></trkpt><trkpt lat="44.53164737239686" lon="10.106817797181044"><ele>835.0</ele><time>2026-04-04T15:16:27Z</time></trkpt><trkpt lat="44.53156915920552" lon="10.106885572076475"><ele>836.4999999999999</ele><time>2026-04-04T15:16:28Z</time></trkpt><trkpt lat="44.531486885010985" lon="10.106971235813488"><ele>838.0</ele><time>2026-04-04T15:16:29Z</time></trkpt><trkpt lat="44.531403106040386" lon="10.107056843983576"><ele>838.0</ele><time>2026-04-04T15:16:30Z</time></trkpt><trkpt lat="44.5313309818412" lon="10.107135265912298"><ele>838.0</ele><time>2026-04-04T15:16:31Z</time></trkpt><trkpt lat="44.53127299453056" lon="10.107237751104705"><ele>838.0</ele><time>2026-04-04T15:16:32Z</time></trkpt><trkpt lat="44.53121871408937" lon="10.107316946890762"><ele>838.0</ele><time>2026-04-04T15:16:33Z</time></trkpt><trkpt lat="44.53114657449604" lon="10.107418184506738"><ele>838.0</ele><time>2026-04-04T15:16:35Z</time></trkpt><trkpt lat="44.53104311416579" lon="10.107377744679034"><ele>837.3333333333333</ele><time>2026-04-04T15:16:37Z</time></trkpt><trkpt lat="44.530938189618276" lon="10.107365344585434"><ele>836.6666666666666</ele><time>2026-04-04T15:16:39Z</time></trkpt><trkpt lat="44.530853395740124" lon="10.107419217904523"><ele>836.0</ele><time>2026-04-04T15:16:41Z</time></trkpt><trkpt lat="44.530787495147905" lon="10.107392423776043"><ele>835.3333333333333</ele><time>2026-04-04T15:16:45Z</time></trkpt><trkpt lat="44.530753954011715" lon="10.107299490882504"><ele>834.6666666666666</ele><time>2026-04-04T15:17:54Z</time></trkpt><trkpt lat="44.53074437972516" lon="10.107190910703885"><ele>834.0</ele><time>2026-04-04T15:17:56Z</time></trkpt><trkpt lat="44.53075922802346" lon="10.10707990202872"><ele>834.0</ele><time>2026-04-04T15:17:58Z</time></trkpt><trkpt lat="44.53082486358096" lon="10.107008322744454"><ele>834.0</ele><time>2026-04-04T15:18:00Z</time></trkpt><trkpt lat="44.530882933327874" lon="10.106964656816416"><ele>834.0</ele><time>2026-04-04T15:18:01Z</time></trkpt><trkpt lat="44.53095114844727" lon="10.106913121087272"><ele>834.0</ele><time>2026-04-04T15:18:02Z</time></trkpt><trkpt lat="44.530999162453796" lon="10.106839793851004"><ele>834.0</ele><time>2026-04-04T15:18:03Z</time></trkpt><trkpt lat="44.53104447259433" lon="10.106777356032302"><ele>834.0</ele><time>2026-04-04T15:18:04Z</time></trkpt><trkpt lat="44.53109119663859" lon="10.106716165525444"><ele>834.0</ele><time>2026-04-04T15:18:05Z</time></trkpt><trkpt lat="44.531162513421805" lon="10.106617802116823"><ele>836.6666666666666</ele><time>2026-04-04T15:18:06Z</time></trkpt><trkpt lat="44.53122614372614" lon="10.106518106527536"><ele>839.3333333333333</ele><time>2026-04-04T15:18:07Z</time></trkpt><trkpt lat="44.531284447419004" lon="10.106417053345973"><ele>842.0</ele><time>2026-04-04T15:18:08Z</time></trkpt><trkpt lat="44.53134027352532" lon="10.10633456434798"><ele>844.6666666666666</ele><time>2026-04-04T15:18:09Z</time></trkpt><trkpt lat="44.53139747863891" lon="10.106265693698367"><ele>847.3333333333333</ele><time>2026-04-04T15:18:10Z</time></trkpt><trkpt lat="44.53145602508786" lon="10.10621253594929"><ele>850.0</ele><time>2026-04-04T15:18:11Z</time></trkpt><trkpt lat="44.5315330782602" lon="10.1061607838565"><ele>850.0</ele><time>2026-04-04T15:18:12Z</time></trkpt><trkpt lat="44.53160816765983" lon="10.106114848532904"><ele>850.0</ele><time>2026-04-04T15:18:13Z</time></trkpt><trkpt lat="44.531707020681274" lon="10.106057616716809"><ele>850.0</ele><time>2026-04-04T15:18:15Z</time></trkpt><trkpt lat="44.53175799816278" lon="10.105924479836398"><ele>850.0</ele><time>2026-04-04T15:18:17Z</time></trkpt><trkpt lat="44.53175893269795" lon="10.105827226952053"><ele>850.0</ele><time>2026-04-04T15:18:18Z</time></trkpt><trkpt lat="44.531752448401384" lon="10.105710013413105"><ele>851.4999999999999</ele><time>2026-04-04T15:18:19Z</time></trkpt><trkpt lat="44.53175174671661" lon="10.10559457371179"><ele>853.0</ele><time>2026-04-04T15:18:20Z</time></trkpt><trkpt lat="44.53175313424622" lon="10.105474871441974"><ele>854.5</ele><time>2026-04-04T15:18:21Z</time></trkpt><trkpt lat="44.531759469423704" lon="10.10535159264537"><ele>856.0</ele><time>2026-04-04T15:18:22Z</time></trkpt><trkpt lat="44.5317698293402" lon="10.10521951939206"><ele>857.4999999999999</ele><time>2026-04-04T15:18:23Z</time></trkpt><trkpt lat="44.53177695925412" lon="10.105109351710965"><ele>859.0</ele><time>2026-04-04T15:18:24Z</time></trkpt><trkpt lat="44.53177642506145" lon="10.1049975825249"><ele>861.3333333333333</ele><time>2026-04-04T15:18:25Z</time></trkpt><trkpt lat="44.53177007687921" lon="10.104891978572605"><ele>863.6666666666666</ele><time>2026-04-04T15:18:26Z</time></trkpt><trkpt lat="44.53177379401736" lon="10.104773043745467"><ele>866.0</ele><time>2026-04-04T15:18:27Z</time></trkpt><trkpt lat="44.53177573962954" lon="10.104660348324114"><ele>868.3333333333333</ele><time>2026-04-04T15:18:28Z</time></trkpt><trkpt lat="44.53176927940681" lon="10.104568810412115"><ele>870.6666666666666</ele><time>2026-04-04T15:18:29Z</time></trkpt><trkpt lat="44.53174224243972" lon="10.104397799086815"><ele>873.0</ele><time>2026-04-04T15:18:31Z</time></trkpt><trkpt lat="44.53170318582935" lon="10.104323609520941"><ele>872.9999999999999</ele><time>2026-04-04T15:18:32Z</time></trkpt><trkpt lat="44.53165129962619" lon="10.104242584134395"><ele>873.0</ele><time>2026-04-04T15:18:33Z</time></trkpt><trkpt lat="44.531603545998394" lon="10.104164975323004"><ele>873.0</ele><time>2026-04-04T15:18:34Z</time></trkpt><trkpt lat="44.5315635634559" lon="10.104080983995424"><ele>873.0</ele><time>2026-04-04T15:18:35Z</time></trkpt><trkpt lat="44.53154156333452" lon="10.103995393893063"><ele>873.0</ele><time>2026-04-04T15:18:36Z</time></trkpt><trkpt lat="44.531530860568985" lon="10.103902475994849"><ele>872.9999999999999</ele><time>2026-04-04T15:18:37Z</time></trkpt><trkpt lat="44.531532866605815" lon="10.103800182223363"><ele>873.0</ele><time>2026-04-04T15:18:38Z</time></trkpt><trkpt lat="44.531582371254736" lon="10.103658662378296"><ele>873.0</ele><time>2026-04-04T15:18:40Z</time></trkpt><trkpt lat="44.53165504291091" lon="10.103593340069263"><ele>873.0</ele><time>2026-04-04T15:18:41Z</time></trkpt><trkpt lat="44.531714128393524" lon="10.103523094526945"><ele>873.0</ele><time>2026-04-04T15:18:42Z</time></trkpt><trkpt lat="44.531802276832906" lon="10.103494721058741"><ele>873.0</ele><time>2026-04-04T15:18:43Z</time></trkpt><trkpt lat="44.53188807161398" lon="10.103469739184442"><ele>873.0</ele><time>2026-04-04T15:18:44Z</time></trkpt><trkpt lat="44.53198609311589" lon="10.103415942015461"><ele>873.0</ele><time>2026-04-04T15:18:45Z</time></trkpt><trkpt lat="44.53207088818466" lon="10.103372814846297"><ele>875.5999999999999</ele><time>2026-04-04T15:18:46Z</time></trkpt><trkpt lat="44.532149134713805" lon="10.103300932499312"><ele>878.1999999999999</ele><time>2026-04-04T15:18:47Z</time></trkpt><trkpt lat="44.53220966497105" lon="10.103213269405634"><ele>880.8</ele><time>2026-04-04T15:18:48Z</time></trkpt><trkpt lat="44.53225934302184" lon="10.103103776460257"><ele>883.4</ele><time>2026-04-04T15:18:49Z</time></trkpt><trkpt lat="44.53231114867233" lon="10.102984555574803"><ele>886.0</ele><time>2026-04-04T15:18:50Z</time></trkpt><trkpt lat="44.53236260880724" lon="10.102880848106302"><ele>886.1666666666666</ele><time>2026-04-04T15:18:51Z</time></trkpt><trkpt lat="44.53240459053473" lon="10.102771389148527"><ele>886.3333333333333</ele><time>2026-04-04T15:18:52Z</time></trkpt><trkpt lat="44.532451809260884" lon="10.102683121305278"><ele>886.5</ele><time>2026-04-04T15:18:53Z</time></trkpt><trkpt lat="44.532492622413535" lon="10.102592633454064"><ele>886.6666666666667</ele><time>2026-04-04T15:18:54Z</time></trkpt><trkpt lat="44.532551081149805" lon="10.102479563207302"><ele>886.8333333333334</ele><time>2026-04-04T15:18:55Z</time></trkpt><trkpt lat="44.53259980624834" lon="10.102392868145303"><ele>887.0</ele><time>2026-04-04T15:18:56.001Z</time></trkpt><trkpt lat="44.53264669519238" lon="10.102309253682517"><ele>885.8333333333334</ele><time>2026-04-04T15:18:57.001Z</time></trkpt><trkpt lat="44.53269847685517" lon="10.102228934296676"><ele>884.6666666666667</ele><time>2026-04-04T15:18:58.001Z</time></trkpt><trkpt lat="44.532744163251884" lon="10.10216765776615"><ele>883.5</ele><time>2026-04-04T15:18:59.001Z</time></trkpt><trkpt lat="44.53284070344265" lon="10.102120422171266"><ele>882.3333333333333</ele><time>2026-04-04T15:19:01.001Z</time></trkpt><trkpt lat="44.53290839995971" lon="10.102124416819253"><ele>881.1666666666666</ele><time>2026-04-04T15:19:02.001Z</time></trkpt><trkpt lat="44.53298486265373" lon="10.102106892393397"><ele>880.0</ele><time>2026-04-04T15:19:03.001Z</time></trkpt><trkpt lat="44.53305287580708" lon="10.102075193386725"><ele>884.1666666666666</ele><time>2026-04-04T15:19:04.001Z</time></trkpt><trkpt lat="44.53312114528352" lon="10.102025255253746"><ele>888.3333333333333</ele><time>2026-04-04T15:19:05.001Z</time></trkpt><trkpt lat="44.533196812132374" lon="10.101973911953595"><ele>892.5</ele><time>2026-04-04T15:19:06.001Z</time></trkpt><trkpt lat="44.53326889490033" lon="10.101923486699707"><ele>896.6666666666667</ele><time>2026-04-04T15:19:07.001Z</time></trkpt><trkpt lat="44.533373244272354" lon="10.101856986162897"><ele>900.8333333333334</ele><time>2026-04-04T15:19:09.001Z</time></trkpt><trkpt lat="44.53342677716834" lon="10.101792179037261"><ele>905.0</ele><time>2026-04-04T15:19:11.001Z</time></trkpt><trkpt lat="44.53336224896553" lon="10.101837670434854"><ele>905.0</ele><time>2026-04-04T15:20:11Z</time></trkpt><trkpt lat="44.53328868177718" lon="10.10188708278867"><ele>905.0</ele><time>2026-04-04T15:20:16Z</time></trkpt><trkpt lat="44.53319846677809" lon="10.10195016468052"><ele>905.0</ele><time>2026-04-04T15:20:18Z</time></trkpt><trkpt lat="44.53309385294094" lon="10.102018724554695"><ele>905.0</ele><time>2026-04-04T15:20:20Z</time></trkpt><trkpt lat="44.5329869698397" lon="10.10208124029215"><ele>905.0</ele><time>2026-04-04T15:20:22Z</time></trkpt><trkpt lat="44.53287702705477" lon="10.102116323491158"><ele>902.0000000000001</ele><time>2026-04-04T15:20:24Z</time></trkpt><trkpt lat="44.53276966014875" lon="10.102136408890543"><ele>899.0</ele><time>2026-04-04T15:20:26Z</time></trkpt><trkpt lat="44.53269698180905" lon="10.102218882456107"><ele>896.0</ele><time>2026-04-04T15:20:28Z</time></trkpt><trkpt lat="44.53264779311632" lon="10.102291192811212"><ele>893.0</ele><time>2026-04-04T15:20:29Z</time></trkpt><trkpt lat="44.53260201854129" lon="10.102382470421356"><ele>890.0000000000001</ele><time>2026-04-04T15:20:30Z</time></trkpt><trkpt lat="44.532541899923444" lon="10.10248812336669"><ele>887.0</ele><time>2026-04-04T15:20:31Z</time></trkpt><trkpt lat="44.5324772425108" lon="10.102607310945737"><ele>887.0000000000001</ele><time>2026-04-04T15:20:32Z</time></trkpt><trkpt lat="44.532425993604505" lon="10.102718753184785"><ele>887.0</ele><time>2026-04-04T15:20:33Z</time></trkpt><trkpt lat="44.532371763923805" lon="10.102823302959267"><ele>887.0</ele><time>2026-04-04T15:20:34Z</time></trkpt><trkpt lat="44.53233155821296" lon="10.102923520990299"><ele>887.0</ele><time>2026-04-04T15:20:35Z</time></trkpt><trkpt lat="44.532284433944035" lon="10.103020957496716"><ele>887.0000000000001</ele><time>2026-04-04T15:20:36Z</time></trkpt><trkpt lat="44.53223930693127" lon="10.103116054679285"><ele>887.0</ele><time>2026-04-04T15:20:37Z</time></trkpt><trkpt lat="44.532193283183226" lon="10.103200601577974"><ele>886.8333333333334</ele><time>2026-04-04T15:20:38Z</time></trkpt><trkpt lat="44.53214139972804" lon="10.103285506995867"><ele>886.6666666666667</ele><time>2026-04-04T15:20:39Z</time></trkpt><trkpt lat="44.53207525390585" lon="10.103348617072754"><ele>886.5</ele><time>2026-04-04T15:20:40Z</time></trkpt><trkpt lat="44.53199992509415" lon="10.103393899886315"><ele>886.3333333333333</ele><time>2026-04-04T15:20:41Z</time></trkpt><trkpt lat="44.53193214759687" lon="10.103437072152783"><ele>886.1666666666666</ele><time>2026-04-04T15:20:42Z</time></trkpt><trkpt lat="44.53185574635328" lon="10.103473253668412"><ele>886.0</ele><time>2026-04-04T15:20:43Z</time></trkpt><trkpt lat="44.531780391225915" lon="10.10350133173824"><ele>883.4</ele><time>2026-04-04T15:20:44Z</time></trkpt><trkpt lat="44.53171963751101" lon="10.103530982089305"><ele>880.8</ele><time>2026-04-04T15:20:45Z</time></trkpt><trkpt lat="44.531649138043406" lon="10.103560735956806"><ele>878.1999999999999</ele><time>2026-04-04T15:20:46Z</time></trkpt><trkpt lat="44.53155994680421" lon="10.103666702117025"><ele>875.5999999999999</ele><time>2026-04-04T15:20:48Z</time></trkpt><trkpt lat="44.53154075892607" lon="10.103835892819006"><ele>873.0</ele><time>2026-04-04T15:20:50Z</time></trkpt><trkpt lat="44.53155248679786" lon="10.103939914892399"><ele>872.9999999999999</ele><time>2026-04-04T15:20:51Z</time></trkpt><trkpt lat="44.53157225180814" lon="10.104046024292316"><ele>873.0</ele><time>2026-04-04T15:20:52Z</time></trkpt><trkpt lat="44.531604910632794" lon="10.104134730755407"><ele>873.0</ele><time>2026-04-04T15:20:53Z</time></trkpt><trkpt lat="44.531639145458826" lon="10.104214907761204"><ele>873.0</ele><time>2026-04-04T15:20:54Z</time></trkpt><trkpt lat="44.531692872997354" lon="10.104302661362935"><ele>873.0</ele><time>2026-04-04T15:20:55Z</time></trkpt><trkpt lat="44.53173774637073" lon="10.10438114370813"><ele>872.9999999999999</ele><time>2026-04-04T15:20:56Z</time></trkpt><trkpt lat="44.53176664417301" lon="10.104467971699522"><ele>873.0</ele><time>2026-04-04T15:20:57Z</time></trkpt><trkpt lat="44.531788706000796" lon="10.104598214284522"><ele>873.0</ele><time>2026-04-04T15:20:58Z</time></trkpt><trkpt lat="44.531793497727605" lon="10.10470234658041"><ele>873.0</ele><time>2026-04-04T15:20:59Z</time></trkpt><trkpt lat="44.53180398538486" lon="10.104835668915092"><ele>873.0</ele><time>2026-04-04T15:21:00Z</time></trkpt><trkpt lat="44.531789216218854" lon="10.10493848086949"><ele>873.0</ele><time>2026-04-04T15:21:01Z</time></trkpt><trkpt lat="44.53178708674341" lon="10.105049088714628"><ele>873.0</ele><time>2026-04-04T15:21:02.001Z</time></trkpt><trkpt lat="44.53178979560406" lon="10.105180473828202"><ele>873.0</ele><time>2026-04-04T15:21:03.001Z</time></trkpt><trkpt lat="44.53178224256793" lon="10.10532424367582"><ele>870.6666666666666</ele><time>2026-04-04T15:21:04.001Z</time></trkpt><trkpt lat="44.53176702641763" lon="10.105468643943961"><ele>868.3333333333333</ele><time>2026-04-04T15:21:05.001Z</time></trkpt><trkpt lat="44.53176174292047" lon="10.105614742772202"><ele>866.0</ele><time>2026-04-04T15:21:06.001Z</time></trkpt><trkpt lat="44.53176099560264" lon="10.105740135881673"><ele>863.6666666666666</ele><time>2026-04-04T15:21:07.001Z</time></trkpt><trkpt lat="44.53176196556669" lon="10.10585022974286"><ele>861.3333333333333</ele><time>2026-04-04T15:21:08.001Z</time></trkpt><trkpt lat="44.53176029395803" lon="10.105941935152533"><ele>859.0</ele><time>2026-04-04T15:21:09.001Z</time></trkpt><trkpt lat="44.53169841505582" lon="10.106063651442602"><ele>857.2</ele><time>2026-04-04T15:21:11.001Z</time></trkpt><trkpt lat="44.53157018684672" lon="10.10612648628301"><ele>855.4000000000001</ele><time>2026-04-04T15:21:13.001Z</time></trkpt><trkpt lat="44.53147733234695" lon="10.10618429174801"><ele>853.6</ele><time>2026-04-04T15:21:14.001Z</time></trkpt><trkpt lat="44.53141010618867" lon="10.106235256995918"><ele>851.8</ele><time>2026-04-04T15:21:15.001Z</time></trkpt><trkpt lat="44.53135591102544" lon="10.106303943690312"><ele>850.0</ele><time>2026-04-04T15:21:16.001Z</time></trkpt><trkpt lat="44.53128570267713" lon="10.106397509453602"><ele>849.9999999999999</ele><time>2026-04-04T15:21:17.001Z</time></trkpt><trkpt lat="44.53123049710539" lon="10.106485030976156"><ele>850.0</ele><time>2026-04-04T15:21:18.001Z</time></trkpt><trkpt lat="44.531185460233004" lon="10.106564981879611"><ele>850.0</ele><time>2026-04-04T15:21:19.001Z</time></trkpt><trkpt lat="44.53113341666387" lon="10.106649956822912"><ele>850.0</ele><time>2026-04-04T15:21:20.001Z</time></trkpt><trkpt lat="44.531082475103545" lon="10.10672486687165"><ele>849.9999999999999</ele><time>2026-04-04T15:21:21.001Z</time></trkpt><trkpt lat="44.531019421439495" lon="10.10679801338112"><ele>850.0</ele><time>2026-04-04T15:21:22.001Z</time></trkpt><trkpt lat="44.530963856679044" lon="10.10686885376727"><ele>847.3333333333333</ele><time>2026-04-04T15:21:23.001Z</time></trkpt><trkpt lat="44.5309042377347" lon="10.10692685038472"><ele>844.6666666666666</ele><time>2026-04-04T15:21:24.001Z</time></trkpt><trkpt lat="44.530838952763894" lon="10.106970724106828"><ele>842.0</ele><time>2026-04-04T15:21:25.001Z</time></trkpt><trkpt lat="44.53075375706528" lon="10.107038615144592"><ele>839.3333333333333</ele><time>2026-04-04T15:21:27.001Z</time></trkpt><trkpt lat="44.53073447343211" lon="10.107157441381682"><ele>836.6666666666666</ele><time>2026-04-04T15:21:29.001Z</time></trkpt><trkpt lat="44.53077330082756" lon="10.107260794342475"><ele>834.0</ele><time>2026-04-04T15:21:30.001Z</time></trkpt><trkpt lat="44.530755526615046" lon="10.107396876255695"><ele>833.1666666666666</ele><time>2026-04-04T15:21:32.001Z</time></trkpt><trkpt lat="44.53072355148786" lon="10.107477256066035"><ele>832.3333333333333</ele><time>2026-04-04T15:21:33.001Z</time></trkpt><trkpt lat="44.53069304325405" lon="10.107574476718707"><ele>831.5</ele><time>2026-04-04T15:21:34.001Z</time></trkpt><trkpt lat="44.530670820088325" lon="10.107699693661086"><ele>830.6666666666666</ele><time>2026-04-04T15:21:35.001Z</time></trkpt><trkpt lat="44.530638968573165" lon="10.107795924716513"><ele>829.8333333333333</ele><time>2026-04-04T15:21:36.001Z</time></trkpt><trkpt lat="44.53060967275389" lon="10.107911247886525"><ele>829.0</ele><time>2026-04-04T15:21:37.001Z</time></trkpt><trkpt lat="44.53058414351929" lon="10.108025752178817"><ele>828.9999999999999</ele><time>2026-04-04T15:21:38.001Z</time></trkpt><trkpt lat="44.530564019684526" lon="10.10813557739769"><ele>829.0</ele><time>2026-04-04T15:21:39.001Z</time></trkpt><trkpt lat="44.53053422375604" lon="10.108235830973463"><ele>829.0</ele><time>2026-04-04T15:21:40.001Z</time></trkpt><trkpt lat="44.53050179808252" lon="10.108335973924683"><ele>829.0</ele><time>2026-04-04T15:21:41.001Z</time></trkpt><trkpt lat="44.53047095567126" lon="10.108439458680765"><ele>828.9999999999999</ele><time>2026-04-04T15:21:42.001Z</time></trkpt><trkpt lat="44.53043071276201" lon="10.10856274747877"><ele>829.0</ele><time>2026-04-04T15:21:44.001Z</time></trkpt><trkpt lat="44.5303814707082" lon="10.108653788440872"><ele>826.2</ele><time>2026-04-04T15:21:46.001Z</time></trkpt><trkpt lat="44.53030981869622" lon="10.108681938632788"><ele>823.4000000000001</ele><time>2026-04-04T15:21:48.001Z</time></trkpt><trkpt lat="44.530176827371115" lon="10.108721679204725"><ele>820.6</ele><time>2026-04-04T15:21:56.001Z</time></trkpt><trkpt lat="44.53008757829554" lon="10.108757184550921"><ele>817.8</ele><time>2026-04-04T15:21:57.001Z</time></trkpt><trkpt lat="44.530015890394225" lon="10.108785703662743"><ele>815.0</ele><time>2026-04-04T15:21:58.001Z</time></trkpt><trkpt lat="44.52991119864411" lon="10.108810640628816"><ele>815.0000000000001</ele><time>2026-04-04T15:22:00.001Z</time></trkpt><trkpt lat="44.529845382631194" lon="10.108780949121073"><ele>815.0</ele><time>2026-04-04T15:22:02.001Z</time></trkpt><trkpt lat="44.529804036591074" lon="10.108657378246136"><ele>815.0</ele><time>2026-04-04T15:22:04.001Z</time></trkpt><trkpt lat="44.52982692516855" lon="10.10855951118976"><ele>815.0</ele><time>2026-04-04T15:22:05.001Z</time></trkpt><trkpt lat="44.52986428820866" lon="10.108459749613512"><ele>815.0000000000001</ele><time>2026-04-04T15:22:06.001Z</time></trkpt><trkpt lat="44.529889625349746" lon="10.10837344733137"><ele>815.0</ele><time>2026-04-04T15:22:07.001Z</time></trkpt><trkpt lat="44.52990685644482" lon="10.108199088941648"><ele>814.5000000000001</ele><time>2026-04-04T15:22:09.001Z</time></trkpt><trkpt lat="44.52989034001424" lon="10.10811355429974"><ele>814.0</ele><time>2026-04-04T15:22:10.001Z</time></trkpt><trkpt lat="44.52987678961064" lon="10.108013017771842"><ele>813.5</ele><time>2026-04-04T15:22:11.001Z</time></trkpt><trkpt lat="44.52985214115325" lon="10.107897600564575"><ele>813.0</ele><time>2026-04-04T15:22:12.001Z</time></trkpt><trkpt lat="44.529822648547196" lon="10.1077117475756"><ele>812.5000000000001</ele><time>2026-04-04T15:22:14.001Z</time></trkpt><trkpt lat="44.52980607030246" lon="10.107623113726726"><ele>812.0</ele><time>2026-04-04T15:22:15.001Z</time></trkpt><trkpt lat="44.529782148168664" lon="10.107518196194436"><ele>812.0</ele><time>2026-04-04T15:22:16.001Z</time></trkpt><trkpt lat="44.52972611766948" lon="10.10734317276456"><ele>812.0</ele><time>2026-04-04T15:22:18.001Z</time></trkpt><trkpt lat="44.529687902586325" lon="10.107244815838301"><ele>812.0</ele><time>2026-04-04T15:22:19.001Z</time></trkpt><trkpt lat="44.529650796579" lon="10.107149898847494"><ele>812.0</ele><time>2026-04-04T15:22:20.001Z</time></trkpt><trkpt lat="44.52961290399032" lon="10.107052969784545"><ele>812.0</ele><time>2026-04-04T15:22:21.001Z</time></trkpt><trkpt lat="44.52957564251768" lon="10.10695849061151"><ele>809.1666666666667</ele><time>2026-04-04T15:22:22.001Z</time></trkpt><trkpt lat="44.52953534095262" lon="10.10685811081953"><ele>806.3333333333334</ele><time>2026-04-04T15:22:23.001Z</time></trkpt><trkpt lat="44.52949381190632" lon="10.106754673747403"><ele>803.5</ele><time>2026-04-04T15:22:24.001Z</time></trkpt><trkpt lat="44.52945837952788" lon="10.106664092328813"><ele>800.6666666666667</ele><time>2026-04-04T15:22:25.001Z</time></trkpt><trkpt lat="44.529425189094425" lon="10.106572870006241"><ele>797.8333333333334</ele><time>2026-04-04T15:22:26.001Z</time></trkpt><trkpt lat="44.52939280216193" lon="10.106460537563942"><ele>795.0</ele><time>2026-04-04T15:22:27.001Z</time></trkpt><trkpt lat="44.529367072052494" lon="10.106353142912775"><ele>795.0</ele><time>2026-04-04T15:22:28.001Z</time></trkpt><trkpt lat="44.52934204288065" lon="10.106245773778301"><ele>795.0</ele><time>2026-04-04T15:22:29.001Z</time></trkpt><trkpt lat="44.529308168448345" lon="10.106119177311088"><ele>795.0</ele><time>2026-04-04T15:22:30.001Z</time></trkpt><trkpt lat="44.529272789549324" lon="10.106019254311306"><ele>795.0</ele><time>2026-04-04T15:22:31.001Z</time></trkpt><trkpt lat="44.529233500258194" lon="10.105938152601079"><ele>795.0</ele><time>2026-04-04T15:22:32.001Z</time></trkpt><trkpt lat="44.52916737582715" lon="10.105864258403924"><ele>795.0</ele><time>2026-04-04T15:22:33.001Z</time></trkpt><trkpt lat="44.52908112858549" lon="10.105791766834937"><ele>797.2</ele><time>2026-04-04T15:22:34.001Z</time></trkpt><trkpt lat="44.52901112941039" lon="10.105721239261143"><ele>799.4</ele><time>2026-04-04T15:22:35.001Z</time></trkpt><trkpt lat="44.528951010984755" lon="10.105630395019988"><ele>801.5999999999999</ele><time>2026-04-04T15:22:36.001Z</time></trkpt><trkpt lat="44.52888599667828" lon="10.105523403865782"><ele>803.8</ele><time>2026-04-04T15:22:37.001Z</time></trkpt><trkpt lat="44.52883183766247" lon="10.105410055112019"><ele>806.0</ele><time>2026-04-04T15:22:38.001Z</time></trkpt><trkpt lat="44.5287812807557" lon="10.10529097690193"><ele>806.0000000000001</ele><time>2026-04-04T15:22:39.001Z</time></trkpt><trkpt lat="44.52874202142747" lon="10.105198313774318"><ele>806.0</ele><time>2026-04-04T15:22:40.001Z</time></trkpt><trkpt lat="44.52869346954473" lon="10.105101500421092"><ele>806.0</ele><time>2026-04-04T15:22:41.001Z</time></trkpt><trkpt lat="44.52863601560714" lon="10.104999031905727"><ele>806.0</ele><time>2026-04-04T15:22:42.001Z</time></trkpt><trkpt lat="44.528579678767755" lon="10.104908340595541"><ele>806.0000000000001</ele><time>2026-04-04T15:22:43.001Z</time></trkpt><trkpt lat="44.528505873952774" lon="10.104811259850704"><ele>806.0</ele><time>2026-04-04T15:22:44.001Z</time></trkpt><trkpt lat="44.52842789909909" lon="10.104734742375985"><ele>804.4</ele><time>2026-04-04T15:22:45.001Z</time></trkpt><trkpt lat="44.528341724029175" lon="10.104701671043461"><ele>802.8</ele><time>2026-04-04T15:22:46.001Z</time></trkpt><trkpt lat="44.52825028689006" lon="10.104676109058792"><ele>801.1999999999999</ele><time>2026-04-04T15:22:47.001Z</time></trkpt><trkpt lat="44.528142563036226" lon="10.104648052309587"><ele>799.5999999999999</ele><time>2026-04-04T15:22:48.001Z</time></trkpt><trkpt lat="44.5280280068282" lon="10.104618834794731"><ele>798.0</ele><time>2026-04-04T15:22:49.001Z</time></trkpt><trkpt lat="44.52790614223167" lon="10.104588746134462"><ele>795.8</ele><time>2026-04-04T15:22:50.001Z</time></trkpt><trkpt lat="44.52779814170807" lon="10.104555551897354"><ele>793.5999999999999</ele><time>2026-04-04T15:22:51.001Z</time></trkpt><trkpt lat="44.527703568573735" lon="10.104506719456431"><ele>791.4000000000001</ele><time>2026-04-04T15:22:52.001Z</time></trkpt><trkpt lat="44.52761117903952" lon="10.1044475984299"><ele>789.2</ele><time>2026-04-04T15:22:53.001Z</time></trkpt><trkpt lat="44.5275426896561" lon="10.10439177308034"><ele>787.0</ele><time>2026-04-04T15:22:54.001Z</time></trkpt><trkpt lat="44.527493908703036" lon="10.10431990242132"><ele>786.9999999999999</ele><time>2026-04-04T15:22:55.001Z</time></trkpt><trkpt lat="44.52741001285866" lon="10.104229997828654"><ele>787.0</ele><time>2026-04-04T15:22:57.001Z</time></trkpt><trkpt lat="44.52733176024419" lon="10.104146140702698"><ele>787.0</ele><time>2026-04-04T15:22:59.001Z</time></trkpt><trkpt lat="44.5272573915377" lon="10.10412858015038"><ele>787.0</ele><time>2026-04-04T15:23:00.001Z</time></trkpt><trkpt lat="44.52719099592446" lon="10.104118026397916"><ele>786.9999999999999</ele><time>2026-04-04T15:23:01.001Z</time></trkpt><trkpt lat="44.527121278820395" lon="10.104155136995095"><ele>787.0</ele><time>2026-04-04T15:23:02.001Z</time></trkpt><trkpt lat="44.52704311324171" lon="10.10415025546788"><ele>784.9999999999999</ele><time>2026-04-04T15:23:03.001Z</time></trkpt><trkpt lat="44.52697189872691" lon="10.10416158220005"><ele>783.0</ele><time>2026-04-04T15:23:04.001Z</time></trkpt><trkpt lat="44.52688958491106" lon="10.104174674284257"><ele>781.0</ele><time>2026-04-04T15:23:05.001Z</time></trkpt><trkpt lat="44.52680289721785" lon="10.104188438429766"><ele>779.0</ele><time>2026-04-04T15:23:06.001Z</time></trkpt><trkpt lat="44.52672550373444" lon="10.10422363417702"><ele>776.9999999999999</ele><time>2026-04-04T15:23:07.001Z</time></trkpt><trkpt lat="44.526650730605624" lon="10.104230528665617"><ele>775.0</ele><time>2026-04-04T15:23:08.001Z</time></trkpt><trkpt lat="44.526587490446026" lon="10.104238232701375"><ele>775.0</ele><time>2026-04-04T15:23:09.001Z</time></trkpt><trkpt lat="44.52647548635903" lon="10.104202329563314"><ele>775.0</ele><time>2026-04-04T15:23:11.001Z</time></trkpt><trkpt lat="44.5264138218176" lon="10.104287922778404"><ele>775.0</ele><time>2026-04-04T15:23:14.001Z</time></trkpt><trkpt lat="44.526453118551004" lon="10.10436654552166"><ele>775.0</ele><time>2026-04-04T15:23:16.001Z</time></trkpt><trkpt lat="44.52658881425477" lon="10.104378975784183"><ele>775.0</ele><time>2026-04-04T15:23:18.001Z</time></trkpt><trkpt lat="44.52668145807664" lon="10.104390512379515"><ele>775.0</ele><time>2026-04-04T15:23:19.001Z</time></trkpt><trkpt lat="44.52678892507843" lon="10.104440215662525"><ele>775.0</ele><time>2026-04-04T15:23:20.001Z</time></trkpt><trkpt lat="44.5268738085443" lon="10.104509896970049"><ele>775.0</ele><time>2026-04-04T15:23:21.001Z</time></trkpt><trkpt lat="44.526953253194264" lon="10.104600827940255"><ele>775.0</ele><time>2026-04-04T15:23:22.001Z</time></trkpt><trkpt lat="44.52702400030178" lon="10.104693281692992"><ele>775.0</ele><time>2026-04-04T15:23:23.001Z</time></trkpt><trkpt lat="44.52708505749412" lon="10.104757374865205"><ele>774.6</ele><time>2026-04-04T15:23:24.001Z</time></trkpt><trkpt lat="44.52710128999638" lon="10.104875951857572"><ele>774.2</ele><time>2026-04-04T15:23:25.001Z</time></trkpt><trkpt lat="44.52710949845518" lon="10.105040052470674"><ele>773.8</ele><time>2026-04-04T15:23:26.001Z</time></trkpt><trkpt lat="44.52707425931988" lon="10.105196016416867"><ele>773.4</ele><time>2026-04-04T15:23:27.001Z</time></trkpt><trkpt lat="44.52702649202075" lon="10.105336786822734"><ele>773.0</ele><time>2026-04-04T15:23:28.001Z</time></trkpt><trkpt lat="44.52700810844991" lon="10.105452719860805"><ele>770.5999999999999</ele><time>2026-04-04T15:23:29.001Z</time></trkpt><trkpt lat="44.52701683092248" lon="10.10556791813404"><ele>768.1999999999999</ele><time>2026-04-04T15:23:30.001Z</time></trkpt><trkpt lat="44.527056682418745" lon="10.105683943832672"><ele>765.8</ele><time>2026-04-04T15:23:31.001Z</time></trkpt><trkpt lat="44.527124433277606" lon="10.105807310770656"><ele>763.4</ele><time>2026-04-04T15:23:32.001Z</time></trkpt><trkpt lat="44.527220945199424" lon="10.105929687407029"><ele>761.0</ele><time>2026-04-04T15:23:33.001Z</time></trkpt><trkpt lat="44.52732624964489" lon="10.10606179604143"><ele>761.0</ele><time>2026-04-04T15:23:34.001Z</time></trkpt><trkpt lat="44.52739643194502" lon="10.106186192606016"><ele>761.0</ele><time>2026-04-04T15:23:35.001Z</time></trkpt><trkpt lat="44.527456243695035" lon="10.106298896609037"><ele>761.0</ele><time>2026-04-04T15:23:36.001Z</time></trkpt><trkpt lat="44.52752204084403" lon="10.106391326410618"><ele>761.0</ele><time>2026-04-04T15:23:37.001Z</time></trkpt><trkpt lat="44.52758279740655" lon="10.10649527828261"><ele>761.0</ele><time>2026-04-04T15:23:38.001Z</time></trkpt><trkpt lat="44.527627652979994" lon="10.10664227064619"><ele>758.4</ele><time>2026-04-04T15:23:39.001Z</time></trkpt><trkpt lat="44.52766510860355" lon="10.106812086025755"><ele>755.8</ele><time>2026-04-04T15:23:40.001Z</time></trkpt><trkpt lat="44.52768939120209" lon="10.106960962262965"><ele>753.1999999999999</ele><time>2026-04-04T15:23:41.001Z</time></trkpt><trkpt lat="44.52770558910659" lon="10.107082681544004"><ele>750.5999999999999</ele><time>2026-04-04T15:23:42.001Z</time></trkpt><trkpt lat="44.52771443706924" lon="10.107171735036122"><ele>748.0</ele><time>2026-04-04T15:23:43.001Z</time></trkpt><trkpt lat="44.5276802580241" lon="10.107302548204963"><ele>748.0</ele><time>2026-04-04T15:23:45.001Z</time></trkpt><trkpt lat="44.52756762984326" lon="10.107289162081084"><ele>748.0</ele><time>2026-04-04T15:23:47.001Z</time></trkpt><trkpt lat="44.52751307488787" lon="10.107205895050473"><ele>748.0</ele><time>2026-04-04T15:23:48.001Z</time></trkpt><trkpt lat="44.52745037637404" lon="10.1071041449467"><ele>748.0</ele><time>2026-04-04T15:23:49.001Z</time></trkpt><trkpt lat="44.52739899643053" lon="10.10700750076169"><ele>748.0</ele><time>2026-04-04T15:23:50.001Z</time></trkpt><trkpt lat="44.52736810165643" lon="10.1069240977222"><ele>748.0</ele><time>2026-04-04T15:23:51.001Z</time></trkpt><trkpt lat="44.527304747676446" lon="10.10680579598887"><ele>748.0</ele><time>2026-04-04T15:23:53.001Z</time></trkpt><trkpt lat="44.527212124159234" lon="10.106823707690058"><ele>748.0</ele><time>2026-04-04T15:23:55.001Z</time></trkpt><trkpt lat="44.52718577768881" lon="10.106913466406496"><ele>748.0</ele><time>2026-04-04T15:23:56.001Z</time></trkpt><trkpt lat="44.52719564215468" lon="10.107030848494524"><ele>748.0</ele><time>2026-04-04T15:23:57Z</time></trkpt><trkpt lat="44.52722555516583" lon="10.107167997969245"><ele>748.0</ele><time>2026-04-04T15:23:58Z</time></trkpt><trkpt lat="44.5272469752737" lon="10.107327748260065"><ele>746.25</ele><time>2026-04-04T15:23:59Z</time></trkpt><trkpt lat="44.527265111103034" lon="10.10749240003865"><ele>744.5</ele><time>2026-04-04T15:24:00Z</time></trkpt><trkpt lat="44.52728723911511" lon="10.107652963692438"><ele>742.75</ele><time>2026-04-04T15:24:01Z</time></trkpt><trkpt lat="44.52729283755163" lon="10.10780241087482"><ele>741.0</ele><time>2026-04-04T15:24:02Z</time></trkpt><trkpt lat="44.52725871690604" lon="10.107956495613175"><ele>741.0</ele><time>2026-04-04T15:24:03Z</time></trkpt><trkpt lat="44.527188332734674" lon="10.108106942735429"><ele>741.0</ele><time>2026-04-04T15:24:04Z</time></trkpt><trkpt lat="44.52710250805373" lon="10.10826316707288"><ele>741.0</ele><time>2026-04-04T15:24:05Z</time></trkpt><trkpt lat="44.527000810069175" lon="10.108417192360767"><ele>741.0</ele><time>2026-04-04T15:24:06Z</time></trkpt><trkpt lat="44.52690958792877" lon="10.10856673334338"><ele>736.5</ele><time>2026-04-04T15:24:07Z</time></trkpt><trkpt lat="44.52682736658174" lon="10.108717285337736"><ele>732.0</ele><time>2026-04-04T15:24:08Z</time></trkpt><trkpt lat="44.526749748495895" lon="10.10885499356772"><ele>727.5</ele><time>2026-04-04T15:24:09Z</time></trkpt><trkpt lat="44.52667226691897" lon="10.108982547238037"><ele>723.0</ele><time>2026-04-04T15:24:10Z</time></trkpt><trkpt lat="44.52659743201065" lon="10.109100069955511"><ele>723.0</ele><time>2026-04-04T15:24:11Z</time></trkpt><trkpt lat="44.52652475681903" lon="10.109216426767777"><ele>723.0</ele><time>2026-04-04T15:24:12Z</time></trkpt><trkpt lat="44.52645164631839" lon="10.109337857102133"><ele>723.0</ele><time>2026-04-04T15:24:13Z</time></trkpt><trkpt lat="44.52637945259659" lon="10.109469873657378"><ele>723.0</ele><time>2026-04-04T15:24:14Z</time></trkpt><trkpt lat="44.52631004938423" lon="10.109614412747797"><ele>723.0</ele><time>2026-04-04T15:24:15Z</time></trkpt><trkpt lat="44.52623445197376" lon="10.109766380818424"><ele>723.0</ele><time>2026-04-04T15:24:16Z</time></trkpt><trkpt lat="44.52614301596767" lon="10.109900018572663"><ele>723.0</ele><time>2026-04-04T15:24:17Z</time></trkpt><trkpt lat="44.52604096627145" lon="10.110012222281174"><ele>723.0</ele><time>2026-04-04T15:24:18Z</time></trkpt><trkpt lat="44.5259450862139" lon="10.110109328061109"><ele>720.5</ele><time>2026-04-04T15:24:19Z</time></trkpt><trkpt lat="44.52585391766802" lon="10.11019418504017"><ele>718.0</ele><time>2026-04-04T15:24:20Z</time></trkpt><trkpt lat="44.52577816098447" lon="10.110259059566458"><ele>715.5</ele><time>2026-04-04T15:24:21Z</time></trkpt><trkpt lat="44.52571598277653" lon="10.110324592536111"><ele>713.0</ele><time>2026-04-04T15:24:22Z</time></trkpt><trkpt lat="44.525661349502435" lon="10.110391309384637"><ele>710.5</ele><time>2026-04-04T15:24:23Z</time></trkpt><trkpt lat="44.52562491613715" lon="10.110475881123655"><ele>708.0</ele><time>2026-04-04T15:24:24Z</time></trkpt><trkpt lat="44.525600321734885" lon="10.110608998246695"><ele>709.75</ele><time>2026-04-04T15:24:25Z</time></trkpt><trkpt lat="44.52559018606139" lon="10.110783433983798"><ele>711.5</ele><time>2026-04-04T15:24:26Z</time></trkpt><trkpt lat="44.52557699344011" lon="10.11095862937213"><ele>713.25</ele><time>2026-04-04T15:24:27Z</time></trkpt><trkpt lat="44.5255402035019" lon="10.111122256053676"><ele>715.0</ele><time>2026-04-04T15:24:28Z</time></trkpt><trkpt lat="44.525478478657234" lon="10.111295915535319"><ele>715.0</ele><time>2026-04-04T15:24:29Z</time></trkpt><trkpt lat="44.52539582808578" lon="10.111463255184159"><ele>715.0</ele><time>2026-04-04T15:24:30Z</time></trkpt><trkpt lat="44.525311510964336" lon="10.111611896822891"><ele>715.0</ele><time>2026-04-04T15:24:31Z</time></trkpt><trkpt lat="44.525240161483296" lon="10.111759417608534"><ele>715.0</ele><time>2026-04-04T15:24:32Z</time></trkpt><trkpt lat="44.52517578473906" lon="10.111895056224553"><ele>709.2</ele><time>2026-04-04T15:24:33Z</time></trkpt><trkpt lat="44.525127467584184" lon="10.112002227464496"><ele>703.4</ele><time>2026-04-04T15:24:34Z</time></trkpt><trkpt lat="44.52510605158694" lon="10.11211928501106"><ele>697.5999999999999</ele><time>2026-04-04T15:24:35Z</time></trkpt><trkpt lat="44.52510171308982" lon="10.112278037955827"><ele>691.8</ele><time>2026-04-04T15:24:36Z</time></trkpt><trkpt lat="44.52510087872553" lon="10.112441504890425"><ele>686.0</ele><time>2026-04-04T15:24:37Z</time></trkpt><trkpt lat="44.52510612815295" lon="10.112586967183308"><ele>685.7142857142857</ele><time>2026-04-04T15:24:38Z</time></trkpt><trkpt lat="44.525113213764484" lon="10.112695910664586"><ele>685.4285714285714</ele><time>2026-04-04T15:24:39Z</time></trkpt><trkpt lat="44.525107465810684" lon="10.112786080909741"><ele>685.1428571428571</ele><time>2026-04-04T15:24:40Z</time></trkpt><trkpt lat="44.52509904827799" lon="10.112883538379092"><ele>684.8571428571429</ele><time>2026-04-04T15:24:41Z</time></trkpt><trkpt lat="44.52508588996468" lon="10.112989679768132"><ele>684.5714285714286</ele><time>2026-04-04T15:24:42Z</time></trkpt><trkpt lat="44.52507110870612" lon="10.1130819466143"><ele>684.2857142857142</ele><time>2026-04-04T15:24:43Z</time></trkpt><trkpt lat="44.52505493449482" lon="10.113173703787595"><ele>684.0</ele><time>2026-04-04T15:24:44Z</time></trkpt><trkpt lat="44.525030578492526" lon="10.11326561580494"><ele>683.5</ele><time>2026-04-04T15:24:45Z</time></trkpt><trkpt lat="44.5249978954742" lon="10.113351940534933"><ele>683.0</ele><time>2026-04-04T15:24:46Z</time></trkpt><trkpt lat="44.524956387819856" lon="10.113428978791006"><ele>682.5</ele><time>2026-04-04T15:24:47Z</time></trkpt><trkpt lat="44.52491508570451" lon="10.113500494546068"><ele>682.0</ele><time>2026-04-04T15:24:48Z</time></trkpt><trkpt lat="44.52483966766401" lon="10.113642786607132"><ele>681.5</ele><time>2026-04-04T15:24:50Z</time></trkpt><trkpt lat="44.524825773728914" lon="10.113732755412125"><ele>681.0</ele><time>2026-04-04T15:24:51Z</time></trkpt><trkpt lat="44.524817832146944" lon="10.113824913200176"><ele>681.0</ele><time>2026-04-04T15:24:52Z</time></trkpt><trkpt lat="44.52480830370715" lon="10.11393752966854"><ele>681.0</ele><time>2026-04-04T15:24:53Z</time></trkpt><trkpt lat="44.52479666180892" lon="10.114030411196289"><ele>681.0</ele><time>2026-04-04T15:24:54Z</time></trkpt><trkpt lat="44.52478084874671" lon="10.11412542348388"><ele>681.0</ele><time>2026-04-04T15:24:55Z</time></trkpt><trkpt lat="44.52475051435128" lon="10.114236517631431"><ele>681.0</ele><time>2026-04-04T15:24:56Z</time></trkpt><trkpt lat="44.524701571559966" lon="10.11435975688855"><ele>681.0</ele><time>2026-04-04T15:24:57Z</time></trkpt><trkpt lat="44.52465189540237" lon="10.114483852328988"><ele>680.8333333333334</ele><time>2026-04-04T15:24:58Z</time></trkpt><trkpt lat="44.524602673149715" lon="10.114589651559443"><ele>680.6666666666666</ele><time>2026-04-04T15:24:58.999Z</time></trkpt><trkpt lat="44.524564135763946" lon="10.11468750734867"><ele>680.5</ele><time>2026-04-04T15:24:59.999Z</time></trkpt><trkpt lat="44.52456139474412" lon="10.114786963380583"><ele>680.3333333333333</ele><time>2026-04-04T15:25:00.999Z</time></trkpt><trkpt lat="44.524590942260076" lon="10.114896597720158"><ele>680.1666666666666</ele><time>2026-04-04T15:25:01.999Z</time></trkpt><trkpt lat="44.52464990135535" lon="10.115009889191871"><ele>680.0</ele><time>2026-04-04T15:25:02.999Z</time></trkpt><trkpt lat="44.52472417294781" lon="10.11510003554744"><ele>680.0</ele><time>2026-04-04T15:25:03.999Z</time></trkpt><trkpt lat="44.524815698404325" lon="10.115194642429758"><ele>680.0</ele><time>2026-04-04T15:25:04.999Z</time></trkpt><trkpt lat="44.52489880196769" lon="10.115305252817125"><ele>680.0</ele><time>2026-04-04T15:25:05.999Z</time></trkpt><trkpt lat="44.52496853162868" lon="10.115424764189708"><ele>680.0</ele><time>2026-04-04T15:25:06.999Z</time></trkpt><trkpt lat="44.52501209886889" lon="10.115559972300703"><ele>680.0</ele><time>2026-04-04T15:25:07.999Z</time></trkpt><trkpt lat="44.5250258136608" lon="10.115720552736105"><ele>675.75</ele><time>2026-04-04T15:25:08.999Z</time></trkpt><trkpt lat="44.52503030294424" lon="10.115882729535924"><ele>671.5</ele><time>2026-04-04T15:25:09.999Z</time></trkpt><trkpt lat="44.52502041590263" lon="10.11605222307407"><ele>667.25</ele><time>2026-04-04T15:25:10.999Z</time></trkpt><trkpt lat="44.52499257752369" lon="10.116230648600087"><ele>663.0</ele><time>2026-04-04T15:25:11.999Z</time></trkpt><trkpt lat="44.52494646054736" lon="10.116387396195803"><ele>663.0</ele><time>2026-04-04T15:25:12.999Z</time></trkpt><trkpt lat="44.52489299341637" lon="10.116520041259104"><ele>663.0</ele><time>2026-04-04T15:25:13.999Z</time></trkpt><trkpt lat="44.52483965449151" lon="10.11663289697505"><ele>663.0</ele><time>2026-04-04T15:25:14.999Z</time></trkpt><trkpt lat="44.52480049758011" lon="10.116733075032386"><ele>663.0</ele><time>2026-04-04T15:25:15.999Z</time></trkpt><trkpt lat="44.52479416356604" lon="10.116842496114257"><ele>663.0</ele><time>2026-04-04T15:25:17Z</time></trkpt><trkpt lat="44.52482379738218" lon="10.116987628324601"><ele>662.0</ele><time>2026-04-04T15:25:18Z</time></trkpt><trkpt lat="44.52487718307414" lon="10.117123087342403"><ele>661.0</ele><time>2026-04-04T15:25:19Z</time></trkpt><trkpt lat="44.52491684791993" lon="10.117251322676978"><ele>660.0</ele><time>2026-04-04T15:25:19.999Z</time></trkpt><trkpt lat="44.52492037997891" lon="10.117372633689486"><ele>659.0</ele><time>2026-04-04T15:25:20.999Z</time></trkpt><trkpt lat="44.52488865905828" lon="10.11750113064034"><ele>658.0</ele><time>2026-04-04T15:25:21.999Z</time></trkpt><trkpt lat="44.524828759454124" lon="10.117619191236276"><ele>657.75</ele><time>2026-04-04T15:25:22.999Z</time></trkpt><trkpt lat="44.52476597949801" lon="10.117757411952544"><ele>657.5</ele><time>2026-04-04T15:25:23.999Z</time></trkpt><trkpt lat="44.52471495611968" lon="10.117915858713653"><ele>657.25</ele><time>2026-04-04T15:25:24.999Z</time></trkpt><trkpt lat="44.524666323055214" lon="10.118072383064856"><ele>657.0</ele><time>2026-04-04T15:25:25.999Z</time></trkpt><trkpt lat="44.5246074705014" lon="10.118211390350316"><ele>650.5</ele><time>2026-04-04T15:25:26.999Z</time></trkpt><trkpt lat="44.524542191134245" lon="10.118351216048552"><ele>644.0</ele><time>2026-04-04T15:25:27.999Z</time></trkpt><trkpt lat="44.52447258438549" lon="10.11850787306963"><ele>637.5</ele><time>2026-04-04T15:25:28.999Z</time></trkpt><trkpt lat="44.52440845031108" lon="10.11865139868992"><ele>631.0</ele><time>2026-04-04T15:25:29.999Z</time></trkpt><trkpt lat="44.524349007923426" lon="10.11878676693231"><ele>631.0</ele><time>2026-04-04T15:25:30.999Z</time></trkpt><trkpt lat="44.52429858163137" lon="10.1189212894921"><ele>631.0</ele><time>2026-04-04T15:25:31.999Z</time></trkpt><trkpt lat="44.52425471331019" lon="10.119045693668882"><ele>631.0</ele><time>2026-04-04T15:25:32.999Z</time></trkpt><trkpt lat="44.52421960538231" lon="10.11915582168355"><ele>631.0</ele><time>2026-04-04T15:25:33.999Z</time></trkpt><trkpt lat="44.524191724866554" lon="10.119239514954163"><ele>631.0</ele><time>2026-04-04T15:25:34.999Z</time></trkpt><trkpt lat="44.524155025695684" lon="10.11931602988726"><ele>631.0</ele><time>2026-04-04T15:25:36.999Z</time></trkpt><trkpt lat="44.52409381526824" lon="10.119261614371592"><ele>631.0</ele><time>2026-04-04T15:26:16Z</time></trkpt><trkpt lat="44.52410379397426" lon="10.119154002388523"><ele>631.0</ele><time>2026-04-04T15:26:19Z</time></trkpt><trkpt lat="44.52410365072113" lon="10.119052095921584"><ele>631.0</ele><time>2026-04-04T15:26:23Z</time></trkpt><trkpt lat="44.524122219481356" lon="10.11896707074351"><ele>631.0</ele><time>2026-04-04T15:26:31Z</time></trkpt><trkpt lat="44.52416523747265" lon="10.118804681356991"><ele>631.0</ele><time>2026-04-04T15:26:33Z</time></trkpt><trkpt lat="44.5241863899453" lon="10.118643094625252"><ele>631.0</ele><time>2026-04-04T15:26:35Z</time></trkpt><trkpt lat="44.52421033576241" lon="10.118508176424509"><ele>631.0</ele><time>2026-04-04T15:26:37Z</time></trkpt><trkpt lat="44.524246264736554" lon="10.118326799744754"><ele>631.0</ele><time>2026-04-04T15:26:39Z</time></trkpt><trkpt lat="44.52425849642911" lon="10.11823864817853"><ele>631.0</ele><time>2026-04-04T15:26:40Z</time></trkpt><trkpt lat="44.524252267275564" lon="10.118134569759517"><ele>631.0</ele><time>2026-04-04T15:26:42Z</time></trkpt><trkpt lat="44.524203476422336" lon="10.117988986668216"><ele>630.5</ele><time>2026-04-04T15:26:44Z</time></trkpt><trkpt lat="44.52417218763486" lon="10.117902818739186"><ele>630.0</ele><time>2026-04-04T15:26:45Z</time></trkpt><trkpt lat="44.524139632481045" lon="10.117821911532"><ele>629.5</ele><time>2026-04-04T15:26:46Z</time></trkpt><trkpt lat="44.524105430912456" lon="10.117742453789047"><ele>629.0</ele><time>2026-04-04T15:26:47Z</time></trkpt><trkpt lat="44.52406731835688" lon="10.117656435929485"><ele>628.5</ele><time>2026-04-04T15:26:48Z</time></trkpt><trkpt lat="44.52403755397294" lon="10.117576849767882"><ele>628.0</ele><time>2026-04-04T15:26:49Z</time></trkpt><trkpt lat="44.52393960027002" lon="10.117470106107803"><ele>628.0</ele><time>2026-04-04T15:26:51Z</time></trkpt><trkpt lat="44.52386916945313" lon="10.117436857997374"><ele>628.0</ele><time>2026-04-04T15:26:52Z</time></trkpt><trkpt lat="44.523790664987345" lon="10.117415977887868"><ele>628.0</ele><time>2026-04-04T15:26:53Z</time></trkpt><trkpt lat="44.52371902189788" lon="10.117399335552077"><ele>628.0</ele><time>2026-04-04T15:26:54Z</time></trkpt><trkpt lat="44.52365457113501" lon="10.117376868499534"><ele>628.0</ele><time>2026-04-04T15:26:55Z</time></trkpt><trkpt lat="44.52355072289758" lon="10.117285054162833"><ele>628.0</ele><time>2026-04-04T15:26:57Z</time></trkpt><trkpt lat="44.52350230168884" lon="10.11721037116296"><ele>625.0</ele><time>2026-04-04T15:26:58Z</time></trkpt><trkpt lat="44.52341011118352" lon="10.11710094164999"><ele>622.0</ele><time>2026-04-04T15:27:00Z</time></trkpt><trkpt lat="44.52333296526539" lon="10.117053409816723"><ele>619.0</ele><time>2026-04-04T15:27:02Z</time></trkpt><trkpt lat="44.52326271147445" lon="10.116954505409968"><ele>616.0</ele><time>2026-04-04T15:27:03Z</time></trkpt><trkpt lat="44.52322510654975" lon="10.116865312673452"><ele>613.0</ele><time>2026-04-04T15:27:04Z</time></trkpt><trkpt lat="44.523189055565574" lon="10.11677867614467"><ele>613.0</ele><time>2026-04-04T15:27:05Z</time></trkpt><trkpt lat="44.523093547519466" lon="10.116812823797906"><ele>613.0</ele><time>2026-04-04T15:27:07Z</time></trkpt><trkpt lat="44.52298136794293" lon="10.116789120410893"><ele>613.0</ele><time>2026-04-04T15:27:09Z</time></trkpt><trkpt lat="44.52291654515646" lon="10.116786703228343"><ele>613.0</ele><time>2026-04-04T15:27:10.999Z</time></trkpt><trkpt lat="44.522840157228956" lon="10.116779572365168"><ele>613.0</ele><time>2026-04-04T15:27:13.999Z</time></trkpt><trkpt lat="44.52274704394709" lon="10.11676566207391"><ele>613.0</ele><time>2026-04-04T15:27:16.999Z</time></trkpt><trkpt lat="44.52272245427308" lon="10.116634258675743"><ele>608.0</ele><time>2026-04-04T15:27:19.999Z</time></trkpt><trkpt lat="44.52276728920176" lon="10.116535213049039"><ele>603.0</ele><time>2026-04-04T15:27:21.999Z</time></trkpt><trkpt lat="44.52282045254343" lon="10.116461256611416"><ele>598.0</ele><time>2026-04-04T15:27:23.999Z</time></trkpt><trkpt lat="44.522823474735915" lon="10.116339811780797"><ele>593.0</ele><time>2026-04-04T15:27:25.999Z</time></trkpt><trkpt lat="44.52278454137621" lon="10.116221638591881"><ele>588.0</ele><time>2026-04-04T15:27:27.999Z</time></trkpt><trkpt lat="44.522720248583845" lon="10.116088052034607"><ele>588.0</ele><time>2026-04-04T15:27:29.999Z</time></trkpt><trkpt lat="44.522680659915125" lon="10.11601009801283"><ele>588.0</ele><time>2026-04-04T15:27:30.999Z</time></trkpt><trkpt lat="44.52264327464308" lon="10.115936548552698"><ele>588.0</ele><time>2026-04-04T15:27:31.999Z</time></trkpt><trkpt lat="44.522597157354475" lon="10.115795401730807"><ele>588.0</ele><time>2026-04-04T15:27:33.999Z</time></trkpt><trkpt lat="44.522573252620624" lon="10.115687142234666"><ele>588.0</ele><time>2026-04-04T15:27:34.999Z</time></trkpt><trkpt lat="44.52256375867623" lon="10.115590513701184"><ele>588.0</ele><time>2026-04-04T15:27:35.999Z</time></trkpt><trkpt lat="44.522548992695945" lon="10.11545764453474"><ele>588.3333333333334</ele><time>2026-04-04T15:27:37.999Z</time></trkpt><trkpt lat="44.52252294479792" lon="10.1153483144717"><ele>588.6666666666666</ele><time>2026-04-04T15:27:39.999Z</time></trkpt><trkpt lat="44.52245294098409" lon="10.11527132859674"><ele>589.0</ele><time>2026-04-04T15:27:41.999Z</time></trkpt><trkpt lat="44.52240211035177" lon="10.115179538909006"><ele>589.3333333333333</ele><time>2026-04-04T15:27:43.999Z</time></trkpt><trkpt lat="44.52238359311645" lon="10.115083916283007"><ele>589.6666666666666</ele><time>2026-04-04T15:27:45.999Z</time></trkpt><trkpt lat="44.522379285396916" lon="10.114975222501608"><ele>590.0</ele><time>2026-04-04T15:27:47.999Z</time></trkpt><trkpt lat="44.52238309507308" lon="10.114865848417375"><ele>590.4</ele><time>2026-04-04T15:27:49.999Z</time></trkpt><trkpt lat="44.5223802729641" lon="10.114721559499372"><ele>590.8</ele><time>2026-04-04T15:27:52.999Z</time></trkpt><trkpt lat="44.5223544688144" lon="10.114626720090824"><ele>591.2</ele><time>2026-04-04T15:27:54.999Z</time></trkpt><trkpt lat="44.52230230745598" lon="10.114501365017668"><ele>591.6</ele><time>2026-04-04T15:27:56.999Z</time></trkpt><trkpt lat="44.52227682130179" lon="10.114396288663825"><ele>592.0</ele><time>2026-04-04T15:27:58.999Z</time></trkpt><trkpt lat="44.52225245549198" lon="10.11425347823796"><ele>592.0</ele><time>2026-04-04T15:28:00.999Z</time></trkpt><trkpt lat="44.52229014216406" lon="10.1140966444193"><ele>592.0</ele><time>2026-04-04T15:28:02.999Z</time></trkpt><trkpt lat="44.52233108100865" lon="10.113960282388911"><ele>592.0</ele><time>2026-04-04T15:28:04.999Z</time></trkpt><trkpt lat="44.522309739847834" lon="10.113853535637128"><ele>592.0</ele><time>2026-04-04T15:28:06.999Z</time></trkpt><trkpt lat="44.52228565985969" lon="10.113736036243306"><ele>592.0</ele><time>2026-04-04T15:28:09.999Z</time></trkpt><trkpt lat="44.522319635872286" lon="10.113642408843354"><ele>592.0</ele><time>2026-04-04T15:28:11.999Z</time></trkpt><trkpt lat="44.52237370701967" lon="10.113488949721344"><ele>592.0</ele><time>2026-04-04T15:28:13.999Z</time></trkpt><trkpt lat="44.52240073065032" lon="10.11333969544606"><ele>592.0</ele><time>2026-04-04T15:28:15.999Z</time></trkpt><trkpt lat="44.522424022636834" lon="10.113188062732696"><ele>592.0</ele><time>2026-04-04T15:28:17.999Z</time></trkpt><trkpt lat="44.522441717800056" lon="10.113100918160818"><ele>592.0</ele><time>2026-04-04T15:28:18.999Z</time></trkpt><trkpt lat="44.52246353121808" lon="10.113005719704542"><ele>592.2857142857143</ele><time>2026-04-04T15:28:19.999Z</time></trkpt><trkpt lat="44.52248515885917" lon="10.112903571372813"><ele>592.5714285714286</ele><time>2026-04-04T15:28:20.999Z</time></trkpt><trkpt lat="44.52250942144239" lon="10.112812026575218"><ele>592.8571428571429</ele><time>2026-04-04T15:28:21.999Z</time></trkpt><trkpt lat="44.522536383482105" lon="10.112718251012767"><ele>593.1428571428571</ele><time>2026-04-04T15:28:22.999Z</time></trkpt><trkpt lat="44.522554154818884" lon="10.112617742053196"><ele>593.4285714285714</ele><time>2026-04-04T15:28:24Z</time></trkpt><trkpt lat="44.52256260290837" lon="10.112523528376817"><ele>593.7142857142858</ele><time>2026-04-04T15:28:24.999Z</time></trkpt><trkpt lat="44.52256299508331" lon="10.112426349190983"><ele>594.0</ele><time>2026-04-04T15:28:25.999Z</time></trkpt><trkpt lat="44.522556257643714" lon="10.112308868672221"><ele>594.4</ele><time>2026-04-04T15:28:26.999Z</time></trkpt><trkpt lat="44.52258598831584" lon="10.11222064095143"><ele>594.8</ele><time>2026-04-04T15:28:27.999Z</time></trkpt><trkpt lat="44.522626258797615" lon="10.112130739374662"><ele>595.2</ele><time>2026-04-04T15:28:28.999Z</time></trkpt><trkpt lat="44.522677316361836" lon="10.111964118133038"><ele>595.6</ele><time>2026-04-04T15:28:30.999Z</time></trkpt><trkpt lat="44.522677388349514" lon="10.111818092285532"><ele>596.0</ele><time>2026-04-04T15:28:32.999Z</time></trkpt><trkpt lat="44.522639695158105" lon="10.111712204195399"><ele>596.0</ele><time>2026-04-04T15:28:34.999Z</time></trkpt><trkpt lat="44.52259695860143" lon="10.11158772324412"><ele>596.0</ele><time>2026-04-04T15:28:36.999Z</time></trkpt><trkpt lat="44.52252751013637" lon="10.111468977555568"><ele>596.0</ele><time>2026-04-04T15:28:38.999Z</time></trkpt><trkpt lat="44.52247301169016" lon="10.111349125887376"><ele>596.0</ele><time>2026-04-04T15:28:40.999Z</time></trkpt><trkpt lat="44.52243505531471" lon="10.111196223268193"><ele>596.0</ele><time>2026-04-04T15:28:42.999Z</time></trkpt><trkpt lat="44.52237217385508" lon="10.111075946844538"><ele>597.3333333333333</ele><time>2026-04-04T15:28:44.999Z</time></trkpt><trkpt lat="44.5223148405097" lon="10.111038686659782"><ele>598.6666666666666</ele><time>2026-04-04T15:28:45.999Z</time></trkpt><trkpt lat="44.522242800809465" lon="10.11102807025511"><ele>600.0</ele><time>2026-04-04T15:28:46.999Z</time></trkpt><trkpt lat="44.52217890224257" lon="10.111039931959809"><ele>601.3333333333334</ele><time>2026-04-04T15:28:47.999Z</time></trkpt><trkpt lat="44.52206572433741" lon="10.111099599516287"><ele>602.6666666666667</ele><time>2026-04-04T15:28:49.999Z</time></trkpt><trkpt lat="44.52194773292482" lon="10.111162481806646"><ele>604.0</ele><time>2026-04-04T15:28:51.999Z</time></trkpt><trkpt lat="44.52182727118938" lon="10.111201029916753"><ele>600.2</ele><time>2026-04-04T15:28:53.999Z</time></trkpt><trkpt lat="44.521732984279964" lon="10.1111314542845"><ele>596.4</ele><time>2026-04-04T15:28:55.999Z</time></trkpt><trkpt lat="44.521681926138974" lon="10.111060115907824"><ele>592.6</ele><time>2026-04-04T15:28:57.999Z</time></trkpt><trkpt lat="44.521598160129294" lon="10.11100336487041"><ele>588.8</ele><time>2026-04-04T15:28:59.999Z</time></trkpt><trkpt lat="44.52150764427955" lon="10.110967924297576"><ele>585.0</ele><time>2026-04-04T15:29:01.999Z</time></trkpt><trkpt lat="44.521423836978606" lon="10.110948196013643"><ele>585.0</ele><time>2026-04-04T15:29:03.999Z</time></trkpt><trkpt lat="44.521354616515424" lon="10.110994998286662"><ele>585.0</ele><time>2026-04-04T15:29:05.999Z</time></trkpt><trkpt lat="44.52133524797247" lon="10.11112320737306"><ele>585.0</ele><time>2026-04-04T15:29:08.999Z</time></trkpt><trkpt lat="44.521347425461265" lon="10.111237357192614"><ele>585.0</ele><time>2026-04-04T15:29:10.999Z</time></trkpt><trkpt lat="44.5213443061636" lon="10.11138521540058"><ele>585.0</ele><time>2026-04-04T15:29:12.999Z</time></trkpt><trkpt lat="44.52130076399091" lon="10.11153192982659"><ele>584.6666666666666</ele><time>2026-04-04T15:29:14.999Z</time></trkpt><trkpt lat="44.52121251017824" lon="10.11163646744297"><ele>584.3333333333334</ele><time>2026-04-04T15:29:16.999Z</time></trkpt><trkpt lat="44.521145564646524" lon="10.11166056983049"><ele>584.0</ele><time>2026-04-04T15:29:17.999Z</time></trkpt><trkpt lat="44.521077759348515" lon="10.111675083278831"><ele>583.6666666666667</ele><time>2026-04-04T15:29:18.999Z</time></trkpt><trkpt lat="44.520973615296704" lon="10.111621552126417"><ele>583.3333333333334</ele><time>2026-04-04T15:29:20.999Z</time></trkpt><trkpt lat="44.52092361915541" lon="10.111565416923883"><ele>583.0</ele><time>2026-04-04T15:29:21.999Z</time></trkpt><trkpt lat="44.52080432401468" lon="10.11147553564418"><ele>583.0</ele><time>2026-04-04T15:29:23.999Z</time></trkpt><trkpt lat="44.520714479725726" lon="10.111419042531583"><ele>583.0</ele><time>2026-04-04T15:29:24.999Z</time></trkpt><trkpt lat="44.520624385910075" lon="10.111369563647632"><ele>583.0</ele><time>2026-04-04T15:29:25.999Z</time></trkpt><trkpt lat="44.520541074094744" lon="10.111314710752849"><ele>583.0</ele><time>2026-04-04T15:29:26.999Z</time></trkpt><trkpt lat="44.52046395547491" lon="10.111237086434471"><ele>583.0</ele><time>2026-04-04T15:29:27.999Z</time></trkpt><trkpt lat="44.52038264016831" lon="10.11115685597667"><ele>584.4</ele><time>2026-04-04T15:29:28.999Z</time></trkpt><trkpt lat="44.5202850989979" lon="10.111093906379534"><ele>585.8</ele><time>2026-04-04T15:29:29.999Z</time></trkpt><trkpt lat="44.520209455951175" lon="10.111048372500594"><ele>587.2</ele><time>2026-04-04T15:29:31.999Z</time></trkpt><trkpt lat="44.5200963230476" lon="10.111112224351082"><ele>588.6</ele><time>2026-04-04T15:29:33.999Z</time></trkpt><trkpt lat="44.520004617532464" lon="10.111047820315859"><ele>590.0</ele><time>2026-04-04T15:29:35.999Z</time></trkpt><trkpt lat="44.519952634561754" lon="10.110981302500862"><ele>590.0</ele><time>2026-04-04T15:29:36.999Z</time></trkpt><trkpt lat="44.51990091959815" lon="10.110904130491148"><ele>590.0</ele><time>2026-04-04T15:29:37.999Z</time></trkpt><trkpt lat="44.519840635790494" lon="10.110807085991201"><ele>590.0</ele><time>2026-04-04T15:29:38.999Z</time></trkpt><trkpt lat="44.51979287332662" lon="10.110726341045394"><ele>590.0</ele><time>2026-04-04T15:29:39.999Z</time></trkpt><trkpt lat="44.5197406678293" lon="10.110641027165649"><ele>590.0</ele><time>2026-04-04T15:29:40.999Z</time></trkpt><trkpt lat="44.519686623705816" lon="10.110556556315743"><ele>590.0</ele><time>2026-04-04T15:29:41.999Z</time></trkpt><trkpt lat="44.519632544039595" lon="10.11047286470431"><ele>591.6666666666666</ele><time>2026-04-04T15:29:43Z</time></trkpt><trkpt lat="44.51956572287282" lon="10.110387744950737"><ele>593.3333333333333</ele><time>2026-04-04T15:29:44Z</time></trkpt><trkpt lat="44.51949958091902" lon="10.110308451334562"><ele>595.0</ele><time>2026-04-04T15:29:45Z</time></trkpt><trkpt lat="44.519442417286555" lon="10.110236944739636"><ele>596.6666666666666</ele><time>2026-04-04T15:29:46Z</time></trkpt><trkpt lat="44.51939094812778" lon="10.110181102645853"><ele>598.3333333333334</ele><time>2026-04-04T15:29:47Z</time></trkpt><trkpt lat="44.51927594867294" lon="10.11013501985536"><ele>600.0</ele><time>2026-04-04T15:29:49Z</time></trkpt><trkpt lat="44.51918407370226" lon="10.110141570615419"><ele>600.0</ele><time>2026-04-04T15:29:50Z</time></trkpt><trkpt lat="44.51910296768705" lon="10.110175928167891"><ele>600.0</ele><time>2026-04-04T15:29:51Z</time></trkpt><trkpt lat="44.51901313616782" lon="10.11022398437211"><ele>600.0</ele><time>2026-04-04T15:29:52Z</time></trkpt><trkpt lat="44.518928179763236" lon="10.110277950027402"><ele>600.0</ele><time>2026-04-04T15:29:53Z</time></trkpt><trkpt lat="44.51883397688057" lon="10.110318927518609"><ele>600.0</ele><time>2026-04-04T15:29:54Z</time></trkpt><trkpt lat="44.51875078163373" lon="10.110337974188065"><ele>601.5</ele><time>2026-04-04T15:29:55Z</time></trkpt><trkpt lat="44.51868704916894" lon="10.110346492640055"><ele>603.0</ele><time>2026-04-04T15:29:56Z</time></trkpt><trkpt lat="44.5185814658735" lon="10.110312676936841"><ele>604.5</ele><time>2026-04-04T15:29:58Z</time></trkpt><trkpt lat="44.51851192431251" lon="10.110281140421268"><ele>606.0</ele><time>2026-04-04T15:30:00Z</time></trkpt><trkpt lat="44.51843794606013" lon="10.110360207855965"><ele>607.5</ele><time>2026-04-04T15:30:03Z</time></trkpt><trkpt lat="44.51842492739936" lon="10.110495282937764"><ele>609.0</ele><time>2026-04-04T15:30:05Z</time></trkpt><trkpt lat="44.51842831995868" lon="10.110590411252625"><ele>608.4</ele><time>2026-04-04T15:30:07Z</time></trkpt><trkpt lat="44.51844473213551" lon="10.110761669672117"><ele>607.8</ele><time>2026-04-04T15:30:09Z</time></trkpt><trkpt lat="44.5184524650627" lon="10.110861322712319"><ele>607.2</ele><time>2026-04-04T15:30:10Z</time></trkpt><trkpt lat="44.518470495213926" lon="10.111022448486182"><ele>606.6</ele><time>2026-04-04T15:30:12Z</time></trkpt><trkpt lat="44.51849718623559" lon="10.111178727763876"><ele>606.0</ele><time>2026-04-04T15:30:14Z</time></trkpt><trkpt lat="44.518521721840344" lon="10.111271130444399"><ele>606.0</ele><time>2026-04-04T15:30:16Z</time></trkpt><trkpt lat="44.518501368713885" lon="10.111355573655633"><ele>606.0</ele><time>2026-04-04T15:32:25Z</time></trkpt><trkpt lat="44.51850798936048" lon="10.111267750658735"><ele>606.0</ele><time>2026-04-04T15:32:38Z</time></trkpt><trkpt lat="44.5184806631495" lon="10.111120400771568"><ele>606.0</ele><time>2026-04-04T15:32:40Z</time></trkpt><trkpt lat="44.51846749724563" lon="10.111019139347507"><ele>606.0</ele><time>2026-04-04T15:32:41Z</time></trkpt><trkpt lat="44.518453774178084" lon="10.11090459093335"><ele>606.0</ele><time>2026-04-04T15:32:42Z</time></trkpt><trkpt lat="44.518441640536494" lon="10.110780936202271"><ele>606.5</ele><time>2026-04-04T15:32:43Z</time></trkpt><trkpt lat="44.518435606168914" lon="10.110667573637985"><ele>607.0</ele><time>2026-04-04T15:32:44Z</time></trkpt><trkpt lat="44.518431463444124" lon="10.110558958430467"><ele>607.5</ele><time>2026-04-04T15:32:45Z</time></trkpt><trkpt lat="44.51844876384276" lon="10.110399030420341"><ele>608.0</ele><time>2026-04-04T15:32:47Z</time></trkpt><trkpt lat="44.51845800406599" lon="10.110291275430018"><ele>608.5</ele><time>2026-04-04T15:32:49Z</time></trkpt><trkpt lat="44.51842012635128" lon="10.11039391430616"><ele>609.0</ele><time>2026-04-04T15:33:52.999Z</time></trkpt><trkpt lat="44.51841684140577" lon="10.11050971803261"><ele>609.0</ele><time>2026-04-04T15:33:55.999Z</time></trkpt><trkpt lat="44.518357451848324" lon="10.110556459911562"><ele>609.0</ele><time>2026-04-04T15:33:58.999Z</time></trkpt><trkpt lat="44.5182937143145" lon="10.110535867110801"><ele>609.0</ele><time>2026-04-04T15:34:00.999Z</time></trkpt><trkpt lat="44.51821914068976" lon="10.110516547526451"><ele>609.0</ele><time>2026-04-04T15:34:02.999Z</time></trkpt><trkpt lat="44.51812203678404" lon="10.110532574252108"><ele>609.0</ele><time>2026-04-04T15:34:04.999Z</time></trkpt><trkpt lat="44.518023752602495" lon="10.11058897247113"><ele>609.0</ele><time>2026-04-04T15:34:06.999Z</time></trkpt><trkpt lat="44.51794590324455" lon="10.110693329158739"><ele>610.6</ele><time>2026-04-04T15:34:08.999Z</time></trkpt><trkpt lat="44.51787711925853" lon="10.110804883377213"><ele>612.2</ele><time>2026-04-04T15:34:10.999Z</time></trkpt><trkpt lat="44.517801877676085" lon="10.110891768853937"><ele>613.8000000000001</ele><time>2026-04-04T15:34:12.999Z</time></trkpt><trkpt lat="44.51771434122486" lon="10.110965447893461"><ele>615.4</ele><time>2026-04-04T15:34:14.999Z</time></trkpt><trkpt lat="44.517644608047746" lon="10.110991661884524"><ele>617.0</ele><time>2026-04-04T15:34:16.999Z</time></trkpt><trkpt lat="44.517544153492324" lon="10.111009684859967"><ele>617.0</ele><time>2026-04-04T15:34:20.999Z</time></trkpt><trkpt lat="44.51743264580491" lon="10.111017165126224"><ele>617.0</ele><time>2026-04-04T15:34:22.999Z</time></trkpt><trkpt lat="44.51736550854605" lon="10.111024266682492"><ele>617.0</ele><time>2026-04-04T15:34:23.999Z</time></trkpt><trkpt lat="44.51729094103432" lon="10.111037717146623"><ele>617.0</ele><time>2026-04-04T15:34:24.999Z</time></trkpt><trkpt lat="44.51722661819737" lon="10.111028079930067"><ele>617.0</ele><time>2026-04-04T15:34:25.999Z</time></trkpt><trkpt lat="44.517103216903955" lon="10.111021474902916"><ele>617.0</ele><time>2026-04-04T15:34:27.999Z</time></trkpt><trkpt lat="44.517009841726484" lon="10.11101169600721"><ele>617.8000000000001</ele><time>2026-04-04T15:34:28.999Z</time></trkpt><trkpt lat="44.51691366712324" lon="10.110984825706288"><ele>618.6</ele><time>2026-04-04T15:34:29.999Z</time></trkpt><trkpt lat="44.516831860944066" lon="10.11094740861577"><ele>619.4000000000001</ele><time>2026-04-04T15:34:30.999Z</time></trkpt><trkpt lat="44.516748318817896" lon="10.110899003685583"><ele>620.2</ele><time>2026-04-04T15:34:31.999Z</time></trkpt><trkpt lat="44.51668295521368" lon="10.11086483904086"><ele>621.0</ele><time>2026-04-04T15:34:32.999Z</time></trkpt><trkpt lat="44.51656644737449" lon="10.110884318140478"><ele>621.0</ele><time>2026-04-04T15:34:34.999Z</time></trkpt><trkpt lat="44.5164988928899" lon="10.110929711317665"><ele>621.0</ele><time>2026-04-04T15:34:35.999Z</time></trkpt><trkpt lat="44.5164244105288" lon="10.110983234054178"><ele>621.0</ele><time>2026-04-04T15:34:36.999Z</time></trkpt><trkpt lat="44.51634677392492" lon="10.111034192594795"><ele>621.0</ele><time>2026-04-04T15:34:37.999Z</time></trkpt><trkpt lat="44.51628055232021" lon="10.111074509400318"><ele>621.0</ele><time>2026-04-04T15:34:38.999Z</time></trkpt><trkpt lat="44.516197198707" lon="10.11118947120565"><ele>621.0</ele><time>2026-04-04T15:34:40.999Z</time></trkpt><trkpt lat="44.516155499079126" lon="10.111287523700428"><ele>621.5</ele><time>2026-04-04T15:34:41.999Z</time></trkpt><trkpt lat="44.51609900890731" lon="10.111384280358491"><ele>622.0</ele><time>2026-04-04T15:34:42.999Z</time></trkpt><trkpt lat="44.516047305322" lon="10.111449327426044"><ele>622.5</ele><time>2026-04-04T15:34:43.999Z</time></trkpt><trkpt lat="44.516000079185986" lon="10.111507813606172"><ele>623.0</ele><time>2026-04-04T15:34:44.999Z</time></trkpt><trkpt lat="44.515919305328794" lon="10.11161216463698"><ele>623.5</ele><time>2026-04-04T15:34:46.999Z</time></trkpt><trkpt lat="44.51586318746652" lon="10.11167347438636"><ele>624.0</ele><time>2026-04-04T15:34:48.999Z</time></trkpt><trkpt lat="44.515799281716916" lon="10.111739559150235"><ele>624.0</ele><time>2026-04-04T15:34:50.999Z</time></trkpt><trkpt lat="44.51568626793703" lon="10.111787344168421"><ele>624.0</ele><time>2026-04-04T15:34:52.999Z</time></trkpt><trkpt lat="44.51559161205925" lon="10.11170899016168"><ele>624.0</ele><time>2026-04-04T15:34:54.999Z</time></trkpt><trkpt lat="44.51555252974642" lon="10.111634101173538"><ele>624.0</ele><time>2026-04-04T15:34:55.999Z</time></trkpt><trkpt lat="44.51548115263766" lon="10.11158605542991"><ele>624.0</ele><time>2026-04-04T15:34:57.999Z</time></trkpt><trkpt lat="44.51540209643717" lon="10.11167260867959"><ele>626.1666666666666</ele><time>2026-04-04T15:34:59.999Z</time></trkpt><trkpt lat="44.51534366508476" lon="10.111813355494128"><ele>628.3333333333334</ele><time>2026-04-04T15:35:01.999Z</time></trkpt><trkpt lat="44.51531365635609" lon="10.111910453154229"><ele>630.5</ele><time>2026-04-04T15:35:02.999Z</time></trkpt><trkpt lat="44.51526926997404" lon="10.111984182162125"><ele>632.6666666666667</ele><time>2026-04-04T15:35:03.999Z</time></trkpt><trkpt lat="44.515211234035625" lon="10.112032248105665"><ele>634.8333333333334</ele><time>2026-04-04T15:35:05Z</time></trkpt><trkpt lat="44.515144933677355" lon="10.112050281238519"><ele>637.0</ele><time>2026-04-04T15:35:06Z</time></trkpt><trkpt lat="44.515067395019294" lon="10.11206655002899"><ele>637.0</ele><time>2026-04-04T15:35:07Z</time></trkpt><trkpt lat="44.5150088409385" lon="10.112100217963283"><ele>637.0</ele><time>2026-04-04T15:35:09Z</time></trkpt><trkpt lat="44.51495631463362" lon="10.112193274486348"><ele>637.0</ele><time>2026-04-04T15:35:11Z</time></trkpt><trkpt lat="44.51490358058111" lon="10.112245051087687"><ele>637.0</ele><time>2026-04-04T15:35:12Z</time></trkpt><trkpt lat="44.51479985881809" lon="10.112291113615953"><ele>637.0</ele><time>2026-04-04T15:35:14Z</time></trkpt><trkpt lat="44.514730173689685" lon="10.11240140066807"><ele>637.0</ele><time>2026-04-04T15:35:17Z</time></trkpt><trkpt lat="44.514638494428134" lon="10.112508476105601"><ele>636.2</ele><time>2026-04-04T15:35:19Z</time></trkpt><trkpt lat="44.5145778575458" lon="10.11257633830495"><ele>635.4000000000001</ele><time>2026-04-04T15:35:20Z</time></trkpt><trkpt lat="44.51451380266059" lon="10.112656190698164"><ele>634.5999999999999</ele><time>2026-04-04T15:35:21Z</time></trkpt><trkpt lat="44.514422951258666" lon="10.112770832210554"><ele>633.8</ele><time>2026-04-04T15:35:23Z</time></trkpt><trkpt lat="44.51433373687843" lon="10.112832062402678"><ele>633.0</ele><time>2026-04-04T15:35:25Z</time></trkpt><trkpt lat="44.514225095939516" lon="10.112870443733156"><ele>637.3333333333334</ele><time>2026-04-04T15:35:27Z</time></trkpt><trkpt lat="44.5141296099001" lon="10.112923813835609"><ele>641.6666666666666</ele><time>2026-04-04T15:35:29Z</time></trkpt><trkpt lat="44.51411128397707" lon="10.113028834730704"><ele>646.0</ele><time>2026-04-04T15:35:31Z</time></trkpt><trkpt lat="44.51407160586845" lon="10.113121205611954"><ele>650.3333333333333</ele><time>2026-04-04T15:35:33Z</time></trkpt><trkpt lat="44.51400688995702" lon="10.11313141640119"><ele>654.6666666666666</ele><time>2026-04-04T15:35:42.999Z</time></trkpt><trkpt lat="44.513905924993466" lon="10.113140303036236"><ele>659.0</ele><time>2026-04-04T15:35:44.999Z</time></trkpt><trkpt lat="44.51385534474864" lon="10.113200555677109"><ele>657.8333333333333</ele><time>2026-04-04T15:35:46.999Z</time></trkpt><trkpt lat="44.51380881278597" lon="10.113310296023437"><ele>656.6666666666666</ele><time>2026-04-04T15:35:57.999Z</time></trkpt><trkpt lat="44.51376065887032" lon="10.113400540625927"><ele>655.5</ele><time>2026-04-04T15:35:59.999Z</time></trkpt><trkpt lat="44.51368761409312" lon="10.113445354397843"><ele>654.3333333333334</ele><time>2026-04-04T15:36:02.999Z</time></trkpt><trkpt lat="44.513607409733" lon="10.113426620734504"><ele>653.1666666666667</ele><time>2026-04-04T15:36:04.999Z</time></trkpt><trkpt lat="44.51350545700575" lon="10.113392491180315"><ele>652.0</ele><time>2026-04-04T15:36:06.999Z</time></trkpt><trkpt lat="44.513430583454756" lon="10.113379155490419"><ele>656.8</ele><time>2026-04-04T15:36:08.999Z</time></trkpt><trkpt lat="44.51338392495267" lon="10.113454394864945"><ele>661.6</ele><time>2026-04-04T15:36:10.999Z</time></trkpt><trkpt lat="44.51339725453172" lon="10.113570697883603"><ele>666.4</ele><time>2026-04-04T15:36:13.999Z</time></trkpt><trkpt lat="44.51343562286002" lon="10.11366382626639"><ele>671.1999999999999</ele><time>2026-04-04T15:36:15.999Z</time></trkpt><trkpt lat="44.513456413824784" lon="10.113809035602197"><ele>676.0</ele><time>2026-04-04T15:36:17.999Z</time></trkpt><trkpt lat="44.51345971670596" lon="10.113973839095017"><ele>675.4</ele><time>2026-04-04T15:36:19.999Z</time></trkpt><trkpt lat="44.51345038240494" lon="10.114145549261128"><ele>674.8</ele><time>2026-04-04T15:36:21.999Z</time></trkpt><trkpt lat="44.51346278708342" lon="10.114257776500848"><ele>674.1999999999999</ele><time>2026-04-04T15:36:23.999Z</time></trkpt><trkpt lat="44.51349417106543" lon="10.114352242511464"><ele>673.5999999999999</ele><time>2026-04-04T15:36:26Z</time></trkpt><trkpt lat="44.51350983860645" lon="10.114478046764761"><ele>673.0</ele><time>2026-04-04T15:36:28Z</time></trkpt><trkpt lat="44.513490627929926" lon="10.114611045837103"><ele>673.0</ele><time>2026-04-04T15:36:30Z</time></trkpt><trkpt lat="44.513470653943116" lon="10.114769305136184"><ele>673.0</ele><time>2026-04-04T15:36:32Z</time></trkpt><trkpt lat="44.513474512013396" lon="10.11485940823573"><ele>673.0</ele><time>2026-04-04T15:36:33Z</time></trkpt><trkpt lat="44.51348758550183" lon="10.114988619709125"><ele>673.0</ele><time>2026-04-04T15:36:35Z</time></trkpt><trkpt lat="44.51348545380809" lon="10.115135243435194"><ele>673.0</ele><time>2026-04-04T15:36:37Z</time></trkpt><trkpt lat="44.51347602162544" lon="10.115289162021707"><ele>671.5</ele><time>2026-04-04T15:36:39Z</time></trkpt><trkpt lat="44.513463321847695" lon="10.115460750794425"><ele>670.0</ele><time>2026-04-04T15:36:41Z</time></trkpt><trkpt lat="44.513443175085825" lon="10.115628984914773"><ele>668.5</ele><time>2026-04-04T15:36:43Z</time></trkpt><trkpt lat="44.51342940314134" lon="10.115775120470504"><ele>667.0</ele><time>2026-04-04T15:36:45Z</time></trkpt><trkpt lat="44.51342847223911" lon="10.115927728228273"><ele>665.0</ele><time>2026-04-04T15:36:47Z</time></trkpt><trkpt lat="44.51343341656074" lon="10.11605700897604"><ele>663.0</ele><time>2026-04-04T15:36:49Z</time></trkpt><trkpt lat="44.51343681375648" lon="10.116173229754159"><ele>661.0</ele><time>2026-04-04T15:36:51Z</time></trkpt><trkpt lat="44.513403715563285" lon="10.116265142307258"><ele>659.0</ele><time>2026-04-04T15:36:53Z</time></trkpt><trkpt lat="44.51335248829945" lon="10.116334170398797"><ele>657.0</ele><time>2026-04-04T15:36:55Z</time></trkpt><trkpt lat="44.51327233307505" lon="10.11641655326962"><ele>655.0</ele><time>2026-04-04T15:36:58Z</time></trkpt><trkpt lat="44.51320054611544" lon="10.116491081481568"><ele>653.8333333333334</ele><time>2026-04-04T15:37:00Z</time></trkpt><trkpt lat="44.51313890388271" lon="10.116581043275014"><ele>652.6666666666667</ele><time>2026-04-04T15:37:02Z</time></trkpt><trkpt lat="44.51309951589123" lon="10.11669392340377"><ele>651.5</ele><time>2026-04-04T15:37:04Z</time></trkpt><trkpt lat="44.513056022000754" lon="10.116792145220662"><ele>650.3333333333334</ele><time>2026-04-04T15:37:06Z</time></trkpt><trkpt lat="44.513004375146856" lon="10.116855805704393"><ele>649.1666666666666</ele><time>2026-04-04T15:37:09Z</time></trkpt><trkpt lat="44.51291547477409" lon="10.116837369323685"><ele>648.0</ele><time>2026-04-04T15:37:14Z</time></trkpt><trkpt lat="44.51280153702975" lon="10.116838772640422"><ele>650.4</ele><time>2026-04-04T15:37:16Z</time></trkpt><trkpt lat="44.51272384416303" lon="10.116944139790123"><ele>652.8</ele><time>2026-04-04T15:37:18Z</time></trkpt><trkpt lat="44.51270640047765" lon="10.117041459912567"><ele>655.2</ele><time>2026-04-04T15:37:20Z</time></trkpt><trkpt lat="44.51270275226789" lon="10.11716142485214"><ele>657.6</ele><time>2026-04-04T15:37:22Z</time></trkpt><trkpt lat="44.512726589228386" lon="10.117292669194407"><ele>660.0</ele><time>2026-04-04T15:37:25Z</time></trkpt><trkpt lat="44.51275795384919" lon="10.117414860973637"><ele>660.0</ele><time>2026-04-04T15:37:27Z</time></trkpt><trkpt lat="44.51277703304118" lon="10.117508777134745"><ele>660.0</ele><time>2026-04-04T15:37:29Z</time></trkpt><trkpt lat="44.51275161896056" lon="10.11764129270465"><ele>660.0</ele><time>2026-04-04T15:37:32Z</time></trkpt><trkpt lat="44.51270215602848" lon="10.117772447372317"><ele>660.0</ele><time>2026-04-04T15:37:34Z</time></trkpt><trkpt lat="44.51263151986859" lon="10.117891015847425"><ele>660.0</ele><time>2026-04-04T15:37:36Z</time></trkpt><trkpt lat="44.512566208369584" lon="10.118045408838821"><ele>660.0</ele><time>2026-04-04T15:37:38Z</time></trkpt><trkpt lat="44.51253538005341" lon="10.118127919190943"><ele>660.0</ele><time>2026-04-04T15:37:39Z</time></trkpt><trkpt lat="44.51247540399124" lon="10.11827321384515"><ele>660.0</ele><time>2026-04-04T15:37:41Z</time></trkpt><trkpt lat="44.51243562965713" lon="10.11834223354947"><ele>660.0</ele><time>2026-04-04T15:37:42Z</time></trkpt><trkpt lat="44.51235226621368" lon="10.118461344615586"><ele>660.0</ele><time>2026-04-04T15:37:44Z</time></trkpt><trkpt lat="44.51225074060204" lon="10.118542802282738"><ele>660.6</ele><time>2026-04-04T15:37:46Z</time></trkpt><trkpt lat="44.51215041278452" lon="10.118576091146243"><ele>661.2</ele><time>2026-04-04T15:37:48Z</time></trkpt><trkpt lat="44.51206582898988" lon="10.118596412595421"><ele>661.8</ele><time>2026-04-04T15:37:49.999Z</time></trkpt><trkpt lat="44.51198064399908" lon="10.1185968778478"><ele>662.4</ele><time>2026-04-04T15:37:51.999Z</time></trkpt><trkpt lat="44.51189225654867" lon="10.118575342032733"><ele>663.0</ele><time>2026-04-04T15:37:53.999Z</time></trkpt><trkpt lat="44.51178548792295" lon="10.118573878010128"><ele>663.0</ele><time>2026-04-04T15:37:55.999Z</time></trkpt><trkpt lat="44.511681329516435" lon="10.118631888254594"><ele>663.0</ele><time>2026-04-04T15:37:58Z</time></trkpt><trkpt lat="44.51157911374061" lon="10.118683431456182"><ele>663.0</ele><time>2026-04-04T15:38:00Z</time></trkpt><trkpt lat="44.511465609517565" lon="10.118687318790544"><ele>663.0</ele><time>2026-04-04T15:38:02Z</time></trkpt><trkpt lat="44.51139666289951" lon="10.118748147561872"><ele>663.0</ele><time>2026-04-04T15:38:04Z</time></trkpt><trkpt lat="44.51130901662269" lon="10.118842036887814"><ele>664.0</ele><time>2026-04-04T15:38:06Z</time></trkpt><trkpt lat="44.51119348387299" lon="10.118893950006111"><ele>665.0</ele><time>2026-04-04T15:38:08Z</time></trkpt><trkpt lat="44.51110006232261" lon="10.11891252840612"><ele>666.0</ele><time>2026-04-04T15:38:10Z</time></trkpt><trkpt lat="44.51098733665592" lon="10.118949969126627"><ele>667.0</ele><time>2026-04-04T15:38:12Z</time></trkpt><trkpt lat="44.51089930379996" lon="10.119028168137012"><ele>668.0</ele><time>2026-04-04T15:38:14Z</time></trkpt><trkpt lat="44.51081989569131" lon="10.119080755104218"><ele>664.8333333333333</ele><time>2026-04-04T15:38:16Z</time></trkpt><trkpt lat="44.51072165955126" lon="10.119089077827853"><ele>661.6666666666666</ele><time>2026-04-04T15:39:45Z</time></trkpt><trkpt lat="44.51066455526206" lon="10.119142969609815"><ele>658.5</ele><time>2026-04-04T15:39:49Z</time></trkpt><trkpt lat="44.51058535693611" lon="10.119201282413869"><ele>655.3333333333334</ele><time>2026-04-04T15:39:52Z</time></trkpt><trkpt lat="44.510523299303486" lon="10.119218961738232"><ele>652.1666666666667</ele><time>2026-04-04T15:39:54Z</time></trkpt><trkpt lat="44.51045997697061" lon="10.119235013414942"><ele>649.0</ele><time>2026-04-04T15:39:56Z</time></trkpt><trkpt lat="44.51039051470476" lon="10.119258978062176"><ele>648.6666666666667</ele><time>2026-04-04T15:39:59Z</time></trkpt><trkpt lat="44.51032094643419" lon="10.119283889228665"><ele>648.3333333333334</ele><time>2026-04-04T15:40:01Z</time></trkpt><trkpt lat="44.510251702323465" lon="10.119312186315573"><ele>648.0</ele><time>2026-04-04T15:40:05Z</time></trkpt><trkpt lat="44.51018230102302" lon="10.119334611068114"><ele>647.6666666666666</ele><time>2026-04-04T15:40:46Z</time></trkpt><trkpt lat="44.51010165787764" lon="10.119316310974451"><ele>647.3333333333333</ele><time>2026-04-04T15:40:49Z</time></trkpt><trkpt lat="44.510049076331654" lon="10.119257261507173"><ele>647.0</ele><time>2026-04-04T15:40:51Z</time></trkpt><trkpt lat="44.509988369315074" lon="10.119152678577532"><ele>651.2</ele><time>2026-04-04T15:40:53Z</time></trkpt><trkpt lat="44.50991294150679" lon="10.119045810952597"><ele>655.4000000000001</ele><time>2026-04-04T15:40:55Z</time></trkpt><trkpt lat="44.50983184107795" lon="10.118930962815293"><ele>659.5999999999999</ele><time>2026-04-04T15:40:57Z</time></trkpt><trkpt lat="44.5097723759943" lon="10.118812039844427"><ele>663.8</ele><time>2026-04-04T15:40:59Z</time></trkpt><trkpt lat="44.50968348266738" lon="10.118747409213206"><ele>668.0</ele><time>2026-04-04T15:41:01Z</time></trkpt><trkpt lat="44.50958494671554" lon="10.118652624035882"><ele>663.8333333333333</ele><time>2026-04-04T15:41:03Z</time></trkpt><trkpt lat="44.509509538794326" lon="10.11857202939293"><ele>659.6666666666666</ele><time>2026-04-04T15:41:05Z</time></trkpt><trkpt lat="44.50942242636271" lon="10.118494055758484"><ele>655.5</ele><time>2026-04-04T15:41:07Z</time></trkpt><trkpt lat="44.50935190396804" lon="10.118434678070974"><ele>651.3333333333334</ele><time>2026-04-04T15:41:10Z</time></trkpt><trkpt lat="44.509319036291494" lon="10.11835024487742"><ele>647.1666666666667</ele><time>2026-04-04T15:41:12Z</time></trkpt><trkpt lat="44.50928675050309" lon="10.118252999358345"><ele>643.0</ele><time>2026-04-04T15:41:14Z</time></trkpt><trkpt lat="44.50924819807366" lon="10.118166318193175"><ele>643.0</ele><time>2026-04-04T15:41:16Z</time></trkpt><trkpt lat="44.50924683226514" lon="10.118077280917309"><ele>643.0</ele><time>2026-04-04T15:41:18Z</time></trkpt><trkpt lat="44.5092597562661" lon="10.117966396219135"><ele>643.0</ele><time>2026-04-04T15:41:20Z</time></trkpt><trkpt lat="44.509244666389186" lon="10.117846840835167"><ele>643.0</ele><time>2026-04-04T15:41:23Z</time></trkpt><trkpt lat="44.509202052046255" lon="10.117750180169697"><ele>643.0</ele><time>2026-04-04T15:41:26Z</time></trkpt><trkpt lat="44.50912425937823" lon="10.117699335610899"><ele>643.0</ele><time>2026-04-04T15:41:29Z</time></trkpt><trkpt lat="44.50905618683215" lon="10.117720778044085"><ele>643.0</ele><time>2026-04-04T15:41:32Z</time></trkpt><trkpt lat="44.50898182428845" lon="10.117744751958432"><ele>643.0</ele><time>2026-04-04T15:41:36Z</time></trkpt><trkpt lat="44.508922721013455" lon="10.117666272333796"><ele>643.0</ele><time>2026-04-04T15:41:39Z</time></trkpt><trkpt lat="44.508870921582215" lon="10.117600147068837"><ele>643.0</ele><time>2026-04-04T15:41:41Z</time></trkpt><trkpt lat="44.50880864962642" lon="10.117528517989633"><ele>643.0</ele><time>2026-04-04T15:41:43Z</time></trkpt><trkpt lat="44.508736365465545" lon="10.117472393076122"><ele>643.0</ele><time>2026-04-04T15:41:45Z</time></trkpt><trkpt lat="44.508663521826705" lon="10.117413256946703"><ele>640.8</ele><time>2026-04-04T15:41:47Z</time></trkpt><trkpt lat="44.508598466237196" lon="10.117394507448745"><ele>638.5999999999999</ele><time>2026-04-04T15:41:49Z</time></trkpt><trkpt lat="44.508499362981425" lon="10.117429160520244"><ele>636.4000000000001</ele><time>2026-04-04T15:41:51Z</time></trkpt><trkpt lat="44.508440668992364" lon="10.117463693670471"><ele>634.2</ele><time>2026-04-04T15:41:52Z</time></trkpt><trkpt lat="44.50832796175749" lon="10.117528076360305"><ele>632.0</ele><time>2026-04-04T15:41:54Z</time></trkpt><trkpt lat="44.50822576080968" lon="10.11756765314354"><ele>631.4</ele><time>2026-04-04T15:41:56Z</time></trkpt><trkpt lat="44.508136583256636" lon="10.11758487716013"><ele>630.8000000000001</ele><time>2026-04-04T15:41:58Z</time></trkpt><trkpt lat="44.508045835744255" lon="10.11759196473301"><ele>630.2</ele><time>2026-04-04T15:42:00Z</time></trkpt><trkpt lat="44.50795166144944" lon="10.117610341256617"><ele>629.6</ele><time>2026-04-04T15:42:03Z</time></trkpt><trkpt lat="44.50788719121474" lon="10.117687916800579"><ele>629.0</ele><time>2026-04-04T15:45:06.001Z</time></trkpt><trkpt lat="44.50789208318961" lon="10.117843611488867"><ele>629.0</ele><time>2026-04-04T15:45:08.001Z</time></trkpt><trkpt lat="44.50788199341331" lon="10.117979813443654"><ele>629.0</ele><time>2026-04-04T15:45:10.001Z</time></trkpt><trkpt lat="44.507871422457086" lon="10.118076477383507"><ele>629.0</ele><time>2026-04-04T15:45:11.001Z</time></trkpt><trkpt lat="44.50785664004092" lon="10.118162354494451"><ele>629.0</ele><time>2026-04-04T15:45:12.001Z</time></trkpt><trkpt lat="44.50784194101439" lon="10.118248347260293"><ele>629.0</ele><time>2026-04-04T15:45:13.001Z</time></trkpt><trkpt lat="44.50781129256391" lon="10.118424390545776"><ele>629.0</ele><time>2026-04-04T15:45:15.001Z</time></trkpt><trkpt lat="44.50779304751314" lon="10.118511054097263"><ele>626.6</ele><time>2026-04-04T15:45:16.001Z</time></trkpt><trkpt lat="44.50772785333876" lon="10.118654214582087"><ele>624.2</ele><time>2026-04-04T15:45:18.001Z</time></trkpt><trkpt lat="44.50762783723827" lon="10.11874371986991"><ele>621.8000000000001</ele><time>2026-04-04T15:45:20.001Z</time></trkpt><trkpt lat="44.5075626304972" lon="10.118761070267729"><ele>619.4</ele><time>2026-04-04T15:45:21.001Z</time></trkpt><trkpt lat="44.507489938141205" lon="10.118748210780591"><ele>617.0</ele><time>2026-04-04T15:45:22.001Z</time></trkpt><trkpt lat="44.50741186199629" lon="10.11870520605442"><ele>617.0</ele><time>2026-04-04T15:45:23.001Z</time></trkpt><trkpt lat="44.50733880557998" lon="10.118637859757794"><ele>617.0</ele><time>2026-04-04T15:45:24.001Z</time></trkpt><trkpt lat="44.50726700499644" lon="10.118553216963825"><ele>617.0</ele><time>2026-04-04T15:45:25.001Z</time></trkpt><trkpt lat="44.50720062752171" lon="10.118475165985892"><ele>617.0</ele><time>2026-04-04T15:45:26.001Z</time></trkpt><trkpt lat="44.507132919492186" lon="10.118406050305559"><ele>617.0</ele><time>2026-04-04T15:45:27.001Z</time></trkpt><trkpt lat="44.507052004838364" lon="10.118360261122824"><ele>617.0</ele><time>2026-04-04T15:45:28.001Z</time></trkpt><trkpt lat="44.50697478406329" lon="10.11834651312287"><ele>615.7142857142858</ele><time>2026-04-04T15:45:29.001Z</time></trkpt><trkpt lat="44.506901361351936" lon="10.118357904855674"><ele>614.4285714285713</ele><time>2026-04-04T15:45:30.001Z</time></trkpt><trkpt lat="44.50683541736422" lon="10.118385065261213"><ele>613.1428571428571</ele><time>2026-04-04T15:45:31.001Z</time></trkpt><trkpt lat="44.50677865555568" lon="10.118432009011542"><ele>611.8571428571429</ele><time>2026-04-04T15:45:32.001Z</time></trkpt><trkpt lat="44.50673722058563" lon="10.118515766532443"><ele>610.5714285714287</ele><time>2026-04-04T15:45:33.001Z</time></trkpt><trkpt lat="44.506714395558305" lon="10.118622227236553"><ele>609.2857142857142</ele><time>2026-04-04T15:45:34.001Z</time></trkpt><trkpt lat="44.50671668181281" lon="10.11873195895962"><ele>608.0</ele><time>2026-04-04T15:45:35.001Z</time></trkpt><trkpt lat="44.506726649049305" lon="10.118835451091343"><ele>608.0</ele><time>2026-04-04T15:45:36.001Z</time></trkpt><trkpt lat="44.50674722718681" lon="10.11892972423439"><ele>608.0</ele><time>2026-04-04T15:45:37.001Z</time></trkpt><trkpt lat="44.5067854827816" lon="10.119030301357842"><ele>608.0</ele><time>2026-04-04T15:45:38.001Z</time></trkpt><trkpt lat="44.50682788817539" lon="10.119105663194153"><ele>608.0</ele><time>2026-04-04T15:45:39.001Z</time></trkpt><trkpt lat="44.50688014212445" lon="10.11916767348403"><ele>608.0</ele><time>2026-04-04T15:45:40.001Z</time></trkpt><trkpt lat="44.50693376872774" lon="10.119219181025535"><ele>608.0</ele><time>2026-04-04T15:45:41.001Z</time></trkpt><trkpt lat="44.50704021106052" lon="10.119314468121194"><ele>607.1666666666666</ele><time>2026-04-04T15:45:43.001Z</time></trkpt><trkpt lat="44.50710173743959" lon="10.119362802136296"><ele>606.3333333333333</ele><time>2026-04-04T15:45:44.001Z</time></trkpt><trkpt lat="44.50716467968754" lon="10.119409039469913"><ele>605.5</ele><time>2026-04-04T15:45:45.001Z</time></trkpt><trkpt lat="44.507224115019696" lon="10.119457452050145"><ele>604.6666666666666</ele><time>2026-04-04T15:45:46.001Z</time></trkpt><trkpt lat="44.50729965708826" lon="10.119523288639288"><ele>603.8333333333334</ele><time>2026-04-04T15:45:47.001Z</time></trkpt><trkpt lat="44.50737043077764" lon="10.119591243494174"><ele>603.0</ele><time>2026-04-04T15:45:48.001Z</time></trkpt><trkpt lat="44.50743924892504" lon="10.119667460536961"><ele>603.0</ele><time>2026-04-04T15:45:49.001Z</time></trkpt><trkpt lat="44.507512875690885" lon="10.119759846414913"><ele>603.0</ele><time>2026-04-04T15:45:50.001Z</time></trkpt><trkpt lat="44.50758169792855" lon="10.119851406706436"><ele>603.0</ele><time>2026-04-04T15:45:51.001Z</time></trkpt><trkpt lat="44.50764669413075" lon="10.119949776427298"><ele>603.0</ele><time>2026-04-04T15:45:52.001Z</time></trkpt><trkpt lat="44.507711328447556" lon="10.120053125979828"><ele>603.0</ele><time>2026-04-04T15:45:53.001Z</time></trkpt><trkpt lat="44.5077715248404" lon="10.120155373461229"><ele>601.8</ele><time>2026-04-04T15:45:54.001Z</time></trkpt><trkpt lat="44.5078256868456" lon="10.120256854738416"><ele>600.5999999999999</ele><time>2026-04-04T15:45:55.001Z</time></trkpt><trkpt lat="44.50787838407873" lon="10.120374617342172"><ele>599.4000000000001</ele><time>2026-04-04T15:45:56.001Z</time></trkpt><trkpt lat="44.50794842680718" lon="10.120484906999655"><ele>598.2</ele><time>2026-04-04T15:45:57.001Z</time></trkpt><trkpt lat="44.5080485992646" lon="10.120579695896716"><ele>597.0</ele><time>2026-04-04T15:45:58.001Z</time></trkpt><trkpt lat="44.50816677352927" lon="10.120661242409778"><ele>594.2</ele><time>2026-04-04T15:45:59.001Z</time></trkpt><trkpt lat="44.50828358003812" lon="10.120744205049812"><ele>591.4000000000001</ele><time>2026-04-04T15:46:00.001Z</time></trkpt><trkpt lat="44.50838399019305" lon="10.120821432823034"><ele>588.5999999999999</ele><time>2026-04-04T15:46:01.001Z</time></trkpt><trkpt lat="44.50846803614951" lon="10.120892314738825"><ele>585.8</ele><time>2026-04-04T15:46:02.001Z</time></trkpt><trkpt lat="44.50853393020674" lon="10.120955858316547"><ele>583.0</ele><time>2026-04-04T15:46:03.001Z</time></trkpt><trkpt lat="44.50858238141308" lon="10.12110074594464"><ele>583.0</ele><time>2026-04-04T15:46:05.001Z</time></trkpt><trkpt lat="44.508556594923206" lon="10.12119349149546"><ele>583.0</ele><time>2026-04-04T15:46:06.001Z</time></trkpt><trkpt lat="44.50849319689266" lon="10.121269286828818"><ele>583.0</ele><time>2026-04-04T15:46:07.001Z</time></trkpt><trkpt lat="44.50840275190839" lon="10.12133497890332"><ele>583.0</ele><time>2026-04-04T15:46:08.001Z</time></trkpt><trkpt lat="44.50829346489319" lon="10.1214204615028"><ele>583.0</ele><time>2026-04-04T15:46:09.001Z</time></trkpt><trkpt lat="44.50817912817484" lon="10.121537677375072"><ele>580.0</ele><time>2026-04-04T15:46:10.001Z</time></trkpt><trkpt lat="44.50807889929766" lon="10.121661684036113"><ele>577.0</ele><time>2026-04-04T15:46:11.001Z</time></trkpt><trkpt lat="44.50799347702609" lon="10.121756696366468"><ele>574.0</ele><time>2026-04-04T15:46:12.001Z</time></trkpt><trkpt lat="44.50791784656727" lon="10.121821220911588"><ele>571.0</ele><time>2026-04-04T15:46:13.001Z</time></trkpt><trkpt lat="44.50784466001468" lon="10.121846705809796"><ele>568.0</ele><time>2026-04-04T15:46:14.001Z</time></trkpt><trkpt lat="44.50776619135367" lon="10.121820617498775"><ele>569.1999999999999</ele><time>2026-04-04T15:46:15.001Z</time></trkpt><trkpt lat="44.50768139143079" lon="10.121755466455248"><ele>570.4</ele><time>2026-04-04T15:46:16.001Z</time></trkpt><trkpt lat="44.507590672614995" lon="10.121652350860197"><ele>571.5999999999999</ele><time>2026-04-04T15:46:17.001Z</time></trkpt><trkpt lat="44.507506170172654" lon="10.121529872916874"><ele>572.8</ele><time>2026-04-04T15:46:18.001Z</time></trkpt><trkpt lat="44.50744304426601" lon="10.121421181565891"><ele>574.0</ele><time>2026-04-04T15:46:19.001Z</time></trkpt><trkpt lat="44.50735435171513" lon="10.121337341618128"><ele>574.0</ele><time>2026-04-04T15:46:20.001Z</time></trkpt><trkpt lat="44.507257773732604" lon="10.121277665187549"><ele>574.0</ele><time>2026-04-04T15:46:21.001Z</time></trkpt><trkpt lat="44.50716563713824" lon="10.121269146571034"><ele>574.0</ele><time>2026-04-04T15:46:22.001Z</time></trkpt><trkpt lat="44.507064322532386" lon="10.121285426259533"><ele>574.0</ele><time>2026-04-04T15:46:23.001Z</time></trkpt><trkpt lat="44.50696829447746" lon="10.121322394613605"><ele>574.0</ele><time>2026-04-04T15:46:24.001Z</time></trkpt><trkpt lat="44.50685849601289" lon="10.121361976742179"><ele>573.0</ele><time>2026-04-04T15:46:25.001Z</time></trkpt><trkpt lat="44.506750669161384" lon="10.1213957575643"><ele>572.0</ele><time>2026-04-04T15:46:26.001Z</time></trkpt><trkpt lat="44.50665295791105" lon="10.121418668379164"><ele>571.0</ele><time>2026-04-04T15:46:27.001Z</time></trkpt><trkpt lat="44.5065496876936" lon="10.121435708677652"><ele>570.0</ele><time>2026-04-04T15:46:28.001Z</time></trkpt><trkpt lat="44.50645278579027" lon="10.121443011779506"><ele>569.0</ele><time>2026-04-04T15:46:29.001Z</time></trkpt><trkpt lat="44.506364787844994" lon="10.121438864477312"><ele>569.0</ele><time>2026-04-04T15:46:30.001Z</time></trkpt><trkpt lat="44.506285137287264" lon="10.121416053114531"><ele>569.0</ele><time>2026-04-04T15:46:31.001Z</time></trkpt><trkpt lat="44.50621170643521" lon="10.121390122981513"><ele>569.0</ele><time>2026-04-04T15:46:32.001Z</time></trkpt><trkpt lat="44.50613923039385" lon="10.121370468577222"><ele>569.0</ele><time>2026-04-04T15:46:33.001Z</time></trkpt><trkpt lat="44.50605965716732" lon="10.121352909997201"><ele>569.0</ele><time>2026-04-04T15:46:34.001Z</time></trkpt><trkpt lat="44.50599419603156" lon="10.121327754377058"><ele>569.0</ele><time>2026-04-04T15:46:35.001Z</time></trkpt><trkpt lat="44.50589804968099" lon="10.121296540248126"><ele>566.2</ele><time>2026-04-04T15:46:37.001Z</time></trkpt><trkpt lat="44.50584789671789" lon="10.121366828732068"><ele>563.4</ele><time>2026-04-04T15:46:46.001Z</time></trkpt><trkpt lat="44.50589043117707" lon="10.121508779662696"><ele>560.6</ele><time>2026-04-04T15:46:48.001Z</time></trkpt><trkpt lat="44.50595935656286" lon="10.12159385246009"><ele>557.8</ele><time>2026-04-04T15:46:49.001Z</time></trkpt><trkpt lat="44.50602759396591" lon="10.121696280350877"><ele>555.0</ele><time>2026-04-04T15:46:50.001Z</time></trkpt><trkpt lat="44.50610238900847" lon="10.1218190986224"><ele>555.0</ele><time>2026-04-04T15:46:51.001Z</time></trkpt><trkpt lat="44.50616916805274" lon="10.121927718191259"><ele>555.0</ele><time>2026-04-04T15:46:52.001Z</time></trkpt><trkpt lat="44.50623524597712" lon="10.122026392127921"><ele>555.0</ele><time>2026-04-04T15:46:53.001Z</time></trkpt><trkpt lat="44.50629619498361" lon="10.122118934321604"><ele>555.0</ele><time>2026-04-04T15:46:54.001Z</time></trkpt><trkpt lat="44.50635252122688" lon="10.122210729132087"><ele>555.0</ele><time>2026-04-04T15:46:55.001Z</time></trkpt><trkpt lat="44.50640614301532" lon="10.122296314440728"><ele>555.0</ele><time>2026-04-04T15:46:56.001Z</time></trkpt><trkpt lat="44.506465811731665" lon="10.122372045963942"><ele>555.0</ele><time>2026-04-04T15:46:57.001Z</time></trkpt><trkpt lat="44.50654974581592" lon="10.122451312485609"><ele>555.0</ele><time>2026-04-04T15:46:58.001Z</time></trkpt><trkpt lat="44.506651234686" lon="10.12249779262894"><ele>555.0</ele><time>2026-04-04T15:46:59.001Z</time></trkpt><trkpt lat="44.50674955555064" lon="10.122519169117641"><ele>555.0</ele><time>2026-04-04T15:47:00.001Z</time></trkpt><trkpt lat="44.50684361839048" lon="10.122532470826211"><ele>553.2</ele><time>2026-04-04T15:47:01.001Z</time></trkpt><trkpt lat="44.5069322476518" lon="10.122538121455849"><ele>551.4</ele><time>2026-04-04T15:47:02.001Z</time></trkpt><trkpt lat="44.50701491129765" lon="10.122539110437323"><ele>549.6</ele><time>2026-04-04T15:47:03.001Z</time></trkpt><trkpt lat="44.50709149541602" lon="10.122542102931652"><ele>547.8</ele><time>2026-04-04T15:47:04.001Z</time></trkpt><trkpt lat="44.507187691344114" lon="10.122551509138368"><ele>546.0</ele><time>2026-04-04T15:47:05.001Z</time></trkpt><trkpt lat="44.50730129185026" lon="10.122571790067184"><ele>546.0</ele><time>2026-04-04T15:47:06.001Z</time></trkpt><trkpt lat="44.507417387476465" lon="10.122629557368198"><ele>546.0</ele><time>2026-04-04T15:47:07.001Z</time></trkpt><trkpt lat="44.507520781132136" lon="10.122739797246677"><ele>546.0</ele><time>2026-04-04T15:47:08.001Z</time></trkpt><trkpt lat="44.507596330927065" lon="10.122896982253097"><ele>546.0</ele><time>2026-04-04T15:47:09.001Z</time></trkpt><trkpt lat="44.50765764428526" lon="10.123075535361933"><ele>543.3333333333334</ele><time>2026-04-04T15:47:10.001Z</time></trkpt><trkpt lat="44.507732842639356" lon="10.1232561281836"><ele>540.6666666666667</ele><time>2026-04-04T15:47:11.001Z</time></trkpt><trkpt lat="44.50783588360011" lon="10.123409279842246"><ele>538.0</ele><time>2026-04-04T15:47:12.001Z</time></trkpt><trkpt lat="44.50796508159199" lon="10.123533886511245"><ele>538.0</ele><time>2026-04-04T15:47:13.001Z</time></trkpt><trkpt lat="44.50811011084541" lon="10.123621127386476"><ele>538.0</ele><time>2026-04-04T15:47:14.001Z</time></trkpt><trkpt lat="44.50827919762253" lon="10.12369705456089"><ele>538.0</ele><time>2026-04-04T15:47:15.001Z</time></trkpt><trkpt lat="44.50845370989135" lon="10.123764188390467"><ele>538.0</ele><time>2026-04-04T15:47:16.001Z</time></trkpt><trkpt lat="44.508619547469905" lon="10.12383199252833"><ele>538.0</ele><time>2026-04-04T15:47:17.001Z</time></trkpt><trkpt lat="44.508783583052704" lon="10.123881071063922"><ele>538.0</ele><time>2026-04-04T15:47:18.001Z</time></trkpt><trkpt lat="44.50894188691247" lon="10.123907646354033"><ele>537.6666666666667</ele><time>2026-04-04T15:47:19.001Z</time></trkpt><trkpt lat="44.50909733091456" lon="10.123933759830667"><ele>537.3333333333334</ele><time>2026-04-04T15:47:20.001Z</time></trkpt><trkpt lat="44.50924725585253" lon="10.123961533537432"><ele>537.0</ele><time>2026-04-04T15:47:21.001Z</time></trkpt><trkpt lat="44.50939204107761" lon="10.123980867539867"><ele>537.0</ele><time>2026-04-04T15:47:22.001Z</time></trkpt><trkpt lat="44.509533728609775" lon="10.124006791710494"><ele>537.0</ele><time>2026-04-04T15:47:23.001Z</time></trkpt><trkpt lat="44.50967969327092" lon="10.12405050726735"><ele>537.0</ele><time>2026-04-04T15:47:24.001Z</time></trkpt><trkpt lat="44.50982584905475" lon="10.124109499951944"><ele>537.0</ele><time>2026-04-04T15:47:25.001Z</time></trkpt><trkpt lat="44.50996728446031" lon="10.124188638753976"><ele>534.25</ele><time>2026-04-04T15:47:26.001Z</time></trkpt><trkpt lat="44.51009083098561" lon="10.124258640031648"><ele>531.5</ele><time>2026-04-04T15:47:27.001Z</time></trkpt><trkpt lat="44.510209121188396" lon="10.124307877185462"><ele>528.75</ele><time>2026-04-04T15:47:28.001Z</time></trkpt><trkpt lat="44.5103235275475" lon="10.12431303288687"><ele>526.0</ele><time>2026-04-04T15:47:29.001Z</time></trkpt><trkpt lat="44.51045105496809" lon="10.12426845719675"><ele>523.3333333333334</ele><time>2026-04-04T15:47:30.001Z</time></trkpt><trkpt lat="44.51059153413316" lon="10.1242033807708"><ele>520.6666666666666</ele><time>2026-04-04T15:47:31.001Z</time></trkpt><trkpt lat="44.510742043063836" lon="10.124142600561482"><ele>518.0</ele><time>2026-04-04T15:47:32.001Z</time></trkpt><trkpt lat="44.51089691007492" lon="10.12409797268504"><ele>518.0</ele><time>2026-04-04T15:47:33.001Z</time></trkpt><trkpt lat="44.511039281078894" lon="10.124066361338686"><ele>518.0</ele><time>2026-04-04T15:47:34.001Z</time></trkpt><trkpt lat="44.51116918707703" lon="10.12405772594097"><ele>518.0</ele><time>2026-04-04T15:47:35.001Z</time></trkpt><trkpt lat="44.51129285882105" lon="10.124082581059982"><ele>518.0</ele><time>2026-04-04T15:47:36.001Z</time></trkpt><trkpt lat="44.511418553767015" lon="10.124143511858612"><ele>518.75</ele><time>2026-04-04T15:47:37.001Z</time></trkpt><trkpt lat="44.5115446210973" lon="10.124238732564674"><ele>519.5</ele><time>2026-04-04T15:47:38.001Z</time></trkpt><trkpt lat="44.51165378495568" lon="10.124368000238599"><ele>520.25</ele><time>2026-04-04T15:47:39.001Z</time></trkpt><trkpt lat="44.51174648059532" lon="10.124503800107327"><ele>521.0</ele><time>2026-04-04T15:47:40.001Z</time></trkpt><trkpt lat="44.51184862994101" lon="10.124626355566283"><ele>521.0</ele><time>2026-04-04T15:47:41.001Z</time></trkpt><trkpt lat="44.511977421014755" lon="10.124708291753578"><ele>521.0</ele><time>2026-04-04T15:47:42.001Z</time></trkpt><trkpt lat="44.512119465680904" lon="10.124746239267605"><ele>521.0</ele><time>2026-04-04T15:47:43.001Z</time></trkpt><trkpt lat="44.51226478076444" lon="10.124741423906764"><ele>521.0</ele><time>2026-04-04T15:47:44.001Z</time></trkpt><trkpt lat="44.51240118658669" lon="10.124714138114516"><ele>520.75</ele><time>2026-04-04T15:47:45.001Z</time></trkpt><trkpt lat="44.512530874780246" lon="10.12468615021386"><ele>520.5</ele><time>2026-04-04T15:47:46.001Z</time></trkpt><trkpt lat="44.512653394015366" lon="10.124683636209596"><ele>520.25</ele><time>2026-04-04T15:47:47.001Z</time></trkpt><trkpt lat="44.51278042205859" lon="10.124720470179382"><ele>520.0</ele><time>2026-04-04T15:47:48.001Z</time></trkpt><trkpt lat="44.51291455995261" lon="10.124782136532662"><ele>520.0</ele><time>2026-04-04T15:47:49.001Z</time></trkpt><trkpt lat="44.51303689417997" lon="10.124852728237386"><ele>520.0</ele><time>2026-04-04T15:47:50.001Z</time></trkpt><trkpt lat="44.5131446460193" lon="10.12490825280254"><ele>520.0</ele><time>2026-04-04T15:47:51.001Z</time></trkpt><trkpt lat="44.51324558243816" lon="10.12496084719751"><ele>520.0</ele><time>2026-04-04T15:47:52.001Z</time></trkpt><trkpt lat="44.51333898093029" lon="10.125008742659"><ele>518.6</ele><time>2026-04-04T15:47:53.001Z</time></trkpt><trkpt lat="44.5134368123231" lon="10.125061292025222"><ele>517.2</ele><time>2026-04-04T15:47:54.001Z</time></trkpt><trkpt lat="44.513526916523375" lon="10.12511180278642"><ele>515.8</ele><time>2026-04-04T15:47:55.001Z</time></trkpt><trkpt lat="44.513611902917546" lon="10.12515655977863"><ele>514.4</ele><time>2026-04-04T15:47:56.001Z</time></trkpt><trkpt lat="44.51369407620091" lon="10.125202240833966"><ele>513.0</ele><time>2026-04-04T15:47:57.001Z</time></trkpt><trkpt lat="44.513775284744305" lon="10.12524544129414"><ele>513.0</ele><time>2026-04-04T15:47:58.001Z</time></trkpt><trkpt lat="44.513861326673634" lon="10.125292834985284"><ele>513.0</ele><time>2026-04-04T15:47:59.001Z</time></trkpt><trkpt lat="44.51396928080135" lon="10.125349088881276"><ele>513.0</ele><time>2026-04-04T15:48:00.001Z</time></trkpt><trkpt lat="44.51408597054147" lon="10.12540297227025"><ele>513.0</ele><time>2026-04-04T15:48:01.001Z</time></trkpt><trkpt lat="44.514212363862754" lon="10.125470615333278"><ele>513.0</ele><time>2026-04-04T15:48:02.001Z</time></trkpt><trkpt lat="44.514348199327756" lon="10.12554073859682"><ele>513.0</ele><time>2026-04-04T15:48:03.001Z</time></trkpt><trkpt lat="44.514495871781875" lon="10.125611863196108"><ele>513.0</ele><time>2026-04-04T15:48:04.001Z</time></trkpt><trkpt lat="44.51465677888083" lon="10.125681131677085"><ele>509.0</ele><time>2026-04-04T15:48:05.001Z</time></trkpt><trkpt lat="44.51480825113649" lon="10.12575056810694"><ele>505.0</ele><time>2026-04-04T15:48:06.001Z</time></trkpt><trkpt lat="44.5149607586195" lon="10.125827830013316"><ele>501.0</ele><time>2026-04-04T15:48:07.001Z</time></trkpt><trkpt lat="44.515111602451036" lon="10.12592411986187"><ele>501.0</ele><time>2026-04-04T15:48:08.001Z</time></trkpt><trkpt lat="44.51526013281442" lon="10.126033475623563"><ele>501.0</ele><time>2026-04-04T15:48:09.001Z</time></trkpt><trkpt lat="44.51540934538293" lon="10.126142764389284"><ele>501.0</ele><time>2026-04-04T15:48:10.001Z</time></trkpt><trkpt lat="44.51556410844922" lon="10.126239303213273"><ele>503.25</ele><time>2026-04-04T15:48:11.001Z</time></trkpt><trkpt lat="44.515710926351495" lon="10.126317496739528"><ele>505.5</ele><time>2026-04-04T15:48:12.001Z</time></trkpt><trkpt lat="44.51584734270605" lon="10.1263991932493"><ele>507.75</ele><time>2026-04-04T15:48:13.001Z</time></trkpt><trkpt lat="44.5159746653512" lon="10.126471921767799"><ele>510.0</ele><time>2026-04-04T15:48:14.001Z</time></trkpt><trkpt lat="44.51608953509022" lon="10.126535850889269"><ele>507.0</ele><time>2026-04-04T15:48:15.001Z</time></trkpt><trkpt lat="44.51619556027403" lon="10.126598125143028"><ele>504.0</ele><time>2026-04-04T15:48:16.001Z</time></trkpt><trkpt lat="44.51629236362528" lon="10.126666166874404"><ele>501.0</ele><time>2026-04-04T15:48:17.001Z</time></trkpt><trkpt lat="44.516387074464994" lon="10.126725820628218"><ele>498.0</ele><time>2026-04-04T15:48:18.001Z</time></trkpt><trkpt lat="44.51647744453624" lon="10.126777847100099"><ele>495.0</ele><time>2026-04-04T15:48:19.001Z</time></trkpt><trkpt lat="44.51656040684226" lon="10.126823577071239"><ele>495.0</ele><time>2026-04-04T15:48:20.001Z</time></trkpt><trkpt lat="44.51664659097964" lon="10.126843822848977"><ele>495.0</ele><time>2026-04-04T15:48:21.001Z</time></trkpt><trkpt lat="44.51673912116702" lon="10.126839278927372"><ele>495.0</ele><time>2026-04-04T15:48:22.001Z</time></trkpt><trkpt lat="44.51682619267285" lon="10.126800499413683"><ele>495.0</ele><time>2026-04-04T15:48:23.001Z</time></trkpt><trkpt lat="44.51690091854435" lon="10.126737980575184"><ele>495.0</ele><time>2026-04-04T15:48:24.001Z</time></trkpt><trkpt lat="44.51696082087855" lon="10.126653087176006"><ele>495.0</ele><time>2026-04-04T15:48:25.001Z</time></trkpt><trkpt lat="44.51701846742164" lon="10.126550911096976"><ele>494.3333333333333</ele><time>2026-04-04T15:48:26.001Z</time></trkpt><trkpt lat="44.51707102303028" lon="10.12645655067078"><ele>493.66666666666663</ele><time>2026-04-04T15:48:27.001Z</time></trkpt><trkpt lat="44.517125186730105" lon="10.126362308165467"><ele>493.0</ele><time>2026-04-04T15:48:28.001Z</time></trkpt><trkpt lat="44.51718915190852" lon="10.126286379136822"><ele>492.3333333333333</ele><time>2026-04-04T15:48:29.001Z</time></trkpt><trkpt lat="44.51725805141045" lon="10.126243694565261"><ele>491.66666666666663</ele><time>2026-04-04T15:48:30.001Z</time></trkpt><trkpt lat="44.51733944667936" lon="10.126227065057604"><ele>491.0</ele><time>2026-04-04T15:48:31.001Z</time></trkpt><trkpt lat="44.51743228248375" lon="10.126241331555464"><ele>491.0</ele><time>2026-04-04T15:48:32.001Z</time></trkpt><trkpt lat="44.517552031980934" lon="10.126273508370266"><ele>491.0</ele><time>2026-04-04T15:48:33.001Z</time></trkpt><trkpt lat="44.517689846172246" lon="10.126340917298547"><ele>491.0</ele><time>2026-04-04T15:48:34.001Z</time></trkpt><trkpt lat="44.51783133722833" lon="10.12643820760881"><ele>491.0</ele><time>2026-04-04T15:48:35.001Z</time></trkpt><trkpt lat="44.517958093742955" lon="10.12653248664696"><ele>490.0</ele><time>2026-04-04T15:48:36.001Z</time></trkpt><trkpt lat="44.51807890804722" lon="10.126606875230134"><ele>489.0</ele><time>2026-04-04T15:48:37.001Z</time></trkpt><trkpt lat="44.51819212492659" lon="10.126679028729535"><ele>488.0</ele><time>2026-04-04T15:48:38.001Z</time></trkpt><trkpt lat="44.51828876514624" lon="10.126759748203842"><ele>487.0</ele><time>2026-04-04T15:48:39.001Z</time></trkpt><trkpt lat="44.518369446545925" lon="10.12686598497026"><ele>487.0</ele><time>2026-04-04T15:48:40.001Z</time></trkpt><trkpt lat="44.51843272103102" lon="10.127007904142864"><ele>487.0</ele><time>2026-04-04T15:48:41.001Z</time></trkpt><trkpt lat="44.51846482890866" lon="10.127172958800672"><ele>487.0</ele><time>2026-04-04T15:48:42.001Z</time></trkpt><trkpt lat="44.5184648790934" lon="10.127339163476993"><ele>487.0</ele><time>2026-04-04T15:48:43.001Z</time></trkpt><trkpt lat="44.51844500831518" lon="10.12749056046002"><ele>487.0</ele><time>2026-04-04T15:48:44.001Z</time></trkpt><trkpt lat="44.518420612110596" lon="10.127624573730634"><ele>487.0</ele><time>2026-04-04T15:48:45.001Z</time></trkpt><trkpt lat="44.51839550166426" lon="10.127767122234747"><ele>487.0</ele><time>2026-04-04T15:48:46.001Z</time></trkpt><trkpt lat="44.51837863644467" lon="10.127927067826512"><ele>487.0</ele><time>2026-04-04T15:48:47.001Z</time></trkpt><trkpt lat="44.5183879577966" lon="10.128122945444492"><ele>487.6666666666667</ele><time>2026-04-04T15:48:48.001Z</time></trkpt><trkpt lat="44.518416125031166" lon="10.12835107071928"><ele>488.33333333333337</ele><time>2026-04-04T15:48:49.001Z</time></trkpt><trkpt lat="44.51844301165253" lon="10.128597432323293"><ele>489.0</ele><time>2026-04-04T15:48:50.001Z</time></trkpt><trkpt lat="44.51846774317794" lon="10.128864206803721"><ele>489.0</ele><time>2026-04-04T15:48:51.001Z</time></trkpt><trkpt lat="44.51849291570186" lon="10.129122004293304"><ele>489.0</ele><time>2026-04-04T15:48:52.001Z</time></trkpt><trkpt lat="44.51850872484468" lon="10.129357833549372"><ele>489.0</ele><time>2026-04-04T15:48:53.001Z</time></trkpt><trkpt lat="44.51850445735645" lon="10.129578440626666"><ele>489.0</ele><time>2026-04-04T15:48:54.001Z</time></trkpt><trkpt lat="44.51848640816842" lon="10.129783928980379"><ele>489.0</ele><time>2026-04-04T15:48:55.001Z</time></trkpt><trkpt lat="44.51846365951963" lon="10.129973075113648"><ele>489.0</ele><time>2026-04-04T15:48:56.001Z</time></trkpt><trkpt lat="44.518457990295914" lon="10.130150392119367"><ele>489.0</ele><time>2026-04-04T15:48:57.001Z</time></trkpt><trkpt lat="44.51848672697509" lon="10.130326802746376"><ele>488.75</ele><time>2026-04-04T15:48:58.001Z</time></trkpt><trkpt lat="44.51854952162547" lon="10.130506531077362"><ele>488.5</ele><time>2026-04-04T15:48:59.001Z</time></trkpt><trkpt lat="44.51863461748113" lon="10.130664287131825"><ele>488.25</ele><time>2026-04-04T15:49:00.001Z</time></trkpt><trkpt lat="44.518740909771815" lon="10.130787387384913"><ele>488.0</ele><time>2026-04-04T15:49:01.001Z</time></trkpt><trkpt lat="44.518864689665065" lon="10.13086266216064"><ele>489.66666666666663</ele><time>2026-04-04T15:49:02.001Z</time></trkpt><trkpt lat="44.51900403544498" lon="10.130922964299636"><ele>491.33333333333337</ele><time>2026-04-04T15:49:03.001Z</time></trkpt><trkpt lat="44.51915140915342" lon="10.130986013331967"><ele>493.0</ele><time>2026-04-04T15:49:04.001Z</time></trkpt><trkpt lat="44.519306443670345" lon="10.13105911747317"><ele>493.0</ele><time>2026-04-04T15:49:05.001Z</time></trkpt><trkpt lat="44.51945570916682" lon="10.131139276635071"><ele>493.0</ele><time>2026-04-04T15:49:06.001Z</time></trkpt><trkpt lat="44.51959979367153" lon="10.131207139749987"><ele>493.0</ele><time>2026-04-04T15:49:07.001Z</time></trkpt><trkpt lat="44.51975391461179" lon="10.131240073121479"><ele>494.75</ele><time>2026-04-04T15:49:08.001Z</time></trkpt><trkpt lat="44.519904575521295" lon="10.131213998315287"><ele>496.5</ele><time>2026-04-04T15:49:09.001Z</time></trkpt><trkpt lat="44.52005243865214" lon="10.131178054070089"><ele>498.25</ele><time>2026-04-04T15:49:10.001Z</time></trkpt><trkpt lat="44.520190941026314" lon="10.131150237836648"><ele>500.0</ele><time>2026-04-04T15:49:11.001Z</time></trkpt><trkpt lat="44.52033600943633" lon="10.131155728662248"><ele>499.0</ele><time>2026-04-04T15:49:12.001Z</time></trkpt><trkpt lat="44.52048501478308" lon="10.131205249690494"><ele>498.0</ele><time>2026-04-04T15:49:13.001Z</time></trkpt><trkpt lat="44.52063067957637" lon="10.131287478214531"><ele>497.0</ele><time>2026-04-04T15:49:14.001Z</time></trkpt><trkpt lat="44.52076830667648" lon="10.131399238131324"><ele>497.0</ele><time>2026-04-04T15:49:15.001Z</time></trkpt><trkpt lat="44.52089287960861" lon="10.131532268160559"><ele>497.0</ele><time>2026-04-04T15:49:16.001Z</time></trkpt><trkpt lat="44.521004611103216" lon="10.131662843455983"><ele>497.0</ele><time>2026-04-04T15:49:17.001Z</time></trkpt><trkpt lat="44.521102992715704" lon="10.131784942332958"><ele>497.0</ele><time>2026-04-04T15:49:18.001Z</time></trkpt><trkpt lat="44.521186111684386" lon="10.131925087093354"><ele>497.25</ele><time>2026-04-04T15:49:19.001Z</time></trkpt><trkpt lat="44.52123845932021" lon="10.132090991432547"><ele>497.5</ele><time>2026-04-04T15:49:20.001Z</time></trkpt><trkpt lat="44.52126768550971" lon="10.132281754865733"><ele>497.75</ele><time>2026-04-04T15:49:21.001Z</time></trkpt><trkpt lat="44.52127804557088" lon="10.132485035739276"><ele>498.0</ele><time>2026-04-04T15:49:22.001Z</time></trkpt><trkpt lat="44.521280400480734" lon="10.13267656163998"><ele>498.0</ele><time>2026-04-04T15:49:23.001Z</time></trkpt><trkpt lat="44.52129819955609" lon="10.132856240416785"><ele>498.0</ele><time>2026-04-04T15:49:24.001Z</time></trkpt><trkpt lat="44.521350109456264" lon="10.133033096309697"><ele>498.0</ele><time>2026-04-04T15:49:25.001Z</time></trkpt><trkpt lat="44.52143375331236" lon="10.133209473382289"><ele>498.0</ele><time>2026-04-04T15:49:26.001Z</time></trkpt><trkpt lat="44.521536537093866" lon="10.133373180518634"><ele>497.0</ele><time>2026-04-04T15:49:27.001Z</time></trkpt><trkpt lat="44.521662546527836" lon="10.133514003502162"><ele>496.0</ele><time>2026-04-04T15:49:28.001Z</time></trkpt><trkpt lat="44.521812618862754" lon="10.133637062897218"><ele>495.0</ele><time>2026-04-04T15:49:29.001Z</time></trkpt><trkpt lat="44.521969270658936" lon="10.133766475092928"><ele>495.33333333333337</ele><time>2026-04-04T15:49:30.001Z</time></trkpt><trkpt lat="44.52212781018995" lon="10.13391266175046"><ele>495.6666666666667</ele><time>2026-04-04T15:49:31.001Z</time></trkpt><trkpt lat="44.522283314883246" lon="10.134060878291297"><ele>496.0</ele><time>2026-04-04T15:49:32.001Z</time></trkpt><trkpt lat="44.522423928291694" lon="10.13419502566101"><ele>493.75</ele><time>2026-04-04T15:49:33.001Z</time></trkpt><trkpt lat="44.5225476147283" lon="10.134317756144299"><ele>491.5</ele><time>2026-04-04T15:49:34.001Z</time></trkpt><trkpt lat="44.52263884203564" lon="10.13443837306659"><ele>489.25</ele><time>2026-04-04T15:49:35.001Z</time></trkpt><trkpt lat="44.5227021610253" lon="10.134577146587018"><ele>487.0</ele><time>2026-04-04T15:49:36.001Z</time></trkpt><trkpt lat="44.52275051746264" lon="10.134756455230951"><ele>485.33333333333337</ele><time>2026-04-04T15:49:37.001Z</time></trkpt><trkpt lat="44.522808855041305" lon="10.134950997437132"><ele>483.66666666666663</ele><time>2026-04-04T15:49:38.001Z</time></trkpt><trkpt lat="44.522892051981735" lon="10.135134491798185"><ele>482.0</ele><time>2026-04-04T15:49:39.001Z</time></trkpt><trkpt lat="44.523002343508026" lon="10.135307190029543"><ele>483.0</ele><time>2026-04-04T15:49:40.001Z</time></trkpt><trkpt lat="44.52312862173737" lon="10.135455672370005"><ele>484.0</ele><time>2026-04-04T15:49:41.001Z</time></trkpt><trkpt lat="44.52326961688619" lon="10.13559476452093"><ele>485.0</ele><time>2026-04-04T15:49:42.001Z</time></trkpt><trkpt lat="44.52342329778355" lon="10.135721156763195"><ele>485.0</ele><time>2026-04-04T15:49:43.001Z</time></trkpt><trkpt lat="44.52356768856289" lon="10.135829686838521"><ele>485.0</ele><time>2026-04-04T15:49:44.001Z</time></trkpt><trkpt lat="44.523723072511835" lon="10.135904847728337"><ele>485.0</ele><time>2026-04-04T15:49:45.001Z</time></trkpt><trkpt lat="44.52387611801653" lon="10.135949104429189"><ele>495.0</ele><time>2026-04-04T15:49:46.001Z</time></trkpt><trkpt lat="44.5240215027806" lon="10.13600333285612"><ele>505.0</ele><time>2026-04-04T15:49:47.001Z</time></trkpt><trkpt lat="44.52415892330391" lon="10.13610387232547"><ele>515.0</ele><time>2026-04-04T15:49:48.001Z</time></trkpt><trkpt lat="44.52429346114597" lon="10.136258888972018"><ele>515.0</ele><time>2026-04-04T15:49:49.001Z</time></trkpt><trkpt lat="44.52440988548913" lon="10.136453245230054"><ele>515.0</ele><time>2026-04-04T15:49:50.001Z</time></trkpt><trkpt lat="44.52449665678945" lon="10.136653387100242"><ele>515.0</ele><time>2026-04-04T15:49:51.001Z</time></trkpt><trkpt lat="44.52457509043652" lon="10.136838766809118"><ele>514.6666666666666</ele><time>2026-04-04T15:49:52.001Z</time></trkpt><trkpt lat="44.52468639118663" lon="10.136995425468916"><ele>514.3333333333334</ele><time>2026-04-04T15:49:53.001Z</time></trkpt><trkpt lat="44.52483065629882" lon="10.13711472404545"><ele>514.0</ele><time>2026-04-04T15:49:54.001Z</time></trkpt><trkpt lat="44.52498234614455" lon="10.137219015832624"><ele>514.0</ele><time>2026-04-04T15:49:55.001Z</time></trkpt><trkpt lat="44.525120225581986" lon="10.137312871889845"><ele>514.0</ele><time>2026-04-04T15:49:56.001Z</time></trkpt><trkpt lat="44.52525457201116" lon="10.137383648699267"><ele>514.0</ele><time>2026-04-04T15:49:57.001Z</time></trkpt><trkpt lat="44.52539523591617" lon="10.137416563149928"><ele>514.0</ele><time>2026-04-04T15:49:58.001Z</time></trkpt><trkpt lat="44.52554947099983" lon="10.13740938997516"><ele>506.0</ele><time>2026-04-04T15:49:59.001Z</time></trkpt><trkpt lat="44.52571488054632" lon="10.137388637369854"><ele>498.0</ele><time>2026-04-04T15:50:00.001Z</time></trkpt><trkpt lat="44.52588148007265" lon="10.137392582075153"><ele>490.0</ele><time>2026-04-04T15:50:01.001Z</time></trkpt><trkpt lat="44.52602262601308" lon="10.137435513558149"><ele>490.0</ele><time>2026-04-04T15:50:02.001Z</time></trkpt><trkpt lat="44.52614702279251" lon="10.137517184891811"><ele>490.0</ele><time>2026-04-04T15:50:03.001Z</time></trkpt><trkpt lat="44.526262069662174" lon="10.137641224378964"><ele>490.0</ele><time>2026-04-04T15:50:04.001Z</time></trkpt><trkpt lat="44.52636059033986" lon="10.137814995703394"><ele>490.0</ele><time>2026-04-04T15:50:05.001Z</time></trkpt><trkpt lat="44.52645385529441" lon="10.137998343249214"><ele>489.5</ele><time>2026-04-04T15:50:06.001Z</time></trkpt><trkpt lat="44.52654952425231" lon="10.138158769140484"><ele>489.0</ele><time>2026-04-04T15:50:07.001Z</time></trkpt><trkpt lat="44.52666001226728" lon="10.138263479920584"><ele>488.5</ele><time>2026-04-04T15:50:08.001Z</time></trkpt><trkpt lat="44.52679919979438" lon="10.138327178013428"><ele>488.0</ele><time>2026-04-04T15:50:09.001Z</time></trkpt><trkpt lat="44.52695137197533" lon="10.138350847260645"><ele>491.0</ele><time>2026-04-04T15:50:10.001Z</time></trkpt><trkpt lat="44.52710922554509" lon="10.138374148230621"><ele>494.0</ele><time>2026-04-04T15:50:11.001Z</time></trkpt><trkpt lat="44.52725480138806" lon="10.138456245162073"><ele>497.0</ele><time>2026-04-04T15:50:12.001Z</time></trkpt><trkpt lat="44.527388977847664" lon="10.138601259286496"><ele>497.0</ele><time>2026-04-04T15:50:13.001Z</time></trkpt><trkpt lat="44.527511299895664" lon="10.138789918285523"><ele>497.0</ele><time>2026-04-04T15:50:14.001Z</time></trkpt><trkpt lat="44.5276305487772" lon="10.138991691255676"><ele>497.0</ele><time>2026-04-04T15:50:15.001Z</time></trkpt><trkpt lat="44.527757141032566" lon="10.139193865512732"><ele>494.0</ele><time>2026-04-04T15:50:16.001Z</time></trkpt><trkpt lat="44.52788895102232" lon="10.139395442763503"><ele>491.0</ele><time>2026-04-04T15:50:17.001Z</time></trkpt><trkpt lat="44.528013273127016" lon="10.13956335293998"><ele>488.0</ele><time>2026-04-04T15:50:18.001Z</time></trkpt><trkpt lat="44.52815303587095" lon="10.139711178538434"><ele>489.0</ele><time>2026-04-04T15:50:19.001Z</time></trkpt><trkpt lat="44.52831275717921" lon="10.139827369039988"><ele>490.0</ele><time>2026-04-04T15:50:20.001Z</time></trkpt><trkpt lat="44.528489980819636" lon="10.139924340999526"><ele>491.0</ele><time>2026-04-04T15:50:21.001Z</time></trkpt><trkpt lat="44.52865872382273" lon="10.140030082404337"><ele>495.3333333333333</ele><time>2026-04-04T15:50:22.001Z</time></trkpt><trkpt lat="44.528818370989995" lon="10.140175667408936"><ele>499.66666666666663</ele><time>2026-04-04T15:50:23.001Z</time></trkpt><trkpt lat="44.528967178517334" lon="10.140342872466025"><ele>504.0</ele><time>2026-04-04T15:50:24.001Z</time></trkpt><trkpt lat="44.52910980638497" lon="10.140527556882265"><ele>504.0</ele><time>2026-04-04T15:50:25.001Z</time></trkpt><trkpt lat="44.529239148602755" lon="10.140704024182213"><ele>504.0</ele><time>2026-04-04T15:50:26.001Z</time></trkpt><trkpt lat="44.52935841124546" lon="10.14085585642432"><ele>504.0</ele><time>2026-04-04T15:50:27.001Z</time></trkpt><trkpt lat="44.52947340957746" lon="10.141007502215874"><ele>504.0</ele><time>2026-04-04T15:50:28.001Z</time></trkpt><trkpt lat="44.5295692515168" lon="10.141159109551081"><ele>504.0</ele><time>2026-04-04T15:50:29.001Z</time></trkpt><trkpt lat="44.52964347610251" lon="10.141299075636082"><ele>504.0</ele><time>2026-04-04T15:50:30.001Z</time></trkpt><trkpt lat="44.529693714446346" lon="10.141435620323994"><ele>504.0</ele><time>2026-04-04T15:50:31.001Z</time></trkpt><trkpt lat="44.529715858141806" lon="10.141597212222596"><ele>504.0</ele><time>2026-04-04T15:50:32.001Z</time></trkpt><trkpt lat="44.52970560101716" lon="10.141777214976228"><ele>504.0</ele><time>2026-04-04T15:50:33.001Z</time></trkpt><trkpt lat="44.52965252914247" lon="10.14194619542022"><ele>504.0</ele><time>2026-04-04T15:50:34.001Z</time></trkpt><trkpt lat="44.52956103809033" lon="10.142093747348083"><ele>504.0</ele><time>2026-04-04T15:50:35.001Z</time></trkpt><trkpt lat="44.529440656321604" lon="10.142205987643214"><ele>501.25</ele><time>2026-04-04T15:50:36.001Z</time></trkpt><trkpt lat="44.5293000346541" lon="10.142254759849564"><ele>498.5</ele><time>2026-04-04T15:50:37.001Z</time></trkpt><trkpt lat="44.52916486988593" lon="10.1423165480409"><ele>495.75</ele><time>2026-04-04T15:50:38.001Z</time></trkpt><trkpt lat="44.52904627929027" lon="10.142409906923955"><ele>493.0</ele><time>2026-04-04T15:50:39.001Z</time></trkpt><trkpt lat="44.52895148564547" lon="10.14254757685693"><ele>493.0</ele><time>2026-04-04T15:50:40.001Z</time></trkpt><trkpt lat="44.528877030999084" lon="10.142715558970634"><ele>493.0</ele><time>2026-04-04T15:50:41.001Z</time></trkpt><trkpt lat="44.52882245284985" lon="10.14290618330236"><ele>493.0</ele><time>2026-04-04T15:50:42.001Z</time></trkpt><trkpt lat="44.52880070434937" lon="10.143116722541414"><ele>493.0</ele><time>2026-04-04T15:50:43.001Z</time></trkpt><trkpt lat="44.528814668725694" lon="10.143334298057528"><ele>494.0</ele><time>2026-04-04T15:50:44.001Z</time></trkpt><trkpt lat="44.528863489239484" lon="10.143547430803489"><ele>495.0</ele><time>2026-04-04T15:50:45.001Z</time></trkpt><trkpt lat="44.52893102197654" lon="10.143771599891963"><ele>496.0</ele><time>2026-04-04T15:50:46.001Z</time></trkpt><trkpt lat="44.52900537772229" lon="10.143999836513608"><ele>496.0</ele><time>2026-04-04T15:50:47.001Z</time></trkpt><trkpt lat="44.52907071942303" lon="10.144241662919207"><ele>496.0</ele><time>2026-04-04T15:50:48.001Z</time></trkpt><trkpt lat="44.52914528785793" lon="10.144490438562883"><ele>496.0</ele><time>2026-04-04T15:50:49.001Z</time></trkpt><trkpt lat="44.529253269291374" lon="10.144725507099455"><ele>496.6666666666667</ele><time>2026-04-04T15:50:50.001Z</time></trkpt><trkpt lat="44.529394273284275" lon="10.144947256468605"><ele>497.33333333333337</ele><time>2026-04-04T15:50:51.001Z</time></trkpt><trkpt lat="44.52955761825902" lon="10.145167402967038"><ele>498.0</ele><time>2026-04-04T15:50:52.001Z</time></trkpt><trkpt lat="44.5297089890671" lon="10.14541527456211"><ele>498.0</ele><time>2026-04-04T15:50:53.001Z</time></trkpt><trkpt lat="44.529866071385634" lon="10.14563468733849"><ele>498.0</ele><time>2026-04-04T15:50:54.001Z</time></trkpt><trkpt lat="44.52999458795103" lon="10.145847027619572"><ele>498.0</ele><time>2026-04-04T15:50:55.001Z</time></trkpt><trkpt lat="44.53012229312523" lon="10.14605216735191"><ele>496.33333333333337</ele><time>2026-04-04T15:50:56.001Z</time></trkpt><trkpt lat="44.53025820645654" lon="10.146243851741607"><ele>494.6666666666667</ele><time>2026-04-04T15:50:57.001Z</time></trkpt><trkpt lat="44.530412350305994" lon="10.146404464627635"><ele>493.0</ele><time>2026-04-04T15:50:58.001Z</time></trkpt><trkpt lat="44.53058232279569" lon="10.146535653473904"><ele>491.6666666666667</ele><time>2026-04-04T15:50:59.001Z</time></trkpt><trkpt lat="44.530748649626815" lon="10.146639983824025"><ele>490.33333333333337</ele><time>2026-04-04T15:51:00.001Z</time></trkpt><trkpt lat="44.530910966195364" lon="10.146724276572536"><ele>489.0</ele><time>2026-04-04T15:51:01.001Z</time></trkpt><trkpt lat="44.53106050539682" lon="10.146810669380217"><ele>489.0</ele><time>2026-04-04T15:51:02.001Z</time></trkpt><trkpt lat="44.53119762277808" lon="10.14690271711185"><ele>489.0</ele><time>2026-04-04T15:51:03.001Z</time></trkpt><trkpt lat="44.5313298675624" lon="10.147004633855875"><ele>489.0</ele><time>2026-04-04T15:51:04.001Z</time></trkpt><trkpt lat="44.531454351798715" lon="10.14713239009803"><ele>488.66666666666663</ele><time>2026-04-04T15:51:05.001Z</time></trkpt><trkpt lat="44.53154898304497" lon="10.147312553962292"><ele>488.3333333333333</ele><time>2026-04-04T15:51:06.001Z</time></trkpt><trkpt lat="44.53165310367623" lon="10.147482515265986"><ele>488.0</ele><time>2026-04-04T15:51:07.001Z</time></trkpt><trkpt lat="44.531723677406724" lon="10.147669819855077"><ele>487.75</ele><time>2026-04-04T15:51:08.001Z</time></trkpt><trkpt lat="44.53180087973693" lon="10.147837348929396"><ele>487.5</ele><time>2026-04-04T15:51:09.001Z</time></trkpt><trkpt lat="44.53189720047199" lon="10.147968935364418"><ele>487.25</ele><time>2026-04-04T15:51:10.001Z</time></trkpt><trkpt lat="44.53201056311395" lon="10.148072810852675"><ele>487.0</ele><time>2026-04-04T15:51:11.001Z</time></trkpt><trkpt lat="44.532129788253236" lon="10.148148080410394"><ele>487.0</ele><time>2026-04-04T15:51:12.001Z</time></trkpt><trkpt lat="44.53224617703663" lon="10.148203903508785"><ele>487.0</ele><time>2026-04-04T15:51:13.001Z</time></trkpt><trkpt lat="44.53235896766859" lon="10.148262178301371"><ele>487.0</ele><time>2026-04-04T15:51:14.001Z</time></trkpt><trkpt lat="44.532467236717494" lon="10.148343091973594"><ele>487.0</ele><time>2026-04-04T15:51:15.001Z</time></trkpt><trkpt lat="44.532571926965424" lon="10.148460391058938"><ele>483.0</ele><time>2026-04-04T15:51:16.001Z</time></trkpt><trkpt lat="44.53265237812498" lon="10.148630750902328"><ele>479.0</ele><time>2026-04-04T15:51:17.001Z</time></trkpt><trkpt lat="44.53271924038313" lon="10.14881567148387"><ele>475.0</ele><time>2026-04-04T15:51:18.001Z</time></trkpt><trkpt lat="44.53278837375741" lon="10.149016463453995"><ele>473.33333333333337</ele><time>2026-04-04T15:51:19.001Z</time></trkpt><trkpt lat="44.532871337046416" lon="10.149212749778481"><ele>471.66666666666663</ele><time>2026-04-04T15:51:20.001Z</time></trkpt><trkpt lat="44.53293827324991" lon="10.149435538288627"><ele>470.0</ele><time>2026-04-04T15:51:21.001Z</time></trkpt><trkpt lat="44.53301530721858" lon="10.149665822778822"><ele>475.0</ele><time>2026-04-04T15:51:22.001Z</time></trkpt><trkpt lat="44.53309614263227" lon="10.14989556576514"><ele>480.0</ele><time>2026-04-04T15:51:23.001Z</time></trkpt><trkpt lat="44.533174623988046" lon="10.150126221217052"><ele>485.0</ele><time>2026-04-04T15:51:24.001Z</time></trkpt><trkpt lat="44.53325088838795" lon="10.150364998643722"><ele>485.0</ele><time>2026-04-04T15:51:25.001Z</time></trkpt><trkpt lat="44.53332896578808" lon="10.150596725304077"><ele>485.0</ele><time>2026-04-04T15:51:26.001Z</time></trkpt><trkpt lat="44.53341568184171" lon="10.15081419558654"><ele>485.0</ele><time>2026-04-04T15:51:27.001Z</time></trkpt><trkpt lat="44.53352479061046" lon="10.15101906670924"><ele>485.3333333333333</ele><time>2026-04-04T15:51:28.001Z</time></trkpt><trkpt lat="44.533656073219376" lon="10.151205892933618"><ele>485.66666666666663</ele><time>2026-04-04T15:51:29.001Z</time></trkpt><trkpt lat="44.53379611531981" lon="10.15139491919502"><ele>486.0</ele><time>2026-04-04T15:51:30.001Z</time></trkpt><trkpt lat="44.533929847222716" lon="10.151608532204312"><ele>486.0</ele><time>2026-04-04T15:51:31.001Z</time></trkpt><trkpt lat="44.53403191275991" lon="10.15185881280104"><ele>486.0</ele><time>2026-04-04T15:51:32.001Z</time></trkpt><trkpt lat="44.534154301398296" lon="10.152102014771284"><ele>486.0</ele><time>2026-04-04T15:51:33.001Z</time></trkpt><trkpt lat="44.53425272116448" lon="10.152349342332627"><ele>480.33333333333337</ele><time>2026-04-04T15:51:34.001Z</time></trkpt><trkpt lat="44.534339614145" lon="10.15257484828955"><ele>474.6666666666667</ele><time>2026-04-04T15:51:35.001Z</time></trkpt><trkpt lat="44.534389644952626" lon="10.152797436955856"><ele>469.0</ele><time>2026-04-04T15:51:36.001Z</time></trkpt><trkpt lat="44.534467197789226" lon="10.15298522404085"><ele>469.0</ele><time>2026-04-04T15:51:37.001Z</time></trkpt><trkpt lat="44.53454961724067" lon="10.15315129706762"><ele>469.0</ele><time>2026-04-04T15:51:38.001Z</time></trkpt><trkpt lat="44.534668444994864" lon="10.153298200203213"><ele>469.0</ele><time>2026-04-04T15:51:39.001Z</time></trkpt><trkpt lat="44.53480961361821" lon="10.153419711964505"><ele>470.6666666666667</ele><time>2026-04-04T15:51:40.001Z</time></trkpt><trkpt lat="44.534956896480416" lon="10.153533392455632"><ele>472.33333333333337</ele><time>2026-04-04T15:51:41.001Z</time></trkpt><trkpt lat="44.53509583613234" lon="10.153676672730423"><ele>474.0</ele><time>2026-04-04T15:51:42.001Z</time></trkpt><trkpt lat="44.5352040346672" lon="10.153874388398249"><ele>471.33333333333337</ele><time>2026-04-04T15:51:43.001Z</time></trkpt><trkpt lat="44.53532959663134" lon="10.154047554407688"><ele>468.6666666666667</ele><time>2026-04-04T15:51:44.001Z</time></trkpt><trkpt lat="44.53543699334022" lon="10.154235495990594"><ele>466.0</ele><time>2026-04-04T15:51:45.001Z</time></trkpt><trkpt lat="44.535541501027936" lon="10.154402095965926"><ele>466.0</ele><time>2026-04-04T15:51:46.001Z</time></trkpt><trkpt lat="44.53564131958812" lon="10.154557529581291"><ele>466.0</ele><time>2026-04-04T15:51:47.001Z</time></trkpt><trkpt lat="44.53573109909764" lon="10.154711397405528"><ele>466.0</ele><time>2026-04-04T15:51:48.001Z</time></trkpt><trkpt lat="44.53581008867088" lon="10.154876754375584"><ele>466.0</ele><time>2026-04-04T15:51:49.001Z</time></trkpt><trkpt lat="44.53586831898442" lon="10.155068218370072"><ele>465.6666666666667</ele><time>2026-04-04T15:51:50.001Z</time></trkpt><trkpt lat="44.535882373494054" lon="10.155292353282162"><ele>465.33333333333337</ele><time>2026-04-04T15:51:51.001Z</time></trkpt><trkpt lat="44.53588069517868" lon="10.155523494626815"><ele>465.0</ele><time>2026-04-04T15:51:52.001Z</time></trkpt><trkpt lat="44.53584174940901" lon="10.155760114601511"><ele>464.66666666666663</ele><time>2026-04-04T15:51:53.001Z</time></trkpt><trkpt lat="44.53581003929762" lon="10.155989041685897"><ele>464.3333333333333</ele><time>2026-04-04T15:51:54.001Z</time></trkpt><trkpt lat="44.535762985339886" lon="10.156180681355195"><ele>464.0</ele><time>2026-04-04T15:51:55.001Z</time></trkpt><trkpt lat="44.535737831072026" lon="10.156383596725608"><ele>464.3333333333333</ele><time>2026-04-04T15:51:56.001Z</time></trkpt><trkpt lat="44.535742671395575" lon="10.156605185360704"><ele>464.66666666666663</ele><time>2026-04-04T15:51:57.001Z</time></trkpt><trkpt lat="44.53577885721297" lon="10.156839813644753"><ele>465.0</ele><time>2026-04-04T15:51:58.001Z</time></trkpt><trkpt lat="44.53584037105468" lon="10.15706827358571"><ele>465.0</ele><time>2026-04-04T15:51:59.001Z</time></trkpt><trkpt lat="44.53591893531247" lon="10.15729983598386"><ele>465.0</ele><time>2026-04-04T15:52:00.001Z</time></trkpt><trkpt lat="44.53598829911281" lon="10.157527819659206"><ele>465.0</ele><time>2026-04-04T15:52:01.001Z</time></trkpt><trkpt lat="44.53600632402379" lon="10.157765499905958"><ele>463.33333333333337</ele><time>2026-04-04T15:52:02.001Z</time></trkpt><trkpt lat="44.53603012682595" lon="10.157998393737287"><ele>461.6666666666667</ele><time>2026-04-04T15:52:03.001Z</time></trkpt><trkpt lat="44.53603740532588" lon="10.158214463871984"><ele>460.0</ele><time>2026-04-04T15:52:04.001Z</time></trkpt><trkpt lat="44.53606805796406" lon="10.158430708699823"><ele>457.33333333333337</ele><time>2026-04-04T15:52:05.001Z</time></trkpt><trkpt lat="44.53612699502083" lon="10.158632884397267"><ele>454.66666666666663</ele><time>2026-04-04T15:52:06.001Z</time></trkpt><trkpt lat="44.5362223745872" lon="10.158823941238103"><ele>452.0</ele><time>2026-04-04T15:52:07.001Z</time></trkpt><trkpt lat="44.53634514552329" lon="10.158994796051914"><ele>457.0</ele><time>2026-04-04T15:52:08.001Z</time></trkpt><trkpt lat="44.53648124041902" lon="10.159160501144877"><ele>462.0</ele><time>2026-04-04T15:52:09.001Z</time></trkpt><trkpt lat="44.53662405670061" lon="10.159345541811382"><ele>467.0</ele><time>2026-04-04T15:52:10.001Z</time></trkpt><trkpt lat="44.536767902152924" lon="10.159542092302493"><ele>467.0</ele><time>2026-04-04T15:52:11.001Z</time></trkpt><trkpt lat="44.53691552662441" lon="10.159741591887432"><ele>467.0</ele><time>2026-04-04T15:52:12.001Z</time></trkpt><trkpt lat="44.53706635202917" lon="10.159947897856615"><ele>467.0</ele><time>2026-04-04T15:52:13.001Z</time></trkpt><trkpt lat="44.53721642844459" lon="10.160156292678439"><ele>466.3333333333333</ele><time>2026-04-04T15:52:14.001Z</time></trkpt><trkpt lat="44.537362355754404" lon="10.160354596506231"><ele>465.66666666666663</ele><time>2026-04-04T15:52:15.001Z</time></trkpt><trkpt lat="44.53750970178388" lon="10.16055544850846"><ele>465.0</ele><time>2026-04-04T15:52:16.001Z</time></trkpt><trkpt lat="44.53765726557673" lon="10.160758051399263"><ele>464.0</ele><time>2026-04-04T15:52:17.001Z</time></trkpt><trkpt lat="44.53780834913449" lon="10.160966848138772"><ele>463.0</ele><time>2026-04-04T15:52:18.001Z</time></trkpt><trkpt lat="44.5379523945217" lon="10.161161366845892"><ele>462.0</ele><time>2026-04-04T15:52:19.001Z</time></trkpt><trkpt lat="44.53809319122556" lon="10.161356011336958"><ele>463.0</ele><time>2026-04-04T15:52:20.001Z</time></trkpt><trkpt lat="44.53823160393025" lon="10.161547480459094"><ele>464.0</ele><time>2026-04-04T15:52:21.001Z</time></trkpt><trkpt lat="44.53836316813872" lon="10.16172191020279"><ele>465.0</ele><time>2026-04-04T15:52:22.001Z</time></trkpt><trkpt lat="44.53849880279986" lon="10.16188162337456"><ele>465.0</ele><time>2026-04-04T15:52:23.001Z</time></trkpt><trkpt lat="44.53862874022665" lon="10.162020723026835"><ele>465.0</ele><time>2026-04-04T15:52:24.001Z</time></trkpt><trkpt lat="44.53876043907036" lon="10.162165473185166"><ele>465.0</ele><time>2026-04-04T15:52:25.001Z</time></trkpt><trkpt lat="44.538891980325964" lon="10.162325359646092"><ele>465.66666666666663</ele><time>2026-04-04T15:52:26.001Z</time></trkpt><trkpt lat="44.5390088224102" lon="10.162494011344258"><ele>466.3333333333333</ele><time>2026-04-04T15:52:27.001Z</time></trkpt><trkpt lat="44.5391111487876" lon="10.162671698451268"><ele>467.0</ele><time>2026-04-04T15:52:28.001Z</time></trkpt><trkpt lat="44.53920651064909" lon="10.162839734951026"><ele>467.0</ele><time>2026-04-04T15:52:29.001Z</time></trkpt><trkpt lat="44.539316473246025" lon="10.162990413790322"><ele>467.0</ele><time>2026-04-04T15:52:30.001Z</time></trkpt><trkpt lat="44.53943602961381" lon="10.163127642046446"><ele>467.0</ele><time>2026-04-04T15:52:31.001Z</time></trkpt><trkpt lat="44.53955411304708" lon="10.163253288649516"><ele>467.3333333333333</ele><time>2026-04-04T15:52:32.001Z</time></trkpt><trkpt lat="44.539674642320726" lon="10.163385991694085"><ele>467.66666666666663</ele><time>2026-04-04T15:52:33.001Z</time></trkpt><trkpt lat="44.5397932665268" lon="10.163516273882061"><ele>468.0</ele><time>2026-04-04T15:52:34.001Z</time></trkpt><trkpt lat="44.53991777051214" lon="10.163655041834303"><ele>468.0</ele><time>2026-04-04T15:52:35.001Z</time></trkpt><trkpt lat="44.540031146238064" lon="10.163778110942635"><ele>468.0</ele><time>2026-04-04T15:52:36.001Z</time></trkpt><trkpt lat="44.54014041228213" lon="10.163910318599877"><ele>468.0</ele><time>2026-04-04T15:52:37.001Z</time></trkpt><trkpt lat="44.540237739898615" lon="10.164047059291988"><ele>468.0</ele><time>2026-04-04T15:52:38.001Z</time></trkpt><trkpt lat="44.540323391067886" lon="10.16418267986919"><ele>467.75</ele><time>2026-04-04T15:52:39.001Z</time></trkpt><trkpt lat="44.540398784978606" lon="10.16432362152833"><ele>467.5</ele><time>2026-04-04T15:52:40.001Z</time></trkpt><trkpt lat="44.540461760098744" lon="10.16448355459712"><ele>467.25</ele><time>2026-04-04T15:52:41.001Z</time></trkpt><trkpt lat="44.54051277508467" lon="10.164665770126526"><ele>467.0</ele><time>2026-04-04T15:52:42.001Z</time></trkpt><trkpt lat="44.54053045752937" lon="10.164871063237808"><ele>467.0</ele><time>2026-04-04T15:52:43.001Z</time></trkpt><trkpt lat="44.54055311105004" lon="10.165082815221103"><ele>467.0</ele><time>2026-04-04T15:52:44.001Z</time></trkpt><trkpt lat="44.54059087719931" lon="10.16529602869482"><ele>467.0</ele><time>2026-04-04T15:52:45.001Z</time></trkpt><trkpt lat="44.54059757435305" lon="10.16552276655882"><ele>466.75</ele><time>2026-04-04T15:52:46.001Z</time></trkpt><trkpt lat="44.540635578328036" lon="10.165729038277206"><ele>466.5</ele><time>2026-04-04T15:52:47.001Z</time></trkpt><trkpt lat="44.540653070646734" lon="10.165923086522518"><ele>466.25</ele><time>2026-04-04T15:52:48.001Z</time></trkpt><trkpt lat="44.540672640722306" lon="10.166108865702185"><ele>466.0</ele><time>2026-04-04T15:52:49.001Z</time></trkpt><trkpt lat="44.540689958583236" lon="10.166277775239196"><ele>466.0</ele><time>2026-04-04T15:52:50.001Z</time></trkpt><trkpt lat="44.54070896735737" lon="10.166449184562156"><ele>466.0</ele><time>2026-04-04T15:52:51.001Z</time></trkpt><trkpt lat="44.540728300342344" lon="10.1666283255204"><ele>466.0</ele><time>2026-04-04T15:52:52.001Z</time></trkpt><trkpt lat="44.5407467367472" lon="10.166815312213245"><ele>466.0</ele><time>2026-04-04T15:52:53.001Z</time></trkpt><trkpt lat="44.5407685225718" lon="10.167009473196543"><ele>465.6666666666667</ele><time>2026-04-04T15:52:54.001Z</time></trkpt><trkpt lat="44.54079389278177" lon="10.167222619955707"><ele>465.33333333333337</ele><time>2026-04-04T15:52:55.001Z</time></trkpt><trkpt lat="44.540819822404714" lon="10.16745206200142"><ele>465.0</ele><time>2026-04-04T15:52:56.001Z</time></trkpt><trkpt lat="44.540847426676734" lon="10.167688226154912"><ele>464.33333333333337</ele><time>2026-04-04T15:52:57.001Z</time></trkpt><trkpt lat="44.54087652196154" lon="10.167940700833558"><ele>463.6666666666667</ele><time>2026-04-04T15:52:58.001Z</time></trkpt><trkpt lat="44.540901484804934" lon="10.168184763317937"><ele>463.0</ele><time>2026-04-04T15:52:59.001Z</time></trkpt><trkpt lat="44.54092376157095" lon="10.1684172770722"><ele>463.25</ele><time>2026-04-04T15:53:00.001Z</time></trkpt><trkpt lat="44.540944379756" lon="10.168627867296149"><ele>463.5</ele><time>2026-04-04T15:53:01.001Z</time></trkpt><trkpt lat="44.54096598010499" lon="10.168828809301948"><ele>463.75</ele><time>2026-04-04T15:53:02.001Z</time></trkpt><trkpt lat="44.54098807736342" lon="10.169040941845362"><ele>464.0</ele><time>2026-04-04T15:53:03.001Z</time></trkpt><trkpt lat="44.541006362586366" lon="10.169240390005276"><ele>464.0</ele><time>2026-04-04T15:53:04.001Z</time></trkpt><trkpt lat="44.54102491707501" lon="10.169411938353056"><ele>464.0</ele><time>2026-04-04T15:53:05.001Z</time></trkpt><trkpt lat="44.54104395887575" lon="10.16955976397372"><ele>464.0</ele><time>2026-04-04T15:53:06.001Z</time></trkpt><trkpt lat="44.54107247064629" lon="10.16968789811856"><ele>464.0</ele><time>2026-04-04T15:53:07.001Z</time></trkpt><trkpt lat="44.541125598395915" lon="10.169786849320325"><ele>464.0</ele><time>2026-04-04T15:53:08.001Z</time></trkpt><trkpt lat="44.541196662136436" lon="10.169862303439794"><ele>463.25</ele><time>2026-04-04T15:53:09.001Z</time></trkpt><trkpt lat="44.541292037381325" lon="10.169903088066715"><ele>462.5</ele><time>2026-04-04T15:53:10.001Z</time></trkpt><trkpt lat="44.541408302129575" lon="10.169903554687128"><ele>461.75</ele><time>2026-04-04T15:53:11.001Z</time></trkpt><trkpt lat="44.54153012840939" lon="10.169888596599165"><ele>461.0</ele><time>2026-04-04T15:53:12.001Z</time></trkpt><trkpt lat="44.54167297215141" lon="10.16987513508969"><ele>461.0</ele><time>2026-04-04T15:53:13.001Z</time></trkpt><trkpt lat="44.54180667265292" lon="10.169866835540729"><ele>461.0</ele><time>2026-04-04T15:53:14.001Z</time></trkpt><trkpt lat="44.541945364836835" lon="10.169866834718668"><ele>461.0</ele><time>2026-04-04T15:53:15.001Z</time></trkpt><trkpt lat="44.542081245067685" lon="10.169870666371455"><ele>461.0</ele><time>2026-04-04T15:53:16.001Z</time></trkpt><trkpt lat="44.54222219034879" lon="10.169880319601106"><ele>460.25</ele><time>2026-04-04T15:53:17.001Z</time></trkpt><trkpt lat="44.542362655039746" lon="10.169903616033851"><ele>459.5</ele><time>2026-04-04T15:53:18.001Z</time></trkpt><trkpt lat="44.54250122636776" lon="10.169926936318948"><ele>458.75</ele><time>2026-04-04T15:53:19.001Z</time></trkpt><trkpt lat="44.54264231014323" lon="10.169953273321156"><ele>458.0</ele><time>2026-04-04T15:53:20.001Z</time></trkpt><trkpt lat="44.54278922814881" lon="10.169987449446205"><ele>458.25</ele><time>2026-04-04T15:53:21.001Z</time></trkpt><trkpt lat="44.542933946159195" lon="10.17002125214389"><ele>458.5</ele><time>2026-04-04T15:53:22.001Z</time></trkpt><trkpt lat="44.5430703916844" lon="10.170046643661506"><ele>458.75</ele><time>2026-04-04T15:53:23.001Z</time></trkpt><trkpt lat="44.543204300655795" lon="10.170069480608268"><ele>459.0</ele><time>2026-04-04T15:53:24.001Z</time></trkpt><trkpt lat="44.543340682619196" lon="10.170075187429124"><ele>459.0</ele><time>2026-04-04T15:53:25.001Z</time></trkpt><trkpt lat="44.54348459157153" lon="10.170076140797324"><ele>459.0</ele><time>2026-04-04T15:53:26.001Z</time></trkpt><trkpt lat="44.54363137596181" lon="10.170075923044243"><ele>459.0</ele><time>2026-04-04T15:53:27.001Z</time></trkpt><trkpt lat="44.543775424652665" lon="10.170081198067878"><ele>459.0</ele><time>2026-04-04T15:53:28.001Z</time></trkpt><trkpt lat="44.54389619619368" lon="10.170109318432287"><ele>459.0</ele><time>2026-04-04T15:53:29.001Z</time></trkpt><trkpt lat="44.54400848691763" lon="10.17017212817456"><ele>459.0</ele><time>2026-04-04T15:53:30.001Z</time></trkpt><trkpt lat="44.54412196392989" lon="10.170271489599818"><ele>459.0</ele><time>2026-04-04T15:53:31.001Z</time></trkpt><trkpt lat="44.54424142480271" lon="10.170390299562232"><ele>459.0</ele><time>2026-04-04T15:53:32.001Z</time></trkpt><trkpt lat="44.544369595325364" lon="10.17051031598091"><ele>459.0</ele><time>2026-04-04T15:53:33.001Z</time></trkpt><trkpt lat="44.54450322691065" lon="10.17063495723606"><ele>459.0</ele><time>2026-04-04T15:53:34.001Z</time></trkpt><trkpt lat="44.5446413599478" lon="10.170764444214248"><ele>459.0</ele><time>2026-04-04T15:53:35.001Z</time></trkpt><trkpt lat="44.54477504046382" lon="10.170889720430903"><ele>458.0</ele><time>2026-04-04T15:53:36.001Z</time></trkpt><trkpt lat="44.5449120221528" lon="10.17099709422529"><ele>457.0</ele><time>2026-04-04T15:53:37.001Z</time></trkpt><trkpt lat="44.545049409689085" lon="10.171073101503596"><ele>456.0</ele><time>2026-04-04T15:53:38.001Z</time></trkpt><trkpt lat="44.545198691330086" lon="10.171111549079125"><ele>456.0</ele><time>2026-04-04T15:53:39.001Z</time></trkpt><trkpt lat="44.54535643629231" lon="10.17111490245548"><ele>456.0</ele><time>2026-04-04T15:53:40.001Z</time></trkpt><trkpt lat="44.54552047519384" lon="10.171122320247779"><ele>456.0</ele><time>2026-04-04T15:53:41.001Z</time></trkpt><trkpt lat="44.54567036574527" lon="10.17114993141579"><ele>455.25</ele><time>2026-04-04T15:53:42.001Z</time></trkpt><trkpt lat="44.54581057460839" lon="10.171206534393985"><ele>454.5</ele><time>2026-04-04T15:53:43.001Z</time></trkpt><trkpt lat="44.54594580091848" lon="10.171299020751501"><ele>453.75</ele><time>2026-04-04T15:53:44.001Z</time></trkpt><trkpt lat="44.546065739061135" lon="10.171424350820525"><ele>453.0</ele><time>2026-04-04T15:53:45.001Z</time></trkpt><trkpt lat="44.54616412130818" lon="10.17158054223793"><ele>453.33333333333337</ele><time>2026-04-04T15:53:46.001Z</time></trkpt><trkpt lat="44.54624047121894" lon="10.17176981080344"><ele>453.6666666666667</ele><time>2026-04-04T15:53:47.001Z</time></trkpt><trkpt lat="44.54631681778852" lon="10.171987153832855"><ele>454.0</ele><time>2026-04-04T15:53:48.001Z</time></trkpt><trkpt lat="44.546394971336454" lon="10.172224943108306"><ele>452.0</ele><time>2026-04-04T15:53:49.001Z</time></trkpt><trkpt lat="44.54647345977803" lon="10.172461480251123"><ele>450.0</ele><time>2026-04-04T15:53:50.001Z</time></trkpt><trkpt lat="44.54655130311047" lon="10.172688377357098"><ele>448.0</ele><time>2026-04-04T15:53:51.001Z</time></trkpt><trkpt lat="44.546625756009725" lon="10.172909013313372"><ele>448.0</ele><time>2026-04-04T15:53:52.001Z</time></trkpt><trkpt lat="44.54670557858049" lon="10.173117368751925"><ele>448.0</ele><time>2026-04-04T15:53:53.001Z</time></trkpt><trkpt lat="44.5467988763503" lon="10.173311662163513"><ele>448.0</ele><time>2026-04-04T15:53:54.001Z</time></trkpt><trkpt lat="44.546903922726464" lon="10.173490154327865"><ele>447.0</ele><time>2026-04-04T15:53:55.001Z</time></trkpt><trkpt lat="44.5470184688322" lon="10.173647368296187"><ele>446.0</ele><time>2026-04-04T15:53:56.001Z</time></trkpt><trkpt lat="44.547136911315576" lon="10.173781508362431"><ele>445.0</ele><time>2026-04-04T15:53:57.001Z</time></trkpt><trkpt lat="44.54724314440865" lon="10.173921888150723"><ele>446.25</ele><time>2026-04-04T15:53:58.001Z</time></trkpt><trkpt lat="44.547328451849744" lon="10.174076929481538"><ele>447.5</ele><time>2026-04-04T15:53:59.001Z</time></trkpt><trkpt lat="44.54738949532218" lon="10.17424810622373"><ele>448.75</ele><time>2026-04-04T15:54:00.001Z</time></trkpt><trkpt lat="44.54741797145194" lon="10.174429923216914"><ele>450.0</ele><time>2026-04-04T15:54:01.001Z</time></trkpt><trkpt lat="44.547433484808025" lon="10.174623689612968"><ele>450.0</ele><time>2026-04-04T15:54:02.001Z</time></trkpt><trkpt lat="44.54742873217517" lon="10.174820741522412"><ele>450.0</ele><time>2026-04-04T15:54:03.001Z</time></trkpt><trkpt lat="44.54742189249603" lon="10.175035985300726"><ele>450.0</ele><time>2026-04-04T15:54:04.001Z</time></trkpt><trkpt lat="44.54741452142977" lon="10.175261494136988"><ele>450.0</ele><time>2026-04-04T15:54:05.001Z</time></trkpt><trkpt lat="44.547412101061255" lon="10.175509902153978"><ele>450.0</ele><time>2026-04-04T15:54:06.001Z</time></trkpt><trkpt lat="44.54738997743717" lon="10.175762955916626"><ele>450.0</ele><time>2026-04-04T15:54:07.001Z</time></trkpt><trkpt lat="44.54737666461372" lon="10.176005914890021"><ele>450.0</ele><time>2026-04-04T15:54:08.001Z</time></trkpt><trkpt lat="44.54736502831562" lon="10.176252678063419"><ele>450.0</ele><time>2026-04-04T15:54:09.001Z</time></trkpt><trkpt lat="44.5472972885352" lon="10.176495122845939"><ele>450.0</ele><time>2026-04-04T15:54:10.001Z</time></trkpt><trkpt lat="44.54722464453556" lon="10.17674324101947"><ele>450.0</ele><time>2026-04-04T15:54:11.001Z</time></trkpt><trkpt lat="44.54716378952033" lon="10.176981387782394"><ele>450.0</ele><time>2026-04-04T15:54:12.001Z</time></trkpt><trkpt lat="44.54708886343697" lon="10.177207049212239"><ele>450.0</ele><time>2026-04-04T15:54:13.001Z</time></trkpt><trkpt lat="44.547029808313994" lon="10.177434735423168"><ele>447.66666666666663</ele><time>2026-04-04T15:54:14.001Z</time></trkpt><trkpt lat="44.54697130345069" lon="10.177643519163478"><ele>445.3333333333333</ele><time>2026-04-04T15:54:15.001Z</time></trkpt><trkpt lat="44.54695329888899" lon="10.177871291191657"><ele>443.0</ele><time>2026-04-04T15:54:16.001Z</time></trkpt><trkpt lat="44.546934511420794" lon="10.178111370595785"><ele>444.0</ele><time>2026-04-04T15:54:17.001Z</time></trkpt><trkpt lat="44.546932720199926" lon="10.178358505827362"><ele>445.0</ele><time>2026-04-04T15:54:18.001Z</time></trkpt><trkpt lat="44.546956353871416" lon="10.178614141779114"><ele>446.0</ele><time>2026-04-04T15:54:19.001Z</time></trkpt><trkpt lat="44.5469972739157" lon="10.178871358070028"><ele>448.3333333333333</ele><time>2026-04-04T15:54:20.001Z</time></trkpt><trkpt lat="44.54705470769473" lon="10.179122892854707"><ele>450.66666666666663</ele><time>2026-04-04T15:54:21.001Z</time></trkpt><trkpt lat="44.54713394537146" lon="10.179353710283324"><ele>453.0</ele><time>2026-04-04T15:54:22.001Z</time></trkpt><trkpt lat="44.54722872033695" lon="10.179570790066302"><ele>453.0</ele><time>2026-04-04T15:54:23.001Z</time></trkpt><trkpt lat="44.54733763791413" lon="10.179773118137415"><ele>453.0</ele><time>2026-04-04T15:54:24.001Z</time></trkpt><trkpt lat="44.54746226626358" lon="10.179957881018126"><ele>453.0</ele><time>2026-04-04T15:54:25.001Z</time></trkpt><trkpt lat="44.547603367408286" lon="10.180129174075777"><ele>452.66666666666663</ele><time>2026-04-04T15:54:26.001Z</time></trkpt><trkpt lat="44.547749343639616" lon="10.180286817348833"><ele>452.3333333333333</ele><time>2026-04-04T15:54:27.001Z</time></trkpt><trkpt lat="44.547904261248235" lon="10.180424779543165"><ele>452.0</ele><time>2026-04-04T15:54:28.001Z</time></trkpt><trkpt lat="44.54806760978766" lon="10.180565683540863"><ele>448.66666666666663</ele><time>2026-04-04T15:54:29.001Z</time></trkpt><trkpt lat="44.54823203937507" lon="10.180716625496208"><ele>445.33333333333337</ele><time>2026-04-04T15:54:30.001Z</time></trkpt><trkpt lat="44.5483989183166" lon="10.180872665394576"><ele>442.0</ele><time>2026-04-04T15:54:31.001Z</time></trkpt><trkpt lat="44.548563289163724" lon="10.181029854330948"><ele>442.33333333333337</ele><time>2026-04-04T15:54:32.001Z</time></trkpt><trkpt lat="44.54872053541057" lon="10.181188868793523"><ele>442.66666666666663</ele><time>2026-04-04T15:54:33.001Z</time></trkpt><trkpt lat="44.54888578043003" lon="10.181332000038891"><ele>443.0</ele><time>2026-04-04T15:54:34.001Z</time></trkpt><trkpt lat="44.54907124917028" lon="10.18144802461092"><ele>442.0</ele><time>2026-04-04T15:54:35.001Z</time></trkpt><trkpt lat="44.54926954475612" lon="10.181537684837837"><ele>441.0</ele><time>2026-04-04T15:54:36.001Z</time></trkpt><trkpt lat="44.54947834100944" lon="10.181625575931603"><ele>440.0</ele><time>2026-04-04T15:54:37.001Z</time></trkpt><trkpt lat="44.549670960551886" lon="10.18171398720976"><ele>440.0</ele><time>2026-04-04T15:54:38.001Z</time></trkpt><trkpt lat="44.54984846025516" lon="10.181803360718169"><ele>440.0</ele><time>2026-04-04T15:54:39.001Z</time></trkpt><trkpt lat="44.550015662773696" lon="10.181883139491497"><ele>440.0</ele><time>2026-04-04T15:54:40.001Z</time></trkpt><trkpt lat="44.55017342466583" lon="10.181958574582804"><ele>440.0</ele><time>2026-04-04T15:54:41.001Z</time></trkpt><trkpt lat="44.5503193247541" lon="10.182031863605909"><ele>440.0</ele><time>2026-04-04T15:54:42.001Z</time></trkpt><trkpt lat="44.55046781204997" lon="10.182102395771542"><ele>440.0</ele><time>2026-04-04T15:54:43.001Z</time></trkpt><trkpt lat="44.55061148443074" lon="10.182172368839089"><ele>441.0</ele><time>2026-04-04T15:54:44.001Z</time></trkpt><trkpt lat="44.55074907495131" lon="10.18225651652726"><ele>442.0</ele><time>2026-04-04T15:54:45.001Z</time></trkpt><trkpt lat="44.550878682491856" lon="10.182365444070362"><ele>443.0</ele><time>2026-04-04T15:54:46.001Z</time></trkpt><trkpt lat="44.550985940638725" lon="10.182507099376632"><ele>444.0</ele><time>2026-04-04T15:54:47.001Z</time></trkpt><trkpt lat="44.55107256507266" lon="10.182675019723654"><ele>442.66666666666663</ele><time>2026-04-04T15:54:48.001Z</time></trkpt><trkpt lat="44.551146458762545" lon="10.182867697317873"><ele>441.3333333333333</ele><time>2026-04-04T15:54:49.001Z</time></trkpt><trkpt lat="44.5511982491796" lon="10.183078723437196"><ele>440.0</ele><time>2026-04-04T15:54:50.001Z</time></trkpt><trkpt lat="44.55122791630665" lon="10.183308995949451"><ele>440.0</ele><time>2026-04-04T15:54:51.001Z</time></trkpt><trkpt lat="44.55123560676342" lon="10.183556099063278"><ele>440.0</ele><time>2026-04-04T15:54:52.001Z</time></trkpt><trkpt lat="44.55122661102339" lon="10.183796375762334"><ele>440.0</ele><time>2026-04-04T15:54:53.001Z</time></trkpt><trkpt lat="44.55122807836082" lon="10.184030527154992"><ele>437.66666666666663</ele><time>2026-04-04T15:54:54.001Z</time></trkpt><trkpt lat="44.55124522134928" lon="10.184245430499214"><ele>435.33333333333337</ele><time>2026-04-04T15:54:55.001Z</time></trkpt><trkpt lat="44.551279337727486" lon="10.18445232196864"><ele>433.0</ele><time>2026-04-04T15:54:56.001Z</time></trkpt><trkpt lat="44.55133945393444" lon="10.184659081396465"><ele>430.6666666666667</ele><time>2026-04-04T15:54:57.001Z</time></trkpt><trkpt lat="44.55143273613345" lon="10.184853450220494"><ele>428.33333333333337</ele><time>2026-04-04T15:54:58.001Z</time></trkpt><trkpt lat="44.55155173366926" lon="10.18502329665825"><ele>426.0</ele><time>2026-04-04T15:54:59.001Z</time></trkpt><trkpt lat="44.55168898118596" lon="10.185155795665725"><ele>426.0</ele><time>2026-04-04T15:55:00.001Z</time></trkpt><trkpt lat="44.551845043429196" lon="10.18526490099797"><ele>426.0</ele><time>2026-04-04T15:55:01.001Z</time></trkpt><trkpt lat="44.55199982529553" lon="10.185332166637568"><ele>426.0</ele><time>2026-04-04T15:55:02.001Z</time></trkpt><trkpt lat="44.55215008584221" lon="10.185350242189017"><ele>427.0</ele><time>2026-04-04T15:55:03.001Z</time></trkpt><trkpt lat="44.55229876038138" lon="10.185326960328457"><ele>428.0</ele><time>2026-04-04T15:55:04.001Z</time></trkpt><trkpt lat="44.552450731732286" lon="10.185271322886798"><ele>429.0</ele><time>2026-04-04T15:55:05.001Z</time></trkpt><trkpt lat="44.55260055558829" lon="10.185215953887601"><ele>429.0</ele><time>2026-04-04T15:55:06.001Z</time></trkpt><trkpt lat="44.552756049128384" lon="10.185176244884493"><ele>429.0</ele><time>2026-04-04T15:55:07.001Z</time></trkpt><trkpt lat="44.552916869425985" lon="10.185131139563616"><ele>429.0</ele><time>2026-04-04T15:55:08.001Z</time></trkpt><trkpt lat="44.553081559400404" lon="10.185079053963245"><ele>428.33333333333337</ele><time>2026-04-04T15:55:09.001Z</time></trkpt><trkpt lat="44.55324978252484" lon="10.185032091263892"><ele>427.6666666666667</ele><time>2026-04-04T15:55:10.001Z</time></trkpt><trkpt lat="44.55341360833278" lon="10.184991452698615"><ele>427.0</ele><time>2026-04-04T15:55:11.001Z</time></trkpt><trkpt lat="44.55356842470336" lon="10.184945957438005"><ele>427.5</ele><time>2026-04-04T15:55:12.001Z</time></trkpt><trkpt lat="44.5537130803885" lon="10.184899423671206"><ele>428.0</ele><time>2026-04-04T15:55:13.001Z</time></trkpt><trkpt lat="44.55384106492509" lon="10.184864234783882"><ele>428.5</ele><time>2026-04-04T15:55:14.001Z</time></trkpt><trkpt lat="44.553951693385805" lon="10.18483710237328"><ele>429.0</ele><time>2026-04-04T15:55:15.001Z</time></trkpt><trkpt lat="44.5540460733797" lon="10.184815494718691"><ele>429.0</ele><time>2026-04-04T15:55:16.001Z</time></trkpt><trkpt lat="44.55413241550984" lon="10.184826187129358"><ele>429.0</ele><time>2026-04-04T15:55:17.001Z</time></trkpt><trkpt lat="44.554217121720285" lon="10.184893007348089"><ele>429.0</ele><time>2026-04-04T15:55:18.001Z</time></trkpt><trkpt lat="44.55429084008755" lon="10.185027971907138"><ele>429.0</ele><time>2026-04-04T15:55:19.001Z</time></trkpt><trkpt lat="44.554334225845686" lon="10.185213494395644"><ele>429.0</ele><time>2026-04-04T15:55:20.001Z</time></trkpt><trkpt lat="44.55438301500883" lon="10.18540675716894"><ele>429.0</ele><time>2026-04-04T15:55:21.001Z</time></trkpt><trkpt lat="44.55443615263858" lon="10.18561815798448"><ele>429.0</ele><time>2026-04-04T15:55:22.001Z</time></trkpt><trkpt lat="44.554479238189906" lon="10.185852673772384"><ele>429.0</ele><time>2026-04-04T15:55:23.001Z</time></trkpt><trkpt lat="44.554516182330495" lon="10.186098875390003"><ele>435.33333333333337</ele><time>2026-04-04T15:55:24.001Z</time></trkpt><trkpt lat="44.554538195670176" lon="10.186355941324114"><ele>441.6666666666667</ele><time>2026-04-04T15:55:25.001Z</time></trkpt><trkpt lat="44.55456806398568" lon="10.186624971249916"><ele>448.0</ele><time>2026-04-04T15:55:26.001Z</time></trkpt><trkpt lat="44.554625089135335" lon="10.186889015866695"><ele>448.0</ele><time>2026-04-04T15:55:27.001Z</time></trkpt><trkpt lat="44.55469507872189" lon="10.187155432725275"><ele>448.0</ele><time>2026-04-04T15:55:28.001Z</time></trkpt><trkpt lat="44.55477587532761" lon="10.187420568165463"><ele>448.0</ele><time>2026-04-04T15:55:29.001Z</time></trkpt><trkpt lat="44.55485557979026" lon="10.18767843741376"><ele>444.33333333333337</ele><time>2026-04-04T15:55:30.001Z</time></trkpt><trkpt lat="44.5549435502878" lon="10.187930820224876"><ele>440.66666666666663</ele><time>2026-04-04T15:55:31.001Z</time></trkpt><trkpt lat="44.55503558100294" lon="10.188180501995898"><ele>437.0</ele><time>2026-04-04T15:55:32.001Z</time></trkpt><trkpt lat="44.55512430496545" lon="10.188408888002726"><ele>435.3333333333333</ele><time>2026-04-04T15:55:33.001Z</time></trkpt><trkpt lat="44.555212129141935" lon="10.18863899093605"><ele>433.66666666666663</ele><time>2026-04-04T15:55:34.001Z</time></trkpt><trkpt lat="44.555304317178646" lon="10.188860223263601"><ele>432.0</ele><time>2026-04-04T15:55:35.001Z</time></trkpt><trkpt lat="44.555402164222144" lon="10.189070696570814"><ele>432.0</ele><time>2026-04-04T15:55:36.001Z</time></trkpt><trkpt lat="44.55552328621395" lon="10.189278330676899"><ele>432.0</ele><time>2026-04-04T15:55:37.001Z</time></trkpt><trkpt lat="44.55565779335" lon="10.189461503439361"><ele>432.0</ele><time>2026-04-04T15:55:38.001Z</time></trkpt><trkpt lat="44.555795891187174" lon="10.189617994812936"><ele>432.0</ele><time>2026-04-04T15:55:39.001Z</time></trkpt><trkpt lat="44.55594379357036" lon="10.189763151160813"><ele>432.0</ele><time>2026-04-04T15:55:40.001Z</time></trkpt><trkpt lat="44.556046565904836" lon="10.189938294225753"><ele>432.0</ele><time>2026-04-04T15:55:41.001Z</time></trkpt><trkpt lat="44.55615038287292" lon="10.19014099479597"><ele>430.33333333333337</ele><time>2026-04-04T15:55:42.001Z</time></trkpt><trkpt lat="44.55626956619328" lon="10.190350835804006"><ele>428.6666666666667</ele><time>2026-04-04T15:55:43.001Z</time></trkpt><trkpt lat="44.556382072725675" lon="10.190560635394988"><ele>427.0</ele><time>2026-04-04T15:55:44.001Z</time></trkpt><trkpt lat="44.55647615742499" lon="10.190781020643817"><ele>427.0</ele><time>2026-04-04T15:55:45.001Z</time></trkpt><trkpt lat="44.55659687251206" lon="10.190981468872307"><ele>427.0</ele><time>2026-04-04T15:55:46.001Z</time></trkpt><trkpt lat="44.5567089553162" lon="10.191193119718575"><ele>427.0</ele><time>2026-04-04T15:55:47.001Z</time></trkpt><trkpt lat="44.556814501075706" lon="10.19138357460995"><ele>423.6666666666667</ele><time>2026-04-04T15:55:48.001Z</time></trkpt><trkpt lat="44.55690956701686" lon="10.191567576848513"><ele>420.33333333333337</ele><time>2026-04-04T15:55:49.001Z</time></trkpt><trkpt lat="44.557005213491195" lon="10.191744951542367"><ele>417.0</ele><time>2026-04-04T15:55:50.001Z</time></trkpt><trkpt lat="44.55709468998826" lon="10.191927264882366"><ele>424.0</ele><time>2026-04-04T15:55:51.001Z</time></trkpt><trkpt lat="44.55714187949014" lon="10.19213650417097"><ele>431.0</ele><time>2026-04-04T15:55:52.001Z</time></trkpt><trkpt lat="44.557183001083594" lon="10.192354504037056"><ele>438.0</ele><time>2026-04-04T15:55:53.001Z</time></trkpt><trkpt lat="44.55721838227704" lon="10.192562211901404"><ele>438.0</ele><time>2026-04-04T15:55:54.001Z</time></trkpt><trkpt lat="44.557265773123426" lon="10.192761117655913"><ele>438.0</ele><time>2026-04-04T15:55:55.001Z</time></trkpt><trkpt lat="44.55729327055219" lon="10.192965393565293"><ele>438.0</ele><time>2026-04-04T15:55:56.001Z</time></trkpt><trkpt lat="44.557326206367904" lon="10.193160707378814"><ele>438.0</ele><time>2026-04-04T15:55:57.001Z</time></trkpt><trkpt lat="44.55736875973703" lon="10.193344503685392"><ele>434.5</ele><time>2026-04-04T15:55:58.001Z</time></trkpt><trkpt lat="44.557438842022904" lon="10.193498949678345"><ele>431.0</ele><time>2026-04-04T15:55:59.001Z</time></trkpt><trkpt lat="44.55754241787375" lon="10.193619307425104"><ele>427.5</ele><time>2026-04-04T15:56:00.001Z</time></trkpt><trkpt lat="44.55767035204584" lon="10.193690633061127"><ele>424.0</ele><time>2026-04-04T15:56:01.001Z</time></trkpt><trkpt lat="44.55781157759446" lon="10.19370895503495"><ele>430.0</ele><time>2026-04-04T15:56:02.001Z</time></trkpt><trkpt lat="44.55795957293878" lon="10.193685272951402"><ele>436.0</ele><time>2026-04-04T15:56:03.001Z</time></trkpt><trkpt lat="44.55811700258891" lon="10.193663488552117"><ele>442.0</ele><time>2026-04-04T15:56:04.001Z</time></trkpt><trkpt lat="44.558275207361476" lon="10.193685322314716"><ele>442.0</ele><time>2026-04-04T15:56:05.001Z</time></trkpt><trkpt lat="44.55841399533212" lon="10.193788595387481"><ele>442.0</ele><time>2026-04-04T15:56:06.001Z</time></trkpt><trkpt lat="44.5585454827258" lon="10.193889015914571"><ele>442.0</ele><time>2026-04-04T15:56:07.001Z</time></trkpt><trkpt lat="44.55866353692488" lon="10.193976721894948"><ele>442.0</ele><time>2026-04-04T15:56:08.001Z</time></trkpt><trkpt lat="44.558749615112376" lon="10.194104308550074"><ele>441.0</ele><time>2026-04-04T15:56:09.001Z</time></trkpt><trkpt lat="44.55877597409691" lon="10.194272188754816"><ele>440.0</ele><time>2026-04-04T15:56:10.001Z</time></trkpt><trkpt lat="44.55880793215686" lon="10.194442334527352"><ele>439.0</ele><time>2026-04-04T15:56:11.001Z</time></trkpt><trkpt lat="44.558845712355776" lon="10.194632724841515"><ele>438.0</ele><time>2026-04-04T15:56:12.001Z</time></trkpt><trkpt lat="44.55887979883282" lon="10.1948467178481"><ele>438.0</ele><time>2026-04-04T15:56:13.001Z</time></trkpt><trkpt lat="44.55890936149393" lon="10.195064995059157"><ele>438.0</ele><time>2026-04-04T15:56:14.001Z</time></trkpt><trkpt lat="44.5588935529073" lon="10.195294942622155"><ele>438.0</ele><time>2026-04-04T15:56:15.001Z</time></trkpt><trkpt lat="44.55889127587149" lon="10.195518933795015"><ele>443.0</ele><time>2026-04-04T15:56:16.001Z</time></trkpt><trkpt lat="44.55885032980517" lon="10.195726848412926"><ele>448.0</ele><time>2026-04-04T15:56:17.001Z</time></trkpt><trkpt lat="44.55885185794573" lon="10.195944738484483"><ele>453.0</ele><time>2026-04-04T15:56:18.001Z</time></trkpt><trkpt lat="44.55867813489013" lon="10.19606478946029"><ele>442.66666666666663</ele><time>2026-04-04T15:56:19.001Z</time></trkpt><trkpt lat="44.55855766602513" lon="10.196205525397161"><ele>432.3333333333333</ele><time>2026-04-04T15:56:20.001Z</time></trkpt><trkpt lat="44.55842773031381" lon="10.196351556460023"><ele>422.0</ele><time>2026-04-04T15:56:21.001Z</time></trkpt><trkpt lat="44.55830393101949" lon="10.196484962977763"><ele>424.5</ele><time>2026-04-04T15:56:22.001Z</time></trkpt><trkpt lat="44.55819424825991" lon="10.19661447866992"><ele>427.0</ele><time>2026-04-04T15:56:23.001Z</time></trkpt><trkpt lat="44.55810302736747" lon="10.196789181349796"><ele>429.5</ele><time>2026-04-04T15:56:24.001Z</time></trkpt><trkpt lat="44.558045378684405" lon="10.19697739780726"><ele>432.0</ele><time>2026-04-04T15:56:25.001Z</time></trkpt><trkpt lat="44.558025744824256" lon="10.19716299635774"><ele>431.25</ele><time>2026-04-04T15:56:26.001Z</time></trkpt><trkpt lat="44.55804067455049" lon="10.19735367031854"><ele>430.5</ele><time>2026-04-04T15:56:27.001Z</time></trkpt><trkpt lat="44.55808245008251" lon="10.197548362511524"><ele>429.75</ele><time>2026-04-04T15:56:28.001Z</time></trkpt><trkpt lat="44.558161871194656" lon="10.197737826206161"><ele>429.0</ele><time>2026-04-04T15:56:29.001Z</time></trkpt><trkpt lat="44.558255145082775" lon="10.197923571789016"><ele>429.0</ele><time>2026-04-04T15:56:30.001Z</time></trkpt><trkpt lat="44.55835321975812" lon="10.198105904363358"><ele>429.0</ele><time>2026-04-04T15:56:31.001Z</time></trkpt><trkpt lat="44.55845268600997" lon="10.19828895859552"><ele>429.0</ele><time>2026-04-04T15:56:32.001Z</time></trkpt><trkpt lat="44.55855043470386" lon="10.198467215866339"><ele>429.75</ele><time>2026-04-04T15:56:33.001Z</time></trkpt><trkpt lat="44.558641484399104" lon="10.198629336820039"><ele>430.5</ele><time>2026-04-04T15:56:34.001Z</time></trkpt><trkpt lat="44.558729771413695" lon="10.19878227713123"><ele>431.25</ele><time>2026-04-04T15:56:35.001Z</time></trkpt><trkpt lat="44.558812553677086" lon="10.198953460486642"><ele>432.0</ele><time>2026-04-04T15:56:36.001Z</time></trkpt><trkpt lat="44.55887274789933" lon="10.19915074241177"><ele>432.0</ele><time>2026-04-04T15:56:37.001Z</time></trkpt><trkpt lat="44.558883272960195" lon="10.199382927867452"><ele>432.0</ele><time>2026-04-04T15:56:38.001Z</time></trkpt><trkpt lat="44.558921139023255" lon="10.199600790445134"><ele>432.0</ele><time>2026-04-04T15:56:39.001Z</time></trkpt><trkpt lat="44.558947805596105" lon="10.19981438969208"><ele>430.0</ele><time>2026-04-04T15:56:40.001Z</time></trkpt><trkpt lat="44.559013894553914" lon="10.200014892262907"><ele>428.0</ele><time>2026-04-04T15:56:41.001Z</time></trkpt><trkpt lat="44.55911957706735" lon="10.200206917455361"><ele>426.0</ele><time>2026-04-04T15:56:42Z</time></trkpt><trkpt lat="44.559249619842774" lon="10.20039342140217"><ele>426.0</ele><time>2026-04-04T15:56:43Z</time></trkpt><trkpt lat="44.55937716695954" lon="10.200562009872083"><ele>426.0</ele><time>2026-04-04T15:56:44Z</time></trkpt><trkpt lat="44.55948510667256" lon="10.200717708472405"><ele>426.0</ele><time>2026-04-04T15:56:45Z</time></trkpt><trkpt lat="44.559576155341325" lon="10.200892129839897"><ele>431.33333333333337</ele><time>2026-04-04T15:56:46Z</time></trkpt><trkpt lat="44.55964323120567" lon="10.201081113777114"><ele>436.6666666666667</ele><time>2026-04-04T15:56:47Z</time></trkpt><trkpt lat="44.559686360472256" lon="10.201279821817261"><ele>442.0</ele><time>2026-04-04T15:56:48Z</time></trkpt><trkpt lat="44.55971178208838" lon="10.201497329031637"><ele>441.0</ele><time>2026-04-04T15:56:49Z</time></trkpt><trkpt lat="44.55969523202647" lon="10.201726847102652"><ele>440.0</ele><time>2026-04-04T15:56:50Z</time></trkpt><trkpt lat="44.55967172135618" lon="10.201978219030194"><ele>439.0</ele><time>2026-04-04T15:56:51Z</time></trkpt><trkpt lat="44.559656060873436" lon="10.202231657266347"><ele>438.33333333333337</ele><time>2026-04-04T15:56:52Z</time></trkpt><trkpt lat="44.559615583056406" lon="10.202486845422097"><ele>437.66666666666663</ele><time>2026-04-04T15:56:53Z</time></trkpt><trkpt lat="44.559580978772324" lon="10.202729125721552"><ele>437.0</ele><time>2026-04-04T15:56:54Z</time></trkpt><trkpt lat="44.55956164143497" lon="10.202972507957782"><ele>436.0</ele><time>2026-04-04T15:56:55Z</time></trkpt><trkpt lat="44.559554223972235" lon="10.203225015679472"><ele>435.0</ele><time>2026-04-04T15:56:56Z</time></trkpt><trkpt lat="44.559557656844284" lon="10.203493694887669"><ele>434.0</ele><time>2026-04-04T15:56:57Z</time></trkpt><trkpt lat="44.55957185986861" lon="10.203747420484326"><ele>431.0</ele><time>2026-04-04T15:56:58Z</time></trkpt><trkpt lat="44.5595901574542" lon="10.203997148831936"><ele>428.0</ele><time>2026-04-04T15:56:59Z</time></trkpt><trkpt lat="44.55962792325909" lon="10.204250300928342"><ele>425.0</ele><time>2026-04-04T15:57:00Z</time></trkpt><trkpt lat="44.55968674948424" lon="10.204534756728076"><ele>423.0</ele><time>2026-04-04T15:57:01Z</time></trkpt><trkpt lat="44.55974226821951" lon="10.20484540561475"><ele>421.0</ele><time>2026-04-04T15:57:02Z</time></trkpt><trkpt lat="44.559782095715974" lon="10.205158015762265"><ele>421.0</ele><time>2026-04-04T15:57:03Z</time></trkpt><trkpt lat="44.55981475331329" lon="10.205463379711004"><ele>421.0</ele><time>2026-04-04T15:57:04Z</time></trkpt><trkpt lat="44.55984926607498" lon="10.205741862694621"><ele>421.0</ele><time>2026-04-04T15:57:05Z</time></trkpt><trkpt lat="44.55988831830321" lon="10.206011588549236"><ele>419.6666666666667</ele><time>2026-04-04T15:57:06Z</time></trkpt><trkpt lat="44.559925876814894" lon="10.206269736097761"><ele>418.33333333333337</ele><time>2026-04-04T15:57:07Z</time></trkpt><trkpt lat="44.55996916642961" lon="10.20653736996155"><ele>417.0</ele><time>2026-04-04T15:57:08Z</time></trkpt><trkpt lat="44.56002716985678" lon="10.20680605466633"><ele>415.33333333333337</ele><time>2026-04-04T15:57:09Z</time></trkpt><trkpt lat="44.56010167547121" lon="10.207060241247255"><ele>413.6666666666667</ele><time>2026-04-04T15:57:10Z</time></trkpt><trkpt lat="44.56019980728136" lon="10.207295495931195"><ele>412.0</ele><time>2026-04-04T15:57:11Z</time></trkpt><trkpt lat="44.56031911152738" lon="10.207517186123946"><ele>413.0</ele><time>2026-04-04T15:57:12Z</time></trkpt><trkpt lat="44.56046589237982" lon="10.207753488714225"><ele>414.0</ele><time>2026-04-04T15:57:13Z</time></trkpt><trkpt lat="44.56060676159969" lon="10.207983537991785"><ele>415.0</ele><time>2026-04-04T15:57:14Z</time></trkpt><trkpt lat="44.56073922009893" lon="10.208228063206503"><ele>410.6666666666667</ele><time>2026-04-04T15:57:15Z</time></trkpt><trkpt lat="44.560873823605384" lon="10.208467164812209"><ele>406.33333333333337</ele><time>2026-04-04T15:57:16Z</time></trkpt><trkpt lat="44.56100166405885" lon="10.20868893782632"><ele>402.0</ele><time>2026-04-04T15:57:17Z</time></trkpt><trkpt lat="44.5611164858476" lon="10.208897355634091"><ele>406.0</ele><time>2026-04-04T15:57:18Z</time></trkpt><trkpt lat="44.56123532553462" lon="10.20910932567625"><ele>410.0</ele><time>2026-04-04T15:57:19Z</time></trkpt><trkpt lat="44.56135726250042" lon="10.209319891388372"><ele>414.0</ele><time>2026-04-04T15:57:20Z</time></trkpt><trkpt lat="44.56147046650491" lon="10.209538364016513"><ele>414.0</ele><time>2026-04-04T15:57:21Z</time></trkpt><trkpt lat="44.561575656707994" lon="10.209776580524657"><ele>414.0</ele><time>2026-04-04T15:57:22Z</time></trkpt><trkpt lat="44.56164265597815" lon="10.210042840712529"><ele>414.0</ele><time>2026-04-04T15:57:23Z</time></trkpt><trkpt lat="44.56171800672208" lon="10.210292537559619"><ele>410.33333333333337</ele><time>2026-04-04T15:57:24Z</time></trkpt><trkpt lat="44.56176401632666" lon="10.210543155546084"><ele>406.6666666666667</ele><time>2026-04-04T15:57:25Z</time></trkpt><trkpt lat="44.56177693248772" lon="10.210788867504643"><ele>403.0</ele><time>2026-04-04T15:57:26Z</time></trkpt><trkpt lat="44.56179542880636" lon="10.211023073397953"><ele>400.5</ele><time>2026-04-04T15:57:27Z</time></trkpt><trkpt lat="44.561824748807496" lon="10.211224433731815"><ele>398.0</ele><time>2026-04-04T15:57:28Z</time></trkpt><trkpt lat="44.561854816208424" lon="10.211407758595335"><ele>395.5</ele><time>2026-04-04T15:57:29Z</time></trkpt><trkpt lat="44.561915522514894" lon="10.211592404335402"><ele>393.0</ele><time>2026-04-04T15:57:30Z</time></trkpt><trkpt lat="44.5620079787286" lon="10.211773551139249"><ele>398.33333333333337</ele><time>2026-04-04T15:57:31Z</time></trkpt><trkpt lat="44.56213472319812" lon="10.211943307003676"><ele>403.6666666666667</ele><time>2026-04-04T15:57:32Z</time></trkpt><trkpt lat="44.56227969104072" lon="10.212098397316346"><ele>409.0</ele><time>2026-04-04T15:57:33Z</time></trkpt><trkpt lat="44.56243081514212" lon="10.212280829739933"><ele>403.6666666666667</ele><time>2026-04-04T15:57:34Z</time></trkpt><trkpt lat="44.56255416444832" lon="10.212485513423506"><ele>398.33333333333337</ele><time>2026-04-04T15:57:35Z</time></trkpt><trkpt lat="44.5626521662867" lon="10.212700866386925"><ele>393.0</ele><time>2026-04-04T15:57:36Z</time></trkpt><trkpt lat="44.562739159987416" lon="10.21293244386621"><ele>389.6666666666667</ele><time>2026-04-04T15:57:37Z</time></trkpt><trkpt lat="44.56280995167677" lon="10.213190050699655"><ele>386.33333333333337</ele><time>2026-04-04T15:57:38Z</time></trkpt><trkpt lat="44.56284013310288" lon="10.213477752563175"><ele>383.0</ele><time>2026-04-04T15:57:39Z</time></trkpt><trkpt lat="44.56285185283041" lon="10.21377017309739"><ele>382.33333333333337</ele><time>2026-04-04T15:57:40Z</time></trkpt><trkpt lat="44.562839986263235" lon="10.214043416074643"><ele>381.6666666666667</ele><time>2026-04-04T15:57:41Z</time></trkpt><trkpt lat="44.56283408587877" lon="10.214304059112127"><ele>381.0</ele><time>2026-04-04T15:57:42Z</time></trkpt><trkpt lat="44.56280810428194" lon="10.214531230869756"><ele>381.0</ele><time>2026-04-04T15:57:43Z</time></trkpt><trkpt lat="44.562787864661246" lon="10.214754866064618"><ele>381.0</ele><time>2026-04-04T15:57:44Z</time></trkpt><trkpt lat="44.56277754612566" lon="10.214946452536278"><ele>381.0</ele><time>2026-04-04T15:57:45Z</time></trkpt><trkpt lat="44.562785114070586" lon="10.215143455374939"><ele>381.0</ele><time>2026-04-04T15:57:46Z</time></trkpt><trkpt lat="44.562825851640916" lon="10.215331410553063"><ele>385.33333333333337</ele><time>2026-04-04T15:57:47Z</time></trkpt><trkpt lat="44.562896356113555" lon="10.215541335242394"><ele>389.6666666666667</ele><time>2026-04-04T15:57:48Z</time></trkpt><trkpt lat="44.56298929844293" lon="10.215745610128513"><ele>394.0</ele><time>2026-04-04T15:57:49Z</time></trkpt><trkpt lat="44.56308942031823" lon="10.215941686310133"><ele>394.0</ele><time>2026-04-04T15:57:50Z</time></trkpt><trkpt lat="44.563187792987236" lon="10.2161519362169"><ele>394.0</ele><time>2026-04-04T15:57:51Z</time></trkpt><trkpt lat="44.56327777750208" lon="10.216360909671504"><ele>394.0</ele><time>2026-04-04T15:57:52Z</time></trkpt><trkpt lat="44.56335809894719" lon="10.216554478782038"><ele>393.0</ele><time>2026-04-04T15:57:53Z</time></trkpt><trkpt lat="44.563439378887566" lon="10.216775924300451"><ele>392.0</ele><time>2026-04-04T15:57:54Z</time></trkpt><trkpt lat="44.56350705381145" lon="10.217003979397338"><ele>391.0</ele><time>2026-04-04T15:57:55Z</time></trkpt><trkpt lat="44.56355834498617" lon="10.217235607343463"><ele>389.6666666666667</ele><time>2026-04-04T15:57:56Z</time></trkpt><trkpt lat="44.56359556307318" lon="10.217477633111148"><ele>388.33333333333337</ele><time>2026-04-04T15:57:57Z</time></trkpt><trkpt lat="44.563627451941116" lon="10.217741903923107"><ele>387.0</ele><time>2026-04-04T15:57:58Z</time></trkpt><trkpt lat="44.56366390412164" lon="10.217994810211911"><ele>394.66666666666663</ele><time>2026-04-04T15:57:59Z</time></trkpt><trkpt lat="44.563703968880105" lon="10.218257660178176"><ele>402.3333333333333</ele><time>2026-04-04T15:58:00Z</time></trkpt><trkpt lat="44.56374582708851" lon="10.218494772209269"><ele>410.0</ele><time>2026-04-04T15:58:01Z</time></trkpt><trkpt lat="44.56377810401391" lon="10.21872776225012"><ele>410.0</ele><time>2026-04-04T15:58:02Z</time></trkpt><trkpt lat="44.56376592884697" lon="10.218954011000804"><ele>410.0</ele><time>2026-04-04T15:58:03Z</time></trkpt><trkpt lat="44.56374570748341" lon="10.219167067007835"><ele>410.0</ele><time>2026-04-04T15:58:04Z</time></trkpt><trkpt lat="44.56372663701514" lon="10.219376643630936"><ele>401.75</ele><time>2026-04-04T15:58:05Z</time></trkpt><trkpt lat="44.56369495398155" lon="10.219576028549463"><ele>393.5</ele><time>2026-04-04T15:58:06Z</time></trkpt><trkpt lat="44.56367406070476" lon="10.219765504399696"><ele>385.25</ele><time>2026-04-04T15:58:07Z</time></trkpt><trkpt lat="44.56367059768365" lon="10.21995407733561"><ele>377.0</ele><time>2026-04-04T15:58:08Z</time></trkpt><trkpt lat="44.563688492320374" lon="10.220157563691087"><ele>383.33333333333337</ele><time>2026-04-04T15:58:09Z</time></trkpt><trkpt lat="44.56373107875467" lon="10.220364990565278"><ele>389.6666666666667</ele><time>2026-04-04T15:58:10Z</time></trkpt><trkpt lat="44.56379484458848" lon="10.220582273147203"><ele>396.0</ele><time>2026-04-04T15:58:11Z</time></trkpt><trkpt lat="44.56386651525482" lon="10.220793424719629"><ele>396.0</ele><time>2026-04-04T15:58:12Z</time></trkpt><trkpt lat="44.56394291771426" lon="10.221007838634177"><ele>396.0</ele><time>2026-04-04T15:58:13Z</time></trkpt><trkpt lat="44.56401731167025" lon="10.22122124755692"><ele>396.0</ele><time>2026-04-04T15:58:14Z</time></trkpt><trkpt lat="44.564084258750334" lon="10.221412043064479"><ele>393.0</ele><time>2026-04-04T15:58:15Z</time></trkpt><trkpt lat="44.564148326424984" lon="10.221596242683088"><ele>390.0</ele><time>2026-04-04T15:58:16Z</time></trkpt><trkpt lat="44.564207042444316" lon="10.221771309814155"><ele>387.0</ele><time>2026-04-04T15:58:17Z</time></trkpt><trkpt lat="44.56427603845912" lon="10.221934918248616"><ele>384.0</ele><time>2026-04-04T15:58:18Z</time></trkpt><trkpt lat="44.564370305326946" lon="10.222087537632424"><ele>384.0</ele><time>2026-04-04T15:58:19Z</time></trkpt><trkpt lat="44.56448246517036" lon="10.222232500501883"><ele>384.0</ele><time>2026-04-04T15:58:20Z</time></trkpt><trkpt lat="44.56460612807905" lon="10.222348296945304"><ele>384.0</ele><time>2026-04-04T15:58:21Z</time></trkpt><trkpt lat="44.56472811017644" lon="10.222457711150165"><ele>384.0</ele><time>2026-04-04T15:58:22Z</time></trkpt><trkpt lat="44.56483925912314" lon="10.22260557104495"><ele>383.0</ele><time>2026-04-04T15:58:23Z</time></trkpt><trkpt lat="44.56493120441765" lon="10.22278763311333"><ele>382.0</ele><time>2026-04-04T15:58:24Z</time></trkpt><trkpt lat="44.56497455793714" lon="10.222995653953058"><ele>381.0</ele><time>2026-04-04T15:58:25Z</time></trkpt><trkpt lat="44.56502101694929" lon="10.223209306895798"><ele>381.0</ele><time>2026-04-04T15:58:26Z</time></trkpt><trkpt lat="44.56506632433081" lon="10.223408431907757"><ele>381.0</ele><time>2026-04-04T15:58:27Z</time></trkpt><trkpt lat="44.56510035018137" lon="10.223604860243173"><ele>381.0</ele><time>2026-04-04T15:58:28Z</time></trkpt><trkpt lat="44.56513148586035" lon="10.223801065952566"><ele>381.0</ele><time>2026-04-04T15:58:29Z</time></trkpt><trkpt lat="44.565141320693286" lon="10.22400051317051"><ele>379.75</ele><time>2026-04-04T15:58:30Z</time></trkpt><trkpt lat="44.5651227107811" lon="10.224196456431597"><ele>378.5</ele><time>2026-04-04T15:58:31Z</time></trkpt><trkpt lat="44.5650834527119" lon="10.224392283885027"><ele>377.25</ele><time>2026-04-04T15:58:32Z</time></trkpt><trkpt lat="44.56504172002178" lon="10.224586832263714"><ele>376.0</ele><time>2026-04-04T15:58:33Z</time></trkpt><trkpt lat="44.56500321859885" lon="10.224775389302057"><ele>374.5</ele><time>2026-04-04T15:58:34Z</time></trkpt><trkpt lat="44.56497449453905" lon="10.224948660942964"><ele>373.0</ele><time>2026-04-04T15:58:35Z</time></trkpt><trkpt lat="44.56496472219395" lon="10.225110851406827"><ele>371.5</ele><time>2026-04-04T15:58:36Z</time></trkpt><trkpt lat="44.56498590457398" lon="10.225278563657415"><ele>370.0</ele><time>2026-04-04T15:58:37Z</time></trkpt><trkpt lat="44.565043859420236" lon="10.22545905418774"><ele>370.0</ele><time>2026-04-04T15:58:38Z</time></trkpt><trkpt lat="44.56514341550535" lon="10.225635195438896"><ele>370.0</ele><time>2026-04-04T15:58:39Z</time></trkpt><trkpt lat="44.565271773094516" lon="10.225799603169088"><ele>370.0</ele><time>2026-04-04T15:58:40Z</time></trkpt><trkpt lat="44.565418170302245" lon="10.225965136908844"><ele>370.0</ele><time>2026-04-04T15:58:41Z</time></trkpt><trkpt lat="44.56555293826246" lon="10.226132052847591"><ele>370.0</ele><time>2026-04-04T15:58:42Z</time></trkpt><trkpt lat="44.56566910164587" lon="10.226295597899979"><ele>370.0</ele><time>2026-04-04T15:58:43Z</time></trkpt><trkpt lat="44.56578116565422" lon="10.226444872849001"><ele>367.25</ele><time>2026-04-04T15:58:44Z</time></trkpt><trkpt lat="44.56588947124525" lon="10.226587719540902"><ele>364.5</ele><time>2026-04-04T15:58:45Z</time></trkpt><trkpt lat="44.56598278728053" lon="10.226715472148037"><ele>361.75</ele><time>2026-04-04T15:58:46Z</time></trkpt><trkpt lat="44.566067446114026" lon="10.226837459153206"><ele>359.0</ele><time>2026-04-04T15:58:47Z</time></trkpt><trkpt lat="44.56614455870354" lon="10.226943173897222"><ele>360.5</ele><time>2026-04-04T15:58:48Z</time></trkpt><trkpt lat="44.56621606347261" lon="10.227055669714467"><ele>362.0</ele><time>2026-04-04T15:58:49Z</time></trkpt><trkpt lat="44.56626629797964" lon="10.227202374345573"><ele>363.5</ele><time>2026-04-04T15:58:50Z</time></trkpt><trkpt lat="44.56626949089101" lon="10.227384269101005"><ele>365.0</ele><time>2026-04-04T15:58:51Z</time></trkpt><trkpt lat="44.566264649085795" lon="10.227577347182748"><ele>365.0</ele><time>2026-04-04T15:58:52Z</time></trkpt><trkpt lat="44.56626838786226" lon="10.227783315999094"><ele>365.0</ele><time>2026-04-04T15:58:53Z</time></trkpt><trkpt lat="44.56625615288125" lon="10.22796855941565"><ele>365.0</ele><time>2026-04-04T15:58:54Z</time></trkpt><trkpt lat="44.56624939119238" lon="10.228143615227578"><ele>365.0</ele><time>2026-04-04T15:58:55Z</time></trkpt><trkpt lat="44.56626146519113" lon="10.22831137400109"><ele>363.0</ele><time>2026-04-04T15:58:56Z</time></trkpt><trkpt lat="44.56629819306732" lon="10.228467785368144"><ele>361.0</ele><time>2026-04-04T15:58:57Z</time></trkpt><trkpt lat="44.56636744936316" lon="10.228616915943658"><ele>359.0</ele><time>2026-04-04T15:58:58Z</time></trkpt><trkpt lat="44.5664453754998" lon="10.228748238735522"><ele>357.0</ele><time>2026-04-04T15:58:59Z</time></trkpt><trkpt lat="44.56651247899787" lon="10.228855955965011"><ele>357.0</ele><time>2026-04-04T15:59:00Z</time></trkpt><trkpt lat="44.5665710679378" lon="10.228948256678462"><ele>357.0</ele><time>2026-04-04T15:59:01Z</time></trkpt><trkpt lat="44.56662921081355" lon="10.229023096153119"><ele>357.0</ele><time>2026-04-04T15:59:02Z</time></trkpt><trkpt lat="44.566694167000946" lon="10.22909775378252"><ele>357.0</ele><time>2026-04-04T15:59:04Z</time></trkpt><trkpt lat="44.56663647105966" lon="10.229156056641028"><ele>357.0</ele><time>2026-04-04T15:59:06Z</time></trkpt><trkpt lat="44.56656796949322" lon="10.229099171480561"><ele>357.0</ele><time>2026-04-04T15:59:08Z</time></trkpt><trkpt lat="44.56652634922394" lon="10.228999307132336"><ele>357.0</ele><time>2026-04-04T15:59:09Z</time></trkpt><trkpt lat="44.56647825108617" lon="10.228886641338493"><ele>357.0</ele><time>2026-04-04T15:59:10Z</time></trkpt><trkpt lat="44.56640691049206" lon="10.22875732090371"><ele>357.0</ele><time>2026-04-04T15:59:11Z</time></trkpt><trkpt lat="44.56632415829104" lon="10.228619442178854"><ele>357.0</ele><time>2026-04-04T15:59:12Z</time></trkpt><trkpt lat="44.566232253429966" lon="10.228467379644945"><ele>355.0</ele><time>2026-04-04T15:59:13Z</time></trkpt><trkpt lat="44.566126256332645" lon="10.228313643714513"><ele>353.0</ele><time>2026-04-04T15:59:14Z</time></trkpt><trkpt lat="44.566014615106255" lon="10.228166304130736"><ele>351.0</ele><time>2026-04-04T15:59:15Z</time></trkpt><trkpt lat="44.565891465581934" lon="10.228016454505354"><ele>351.0</ele><time>2026-04-04T15:59:16Z</time></trkpt><trkpt lat="44.56577294658291" lon="10.227868701530133"><ele>351.0</ele><time>2026-04-04T15:59:17Z</time></trkpt><trkpt lat="44.56566130778003" lon="10.227732502818112"><ele>351.0</ele><time>2026-04-04T15:59:18Z</time></trkpt><trkpt lat="44.56554404972518" lon="10.227589045830243"><ele>351.0</ele><time>2026-04-04T15:59:19Z</time></trkpt><trkpt lat="44.56542671717557" lon="10.227438609380764"><ele>351.0</ele><time>2026-04-04T15:59:20Z</time></trkpt><trkpt lat="44.56530278260669" lon="10.227293609050198"><ele>351.0</ele><time>2026-04-04T15:59:21Z</time></trkpt><trkpt lat="44.56518280075962" lon="10.227153890254424"><ele>350.75</ele><time>2026-04-04T15:59:22Z</time></trkpt><trkpt lat="44.56503943899573" lon="10.227094653010038"><ele>350.5</ele><time>2026-04-04T15:59:23Z</time></trkpt><trkpt lat="44.56491831045" lon="10.227003151196955"><ele>350.25</ele><time>2026-04-04T15:59:24Z</time></trkpt><trkpt lat="44.56481869614764" lon="10.22687909751417"><ele>350.0</ele><time>2026-04-04T15:59:25Z</time></trkpt><trkpt lat="44.56474986053074" lon="10.226728286354403"><ele>350.0</ele><time>2026-04-04T15:59:26Z</time></trkpt><trkpt lat="44.564703699613055" lon="10.226573890335583"><ele>350.0</ele><time>2026-04-04T15:59:27Z</time></trkpt><trkpt lat="44.56463892582378" lon="10.226450985139117"><ele>350.0</ele><time>2026-04-04T15:59:28Z</time></trkpt><trkpt lat="44.56455010842271" lon="10.226364787765556"><ele>350.0</ele><time>2026-04-04T15:59:29Z</time></trkpt><trkpt lat="44.56443212256489" lon="10.226331100472326"><ele>348.25</ele><time>2026-04-04T15:59:30Z</time></trkpt><trkpt lat="44.5643049799456" lon="10.226345998858235"><ele>346.5</ele><time>2026-04-04T15:59:31Z</time></trkpt><trkpt lat="44.56417877139223" lon="10.22641230900378"><ele>344.75</ele><time>2026-04-04T15:59:32Z</time></trkpt><trkpt lat="44.56404169833219" lon="10.22650124946928"><ele>343.0</ele><time>2026-04-04T15:59:33Z</time></trkpt><trkpt lat="44.56388302419702" lon="10.226569960195782"><ele>341.66666666666663</ele><time>2026-04-04T15:59:34Z</time></trkpt><trkpt lat="44.563730505989966" lon="10.226661744840092"><ele>340.3333333333333</ele><time>2026-04-04T15:59:35Z</time></trkpt><trkpt lat="44.56356417686318" lon="10.22676197191151"><ele>339.0</ele><time>2026-04-04T15:59:36Z</time></trkpt><trkpt lat="44.56339629604085" lon="10.226863134344637"><ele>338.0</ele><time>2026-04-04T15:59:37Z</time></trkpt><trkpt lat="44.56322506998363" lon="10.22696659210135"><ele>337.0</ele><time>2026-04-04T15:59:38Z</time></trkpt><trkpt lat="44.56304485673032" lon="10.22707657412627"><ele>336.0</ele><time>2026-04-04T15:59:39Z</time></trkpt><trkpt lat="44.562862988390165" lon="10.227184661107612"><ele>336.0</ele><time>2026-04-04T15:59:40Z</time></trkpt><trkpt lat="44.56268294576138" lon="10.227293235954548"><ele>336.0</ele><time>2026-04-04T15:59:41Z</time></trkpt><trkpt lat="44.56251273366384" lon="10.227395882142588"><ele>336.0</ele><time>2026-04-04T15:59:42Z</time></trkpt><trkpt lat="44.56234351620882" lon="10.22749792907962"><ele>336.3333333333333</ele><time>2026-04-04T15:59:43Z</time></trkpt><trkpt lat="44.562179098041156" lon="10.227597081544362"><ele>336.66666666666663</ele><time>2026-04-04T15:59:44Z</time></trkpt><trkpt lat="44.56202289202565" lon="10.227690042110781"><ele>337.0</ele><time>2026-04-04T15:59:45Z</time></trkpt><trkpt lat="44.56187761220554" lon="10.22777412473098"><ele>338.0</ele><time>2026-04-04T15:59:46Z</time></trkpt><trkpt lat="44.56174446179172" lon="10.227850373657757"><ele>339.0</ele><time>2026-04-04T15:59:47Z</time></trkpt><trkpt lat="44.56162444911489" lon="10.227968296157565"><ele>340.0</ele><time>2026-04-04T15:59:48Z</time></trkpt><trkpt lat="44.56152643345577" lon="10.228105948707933"><ele>341.0</ele><time>2026-04-04T15:59:49Z</time></trkpt><trkpt lat="44.561449484464774" lon="10.228279945136038"><ele>341.33333333333337</ele><time>2026-04-04T15:59:50Z</time></trkpt><trkpt lat="44.56138273194219" lon="10.228475537681872"><ele>341.6666666666667</ele><time>2026-04-04T15:59:51Z</time></trkpt><trkpt lat="44.561304637325286" lon="10.228669658339138"><ele>342.0</ele><time>2026-04-04T15:59:52Z</time></trkpt><trkpt lat="44.561207079165186" lon="10.228844601455558"><ele>344.0</ele><time>2026-04-04T15:59:53Z</time></trkpt><trkpt lat="44.56109194435077" lon="10.2289687255321"><ele>346.0</ele><time>2026-04-04T15:59:54Z</time></trkpt><trkpt lat="44.56099711060693" lon="10.229082442848265"><ele>348.0</ele><time>2026-04-04T15:59:55Z</time></trkpt><trkpt lat="44.56088295310047" lon="10.229174572430113"><ele>350.0</ele><time>2026-04-04T15:59:56Z</time></trkpt><trkpt lat="44.56075898927257" lon="10.229254672875486"><ele>350.0</ele><time>2026-04-04T15:59:57Z</time></trkpt><trkpt lat="44.56063220225627" lon="10.229357415503193"><ele>350.0</ele><time>2026-04-04T15:59:58Z</time></trkpt><trkpt lat="44.560515028288165" lon="10.22942689680655"><ele>350.0</ele><time>2026-04-04T15:59:59Z</time></trkpt><trkpt lat="44.56040667496485" lon="10.229488839766086"><ele>350.0</ele><time>2026-04-04T16:00:00Z</time></trkpt><trkpt lat="44.56030317459584" lon="10.229544542168851"><ele>349.5</ele><time>2026-04-04T16:00:01Z</time></trkpt><trkpt lat="44.560207163725096" lon="10.22958794848329"><ele>349.0</ele><time>2026-04-04T16:00:02Z</time></trkpt><trkpt lat="44.560115321157525" lon="10.229612250885586"><ele>348.5</ele><time>2026-04-04T16:00:03Z</time></trkpt><trkpt lat="44.560032730304656" lon="10.229603787300015"><ele>348.0</ele><time>2026-04-04T16:00:04Z</time></trkpt><trkpt lat="44.55994134274409" lon="10.229810355039731"><ele>348.0</ele><time>2026-04-04T16:00:06Z</time></trkpt><trkpt lat="44.55990780799087" lon="10.229957819256773"><ele>348.0</ele><time>2026-04-04T16:00:07Z</time></trkpt><trkpt lat="44.55986868037266" lon="10.230117668059256"><ele>348.0</ele><time>2026-04-04T16:00:08Z</time></trkpt><trkpt lat="44.55983873668475" lon="10.230291262260145"><ele>348.0</ele><time>2026-04-04T16:00:09Z</time></trkpt><trkpt lat="44.55983903805641" lon="10.23047775431167"><ele>346.6666666666667</ele><time>2026-04-04T16:00:10Z</time></trkpt><trkpt lat="44.55986920557142" lon="10.230675343043949"><ele>345.33333333333337</ele><time>2026-04-04T16:00:11Z</time></trkpt><trkpt lat="44.55993198738261" lon="10.23087825003047"><ele>344.0</ele><time>2026-04-04T16:00:12Z</time></trkpt><trkpt lat="44.56000602669583" lon="10.23108619000232"><ele>344.0</ele><time>2026-04-04T16:00:13Z</time></trkpt><trkpt lat="44.56007579204628" lon="10.23131316095126"><ele>344.0</ele><time>2026-04-04T16:00:14Z</time></trkpt><trkpt lat="44.56012948997755" lon="10.231524297761398"><ele>344.0</ele><time>2026-04-04T16:00:15Z</time></trkpt><trkpt lat="44.56018063908385" lon="10.231707847735843"><ele>344.5</ele><time>2026-04-04T16:00:16Z</time></trkpt><trkpt lat="44.56023304655796" lon="10.23188027283981"><ele>345.0</ele><time>2026-04-04T16:00:17Z</time></trkpt><trkpt lat="44.5602771622521" lon="10.232045410916296"><ele>345.5</ele><time>2026-04-04T16:00:18Z</time></trkpt><trkpt lat="44.56033346066779" lon="10.232212516637585"><ele>346.0</ele><time>2026-04-04T16:00:19Z</time></trkpt><trkpt lat="44.560423460922706" lon="10.232356673425672"><ele>347.25</ele><time>2026-04-04T16:00:20Z</time></trkpt><trkpt lat="44.5605525736058" lon="10.232473774492647"><ele>348.5</ele><time>2026-04-04T16:00:21Z</time></trkpt><trkpt lat="44.56069168831385" lon="10.232548772731473"><ele>349.75</ele><time>2026-04-04T16:00:22Z</time></trkpt><trkpt lat="44.56081128942836" lon="10.232600858333878"><ele>351.0</ele><time>2026-04-04T16:00:23Z</time></trkpt><trkpt lat="44.560899132895116" lon="10.232660435130256"><ele>351.0</ele><time>2026-04-04T16:00:24Z</time></trkpt><trkpt lat="44.56095250725489" lon="10.232745784957356"><ele>351.0</ele><time>2026-04-04T16:00:25Z</time></trkpt><trkpt lat="44.560974948796634" lon="10.2328611529068"><ele>351.0</ele><time>2026-04-04T16:00:26Z</time></trkpt><trkpt lat="44.560963129707055" lon="10.232977133873527"><ele>351.0</ele><time>2026-04-04T16:00:27Z</time></trkpt><trkpt lat="44.560869459073565" lon="10.23306567664187"><ele>351.0</ele><time>2026-04-04T16:00:28Z</time></trkpt><trkpt lat="44.560774462946405" lon="10.233080014145168"><ele>351.0</ele><time>2026-04-04T16:00:29Z</time></trkpt><trkpt lat="44.56068256686852" lon="10.233002478424904"><ele>351.0</ele><time>2026-04-04T16:00:30Z</time></trkpt><trkpt lat="44.5605800525397" lon="10.232940555496548"><ele>351.0</ele><time>2026-04-04T16:00:31Z</time></trkpt><trkpt lat="44.560462694798396" lon="10.232881695814157"><ele>351.0</ele><time>2026-04-04T16:00:32Z</time></trkpt><trkpt lat="44.56033521705932" lon="10.232912642925179"><ele>350.75</ele><time>2026-04-04T16:00:33Z</time></trkpt><trkpt lat="44.56022517747536" lon="10.232987605128384"><ele>350.5</ele><time>2026-04-04T16:00:34Z</time></trkpt><trkpt lat="44.56014035595429" lon="10.233116886988867"><ele>350.25</ele><time>2026-04-04T16:00:35Z</time></trkpt><trkpt lat="44.56005936235843" lon="10.233275488037602"><ele>350.0</ele><time>2026-04-04T16:00:36Z</time></trkpt><trkpt lat="44.559982285542254" lon="10.233448419506413"><ele>351.4</ele><time>2026-04-04T16:00:37Z</time></trkpt><trkpt lat="44.55990122894574" lon="10.233615385108832"><ele>352.8</ele><time>2026-04-04T16:00:38Z</time></trkpt><trkpt lat="44.55984068579897" lon="10.233746765513708"><ele>354.20000000000005</ele><time>2026-04-04T16:00:39Z</time></trkpt><trkpt lat="44.55976684765638" lon="10.233837393499648"><ele>355.6</ele><time>2026-04-04T16:00:40Z</time></trkpt><trkpt lat="44.559707330188814" lon="10.233940449434861"><ele>357.0</ele><time>2026-04-04T16:00:41Z</time></trkpt><trkpt lat="44.55966969314723" lon="10.234032822620252"><ele>358.8333333333333</ele><time>2026-04-04T16:00:42Z</time></trkpt><trkpt lat="44.55963797779724" lon="10.234133396643088"><ele>360.6666666666667</ele><time>2026-04-04T16:00:43Z</time></trkpt><trkpt lat="44.55961986783431" lon="10.234234092842435"><ele>362.5</ele><time>2026-04-04T16:00:44Z</time></trkpt><trkpt lat="44.55962465278176" lon="10.234369311132353"><ele>364.33333333333337</ele><time>2026-04-04T16:00:45Z</time></trkpt><trkpt lat="44.55963525471591" lon="10.23450094064376"><ele>366.1666666666667</ele><time>2026-04-04T16:00:46Z</time></trkpt><trkpt lat="44.559642379513605" lon="10.234618524702922"><ele>368.0</ele><time>2026-04-04T16:00:47Z</time></trkpt><trkpt lat="44.559643900453636" lon="10.234711709671865"><ele>372.0</ele><time>2026-04-04T16:00:48Z</time></trkpt><trkpt lat="44.559659743383364" lon="10.234828536036675"><ele>376.0</ele><time>2026-04-04T16:00:50Z</time></trkpt><trkpt lat="44.56010215120422" lon="10.234900684906599"><ele>376.0</ele><time>2026-04-04T16:00:51Z</time></trkpt><trkpt lat="44.560174899258044" lon="10.23495253620488"><ele>376.0</ele><time>2026-04-04T16:00:52Z</time></trkpt><trkpt lat="44.56024702319875" lon="10.234996612047269"><ele>376.0</ele><time>2026-04-04T16:00:53Z</time></trkpt><trkpt lat="44.560315050304766" lon="10.23506764712821"><ele>376.0</ele><time>2026-04-04T16:00:54Z</time></trkpt><trkpt lat="44.560363617734225" lon="10.235173993676787"><ele>376.0</ele><time>2026-04-04T16:00:55Z</time></trkpt><trkpt lat="44.56038015364692" lon="10.235276046929503"><ele>376.0</ele><time>2026-04-04T16:00:56Z</time></trkpt><trkpt lat="44.56037858742306" lon="10.235382204478702"><ele>378.0</ele><time>2026-04-04T16:00:59Z</time></trkpt><trkpt lat="44.560424904600566" lon="10.235447934378694"><ele>380.0</ele><time>2026-04-04T16:01:02Z</time></trkpt><trkpt lat="44.56052717288784" lon="10.235392289624148"><ele>382.0</ele><time>2026-04-04T16:01:04Z</time></trkpt><trkpt lat="44.560602559966" lon="10.235310061641878"><ele>384.0</ele><time>2026-04-04T16:01:05Z</time></trkpt><trkpt lat="44.56069290809545" lon="10.23522933381552"><ele>386.0</ele><time>2026-04-04T16:01:06Z</time></trkpt><trkpt lat="44.5607777435112" lon="10.23515520849431"><ele>386.0</ele><time>2026-04-04T16:01:07Z</time></trkpt><trkpt lat="44.56086223895641" lon="10.235076713925569"><ele>386.0</ele><time>2026-04-04T16:01:08Z</time></trkpt><trkpt lat="44.560950313700886" lon="10.234996005051894"><ele>386.0</ele><time>2026-04-04T16:01:09Z</time></trkpt><trkpt lat="44.561039345183374" lon="10.234902295855727"><ele>386.0</ele><time>2026-04-04T16:01:10Z</time></trkpt><trkpt lat="44.561129286801545" lon="10.234818244865878"><ele>386.0</ele><time>2026-04-04T16:01:11Z</time></trkpt><trkpt lat="44.56122122059357" lon="10.234728828708965"><ele>385.6</ele><time>2026-04-04T16:01:12Z</time></trkpt><trkpt lat="44.56130662215232" lon="10.234643066621437"><ele>385.20000000000005</ele><time>2026-04-04T16:01:13Z</time></trkpt><trkpt lat="44.56140189415657" lon="10.234561538357184"><ele>384.79999999999995</ele><time>2026-04-04T16:01:14Z</time></trkpt><trkpt lat="44.56149314912039" lon="10.234519464867654"><ele>384.4</ele><time>2026-04-04T16:01:15Z</time></trkpt><trkpt lat="44.561570088240785" lon="10.234516833325763"><ele>384.0</ele><time>2026-04-04T16:01:16Z</time></trkpt><trkpt lat="44.56164471225124" lon="10.234547247091927"><ele>384.0</ele><time>2026-04-04T16:01:17Z</time></trkpt><trkpt lat="44.561726212399" lon="10.23461927561168"><ele>384.0</ele><time>2026-04-04T16:01:18Z</time></trkpt><trkpt lat="44.56179020364619" lon="10.234706958566315"><ele>384.0</ele><time>2026-04-04T16:01:19Z</time></trkpt><trkpt lat="44.56183255416464" lon="10.234831378707792"><ele>384.0</ele><time>2026-04-04T16:01:20Z</time></trkpt><trkpt lat="44.56187712272272" lon="10.234971537274081"><ele>384.0</ele><time>2026-04-04T16:01:21Z</time></trkpt><trkpt lat="44.56192299756555" lon="10.235106058346963"><ele>386.6666666666667</ele><time>2026-04-04T16:01:22Z</time></trkpt><trkpt lat="44.56197898446592" lon="10.23523300375354"><ele>389.33333333333337</ele><time>2026-04-04T16:01:23Z</time></trkpt><trkpt lat="44.56203529825521" lon="10.23534588001951"><ele>392.0</ele><time>2026-04-04T16:01:24Z</time></trkpt><trkpt lat="44.562084041846816" lon="10.235450148313982"><ele>394.6666666666667</ele><time>2026-04-04T16:01:25Z</time></trkpt><trkpt lat="44.56213017692449" lon="10.235536734699583"><ele>397.33333333333337</ele><time>2026-04-04T16:01:26Z</time></trkpt><trkpt lat="44.56218795097232" lon="10.235584336310524"><ele>400.0</ele><time>2026-04-04T16:01:27Z</time></trkpt><trkpt lat="44.56225557768584" lon="10.235601093216692"><ele>400.00000000000006</ele><time>2026-04-04T16:01:28Z</time></trkpt><trkpt lat="44.56233776034939" lon="10.235614771603068"><ele>400.0</ele><time>2026-04-04T16:01:29Z</time></trkpt><trkpt lat="44.56242657633362" lon="10.235617644899916"><ele>400.0</ele><time>2026-04-04T16:01:30Z</time></trkpt><trkpt lat="44.56251936213869" lon="10.235632587157047"><ele>400.0</ele><time>2026-04-04T16:01:31Z</time></trkpt><trkpt lat="44.56258827639825" lon="10.235648804106829"><ele>400.00000000000006</ele><time>2026-04-04T16:01:32Z</time></trkpt><trkpt lat="44.56264554225821" lon="10.235692322031971"><ele>400.0</ele><time>2026-04-04T16:01:33Z</time></trkpt><trkpt lat="44.5626861158683" lon="10.235772499170816"><ele>402.00000000000006</ele><time>2026-04-04T16:01:34Z</time></trkpt><trkpt lat="44.56269893999231" lon="10.23587454705139"><ele>404.0</ele><time>2026-04-04T16:01:35Z</time></trkpt><trkpt lat="44.56268415787497" lon="10.235972046120812"><ele>406.0</ele><time>2026-04-04T16:01:36Z</time></trkpt><trkpt lat="44.56267963547614" lon="10.236067616220087"><ele>408.0</ele><time>2026-04-04T16:01:37Z</time></trkpt><trkpt lat="44.562716478380885" lon="10.23615618982839"><ele>410.00000000000006</ele><time>2026-04-04T16:01:38Z</time></trkpt><trkpt lat="44.562774409505764" lon="10.236239897666753"><ele>412.0</ele><time>2026-04-04T16:01:39Z</time></trkpt><trkpt lat="44.56284101230605" lon="10.236338451592184"><ele>412.25</ele><time>2026-04-04T16:01:40Z</time></trkpt><trkpt lat="44.56291291071674" lon="10.236441478499891"><ele>412.5</ele><time>2026-04-04T16:01:41Z</time></trkpt><trkpt lat="44.56300018371633" lon="10.236559296170428"><ele>412.75</ele><time>2026-04-04T16:01:42Z</time></trkpt><trkpt lat="44.56308567143364" lon="10.236678459784518"><ele>413.0</ele><time>2026-04-04T16:01:43Z</time></trkpt><trkpt lat="44.56317320305519" lon="10.236802219832237"><ele>413.0</ele><time>2026-04-04T16:01:44Z</time></trkpt><trkpt lat="44.5632555017541" lon="10.236934835762751"><ele>413.0</ele><time>2026-04-04T16:01:45Z</time></trkpt><trkpt lat="44.56334051005213" lon="10.237056479430514"><ele>413.0</ele><time>2026-04-04T16:01:46Z</time></trkpt><trkpt lat="44.563421613540605" lon="10.237179183050552"><ele>413.0</ele><time>2026-04-04T16:01:47Z</time></trkpt><trkpt lat="44.563503768169795" lon="10.237302420082269"><ele>415.2</ele><time>2026-04-04T16:01:48Z</time></trkpt><trkpt lat="44.563579478180166" lon="10.237419799003854"><ele>417.4</ele><time>2026-04-04T16:01:49Z</time></trkpt><trkpt lat="44.56365590508426" lon="10.237527274646009"><ele>419.59999999999997</ele><time>2026-04-04T16:01:50Z</time></trkpt><trkpt lat="44.5637130114312" lon="10.23765941606986"><ele>421.79999999999995</ele><time>2026-04-04T16:01:51Z</time></trkpt><trkpt lat="44.56377666522644" lon="10.23778754369936"><ele>424.0</ele><time>2026-04-04T16:01:52Z</time></trkpt><trkpt lat="44.563835319478486" lon="10.23792012320692"><ele>419.0</ele><time>2026-04-04T16:01:53Z</time></trkpt><trkpt lat="44.56385505015192" lon="10.238088198106446"><ele>414.0</ele><time>2026-04-04T16:01:54Z</time></trkpt><trkpt lat="44.563829751480235" lon="10.238258797225916"><ele>409.0</ele><time>2026-04-04T16:01:55Z</time></trkpt><trkpt lat="44.56382027589589" lon="10.238427000671942"><ele>404.0</ele><time>2026-04-04T16:01:56Z</time></trkpt><trkpt lat="44.56379131289289" lon="10.238573900873778"><ele>404.0</ele><time>2026-04-04T16:01:57Z</time></trkpt><trkpt lat="44.56377408663807" lon="10.23869948847186"><ele>404.0</ele><time>2026-04-04T16:01:58Z</time></trkpt><trkpt lat="44.56377280998478" lon="10.238822362960933"><ele>404.0</ele><time>2026-04-04T16:01:59Z</time></trkpt><trkpt lat="44.56380908824886" lon="10.238945426716054"><ele>404.0</ele><time>2026-04-04T16:02:00Z</time></trkpt><trkpt lat="44.56388601563418" lon="10.239050290418458"><ele>404.0</ele><time>2026-04-04T16:02:01Z</time></trkpt><trkpt lat="44.56398280248825" lon="10.239106301720486"><ele>407.25</ele><time>2026-04-04T16:02:02Z</time></trkpt><trkpt lat="44.564108248033" lon="10.239108168568306"><ele>410.5</ele><time>2026-04-04T16:02:03Z</time></trkpt><trkpt lat="44.56423201763125" lon="10.239080433220513"><ele>413.75</ele><time>2026-04-04T16:02:04Z</time></trkpt><trkpt lat="44.5643502021212" lon="10.239071210161471"><ele>417.0</ele><time>2026-04-04T16:02:05Z</time></trkpt><trkpt lat="44.564461238463984" lon="10.239142077489308"><ele>414.5</ele><time>2026-04-04T16:02:06Z</time></trkpt><trkpt lat="44.56456051647588" lon="10.239233722819376"><ele>412.0</ele><time>2026-04-04T16:02:07Z</time></trkpt><trkpt lat="44.564668588223284" lon="10.239299103718976"><ele>409.5</ele><time>2026-04-04T16:02:08Z</time></trkpt><trkpt lat="44.5648148130354" lon="10.239290830300627"><ele>407.0</ele><time>2026-04-04T16:02:09Z</time></trkpt><trkpt lat="44.564965512673346" lon="10.23927996022358"><ele>407.0</ele><time>2026-04-04T16:02:10Z</time></trkpt><trkpt lat="44.56510256067107" lon="10.239301020446133"><ele>407.0</ele><time>2026-04-04T16:02:11Z</time></trkpt><trkpt lat="44.56522813879409" lon="10.239310534025268"><ele>407.0</ele><time>2026-04-04T16:02:12Z</time></trkpt><trkpt lat="44.56535149709467" lon="10.239298183450858"><ele>407.0</ele><time>2026-04-04T16:02:13Z</time></trkpt><trkpt lat="44.56548397054323" lon="10.239306692975621"><ele>403.25</ele><time>2026-04-04T16:02:14Z</time></trkpt><trkpt lat="44.565615156381156" lon="10.239362377119962"><ele>399.5</ele><time>2026-04-04T16:02:15Z</time></trkpt><trkpt lat="44.5657505111111" lon="10.239425980512495"><ele>395.75</ele><time>2026-04-04T16:02:16Z</time></trkpt><trkpt lat="44.5658916309638" lon="10.239444873523274"><ele>392.0</ele><time>2026-04-04T16:02:17Z</time></trkpt><trkpt lat="44.56603414545018" lon="10.239480789868129"><ele>392.0</ele><time>2026-04-04T16:02:18Z</time></trkpt><trkpt lat="44.56616049310465" lon="10.239510918714327"><ele>392.0</ele><time>2026-04-04T16:02:19Z</time></trkpt><trkpt lat="44.56626219591156" lon="10.239548521038754"><ele>392.0</ele><time>2026-04-04T16:02:20Z</time></trkpt><trkpt lat="44.566339569820265" lon="10.239606121630175"><ele>392.0</ele><time>2026-04-04T16:02:21Z</time></trkpt><trkpt lat="44.566412277973015" lon="10.239664784170692"><ele>392.0</ele><time>2026-04-04T16:02:22Z</time></trkpt><trkpt lat="44.56645593668887" lon="10.239777102441286"><ele>391.25</ele><time>2026-04-04T16:02:23Z</time></trkpt><trkpt lat="44.566445333068415" lon="10.239934679538896"><ele>390.5</ele><time>2026-04-04T16:02:24Z</time></trkpt><trkpt lat="44.56644869990298" lon="10.240111364813314"><ele>389.75</ele><time>2026-04-04T16:02:25Z</time></trkpt><trkpt lat="44.56648646759331" lon="10.24027142695895"><ele>389.0</ele><time>2026-04-04T16:02:26Z</time></trkpt><trkpt lat="44.56654116403722" lon="10.24045154529268"><ele>389.0</ele><time>2026-04-04T16:02:27Z</time></trkpt><trkpt lat="44.566606158577805" lon="10.240592184579555"><ele>389.0</ele><time>2026-04-04T16:02:28Z</time></trkpt><trkpt lat="44.56662086734977" lon="10.240727519706518"><ele>389.0</ele><time>2026-04-04T16:02:29Z</time></trkpt><trkpt lat="44.566615952838376" lon="10.24085658431412"><ele>389.0</ele><time>2026-04-04T16:02:30Z</time></trkpt><trkpt lat="44.56655634903907" lon="10.240984338386703"><ele>389.0</ele><time>2026-04-04T16:02:31Z</time></trkpt><trkpt lat="44.566480684910545" lon="10.241143171100198"><ele>389.25</ele><time>2026-04-04T16:02:32Z</time></trkpt><trkpt lat="44.566417250992515" lon="10.24133040978129"><ele>389.5</ele><time>2026-04-04T16:02:33Z</time></trkpt><trkpt lat="44.566352864586584" lon="10.241522874031682"><ele>389.75</ele><time>2026-04-04T16:02:34Z</time></trkpt><trkpt lat="44.5662961611762" lon="10.241704822071389"><ele>390.0</ele><time>2026-04-04T16:02:35Z</time></trkpt><trkpt lat="44.56626065022694" lon="10.241884007403595"><ele>387.5</ele><time>2026-04-04T16:02:36Z</time></trkpt><trkpt lat="44.5662573055392" lon="10.242065778939665"><ele>385.0</ele><time>2026-04-04T16:02:37Z</time></trkpt><trkpt lat="44.56629269400044" lon="10.24223226894106"><ele>382.5</ele><time>2026-04-04T16:02:38Z</time></trkpt><trkpt lat="44.566375352703886" lon="10.242382959423386"><ele>380.0</ele><time>2026-04-04T16:02:39Z</time></trkpt><trkpt lat="44.566474005586926" lon="10.242519767732746"><ele>379.4</ele><time>2026-04-04T16:02:40Z</time></trkpt><trkpt lat="44.566524586956774" lon="10.242687889413403"><ele>378.8</ele><time>2026-04-04T16:02:41Z</time></trkpt><trkpt lat="44.56655089943028" lon="10.242813126159861"><ele>378.20000000000005</ele><time>2026-04-04T16:02:42Z</time></trkpt><trkpt lat="44.56651054329408" lon="10.2429219982639"><ele>377.6</ele><time>2026-04-04T16:02:43Z</time></trkpt><trkpt lat="44.566490561800116" lon="10.243024738667005"><ele>377.0</ele><time>2026-04-04T16:02:44Z</time></trkpt><trkpt lat="44.566479492479814" lon="10.243156020427998"><ele>377.0</ele><time>2026-04-04T16:02:45Z</time></trkpt><trkpt lat="44.566505835015256" lon="10.24328066127988"><ele>377.0</ele><time>2026-04-04T16:02:46Z</time></trkpt><trkpt lat="44.56659936237469" lon="10.243431331307821"><ele>377.0</ele><time>2026-04-04T16:02:47Z</time></trkpt><trkpt lat="44.566695733482035" lon="10.24353921667668"><ele>377.0</ele><time>2026-04-04T16:02:48Z</time></trkpt><trkpt lat="44.566779272710306" lon="10.24363668220647"><ele>377.0</ele><time>2026-04-04T16:02:49Z</time></trkpt><trkpt lat="44.56685747706943" lon="10.243716697597492"><ele>377.0</ele><time>2026-04-04T16:02:50Z</time></trkpt><trkpt lat="44.56690914927872" lon="10.243833952093361"><ele>377.0</ele><time>2026-04-04T16:02:51Z</time></trkpt><trkpt lat="44.56695851756611" lon="10.244004346269044"><ele>377.0</ele><time>2026-04-04T16:02:52Z</time></trkpt><trkpt lat="44.566967655018836" lon="10.244209932269483"><ele>377.25</ele><time>2026-04-04T16:02:53Z</time></trkpt><trkpt lat="44.56697649823468" lon="10.244391769745782"><ele>377.5</ele><time>2026-04-04T16:02:54Z</time></trkpt><trkpt lat="44.566982623087355" lon="10.244579540301253"><ele>377.75</ele><time>2026-04-04T16:02:55Z</time></trkpt><trkpt lat="44.56699095510164" lon="10.244758819559046"><ele>378.0</ele><time>2026-04-04T16:02:56Z</time></trkpt><trkpt lat="44.56700125688718" lon="10.244939968031382"><ele>378.25</ele><time>2026-04-04T16:02:57Z</time></trkpt><trkpt lat="44.56701440691965" lon="10.245148151771525"><ele>378.5</ele><time>2026-04-04T16:02:58Z</time></trkpt><trkpt lat="44.567023180137944" lon="10.245355683865286"><ele>378.75</ele><time>2026-04-04T16:02:59Z</time></trkpt><trkpt lat="44.567025852801486" lon="10.245540498078237"><ele>379.0</ele><time>2026-04-04T16:03:00Z</time></trkpt><trkpt lat="44.56701430592162" lon="10.24570961509955"><ele>379.0</ele><time>2026-04-04T16:03:01Z</time></trkpt><trkpt lat="44.56699863466821" lon="10.2458596472999"><ele>379.0</ele><time>2026-04-04T16:03:02Z</time></trkpt><trkpt lat="44.56698873612022" lon="10.246008307558165"><ele>379.0</ele><time>2026-04-04T16:03:03Z</time></trkpt><trkpt lat="44.56701481218288" lon="10.246150941339964"><ele>379.0</ele><time>2026-04-04T16:03:04Z</time></trkpt><trkpt lat="44.567055843796126" lon="10.246273685846582"><ele>379.0</ele><time>2026-04-04T16:03:05Z</time></trkpt><trkpt lat="44.567119082744874" lon="10.246379656070163"><ele>378.4</ele><time>2026-04-04T16:03:06Z</time></trkpt><trkpt lat="44.567200575339356" lon="10.246468683950129"><ele>377.79999999999995</ele><time>2026-04-04T16:03:07Z</time></trkpt><trkpt lat="44.56727739028612" lon="10.246533098191339"><ele>377.20000000000005</ele><time>2026-04-04T16:03:08Z</time></trkpt><trkpt lat="44.5673646864893" lon="10.246553498411549"><ele>376.6</ele><time>2026-04-04T16:03:09Z</time></trkpt><trkpt lat="44.567470530772106" lon="10.24654659838613"><ele>376.0</ele><time>2026-04-04T16:03:10Z</time></trkpt><trkpt lat="44.567591804450316" lon="10.24649881749114"><ele>373.3333333333333</ele><time>2026-04-04T16:03:11Z</time></trkpt><trkpt lat="44.56773214411196" lon="10.246415834016528"><ele>370.6666666666667</ele><time>2026-04-04T16:03:12Z</time></trkpt><trkpt lat="44.56787128093116" lon="10.246373707250568"><ele>368.0</ele><time>2026-04-04T16:03:13Z</time></trkpt><trkpt lat="44.56803833143183" lon="10.246323555839838"><ele>367.6666666666667</ele><time>2026-04-04T16:03:14Z</time></trkpt><trkpt lat="44.56818922898835" lon="10.246295097360274"><ele>367.3333333333333</ele><time>2026-04-04T16:03:15Z</time></trkpt><trkpt lat="44.56835287930421" lon="10.246285411522251"><ele>367.0</ele><time>2026-04-04T16:03:16Z</time></trkpt><trkpt lat="44.568511056219485" lon="10.246271308566392"><ele>367.0</ele><time>2026-04-04T16:03:17Z</time></trkpt><trkpt lat="44.56865000031613" lon="10.246258920418997"><ele>367.0</ele><time>2026-04-04T16:03:18Z</time></trkpt><trkpt lat="44.56879726538135" lon="10.246246531214954"><ele>367.0</ele><time>2026-04-04T16:03:19Z</time></trkpt><trkpt lat="44.56895101138594" lon="10.246237428487337"><ele>367.0</ele><time>2026-04-04T16:03:20Z</time></trkpt><trkpt lat="44.56906893794288" lon="10.246251687319187"><ele>368.75</ele><time>2026-04-04T16:03:21Z</time></trkpt><trkpt lat="44.569177312794885" lon="10.24629383591818"><ele>370.5</ele><time>2026-04-04T16:03:22Z</time></trkpt><trkpt lat="44.5692721424787" lon="10.246378992798688"><ele>372.25</ele><time>2026-04-04T16:03:23Z</time></trkpt><trkpt lat="44.56937798694826" lon="10.246464118455842"><ele>374.0</ele><time>2026-04-04T16:03:24Z</time></trkpt><trkpt lat="44.56947281615302" lon="10.24654596208023"><ele>376.79999999999995</ele><time>2026-04-04T16:03:25Z</time></trkpt><trkpt lat="44.56957615821861" lon="10.246560187453342"><ele>379.59999999999997</ele><time>2026-04-04T16:03:26Z</time></trkpt><trkpt lat="44.5696824851451" lon="10.246538305407713"><ele>382.4</ele><time>2026-04-04T16:03:27Z</time></trkpt><trkpt lat="44.56977531668868" lon="10.24648243086982"><ele>385.2</ele><time>2026-04-04T16:03:28Z</time></trkpt><trkpt lat="44.56985943300284" lon="10.24639168814993"><ele>388.0</ele><time>2026-04-04T16:03:29Z</time></trkpt><trkpt lat="44.56992231709961" lon="10.246268908360506"><ele>388.00000000000006</ele><time>2026-04-04T16:03:30Z</time></trkpt><trkpt lat="44.56996212386787" lon="10.246143300229818"><ele>388.0</ele><time>2026-04-04T16:03:31Z</time></trkpt><trkpt lat="44.570021123275716" lon="10.246046492353646"><ele>388.0</ele><time>2026-04-04T16:03:32Z</time></trkpt><trkpt lat="44.570072544456565" lon="10.245970679894468"><ele>388.0</ele><time>2026-04-04T16:03:33Z</time></trkpt><trkpt lat="44.57014060358981" lon="10.24590786198041"><ele>388.00000000000006</ele><time>2026-04-04T16:03:34Z</time></trkpt><trkpt lat="44.570199541869684" lon="10.245875732010646"><ele>388.0</ele><time>2026-04-04T16:03:35Z</time></trkpt><trkpt lat="44.57027293473646" lon="10.246015418866854"><ele>388.0</ele><time>2026-04-04T16:03:37Z</time></trkpt><trkpt lat="44.570251833417856" lon="10.246126202496413"><ele>388.0</ele><time>2026-04-04T16:03:38Z</time></trkpt><trkpt lat="44.57021557480007" lon="10.246237223871614"><ele>388.0</ele><time>2026-04-04T16:03:39Z</time></trkpt><trkpt lat="44.57018921306576" lon="10.246369502119915"><ele>388.0</ele><time>2026-04-04T16:03:40Z</time></trkpt><trkpt lat="44.57016384808753" lon="10.246520617173664"><ele>388.0</ele><time>2026-04-04T16:03:41Z</time></trkpt><trkpt lat="44.570109535729905" lon="10.246641611734665"><ele>389.59999999999997</ele><time>2026-04-04T16:03:42Z</time></trkpt><trkpt lat="44.57004672714686" lon="10.246755737009833"><ele>391.2</ele><time>2026-04-04T16:03:43Z</time></trkpt><trkpt lat="44.56996516888981" lon="10.246866139152765"><ele>392.8</ele><time>2026-04-04T16:03:44Z</time></trkpt><trkpt lat="44.56986629318015" lon="10.24694607501556"><ele>394.4</ele><time>2026-04-04T16:03:45Z</time></trkpt><trkpt lat="44.569763860341425" lon="10.246966685232367"><ele>396.0</ele><time>2026-04-04T16:03:46Z</time></trkpt><trkpt lat="44.56965641669555" lon="10.246980363069131"><ele>396.0</ele><time>2026-04-04T16:03:47Z</time></trkpt><trkpt lat="44.56956620433618" lon="10.246997050922738"><ele>396.0</ele><time>2026-04-04T16:03:48Z</time></trkpt><trkpt lat="44.5695043547452" lon="10.247015159335373"><ele>396.0</ele><time>2026-04-04T16:03:49Z</time></trkpt><trkpt lat="44.569475084832575" lon="10.247094064758711"><ele>396.0</ele><time>2026-04-04T16:03:51Z</time></trkpt><trkpt lat="44.56941875812713" lon="10.247205810917784"><ele>396.0</ele><time>2026-04-04T16:03:53Z</time></trkpt><trkpt lat="44.569365853603294" lon="10.247313490253237"><ele>396.0</ele><time>2026-04-04T16:03:54Z</time></trkpt><trkpt lat="44.56929076576187" lon="10.247402060029389"><ele>398.5</ele><time>2026-04-04T16:03:55Z</time></trkpt><trkpt lat="44.56918898043352" lon="10.24746348532158"><ele>401.0</ele><time>2026-04-04T16:03:56Z</time></trkpt><trkpt lat="44.56907292618567" lon="10.247462880722646"><ele>403.5</ele><time>2026-04-04T16:03:57Z</time></trkpt><trkpt lat="44.56894836877561" lon="10.247444256460927"><ele>406.0</ele><time>2026-04-04T16:03:58Z</time></trkpt><trkpt lat="44.568826354779034" lon="10.247420095923403"><ele>406.0</ele><time>2026-04-04T16:03:59Z</time></trkpt><trkpt lat="44.56872498351011" lon="10.247374071529492"><ele>406.0</ele><time>2026-04-04T16:04:00Z</time></trkpt><trkpt lat="44.56862959611534" lon="10.247345555442354"><ele>406.0</ele><time>2026-04-04T16:04:01Z</time></trkpt><trkpt lat="44.568566608716466" lon="10.24729891727332"><ele>406.0</ele><time>2026-04-04T16:04:02Z</time></trkpt><trkpt lat="44.56846225763439" lon="10.247344608760683"><ele>406.0</ele><time>2026-04-04T16:04:04Z</time></trkpt><trkpt lat="44.568442704902175" lon="10.247524026149984"><ele>406.0</ele><time>2026-04-04T16:04:06Z</time></trkpt><trkpt lat="44.56845836531988" lon="10.247613762732017"><ele>406.0</ele><time>2026-04-04T16:04:07Z</time></trkpt><trkpt lat="44.56855429614714" lon="10.247645119065217"><ele>406.0</ele><time>2026-04-04T16:04:08Z</time></trkpt><trkpt lat="44.56864658090585" lon="10.247657226807181"><ele>406.0</ele><time>2026-04-04T16:04:09Z</time></trkpt><trkpt lat="44.56874972139795" lon="10.247677390825062"><ele>406.0</ele><time>2026-04-04T16:04:10Z</time></trkpt><trkpt lat="44.56886130708809" lon="10.247681886458283"><ele>406.0</ele><time>2026-04-04T16:04:11Z</time></trkpt><trkpt lat="44.56899082775915" lon="10.2476824329696"><ele>406.0</ele><time>2026-04-04T16:04:12Z</time></trkpt><trkpt lat="44.56913158367313" lon="10.247723753237963"><ele>406.0</ele><time>2026-04-04T16:04:13Z</time></trkpt><trkpt lat="44.56924993255569" lon="10.247746210854233"><ele>406.0</ele><time>2026-04-04T16:04:14Z</time></trkpt><trkpt lat="44.56936996720134" lon="10.247766362249317"><ele>406.0</ele><time>2026-04-04T16:04:15Z</time></trkpt><trkpt lat="44.56949269300972" lon="10.247713930060835"><ele>406.0</ele><time>2026-04-04T16:04:16Z</time></trkpt><trkpt lat="44.569639745078526" lon="10.247679490261252"><ele>406.0</ele><time>2026-04-04T16:04:17Z</time></trkpt><trkpt lat="44.5697964041949" lon="10.247657826075194"><ele>406.0</ele><time>2026-04-04T16:04:18Z</time></trkpt><trkpt lat="44.56993875861189" lon="10.247639859782687"><ele>406.8</ele><time>2026-04-04T16:04:19Z</time></trkpt><trkpt lat="44.5700596875469" lon="10.247629573962838"><ele>407.6</ele><time>2026-04-04T16:04:20Z</time></trkpt><trkpt lat="44.57016341833486" lon="10.24762108702065"><ele>408.4</ele><time>2026-04-04T16:04:21Z</time></trkpt><trkpt lat="44.570237572225174" lon="10.247623821272184"><ele>409.2</ele><time>2026-04-04T16:04:22Z</time></trkpt><trkpt lat="44.570328649096034" lon="10.247668849527253"><ele>410.0</ele><time>2026-04-04T16:04:24Z</time></trkpt><trkpt lat="44.570355604478536" lon="10.247822272412984"><ele>410.0</ele><time>2026-04-04T16:04:26Z</time></trkpt><trkpt lat="44.57030084881005" lon="10.247898058055034"><ele>410.0</ele><time>2026-04-04T16:04:27Z</time></trkpt><trkpt lat="44.57020763115991" lon="10.24794321471256"><ele>410.0</ele><time>2026-04-04T16:04:28Z</time></trkpt><trkpt lat="44.570109080665794" lon="10.247966780808213"><ele>410.0</ele><time>2026-04-04T16:04:29Z</time></trkpt><trkpt lat="44.5700143234592" lon="10.247984017709822"><ele>410.0</ele><time>2026-04-04T16:04:30Z</time></trkpt><trkpt lat="44.56991968749575" lon="10.24802741424196"><ele>409.99999999999994</ele><time>2026-04-04T16:04:31Z</time></trkpt><trkpt lat="44.56984410390651" lon="10.248072043990597"><ele>410.0</ele><time>2026-04-04T16:04:32Z</time></trkpt><trkpt lat="44.569793214608936" lon="10.24812984565538"><ele>410.0</ele><time>2026-04-04T16:04:33Z</time></trkpt><trkpt lat="44.569764768182075" lon="10.24821971179519"><ele>410.0</ele><time>2026-04-04T16:04:34Z</time></trkpt><trkpt lat="44.56977656331984" lon="10.24832466854026"><ele>409.99999999999994</ele><time>2026-04-04T16:04:35Z</time></trkpt><trkpt lat="44.56981810513184" lon="10.248415153460398"><ele>410.0</ele><time>2026-04-04T16:04:36Z</time></trkpt><trkpt lat="44.56990748453521" lon="10.248433820468158"><ele>413.2</ele><time>2026-04-04T16:04:37Z</time></trkpt><trkpt lat="44.56999846721684" lon="10.248412906809367"><ele>416.4</ele><time>2026-04-04T16:04:38Z</time></trkpt><trkpt lat="44.57009473067807" lon="10.248363765666651"><ele>419.6</ele><time>2026-04-04T16:04:39Z</time></trkpt><trkpt lat="44.57021001912713" lon="10.248348451430461"><ele>422.8</ele><time>2026-04-04T16:04:40Z</time></trkpt><trkpt lat="44.57032588236838" lon="10.24831863932614"><ele>426.0</ele><time>2026-04-04T16:04:41Z</time></trkpt><trkpt lat="44.57044892886326" lon="10.248288448297986"><ele>427.0</ele><time>2026-04-04T16:04:42Z</time></trkpt><trkpt lat="44.57057198749202" lon="10.248262959835618"><ele>428.0</ele><time>2026-04-04T16:04:43Z</time></trkpt><trkpt lat="44.5706898423858" lon="10.248222711013712"><ele>429.0</ele><time>2026-04-04T16:04:44Z</time></trkpt><trkpt lat="44.570811074010344" lon="10.248243870743524"><ele>430.0</ele><time>2026-04-04T16:04:45Z</time></trkpt><trkpt lat="44.57092428932949" lon="10.248271841950254"><ele>430.0</ele><time>2026-04-04T16:04:46Z</time></trkpt><trkpt lat="44.57104243237502" lon="10.248286239186935"><ele>430.0</ele><time>2026-04-04T16:04:47Z</time></trkpt><trkpt lat="44.571147587421" lon="10.248302417667615"><ele>430.0</ele><time>2026-04-04T16:04:48Z</time></trkpt><trkpt lat="44.571250031490194" lon="10.248281512822752"><ele>430.0</ele><time>2026-04-04T16:04:49Z</time></trkpt><trkpt lat="44.57135420394305" lon="10.24823076393453"><ele>430.0</ele><time>2026-04-04T16:04:50Z</time></trkpt><trkpt lat="44.57144705096666" lon="10.248119694911882"><ele>430.8</ele><time>2026-04-04T16:04:51Z</time></trkpt><trkpt lat="44.571543584917215" lon="10.248063468249484"><ele>431.6</ele><time>2026-04-04T16:04:52Z</time></trkpt><trkpt lat="44.57163396584802" lon="10.248050513999175"><ele>432.4</ele><time>2026-04-04T16:04:53Z</time></trkpt><trkpt lat="44.57171821062584" lon="10.248037808590304"><ele>433.2</ele><time>2026-04-04T16:04:54Z</time></trkpt><trkpt lat="44.57178599991329" lon="10.248129779707927"><ele>434.0</ele><time>2026-04-04T16:04:55Z</time></trkpt><trkpt lat="44.57184722537312" lon="10.248244430862936"><ele>434.0</ele><time>2026-04-04T16:04:56Z</time></trkpt><trkpt lat="44.571873093638914" lon="10.248385716471448"><ele>434.0</ele><time>2026-04-04T16:04:57Z</time></trkpt><trkpt lat="44.57186468573578" lon="10.248534125544433"><ele>434.0</ele><time>2026-04-04T16:04:58Z</time></trkpt><trkpt lat="44.57182125324428" lon="10.24867080945962"><ele>434.0</ele><time>2026-04-04T16:04:59Z</time></trkpt><trkpt lat="44.571741426966085" lon="10.248775447609738"><ele>434.0</ele><time>2026-04-04T16:05:00Z</time></trkpt><trkpt lat="44.57166262758572" lon="10.248876426453862"><ele>435.4</ele><time>2026-04-04T16:05:01Z</time></trkpt><trkpt lat="44.57159547029643" lon="10.248982588603697"><ele>436.79999999999995</ele><time>2026-04-04T16:05:02Z</time></trkpt><trkpt lat="44.57156798455667" lon="10.249109473891991"><ele>438.20000000000005</ele><time>2026-04-04T16:05:03Z</time></trkpt><trkpt lat="44.571578173081676" lon="10.249236208284467"><ele>439.6</ele><time>2026-04-04T16:05:04Z</time></trkpt><trkpt lat="44.57161822728305" lon="10.249368214736382"><ele>441.0</ele><time>2026-04-04T16:05:05Z</time></trkpt><trkpt lat="44.57168161918874" lon="10.249496456400047"><ele>441.0</ele><time>2026-04-04T16:05:06Z</time></trkpt><trkpt lat="44.57176181371764" lon="10.249622359472987"><ele>441.0</ele><time>2026-04-04T16:05:07Z</time></trkpt><trkpt lat="44.571858685586704" lon="10.249738185209562"><ele>441.0</ele><time>2026-04-04T16:05:08Z</time></trkpt><trkpt lat="44.57196162009843" lon="10.24984167082634"><ele>441.0</ele><time>2026-04-04T16:05:09Z</time></trkpt><trkpt lat="44.57206294406872" lon="10.249903748940206"><ele>441.0</ele><time>2026-04-04T16:05:10Z</time></trkpt><trkpt lat="44.572176378671905" lon="10.249910382111384"><ele>441.0</ele><time>2026-04-04T16:05:11Z</time></trkpt><trkpt lat="44.572297146660766" lon="10.249886376352768"><ele>441.0</ele><time>2026-04-04T16:05:12Z</time></trkpt><trkpt lat="44.572402401651445" lon="10.249885103149657"><ele>441.0</ele><time>2026-04-04T16:05:13Z</time></trkpt><trkpt lat="44.57249215022098" lon="10.249954833481135"><ele>441.0</ele><time>2026-04-04T16:05:14Z</time></trkpt><trkpt lat="44.572562160602374" lon="10.25006740612732"><ele>441.0</ele><time>2026-04-04T16:05:15Z</time></trkpt><trkpt lat="44.57261123812943" lon="10.250201025376537"><ele>441.0</ele><time>2026-04-04T16:05:16Z</time></trkpt><trkpt lat="44.572670671981484" lon="10.250340418171081"><ele>441.0</ele><time>2026-04-04T16:05:17Z</time></trkpt><trkpt lat="44.57275321481796" lon="10.250470011844"><ele>441.0</ele><time>2026-04-04T16:05:18Z</time></trkpt><trkpt lat="44.572841652724584" lon="10.250569544950636"><ele>442.75</ele><time>2026-04-04T16:05:19Z</time></trkpt><trkpt lat="44.57296435630734" lon="10.250636949974872"><ele>444.5</ele><time>2026-04-04T16:05:20Z</time></trkpt><trkpt lat="44.573113800004364" lon="10.250673393045945"><ele>446.25</ele><time>2026-04-04T16:05:21Z</time></trkpt><trkpt lat="44.57325072322182" lon="10.250699811213778"><ele>448.0</ele><time>2026-04-04T16:05:22Z</time></trkpt><trkpt lat="44.5733747117029" lon="10.250764151999014"><ele>448.0</ele><time>2026-04-04T16:05:23Z</time></trkpt><trkpt lat="44.57349771037643" lon="10.250808236857058"><ele>447.99999999999994</ele><time>2026-04-04T16:05:24Z</time></trkpt><trkpt lat="44.573596405317325" lon="10.250897639223444"><ele>447.99999999999994</ele><time>2026-04-04T16:05:25Z</time></trkpt><trkpt lat="44.573651030647696" lon="10.25100640561361"><ele>448.0</ele><time>2026-04-04T16:05:26Z</time></trkpt><trkpt lat="44.57364523651502" lon="10.251154370947825"><ele>448.0</ele><time>2026-04-04T16:05:27Z</time></trkpt><trkpt lat="44.57366188183275" lon="10.251327521610628"><ele>451.5</ele><time>2026-04-04T16:05:28Z</time></trkpt><trkpt lat="44.57368078958314" lon="10.25151798099193"><ele>455.0</ele><time>2026-04-04T16:05:29Z</time></trkpt><trkpt lat="44.57367903261881" lon="10.251691557859262"><ele>458.5</ele><time>2026-04-04T16:05:30Z</time></trkpt><trkpt lat="44.5736437054435" lon="10.251866667496365"><ele>462.0</ele><time>2026-04-04T16:05:31Z</time></trkpt><trkpt lat="44.573622714257205" lon="10.252065827138296"><ele>462.0</ele><time>2026-04-04T16:05:32Z</time></trkpt><trkpt lat="44.57362878813702" lon="10.25224315876873"><ele>462.0</ele><time>2026-04-04T16:05:33Z</time></trkpt><trkpt lat="44.57362374808437" lon="10.2524006934853"><ele>462.0</ele><time>2026-04-04T16:05:34Z</time></trkpt><trkpt lat="44.57365224899876" lon="10.25252512688625"><ele>462.0</ele><time>2026-04-04T16:05:35Z</time></trkpt><trkpt lat="44.57373779438176" lon="10.252689067012895"><ele>460.5</ele><time>2026-04-04T16:05:36Z</time></trkpt><trkpt lat="44.573832602595914" lon="10.252819988456604"><ele>459.0</ele><time>2026-04-04T16:05:37Z</time></trkpt><trkpt lat="44.5739183593429" lon="10.252888461290281"><ele>457.5</ele><time>2026-04-04T16:05:38Z</time></trkpt><trkpt lat="44.574003171543595" lon="10.25305814407481"><ele>456.0</ele><time>2026-04-04T16:05:39Z</time></trkpt><trkpt lat="44.57405242472211" lon="10.253219794679191"><ele>456.0</ele><time>2026-04-04T16:05:40Z</time></trkpt><trkpt lat="44.5740734895783" lon="10.253358197508078"><ele>456.0</ele><time>2026-04-04T16:05:41Z</time></trkpt><trkpt lat="44.57406894471141" lon="10.253482869179022"><ele>456.0</ele><time>2026-04-04T16:05:42Z</time></trkpt><trkpt lat="44.57401593546264" lon="10.253628345215596"><ele>456.0</ele><time>2026-04-04T16:05:43Z</time></trkpt><trkpt lat="44.57396173595661" lon="10.253809028819292"><ele>456.0</ele><time>2026-04-04T16:05:44Z</time></trkpt><trkpt lat="44.573913022667476" lon="10.253977471090641"><ele>457.25</ele><time>2026-04-04T16:05:45Z</time></trkpt><trkpt lat="44.573894733352105" lon="10.254147359329046"><ele>458.5</ele><time>2026-04-04T16:05:46Z</time></trkpt><trkpt lat="44.57392819227269" lon="10.254312147409966"><ele>459.75</ele><time>2026-04-04T16:05:47Z</time></trkpt><trkpt lat="44.5739906000456" lon="10.25447050505286"><ele>461.0</ele><time>2026-04-04T16:05:48Z</time></trkpt><trkpt lat="44.57407835349353" lon="10.254636438112065"><ele>462.25</ele><time>2026-04-04T16:05:49Z</time></trkpt><trkpt lat="44.574143772529936" lon="10.254813162610125"><ele>463.5</ele><time>2026-04-04T16:05:50Z</time></trkpt><trkpt lat="44.574217661761516" lon="10.254996472715925"><ele>464.75</ele><time>2026-04-04T16:05:51Z</time></trkpt><trkpt lat="44.57433426300906" lon="10.255140125391806"><ele>466.0</ele><time>2026-04-04T16:05:52Z</time></trkpt><trkpt lat="44.57449261139469" lon="10.255274690862427"><ele>467.6666666666667</ele><time>2026-04-04T16:05:53Z</time></trkpt><trkpt lat="44.574656196621454" lon="10.255404433139162"><ele>469.33333333333337</ele><time>2026-04-04T16:05:54Z</time></trkpt><trkpt lat="44.57481745659667" lon="10.2555442980327"><ele>471.0</ele><time>2026-04-04T16:05:55Z</time></trkpt><trkpt lat="44.57497375470256" lon="10.25571943113027"><ele>471.0</ele><time>2026-04-04T16:05:56Z</time></trkpt><trkpt lat="44.575153690998214" lon="10.25589675660909"><ele>471.0</ele><time>2026-04-04T16:05:57Z</time></trkpt><trkpt lat="44.57529893790855" lon="10.256063247106527"><ele>471.0</ele><time>2026-04-04T16:05:58Z</time></trkpt><trkpt lat="44.57542170070066" lon="10.256239129459068"><ele>471.5</ele><time>2026-04-04T16:05:59Z</time></trkpt><trkpt lat="44.57551541445133" lon="10.256399004080867"><ele>472.0</ele><time>2026-04-04T16:06:00Z</time></trkpt><trkpt lat="44.57557534329319" lon="10.256558904260329"><ele>472.5</ele><time>2026-04-04T16:06:01Z</time></trkpt><trkpt lat="44.57562998549293" lon="10.256759872444347"><ele>473.0</ele><time>2026-04-04T16:06:02Z</time></trkpt><trkpt lat="44.57567899824127" lon="10.256986037674489"><ele>473.0</ele><time>2026-04-04T16:06:03Z</time></trkpt><trkpt lat="44.57573695184186" lon="10.257219493459145"><ele>473.0</ele><time>2026-04-04T16:06:04Z</time></trkpt><trkpt lat="44.57579666468753" lon="10.257438161517026"><ele>473.0</ele><time>2026-04-04T16:06:05Z</time></trkpt><trkpt lat="44.57584496922328" lon="10.257634916008612"><ele>475.25</ele><time>2026-04-04T16:06:06Z</time></trkpt><trkpt lat="44.57588444311006" lon="10.257806873269786"><ele>477.5</ele><time>2026-04-04T16:06:07Z</time></trkpt><trkpt lat="44.575926213412906" lon="10.257961143449428"><ele>479.75</ele><time>2026-04-04T16:06:08Z</time></trkpt><trkpt lat="44.5760154816953" lon="10.258090017372815"><ele>482.0</ele><time>2026-04-04T16:06:09Z</time></trkpt><trkpt lat="44.57614135905579" lon="10.25816724037325"><ele>481.75</ele><time>2026-04-04T16:06:10Z</time></trkpt><trkpt lat="44.576218670579124" lon="10.258324716455286"><ele>481.5</ele><time>2026-04-04T16:06:11Z</time></trkpt><trkpt lat="44.57632525861191" lon="10.258443182334789"><ele>481.25</ele><time>2026-04-04T16:06:12Z</time></trkpt><trkpt lat="44.576447884153666" lon="10.258474752827764"><ele>481.0</ele><time>2026-04-04T16:06:13Z</time></trkpt><trkpt lat="44.57658742576947" lon="10.25851243220245"><ele>481.0</ele><time>2026-04-04T16:06:14Z</time></trkpt><trkpt lat="44.576727420609174" lon="10.258578748582615"><ele>481.0</ele><time>2026-04-04T16:06:15Z</time></trkpt><trkpt lat="44.576873044264396" lon="10.2586393064192"><ele>481.0</ele><time>2026-04-04T16:06:16Z</time></trkpt><trkpt lat="44.577031018976996" lon="10.258682385223981"><ele>482.25</ele><time>2026-04-04T16:06:17Z</time></trkpt><trkpt lat="44.577159712625864" lon="10.258741233179197"><ele>483.5</ele><time>2026-04-04T16:06:18Z</time></trkpt><trkpt lat="44.577272124213636" lon="10.25878564199129"><ele>484.75</ele><time>2026-04-04T16:06:19Z</time></trkpt><trkpt lat="44.57738193163282" lon="10.258824410838335"><ele>486.0</ele><time>2026-04-04T16:06:20Z</time></trkpt><trkpt lat="44.57748294802133" lon="10.258835550244639"><ele>486.0</ele><time>2026-04-04T16:06:21Z</time></trkpt><trkpt lat="44.577573030522316" lon="10.258827519333458"><ele>486.0</ele><time>2026-04-04T16:06:22Z</time></trkpt><trkpt lat="44.57765989738817" lon="10.258793952185847"><ele>486.0</ele><time>2026-04-04T16:06:23Z</time></trkpt><trkpt lat="44.577723632015974" lon="10.25865846654426"><ele>486.0</ele><time>2026-04-04T16:06:24Z</time></trkpt><trkpt lat="44.577776347016965" lon="10.258525930624979"><ele>486.0</ele><time>2026-04-04T16:06:25Z</time></trkpt><trkpt lat="44.577808357019464" lon="10.258379613879749"><ele>486.0</ele><time>2026-04-04T16:06:26Z</time></trkpt><trkpt lat="44.57783671926772" lon="10.258245511996705"><ele>486.0</ele><time>2026-04-04T16:06:27Z</time></trkpt><trkpt lat="44.57791200036053" lon="10.258133716616022"><ele>486.0</ele><time>2026-04-04T16:06:28Z</time></trkpt><trkpt lat="44.57796201343687" lon="10.258012613633774"><ele>486.0</ele><time>2026-04-04T16:06:29Z</time></trkpt><trkpt lat="44.57802620241628" lon="10.257941490550708"><ele>486.0</ele><time>2026-04-04T16:06:30Z</time></trkpt><trkpt lat="44.578100977449644" lon="10.257918954605332"><ele>486.1666666666667</ele><time>2026-04-04T16:06:31Z</time></trkpt><trkpt lat="44.57817175054657" lon="10.257947609126912"><ele>486.33333333333337</ele><time>2026-04-04T16:06:32Z</time></trkpt><trkpt lat="44.5782178563597" lon="10.258020767445856"><ele>486.5</ele><time>2026-04-04T16:06:33Z</time></trkpt><trkpt lat="44.57822768312128" lon="10.258124838854625"><ele>486.6666666666667</ele><time>2026-04-04T16:06:34Z</time></trkpt><trkpt lat="44.57820942382192" lon="10.258256691078227"><ele>486.83333333333337</ele><time>2026-04-04T16:06:35Z</time></trkpt><trkpt lat="44.5782396004637" lon="10.258402778223088"><ele>487.0</ele><time>2026-04-04T16:06:36Z</time></trkpt><trkpt lat="44.57826250495738" lon="10.25856066510408"><ele>487.0</ele><time>2026-04-04T16:06:37Z</time></trkpt><trkpt lat="44.57831392188748" lon="10.258731126428975"><ele>487.00000000000006</ele><time>2026-04-04T16:06:38Z</time></trkpt><trkpt lat="44.57835558938287" lon="10.258879612532604"><ele>487.00000000000006</ele><time>2026-04-04T16:06:39Z</time></trkpt><trkpt lat="44.57839874124379" lon="10.258991892948194"><ele>487.0</ele><time>2026-04-04T16:06:40Z</time></trkpt><trkpt lat="44.57847524388922" lon="10.259077146123065"><ele>487.0</ele><time>2026-04-04T16:06:41Z</time></trkpt><trkpt lat="44.57858264380132" lon="10.259121412377812"><ele>486.0</ele><time>2026-04-04T16:06:42Z</time></trkpt><trkpt lat="44.57870717623829" lon="10.25913199295721"><ele>485.00000000000006</ele><time>2026-04-04T16:06:43Z</time></trkpt><trkpt lat="44.578822070248755" lon="10.259172730937692"><ele>484.00000000000006</ele><time>2026-04-04T16:06:44Z</time></trkpt><trkpt lat="44.57890659682891" lon="10.259208302276242"><ele>483.0</ele><time>2026-04-04T16:06:45Z</time></trkpt><trkpt lat="44.578956044201085" lon="10.259329147329147"><ele>482.0</ele><time>2026-04-04T16:06:46Z</time></trkpt><trkpt lat="44.57901220921701" lon="10.25945637929521"><ele>482.0</ele><time>2026-04-04T16:06:47Z</time></trkpt><trkpt lat="44.579038929097685" lon="10.25961468262699"><ele>482.0</ele><time>2026-04-04T16:06:48Z</time></trkpt><trkpt lat="44.57904002711333" lon="10.259767391099343"><ele>482.0</ele><time>2026-04-04T16:06:49Z</time></trkpt><trkpt lat="44.57898231225146" lon="10.259911390276958"><ele>482.0</ele><time>2026-04-04T16:06:50Z</time></trkpt><trkpt lat="44.57893016896511" lon="10.260082874631113"><ele>482.75</ele><time>2026-04-04T16:06:51Z</time></trkpt><trkpt lat="44.57888948766004" lon="10.260261836412917"><ele>483.5</ele><time>2026-04-04T16:06:52Z</time></trkpt><trkpt lat="44.57889603952396" lon="10.26043132442444"><ele>484.25</ele><time>2026-04-04T16:06:53Z</time></trkpt><trkpt lat="44.57894066945441" lon="10.26058520154751"><ele>485.0</ele><time>2026-04-04T16:06:54Z</time></trkpt><trkpt lat="44.57892611812816" lon="10.260724972971843"><ele>485.0</ele><time>2026-04-04T16:06:55Z</time></trkpt><trkpt lat="44.578907577901134" lon="10.260880505489437"><ele>485.0</ele><time>2026-04-04T16:06:56Z</time></trkpt><trkpt lat="44.57884224913091" lon="10.261022499176558"><ele>485.0</ele><time>2026-04-04T16:06:57Z</time></trkpt><trkpt lat="44.578733906805745" lon="10.261120148873307"><ele>485.0</ele><time>2026-04-04T16:06:58Z</time></trkpt><trkpt lat="44.57866196035465" lon="10.261209975203176"><ele>488.25</ele><time>2026-04-04T16:06:59Z</time></trkpt><trkpt lat="44.57858390475931" lon="10.261314230070337"><ele>491.5</ele><time>2026-04-04T16:07:00Z</time></trkpt><trkpt lat="44.57853275322315" lon="10.261452263164339"><ele>494.75</ele><time>2026-04-04T16:07:01Z</time></trkpt><trkpt lat="44.578553735959694" lon="10.261615305931548"><ele>498.0</ele><time>2026-04-04T16:07:02Z</time></trkpt><trkpt lat="44.57859978044881" lon="10.261766242452252"><ele>498.0</ele><time>2026-04-04T16:07:03Z</time></trkpt><trkpt lat="44.578678484998235" lon="10.261918246555744"><ele>498.0</ele><time>2026-04-04T16:07:04Z</time></trkpt><trkpt lat="44.57877831245397" lon="10.262052613646421"><ele>498.0</ele><time>2026-04-04T16:07:05Z</time></trkpt><trkpt lat="44.57885789568045" lon="10.262208874912721"><ele>498.0</ele><time>2026-04-04T16:07:06Z</time></trkpt><trkpt lat="44.57892191157454" lon="10.262326173408377"><ele>496.59999999999997</ele><time>2026-04-04T16:07:07Z</time></trkpt><trkpt lat="44.578947464695645" lon="10.262440330564742"><ele>495.19999999999993</ele><time>2026-04-04T16:07:08Z</time></trkpt><trkpt lat="44.57893565161919" lon="10.26257451695273"><ele>493.8</ele><time>2026-04-04T16:07:09Z</time></trkpt><trkpt lat="44.57888648257909" lon="10.262715861291714"><ele>492.4</ele><time>2026-04-04T16:07:10Z</time></trkpt><trkpt lat="44.57880269968716" lon="10.262808854820006"><ele>491.0</ele><time>2026-04-04T16:07:11Z</time></trkpt><trkpt lat="44.57869415435108" lon="10.262874946819235"><ele>491.0</ele><time>2026-04-04T16:07:12Z</time></trkpt><trkpt lat="44.57856652909322" lon="10.262962346542215"><ele>491.0</ele><time>2026-04-04T16:07:13Z</time></trkpt><trkpt lat="44.57844572957345" lon="10.263045072929092"><ele>491.0</ele><time>2026-04-04T16:07:14Z</time></trkpt><trkpt lat="44.578350924182004" lon="10.2631378476372"><ele>491.0</ele><time>2026-04-04T16:07:15Z</time></trkpt><trkpt lat="44.57827144328291" lon="10.26320769354669"><ele>491.0</ele><time>2026-04-04T16:07:16Z</time></trkpt><trkpt lat="44.57824220050727" lon="10.263326911040648"><ele>491.0</ele><time>2026-04-04T16:07:17Z</time></trkpt><trkpt lat="44.578268282251166" lon="10.263485297221393"><ele>491.0</ele><time>2026-04-04T16:07:18Z</time></trkpt><trkpt lat="44.5783002745248" lon="10.263653803140551"><ele>491.0</ele><time>2026-04-04T16:07:19Z</time></trkpt><trkpt lat="44.578359768134185" lon="10.263820235814629"><ele>491.25</ele><time>2026-04-04T16:07:20Z</time></trkpt><trkpt lat="44.57845424260141" lon="10.263962497409857"><ele>491.5</ele><time>2026-04-04T16:07:21Z</time></trkpt><trkpt lat="44.57857499047837" lon="10.264080211475822"><ele>491.75</ele><time>2026-04-04T16:07:22Z</time></trkpt><trkpt lat="44.57866425386713" lon="10.264241903065257"><ele>492.0</ele><time>2026-04-04T16:07:23Z</time></trkpt><trkpt lat="44.578754368793476" lon="10.264386237145848"><ele>489.40000000000003</ele><time>2026-04-04T16:07:24Z</time></trkpt><trkpt lat="44.57883289600471" lon="10.264525297084562"><ele>486.80000000000007</ele><time>2026-04-04T16:07:25Z</time></trkpt><trkpt lat="44.57889617736317" lon="10.264653874012305"><ele>484.2</ele><time>2026-04-04T16:07:26Z</time></trkpt><trkpt lat="44.57893777587092" lon="10.264777664160238"><ele>481.6</ele><time>2026-04-04T16:07:27Z</time></trkpt><trkpt lat="44.57895488593094" lon="10.264918769577724"><ele>479.0</ele><time>2026-04-04T16:07:28Z</time></trkpt><trkpt lat="44.57894001583086" lon="10.26507374950365"><ele>477.25</ele><time>2026-04-04T16:07:29Z</time></trkpt><trkpt lat="44.578914393317845" lon="10.265247212844388"><ele>475.5</ele><time>2026-04-04T16:07:30Z</time></trkpt><trkpt lat="44.57888435089874" lon="10.26541754036631"><ele>473.75</ele><time>2026-04-04T16:07:31Z</time></trkpt><trkpt lat="44.57884833300956" lon="10.265568871556733"><ele>472.0</ele><time>2026-04-04T16:07:32Z</time></trkpt><trkpt lat="44.57880317916726" lon="10.265713114656819"><ele>470.5</ele><time>2026-04-04T16:07:33Z</time></trkpt><trkpt lat="44.57874430797068" lon="10.265858630929662"><ele>469.0</ele><time>2026-04-04T16:07:34Z</time></trkpt><trkpt lat="44.57871650307409" lon="10.266057590561847"><ele>467.5</ele><time>2026-04-04T16:07:35Z</time></trkpt><trkpt lat="44.578761393471595" lon="10.266260948957799"><ele>466.0</ele><time>2026-04-04T16:07:36Z</time></trkpt><trkpt lat="44.578775729746326" lon="10.266439973196576"><ele>466.8</ele><time>2026-04-04T16:07:37Z</time></trkpt><trkpt lat="44.57880143072364" lon="10.2665898260599"><ele>467.6</ele><time>2026-04-04T16:07:38Z</time></trkpt><trkpt lat="44.57882514055439" lon="10.266720191674569"><ele>468.4</ele><time>2026-04-04T16:07:39Z</time></trkpt><trkpt lat="44.57885711658297" lon="10.26682905678583"><ele>469.2</ele><time>2026-04-04T16:07:40Z</time></trkpt><trkpt lat="44.578924284213166" lon="10.266930660902359"><ele>470.0</ele><time>2026-04-04T16:07:41Z</time></trkpt><trkpt lat="44.57900635980187" lon="10.267001849405563"><ele>470.0</ele><time>2026-04-04T16:07:42Z</time></trkpt><trkpt lat="44.579105759328755" lon="10.267052840008517"><ele>470.0</ele><time>2026-04-04T16:07:43Z</time></trkpt><trkpt lat="44.57917862422142" lon="10.267101615482389"><ele>470.0</ele><time>2026-04-04T16:07:44Z</time></trkpt><trkpt lat="44.5793135649797" lon="10.267086792149659"><ele>470.0</ele><time>2026-04-04T16:07:45Z</time></trkpt><trkpt lat="44.57939493348044" lon="10.267024332602562"><ele>470.0</ele><time>2026-04-04T16:07:46Z</time></trkpt><trkpt lat="44.579485957882426" lon="10.266940006829339"><ele>466.4</ele><time>2026-04-04T16:07:47Z</time></trkpt><trkpt lat="44.57958895294751" lon="10.266884202215142"><ele>462.8</ele><time>2026-04-04T16:07:48Z</time></trkpt><trkpt lat="44.57967223595027" lon="10.266958141445645"><ele>459.20000000000005</ele><time>2026-04-04T16:07:49Z</time></trkpt><trkpt lat="44.57977529360455" lon="10.267012602312525"><ele>455.6</ele><time>2026-04-04T16:07:50Z</time></trkpt><trkpt lat="44.57985540566509" lon="10.267085594927547"><ele>452.0</ele><time>2026-04-04T16:07:51Z</time></trkpt><trkpt lat="44.57990233231705" lon="10.267190802384224"><ele>454.20000000000005</ele><time>2026-04-04T16:07:52Z</time></trkpt><trkpt lat="44.57992055932452" lon="10.267324878701013"><ele>456.40000000000003</ele><time>2026-04-04T16:07:53Z</time></trkpt><trkpt lat="44.579924529070794" lon="10.267478255572108"><ele>458.59999999999997</ele><time>2026-04-04T16:07:54Z</time></trkpt><trkpt lat="44.57995615244868" lon="10.267619582828027"><ele>460.79999999999995</ele><time>2026-04-04T16:07:55Z</time></trkpt><trkpt lat="44.58005063925105" lon="10.267703650901879"><ele>463.0</ele><time>2026-04-04T16:07:56Z</time></trkpt><trkpt lat="44.58015099804152" lon="10.267740207434802"><ele>463.0</ele><time>2026-04-04T16:07:57Z</time></trkpt><trkpt lat="44.58025224820333" lon="10.267709543423626"><ele>463.0</ele><time>2026-04-04T16:07:58Z</time></trkpt><trkpt lat="44.580343088386755" lon="10.267618296560967"><ele>463.0</ele><time>2026-04-04T16:07:59Z</time></trkpt><trkpt lat="44.58043832376254" lon="10.26749242333588"><ele>463.0</ele><time>2026-04-04T16:08:00Z</time></trkpt><trkpt lat="44.5805448456682" lon="10.267369273650058"><ele>462.5</ele><time>2026-04-04T16:08:01Z</time></trkpt><trkpt lat="44.580673295369245" lon="10.267308306727395"><ele>462.0</ele><time>2026-04-04T16:08:02Z</time></trkpt><trkpt lat="44.58080964870947" lon="10.26725982619453"><ele>461.5</ele><time>2026-04-04T16:08:03Z</time></trkpt><trkpt lat="44.580958641830605" lon="10.26720696249406"><ele>461.0</ele><time>2026-04-04T16:08:04Z</time></trkpt><trkpt lat="44.5811025714002" lon="10.267101615623556"><ele>459.3333333333333</ele><time>2026-04-04T16:08:05Z</time></trkpt><trkpt lat="44.581243206303974" lon="10.26699810359068"><ele>457.66666666666663</ele><time>2026-04-04T16:08:06Z</time></trkpt><trkpt lat="44.581378922550414" lon="10.266880727074636"><ele>456.0</ele><time>2026-04-04T16:08:07Z</time></trkpt><trkpt lat="44.581512706985656" lon="10.266781714258736"><ele>456.0</ele><time>2026-04-04T16:08:08Z</time></trkpt><trkpt lat="44.58164442240531" lon="10.266685607807846"><ele>456.0</ele><time>2026-04-04T16:08:09Z</time></trkpt><trkpt lat="44.581768962737435" lon="10.266600616601949"><ele>456.0</ele><time>2026-04-04T16:08:10Z</time></trkpt><trkpt lat="44.58187597485063" lon="10.266504494291562"><ele>456.0</ele><time>2026-04-04T16:08:11Z</time></trkpt><trkpt lat="44.581946058277246" lon="10.266401381655273"><ele>455.6</ele><time>2026-04-04T16:08:12Z</time></trkpt><trkpt lat="44.58198247462074" lon="10.26626483890258"><ele>455.20000000000005</ele><time>2026-04-04T16:08:13Z</time></trkpt><trkpt lat="44.5819899257343" lon="10.26610735590916"><ele>454.79999999999995</ele><time>2026-04-04T16:08:14Z</time></trkpt><trkpt lat="44.58204393906304" lon="10.26597271581559"><ele>454.4</ele><time>2026-04-04T16:08:15Z</time></trkpt><trkpt lat="44.58210360314936" lon="10.265829445676875"><ele>454.0</ele><time>2026-04-04T16:08:16Z</time></trkpt><trkpt lat="44.58221046439375" lon="10.265867401781035"><ele>454.0</ele><time>2026-04-04T16:08:17Z</time></trkpt><trkpt lat="44.58233625697432" lon="10.265801590008353"><ele>454.0</ele><time>2026-04-04T16:08:18Z</time></trkpt><trkpt lat="44.582475310359676" lon="10.265728550496325"><ele>454.0</ele><time>2026-04-04T16:08:19Z</time></trkpt><trkpt lat="44.58257901404887" lon="10.2656775012423"><ele>454.0</ele><time>2026-04-04T16:08:20Z</time></trkpt><trkpt lat="44.58266916867574" lon="10.265635324014385"><ele>454.00000000000006</ele><time>2026-04-04T16:08:22Z</time></trkpt><trkpt lat="44.58273061597779" lon="10.265610867232239"><ele>454.0</ele><time>2026-04-04T16:08:24Z</time></trkpt><trkpt lat="44.58267673209594" lon="10.26550283993399"><ele>454.0</ele><time>2026-04-04T16:09:36Z</time></trkpt><trkpt lat="44.582709150690086" lon="10.265584157736354"><ele>454.0</ele><time>2026-04-04T16:09:39Z</time></trkpt><trkpt lat="44.58263633492336" lon="10.265623704900328"><ele>454.00000000000006</ele><time>2026-04-04T16:09:43Z</time></trkpt><trkpt lat="44.5826422542986" lon="10.265726017451394"><ele>454.0</ele><time>2026-04-04T16:09:46Z</time></trkpt><trkpt lat="44.58273365874607" lon="10.265781783252828"><ele>454.0</ele><time>2026-04-04T16:09:50Z</time></trkpt><trkpt lat="44.58277852379743" lon="10.265882494406528"><ele>454.0</ele><time>2026-04-04T16:09:52Z</time></trkpt><trkpt lat="44.58281813535246" lon="10.26604948638216"><ele>454.0</ele><time>2026-04-04T16:09:54Z</time></trkpt><trkpt lat="44.58286095659493" lon="10.266179033410108"><ele>454.0</ele><time>2026-04-04T16:09:56Z</time></trkpt><trkpt lat="44.58289080287428" lon="10.26626300617797"><ele>454.0</ele><time>2026-04-04T16:09:57Z</time></trkpt><trkpt lat="44.582965336857626" lon="10.266383651248802"><ele>456.6</ele><time>2026-04-04T16:09:59Z</time></trkpt><trkpt lat="44.58303896038337" lon="10.266463857632743"><ele>459.2</ele><time>2026-04-04T16:10:01Z</time></trkpt><trkpt lat="44.583127275847986" lon="10.266578500811493"><ele>461.80000000000007</ele><time>2026-04-04T16:10:03Z</time></trkpt><trkpt lat="44.58317286227545" lon="10.266658233081788"><ele>464.40000000000003</ele><time>2026-04-04T16:10:04Z</time></trkpt><trkpt lat="44.5832091926955" lon="10.266731082883886"><ele>467.0</ele><time>2026-04-04T16:10:05Z</time></trkpt><trkpt lat="44.58326723152363" lon="10.266848444014203"><ele>467.0</ele><time>2026-04-04T16:10:06Z</time></trkpt><trkpt lat="44.58333961123837" lon="10.266896644175763"><ele>467.00000000000006</ele><time>2026-04-04T16:10:09Z</time></trkpt><trkpt lat="44.58331972473552" lon="10.266806896679398"><ele>467.00000000000006</ele><time>2026-04-04T16:10:52Z</time></trkpt><trkpt lat="44.583235990949134" lon="10.266776807546467"><ele>467.0</ele><time>2026-04-04T16:10:54Z</time></trkpt><trkpt lat="44.583166393993814" lon="10.266671789869028"><ele>467.0</ele><time>2026-04-04T16:10:56Z</time></trkpt><trkpt lat="44.583092427787896" lon="10.266539686431157"><ele>467.0</ele><time>2026-04-04T16:10:58Z</time></trkpt><trkpt lat="44.58300363438047" lon="10.266449829064362"><ele>467.00000000000006</ele><time>2026-04-04T16:11:00Z</time></trkpt><trkpt lat="44.582948091601196" lon="10.26636225686146"><ele>467.00000000000006</ele><time>2026-04-04T16:11:02Z</time></trkpt><trkpt lat="44.58289106501496" lon="10.266243347128091"><ele>467.0</ele><time>2026-04-04T16:11:04Z</time></trkpt><trkpt lat="44.58284672226398" lon="10.26610470721475"><ele>467.0</ele><time>2026-04-04T16:11:06Z</time></trkpt><trkpt lat="44.58279767668977" lon="10.265952192406541"><ele>464.8333333333333</ele><time>2026-04-04T16:11:08Z</time></trkpt><trkpt lat="44.58277075445256" lon="10.265863658577265"><ele>462.66666666666663</ele><time>2026-04-04T16:11:09Z</time></trkpt><trkpt lat="44.58274168948216" lon="10.265779091357114"><ele>460.5</ele><time>2026-04-04T16:11:10Z</time></trkpt><trkpt lat="44.58265253855737" lon="10.265686459907544"><ele>458.33333333333337</ele><time>2026-04-04T16:11:12Z</time></trkpt><trkpt lat="44.58264657059072" lon="10.265591867049334"><ele>456.1666666666667</ele><time>2026-04-04T16:11:17Z</time></trkpt><trkpt lat="44.58276539010714" lon="10.265559557314516"><ele>454.0</ele><time>2026-04-04T16:11:19Z</time></trkpt><trkpt lat="44.582880863442696" lon="10.265564061650412"><ele>454.75</ele><time>2026-04-04T16:11:20Z</time></trkpt><trkpt lat="44.58301840021909" lon="10.265570588054132"><ele>455.5</ele><time>2026-04-04T16:11:21Z</time></trkpt><trkpt lat="44.583154381906255" lon="10.265595622822415"><ele>456.25</ele><time>2026-04-04T16:11:22Z</time></trkpt><trkpt lat="44.5832688624831" lon="10.265616603218833"><ele>457.0</ele><time>2026-04-04T16:11:23Z</time></trkpt><trkpt lat="44.58337156208288" lon="10.265628026711962"><ele>457.0</ele><time>2026-04-04T16:11:24Z</time></trkpt><trkpt lat="44.58346472285805" lon="10.265629710107874"><ele>457.00000000000006</ele><time>2026-04-04T16:11:25Z</time></trkpt><trkpt lat="44.58355208220371" lon="10.265641337055703"><ele>457.00000000000006</ele><time>2026-04-04T16:11:26Z</time></trkpt><trkpt lat="44.58364991765584" lon="10.26565712241126"><ele>457.0</ele><time>2026-04-04T16:11:27Z</time></trkpt><trkpt lat="44.583762512983604" lon="10.265653223491324"><ele>457.0</ele><time>2026-04-04T16:11:28Z</time></trkpt><trkpt lat="44.58388555404528" lon="10.265631513941655"><ele>454.75</ele><time>2026-04-04T16:11:29Z</time></trkpt><trkpt lat="44.58400281621273" lon="10.265608180900584"><ele>452.5</ele><time>2026-04-04T16:11:30Z</time></trkpt><trkpt lat="44.5841136920305" lon="10.26559570763418"><ele>450.25</ele><time>2026-04-04T16:11:31Z</time></trkpt><trkpt lat="44.58422149697235" lon="10.265573119468986"><ele>448.0</ele><time>2026-04-04T16:11:32Z</time></trkpt><trkpt lat="44.58432715771568" lon="10.265511176874496"><ele>448.0</ele><time>2026-04-04T16:11:33Z</time></trkpt><trkpt lat="44.58442662379029" lon="10.265421586430993"><ele>448.0</ele><time>2026-04-04T16:11:34Z</time></trkpt><trkpt lat="44.58452383076258" lon="10.265312556998126"><ele>448.0</ele><time>2026-04-04T16:11:35Z</time></trkpt><trkpt lat="44.58460526675207" lon="10.26517944149293"><ele>448.0</ele><time>2026-04-04T16:11:36Z</time></trkpt><trkpt lat="44.58468046617867" lon="10.26504553407929"><ele>450.2</ele><time>2026-04-04T16:11:37Z</time></trkpt><trkpt lat="44.584684882927036" lon="10.26488556480657"><ele>452.4</ele><time>2026-04-04T16:11:38Z</time></trkpt><trkpt lat="44.58467941780776" lon="10.264748384591"><ele>454.59999999999997</ele><time>2026-04-04T16:11:39Z</time></trkpt><trkpt lat="44.58470640325347" lon="10.264591270393197"><ele>456.79999999999995</ele><time>2026-04-04T16:11:40Z</time></trkpt><trkpt lat="44.58470499976061" lon="10.264420085326831"><ele>459.0</ele><time>2026-04-04T16:11:41Z</time></trkpt><trkpt lat="44.584711204730866" lon="10.26425068588062"><ele>459.3333333333333</ele><time>2026-04-04T16:11:42Z</time></trkpt><trkpt lat="44.58469923875827" lon="10.264096989046"><ele>459.66666666666663</ele><time>2026-04-04T16:11:43Z</time></trkpt><trkpt lat="44.58469127156168" lon="10.263983911538041"><ele>460.0</ele><time>2026-04-04T16:11:44Z</time></trkpt><trkpt lat="44.58469786364594" lon="10.263874394435337"><ele>460.3333333333333</ele><time>2026-04-04T16:11:45Z</time></trkpt><trkpt lat="44.58473320306469" lon="10.263764037167808"><ele>460.66666666666663</ele><time>2026-04-04T16:11:46Z</time></trkpt><trkpt lat="44.584777927973526" lon="10.263658337677802"><ele>461.0</ele><time>2026-04-04T16:11:47Z</time></trkpt><trkpt lat="44.58483353596711" lon="10.263546223304633"><ele>461.0</ele><time>2026-04-04T16:11:48Z</time></trkpt><trkpt lat="44.58488863607702" lon="10.263408338097948"><ele>461.0</ele><time>2026-04-04T16:11:49Z</time></trkpt><trkpt lat="44.584970202808684" lon="10.263293185715222"><ele>461.0</ele><time>2026-04-04T16:11:50Z</time></trkpt><trkpt lat="44.58502973219389" lon="10.263162178538268"><ele>461.0</ele><time>2026-04-04T16:11:51Z</time></trkpt><trkpt lat="44.585085870969124" lon="10.263050338700058"><ele>461.0</ele><time>2026-04-04T16:11:52Z</time></trkpt><trkpt lat="44.585163086667194" lon="10.262973619904738"><ele>461.0</ele><time>2026-04-04T16:11:53Z</time></trkpt><trkpt lat="44.58523633972923" lon="10.262872665520915"><ele>461.0</ele><time>2026-04-04T16:11:54Z</time></trkpt><trkpt lat="44.58533721227984" lon="10.26281678710906"><ele>461.0</ele><time>2026-04-04T16:11:55Z</time></trkpt><trkpt lat="44.58544601834958" lon="10.26276505151155"><ele>461.0</ele><time>2026-04-04T16:11:56Z</time></trkpt><trkpt lat="44.58556105467905" lon="10.262694195373006"><ele>461.0</ele><time>2026-04-04T16:11:57Z</time></trkpt><trkpt lat="44.58566687976053" lon="10.262597707209748"><ele>461.0</ele><time>2026-04-04T16:11:58Z</time></trkpt><trkpt lat="44.5857697329916" lon="10.262471787083095"><ele>461.0</ele><time>2026-04-04T16:11:59Z</time></trkpt><trkpt lat="44.58587692353539" lon="10.262336948339962"><ele>461.0</ele><time>2026-04-04T16:12:00Z</time></trkpt><trkpt lat="44.58599093314565" lon="10.262221042893257"><ele>459.25</ele><time>2026-04-04T16:12:01Z</time></trkpt><trkpt lat="44.586110880970004" lon="10.262120156434248"><ele>457.5</ele><time>2026-04-04T16:12:02Z</time></trkpt><trkpt lat="44.58622632911339" lon="10.262036842052392"><ele>455.75</ele><time>2026-04-04T16:12:03Z</time></trkpt><trkpt lat="44.58632899212797" lon="10.261972423999424"><ele>454.0</ele><time>2026-04-04T16:12:04Z</time></trkpt><trkpt lat="44.58642186146286" lon="10.261930989090454"><ele>454.00000000000006</ele><time>2026-04-04T16:12:05Z</time></trkpt><trkpt lat="44.586504270321335" lon="10.261923856259457"><ele>454.0</ele><time>2026-04-04T16:12:06Z</time></trkpt><trkpt lat="44.586577623075705" lon="10.261964614096435"><ele>454.0</ele><time>2026-04-04T16:12:07Z</time></trkpt><trkpt lat="44.58663298282485" lon="10.262047305268531"><ele>454.0</ele><time>2026-04-04T16:12:08Z</time></trkpt><trkpt lat="44.586667351569936" lon="10.26216404267797"><ele>454.00000000000006</ele><time>2026-04-04T16:12:09Z</time></trkpt><trkpt lat="44.586684471736305" lon="10.262296361069591"><ele>454.0</ele><time>2026-04-04T16:12:10Z</time></trkpt><trkpt lat="44.586698113452684" lon="10.26243691157691"><ele>456.4</ele><time>2026-04-04T16:12:11Z</time></trkpt><trkpt lat="44.58670957870692" lon="10.26256466001082"><ele>458.79999999999995</ele><time>2026-04-04T16:12:12Z</time></trkpt><trkpt lat="44.58673178518511" lon="10.262689088811472"><ele>461.20000000000005</ele><time>2026-04-04T16:12:13Z</time></trkpt><trkpt lat="44.58676209078883" lon="10.262807972177256"><ele>463.6</ele><time>2026-04-04T16:12:14Z</time></trkpt><trkpt lat="44.58678766501929" lon="10.262908382360056"><ele>466.0</ele><time>2026-04-04T16:12:15Z</time></trkpt><trkpt lat="44.58683254930284" lon="10.263064082514926"><ele>466.00000000000006</ele><time>2026-04-04T16:12:17Z</time></trkpt><trkpt lat="44.58687010278501" lon="10.263156977141401"><ele>466.0</ele><time>2026-04-04T16:12:19Z</time></trkpt><trkpt lat="44.586888574512116" lon="10.263274036828403"><ele>466.0</ele><time>2026-04-04T16:12:21Z</time></trkpt><trkpt lat="44.58691245367744" lon="10.263368088101247"><ele>466.0</ele><time>2026-04-04T16:12:23Z</time></trkpt><trkpt lat="44.58684318948401" lon="10.263277166232278"><ele>466.00000000000006</ele><time>2026-04-04T16:12:29Z</time></trkpt><trkpt lat="44.586809459500806" lon="10.263164070469287"><ele>466.0</ele><time>2026-04-04T16:12:30Z</time></trkpt><trkpt lat="44.586767688045775" lon="10.263052071706998"><ele>466.0</ele><time>2026-04-04T16:12:31Z</time></trkpt><trkpt lat="44.586717669073956" lon="10.262935964436767"><ele>466.0</ele><time>2026-04-04T16:12:32Z</time></trkpt><trkpt lat="44.586661582119646" lon="10.262812319268448"><ele>466.0</ele><time>2026-04-04T16:12:33Z</time></trkpt><trkpt lat="44.58661485087317" lon="10.262714540746025"><ele>466.0</ele><time>2026-04-04T16:12:34Z</time></trkpt><trkpt lat="44.58658443187884" lon="10.262635485313117"><ele>466.0</ele><time>2026-04-04T16:12:35Z</time></trkpt><trkpt lat="44.58647120134892" lon="10.262596509503204"><ele>466.0</ele><time>2026-04-04T16:12:37Z</time></trkpt><trkpt lat="44.58640678279222" lon="10.262629887977358"><ele>466.0</ele><time>2026-04-04T16:12:38Z</time></trkpt><trkpt lat="44.586350439288836" lon="10.262727645725718"><ele>466.0</ele><time>2026-04-04T16:12:39Z</time></trkpt><trkpt lat="44.58632827713994" lon="10.262880344100243"><ele>466.0</ele><time>2026-04-04T16:12:40Z</time></trkpt><trkpt lat="44.58629696131391" lon="10.263029198037195"><ele>466.0</ele><time>2026-04-04T16:12:41Z</time></trkpt><trkpt lat="44.58622647510228" lon="10.2631631171746"><ele>468.5</ele><time>2026-04-04T16:12:42Z</time></trkpt><trkpt lat="44.58615651218189" lon="10.263318375058653"><ele>471.0</ele><time>2026-04-04T16:12:43Z</time></trkpt><trkpt lat="44.58609281373567" lon="10.263487861904467"><ele>473.5</ele><time>2026-04-04T16:12:44Z</time></trkpt><trkpt lat="44.58603437608281" lon="10.263618069778671"><ele>476.0</ele><time>2026-04-04T16:12:45Z</time></trkpt><trkpt lat="44.585995702877256" lon="10.263723739626311"><ele>476.0</ele><time>2026-04-04T16:12:46Z</time></trkpt><trkpt lat="44.585969162746714" lon="10.263834541612603"><ele>476.0</ele><time>2026-04-04T16:12:47Z</time></trkpt><trkpt lat="44.58597444130203" lon="10.26396415360008"><ele>476.0</ele><time>2026-04-04T16:12:48Z</time></trkpt><trkpt lat="44.58600372945792" lon="10.26409822956462"><ele>476.0</ele><time>2026-04-04T16:12:49Z</time></trkpt><trkpt lat="44.586046306691664" lon="10.264205339313433"><ele>476.0</ele><time>2026-04-04T16:12:50Z</time></trkpt><trkpt lat="44.58610622447382" lon="10.264310227005163"><ele>478.25</ele><time>2026-04-04T16:12:51Z</time></trkpt><trkpt lat="44.58618101746543" lon="10.264434888705253"><ele>480.5</ele><time>2026-04-04T16:12:52Z</time></trkpt><trkpt lat="44.58623841639745" lon="10.264591580941303"><ele>482.75</ele><time>2026-04-04T16:12:53Z</time></trkpt><trkpt lat="44.586320085051184" lon="10.26471737257337"><ele>485.0</ele><time>2026-04-04T16:12:54Z</time></trkpt><trkpt lat="44.58637975188445" lon="10.26485178838529"><ele>486.75</ele><time>2026-04-04T16:12:55Z</time></trkpt><trkpt lat="44.58644320838466" lon="10.264977155175682"><ele>488.5</ele><time>2026-04-04T16:12:56Z</time></trkpt><trkpt lat="44.58651048345136" lon="10.26512455394933"><ele>490.25</ele><time>2026-04-04T16:12:57Z</time></trkpt><trkpt lat="44.586569830324834" lon="10.2652744922442"><ele>492.0</ele><time>2026-04-04T16:12:58Z</time></trkpt><trkpt lat="44.58661785990096" lon="10.265407534614925"><ele>492.0</ele><time>2026-04-04T16:12:59Z</time></trkpt><trkpt lat="44.58665736784934" lon="10.26552928612399"><ele>492.0</ele><time>2026-04-04T16:13:00Z</time></trkpt><trkpt lat="44.58666942464472" lon="10.265653408139517"><ele>492.0</ele><time>2026-04-04T16:13:01Z</time></trkpt><trkpt lat="44.58668372325922" lon="10.265770566612977"><ele>492.0</ele><time>2026-04-04T16:13:02Z</time></trkpt><trkpt lat="44.586678278137704" lon="10.265874332090204"><ele>492.0</ele><time>2026-04-04T16:13:03Z</time></trkpt><trkpt lat="44.58669160714973" lon="10.265980171698601"><ele>492.0</ele><time>2026-04-04T16:13:04Z</time></trkpt><trkpt lat="44.586694715982" lon="10.266177925468131"><ele>493.5</ele><time>2026-04-04T16:13:06Z</time></trkpt><trkpt lat="44.58670917031172" lon="10.266324858570657"><ele>495.0</ele><time>2026-04-04T16:13:07Z</time></trkpt><trkpt lat="44.586727881636165" lon="10.266486143385691"><ele>496.5</ele><time>2026-04-04T16:13:08Z</time></trkpt><trkpt lat="44.586735228114726" lon="10.266651800640625"><ele>498.0</ele><time>2026-04-04T16:13:09Z</time></trkpt><trkpt lat="44.58676068308538" lon="10.266810138250879"><ele>498.79999999999995</ele><time>2026-04-04T16:13:10Z</time></trkpt><trkpt lat="44.58678956632397" lon="10.266957988935367"><ele>499.59999999999997</ele><time>2026-04-04T16:13:11Z</time></trkpt><trkpt lat="44.58677989504272" lon="10.267097511172109"><ele>500.40000000000003</ele><time>2026-04-04T16:13:12Z</time></trkpt><trkpt lat="44.586790804624506" lon="10.267220985345583"><ele>501.20000000000005</ele><time>2026-04-04T16:13:13Z</time></trkpt><trkpt lat="44.58678348063856" lon="10.26734340765192"><ele>502.0</ele><time>2026-04-04T16:13:14Z</time></trkpt><trkpt lat="44.586746272975645" lon="10.267469212885507"><ele>503.5</ele><time>2026-04-04T16:13:15Z</time></trkpt><trkpt lat="44.586717084617156" lon="10.267608094953497"><ele>505.0</ele><time>2026-04-04T16:13:16Z</time></trkpt><trkpt lat="44.586677042783975" lon="10.267759711454024"><ele>506.5</ele><time>2026-04-04T16:13:17Z</time></trkpt><trkpt lat="44.586649215056774" lon="10.267924880995682"><ele>508.0</ele><time>2026-04-04T16:13:18Z</time></trkpt><trkpt lat="44.58658391378935" lon="10.268064449605019"><ele>509.5</ele><time>2026-04-04T16:13:19Z</time></trkpt><trkpt lat="44.58652850461047" lon="10.268204694384483"><ele>511.0</ele><time>2026-04-04T16:13:20Z</time></trkpt><trkpt lat="44.58648616631137" lon="10.268361724159625"><ele>512.5</ele><time>2026-04-04T16:13:21Z</time></trkpt><trkpt lat="44.58642132161558" lon="10.268527369121315"><ele>514.0</ele><time>2026-04-04T16:13:22Z</time></trkpt><trkpt lat="44.58636409459203" lon="10.268703862777436"><ele>514.0</ele><time>2026-04-04T16:13:23Z</time></trkpt><trkpt lat="44.58631538228752" lon="10.268899549999798"><ele>514.0</ele><time>2026-04-04T16:13:24Z</time></trkpt><trkpt lat="44.58628181642963" lon="10.269071690071891"><ele>514.0</ele><time>2026-04-04T16:13:25Z</time></trkpt><trkpt lat="44.58625410648717" lon="10.269231481351614"><ele>514.0</ele><time>2026-04-04T16:13:26Z</time></trkpt><trkpt lat="44.586217279282565" lon="10.26939396231144"><ele>514.5</ele><time>2026-04-04T16:13:27Z</time></trkpt><trkpt lat="44.58614670845514" lon="10.269541592132198"><ele>515.0</ele><time>2026-04-04T16:13:28Z</time></trkpt><trkpt lat="44.5860900893559" lon="10.26969429077094"><ele>515.5</ele><time>2026-04-04T16:13:29Z</time></trkpt><trkpt lat="44.586022039741046" lon="10.269809770533344"><ele>516.0</ele><time>2026-04-04T16:13:30Z</time></trkpt><trkpt lat="44.58595695591464" lon="10.26991241145148"><ele>516.0</ele><time>2026-04-04T16:13:31Z</time></trkpt><trkpt lat="44.58587611245509" lon="10.270016872819944"><ele>516.0</ele><time>2026-04-04T16:13:32Z</time></trkpt><trkpt lat="44.5857879667309" lon="10.270108699074498"><ele>516.0</ele><time>2026-04-04T16:13:33Z</time></trkpt><trkpt lat="44.585685466490766" lon="10.27019453154098"><ele>516.0</ele><time>2026-04-04T16:13:34Z</time></trkpt><trkpt lat="44.58559289328606" lon="10.270240765656922"><ele>516.0</ele><time>2026-04-04T16:13:35Z</time></trkpt><trkpt lat="44.58549027487939" lon="10.270220619942492"><ele>516.0</ele><time>2026-04-04T16:13:36Z</time></trkpt><trkpt lat="44.58538032312341" lon="10.270215282471757"><ele>516.0</ele><time>2026-04-04T16:13:37Z</time></trkpt><trkpt lat="44.58525397686621" lon="10.27023333732452"><ele>516.0</ele><time>2026-04-04T16:13:38Z</time></trkpt><trkpt lat="44.58512368819369" lon="10.270251429060574"><ele>516.0</ele><time>2026-04-04T16:13:39Z</time></trkpt><trkpt lat="44.58498664507094" lon="10.270269930135603"><ele>515.75</ele><time>2026-04-04T16:13:40Z</time></trkpt><trkpt lat="44.58486477301011" lon="10.270366661127685"><ele>515.5</ele><time>2026-04-04T16:13:41Z</time></trkpt><trkpt lat="44.58476418458616" lon="10.270465398483188"><ele>515.25</ele><time>2026-04-04T16:13:42Z</time></trkpt><trkpt lat="44.58467193045491" lon="10.270560257808093"><ele>515.0</ele><time>2026-04-04T16:13:43Z</time></trkpt><trkpt lat="44.58458228492971" lon="10.27065411786289"><ele>517.4</ele><time>2026-04-04T16:13:44Z</time></trkpt><trkpt lat="44.58450090313671" lon="10.27073932574203"><ele>519.8</ele><time>2026-04-04T16:13:45Z</time></trkpt><trkpt lat="44.584428471482056" lon="10.270815162673367"><ele>522.2</ele><time>2026-04-04T16:13:46Z</time></trkpt><trkpt lat="44.58436964261793" lon="10.27088921937449"><ele>524.6</ele><time>2026-04-04T16:13:47Z</time></trkpt><trkpt lat="44.58431903366927" lon="10.27095357224618"><ele>527.0</ele><time>2026-04-04T16:13:48Z</time></trkpt><trkpt lat="44.584212669505675" lon="10.271027811828503"><ele>527.0</ele><time>2026-04-04T16:13:50Z</time></trkpt><trkpt lat="44.58419893811701" lon="10.27128419702827"><ele>527.0</ele><time>2026-04-04T16:13:52Z</time></trkpt><trkpt lat="44.58411394804137" lon="10.271444059217451"><ele>527.0</ele><time>2026-04-04T16:13:54Z</time></trkpt><trkpt lat="44.58404897229968" lon="10.271535419135711"><ele>527.0</ele><time>2026-04-04T16:13:55Z</time></trkpt><trkpt lat="44.583972737297096" lon="10.27164051878905"><ele>527.2</ele><time>2026-04-04T16:13:56Z</time></trkpt><trkpt lat="44.58390718548396" lon="10.271749663077957"><ele>527.4000000000001</ele><time>2026-04-04T16:13:57Z</time></trkpt><trkpt lat="44.5838330511013" lon="10.27183681185749"><ele>527.5999999999999</ele><time>2026-04-04T16:13:58Z</time></trkpt><trkpt lat="44.58377468896949" lon="10.27190662368452"><ele>527.8</ele><time>2026-04-04T16:13:59Z</time></trkpt><trkpt lat="44.58370097187897" lon="10.271980471602337"><ele>528.0</ele><time>2026-04-04T16:14:00Z</time></trkpt><trkpt lat="44.5836298201486" lon="10.272060035073379"><ele>528.0</ele><time>2026-04-04T16:14:01Z</time></trkpt><trkpt lat="44.58358299796907" lon="10.272156265647997"><ele>528.0</ele><time>2026-04-04T16:14:02Z</time></trkpt><trkpt lat="44.58356220318401" lon="10.272272189286907"><ele>528.0</ele><time>2026-04-04T16:14:03Z</time></trkpt><trkpt lat="44.583564167474606" lon="10.272402319090402"><ele>528.0</ele><time>2026-04-04T16:14:04Z</time></trkpt><trkpt lat="44.58357919863266" lon="10.272547847815824"><ele>528.0</ele><time>2026-04-04T16:14:05Z</time></trkpt><trkpt lat="44.583590507194586" lon="10.27271060463074"><ele>528.0</ele><time>2026-04-04T16:14:06Z</time></trkpt><trkpt lat="44.583632578366185" lon="10.27287252221001"><ele>528.0</ele><time>2026-04-04T16:14:07Z</time></trkpt><trkpt lat="44.5836457075117" lon="10.273013811091644"><ele>528.0</ele><time>2026-04-04T16:14:08Z</time></trkpt><trkpt lat="44.5836848440641" lon="10.273129666321298"><ele>528.0</ele><time>2026-04-04T16:14:09Z</time></trkpt><trkpt lat="44.58370979220607" lon="10.273246086707278"><ele>528.0</ele><time>2026-04-04T16:14:10Z</time></trkpt><trkpt lat="44.5837101202718" lon="10.273353785136814"><ele>527.8</ele><time>2026-04-04T16:14:11Z</time></trkpt><trkpt lat="44.58371272497967" lon="10.273454397030692"><ele>527.5999999999999</ele><time>2026-04-04T16:14:12Z</time></trkpt><trkpt lat="44.58369483252898" lon="10.273571802013244"><ele>527.4000000000001</ele><time>2026-04-04T16:14:13Z</time></trkpt><trkpt lat="44.58367419936582" lon="10.273720497280374"><ele>527.2</ele><time>2026-04-04T16:14:14Z</time></trkpt><trkpt lat="44.583685204854774" lon="10.273880149828688"><ele>527.0</ele><time>2026-04-04T16:14:15Z</time></trkpt><trkpt lat="44.58369831030163" lon="10.274040557268453"><ele>522.2</ele><time>2026-04-04T16:14:16Z</time></trkpt><trkpt lat="44.583718541919495" lon="10.274185215528371"><ele>517.4000000000001</ele><time>2026-04-04T16:14:17Z</time></trkpt><trkpt lat="44.58371814049979" lon="10.274322791935507"><ele>512.5999999999999</ele><time>2026-04-04T16:14:18Z</time></trkpt><trkpt lat="44.58373396314989" lon="10.274472708625886"><ele>507.79999999999995</ele><time>2026-04-04T16:14:19Z</time></trkpt><trkpt lat="44.58375028249957" lon="10.274629395765395"><ele>503.0</ele><time>2026-04-04T16:14:20Z</time></trkpt><trkpt lat="44.583763893053295" lon="10.274778944713782"><ele>503.0</ele><time>2026-04-04T16:14:21Z</time></trkpt><trkpt lat="44.58375563145986" lon="10.274918064707382"><ele>502.99999999999994</ele><time>2026-04-04T16:14:22Z</time></trkpt><trkpt lat="44.583717708460966" lon="10.275054202638627"><ele>502.99999999999994</ele><time>2026-04-04T16:14:23Z</time></trkpt><trkpt lat="44.5836824237053" lon="10.275212230856813"><ele>503.0</ele><time>2026-04-04T16:14:24Z</time></trkpt><trkpt lat="44.58368704700145" lon="10.275381555613738"><ele>503.0</ele><time>2026-04-04T16:14:25Z</time></trkpt><trkpt lat="44.58368266229089" lon="10.275541118113804"><ele>503.59999999999997</ele><time>2026-04-04T16:14:26Z</time></trkpt><trkpt lat="44.58367989775476" lon="10.27571154695962"><ele>504.19999999999993</ele><time>2026-04-04T16:14:27Z</time></trkpt><trkpt lat="44.58368684311687" lon="10.27586936725538"><ele>504.8</ele><time>2026-04-04T16:14:28Z</time></trkpt><trkpt lat="44.58372009049532" lon="10.276001379563565"><ele>505.4</ele><time>2026-04-04T16:14:29Z</time></trkpt><trkpt lat="44.58376988020833" lon="10.276138645704426"><ele>506.0</ele><time>2026-04-04T16:14:30Z</time></trkpt><trkpt lat="44.5838262150556" lon="10.276242055746005"><ele>506.0</ele><time>2026-04-04T16:14:31Z</time></trkpt><trkpt lat="44.583836098113586" lon="10.276350771190593"><ele>506.0</ele><time>2026-04-04T16:14:32Z</time></trkpt><trkpt lat="44.58383754502198" lon="10.276473606230484"><ele>506.0</ele><time>2026-04-04T16:14:33Z</time></trkpt><trkpt lat="44.583853785297734" lon="10.276628573706523"><ele>506.0</ele><time>2026-04-04T16:14:34Z</time></trkpt><trkpt lat="44.58388319684588" lon="10.276785427063903"><ele>506.0</ele><time>2026-04-04T16:14:35Z</time></trkpt><trkpt lat="44.58392181257385" lon="10.276943999283658"><ele>506.6</ele><time>2026-04-04T16:14:36Z</time></trkpt><trkpt lat="44.58393601888651" lon="10.277094152390246"><ele>507.20000000000005</ele><time>2026-04-04T16:14:37Z</time></trkpt><trkpt lat="44.58398021561142" lon="10.27724546027791"><ele>507.79999999999995</ele><time>2026-04-04T16:14:38Z</time></trkpt><trkpt lat="44.584052591521285" lon="10.277379556531972"><ele>508.4</ele><time>2026-04-04T16:14:39Z</time></trkpt><trkpt lat="44.584090125441314" lon="10.277501003603248"><ele>509.0</ele><time>2026-04-04T16:14:40Z</time></trkpt><trkpt lat="44.58412362328415" lon="10.277611367074144"><ele>509.66666666666663</ele><time>2026-04-04T16:14:41Z</time></trkpt><trkpt lat="44.58410622631765" lon="10.277707691111088"><ele>510.3333333333333</ele><time>2026-04-04T16:14:42Z</time></trkpt><trkpt lat="44.58408057986762" lon="10.277802363237617"><ele>511.0</ele><time>2026-04-04T16:14:43Z</time></trkpt><trkpt lat="44.58405775416138" lon="10.277923611144558"><ele>511.66666666666663</ele><time>2026-04-04T16:14:44Z</time></trkpt><trkpt lat="44.5840501906734" lon="10.2780661728229"><ele>512.3333333333334</ele><time>2026-04-04T16:14:45Z</time></trkpt><trkpt lat="44.5840416597536" lon="10.278210481384054"><ele>513.0</ele><time>2026-04-04T16:14:46Z</time></trkpt><trkpt lat="44.58400351793808" lon="10.278352757591128"><ele>513.1999999999999</ele><time>2026-04-04T16:14:47Z</time></trkpt><trkpt lat="44.583988539424084" lon="10.278483368315085"><ele>513.4</ele><time>2026-04-04T16:14:48Z</time></trkpt><trkpt lat="44.58399960730261" lon="10.278618707073832"><ele>513.5999999999999</ele><time>2026-04-04T16:14:49Z</time></trkpt><trkpt lat="44.58407452248774" lon="10.27874377550421"><ele>513.8</ele><time>2026-04-04T16:14:50Z</time></trkpt><trkpt lat="44.584118218077364" lon="10.278901749217834"><ele>514.0</ele><time>2026-04-04T16:14:51Z</time></trkpt><trkpt lat="44.58418430926927" lon="10.27904737377405"><ele>515.5</ele><time>2026-04-04T16:14:52Z</time></trkpt><trkpt lat="44.58426644030236" lon="10.279162170949814"><ele>517.0</ele><time>2026-04-04T16:14:53Z</time></trkpt><trkpt lat="44.58436550109785" lon="10.279266134751941"><ele>518.5</ele><time>2026-04-04T16:14:54Z</time></trkpt><trkpt lat="44.584487301114436" lon="10.279330361862868"><ele>520.0</ele><time>2026-04-04T16:14:55Z</time></trkpt><trkpt lat="44.58457510651403" lon="10.279430235511011"><ele>519.6</ele><time>2026-04-04T16:14:56Z</time></trkpt><trkpt lat="44.58465544716159" lon="10.279490586280765"><ele>519.2</ele><time>2026-04-04T16:14:57Z</time></trkpt><trkpt lat="44.58466505986515" lon="10.279638192155671"><ele>518.8</ele><time>2026-04-04T16:14:58Z</time></trkpt><trkpt lat="44.58472947292207" lon="10.279727782037435"><ele>518.4</ele><time>2026-04-04T16:14:59Z</time></trkpt><trkpt lat="44.58483901507008" lon="10.279832814690934"><ele>518.0</ele><time>2026-04-04T16:15:00Z</time></trkpt><trkpt lat="44.584974441950095" lon="10.27986581758953"><ele>518.0</ele><time>2026-04-04T16:15:01Z</time></trkpt><trkpt lat="44.5850789519501" lon="10.279973020003299"><ele>518.0</ele><time>2026-04-04T16:15:02Z</time></trkpt><trkpt lat="44.585156209259225" lon="10.28009016440595"><ele>518.0</ele><time>2026-04-04T16:15:03Z</time></trkpt><trkpt lat="44.585235880503454" lon="10.28021097708522"><ele>518.0</ele><time>2026-04-04T16:15:04Z</time></trkpt><trkpt lat="44.58534238897682" lon="10.2803375999241"><ele>517.4</ele><time>2026-04-04T16:15:05Z</time></trkpt><trkpt lat="44.58543778655849" lon="10.280458138785033"><ele>516.8</ele><time>2026-04-04T16:15:06Z</time></trkpt><trkpt lat="44.58553559734126" lon="10.280569279983377"><ele>516.2</ele><time>2026-04-04T16:15:07Z</time></trkpt><trkpt lat="44.58562270832189" lon="10.280637230844178"><ele>515.6</ele><time>2026-04-04T16:15:08Z</time></trkpt><trkpt lat="44.58568688002711" lon="10.280713855502727"><ele>515.0</ele><time>2026-04-04T16:15:09Z</time></trkpt><trkpt lat="44.585722565869126" lon="10.280813603784733"><ele>515.0</ele><time>2026-04-04T16:15:10Z</time></trkpt><trkpt lat="44.58575849914557" lon="10.28092491316959"><ele>515.0</ele><time>2026-04-04T16:15:11Z</time></trkpt><trkpt lat="44.58580778144397" lon="10.281042936380336"><ele>515.0</ele><time>2026-04-04T16:15:13Z</time></trkpt><trkpt lat="44.585837912223965" lon="10.281124888650181"><ele>515.0</ele><time>2026-04-04T16:15:16Z</time></trkpt><trkpt lat="44.58581946542082" lon="10.281214150482107"><ele>515.0</ele><time>2026-04-04T16:16:36Z</time></trkpt><trkpt lat="44.58575786997366" lon="10.281264748059465"><ele>515.0</ele><time>2026-04-04T16:16:38Z</time></trkpt><trkpt lat="44.585671690796694" lon="10.281335842434467"><ele>515.0</ele><time>2026-04-04T16:16:40Z</time></trkpt><trkpt lat="44.58556917722011" lon="10.281394349597395"><ele>515.0</ele><time>2026-04-04T16:16:42Z</time></trkpt><trkpt lat="44.58549251094516" lon="10.281459036502142"><ele>515.0</ele><time>2026-04-04T16:16:44Z</time></trkpt><trkpt lat="44.585433840724185" lon="10.281498744778652"><ele>515.0</ele><time>2026-04-04T16:16:45Z</time></trkpt><trkpt lat="44.5853852453238" lon="10.281614037668458"><ele>515.0</ele><time>2026-04-04T16:16:46Z</time></trkpt><trkpt lat="44.585331390965116" lon="10.281727081124131"><ele>518.4</ele><time>2026-04-04T16:16:47Z</time></trkpt><trkpt lat="44.58526999843802" lon="10.281826304043353"><ele>521.8</ele><time>2026-04-04T16:16:48Z</time></trkpt><trkpt lat="44.58522850170599" lon="10.281918365007858"><ele>525.2</ele><time>2026-04-04T16:16:49Z</time></trkpt><trkpt lat="44.58519652764408" lon="10.282026117755048"><ele>528.6</ele><time>2026-04-04T16:16:50Z</time></trkpt><trkpt lat="44.585124258841354" lon="10.282097686795577"><ele>532.0</ele><time>2026-04-04T16:16:51Z</time></trkpt><trkpt lat="44.58501318129059" lon="10.282193021344096"><ele>532.0</ele><time>2026-04-04T16:16:53Z</time></trkpt><trkpt lat="44.5849397659005" lon="10.282205567675335"><ele>532.0</ele><time>2026-04-04T16:16:54Z</time></trkpt><trkpt lat="44.58484287793857" lon="10.282196423070351"><ele>532.0</ele><time>2026-04-04T16:16:55Z</time></trkpt><trkpt lat="44.58474860371103" lon="10.282196859280345"><ele>532.0</ele><time>2026-04-04T16:16:56Z</time></trkpt><trkpt lat="44.58466298714964" lon="10.282218928051233"><ele>532.0</ele><time>2026-04-04T16:16:57Z</time></trkpt><trkpt lat="44.58457979176936" lon="10.282240603090434"><ele>532.0</ele><time>2026-04-04T16:16:58Z</time></trkpt><trkpt lat="44.58450606637132" lon="10.282305289808436"><ele>532.1666666666667</ele><time>2026-04-04T16:16:59Z</time></trkpt><trkpt lat="44.5844283044145" lon="10.282384906020253"><ele>532.3333333333334</ele><time>2026-04-04T16:17:00Z</time></trkpt><trkpt lat="44.58435588560258" lon="10.282421584370436"><ele>532.5</ele><time>2026-04-04T16:17:01Z</time></trkpt><trkpt lat="44.58428987411606" lon="10.282432180431774"><ele>532.6666666666666</ele><time>2026-04-04T16:17:02Z</time></trkpt><trkpt lat="44.58420873061031" lon="10.282430630489163"><ele>532.8333333333333</ele><time>2026-04-04T16:17:03Z</time></trkpt><trkpt lat="44.58411621723069" lon="10.282442956218327"><ele>533.0</ele><time>2026-04-04T16:17:04Z</time></trkpt><trkpt lat="44.58402574927422" lon="10.282480454273715"><ele>533.0</ele><time>2026-04-04T16:17:05Z</time></trkpt><trkpt lat="44.583931909124566" lon="10.282556048991513"><ele>533.0</ele><time>2026-04-04T16:17:06Z</time></trkpt><trkpt lat="44.58384750660647" lon="10.282583618972929"><ele>533.0</ele><time>2026-04-04T16:17:07Z</time></trkpt><trkpt lat="44.58377426487233" lon="10.282637626393738"><ele>533.0</ele><time>2026-04-04T16:17:08Z</time></trkpt><trkpt lat="44.583713683462896" lon="10.282700665889958"><ele>533.0</ele><time>2026-04-04T16:17:09Z</time></trkpt><trkpt lat="44.58365758685738" lon="10.282782665643179"><ele>533.0</ele><time>2026-04-04T16:17:10Z</time></trkpt><trkpt lat="44.58366544539074" lon="10.282932635211159"><ele>530.6</ele><time>2026-04-04T16:17:11Z</time></trkpt><trkpt lat="44.58366187171415" lon="10.283059566515197"><ele>528.1999999999999</ele><time>2026-04-04T16:17:12Z</time></trkpt><trkpt lat="44.58365100377446" lon="10.283194914526847"><ele>525.8</ele><time>2026-04-04T16:17:13Z</time></trkpt><trkpt lat="44.58366547870288" lon="10.283348272728997"><ele>523.4</ele><time>2026-04-04T16:17:14Z</time></trkpt><trkpt lat="44.5837078663983" lon="10.283496883878271"><ele>521.0</ele><time>2026-04-04T16:17:15Z</time></trkpt><trkpt lat="44.58374084295521" lon="10.283626736662418"><ele>521.0</ele><time>2026-04-04T16:17:16Z</time></trkpt><trkpt lat="44.58375558395818" lon="10.283721506748499"><ele>521.0</ele><time>2026-04-04T16:17:17Z</time></trkpt><trkpt lat="44.58372691956589" lon="10.283868195583905"><ele>521.0</ele><time>2026-04-04T16:17:19Z</time></trkpt><trkpt lat="44.58367929216157" lon="10.28395309159686"><ele>521.0</ele><time>2026-04-04T16:17:20Z</time></trkpt><trkpt lat="44.58363841920434" lon="10.284075073457617"><ele>521.0</ele><time>2026-04-04T16:17:21Z</time></trkpt><trkpt lat="44.583612988636816" lon="10.284174726466093"><ele>521.0</ele><time>2026-04-04T16:17:22Z</time></trkpt><trkpt lat="44.583531488120556" lon="10.284292011456738"><ele>525.6</ele><time>2026-04-04T16:17:24Z</time></trkpt><trkpt lat="44.58345740625135" lon="10.284343373968541"><ele>530.2</ele><time>2026-04-04T16:17:25Z</time></trkpt><trkpt lat="44.583410214430195" lon="10.28443270584445"><ele>534.8</ele><time>2026-04-04T16:17:26Z</time></trkpt><trkpt lat="44.58335031038051" lon="10.284613098284968"><ele>539.4</ele><time>2026-04-04T16:17:28Z</time></trkpt><trkpt lat="44.58334787239713" lon="10.284751829082063"><ele>544.0</ele><time>2026-04-04T16:17:29Z</time></trkpt><trkpt lat="44.583346838146696" lon="10.284882620915099"><ele>544.0</ele><time>2026-04-04T16:17:30Z</time></trkpt><trkpt lat="44.58335444133425" lon="10.28501218659948"><ele>544.0</ele><time>2026-04-04T16:17:31Z</time></trkpt><trkpt lat="44.58336995476335" lon="10.285128246971077"><ele>544.0</ele><time>2026-04-04T16:17:32Z</time></trkpt><trkpt lat="44.583359678116544" lon="10.285265937818458"><ele>544.0</ele><time>2026-04-04T16:17:33Z</time></trkpt><trkpt lat="44.583372108618086" lon="10.285384865481221"><ele>544.0</ele><time>2026-04-04T16:17:34Z</time></trkpt><trkpt lat="44.58337992852713" lon="10.285483083857354"><ele>544.0</ele><time>2026-04-04T16:17:35Z</time></trkpt><trkpt lat="44.58337375949728" lon="10.28557884001855"><ele>544.3333333333334</ele><time>2026-04-04T16:17:36Z</time></trkpt><trkpt lat="44.58333182929573" lon="10.285658611031877"><ele>544.6666666666667</ele><time>2026-04-04T16:17:37Z</time></trkpt><trkpt lat="44.583282639868415" lon="10.28573606722579"><ele>545.0</ele><time>2026-04-04T16:17:38Z</time></trkpt><trkpt lat="44.58324419663227" lon="10.28585032298188"><ele>545.3333333333334</ele><time>2026-04-04T16:17:39Z</time></trkpt><trkpt lat="44.58320547834932" lon="10.285959919342492"><ele>545.6666666666666</ele><time>2026-04-04T16:17:40Z</time></trkpt><trkpt lat="44.58318191700681" lon="10.286062374801967"><ele>546.0</ele><time>2026-04-04T16:17:41Z</time></trkpt><trkpt lat="44.5832342468331" lon="10.286181985719933"><ele>546.0</ele><time>2026-04-04T16:17:42Z</time></trkpt><trkpt lat="44.58324454180321" lon="10.286311603453852"><ele>546.0</ele><time>2026-04-04T16:17:43Z</time></trkpt><trkpt lat="44.58324235331414" lon="10.286400661784572"><ele>546.0</ele><time>2026-04-04T16:17:44Z</time></trkpt><trkpt lat="44.58321422199249" lon="10.286506205726985"><ele>546.0</ele><time>2026-04-04T16:17:45Z</time></trkpt><trkpt lat="44.58319785710061" lon="10.286626224478388"><ele>546.0</ele><time>2026-04-04T16:17:46Z</time></trkpt><trkpt lat="44.58321332630432" lon="10.286766031451915"><ele>546.0</ele><time>2026-04-04T16:17:47Z</time></trkpt><trkpt lat="44.583213545908144" lon="10.286915569902238"><ele>545.8333333333334</ele><time>2026-04-04T16:17:48Z</time></trkpt><trkpt lat="44.5831906714848" lon="10.287043194186381"><ele>545.6666666666666</ele><time>2026-04-04T16:17:49Z</time></trkpt><trkpt lat="44.58319972531988" lon="10.287163396216949"><ele>545.5</ele><time>2026-04-04T16:17:50Z</time></trkpt><trkpt lat="44.583182682571135" lon="10.287250486815562"><ele>545.3333333333333</ele><time>2026-04-04T16:17:51Z</time></trkpt><trkpt lat="44.58319136509319" lon="10.287340192422127"><ele>545.1666666666666</ele><time>2026-04-04T16:17:52Z</time></trkpt><trkpt lat="44.58322461957789" lon="10.287445016161138"><ele>545.0</ele><time>2026-04-04T16:17:53Z</time></trkpt><trkpt lat="44.583254797400706" lon="10.28753788277485"><ele>544.5</ele><time>2026-04-04T16:17:54Z</time></trkpt><trkpt lat="44.583274627760915" lon="10.287632003838604"><ele>544.0</ele><time>2026-04-04T16:17:55Z</time></trkpt><trkpt lat="44.583261548115104" lon="10.287728538383087"><ele>543.5</ele><time>2026-04-04T16:17:56Z</time></trkpt><trkpt lat="44.58320284257907" lon="10.287854797655097"><ele>543.0</ele><time>2026-04-04T16:17:58Z</time></trkpt><trkpt lat="44.58309388786445" lon="10.287893734139052"><ele>542.5</ele><time>2026-04-04T16:18:00Z</time></trkpt><trkpt lat="44.58301520789945" lon="10.287908536500604"><ele>542.0</ele><time>2026-04-04T16:18:02Z</time></trkpt><trkpt lat="44.583021206365174" lon="10.28805421370565"><ele>542.0</ele><time>2026-04-04T16:19:14Z</time></trkpt><trkpt lat="44.58317675577534" lon="10.287855051222"><ele>542.0</ele><time>2026-04-04T16:19:16Z</time></trkpt><trkpt lat="44.583242480762515" lon="10.287847715467437"><ele>542.0</ele><time>2026-04-04T16:19:36Z</time></trkpt><trkpt lat="44.583265393623925" lon="10.287951824443939"><ele>542.0</ele><time>2026-04-04T16:19:40Z</time></trkpt><trkpt lat="44.58328731912259" lon="10.288041259404302"><ele>542.0</ele><time>2026-04-04T16:19:43Z</time></trkpt><trkpt lat="44.58331242158011" lon="10.28812289792501"><ele>541.4285714285714</ele><time>2026-04-04T16:19:46Z</time></trkpt><trkpt lat="44.583331329846686" lon="10.288226170919344"><ele>540.8571428571429</ele><time>2026-04-04T16:19:49Z</time></trkpt><trkpt lat="44.583356814190495" lon="10.28831314846773"><ele>540.2857142857143</ele><time>2026-04-04T16:19:53Z</time></trkpt><trkpt lat="44.583405724627774" lon="10.288391046296104"><ele>539.7142857142858</ele><time>2026-04-04T16:19:56Z</time></trkpt><trkpt lat="44.58343668422159" lon="10.288477572283318"><ele>539.1428571428572</ele><time>2026-04-04T16:20:00Z</time></trkpt><trkpt lat="44.58345180473658" lon="10.288564953136115"><ele>538.5714285714286</ele><time>2026-04-04T16:20:03Z</time></trkpt><trkpt lat="44.583447179271914" lon="10.288659560949217"><ele>538.0</ele><time>2026-04-04T16:20:05Z</time></trkpt><trkpt lat="44.58343967881507" lon="10.288774637199895"><ele>538.0</ele><time>2026-04-04T16:20:08Z</time></trkpt><trkpt lat="44.5834411652823" lon="10.288899805585666"><ele>538.0</ele><time>2026-04-04T16:20:11Z</time></trkpt><trkpt lat="44.583439764327515" lon="10.289018535285038"><ele>538.0</ele><time>2026-04-04T16:20:13Z</time></trkpt><trkpt lat="44.58343398694846" lon="10.28913095236815"><ele>538.0</ele><time>2026-04-04T16:20:15Z</time></trkpt><trkpt lat="44.58342543646894" lon="10.289287143456297"><ele>538.0</ele><time>2026-04-04T16:20:18Z</time></trkpt><trkpt lat="44.5834356163641" lon="10.289420498042903"><ele>535.8</ele><time>2026-04-04T16:20:20Z</time></trkpt><trkpt lat="44.58345391197504" lon="10.289541914627094"><ele>533.5999999999999</ele><time>2026-04-04T16:20:22Z</time></trkpt><trkpt lat="44.5834666298033" lon="10.289659097125003"><ele>531.4000000000001</ele><time>2026-04-04T16:20:24Z</time></trkpt><trkpt lat="44.583476241955736" lon="10.289794126391632"><ele>529.2</ele><time>2026-04-04T16:20:26Z</time></trkpt><trkpt lat="44.5834909240473" lon="10.289946101128638"><ele>527.0</ele><time>2026-04-04T16:20:28Z</time></trkpt><trkpt lat="44.5834986456489" lon="10.290093825182263"><ele>525.5</ele><time>2026-04-04T16:20:30Z</time></trkpt><trkpt lat="44.58349995682628" lon="10.29018678308768"><ele>524.0</ele><time>2026-04-04T16:20:31Z</time></trkpt><trkpt lat="44.583504014157334" lon="10.290279508040532"><ele>522.5</ele><time>2026-04-04T16:20:32Z</time></trkpt><trkpt lat="44.58352058198001" lon="10.290433419102063"><ele>521.0</ele><time>2026-04-04T16:20:34Z</time></trkpt><trkpt lat="44.58352918734326" lon="10.290552619257399"><ele>519.5</ele><time>2026-04-04T16:20:36Z</time></trkpt><trkpt lat="44.58356483676584" lon="10.290657202685955"><ele>518.0</ele><time>2026-04-04T16:20:39Z</time></trkpt><trkpt lat="44.58362584835311" lon="10.29070900617866"><ele>515.4285714285714</ele><time>2026-04-04T16:20:41Z</time></trkpt><trkpt lat="44.583687806619665" lon="10.29076140143512"><ele>512.8571428571429</ele><time>2026-04-04T16:20:43Z</time></trkpt><trkpt lat="44.58374232812866" lon="10.29081808445042"><ele>510.2857142857143</ele><time>2026-04-04T16:20:45Z</time></trkpt><trkpt lat="44.583818997227034" lon="10.290895784596765"><ele>507.7142857142857</ele><time>2026-04-04T16:20:48Z</time></trkpt><trkpt lat="44.583870797839516" lon="10.290950835664017"><ele>505.14285714285717</ele><time>2026-04-04T16:20:50Z</time></trkpt><trkpt lat="44.58390565819494" lon="10.291031980028572"><ele>502.57142857142856</ele><time>2026-04-04T16:20:53Z</time></trkpt><trkpt lat="44.583948184153506" lon="10.291125264529718"><ele>500.0</ele><time>2026-04-04T16:20:56Z</time></trkpt><trkpt lat="44.58398905413434" lon="10.291197005555166"><ele>499.99999999999994</ele><time>2026-04-04T16:20:59Z</time></trkpt><trkpt lat="44.58402553702728" lon="10.29130272223642"><ele>500.0</ele><time>2026-04-04T16:21:03Z</time></trkpt><trkpt lat="44.58407852813472" lon="10.291399935552217"><ele>500.0</ele><time>2026-04-04T16:21:06Z</time></trkpt><trkpt lat="44.584114245779006" lon="10.291482552100891"><ele>500.0</ele><time>2026-04-04T16:21:08Z</time></trkpt><trkpt lat="44.5841525746335" lon="10.291566824577972"><ele>499.99999999999994</ele><time>2026-04-04T16:21:10Z</time></trkpt><trkpt lat="44.584192810144174" lon="10.291659288754337"><ele>500.0</ele><time>2026-04-04T16:21:12Z</time></trkpt><trkpt lat="44.58423002405011" lon="10.291741621249873"><ele>498.8333333333333</ele><time>2026-04-04T16:21:14Z</time></trkpt><trkpt lat="44.584259725294515" lon="10.291862582008648"><ele>497.66666666666663</ele><time>2026-04-04T16:21:17Z</time></trkpt><trkpt lat="44.584274875921274" lon="10.291965068515463"><ele>496.5</ele><time>2026-04-04T16:21:19Z</time></trkpt><trkpt lat="44.584265320347754" lon="10.292053046761895"><ele>495.33333333333337</ele><time>2026-04-04T16:21:22Z</time></trkpt><trkpt lat="44.5842494279549" lon="10.292138650427974"><ele>494.1666666666667</ele><time>2026-04-04T16:21:48Z</time></trkpt><trkpt lat="44.584233075155396" lon="10.292258734376295"><ele>493.0</ele><time>2026-04-04T16:21:51.001Z</time></trkpt><trkpt lat="44.58424085762399" lon="10.292395577314803"><ele>491.0</ele><time>2026-04-04T16:21:54.001Z</time></trkpt><trkpt lat="44.584253130119215" lon="10.292505553143137"><ele>489.0</ele><time>2026-04-04T16:21:56.001Z</time></trkpt><trkpt lat="44.584272628641784" lon="10.292628405151456"><ele>487.0</ele><time>2026-04-04T16:21:59.001Z</time></trkpt><trkpt lat="44.58428004294147" lon="10.292718507181972"><ele>485.0</ele><time>2026-04-04T16:22:01.001Z</time></trkpt><trkpt lat="44.58428888769133" lon="10.292814481467582"><ele>483.0</ele><time>2026-04-04T16:22:03.001Z</time></trkpt><trkpt lat="44.58429646988778" lon="10.292906918440648"><ele>481.0</ele><time>2026-04-04T16:22:06.001Z</time></trkpt><trkpt lat="44.58423066230759" lon="10.292858969014505"><ele>479.0</ele><time>2026-04-04T16:27:13Z</time></trkpt><trkpt lat="44.58423047490836" lon="10.292766299510465"><ele>479.0</ele><time>2026-04-04T16:27:15Z</time></trkpt><trkpt lat="44.58425380192442" lon="10.29265840653137"><ele>479.0</ele><time>2026-04-04T16:27:17Z</time></trkpt><trkpt lat="44.584271924467544" lon="10.29256942705443"><ele>479.0</ele><time>2026-04-04T16:27:19Z</time></trkpt><trkpt lat="44.58424828944259" lon="10.292481731860086"><ele>479.0</ele><time>2026-04-04T16:27:21Z</time></trkpt><trkpt lat="44.58423811309255" lon="10.292379630147416"><ele>479.0</ele><time>2026-04-04T16:27:23Z</time></trkpt><trkpt lat="44.58422690893127" lon="10.292266585236565"><ele>479.0</ele><time>2026-04-04T16:27:25Z</time></trkpt><trkpt lat="44.584244252232565" lon="10.292170556715421"><ele>479.0</ele><time>2026-04-04T16:27:27Z</time></trkpt><trkpt lat="44.58426874975941" lon="10.29206936248887"><ele>481.0</ele><time>2026-04-04T16:27:29Z</time></trkpt><trkpt lat="44.58427625797567" lon="10.291952089712522"><ele>483.0</ele><time>2026-04-04T16:27:31Z</time></trkpt><trkpt lat="44.58424946337778" lon="10.291866880956135"><ele>485.0</ele><time>2026-04-04T16:27:33Z</time></trkpt><trkpt lat="44.58422446596669" lon="10.291780340351346"><ele>487.0</ele><time>2026-04-04T16:27:35Z</time></trkpt><trkpt lat="44.58419448144223" lon="10.29169734212877"><ele>489.0</ele><time>2026-04-04T16:27:37Z</time></trkpt><trkpt lat="44.58415705507658" lon="10.291622121824371"><ele>491.0</ele><time>2026-04-04T16:27:39Z</time></trkpt><trkpt lat="44.58411965815504" lon="10.291527466744283"><ele>493.0</ele><time>2026-04-04T16:27:41Z</time></trkpt><trkpt lat="44.58406855198862" lon="10.291428218424983"><ele>494.1666666666667</ele><time>2026-04-04T16:27:44Z</time></trkpt><trkpt lat="44.584024391945846" lon="10.291341817443355"><ele>495.33333333333337</ele><time>2026-04-04T16:27:47Z</time></trkpt><trkpt lat="44.58397258134054" lon="10.291220416730953"><ele>496.5</ele><time>2026-04-04T16:27:50Z</time></trkpt><trkpt lat="44.583920368606144" lon="10.291110994331754"><ele>497.66666666666663</ele><time>2026-04-04T16:27:53Z</time></trkpt><trkpt lat="44.583886383690434" lon="10.291033233339071"><ele>498.8333333333333</ele><time>2026-04-04T16:27:55Z</time></trkpt><trkpt lat="44.58384740745108" lon="10.290956050591584"><ele>500.0</ele><time>2026-04-04T16:27:57Z</time></trkpt><trkpt lat="44.58376108336323" lon="10.290877802070922"><ele>499.99999999999994</ele><time>2026-04-04T16:27:59Z</time></trkpt><trkpt lat="44.58370445765683" lon="10.290822284147916"><ele>500.0</ele><time>2026-04-04T16:28:01Z</time></trkpt><trkpt lat="44.583630432557825" lon="10.290747460224024"><ele>500.0</ele><time>2026-04-04T16:28:03Z</time></trkpt><trkpt lat="44.583560940302185" lon="10.29066590412159"><ele>500.0</ele><time>2026-04-04T16:28:05Z</time></trkpt><trkpt lat="44.58351749309766" lon="10.290555388563595"><ele>499.99999999999994</ele><time>2026-04-04T16:28:24.999Z</time></trkpt><trkpt lat="44.583510302757304" lon="10.290436698577937"><ele>500.0</ele><time>2026-04-04T16:28:26.999Z</time></trkpt><trkpt lat="44.58349868451696" lon="10.290303401175933"><ele>502.99999999999994</ele><time>2026-04-04T16:28:28.999Z</time></trkpt><trkpt lat="44.58348896463504" lon="10.290170276175797"><ele>506.0</ele><time>2026-04-04T16:28:30.999Z</time></trkpt><trkpt lat="44.58348566097975" lon="10.290040557712446"><ele>509.0</ele><time>2026-04-04T16:28:32.999Z</time></trkpt><trkpt lat="44.58347703934747" lon="10.289912572481693"><ele>512.0</ele><time>2026-04-04T16:28:34.999Z</time></trkpt><trkpt lat="44.583462326498775" lon="10.289792813757435"><ele>515.0</ele><time>2026-04-04T16:28:36.999Z</time></trkpt><trkpt lat="44.583454124807105" lon="10.289677665093862"><ele>518.0</ele><time>2026-04-04T16:28:38.999Z</time></trkpt><trkpt lat="44.58344321298311" lon="10.289569598952927"><ele>519.8</ele><time>2026-04-04T16:28:40.999Z</time></trkpt><trkpt lat="44.58342101744298" lon="10.289421073382039"><ele>521.5999999999999</ele><time>2026-04-04T16:28:42.999Z</time></trkpt><trkpt lat="44.58341296176827" lon="10.289275294402369"><ele>523.4000000000001</ele><time>2026-04-04T16:28:44.999Z</time></trkpt><trkpt lat="44.58342611353151" lon="10.289128318430512"><ele>525.2</ele><time>2026-04-04T16:28:46.999Z</time></trkpt><trkpt lat="44.58342899427862" lon="10.288993036186273"><ele>527.0</ele><time>2026-04-04T16:28:48.999Z</time></trkpt><trkpt lat="44.58343434011702" lon="10.288846750837397"><ele>528.8333333333333</ele><time>2026-04-04T16:28:50.999Z</time></trkpt><trkpt lat="44.583441655388924" lon="10.28872053679279"><ele>530.6666666666666</ele><time>2026-04-04T16:28:52.999Z</time></trkpt><trkpt lat="44.5834517711205" lon="10.288580909957059"><ele>532.5</ele><time>2026-04-04T16:28:54.999Z</time></trkpt><trkpt lat="44.58342323446408" lon="10.288476814252213"><ele>534.3333333333334</ele><time>2026-04-04T16:28:57.999Z</time></trkpt><trkpt lat="44.583392792457325" lon="10.288376712789994"><ele>536.1666666666667</ele><time>2026-04-04T16:28:59.999Z</time></trkpt><trkpt lat="44.58335224863932" lon="10.288303304287115"><ele>538.0</ele><time>2026-04-04T16:29:01.999Z</time></trkpt><trkpt lat="44.583316504635675" lon="10.288192795204386"><ele>538.6666666666667</ele><time>2026-04-04T16:29:03.999Z</time></trkpt><trkpt lat="44.58329534549674" lon="10.288081257772651"><ele>539.3333333333334</ele><time>2026-04-04T16:29:05.999Z</time></trkpt><trkpt lat="44.583252071910195" lon="10.28797815707325"><ele>540.0</ele><time>2026-04-04T16:29:07.999Z</time></trkpt><trkpt lat="44.58323318219507" lon="10.287860862425568"><ele>540.6666666666666</ele><time>2026-04-04T16:29:09.999Z</time></trkpt><trkpt lat="44.58325304975162" lon="10.287762538889062"><ele>541.3333333333333</ele><time>2026-04-04T16:29:11.999Z</time></trkpt><trkpt lat="44.583267980758514" lon="10.28763738749543"><ele>542.0</ele><time>2026-04-04T16:29:14.999Z</time></trkpt><trkpt lat="44.58324666727452" lon="10.287461447222203"><ele>542.0</ele><time>2026-04-04T16:29:16.999Z</time></trkpt><trkpt lat="44.583237662730205" lon="10.287367334125827"><ele>542.0</ele><time>2026-04-04T16:29:17.999Z</time></trkpt><trkpt lat="44.58321398667852" lon="10.287209429838223"><ele>542.0</ele><time>2026-04-04T16:29:19.999Z</time></trkpt><trkpt lat="44.58322635379897" lon="10.287008685003322"><ele>542.0</ele><time>2026-04-04T16:29:21.999Z</time></trkpt><trkpt lat="44.58322200379606" lon="10.286903750790634"><ele>542.0</ele><time>2026-04-04T16:29:22.999Z</time></trkpt><trkpt lat="44.583220541887286" lon="10.286788578902504"><ele>542.5</ele><time>2026-04-04T16:29:23.999Z</time></trkpt><trkpt lat="44.583223100561526" lon="10.28666943118715"><ele>543.0</ele><time>2026-04-04T16:29:24.999Z</time></trkpt><trkpt lat="44.58322730405394" lon="10.286562132180723"><ele>543.5</ele><time>2026-04-04T16:29:25.999Z</time></trkpt><trkpt lat="44.583247268824344" lon="10.286460219223635"><ele>544.0</ele><time>2026-04-04T16:29:26.999Z</time></trkpt><trkpt lat="44.58326875626415" lon="10.286361250003582"><ele>544.5</ele><time>2026-04-04T16:29:27.999Z</time></trkpt><trkpt lat="44.58325141541598" lon="10.286178749769446"><ele>545.0</ele><time>2026-04-04T16:29:29.999Z</time></trkpt><trkpt lat="44.583223644540276" lon="10.286077575282764"><ele>545.1428571428571</ele><time>2026-04-04T16:29:30.999Z</time></trkpt><trkpt lat="44.58321436706347" lon="10.285985705831553"><ele>545.2857142857143</ele><time>2026-04-04T16:29:31.999Z</time></trkpt><trkpt lat="44.58323020884784" lon="10.285898330123556"><ele>545.4285714285714</ele><time>2026-04-04T16:29:32.999Z</time></trkpt><trkpt lat="44.58326959184985" lon="10.285818157679632"><ele>545.5714285714286</ele><time>2026-04-04T16:29:33.999Z</time></trkpt><trkpt lat="44.583325065514934" lon="10.285727306954724"><ele>545.7142857142858</ele><time>2026-04-04T16:29:34.999Z</time></trkpt><trkpt lat="44.58337727493259" lon="10.28565588007237"><ele>545.8571428571429</ele><time>2026-04-04T16:29:35.999Z</time></trkpt><trkpt lat="44.58341386164139" lon="10.285580637331854"><ele>546.0</ele><time>2026-04-04T16:29:36.999Z</time></trkpt><trkpt lat="44.58341631330755" lon="10.285389646853876"><ele>545.6666666666666</ele><time>2026-04-04T16:29:38.999Z</time></trkpt><trkpt lat="44.58339981170905" lon="10.285253248075062"><ele>545.3333333333334</ele><time>2026-04-04T16:29:39.999Z</time></trkpt><trkpt lat="44.583386653968056" lon="10.285125036747377"><ele>545.0</ele><time>2026-04-04T16:29:40.999Z</time></trkpt><trkpt lat="44.58336756131959" lon="10.285020148003637"><ele>544.6666666666667</ele><time>2026-04-04T16:29:41.999Z</time></trkpt><trkpt lat="44.58336720960987" lon="10.284913662936281"><ele>544.3333333333334</ele><time>2026-04-04T16:29:42.999Z</time></trkpt><trkpt lat="44.583373240479176" lon="10.284802092830025"><ele>544.0</ele><time>2026-04-04T16:29:43.999Z</time></trkpt><trkpt lat="44.583392755755625" lon="10.284693503678216"><ele>544.6666666666667</ele><time>2026-04-04T16:29:44.999Z</time></trkpt><trkpt lat="44.583393831959434" lon="10.284590819580092"><ele>545.3333333333334</ele><time>2026-04-04T16:29:45.999Z</time></trkpt><trkpt lat="44.5833961820134" lon="10.284495844325795"><ele>546.0</ele><time>2026-04-04T16:29:46.999Z</time></trkpt><trkpt lat="44.5834812499925" lon="10.284359424321229"><ele>546.6666666666666</ele><time>2026-04-04T16:29:48.999Z</time></trkpt><trkpt lat="44.58355459477503" lon="10.284306231829012"><ele>547.3333333333333</ele><time>2026-04-04T16:29:49.999Z</time></trkpt><trkpt lat="44.5836279566269" lon="10.284257091403347"><ele>548.0</ele><time>2026-04-04T16:29:50.999Z</time></trkpt><trkpt lat="44.58368160428933" lon="10.284150992733599"><ele>543.8333333333333</ele><time>2026-04-04T16:29:52.999Z</time></trkpt><trkpt lat="44.58369195099934" lon="10.284053669088578"><ele>539.6666666666666</ele><time>2026-04-04T16:29:53.999Z</time></trkpt><trkpt lat="44.5837124352056" lon="10.283951126165418"><ele>535.5</ele><time>2026-04-04T16:29:54.999Z</time></trkpt><trkpt lat="44.58375088223885" lon="10.283867094225162"><ele>531.3333333333334</ele><time>2026-04-04T16:29:55.999Z</time></trkpt><trkpt lat="44.58378265608104" lon="10.283771315612695"><ele>527.1666666666667</ele><time>2026-04-04T16:29:56.999Z</time></trkpt><trkpt lat="44.58377804696822" lon="10.283620019860226"><ele>523.0</ele><time>2026-04-04T16:29:58.999Z</time></trkpt><trkpt lat="44.58373009054674" lon="10.28344613492813"><ele>522.6666666666667</ele><time>2026-04-04T16:30:00.999Z</time></trkpt><trkpt lat="44.583700219656926" lon="10.283319326195699"><ele>522.3333333333334</ele><time>2026-04-04T16:30:01.999Z</time></trkpt><trkpt lat="44.58368115257336" lon="10.283208219821537"><ele>522.0</ele><time>2026-04-04T16:30:02.999Z</time></trkpt><trkpt lat="44.58367110589454" lon="10.283081379515291"><ele>521.6666666666666</ele><time>2026-04-04T16:30:03.999Z</time></trkpt><trkpt lat="44.58367147677648" lon="10.282959520536394"><ele>521.3333333333333</ele><time>2026-04-04T16:30:04.999Z</time></trkpt><trkpt lat="44.583680697374035" lon="10.282851548621993"><ele>521.0</ele><time>2026-04-04T16:30:05.999Z</time></trkpt><trkpt lat="44.583708489902435" lon="10.282758703166243"><ele>523.4</ele><time>2026-04-04T16:30:06.999Z</time></trkpt><trkpt lat="44.58375945836234" lon="10.28266739818838"><ele>525.8</ele><time>2026-04-04T16:30:07.999Z</time></trkpt><trkpt lat="44.583838820922935" lon="10.2826341216169"><ele>528.1999999999999</ele><time>2026-04-04T16:30:08.999Z</time></trkpt><trkpt lat="44.5839159916798" lon="10.282565033845408"><ele>530.6</ele><time>2026-04-04T16:30:09.999Z</time></trkpt><trkpt lat="44.58402931108147" lon="10.282505686364049"><ele>533.0</ele><time>2026-04-04T16:30:10.999Z</time></trkpt><trkpt lat="44.58414904118421" lon="10.282482085599563"><ele>533.0</ele><time>2026-04-04T16:30:11.999Z</time></trkpt><trkpt lat="44.58424147947734" lon="10.28248271725115"><ele>533.0</ele><time>2026-04-04T16:30:12.999Z</time></trkpt><trkpt lat="44.58432407922205" lon="10.282471184988957"><ele>533.0</ele><time>2026-04-04T16:30:13.999Z</time></trkpt><trkpt lat="44.58444463804543" lon="10.282412806725544"><ele>533.0</ele><time>2026-04-04T16:30:15.999Z</time></trkpt><trkpt lat="44.58451197585572" lon="10.282344842025084"><ele>533.0</ele><time>2026-04-04T16:30:16.999Z</time></trkpt><trkpt lat="44.584596791180665" lon="10.282261114607703"><ele>532.8</ele><time>2026-04-04T16:30:17.999Z</time></trkpt><trkpt lat="44.584672887880224" lon="10.28221922362218"><ele>532.5999999999999</ele><time>2026-04-04T16:30:18.999Z</time></trkpt><trkpt lat="44.584769171186736" lon="10.282242724349041"><ele>532.4000000000001</ele><time>2026-04-04T16:30:19.999Z</time></trkpt><trkpt lat="44.58487241955113" lon="10.28222574500187"><ele>532.2</ele><time>2026-04-04T16:30:20.999Z</time></trkpt><trkpt lat="44.58496935266118" lon="10.282227519820971"><ele>532.0</ele><time>2026-04-04T16:30:21.999Z</time></trkpt><trkpt lat="44.58503881084701" lon="10.28221748059341"><ele>532.0</ele><time>2026-04-04T16:30:22.999Z</time></trkpt><trkpt lat="44.58512980601867" lon="10.282144396490187"><ele>532.0</ele><time>2026-04-04T16:30:24.999Z</time></trkpt><trkpt lat="44.58519636001701" lon="10.282056720940624"><ele>532.0</ele><time>2026-04-04T16:30:25.999Z</time></trkpt><trkpt lat="44.58524864865188" lon="10.281950875304348"><ele>532.0</ele><time>2026-04-04T16:30:26.999Z</time></trkpt><trkpt lat="44.58529517135169" lon="10.28183963534185"><ele>532.0</ele><time>2026-04-04T16:30:27.999Z</time></trkpt><trkpt lat="44.585344681289406" lon="10.281727592875617"><ele>529.1666666666667</ele><time>2026-04-04T16:30:28.999Z</time></trkpt><trkpt lat="44.585392753586376" lon="10.281623067060911"><ele>526.3333333333334</ele><time>2026-04-04T16:30:29.999Z</time></trkpt><trkpt lat="44.58544622906201" lon="10.281529786311197"><ele>523.5</ele><time>2026-04-04T16:30:30.999Z</time></trkpt><trkpt lat="44.58551422709388" lon="10.281444838697778"><ele>520.6666666666666</ele><time>2026-04-04T16:30:31.999Z</time></trkpt><trkpt lat="44.585581203322384" lon="10.281391373688717"><ele>517.8333333333333</ele><time>2026-04-04T16:30:32.999Z</time></trkpt><trkpt lat="44.58564666122623" lon="10.281353633340787"><ele>515.0</ele><time>2026-04-04T16:30:33.999Z</time></trkpt><trkpt lat="44.58575225239167" lon="10.281282378123414"><ele>515.0</ele><time>2026-04-04T16:30:35.999Z</time></trkpt><trkpt lat="44.58583717456113" lon="10.281183264521935"><ele>515.0</ele><time>2026-04-04T16:30:37.999Z</time></trkpt><trkpt lat="44.58589338784317" lon="10.281140473519418"><ele>515.0</ele><time>2026-04-04T16:30:39.999Z</time></trkpt><trkpt lat="44.58594939167928" lon="10.281189319236836"><ele>515.0</ele><time>2026-04-04T16:30:41.999Z</time></trkpt><trkpt lat="44.58603587718136" lon="10.281213612245576"><ele>515.0</ele><time>2026-04-04T16:30:43.999Z</time></trkpt><trkpt lat="44.58613553711297" lon="10.281236923471265"><ele>515.0</ele><time>2026-04-04T16:30:45.999Z</time></trkpt><trkpt lat="44.586254908186035" lon="10.281261379892205"><ele>512.5</ele><time>2026-04-04T16:30:47.999Z</time></trkpt><trkpt lat="44.58634984819211" lon="10.281245476769865"><ele>510.0</ele><time>2026-04-04T16:30:48.999Z</time></trkpt><trkpt lat="44.58642562716653" lon="10.281197516441473"><ele>507.5</ele><time>2026-04-04T16:30:49.999Z</time></trkpt><trkpt lat="44.586515147461235" lon="10.28115969646184"><ele>505.0</ele><time>2026-04-04T16:30:50.999Z</time></trkpt><trkpt lat="44.586599222811685" lon="10.281133408379398"><ele>502.49999999999994</ele><time>2026-04-04T16:30:51.999Z</time></trkpt><trkpt lat="44.58668088999476" lon="10.281158175056342"><ele>500.0</ele><time>2026-04-04T16:30:52.999Z</time></trkpt><trkpt lat="44.58676012099294" lon="10.28120186105123"><ele>500.0</ele><time>2026-04-04T16:30:53.999Z</time></trkpt><trkpt lat="44.58687924503846" lon="10.281219651498493"><ele>500.0</ele><time>2026-04-04T16:30:54.999Z</time></trkpt><trkpt lat="44.58699366491952" lon="10.281200764861765"><ele>500.0</ele><time>2026-04-04T16:30:55.999Z</time></trkpt><trkpt lat="44.587093811294764" lon="10.281195112263458"><ele>500.0</ele><time>2026-04-04T16:30:56.999Z</time></trkpt><trkpt lat="44.587192205096045" lon="10.281192005042856"><ele>500.0</ele><time>2026-04-04T16:30:57.999Z</time></trkpt><trkpt lat="44.5872697906765" lon="10.281225649973647"><ele>500.6</ele><time>2026-04-04T16:30:58.999Z</time></trkpt><trkpt lat="44.58736588693674" lon="10.281245712562706"><ele>501.2</ele><time>2026-04-04T16:30:59.999Z</time></trkpt><trkpt lat="44.58746965298594" lon="10.281258359084958"><ele>501.79999999999995</ele><time>2026-04-04T16:31:00.999Z</time></trkpt><trkpt lat="44.587587421216924" lon="10.281253438053344"><ele>502.4</ele><time>2026-04-04T16:31:01.999Z</time></trkpt><trkpt lat="44.587712757354" lon="10.281229241547026"><ele>503.0</ele><time>2026-04-04T16:31:02.999Z</time></trkpt><trkpt lat="44.587829372224824" lon="10.281186117298613"><ele>503.2</ele><time>2026-04-04T16:31:03.999Z</time></trkpt><trkpt lat="44.587939667454755" lon="10.281173238585618"><ele>503.4</ele><time>2026-04-04T16:31:04.999Z</time></trkpt><trkpt lat="44.58804058217964" lon="10.281123103992986"><ele>503.59999999999997</ele><time>2026-04-04T16:31:05.999Z</time></trkpt><trkpt lat="44.58814868619817" lon="10.281090420210175"><ele>503.79999999999995</ele><time>2026-04-04T16:31:06.999Z</time></trkpt><trkpt lat="44.58826352700747" lon="10.281075169137186"><ele>504.0</ele><time>2026-04-04T16:31:07.999Z</time></trkpt><trkpt lat="44.58836550641667" lon="10.281031192525925"><ele>504.0</ele><time>2026-04-04T16:31:08.999Z</time></trkpt><trkpt lat="44.58847469392116" lon="10.28100937851427"><ele>504.0</ele><time>2026-04-04T16:31:09.999Z</time></trkpt><trkpt lat="44.58857449865716" lon="10.280986297122137"><ele>504.0</ele><time>2026-04-04T16:31:10.999Z</time></trkpt><trkpt lat="44.58867459847008" lon="10.280963020239914"><ele>504.0</ele><time>2026-04-04T16:31:11.999Z</time></trkpt><trkpt lat="44.58876362897346" lon="10.280938989077804"><ele>504.0</ele><time>2026-04-04T16:31:12.999Z</time></trkpt><trkpt lat="44.588853463363954" lon="10.280923194015411"><ele>504.3333333333333</ele><time>2026-04-04T16:31:13.999Z</time></trkpt><trkpt lat="44.588939042368615" lon="10.280956094902553"><ele>504.66666666666663</ele><time>2026-04-04T16:31:14.999Z</time></trkpt><trkpt lat="44.58902436203239" lon="10.280997076018313"><ele>505.0</ele><time>2026-04-04T16:31:15.999Z</time></trkpt><trkpt lat="44.58910712430733" lon="10.281024844027177"><ele>505.3333333333333</ele><time>2026-04-04T16:31:16.999Z</time></trkpt><trkpt lat="44.589193233553104" lon="10.281011603348395"><ele>505.66666666666663</ele><time>2026-04-04T16:31:17.999Z</time></trkpt><trkpt lat="44.589260241984725" lon="10.281005906107778"><ele>506.0</ele><time>2026-04-04T16:31:18.999Z</time></trkpt><trkpt lat="44.58933473587571" lon="10.28102176024639"><ele>506.0</ele><time>2026-04-04T16:31:19.999Z</time></trkpt><trkpt lat="44.58942259187919" lon="10.28100048505813"><ele>506.0</ele><time>2026-04-04T16:31:20.999Z</time></trkpt><trkpt lat="44.589490947925306" lon="10.281013976255377"><ele>506.0</ele><time>2026-04-04T16:31:21.999Z</time></trkpt><trkpt lat="44.58961580772062" lon="10.28097725413981"><ele>506.0</ele><time>2026-04-04T16:31:23.999Z</time></trkpt><trkpt lat="44.5896872498483" lon="10.280913978250963"><ele>506.0</ele><time>2026-04-04T16:31:24.999Z</time></trkpt><trkpt lat="44.58976940238389" lon="10.280865579843447"><ele>507.8</ele><time>2026-04-04T16:31:25.999Z</time></trkpt><trkpt lat="44.58985872669409" lon="10.280853728090438"><ele>509.6</ele><time>2026-04-04T16:31:26.999Z</time></trkpt><trkpt lat="44.589933531958245" lon="10.280885193790102"><ele>511.4</ele><time>2026-04-04T16:31:27.999Z</time></trkpt><trkpt lat="44.589996747571696" lon="10.280968700025799"><ele>513.2</ele><time>2026-04-04T16:31:28.999Z</time></trkpt><trkpt lat="44.59010119014966" lon="10.281042401585582"><ele>515.0</ele><time>2026-04-04T16:31:29.999Z</time></trkpt><trkpt lat="44.590210419724066" lon="10.281124573681327"><ele>515.0</ele><time>2026-04-04T16:31:30.999Z</time></trkpt><trkpt lat="44.59032182667695" lon="10.281207596661796"><ele>515.0</ele><time>2026-04-04T16:31:31.999Z</time></trkpt><trkpt lat="44.5904377988487" lon="10.281284178070512"><ele>515.0</ele><time>2026-04-04T16:31:32.999Z</time></trkpt><trkpt lat="44.59055480899113" lon="10.281346250143857"><ele>515.0</ele><time>2026-04-04T16:31:33.999Z</time></trkpt><trkpt lat="44.59066480592841" lon="10.281399407300531"><ele>516.4</ele><time>2026-04-04T16:31:34.999Z</time></trkpt><trkpt lat="44.59076782042483" lon="10.281446124309573"><ele>517.8</ele><time>2026-04-04T16:31:35.999Z</time></trkpt><trkpt lat="44.590843149669354" lon="10.28147849258947"><ele>519.2</ele><time>2026-04-04T16:31:36.999Z</time></trkpt><trkpt lat="44.59090866409402" lon="10.281504041585885"><ele>520.6</ele><time>2026-04-04T16:31:37.999Z</time></trkpt><trkpt lat="44.59099964923622" lon="10.281526601712127"><ele>522.0</ele><time>2026-04-04T16:31:38.999Z</time></trkpt><trkpt lat="44.59110017513019" lon="10.28155267829209"><ele>525.0</ele><time>2026-04-04T16:31:39.999Z</time></trkpt><trkpt lat="44.59120405680029" lon="10.281614097292517"><ele>528.0</ele><time>2026-04-04T16:31:40.999Z</time></trkpt><trkpt lat="44.59130530071966" lon="10.281669596367125"><ele>531.0</ele><time>2026-04-04T16:31:41.999Z</time></trkpt><trkpt lat="44.59138723262058" lon="10.281734413401008"><ele>534.0</ele><time>2026-04-04T16:31:42.999Z</time></trkpt><trkpt lat="44.5914614269539" lon="10.2817936077581"><ele>537.0</ele><time>2026-04-04T16:31:43.999Z</time></trkpt><trkpt lat="44.591504400725206" lon="10.281877311551158"><ele>537.0</ele><time>2026-04-04T16:31:44.999Z</time></trkpt><trkpt lat="44.5915088398097" lon="10.28197983442161"><ele>537.0</ele><time>2026-04-04T16:31:45.999Z</time></trkpt><trkpt lat="44.59154252518711" lon="10.282082260750453"><ele>537.0</ele><time>2026-04-04T16:31:46.999Z</time></trkpt><trkpt lat="44.59157277214827" lon="10.282194903870693"><ele>537.0</ele><time>2026-04-04T16:31:47.999Z</time></trkpt><trkpt lat="44.59161607219078" lon="10.28231875942735"><ele>537.0</ele><time>2026-04-04T16:31:48.999Z</time></trkpt><trkpt lat="44.591641413587496" lon="10.28247536036819"><ele>535.2</ele><time>2026-04-04T16:31:50Z</time></trkpt><trkpt lat="44.591648068215584" lon="10.282634053497967"><ele>533.4000000000001</ele><time>2026-04-04T16:31:51Z</time></trkpt><trkpt lat="44.591668875666805" lon="10.282773891009125"><ele>531.5999999999999</ele><time>2026-04-04T16:31:52Z</time></trkpt><trkpt lat="44.59170839499168" lon="10.282894989695839"><ele>529.8</ele><time>2026-04-04T16:31:53Z</time></trkpt><trkpt lat="44.591725986075666" lon="10.283013045418459"><ele>528.0</ele><time>2026-04-04T16:31:54Z</time></trkpt><trkpt lat="44.59173516003356" lon="10.283114313323356"><ele>527.2857142857142</ele><time>2026-04-04T16:31:55Z</time></trkpt><trkpt lat="44.591738483389406" lon="10.283210915938339"><ele>526.5714285714286</ele><time>2026-04-04T16:31:56Z</time></trkpt><trkpt lat="44.59171992385327" lon="10.28331348115361"><ele>525.8571428571429</ele><time>2026-04-04T16:31:57Z</time></trkpt><trkpt lat="44.59168091564009" lon="10.28340327818959"><ele>525.1428571428571</ele><time>2026-04-04T16:31:58Z</time></trkpt><trkpt lat="44.59163900658951" lon="10.283496712996714"><ele>524.4285714285714</ele><time>2026-04-04T16:31:59Z</time></trkpt><trkpt lat="44.59162222382835" lon="10.283596220990693"><ele>523.7142857142857</ele><time>2026-04-04T16:32:00Z</time></trkpt><trkpt lat="44.591619316234855" lon="10.28370548816349"><ele>523.0</ele><time>2026-04-04T16:32:01Z</time></trkpt><trkpt lat="44.59163189559329" lon="10.283854976217283"><ele>522.0</ele><time>2026-04-04T16:32:02Z</time></trkpt><trkpt lat="44.59164417408874" lon="10.283972746771488"><ele>521.0</ele><time>2026-04-04T16:32:03Z</time></trkpt><trkpt lat="44.59165388029131" lon="10.284104401739263"><ele>520.0</ele><time>2026-04-04T16:32:04Z</time></trkpt><trkpt lat="44.591687233631795" lon="10.284222415618533"><ele>519.0</ele><time>2026-04-04T16:32:05Z</time></trkpt><trkpt lat="44.591729316559416" lon="10.2843104095564"><ele>518.0</ele><time>2026-04-04T16:32:06Z</time></trkpt><trkpt lat="44.59178360814443" lon="10.284387566559683"><ele>517.0</ele><time>2026-04-04T16:32:07Z</time></trkpt><trkpt lat="44.59185504314238" lon="10.284444683719821"><ele>517.0</ele><time>2026-04-04T16:32:08Z</time></trkpt><trkpt lat="44.591943442875206" lon="10.284501249397795"><ele>517.0</ele><time>2026-04-04T16:32:09Z</time></trkpt><trkpt lat="44.59202531769752" lon="10.284559562045521"><ele>517.0</ele><time>2026-04-04T16:32:10Z</time></trkpt><trkpt lat="44.59209501120403" lon="10.284628060713661"><ele>517.0</ele><time>2026-04-04T16:32:11Z</time></trkpt><trkpt lat="44.59213133717819" lon="10.284703851070939"><ele>517.0</ele><time>2026-04-04T16:32:12Z</time></trkpt><trkpt lat="44.59216431226579" lon="10.284815936892109"><ele>517.0</ele><time>2026-04-04T16:32:13Z</time></trkpt><trkpt lat="44.59219127076524" lon="10.284939237825876"><ele>518.5</ele><time>2026-04-04T16:32:14Z</time></trkpt><trkpt lat="44.592222799176916" lon="10.285062137710309"><ele>520.0</ele><time>2026-04-04T16:32:15Z</time></trkpt><trkpt lat="44.59224130728985" lon="10.285179301173667"><ele>521.5</ele><time>2026-04-04T16:32:16Z</time></trkpt><trkpt lat="44.59229303445959" lon="10.285268155707907"><ele>523.0</ele><time>2026-04-04T16:32:17Z</time></trkpt><trkpt lat="44.59236626138681" lon="10.285322946621138"><ele>524.5</ele><time>2026-04-04T16:32:18Z</time></trkpt><trkpt lat="44.59244078772469" lon="10.285369810367964"><ele>526.0</ele><time>2026-04-04T16:32:19Z</time></trkpt><trkpt lat="44.59252694054928" lon="10.285386995752276"><ele>526.0</ele><time>2026-04-04T16:32:20Z</time></trkpt><trkpt lat="44.592624141011065" lon="10.285391107159572"><ele>526.0</ele><time>2026-04-04T16:32:20.999Z</time></trkpt><trkpt lat="44.592736568551665" lon="10.28540948613266"><ele>526.0</ele><time>2026-04-04T16:32:21.999Z</time></trkpt><trkpt lat="44.59285365152134" lon="10.285434010657529"><ele>526.0</ele><time>2026-04-04T16:32:22.999Z</time></trkpt><trkpt lat="44.59296781765488" lon="10.28547413601141"><ele>526.0</ele><time>2026-04-04T16:32:23.999Z</time></trkpt><trkpt lat="44.59307713545462" lon="10.285520286882452"><ele>525.0</ele><time>2026-04-04T16:32:24.999Z</time></trkpt><trkpt lat="44.593178076657175" lon="10.285574786360545"><ele>524.0</ele><time>2026-04-04T16:32:25.999Z</time></trkpt><trkpt lat="44.59326264206749" lon="10.285638081134225"><ele>523.0</ele><time>2026-04-04T16:32:26.999Z</time></trkpt><trkpt lat="44.593349824893906" lon="10.285679419600202"><ele>522.0</ele><time>2026-04-04T16:32:27.999Z</time></trkpt><trkpt lat="44.59343278280398" lon="10.285739418523939"><ele>521.0</ele><time>2026-04-04T16:32:28.999Z</time></trkpt><trkpt lat="44.593526940201485" lon="10.28576489680972"><ele>521.0</ele><time>2026-04-04T16:32:29.999Z</time></trkpt><trkpt lat="44.59362527599037" lon="10.285789046503448"><ele>521.0</ele><time>2026-04-04T16:32:30.999Z</time></trkpt><trkpt lat="44.59371842187041" lon="10.285824967084203"><ele>521.0</ele><time>2026-04-04T16:32:31.999Z</time></trkpt><trkpt lat="44.59379346378967" lon="10.285870236746792"><ele>521.0</ele><time>2026-04-04T16:32:32.999Z</time></trkpt><trkpt lat="44.593894401649166" lon="10.28592478366956"><ele>521.0</ele><time>2026-04-04T16:32:34.999Z</time></trkpt><trkpt lat="44.59397500324806" lon="10.285921371715737"><ele>520.6</ele><time>2026-04-04T16:32:36.999Z</time></trkpt><trkpt lat="44.59410298722401" lon="10.285921933268265"><ele>520.2</ele><time>2026-04-04T16:32:39Z</time></trkpt><trkpt lat="44.59419741074746" lon="10.28589529697481"><ele>519.8</ele><time>2026-04-04T16:32:40Z</time></trkpt><trkpt lat="44.59430556151389" lon="10.285919093352714"><ele>519.4</ele><time>2026-04-04T16:32:41Z</time></trkpt><trkpt lat="44.594411557780276" lon="10.285958727652638"><ele>519.0</ele><time>2026-04-04T16:32:42Z</time></trkpt><trkpt lat="44.59451110962257" lon="10.286006617527546"><ele>519.0</ele><time>2026-04-04T16:32:43Z</time></trkpt><trkpt lat="44.594608187670715" lon="10.286030987826607"><ele>519.0</ele><time>2026-04-04T16:32:44Z</time></trkpt><trkpt lat="44.59470043290851" lon="10.286064590739596"><ele>519.0</ele><time>2026-04-04T16:32:45Z</time></trkpt><trkpt lat="44.59480156439419" lon="10.2860330180101"><ele>519.0</ele><time>2026-04-04T16:32:46Z</time></trkpt><trkpt lat="44.59489048079153" lon="10.286046662114174"><ele>519.0</ele><time>2026-04-04T16:32:47Z</time></trkpt><trkpt lat="44.594985473072974" lon="10.286072074427723"><ele>519.0</ele><time>2026-04-04T16:32:48Z</time></trkpt><trkpt lat="44.59508222106894" lon="10.286115817488563"><ele>519.0</ele><time>2026-04-04T16:32:49Z</time></trkpt><trkpt lat="44.59516822852044" lon="10.286196584064523"><ele>519.0</ele><time>2026-04-04T16:32:50Z</time></trkpt><trkpt lat="44.59520771439472" lon="10.286335300189757"><ele>519.0</ele><time>2026-04-04T16:32:51Z</time></trkpt><trkpt lat="44.59528072100087" lon="10.286439920426332"><ele>519.0</ele><time>2026-04-04T16:32:52Z</time></trkpt><trkpt lat="44.595372773792405" lon="10.286531507036482"><ele>519.5</ele><time>2026-04-04T16:32:53Z</time></trkpt><trkpt lat="44.595488611963574" lon="10.286609436413682"><ele>520.0</ele><time>2026-04-04T16:32:54Z</time></trkpt><trkpt lat="44.59564181188311" lon="10.286618566493265"><ele>520.5</ele><time>2026-04-04T16:32:55Z</time></trkpt><trkpt lat="44.595751834020206" lon="10.286660014194732"><ele>521.0</ele><time>2026-04-04T16:32:56Z</time></trkpt><trkpt lat="44.59585381273284" lon="10.286704616086292"><ele>521.0</ele><time>2026-04-04T16:32:57Z</time></trkpt><trkpt lat="44.59595362786636" lon="10.286703098566626"><ele>521.0</ele><time>2026-04-04T16:32:58Z</time></trkpt><trkpt lat="44.5960539798787" lon="10.286692764614944"><ele>521.0</ele><time>2026-04-04T16:32:59Z</time></trkpt><trkpt lat="44.59613535384082" lon="10.286611851741949"><ele>521.0</ele><time>2026-04-04T16:33:00Z</time></trkpt><trkpt lat="44.59616298207095" lon="10.286453786363884"><ele>521.0</ele><time>2026-04-04T16:33:01Z</time></trkpt><trkpt lat="44.59619577032731" lon="10.286291326226197"><ele>518.25</ele><time>2026-04-04T16:33:02Z</time></trkpt><trkpt lat="44.5962276512964" lon="10.286101914112713"><ele>515.5</ele><time>2026-04-04T16:33:03Z</time></trkpt><trkpt lat="44.59627846114482" lon="10.28593128617101"><ele>512.75</ele><time>2026-04-04T16:33:04Z</time></trkpt><trkpt lat="44.596317528263576" lon="10.285776744333052"><ele>510.0</ele><time>2026-04-04T16:33:05Z</time></trkpt><trkpt lat="44.59636618448154" lon="10.2856394953898"><ele>509.5</ele><time>2026-04-04T16:33:06Z</time></trkpt><trkpt lat="44.596417316670895" lon="10.2855040337724"><ele>509.0</ele><time>2026-04-04T16:33:07Z</time></trkpt><trkpt lat="44.59651054228656" lon="10.285399154750884"><ele>508.5</ele><time>2026-04-04T16:33:08Z</time></trkpt><trkpt lat="44.59662895856139" lon="10.285349253620414"><ele>508.0</ele><time>2026-04-04T16:33:09Z</time></trkpt><trkpt lat="44.596767896949686" lon="10.285284006227203"><ele>508.0</ele><time>2026-04-04T16:33:10Z</time></trkpt><trkpt lat="44.59690970477101" lon="10.285257783394064"><ele>508.0</ele><time>2026-04-04T16:33:11Z</time></trkpt><trkpt lat="44.59704486116017" lon="10.285241762726459"><ele>508.0</ele><time>2026-04-04T16:33:12Z</time></trkpt><trkpt lat="44.597158889226336" lon="10.28517333644349"><ele>508.0</ele><time>2026-04-04T16:33:13Z</time></trkpt><trkpt lat="44.597264305385735" lon="10.285081269080582"><ele>508.0</ele><time>2026-04-04T16:33:14Z</time></trkpt><trkpt lat="44.59736547711931" lon="10.284934576546368"><ele>508.0</ele><time>2026-04-04T16:33:15Z</time></trkpt><trkpt lat="44.597467095517544" lon="10.284816702749362"><ele>508.0</ele><time>2026-04-04T16:33:16Z</time></trkpt><trkpt lat="44.59757429489992" lon="10.284723341250297"><ele>508.0</ele><time>2026-04-04T16:33:17Z</time></trkpt><trkpt lat="44.59768816255972" lon="10.28465117937591"><ele>505.5</ele><time>2026-04-04T16:33:18Z</time></trkpt><trkpt lat="44.597804049813696" lon="10.28461902920586"><ele>503.0</ele><time>2026-04-04T16:33:19Z</time></trkpt><trkpt lat="44.59793032143979" lon="10.284627643989745"><ele>500.5</ele><time>2026-04-04T16:33:20Z</time></trkpt><trkpt lat="44.59808043786652" lon="10.284655053362497"><ele>498.0</ele><time>2026-04-04T16:33:21Z</time></trkpt><trkpt lat="44.59822560541381" lon="10.284662610891788"><ele>497.0</ele><time>2026-04-04T16:33:22Z</time></trkpt><trkpt lat="44.598357702159085" lon="10.284682799644555"><ele>496.0</ele><time>2026-04-04T16:33:23Z</time></trkpt><trkpt lat="44.59848659471789" lon="10.28472458754799"><ele>495.0</ele><time>2026-04-04T16:33:24Z</time></trkpt><trkpt lat="44.59861625954751" lon="10.284720704283128"><ele>494.0</ele><time>2026-04-04T16:33:25Z</time></trkpt><trkpt lat="44.59874344413804" lon="10.284722339582274"><ele>492.2</ele><time>2026-04-04T16:33:26Z</time></trkpt><trkpt lat="44.598868647016815" lon="10.284705508351106"><ele>490.4</ele><time>2026-04-04T16:33:27Z</time></trkpt><trkpt lat="44.59898312506211" lon="10.284683350378694"><ele>488.6</ele><time>2026-04-04T16:33:28Z</time></trkpt><trkpt lat="44.599077717113644" lon="10.284650718810145"><ele>486.8</ele><time>2026-04-04T16:33:29Z</time></trkpt><trkpt lat="44.599164470259524" lon="10.284640255836637"><ele>485.0</ele><time>2026-04-04T16:33:30Z</time></trkpt><trkpt lat="44.599246813911755" lon="10.284669881929824"><ele>485.0</ele><time>2026-04-04T16:33:31Z</time></trkpt><trkpt lat="44.59931825204786" lon="10.284752379587973"><ele>485.0</ele><time>2026-04-04T16:33:32Z</time></trkpt><trkpt lat="44.599389364495046" lon="10.284881620153422"><ele>485.0</ele><time>2026-04-04T16:33:33Z</time></trkpt><trkpt lat="44.59945143610863" lon="10.28503639615179"><ele>485.0</ele><time>2026-04-04T16:33:34Z</time></trkpt><trkpt lat="44.59946679991466" lon="10.285205535058399"><ele>487.75</ele><time>2026-04-04T16:33:35Z</time></trkpt><trkpt lat="44.599469054695646" lon="10.285370368527541"><ele>490.5</ele><time>2026-04-04T16:33:36Z</time></trkpt><trkpt lat="44.599473875508245" lon="10.285555858671536"><ele>493.25</ele><time>2026-04-04T16:33:37Z</time></trkpt><trkpt lat="44.59952211060664" lon="10.285739694956249"><ele>496.0</ele><time>2026-04-04T16:33:38Z</time></trkpt><trkpt lat="44.599581776075105" lon="10.28594009249991"><ele>490.33333333333337</ele><time>2026-04-04T16:33:39Z</time></trkpt><trkpt lat="44.599680447861026" lon="10.286137468675214"><ele>484.66666666666663</ele><time>2026-04-04T16:33:40Z</time></trkpt><trkpt lat="44.59979123283179" lon="10.286351331972458"><ele>479.0</ele><time>2026-04-04T16:33:41Z</time></trkpt><trkpt lat="44.59989212793507" lon="10.286570646548597"><ele>479.0</ele><time>2026-04-04T16:33:42Z</time></trkpt><trkpt lat="44.599988352709715" lon="10.286770474248845"><ele>479.0</ele><time>2026-04-04T16:33:43Z</time></trkpt><trkpt lat="44.600083287543704" lon="10.286955776882794"><ele>479.0</ele><time>2026-04-04T16:33:44Z</time></trkpt><trkpt lat="44.60016668141722" lon="10.287120230458854"><ele>478.6</ele><time>2026-04-04T16:33:45Z</time></trkpt><trkpt lat="44.600232181209435" lon="10.287260930423736"><ele>478.2</ele><time>2026-04-04T16:33:46Z</time></trkpt><trkpt lat="44.60027496696425" lon="10.287378361030003"><ele>477.80000000000007</ele><time>2026-04-04T16:33:47Z</time></trkpt><trkpt lat="44.600283097711035" lon="10.287499347837494"><ele>477.40000000000003</ele><time>2026-04-04T16:33:48Z</time></trkpt><trkpt lat="44.60025008833821" lon="10.287648885708233"><ele>477.0</ele><time>2026-04-04T16:33:49Z</time></trkpt><trkpt lat="44.60021500014012" lon="10.287820513064947"><ele>477.0</ele><time>2026-04-04T16:33:50Z</time></trkpt><trkpt lat="44.600161592611244" lon="10.287987468758953"><ele>477.00000000000006</ele><time>2026-04-04T16:33:51Z</time></trkpt><trkpt lat="44.60012564753732" lon="10.288145550517376"><ele>477.00000000000006</ele><time>2026-04-04T16:33:52Z</time></trkpt><trkpt lat="44.600091814239086" lon="10.288274445521122"><ele>477.0</ele><time>2026-04-04T16:33:53Z</time></trkpt><trkpt lat="44.60009193194492" lon="10.288396396117307"><ele>477.0</ele><time>2026-04-04T16:33:54Z</time></trkpt><trkpt lat="44.600127619532806" lon="10.288497829312046"><ele>474.8</ele><time>2026-04-04T16:33:55Z</time></trkpt><trkpt lat="44.60019630672514" lon="10.288582710103066"><ele>472.6</ele><time>2026-04-04T16:33:56Z</time></trkpt><trkpt lat="44.600296325780675" lon="10.288646331405047"><ele>470.40000000000003</ele><time>2026-04-04T16:33:57Z</time></trkpt><trkpt lat="44.60041101421788" lon="10.288690458925695"><ele>468.20000000000005</ele><time>2026-04-04T16:33:58Z</time></trkpt><trkpt lat="44.60052888568926" lon="10.28869438630512"><ele>466.0</ele><time>2026-04-04T16:33:59Z</time></trkpt><trkpt lat="44.600646564177275" lon="10.288682903886473"><ele>465.4</ele><time>2026-04-04T16:34:00Z</time></trkpt><trkpt lat="44.60073735466539" lon="10.288703365623775"><ele>464.8</ele><time>2026-04-04T16:34:01Z</time></trkpt><trkpt lat="44.60080126552727" lon="10.288763393165393"><ele>464.19999999999993</ele><time>2026-04-04T16:34:02Z</time></trkpt><trkpt lat="44.600843661019525" lon="10.288867939990237"><ele>463.59999999999997</ele><time>2026-04-04T16:34:03Z</time></trkpt><trkpt lat="44.6008971052129" lon="10.288994730022859"><ele>463.0</ele><time>2026-04-04T16:34:04Z</time></trkpt><trkpt lat="44.60094837489983" lon="10.289169459340718"><ele>461.33333333333337</ele><time>2026-04-04T16:34:05Z</time></trkpt><trkpt lat="44.60101534938391" lon="10.289358549179987"><ele>459.66666666666663</ele><time>2026-04-04T16:34:06Z</time></trkpt><trkpt lat="44.601074107302544" lon="10.289567706275085"><ele>458.0</ele><time>2026-04-04T16:34:07Z</time></trkpt><trkpt lat="44.60112966816927" lon="10.289766783618408"><ele>455.0</ele><time>2026-04-04T16:34:08Z</time></trkpt><trkpt lat="44.60118147006275" lon="10.289945128836884"><ele>452.0</ele><time>2026-04-04T16:34:09Z</time></trkpt><trkpt lat="44.601231151661906" lon="10.290110464174983"><ele>449.0</ele><time>2026-04-04T16:34:10Z</time></trkpt><trkpt lat="44.60127649709313" lon="10.29027359914293"><ele>446.0</ele><time>2026-04-04T16:34:11Z</time></trkpt><trkpt lat="44.601319653744824" lon="10.29043235231423"><ele>446.0</ele><time>2026-04-04T16:34:12Z</time></trkpt><trkpt lat="44.60135820684597" lon="10.290591868736445"><ele>446.0</ele><time>2026-04-04T16:34:13Z</time></trkpt><trkpt lat="44.60141565688269" lon="10.290734202633192"><ele>446.0</ele><time>2026-04-04T16:34:14Z</time></trkpt><trkpt lat="44.601457827750004" lon="10.29084995439501"><ele>446.0</ele><time>2026-04-04T16:34:15Z</time></trkpt><trkpt lat="44.60148988544593" lon="10.290946130420105"><ele>446.0</ele><time>2026-04-04T16:34:16Z</time></trkpt><trkpt lat="44.60152575902964" lon="10.291030725298013"><ele>446.0</ele><time>2026-04-04T16:34:17Z</time></trkpt><trkpt lat="44.60156743184412" lon="10.291128996823826"><ele>446.0</ele><time>2026-04-04T16:34:18Z</time></trkpt><trkpt lat="44.601709546400954" lon="10.291149777381468"><ele>446.0</ele><time>2026-04-04T16:34:19Z</time></trkpt><trkpt lat="44.601818728848755" lon="10.29119282167149"><ele>446.0</ele><time>2026-04-04T16:34:20Z</time></trkpt><trkpt lat="44.60191976040432" lon="10.29122823807679"><ele>446.0</ele><time>2026-04-04T16:34:21Z</time></trkpt><trkpt lat="44.60202025700823" lon="10.291275668995933"><ele>445.0</ele><time>2026-04-04T16:34:22Z</time></trkpt><trkpt lat="44.60212431101178" lon="10.291312876037784"><ele>444.0</ele><time>2026-04-04T16:34:23Z</time></trkpt><trkpt lat="44.60222072380875" lon="10.291355773158358"><ele>443.0</ele><time>2026-04-04T16:34:24Z</time></trkpt><trkpt lat="44.60231481690684" lon="10.291401093848105"><ele>442.0</ele><time>2026-04-04T16:34:25Z</time></trkpt><trkpt lat="44.60239929145609" lon="10.29143890299359"><ele>441.0</ele><time>2026-04-04T16:34:26Z</time></trkpt><trkpt lat="44.602476204456025" lon="10.291461737129007"><ele>441.0</ele><time>2026-04-04T16:34:27Z</time></trkpt><trkpt lat="44.60255866284014" lon="10.291489994271037"><ele>441.0</ele><time>2026-04-04T16:34:28Z</time></trkpt><trkpt lat="44.60263475038962" lon="10.29155890820228"><ele>441.0</ele><time>2026-04-04T16:34:29Z</time></trkpt><trkpt lat="44.60270411104571" lon="10.291685054111952"><ele>441.0</ele><time>2026-04-04T16:34:30Z</time></trkpt><trkpt lat="44.60276198106305" lon="10.2918429042728"><ele>441.0</ele><time>2026-04-04T16:34:31Z</time></trkpt><trkpt lat="44.60282325438877" lon="10.29199095441771"><ele>438.5</ele><time>2026-04-04T16:34:32Z</time></trkpt><trkpt lat="44.60289783282571" lon="10.292108669351867"><ele>436.0</ele><time>2026-04-04T16:34:33Z</time></trkpt><trkpt lat="44.602986020892274" lon="10.292209418955835"><ele>433.5</ele><time>2026-04-04T16:34:34Z</time></trkpt><trkpt lat="44.603108770862654" lon="10.292218519298967"><ele>431.0</ele><time>2026-04-04T16:34:35Z</time></trkpt><trkpt lat="44.603219225527596" lon="10.292248093434564"><ele>434.0</ele><time>2026-04-04T16:34:36Z</time></trkpt><trkpt lat="44.60331223645024" lon="10.292314020766037"><ele>437.0</ele><time>2026-04-04T16:34:37Z</time></trkpt><trkpt lat="44.603368965846975" lon="10.29245032525154"><ele>440.0</ele><time>2026-04-04T16:34:38Z</time></trkpt><trkpt lat="44.60342029621258" lon="10.292590479385426"><ele>443.0</ele><time>2026-04-04T16:34:39Z</time></trkpt><trkpt lat="44.60349694785262" lon="10.292736707776946"><ele>443.0</ele><time>2026-04-04T16:34:40Z</time></trkpt><trkpt lat="44.60359271008867" lon="10.292862389368135"><ele>443.0</ele><time>2026-04-04T16:34:41Z</time></trkpt><trkpt lat="44.60371264417336" lon="10.292946670427458"><ele>443.0</ele><time>2026-04-04T16:34:42Z</time></trkpt><trkpt lat="44.603833836214534" lon="10.29302428923627"><ele>443.0</ele><time>2026-04-04T16:34:43Z</time></trkpt><trkpt lat="44.60392740003627" lon="10.293120301434048"><ele>442.5</ele><time>2026-04-04T16:34:44Z</time></trkpt><trkpt lat="44.60398297876769" lon="10.29327113518865"><ele>442.0</ele><time>2026-04-04T16:34:45Z</time></trkpt><trkpt lat="44.60406280104042" lon="10.293401074265635"><ele>441.5</ele><time>2026-04-04T16:34:46Z</time></trkpt><trkpt lat="44.60413549587882" lon="10.293517172993397"><ele>441.0</ele><time>2026-04-04T16:34:47Z</time></trkpt><trkpt lat="44.60424200952954" lon="10.293586353718627"><ele>441.0</ele><time>2026-04-04T16:34:48Z</time></trkpt><trkpt lat="44.604372873103166" lon="10.29363241283166"><ele>441.0</ele><time>2026-04-04T16:34:49Z</time></trkpt><trkpt lat="44.60451511637263" lon="10.293686647927434"><ele>441.0</ele><time>2026-04-04T16:34:50Z</time></trkpt><trkpt lat="44.60464584098822" lon="10.29381792203986"><ele>441.0</ele><time>2026-04-04T16:34:51Z</time></trkpt><trkpt lat="44.6047888732699" lon="10.293953545347033"><ele>442.33333333333337</ele><time>2026-04-04T16:34:52Z</time></trkpt><trkpt lat="44.60494431124608" lon="10.294073577845445"><ele>443.6666666666667</ele><time>2026-04-04T16:34:53Z</time></trkpt><trkpt lat="44.60508606207316" lon="10.294205057153686"><ele>445.0</ele><time>2026-04-04T16:34:54Z</time></trkpt><trkpt lat="44.60521132208931" lon="10.294327516010467"><ele>445.0</ele><time>2026-04-04T16:34:55Z</time></trkpt><trkpt lat="44.605325741973495" lon="10.294442372500926"><ele>445.0</ele><time>2026-04-04T16:34:56Z</time></trkpt><trkpt lat="44.605434588545755" lon="10.294545714157216"><ele>445.0</ele><time>2026-04-04T16:34:57Z</time></trkpt><trkpt lat="44.60553454121346" lon="10.294611031024468"><ele>445.0</ele><time>2026-04-04T16:34:58Z</time></trkpt><trkpt lat="44.605638431499784" lon="10.29461957682893"><ele>444.75</ele><time>2026-04-04T16:34:59Z</time></trkpt><trkpt lat="44.605737386799305" lon="10.294583049853731"><ele>444.5</ele><time>2026-04-04T16:35:00Z</time></trkpt><trkpt lat="44.60582339920609" lon="10.294507773600955"><ele>444.25</ele><time>2026-04-04T16:35:01Z</time></trkpt><trkpt lat="44.6059105557573" lon="10.294397072166335"><ele>444.0</ele><time>2026-04-04T16:35:02Z</time></trkpt><trkpt lat="44.60599036404668" lon="10.294249999872346"><ele>444.0</ele><time>2026-04-04T16:35:03Z</time></trkpt><trkpt lat="44.60605258546561" lon="10.294092674265938"><ele>444.0</ele><time>2026-04-04T16:35:04Z</time></trkpt><trkpt lat="44.60610518250235" lon="10.29394810791725"><ele>444.0</ele><time>2026-04-04T16:35:05Z</time></trkpt><trkpt lat="44.606157243042034" lon="10.293822955925211"><ele>444.0</ele><time>2026-04-04T16:35:06Z</time></trkpt><trkpt lat="44.60622375963047" lon="10.29373045954272"><ele>444.0</ele><time>2026-04-04T16:35:07Z</time></trkpt><trkpt lat="44.606265965409186" lon="10.29362959363838"><ele>442.2</ele><time>2026-04-04T16:35:08Z</time></trkpt><trkpt lat="44.60633908846258" lon="10.293571262105715"><ele>440.4</ele><time>2026-04-04T16:35:09Z</time></trkpt><trkpt lat="44.606431974936086" lon="10.293545660262051"><ele>438.6</ele><time>2026-04-04T16:35:10Z</time></trkpt><trkpt lat="44.60654394709853" lon="10.293589800530814"><ele>436.8</ele><time>2026-04-04T16:35:11Z</time></trkpt><trkpt lat="44.606677799072315" lon="10.293612809513949"><ele>435.0</ele><time>2026-04-04T16:35:12Z</time></trkpt><trkpt lat="44.606801678869154" lon="10.293688756395836"><ele>435.0</ele><time>2026-04-04T16:35:13Z</time></trkpt><trkpt lat="44.60692551165161" lon="10.293777931670624"><ele>435.0</ele><time>2026-04-04T16:35:14Z</time></trkpt><trkpt lat="44.60702785576516" lon="10.293919429320127"><ele>435.0</ele><time>2026-04-04T16:35:15Z</time></trkpt><trkpt lat="44.607122933721605" lon="10.294065045954008"><ele>435.0</ele><time>2026-04-04T16:35:16Z</time></trkpt><trkpt lat="44.60721637744992" lon="10.294174965285386"><ele>436.1666666666667</ele><time>2026-04-04T16:35:17Z</time></trkpt><trkpt lat="44.60727481738973" lon="10.29427614029983"><ele>437.33333333333337</ele><time>2026-04-04T16:35:18Z</time></trkpt><trkpt lat="44.60731403053753" lon="10.294346588949995"><ele>438.5</ele><time>2026-04-04T16:35:19Z</time></trkpt><trkpt lat="44.60735903513423" lon="10.29447688956765"><ele>439.6666666666667</ele><time>2026-04-04T16:35:21Z</time></trkpt><trkpt lat="44.60726953834257" lon="10.294557894669849"><ele>440.83333333333337</ele><time>2026-04-04T16:35:23Z</time></trkpt><trkpt lat="44.60720981661271" lon="10.294612293165212"><ele>442.0</ele><time>2026-04-04T16:35:24Z</time></trkpt><trkpt lat="44.607127174392126" lon="10.294686904128625"><ele>443.0</ele><time>2026-04-04T16:35:25Z</time></trkpt><trkpt lat="44.60704367289656" lon="10.294781587011283"><ele>444.0</ele><time>2026-04-04T16:35:26Z</time></trkpt><trkpt lat="44.606939479379804" lon="10.294860006313126"><ele>445.0</ele><time>2026-04-04T16:35:27Z</time></trkpt><trkpt lat="44.6068394693517" lon="10.294950465796656"><ele>446.0</ele><time>2026-04-04T16:35:28Z</time></trkpt><trkpt lat="44.60674123710324" lon="10.2950540332824"><ele>446.0</ele><time>2026-04-04T16:35:29Z</time></trkpt><trkpt lat="44.606644313376385" lon="10.295165979739323"><ele>446.0</ele><time>2026-04-04T16:35:30Z</time></trkpt><trkpt lat="44.60656670026003" lon="10.295272647130934"><ele>446.0</ele><time>2026-04-04T16:35:31Z</time></trkpt><trkpt lat="44.606496579754776" lon="10.295359335913167"><ele>446.0</ele><time>2026-04-04T16:35:32Z</time></trkpt><trkpt lat="44.60646902305957" lon="10.29546698032598"><ele>446.0</ele><time>2026-04-04T16:35:33Z</time></trkpt><trkpt lat="44.60646878206695" lon="10.295602827524693"><ele>446.25</ele><time>2026-04-04T16:35:34Z</time></trkpt><trkpt lat="44.60652715614559" lon="10.295761557703532"><ele>446.5</ele><time>2026-04-04T16:35:35Z</time></trkpt><trkpt lat="44.606567861170404" lon="10.295935211162595"><ele>446.75</ele><time>2026-04-04T16:35:36Z</time></trkpt><trkpt lat="44.60658512049532" lon="10.296109046024185"><ele>447.0</ele><time>2026-04-04T16:35:37Z</time></trkpt><trkpt lat="44.6066369082232" lon="10.29626414207693"><ele>447.0</ele><time>2026-04-04T16:35:38Z</time></trkpt><trkpt lat="44.606688594694006" lon="10.296409436114757"><ele>447.00000000000006</ele><time>2026-04-04T16:35:39Z</time></trkpt><trkpt lat="44.606752894806554" lon="10.296537282286167"><ele>447.00000000000006</ele><time>2026-04-04T16:35:40Z</time></trkpt><trkpt lat="44.60681855606939" lon="10.296649924928207"><ele>447.0</ele><time>2026-04-04T16:35:41Z</time></trkpt><trkpt lat="44.606880479050695" lon="10.296754472357405"><ele>447.0</ele><time>2026-04-04T16:35:42Z</time></trkpt><trkpt lat="44.60691568442676" lon="10.296882721422696"><ele>447.20000000000005</ele><time>2026-04-04T16:35:43Z</time></trkpt><trkpt lat="44.60697629528101" lon="10.297008045578462"><ele>447.40000000000003</ele><time>2026-04-04T16:35:44Z</time></trkpt><trkpt lat="44.60702109042721" lon="10.29714887384257"><ele>447.59999999999997</ele><time>2026-04-04T16:35:45Z</time></trkpt><trkpt lat="44.607050912977265" lon="10.29729809553295"><ele>447.79999999999995</ele><time>2026-04-04T16:35:46Z</time></trkpt><trkpt lat="44.60710069152968" lon="10.297431319040951"><ele>448.0</ele><time>2026-04-04T16:35:47Z</time></trkpt><trkpt lat="44.607163015487316" lon="10.297568467930192"><ele>445.2</ele><time>2026-04-04T16:35:48Z</time></trkpt><trkpt lat="44.607228373906956" lon="10.297694290727595"><ele>442.4</ele><time>2026-04-04T16:35:49Z</time></trkpt><trkpt lat="44.607298346025345" lon="10.297807768879052"><ele>439.59999999999997</ele><time>2026-04-04T16:35:50Z</time></trkpt><trkpt lat="44.60736947650217" lon="10.297915661202603"><ele>436.79999999999995</ele><time>2026-04-04T16:35:51Z</time></trkpt><trkpt lat="44.60743593296478" lon="10.298026358406835"><ele>434.0</ele><time>2026-04-04T16:35:52Z</time></trkpt><trkpt lat="44.60750343475986" lon="10.29814130840657"><ele>433.5</ele><time>2026-04-04T16:35:53Z</time></trkpt><trkpt lat="44.607581460778164" lon="10.298232155026529"><ele>433.0</ele><time>2026-04-04T16:35:54Z</time></trkpt><trkpt lat="44.60764399991831" lon="10.29835067354103"><ele>432.5</ele><time>2026-04-04T16:35:55Z</time></trkpt><trkpt lat="44.60772145087758" lon="10.298503783674082"><ele>432.0</ele><time>2026-04-04T16:35:56Z</time></trkpt><trkpt lat="44.60781476744802" lon="10.298658047279904"><ele>431.25</ele><time>2026-04-04T16:35:57Z</time></trkpt><trkpt lat="44.60792057680405" lon="10.298795367193076"><ele>430.5</ele><time>2026-04-04T16:35:58Z</time></trkpt><trkpt lat="44.60802993290418" lon="10.298917249530191"><ele>429.75</ele><time>2026-04-04T16:35:59Z</time></trkpt><trkpt lat="44.60813443654492" lon="10.299045675610492"><ele>429.0</ele><time>2026-04-04T16:36:00Z</time></trkpt><trkpt lat="44.608202510725384" lon="10.299204025782275"><ele>429.0</ele><time>2026-04-04T16:36:01Z</time></trkpt><trkpt lat="44.608285626080814" lon="10.299353614063984"><ele>429.0</ele><time>2026-04-04T16:36:02Z</time></trkpt><trkpt lat="44.60835332144967" lon="10.299535913158623"><ele>429.0</ele><time>2026-04-04T16:36:03Z</time></trkpt><trkpt lat="44.60842144085083" lon="10.299725878275591"><ele>429.0</ele><time>2026-04-04T16:36:04Z</time></trkpt><trkpt lat="44.60848741814616" lon="10.299918484234082"><ele>428.75</ele><time>2026-04-04T16:36:05Z</time></trkpt><trkpt lat="44.60854564680869" lon="10.300100736443667"><ele>428.5</ele><time>2026-04-04T16:36:06Z</time></trkpt><trkpt lat="44.60859742985606" lon="10.300278911690334"><ele>428.25</ele><time>2026-04-04T16:36:07Z</time></trkpt><trkpt lat="44.6086523076372" lon="10.300440340820808"><ele>428.0</ele><time>2026-04-04T16:36:08Z</time></trkpt><trkpt lat="44.60870359172791" lon="10.300611855616346"><ele>423.66666666666663</ele><time>2026-04-04T16:36:09Z</time></trkpt><trkpt lat="44.6087228414619" lon="10.300816397815256"><ele>419.33333333333337</ele><time>2026-04-04T16:36:10Z</time></trkpt><trkpt lat="44.608734559582246" lon="10.30103954066876"><ele>415.0</ele><time>2026-04-04T16:36:11Z</time></trkpt><trkpt lat="44.60873736843856" lon="10.301270417046343"><ele>417.0</ele><time>2026-04-04T16:36:12Z</time></trkpt><trkpt lat="44.608756818846516" lon="10.301503003758745"><ele>419.0</ele><time>2026-04-04T16:36:13Z</time></trkpt><trkpt lat="44.60876128569793" lon="10.301732682141576"><ele>421.0</ele><time>2026-04-04T16:36:14Z</time></trkpt><trkpt lat="44.60877020227844" lon="10.301940843307314"><ele>421.0</ele><time>2026-04-04T16:36:15Z</time></trkpt><trkpt lat="44.60877689729889" lon="10.302146781446181"><ele>421.0</ele><time>2026-04-04T16:36:16Z</time></trkpt><trkpt lat="44.60876663530374" lon="10.302349898102303"><ele>421.0</ele><time>2026-04-04T16:36:17Z</time></trkpt><trkpt lat="44.608772964605755" lon="10.30255172180487"><ele>421.0</ele><time>2026-04-04T16:36:18Z</time></trkpt><trkpt lat="44.60879426744156" lon="10.302753744650618"><ele>421.5</ele><time>2026-04-04T16:36:19Z</time></trkpt><trkpt lat="44.60880017521195" lon="10.302950754605938"><ele>422.0</ele><time>2026-04-04T16:36:20Z</time></trkpt><trkpt lat="44.60880321221885" lon="10.303141280912829"><ele>422.5</ele><time>2026-04-04T16:36:21Z</time></trkpt><trkpt lat="44.60878660630589" lon="10.30332768165929"><ele>423.0</ele><time>2026-04-04T16:36:22Z</time></trkpt><trkpt lat="44.608717287281" lon="10.303488129041854"><ele>424.25</ele><time>2026-04-04T16:36:23Z</time></trkpt><trkpt lat="44.60862821347085" lon="10.30361768946888"><ele>425.5</ele><time>2026-04-04T16:36:24Z</time></trkpt><trkpt lat="44.608534517978235" lon="10.303739218085196"><ele>426.75</ele><time>2026-04-04T16:36:25Z</time></trkpt><trkpt lat="44.6084560014078" lon="10.3038628230932"><ele>428.0</ele><time>2026-04-04T16:36:26Z</time></trkpt><trkpt lat="44.60838990391153" lon="10.30398258937625"><ele>429.59999999999997</ele><time>2026-04-04T16:36:27Z</time></trkpt><trkpt lat="44.608341677560354" lon="10.304103221968381"><ele>431.19999999999993</ele><time>2026-04-04T16:36:28Z</time></trkpt><trkpt lat="44.60831604263547" lon="10.304232189586443"><ele>432.8</ele><time>2026-04-04T16:36:29Z</time></trkpt><trkpt lat="44.60832266863864" lon="10.304371201279299"><ele>434.4</ele><time>2026-04-04T16:36:30Z</time></trkpt><trkpt lat="44.60835863854784" lon="10.304505378098527"><ele>436.0</ele><time>2026-04-04T16:36:31Z</time></trkpt><trkpt lat="44.60842955385889" lon="10.304624810476946"><ele>436.0</ele><time>2026-04-04T16:36:32Z</time></trkpt><trkpt lat="44.60853267459234" lon="10.304716409896859"><ele>436.0</ele><time>2026-04-04T16:36:33Z</time></trkpt><trkpt lat="44.60864457536362" lon="10.30477902512858"><ele>436.0</ele><time>2026-04-04T16:36:34Z</time></trkpt><trkpt lat="44.60873112744906" lon="10.30482953069916"><ele>436.0</ele><time>2026-04-04T16:36:35Z</time></trkpt><trkpt lat="44.60879338005479" lon="10.304912836017452"><ele>436.0</ele><time>2026-04-04T16:36:36Z</time></trkpt><trkpt lat="44.60883854498645" lon="10.305020949490451"><ele>438.0</ele><time>2026-04-04T16:36:37Z</time></trkpt><trkpt lat="44.60885659650221" lon="10.305150287597302"><ele>440.0</ele><time>2026-04-04T16:36:38Z</time></trkpt><trkpt lat="44.608832310958206" lon="10.30530111675186"><ele>442.0</ele><time>2026-04-04T16:36:39Z</time></trkpt><trkpt lat="44.60882899319942" lon="10.305467423593976"><ele>444.0</ele><time>2026-04-04T16:36:40Z</time></trkpt><trkpt lat="44.6088090385739" lon="10.305656903925437"><ele>445.25</ele><time>2026-04-04T16:36:41Z</time></trkpt><trkpt lat="44.60878988220098" lon="10.305855159751259"><ele>446.5</ele><time>2026-04-04T16:36:42Z</time></trkpt><trkpt lat="44.608773959070895" lon="10.306046238774217"><ele>447.75</ele><time>2026-04-04T16:36:43Z</time></trkpt><trkpt lat="44.608756519148756" lon="10.30622748208566"><ele>449.0</ele><time>2026-04-04T16:36:44Z</time></trkpt><trkpt lat="44.608715543333766" lon="10.306378373875607"><ele>449.0</ele><time>2026-04-04T16:36:45Z</time></trkpt><trkpt lat="44.60866571642246" lon="10.306530351941698"><ele>449.0</ele><time>2026-04-04T16:36:46Z</time></trkpt><trkpt lat="44.608619893116206" lon="10.306677116184984"><ele>449.0</ele><time>2026-04-04T16:36:47Z</time></trkpt><trkpt lat="44.608545635250046" lon="10.306773744204925"><ele>449.0</ele><time>2026-04-04T16:36:48Z</time></trkpt><trkpt lat="44.608481313473774" lon="10.306855078028667"><ele>449.0</ele><time>2026-04-04T16:36:49Z</time></trkpt><trkpt lat="44.60840932287095" lon="10.306919430690762"><ele>450.5</ele><time>2026-04-04T16:36:50Z</time></trkpt><trkpt lat="44.60830883910605" lon="10.306948764005963"><ele>452.0</ele><time>2026-04-04T16:36:51Z</time></trkpt><trkpt lat="44.608188733466385" lon="10.306924494427124"><ele>453.5</ele><time>2026-04-04T16:36:52Z</time></trkpt><trkpt lat="44.60805432226066" lon="10.30693504380607"><ele>455.0</ele><time>2026-04-04T16:36:53Z</time></trkpt><trkpt lat="44.60791870943004" lon="10.306929964111513"><ele>452.75</ele><time>2026-04-04T16:36:54Z</time></trkpt><trkpt lat="44.607781554622235" lon="10.306958075670504"><ele>450.5</ele><time>2026-04-04T16:36:55Z</time></trkpt><trkpt lat="44.60764358188726" lon="10.307018253097127"><ele>448.25</ele><time>2026-04-04T16:36:56Z</time></trkpt><trkpt lat="44.60751623969539" lon="10.307082771257493"><ele>446.0</ele><time>2026-04-04T16:36:57Z</time></trkpt><trkpt lat="44.60739399271097" lon="10.307158098004354"><ele>452.0</ele><time>2026-04-04T16:36:58Z</time></trkpt><trkpt lat="44.607277441453896" lon="10.307281068611776"><ele>458.0</ele><time>2026-04-04T16:36:59Z</time></trkpt><trkpt lat="44.60715356320588" lon="10.307434920863262"><ele>464.0</ele><time>2026-04-04T16:37:00Z</time></trkpt><trkpt lat="44.60702942097529" lon="10.307607136514234"><ele>458.3333333333333</ele><time>2026-04-04T16:37:01Z</time></trkpt><trkpt lat="44.60690661004614" lon="10.307775326907922"><ele>452.66666666666663</ele><time>2026-04-04T16:37:02Z</time></trkpt><trkpt lat="44.606781473054056" lon="10.307907796036861"><ele>447.0</ele><time>2026-04-04T16:37:03Z</time></trkpt><trkpt lat="44.60668944024982" lon="10.308056766185642"><ele>450.75</ele><time>2026-04-04T16:37:04Z</time></trkpt><trkpt lat="44.60658979651031" lon="10.308190531774564"><ele>454.5</ele><time>2026-04-04T16:37:05Z</time></trkpt><trkpt lat="44.606494515579975" lon="10.30833581231658"><ele>458.25</ele><time>2026-04-04T16:37:06Z</time></trkpt><trkpt lat="44.60641767159155" lon="10.308471261100054"><ele>462.0</ele><time>2026-04-04T16:37:07Z</time></trkpt><trkpt lat="44.606356176803736" lon="10.30860244598849"><ele>462.0</ele><time>2026-04-04T16:37:08Z</time></trkpt><trkpt lat="44.60632152297161" lon="10.308748708152681"><ele>462.0</ele><time>2026-04-04T16:37:09Z</time></trkpt><trkpt lat="44.60630724290814" lon="10.308959903736024"><ele>462.0</ele><time>2026-04-04T16:37:10Z</time></trkpt><trkpt lat="44.60631907580373" lon="10.309143251084842"><ele>462.0</ele><time>2026-04-04T16:37:11Z</time></trkpt><trkpt lat="44.60632412416258" lon="10.309339281574756"><ele>463.0</ele><time>2026-04-04T16:37:12Z</time></trkpt><trkpt lat="44.60633363668631" lon="10.309517998707436"><ele>464.00000000000006</ele><time>2026-04-04T16:37:13Z</time></trkpt><trkpt lat="44.60635400331822" lon="10.30967491164286"><ele>465.00000000000006</ele><time>2026-04-04T16:37:14Z</time></trkpt><trkpt lat="44.606389599609884" lon="10.309815271890827"><ele>466.0</ele><time>2026-04-04T16:37:15Z</time></trkpt><trkpt lat="44.606451895890935" lon="10.30992193807917"><ele>467.0</ele><time>2026-04-04T16:37:16Z</time></trkpt><trkpt lat="44.60654843512083" lon="10.30999177696503"><ele>468.25</ele><time>2026-04-04T16:37:17Z</time></trkpt><trkpt lat="44.60667565665223" lon="10.310021304619992"><ele>469.5</ele><time>2026-04-04T16:37:18Z</time></trkpt><trkpt lat="44.60681954318875" lon="10.310037830457688"><ele>470.75</ele><time>2026-04-04T16:37:19Z</time></trkpt><trkpt lat="44.60696238504138" lon="10.310094547537277"><ele>472.0</ele><time>2026-04-04T16:37:20Z</time></trkpt><trkpt lat="44.607081852009344" lon="10.310209613636806"><ele>472.0</ele><time>2026-04-04T16:37:21Z</time></trkpt><trkpt lat="44.60718039431093" lon="10.310386684456644"><ele>472.0</ele><time>2026-04-04T16:37:22Z</time></trkpt><trkpt lat="44.607279265789856" lon="10.310531528780936"><ele>472.0</ele><time>2026-04-04T16:37:23Z</time></trkpt><trkpt lat="44.60735068138798" lon="10.310664226948619"><ele>472.0</ele><time>2026-04-04T16:37:24Z</time></trkpt><trkpt lat="44.60744361799512" lon="10.310809299297045"><ele>468.0</ele><time>2026-04-04T16:37:25Z</time></trkpt><trkpt lat="44.60758833708707" lon="10.31095832494857"><ele>464.0</ele><time>2026-04-04T16:37:26Z</time></trkpt><trkpt lat="44.6077314188136" lon="10.311074973153675"><ele>460.0</ele><time>2026-04-04T16:37:27Z</time></trkpt><trkpt lat="44.60789014635592" lon="10.311197255125695"><ele>460.0</ele><time>2026-04-04T16:37:28Z</time></trkpt><trkpt lat="44.6080525400988" lon="10.311325778029289"><ele>460.0</ele><time>2026-04-04T16:37:29Z</time></trkpt><trkpt lat="44.608208373550035" lon="10.311451766965325"><ele>460.0</ele><time>2026-04-04T16:37:30Z</time></trkpt><trkpt lat="44.60835519979055" lon="10.311563777838966"><ele>455.0</ele><time>2026-04-04T16:37:31Z</time></trkpt><trkpt lat="44.60849215317549" lon="10.31168049050886"><ele>450.0</ele><time>2026-04-04T16:37:32Z</time></trkpt><trkpt lat="44.60863728297208" lon="10.311778347995451"><ele>445.0</ele><time>2026-04-04T16:37:33Z</time></trkpt><trkpt lat="44.60876495341436" lon="10.311883079759557"><ele>444.25</ele><time>2026-04-04T16:37:34Z</time></trkpt><trkpt lat="44.60889605336324" lon="10.31197026049507"><ele>443.5</ele><time>2026-04-04T16:37:35Z</time></trkpt><trkpt lat="44.60901615518644" lon="10.312050415524132"><ele>442.75</ele><time>2026-04-04T16:37:36Z</time></trkpt><trkpt lat="44.60912799787181" lon="10.312123832376432"><ele>442.0</ele><time>2026-04-04T16:37:37Z</time></trkpt><trkpt lat="44.60921668940923" lon="10.312202719525022"><ele>440.40000000000003</ele><time>2026-04-04T16:37:38Z</time></trkpt><trkpt lat="44.609305380858174" lon="10.312253214010227"><ele>438.80000000000007</ele><time>2026-04-04T16:37:39Z</time></trkpt><trkpt lat="44.60939251236057" lon="10.312348904289449"><ele>437.2</ele><time>2026-04-04T16:37:40Z</time></trkpt><trkpt lat="44.609463609955455" lon="10.312457923723914"><ele>435.6</ele><time>2026-04-04T16:37:41Z</time></trkpt><trkpt lat="44.60952949286206" lon="10.312589887604686"><ele>434.0</ele><time>2026-04-04T16:37:42Z</time></trkpt><trkpt lat="44.609563445902715" lon="10.312760199034285"><ele>432.75</ele><time>2026-04-04T16:37:43Z</time></trkpt><trkpt lat="44.60960420657402" lon="10.312949348462345"><ele>431.5</ele><time>2026-04-04T16:37:44Z</time></trkpt><trkpt lat="44.60965667522867" lon="10.313108063801238"><ele>430.25</ele><time>2026-04-04T16:37:45Z</time></trkpt><trkpt lat="44.60971877604397" lon="10.313257484719362"><ele>429.0</ele><time>2026-04-04T16:37:46Z</time></trkpt><trkpt lat="44.60980737797247" lon="10.313397517536785"><ele>429.0</ele><time>2026-04-04T16:37:47Z</time></trkpt><trkpt lat="44.60990379506635" lon="10.313518469131328"><ele>429.0</ele><time>2026-04-04T16:37:48Z</time></trkpt><trkpt lat="44.610002865155266" lon="10.313613325243956"><ele>429.0</ele><time>2026-04-04T16:37:49Z</time></trkpt><trkpt lat="44.6101178652798" lon="10.313670437853206"><ele>429.0</ele><time>2026-04-04T16:37:50Z</time></trkpt><trkpt lat="44.610245968092975" lon="10.313700659305091"><ele>425.75</ele><time>2026-04-04T16:37:51Z</time></trkpt><trkpt lat="44.61038862576886" lon="10.313716415595366"><ele>422.5</ele><time>2026-04-04T16:37:52Z</time></trkpt><trkpt lat="44.61051715322822" lon="10.31371726209065"><ele>419.25</ele><time>2026-04-04T16:37:53Z</time></trkpt><trkpt lat="44.61064312869515" lon="10.31372577817342"><ele>416.0</ele><time>2026-04-04T16:37:54Z</time></trkpt><trkpt lat="44.61075829217149" lon="10.313721254705294"><ele>416.0</ele><time>2026-04-04T16:37:55Z</time></trkpt><trkpt lat="44.61087211008257" lon="10.31380558472152"><ele>416.0</ele><time>2026-04-04T16:37:56Z</time></trkpt><trkpt lat="44.610996044405525" lon="10.313895066801253"><ele>416.0</ele><time>2026-04-04T16:37:57Z</time></trkpt><trkpt lat="44.61112375118604" lon="10.314006024371999"><ele>416.0</ele><time>2026-04-04T16:37:58Z</time></trkpt><trkpt lat="44.611270254915524" lon="10.31410690281625"><ele>415.66666666666663</ele><time>2026-04-04T16:37:59Z</time></trkpt><trkpt lat="44.611390534464604" lon="10.314241102411016"><ele>415.33333333333337</ele><time>2026-04-04T16:38:00Z</time></trkpt><trkpt lat="44.611543906849384" lon="10.314328788120402"><ele>415.0</ele><time>2026-04-04T16:38:01Z</time></trkpt><trkpt lat="44.61170049535082" lon="10.314433385045348"><ele>415.0</ele><time>2026-04-04T16:38:02Z</time></trkpt><trkpt lat="44.61180363126333" lon="10.31450307832761"><ele>415.0</ele><time>2026-04-04T16:38:03Z</time></trkpt><trkpt lat="44.61194880196373" lon="10.314600891795262"><ele>415.0</ele><time>2026-04-04T16:38:04Z</time></trkpt><trkpt lat="44.612050634717114" lon="10.314667203110677"><ele>415.0</ele><time>2026-04-04T16:38:05Z</time></trkpt><trkpt lat="44.61220652521392" lon="10.314788088021938"><ele>411.5</ele><time>2026-04-04T16:38:06Z</time></trkpt><trkpt lat="44.61230075473942" lon="10.31488051885427"><ele>408.0</ele><time>2026-04-04T16:38:07Z</time></trkpt><trkpt lat="44.61242424755239" lon="10.315015201573008"><ele>404.5</ele><time>2026-04-04T16:38:08Z</time></trkpt><trkpt lat="44.61253736327684" lon="10.315136353811374"><ele>401.0</ele><time>2026-04-04T16:38:09Z</time></trkpt><trkpt lat="44.61265115880415" lon="10.315237445581813"><ele>401.0</ele><time>2026-04-04T16:38:10Z</time></trkpt><trkpt lat="44.61274492733887" lon="10.315337966627258"><ele>401.0</ele><time>2026-04-04T16:38:11Z</time></trkpt><trkpt lat="44.61283888369705" lon="10.315437183711467"><ele>401.0</ele><time>2026-04-04T16:38:12Z</time></trkpt><trkpt lat="44.61291926965803" lon="10.315511088939886"><ele>401.0</ele><time>2026-04-04T16:38:13Z</time></trkpt><trkpt lat="44.61294938679074" lon="10.315610625457868"><ele>401.0</ele><time>2026-04-04T16:38:14Z</time></trkpt><trkpt lat="44.61298811316188" lon="10.315716864284019"><ele>398.75</ele><time>2026-04-04T16:38:15Z</time></trkpt><trkpt lat="44.61303520493172" lon="10.31582681455398"><ele>396.5</ele><time>2026-04-04T16:38:16Z</time></trkpt><trkpt lat="44.61309911061998" lon="10.31598548870799"><ele>394.25</ele><time>2026-04-04T16:38:17Z</time></trkpt><trkpt lat="44.61313688487921" lon="10.316081325988833"><ele>392.0</ele><time>2026-04-04T16:38:18Z</time></trkpt><trkpt lat="44.61324393407909" lon="10.316316612859556"><ele>390.3333333333333</ele><time>2026-04-04T16:38:19Z</time></trkpt><trkpt lat="44.61326246564361" lon="10.316574111729764"><ele>388.66666666666663</ele><time>2026-04-04T16:38:20Z</time></trkpt><trkpt lat="44.61334009802267" lon="10.316736213279547"><ele>387.0</ele><time>2026-04-04T16:38:21Z</time></trkpt><trkpt lat="44.61341800506167" lon="10.316971254713716"><ele>387.0</ele><time>2026-04-04T16:38:22Z</time></trkpt><trkpt lat="44.61347272538245" lon="10.31715033940107"><ele>387.0</ele><time>2026-04-04T16:38:23Z</time></trkpt><trkpt lat="44.61353444730795" lon="10.317341841064135"><ele>387.0</ele><time>2026-04-04T16:38:24Z</time></trkpt><trkpt lat="44.61361912127579" lon="10.317558997495231"><ele>385.6666666666667</ele><time>2026-04-04T16:38:25Z</time></trkpt><trkpt lat="44.613679362859514" lon="10.317807117979442"><ele>384.33333333333337</ele><time>2026-04-04T16:38:26Z</time></trkpt><trkpt lat="44.6137544199183" lon="10.318050908935305"><ele>383.0</ele><time>2026-04-04T16:38:27Z</time></trkpt><trkpt lat="44.61383039127458" lon="10.318292120705728"><ele>383.0</ele><time>2026-04-04T16:38:28Z</time></trkpt><trkpt lat="44.613913684708706" lon="10.318503422800445"><ele>383.0</ele><time>2026-04-04T16:38:29Z</time></trkpt><trkpt lat="44.613980582095046" lon="10.318737275868044"><ele>383.0</ele><time>2026-04-04T16:38:30Z</time></trkpt><trkpt lat="44.61405267669952" lon="10.318957702745614"><ele>384.6666666666667</ele><time>2026-04-04T16:38:31Z</time></trkpt><trkpt lat="44.614122250505105" lon="10.31915067857705"><ele>386.33333333333337</ele><time>2026-04-04T16:38:32Z</time></trkpt><trkpt lat="44.61421280748222" lon="10.319318995911766"><ele>388.0</ele><time>2026-04-04T16:38:33Z</time></trkpt><trkpt lat="44.61432030024925" lon="10.319483347619402"><ele>388.0</ele><time>2026-04-04T16:38:34Z</time></trkpt><trkpt lat="44.61444073764501" lon="10.319650455518673"><ele>388.0</ele><time>2026-04-04T16:38:35Z</time></trkpt><trkpt lat="44.61455418308965" lon="10.319817893484004"><ele>388.0</ele><time>2026-04-04T16:38:36Z</time></trkpt><trkpt lat="44.614655299762376" lon="10.319971710154665"><ele>389.75</ele><time>2026-04-04T16:38:37Z</time></trkpt><trkpt lat="44.61475775559928" lon="10.320122013826902"><ele>391.5</ele><time>2026-04-04T16:38:38Z</time></trkpt><trkpt lat="44.61483355729509" lon="10.320284741794632"><ele>393.25</ele><time>2026-04-04T16:38:39Z</time></trkpt><trkpt lat="44.61491573652559" lon="10.320424840232452"><ele>395.0</ele><time>2026-04-04T16:38:40Z</time></trkpt><trkpt lat="44.61500408499056" lon="10.320573565069182"><ele>397.4</ele><time>2026-04-04T16:38:41Z</time></trkpt><trkpt lat="44.61508109195941" lon="10.320703199400537"><ele>399.8</ele><time>2026-04-04T16:38:42Z</time></trkpt><trkpt lat="44.61514058979103" lon="10.32079096675329"><ele>402.20000000000005</ele><time>2026-04-04T16:38:43Z</time></trkpt><trkpt lat="44.615182002404254" lon="10.320877269727443"><ele>404.6</ele><time>2026-04-04T16:38:44Z</time></trkpt><trkpt lat="44.615247090018315" lon="10.320999946557802"><ele>407.0</ele><time>2026-04-04T16:38:46Z</time></trkpt><trkpt lat="44.61530154249831" lon="10.321076440944482"><ele>406.66666666666663</ele><time>2026-04-04T16:38:47Z</time></trkpt><trkpt lat="44.615347218054" lon="10.321164241462355"><ele>406.3333333333333</ele><time>2026-04-04T16:38:48Z</time></trkpt><trkpt lat="44.61542769541722" lon="10.321183753175838"><ele>406.0</ele><time>2026-04-04T16:38:50Z</time></trkpt><trkpt lat="44.61552864430527" lon="10.321248298434845"><ele>405.66666666666663</ele><time>2026-04-04T16:38:52Z</time></trkpt><trkpt lat="44.61559045805307" lon="10.321303554083583"><ele>405.3333333333333</ele><time>2026-04-04T16:38:53Z</time></trkpt><trkpt lat="44.61566939198048" lon="10.321376638211163"><ele>405.0</ele><time>2026-04-04T16:38:54Z</time></trkpt><trkpt lat="44.61575422431999" lon="10.321464771850325"><ele>406.25</ele><time>2026-04-04T16:38:55Z</time></trkpt><trkpt lat="44.61585690066559" lon="10.321547890254934"><ele>407.5</ele><time>2026-04-04T16:38:56Z</time></trkpt><trkpt lat="44.61594597722796" lon="10.321648290037372"><ele>408.75</ele><time>2026-04-04T16:38:57Z</time></trkpt><trkpt lat="44.616028428828024" lon="10.321754780037285"><ele>410.0</ele><time>2026-04-04T16:38:58Z</time></trkpt><trkpt lat="44.616117027892635" lon="10.321847593051125"><ele>408.0</ele><time>2026-04-04T16:38:59Z</time></trkpt><trkpt lat="44.616195197081986" lon="10.321927264649931"><ele>406.0</ele><time>2026-04-04T16:39:00Z</time></trkpt><trkpt lat="44.61627682054514" lon="10.322008954777113"><ele>404.0</ele><time>2026-04-04T16:39:01Z</time></trkpt><trkpt lat="44.6163652217588" lon="10.322096217441977"><ele>402.0</ele><time>2026-04-04T16:39:02Z</time></trkpt><trkpt lat="44.61645287575614" lon="10.3221813244729"><ele>400.0</ele><time>2026-04-04T16:39:03Z</time></trkpt><trkpt lat="44.61654475861603" lon="10.322270164723548"><ele>400.0</ele><time>2026-04-04T16:39:04Z</time></trkpt><trkpt lat="44.616633156162905" lon="10.322354731057164"><ele>400.0</ele><time>2026-04-04T16:39:05Z</time></trkpt><trkpt lat="44.616719789412656" lon="10.322437609536728"><ele>400.0</ele><time>2026-04-04T16:39:06Z</time></trkpt><trkpt lat="44.616810568997586" lon="10.32252724800474"><ele>400.0</ele><time>2026-04-04T16:39:07Z</time></trkpt><trkpt lat="44.61690477453785" lon="10.322604138071192"><ele>400.0</ele><time>2026-04-04T16:39:08Z</time></trkpt><trkpt lat="44.616978784668454" lon="10.322707948081977"><ele>397.33333333333337</ele><time>2026-04-04T16:39:09Z</time></trkpt><trkpt lat="44.61705047048131" lon="10.322782389706328"><ele>394.6666666666667</ele><time>2026-04-04T16:39:10Z</time></trkpt><trkpt lat="44.61711964355656" lon="10.322857410233494"><ele>392.0</ele><time>2026-04-04T16:39:11Z</time></trkpt><trkpt lat="44.617190723914895" lon="10.322899215254337"><ele>389.33333333333337</ele><time>2026-04-04T16:39:12Z</time></trkpt><trkpt lat="44.61726793512408" lon="10.322917356725181"><ele>386.6666666666667</ele><time>2026-04-04T16:39:13Z</time></trkpt><trkpt lat="44.61737073235882" lon="10.322900670621832"><ele>384.0</ele><time>2026-04-04T16:39:14Z</time></trkpt><trkpt lat="44.61749068876749" lon="10.322880993866745"><ele>384.0</ele><time>2026-04-04T16:39:15Z</time></trkpt><trkpt lat="44.61760572453544" lon="10.322875498053369"><ele>384.0</ele><time>2026-04-04T16:39:16Z</time></trkpt><trkpt lat="44.61772644865389" lon="10.322905329216303"><ele>384.0</ele><time>2026-04-04T16:39:17Z</time></trkpt><trkpt lat="44.61785729059669" lon="10.322951152663483"><ele>384.0</ele><time>2026-04-04T16:39:18Z</time></trkpt><trkpt lat="44.6179793532606" lon="10.322998904715316"><ele>384.5</ele><time>2026-04-04T16:39:19Z</time></trkpt><trkpt lat="44.61809612313576" lon="10.323063510912677"><ele>385.0</ele><time>2026-04-04T16:39:20Z</time></trkpt><trkpt lat="44.61821098825406" lon="10.323114061164464"><ele>385.5</ele><time>2026-04-04T16:39:21Z</time></trkpt><trkpt lat="44.61833548957111" lon="10.32312523825422"><ele>386.0</ele><time>2026-04-04T16:39:22Z</time></trkpt><trkpt lat="44.61846164929492" lon="10.323151774722112"><ele>386.0</ele><time>2026-04-04T16:39:23Z</time></trkpt><trkpt lat="44.61859766336241" lon="10.323188505228785"><ele>386.0</ele><time>2026-04-04T16:39:24Z</time></trkpt><trkpt lat="44.618737236702245" lon="10.323205609643134"><ele>386.0</ele><time>2026-04-04T16:39:25Z</time></trkpt><trkpt lat="44.618867196411784" lon="10.32318894345041"><ele>386.0</ele><time>2026-04-04T16:39:26Z</time></trkpt><trkpt lat="44.61898687095002" lon="10.323157596200817"><ele>387.75</ele><time>2026-04-04T16:39:27Z</time></trkpt><trkpt lat="44.619104976374935" lon="10.32313439518787"><ele>389.5</ele><time>2026-04-04T16:39:28Z</time></trkpt><trkpt lat="44.61923500953201" lon="10.323113675267411"><ele>391.25</ele><time>2026-04-04T16:39:29Z</time></trkpt><trkpt lat="44.619366753307965" lon="10.323122596769785"><ele>393.0</ele><time>2026-04-04T16:39:30Z</time></trkpt><trkpt lat="44.619483074909176" lon="10.323155185879406"><ele>392.5</ele><time>2026-04-04T16:39:31Z</time></trkpt><trkpt lat="44.61956948915338" lon="10.323178803017777"><ele>392.0</ele><time>2026-04-04T16:39:32Z</time></trkpt><trkpt lat="44.619671707007605" lon="10.323200017970821"><ele>391.5</ele><time>2026-04-04T16:39:34Z</time></trkpt><trkpt lat="44.61972037208584" lon="10.323119653992766"><ele>391.0</ele><time>2026-04-04T16:40:42Z</time></trkpt><trkpt lat="44.619656481162416" lon="10.323202645225084"><ele>390.5</ele><time>2026-04-04T16:40:46.001Z</time></trkpt><trkpt lat="44.619720694941265" lon="10.323138238930314"><ele>390.0</ele><time>2026-04-04T16:48:14Z</time></trkpt><trkpt lat="44.6197809051405" lon="10.32303584841506"><ele>389.8333333333333</ele><time>2026-04-04T16:48:17Z</time></trkpt><trkpt lat="44.61987046775996" lon="10.322916747952178"><ele>389.66666666666663</ele><time>2026-04-04T16:48:19Z</time></trkpt><trkpt lat="44.619923897595875" lon="10.322853833634166"><ele>389.5</ele><time>2026-04-04T16:48:20Z</time></trkpt><trkpt lat="44.61997305101786" lon="10.3227899640953"><ele>389.3333333333333</ele><time>2026-04-04T16:48:21Z</time></trkpt><trkpt lat="44.6200104928951" lon="10.3227032895892"><ele>389.16666666666663</ele><time>2026-04-04T16:48:22Z</time></trkpt><trkpt lat="44.620052881455244" lon="10.322631538382362"><ele>389.0</ele><time>2026-04-04T16:48:23Z</time></trkpt><trkpt lat="44.62010827557351" lon="10.322542417677868"><ele>389.0</ele><time>2026-04-04T16:48:24Z</time></trkpt><trkpt lat="44.62015438967998" lon="10.322462100996214"><ele>389.0</ele><time>2026-04-04T16:48:25Z</time></trkpt><trkpt lat="44.620242885482824" lon="10.32236646886078"><ele>389.0</ele><time>2026-04-04T16:48:27Z</time></trkpt><trkpt lat="44.62036043898009" lon="10.322365358593506"><ele>389.0</ele><time>2026-04-04T16:48:29Z</time></trkpt><trkpt lat="44.62050296763713" lon="10.32239631132575"><ele>389.0</ele><time>2026-04-04T16:48:31Z</time></trkpt><trkpt lat="44.62056892942077" lon="10.322391820812246"><ele>388.4</ele><time>2026-04-04T16:48:32Z</time></trkpt><trkpt lat="44.62064432302604" lon="10.322319617576325"><ele>387.79999999999995</ele><time>2026-04-04T16:48:34Z</time></trkpt><trkpt lat="44.62077377670226" lon="10.322269317805263"><ele>387.20000000000005</ele><time>2026-04-04T16:48:36Z</time></trkpt><trkpt lat="44.62086019009437" lon="10.322254566762606"><ele>386.6</ele><time>2026-04-04T16:48:37Z</time></trkpt><trkpt lat="44.6209464770127" lon="10.322233626281701"><ele>386.0</ele><time>2026-04-04T16:48:38Z</time></trkpt><trkpt lat="44.621022572369164" lon="10.322229487840795"><ele>385.8</ele><time>2026-04-04T16:48:39Z</time></trkpt><trkpt lat="44.62110780296026" lon="10.322239124835912"><ele>385.6</ele><time>2026-04-04T16:48:40Z</time></trkpt><trkpt lat="44.62124061537447" lon="10.322217531985936"><ele>385.4</ele><time>2026-04-04T16:48:42Z</time></trkpt><trkpt lat="44.62130350578486" lon="10.322202680179002"><ele>385.2</ele><time>2026-04-04T16:48:43Z</time></trkpt><trkpt lat="44.621370509735634" lon="10.322216405686055"><ele>385.0</ele><time>2026-04-04T16:48:44Z</time></trkpt><trkpt lat="44.62146984661112" lon="10.322250367555794"><ele>383.83333333333337</ele><time>2026-04-04T16:48:45Z</time></trkpt><trkpt lat="44.621550606494594" lon="10.32232163514809"><ele>382.6666666666667</ele><time>2026-04-04T16:48:46Z</time></trkpt><trkpt lat="44.62160825162925" lon="10.322379262637396"><ele>381.5</ele><time>2026-04-04T16:48:47Z</time></trkpt><trkpt lat="44.621681125112765" lon="10.32242539622011"><ele>380.33333333333337</ele><time>2026-04-04T16:48:48Z</time></trkpt><trkpt lat="44.6217421396457" lon="10.322484766149403"><ele>379.1666666666667</ele><time>2026-04-04T16:48:49Z</time></trkpt><trkpt lat="44.62181873611966" lon="10.322542495588658"><ele>378.0</ele><time>2026-04-04T16:48:50Z</time></trkpt><trkpt lat="44.62189391998484" lon="10.32260240771779"><ele>378.0</ele><time>2026-04-04T16:48:51Z</time></trkpt><trkpt lat="44.62196970933507" lon="10.322643389287794"><ele>378.0</ele><time>2026-04-04T16:48:52Z</time></trkpt><trkpt lat="44.62203590552358" lon="10.32269159760256"><ele>378.0</ele><time>2026-04-04T16:48:53Z</time></trkpt><trkpt lat="44.62211320650812" lon="10.322739346752469"><ele>378.0</ele><time>2026-04-04T16:48:54Z</time></trkpt><trkpt lat="44.622177987914554" lon="10.322788073221481"><ele>378.0</ele><time>2026-04-04T16:48:55Z</time></trkpt><trkpt lat="44.622252956402285" lon="10.322847188984712"><ele>378.0</ele><time>2026-04-04T16:48:56Z</time></trkpt><trkpt lat="44.622393347239814" lon="10.32290131362062"><ele>376.2857142857143</ele><time>2026-04-04T16:48:58Z</time></trkpt><trkpt lat="44.62246496245997" lon="10.322908599109999"><ele>374.57142857142856</ele><time>2026-04-04T16:48:59Z</time></trkpt><trkpt lat="44.62253391497879" lon="10.322944880094324"><ele>372.8571428571429</ele><time>2026-04-04T16:49:00Z</time></trkpt><trkpt lat="44.62261005429372" lon="10.322915186484433"><ele>371.1428571428571</ele><time>2026-04-04T16:49:01Z</time></trkpt><trkpt lat="44.62267881806861" lon="10.322903872923744"><ele>369.42857142857144</ele><time>2026-04-04T16:49:02Z</time></trkpt><trkpt lat="44.62275283848776" lon="10.322905888420305"><ele>367.7142857142857</ele><time>2026-04-04T16:49:03Z</time></trkpt><trkpt lat="44.622820602652105" lon="10.322886581760796"><ele>366.0</ele><time>2026-04-04T16:49:04Z</time></trkpt><trkpt lat="44.622875628616015" lon="10.32279996562496"><ele>364.0</ele><time>2026-04-04T16:49:05Z</time></trkpt><trkpt lat="44.622944569018536" lon="10.322748377649582"><ele>362.0</ele><time>2026-04-04T16:49:06Z</time></trkpt><trkpt lat="44.62306121853542" lon="10.322671555128586"><ele>360.0</ele><time>2026-04-04T16:49:08Z</time></trkpt><trkpt lat="44.623149732481295" lon="10.322644182043842"><ele>358.0</ele><time>2026-04-04T16:49:09Z</time></trkpt><trkpt lat="44.62325200432326" lon="10.322619978983273"><ele>356.0</ele><time>2026-04-04T16:49:10Z</time></trkpt><trkpt lat="44.62334930880311" lon="10.322602117581816"><ele>356.0</ele><time>2026-04-04T16:49:11Z</time></trkpt><trkpt lat="44.62345172425412" lon="10.322595308830744"><ele>356.0</ele><time>2026-04-04T16:49:12Z</time></trkpt><trkpt lat="44.623540337516054" lon="10.322605966437926"><ele>356.0</ele><time>2026-04-04T16:49:13Z</time></trkpt><trkpt lat="44.623630059867644" lon="10.322660650977866"><ele>356.0</ele><time>2026-04-04T16:49:14Z</time></trkpt><trkpt lat="44.62370365615872" lon="10.322715986907756"><ele>356.0</ele><time>2026-04-04T16:49:15Z</time></trkpt><trkpt lat="44.62380611027431" lon="10.322780047566548"><ele>356.0</ele><time>2026-04-04T16:49:16Z</time></trkpt><trkpt lat="44.623905300558974" lon="10.322791330975905"><ele>356.0</ele><time>2026-04-04T16:49:17Z</time></trkpt><trkpt lat="44.62400916090454" lon="10.322796845025959"><ele>356.0</ele><time>2026-04-04T16:49:18Z</time></trkpt><trkpt lat="44.62411846486425" lon="10.322779762593072"><ele>356.0</ele><time>2026-04-04T16:49:19Z</time></trkpt><trkpt lat="44.62421438489157" lon="10.322755523422193"><ele>356.0</ele><time>2026-04-04T16:49:20Z</time></trkpt><trkpt lat="44.62428398576697" lon="10.32271915780514"><ele>356.0</ele><time>2026-04-04T16:49:21Z</time></trkpt><trkpt lat="44.62435478404623" lon="10.322691518557205"><ele>356.0</ele><time>2026-04-04T16:49:22Z</time></trkpt><trkpt lat="44.62445290143316" lon="10.322667972327476"><ele>356.0</ele><time>2026-04-04T16:49:23Z</time></trkpt><trkpt lat="44.624555783823304" lon="10.322680340065864"><ele>356.0</ele><time>2026-04-04T16:49:24Z</time></trkpt><trkpt lat="44.624663850000346" lon="10.32266021344999"><ele>356.0</ele><time>2026-04-04T16:49:25Z</time></trkpt><trkpt lat="44.62475964966082" lon="10.322669595610602"><ele>355.5</ele><time>2026-04-04T16:49:26Z</time></trkpt><trkpt lat="44.6248467620015" lon="10.322685358481525"><ele>355.0</ele><time>2026-04-04T16:49:27Z</time></trkpt><trkpt lat="44.62491236242673" lon="10.322714860013404"><ele>354.5</ele><time>2026-04-04T16:49:28Z</time></trkpt><trkpt lat="44.624978749728754" lon="10.322772125224542"><ele>354.0</ele><time>2026-04-04T16:49:29Z</time></trkpt><trkpt lat="44.62502562001142" lon="10.322852457881996"><ele>353.5</ele><time>2026-04-04T16:49:30Z</time></trkpt><trkpt lat="44.62506143219345" lon="10.3229550269217"><ele>353.0</ele><time>2026-04-04T16:49:31Z</time></trkpt><trkpt lat="44.625099245066735" lon="10.323069598340462"><ele>352.5</ele><time>2026-04-04T16:49:32Z</time></trkpt><trkpt lat="44.6251282312276" lon="10.323166642762112"><ele>352.0</ele><time>2026-04-04T16:49:33Z</time></trkpt><trkpt lat="44.62520514913331" lon="10.32322738978584"><ele>351.5</ele><time>2026-04-04T16:49:34Z</time></trkpt><trkpt lat="44.62527374599166" lon="10.32327266198548"><ele>351.0</ele><time>2026-04-04T16:49:35Z</time></trkpt><trkpt lat="44.62536057485867" lon="10.323339175528751"><ele>350.5</ele><time>2026-04-04T16:49:36Z</time></trkpt><trkpt lat="44.62543185699794" lon="10.323412306007796"><ele>350.0</ele><time>2026-04-04T16:49:37Z</time></trkpt><trkpt lat="44.62548277250747" lon="10.323510026456251"><ele>349.0</ele><time>2026-04-04T16:49:38Z</time></trkpt><trkpt lat="44.625521981412966" lon="10.32361733219763"><ele>348.0</ele><time>2026-04-04T16:49:39Z</time></trkpt><trkpt lat="44.625543995881486" lon="10.32373760404074"><ele>347.0</ele><time>2026-04-04T16:49:40Z</time></trkpt><trkpt lat="44.625565578475964" lon="10.32387939148171"><ele>346.0</ele><time>2026-04-04T16:49:41Z</time></trkpt><trkpt lat="44.62559786894969" lon="10.323994405759633"><ele>345.0</ele><time>2026-04-04T16:49:42Z</time></trkpt><trkpt lat="44.625647907293875" lon="10.324084702071596"><ele>344.0</ele><time>2026-04-04T16:49:43Z</time></trkpt><trkpt lat="44.6257151342579" lon="10.324149961704784"><ele>344.0</ele><time>2026-04-04T16:49:44Z</time></trkpt><trkpt lat="44.62579882627972" lon="10.324196814624617"><ele>344.0</ele><time>2026-04-04T16:49:45Z</time></trkpt><trkpt lat="44.625898013923056" lon="10.32421905105812"><ele>344.0</ele><time>2026-04-04T16:49:46Z</time></trkpt><trkpt lat="44.62597894193496" lon="10.324174010814142"><ele>344.0</ele><time>2026-04-04T16:49:47Z</time></trkpt><trkpt lat="44.62607475438261" lon="10.324181957410252"><ele>344.0</ele><time>2026-04-04T16:49:48Z</time></trkpt><trkpt lat="44.626162830546974" lon="10.324201077562961"><ele>342.2</ele><time>2026-04-04T16:49:49Z</time></trkpt><trkpt lat="44.62625809358335" lon="10.324237863492522"><ele>340.4</ele><time>2026-04-04T16:49:50Z</time></trkpt><trkpt lat="44.626355881094675" lon="10.324267130171963"><ele>338.6</ele><time>2026-04-04T16:49:51Z</time></trkpt><trkpt lat="44.626459832459524" lon="10.324258381025079"><ele>336.8</ele><time>2026-04-04T16:49:52Z</time></trkpt><trkpt lat="44.62658779631837" lon="10.324201138176681"><ele>335.0</ele><time>2026-04-04T16:49:53Z</time></trkpt><trkpt lat="44.62670543210134" lon="10.324223898908574"><ele>335.0</ele><time>2026-04-04T16:49:54Z</time></trkpt><trkpt lat="44.62680198569903" lon="10.324226638751488"><ele>335.0</ele><time>2026-04-04T16:49:55Z</time></trkpt><trkpt lat="44.62689087419181" lon="10.324222370966702"><ele>335.0</ele><time>2026-04-04T16:49:56Z</time></trkpt><trkpt lat="44.62699168033547" lon="10.324223677127758"><ele>335.0</ele><time>2026-04-04T16:49:57Z</time></trkpt><trkpt lat="44.62709042752962" lon="10.324251685126839"><ele>335.0</ele><time>2026-04-04T16:49:58Z</time></trkpt><trkpt lat="44.627195005829726" lon="10.324300520362128"><ele>334.2</ele><time>2026-04-04T16:49:59Z</time></trkpt><trkpt lat="44.6272937892009" lon="10.324359231827579"><ele>333.4</ele><time>2026-04-04T16:50:00Z</time></trkpt><trkpt lat="44.627378883459315" lon="10.324401877639021"><ele>332.6</ele><time>2026-04-04T16:50:01Z</time></trkpt><trkpt lat="44.62748217066537" lon="10.324420133315453"><ele>331.8</ele><time>2026-04-04T16:50:02Z</time></trkpt><trkpt lat="44.62758932826322" lon="10.324415678646954"><ele>331.0</ele><time>2026-04-04T16:50:03Z</time></trkpt><trkpt lat="44.627692375363075" lon="10.324403552820842"><ele>331.0</ele><time>2026-04-04T16:50:04Z</time></trkpt><trkpt lat="44.62778720005094" lon="10.324412595466836"><ele>331.0</ele><time>2026-04-04T16:50:05Z</time></trkpt><trkpt lat="44.62789765057045" lon="10.324441683963228"><ele>331.0</ele><time>2026-04-04T16:50:06Z</time></trkpt><trkpt lat="44.62798421795111" lon="10.324412100773964"><ele>331.0</ele><time>2026-04-04T16:50:07Z</time></trkpt><trkpt lat="44.62807703227411" lon="10.324368799933"><ele>331.0</ele><time>2026-04-04T16:50:08Z</time></trkpt><trkpt lat="44.62816113512554" lon="10.324303663891556"><ele>331.20000000000005</ele><time>2026-04-04T16:50:09Z</time></trkpt><trkpt lat="44.628233673575544" lon="10.324214344683025"><ele>331.40000000000003</ele><time>2026-04-04T16:50:10Z</time></trkpt><trkpt lat="44.62830942659537" lon="10.32409572728556"><ele>331.6</ele><time>2026-04-04T16:50:11Z</time></trkpt><trkpt lat="44.628370721337426" lon="10.323989610565459"><ele>331.8</ele><time>2026-04-04T16:50:12Z</time></trkpt><trkpt lat="44.62844199480129" lon="10.323916299358224"><ele>332.0</ele><time>2026-04-04T16:50:13Z</time></trkpt><trkpt lat="44.6284980486809" lon="10.323848118515224"><ele>331.5</ele><time>2026-04-04T16:50:14Z</time></trkpt><trkpt lat="44.62856490182933" lon="10.32379390193105"><ele>331.0</ele><time>2026-04-04T16:50:15Z</time></trkpt><trkpt lat="44.62865357642064" lon="10.323789195893228"><ele>330.5</ele><time>2026-04-04T16:50:16Z</time></trkpt><trkpt lat="44.628745146225086" lon="10.32380150286398"><ele>330.0</ele><time>2026-04-04T16:50:17Z</time></trkpt><trkpt lat="44.62884335764185" lon="10.32383941332484"><ele>329.5</ele><time>2026-04-04T16:50:18Z</time></trkpt><trkpt lat="44.628917129764176" lon="10.323894788329753"><ele>329.0</ele><time>2026-04-04T16:50:19Z</time></trkpt><trkpt lat="44.629004729460746" lon="10.323991905171578"><ele>329.0</ele><time>2026-04-04T16:50:20Z</time></trkpt><trkpt lat="44.62908453704937" lon="10.324015365890702"><ele>329.0</ele><time>2026-04-04T16:50:21Z</time></trkpt><trkpt lat="44.62917139783875" lon="10.324062393514144"><ele>329.0</ele><time>2026-04-04T16:50:22Z</time></trkpt><trkpt lat="44.62926083346161" lon="10.324101879671147"><ele>329.0</ele><time>2026-04-04T16:50:23Z</time></trkpt><trkpt lat="44.62934969073496" lon="10.32411386382485"><ele>329.0</ele><time>2026-04-04T16:50:24Z</time></trkpt><trkpt lat="44.62946897246469" lon="10.324146850840926"><ele>329.25</ele><time>2026-04-04T16:50:25Z</time></trkpt><trkpt lat="44.62959933433962" lon="10.324213110567431"><ele>329.5</ele><time>2026-04-04T16:50:26Z</time></trkpt><trkpt lat="44.62972097621486" lon="10.324266780301269"><ele>329.75</ele><time>2026-04-04T16:50:27Z</time></trkpt><trkpt lat="44.629864608684834" lon="10.32433891453885"><ele>330.0</ele><time>2026-04-04T16:50:28Z</time></trkpt><trkpt lat="44.62997970936409" lon="10.324405946349875"><ele>330.0</ele><time>2026-04-04T16:50:29Z</time></trkpt><trkpt lat="44.630083215817116" lon="10.324454797662654"><ele>330.0</ele><time>2026-04-04T16:50:30Z</time></trkpt><trkpt lat="44.63017853909857" lon="10.324475802327639"><ele>330.0</ele><time>2026-04-04T16:50:31Z</time></trkpt><trkpt lat="44.63026268213406" lon="10.324516271193419"><ele>330.0</ele><time>2026-04-04T16:50:32Z</time></trkpt><trkpt lat="44.630338527564334" lon="10.324551048376863"><ele>330.0</ele><time>2026-04-04T16:50:33Z</time></trkpt><trkpt lat="44.63044860533273" lon="10.324612620432715"><ele>330.1666666666667</ele><time>2026-04-04T16:50:34Z</time></trkpt><trkpt lat="44.63056060586366" lon="10.324658638623166"><ele>330.3333333333333</ele><time>2026-04-04T16:50:36Z</time></trkpt><trkpt lat="44.630627415806636" lon="10.324703357614656"><ele>330.5</ele><time>2026-04-04T16:50:40Z</time></trkpt><trkpt lat="44.63065560279652" lon="10.324597701410898"><ele>330.66666666666663</ele><time>2026-04-04T16:50:41Z</time></trkpt><trkpt lat="44.63067326062007" lon="10.324509952189743"><ele>330.8333333333333</ele><time>2026-04-04T16:50:42Z</time></trkpt><trkpt lat="44.63069275591515" lon="10.324398588519987"><ele>331.0</ele><time>2026-04-04T16:50:43Z</time></trkpt><trkpt lat="44.630719017195176" lon="10.32426151079753"><ele>331.0</ele><time>2026-04-04T16:50:44Z</time></trkpt><trkpt lat="44.630771575226376" lon="10.324124718750333"><ele>331.0</ele><time>2026-04-04T16:50:45Z</time></trkpt><trkpt lat="44.63081716657475" lon="10.323947465065567"><ele>331.0</ele><time>2026-04-04T16:50:46Z</time></trkpt><trkpt lat="44.630846879885" lon="10.323777875306774"><ele>331.0</ele><time>2026-04-04T16:50:47Z</time></trkpt><trkpt lat="44.63089424710008" lon="10.323595450307106"><ele>332.0</ele><time>2026-04-04T16:50:48Z</time></trkpt><trkpt lat="44.63094144621207" lon="10.3233946105187"><ele>333.0</ele><time>2026-04-04T16:50:49Z</time></trkpt><trkpt lat="44.6310248308037" lon="10.323203958473394"><ele>334.0</ele><time>2026-04-04T16:50:50Z</time></trkpt><trkpt lat="44.63109750836491" lon="10.323013892689778"><ele>337.25</ele><time>2026-04-04T16:50:51Z</time></trkpt><trkpt lat="44.63116263776736" lon="10.322853769356948"><ele>340.5</ele><time>2026-04-04T16:50:52Z</time></trkpt><trkpt lat="44.631230715175285" lon="10.322702751977426"><ele>343.75</ele><time>2026-04-04T16:50:53Z</time></trkpt><trkpt lat="44.631304465643986" lon="10.322553596755183"><ele>347.0</ele><time>2026-04-04T16:50:54Z</time></trkpt><trkpt lat="44.63136962114345" lon="10.322435967588913"><ele>347.0</ele><time>2026-04-04T16:50:55Z</time></trkpt><trkpt lat="44.631415403436854" lon="10.322339117445564"><ele>347.0</ele><time>2026-04-04T16:50:56Z</time></trkpt><trkpt lat="44.63145269214367" lon="10.322213559721636"><ele>347.0</ele><time>2026-04-04T16:50:57Z</time></trkpt><trkpt lat="44.631467865950654" lon="10.322075346916243"><ele>347.0</ele><time>2026-04-04T16:50:58Z</time></trkpt><trkpt lat="44.631470427388805" lon="10.321956936952777"><ele>347.0</ele><time>2026-04-04T16:50:59Z</time></trkpt><trkpt lat="44.631483486818084" lon="10.321855089953793"><ele>347.0</ele><time>2026-04-04T16:51:00Z</time></trkpt><trkpt lat="44.631507747568655" lon="10.321759115070448"><ele>346.6</ele><time>2026-04-04T16:51:01Z</time></trkpt><trkpt lat="44.631569739522206" lon="10.321704804619044"><ele>346.20000000000005</ele><time>2026-04-04T16:51:02Z</time></trkpt><trkpt lat="44.63163613636947" lon="10.321636415197535"><ele>345.8</ele><time>2026-04-04T16:51:04Z</time></trkpt><trkpt lat="44.63165566930004" lon="10.321454465195819"><ele>345.4</ele><time>2026-04-04T16:51:08Z</time></trkpt><trkpt lat="44.63160731050717" lon="10.321323506368849"><ele>345.0</ele><time>2026-04-04T16:51:10Z</time></trkpt><trkpt lat="44.63157700716873" lon="10.321203059409862"><ele>343.8333333333333</ele><time>2026-04-04T16:51:12Z</time></trkpt><trkpt lat="44.631547705772114" lon="10.321096083261251"><ele>342.6666666666667</ele><time>2026-04-04T16:51:14Z</time></trkpt><trkpt lat="44.631558929709875" lon="10.32097598521897"><ele>341.5</ele><time>2026-04-04T16:51:16.001Z</time></trkpt><trkpt lat="44.63156363907727" lon="10.320860526230106"><ele>340.33333333333337</ele><time>2026-04-04T16:51:18.001Z</time></trkpt><trkpt lat="44.631569950896946" lon="10.320739023610406"><ele>339.1666666666667</ele><time>2026-04-04T16:51:20Z</time></trkpt><trkpt lat="44.631576325775214" lon="10.320631751454194"><ele>338.0</ele><time>2026-04-04T16:51:21Z</time></trkpt><trkpt lat="44.63158526335988" lon="10.320505135726108"><ele>336.33333333333337</ele><time>2026-04-04T16:51:22Z</time></trkpt><trkpt lat="44.63159515452652" lon="10.320365010936362"><ele>334.6666666666667</ele><time>2026-04-04T16:51:23Z</time></trkpt><trkpt lat="44.6316040203178" lon="10.320239412223266"><ele>333.0</ele><time>2026-04-04T16:51:24Z</time></trkpt><trkpt lat="44.63161282485527" lon="10.320114681387672"><ele>331.3333333333333</ele><time>2026-04-04T16:51:25Z</time></trkpt><trkpt lat="44.63162110326041" lon="10.319997403959631"><ele>329.66666666666663</ele><time>2026-04-04T16:51:26Z</time></trkpt><trkpt lat="44.63162794628248" lon="10.319898165874841"><ele>328.0</ele><time>2026-04-04T16:51:27Z</time></trkpt><trkpt lat="44.63161963458824" lon="10.319792635776249"><ele>326.4</ele><time>2026-04-04T16:51:28Z</time></trkpt><trkpt lat="44.63162609305562" lon="10.319681085403777"><ele>324.79999999999995</ele><time>2026-04-04T16:51:29Z</time></trkpt><trkpt lat="44.6316334472746" lon="10.319581892150639"><ele>323.2</ele><time>2026-04-04T16:51:30Z</time></trkpt><trkpt lat="44.63165393902264" lon="10.319428527497216"><ele>321.6</ele><time>2026-04-04T16:51:32Z</time></trkpt><trkpt lat="44.63168325447576" lon="10.319281669061857"><ele>320.0</ele><time>2026-04-04T16:51:34Z</time></trkpt><trkpt lat="44.63174419807422" lon="10.319198530460616"><ele>320.0</ele><time>2026-04-04T16:51:35Z</time></trkpt><trkpt lat="44.631803939685796" lon="10.319084891338658"><ele>320.0</ele><time>2026-04-04T16:51:36Z</time></trkpt><trkpt lat="44.631879245236966" lon="10.318935724106467"><ele>320.0</ele><time>2026-04-04T16:51:38Z</time></trkpt><trkpt lat="44.6319122157427" lon="10.318858996230544"><ele>320.0</ele><time>2026-04-04T16:51:39Z</time></trkpt><trkpt lat="44.63197223654256" lon="10.318701335222478"><ele>320.0</ele><time>2026-04-04T16:51:41Z</time></trkpt><trkpt lat="44.63200976542029" lon="10.318537984746573"><ele>318.1666666666667</ele><time>2026-04-04T16:51:43Z</time></trkpt><trkpt lat="44.63198464074043" lon="10.318371957659934"><ele>316.33333333333337</ele><time>2026-04-04T16:51:45Z</time></trkpt><trkpt lat="44.631960972905276" lon="10.318270403276514"><ele>314.5</ele><time>2026-04-04T16:51:46Z</time></trkpt><trkpt lat="44.63194617899944" lon="10.318158654706364"><ele>312.6666666666667</ele><time>2026-04-04T16:51:47Z</time></trkpt><trkpt lat="44.631928040132465" lon="10.31805780883246"><ele>310.8333333333333</ele><time>2026-04-04T16:51:48Z</time></trkpt><trkpt lat="44.631898044193214" lon="10.317935755831792"><ele>309.0</ele><time>2026-04-04T16:51:49Z</time></trkpt><trkpt lat="44.631855421087515" lon="10.317810261181508"><ele>308.6666666666667</ele><time>2026-04-04T16:51:50Z</time></trkpt><trkpt lat="44.631819014365675" lon="10.317702955593012"><ele>308.3333333333333</ele><time>2026-04-04T16:51:51Z</time></trkpt><trkpt lat="44.63178922407722" lon="10.31758759633117"><ele>308.0</ele><time>2026-04-04T16:51:52Z</time></trkpt><trkpt lat="44.631770716688344" lon="10.31747782560839"><ele>307.66666666666663</ele><time>2026-04-04T16:51:53Z</time></trkpt><trkpt lat="44.6317711446703" lon="10.317367202730296"><ele>307.3333333333333</ele><time>2026-04-04T16:51:54Z</time></trkpt><trkpt lat="44.63178662693674" lon="10.31726363811127"><ele>307.0</ele><time>2026-04-04T16:51:55Z</time></trkpt><trkpt lat="44.63177546090774" lon="10.31709889615086"><ele>307.0</ele><time>2026-04-04T16:51:57Z</time></trkpt><trkpt lat="44.631736234209605" lon="10.316984904323053"><ele>307.0</ele><time>2026-04-04T16:51:58Z</time></trkpt><trkpt lat="44.63169361704604" lon="10.316878450000166"><ele>307.0</ele><time>2026-04-04T16:51:59Z</time></trkpt><trkpt lat="44.63166434113187" lon="10.316799850017006"><ele>307.0</ele><time>2026-04-04T16:52:00Z</time></trkpt><trkpt lat="44.63160347631268" lon="10.316643649630462"><ele>307.0</ele><time>2026-04-04T16:52:02Z</time></trkpt><trkpt lat="44.63159433761364" lon="10.316513917972497"><ele>307.0</ele><time>2026-04-04T16:52:04Z</time></trkpt><trkpt lat="44.63166055829605" lon="10.316417330079148"><ele>307.0</ele><time>2026-04-04T16:52:06Z</time></trkpt><trkpt lat="44.63173787172128" lon="10.316294080411438"><ele>307.0</ele><time>2026-04-04T16:52:08Z</time></trkpt><trkpt lat="44.6318343627718" lon="10.316187427395567"><ele>307.0</ele><time>2026-04-04T16:52:10Z</time></trkpt><trkpt lat="44.63190210481925" lon="10.316132483319446"><ele>307.0</ele><time>2026-04-04T16:52:11Z</time></trkpt><trkpt lat="44.631973074781946" lon="10.316086177844394"><ele>305.66666666666663</ele><time>2026-04-04T16:52:12Z</time></trkpt><trkpt lat="44.632046841682445" lon="10.31604990293305"><ele>304.3333333333333</ele><time>2026-04-04T16:52:13Z</time></trkpt><trkpt lat="44.63212073210752" lon="10.316018984186602"><ele>303.0</ele><time>2026-04-04T16:52:14Z</time></trkpt><trkpt lat="44.63218514444097" lon="10.315986420252095"><ele>301.6666666666667</ele><time>2026-04-04T16:52:15Z</time></trkpt><trkpt lat="44.63226238488572" lon="10.315941396330771"><ele>300.33333333333337</ele><time>2026-04-04T16:52:16Z</time></trkpt><trkpt lat="44.63232639548926" lon="10.315893265690118"><ele>299.0</ele><time>2026-04-04T16:52:17Z</time></trkpt><trkpt lat="44.63238991666061" lon="10.315843142412382"><ele>299.0</ele><time>2026-04-04T16:52:18Z</time></trkpt><trkpt lat="44.6324296055344" lon="10.31574921275795"><ele>299.0</ele><time>2026-04-04T16:52:19Z</time></trkpt><trkpt lat="44.63248744057284" lon="10.315640885728374"><ele>299.0</ele><time>2026-04-04T16:52:20Z</time></trkpt><trkpt lat="44.63254459997118" lon="10.315524609373977"><ele>299.0</ele><time>2026-04-04T16:52:21Z</time></trkpt><trkpt lat="44.63257817124374" lon="10.31540181879993"><ele>299.0</ele><time>2026-04-04T16:52:22Z</time></trkpt><trkpt lat="44.632609183404874" lon="10.315282613252323"><ele>299.4</ele><time>2026-04-04T16:52:23Z</time></trkpt><trkpt lat="44.63264782547666" lon="10.315165936094884"><ele>299.79999999999995</ele><time>2026-04-04T16:52:24Z</time></trkpt><trkpt lat="44.632701686578564" lon="10.315077452341844"><ele>300.20000000000005</ele><time>2026-04-04T16:52:25Z</time></trkpt><trkpt lat="44.63276702221406" lon="10.314961038213994"><ele>300.6</ele><time>2026-04-04T16:52:26Z</time></trkpt><trkpt lat="44.63281487738786" lon="10.31484318535555"><ele>301.0</ele><time>2026-04-04T16:52:27Z</time></trkpt><trkpt lat="44.632852013289934" lon="10.314715467488"><ele>301.0</ele><time>2026-04-04T16:52:28Z</time></trkpt><trkpt lat="44.63287428928265" lon="10.31459207760551"><ele>301.0</ele><time>2026-04-04T16:52:29Z</time></trkpt><trkpt lat="44.632892405033274" lon="10.314482293024387"><ele>301.0</ele><time>2026-04-04T16:52:30Z</time></trkpt><trkpt lat="44.632909835187014" lon="10.314369795732699"><ele>301.0</ele><time>2026-04-04T16:52:31Z</time></trkpt><trkpt lat="44.632928992917144" lon="10.314265681567996"><ele>301.0</ele><time>2026-04-04T16:52:32Z</time></trkpt><trkpt lat="44.63294743530196" lon="10.314179612295824"><ele>301.0</ele><time>2026-04-04T16:52:33Z</time></trkpt><trkpt lat="44.63297624359484" lon="10.314080838728524"><ele>301.0</ele><time>2026-04-04T16:52:34Z</time></trkpt><trkpt lat="44.632998904703506" lon="10.313991967697792"><ele>301.0</ele><time>2026-04-04T16:52:35Z</time></trkpt><trkpt lat="44.63301769913396" lon="10.313883287050873"><ele>301.0</ele><time>2026-04-04T16:52:36Z</time></trkpt><trkpt lat="44.63303353281556" lon="10.313784001071578"><ele>301.0</ele><time>2026-04-04T16:52:37Z</time></trkpt><trkpt lat="44.633053506062474" lon="10.313661903872843"><ele>301.0</ele><time>2026-04-04T16:52:38Z</time></trkpt><trkpt lat="44.633068314227856" lon="10.313538301563883"><ele>301.0</ele><time>2026-04-04T16:52:39Z</time></trkpt><trkpt lat="44.63307396339233" lon="10.313422990137967"><ele>300.3333333333333</ele><time>2026-04-04T16:52:40Z</time></trkpt><trkpt lat="44.63307725913287" lon="10.313290660320783"><ele>299.66666666666663</ele><time>2026-04-04T16:52:41Z</time></trkpt><trkpt lat="44.633080716311454" lon="10.313165844908115"><ele>299.0</ele><time>2026-04-04T16:52:42Z</time></trkpt><trkpt lat="44.633086309821955" lon="10.313041014795024"><ele>298.3333333333333</ele><time>2026-04-04T16:52:43Z</time></trkpt><trkpt lat="44.63309621335731" lon="10.312931769492062"><ele>297.6666666666667</ele><time>2026-04-04T16:52:44Z</time></trkpt><trkpt lat="44.633116566850816" lon="10.312833573114597"><ele>297.0</ele><time>2026-04-04T16:52:45Z</time></trkpt><trkpt lat="44.63313952687058" lon="10.312747080031288"><ele>297.0</ele><time>2026-04-04T16:52:46Z</time></trkpt><trkpt lat="44.63318171528309" lon="10.31258691003593"><ele>297.0</ele><time>2026-04-04T16:52:48Z</time></trkpt><trkpt lat="44.633234666147516" lon="10.312417408757012"><ele>297.0</ele><time>2026-04-04T16:52:50Z</time></trkpt><trkpt lat="44.63329315811155" lon="10.312269851710044"><ele>297.0</ele><time>2026-04-04T16:52:52Z</time></trkpt><trkpt lat="44.63333389549845" lon="10.312186882829826"><ele>297.0</ele><time>2026-04-04T16:52:53Z</time></trkpt><trkpt lat="44.63337752069573" lon="10.31210353703465"><ele>296.0</ele><time>2026-04-04T16:52:54Z</time></trkpt><trkpt lat="44.63342438267166" lon="10.312027789054952"><ele>295.0</ele><time>2026-04-04T16:52:55Z</time></trkpt><trkpt lat="44.633476267664264" lon="10.3119692875505"><ele>294.0</ele><time>2026-04-04T16:52:56Z</time></trkpt><trkpt lat="44.63353356344541" lon="10.311914109518487"><ele>293.0</ele><time>2026-04-04T16:52:57Z</time></trkpt><trkpt lat="44.633586652465866" lon="10.311849014723531"><ele>292.0</ele><time>2026-04-04T16:52:58Z</time></trkpt><trkpt lat="44.63364261341817" lon="10.311772665709519"><ele>291.0</ele><time>2026-04-04T16:52:59Z</time></trkpt><trkpt lat="44.63369117550438" lon="10.311691202562097"><ele>290.0</ele><time>2026-04-04T16:53:00Z</time></trkpt><trkpt lat="44.63373509484337" lon="10.311621802653846"><ele>290.0</ele><time>2026-04-04T16:53:01Z</time></trkpt><trkpt lat="44.63382913938653" lon="10.31152194137148"><ele>290.0</ele><time>2026-04-04T16:53:03Z</time></trkpt><trkpt lat="44.63394064194179" lon="10.31145614502285"><ele>290.0</ele><time>2026-04-04T16:53:05Z</time></trkpt><trkpt lat="44.6340017684112" lon="10.311420796060462"><ele>290.0</ele><time>2026-04-04T16:53:06Z</time></trkpt><trkpt lat="44.63412109599534" lon="10.311370385539472"><ele>290.0</ele><time>2026-04-04T16:53:08Z</time></trkpt><trkpt lat="44.63424030304604" lon="10.311383361643395"><ele>290.0</ele><time>2026-04-04T16:53:10Z</time></trkpt><trkpt lat="44.634323978065034" lon="10.311414532661798"><ele>290.0</ele><time>2026-04-04T16:53:12Z</time></trkpt><trkpt lat="44.63443571889804" lon="10.311442969400463"><ele>290.0</ele><time>2026-04-04T16:53:14Z</time></trkpt><trkpt lat="44.63451366563529" lon="10.311495804614115"><ele>290.0</ele><time>2026-04-04T16:53:16Z</time></trkpt><trkpt lat="44.63461849416457" lon="10.311531261175762"><ele>290.0</ele><time>2026-04-04T16:53:18Z</time></trkpt><trkpt lat="44.63468626115102" lon="10.311551681871478"><ele>286.8</ele><time>2026-04-04T16:53:20Z</time></trkpt><trkpt lat="44.63478069753229" lon="10.311622885827568"><ele>283.6</ele><time>2026-04-04T16:53:22Z</time></trkpt><trkpt lat="44.63484103061683" lon="10.31165821753588"><ele>280.4</ele><time>2026-04-04T16:53:23Z</time></trkpt><trkpt lat="44.634925616027196" lon="10.311733365000487"><ele>277.2</ele><time>2026-04-04T16:53:24Z</time></trkpt><trkpt lat="44.63504027761011" lon="10.31179763044509"><ele>274.0</ele><time>2026-04-04T16:53:26Z</time></trkpt><trkpt lat="44.635135443194095" lon="10.31185312196165"><ele>274.0</ele><time>2026-04-04T16:53:28Z</time></trkpt><trkpt lat="44.63526795701876" lon="10.311977403236071"><ele>274.0</ele><time>2026-04-04T16:53:30Z</time></trkpt><trkpt lat="44.63534924375302" lon="10.312008022935409"><ele>274.0</ele><time>2026-04-04T16:53:32Z</time></trkpt><trkpt lat="44.635462216993574" lon="10.312027087982775"><ele>274.0</ele><time>2026-04-04T16:53:34Z</time></trkpt><trkpt lat="44.63554327921156" lon="10.312030532401893"><ele>274.0</ele><time>2026-04-04T16:53:36Z</time></trkpt><trkpt lat="44.63567811481262" lon="10.312137351977329"><ele>270.59999999999997</ele><time>2026-04-04T16:53:38Z</time></trkpt><trkpt lat="44.6357486299215" lon="10.312181907389638"><ele>267.2</ele><time>2026-04-04T16:53:40Z</time></trkpt><trkpt lat="44.63583056511191" lon="10.312280441206543"><ele>263.79999999999995</ele><time>2026-04-04T16:53:42Z</time></trkpt><trkpt lat="44.63590876658572" lon="10.312369509497524"><ele>260.4</ele><time>2026-04-04T16:53:44Z</time></trkpt><trkpt lat="44.635996777294196" lon="10.312420551690806"><ele>257.0</ele><time>2026-04-04T16:53:46Z</time></trkpt><trkpt lat="44.63609851541692" lon="10.312426014020215"><ele>253.6</ele><time>2026-04-04T16:53:48Z</time></trkpt><trkpt lat="44.63618069605394" lon="10.312398769440836"><ele>250.2</ele><time>2026-04-04T16:53:50Z</time></trkpt><trkpt lat="44.63623484139421" lon="10.31230304608141"><ele>246.8</ele><time>2026-04-04T16:53:53Z</time></trkpt><trkpt lat="44.63629594743005" lon="10.312189217456"><ele>243.4</ele><time>2026-04-04T16:53:55Z</time></trkpt><trkpt lat="44.63635189783833" lon="10.312101034825835"><ele>240.0</ele><time>2026-04-04T16:53:57Z</time></trkpt><trkpt lat="44.63641061046788" lon="10.311998496524525"><ele>240.0</ele><time>2026-04-04T16:53:59Z</time></trkpt><trkpt lat="44.63648329549045" lon="10.311899642209971"><ele>240.0</ele><time>2026-04-04T16:54:01Z</time></trkpt><trkpt lat="44.63656833013361" lon="10.311777548006349"><ele>240.0</ele><time>2026-04-04T16:54:03Z</time></trkpt><trkpt lat="44.636612277899495" lon="10.311705055788126"><ele>240.0</ele><time>2026-04-04T16:54:04Z</time></trkpt><trkpt lat="44.63668109903907" lon="10.311591874187094"><ele>240.0</ele><time>2026-04-04T16:54:06Z</time></trkpt><trkpt lat="44.63673722214711" lon="10.311487121954555"><ele>239.0</ele><time>2026-04-04T16:54:08Z</time></trkpt><trkpt lat="44.63679694705565" lon="10.3113773172188"><ele>238.0</ele><time>2026-04-04T16:54:10Z</time></trkpt><trkpt lat="44.63686748763952" lon="10.311270788137843"><ele>237.0</ele><time>2026-04-04T16:54:12Z</time></trkpt><trkpt lat="44.636946951523115" lon="10.311157526150108"><ele>236.0</ele><time>2026-04-04T16:54:14Z</time></trkpt><trkpt lat="44.63704298606668" lon="10.31104997854863"><ele>235.0</ele><time>2026-04-04T16:54:16Z</time></trkpt><trkpt lat="44.63709306918974" lon="10.310975786634735"><ele>233.16666666666666</ele><time>2026-04-04T16:54:18Z</time></trkpt><trkpt lat="44.637139643755326" lon="10.31091505418235"><ele>231.33333333333331</ele><time>2026-04-04T16:54:20Z</time></trkpt><trkpt lat="44.63718531162863" lon="10.310791909670646"><ele>229.5</ele><time>2026-04-04T16:54:23Z</time></trkpt><trkpt lat="44.637245639819966" lon="10.310760091917873"><ele>227.66666666666669</ele><time>2026-04-04T16:54:26Z</time></trkpt><trkpt lat="44.63734213394096" lon="10.31077685697517"><ele>225.83333333333334</ele><time>2026-04-04T16:54:29Z</time></trkpt><trkpt lat="44.63736846266389" lon="10.31087764742217"><ele>224.0</ele><time>2026-04-04T16:54:32Z</time></trkpt><trkpt lat="44.6374055518591" lon="10.31097361610665"><ele>224.00000000000003</ele><time>2026-04-04T16:54:47Z</time></trkpt><trkpt lat="44.63742703089668" lon="10.311057220188932"><ele>224.0</ele><time>2026-04-04T16:54:48Z</time></trkpt><trkpt lat="44.637460406215176" lon="10.311209902271466"><ele>224.0</ele><time>2026-04-04T16:54:50Z</time></trkpt><trkpt lat="44.63747735337662" lon="10.311299556434355"><ele>224.0</ele><time>2026-04-04T16:54:51Z</time></trkpt><trkpt lat="44.63749999718705" lon="10.311392085776019"><ele>224.00000000000003</ele><time>2026-04-04T16:54:52Z</time></trkpt><trkpt lat="44.63750718509998" lon="10.31149597559266"><ele>224.0</ele><time>2026-04-04T16:54:53Z</time></trkpt><trkpt lat="44.637531157255694" lon="10.311614787544356"><ele>224.00000000000003</ele><time>2026-04-04T16:54:54Z</time></trkpt><trkpt lat="44.637551539242196" lon="10.311717971776995"><ele>224.0</ele><time>2026-04-04T16:54:55Z</time></trkpt><trkpt lat="44.63757712559576" lon="10.311806675319843"><ele>224.0</ele><time>2026-04-04T16:54:56Z</time></trkpt><trkpt lat="44.637609009005246" lon="10.31191614938666"><ele>224.0</ele><time>2026-04-04T16:54:57Z</time></trkpt><trkpt lat="44.63763739078723" lon="10.312041157842135"><ele>224.00000000000003</ele><time>2026-04-04T16:54:58Z</time></trkpt><trkpt lat="44.63764334664864" lon="10.31217317197447"><ele>224.0</ele><time>2026-04-04T16:54:59Z</time></trkpt><trkpt lat="44.637655869395196" lon="10.312304613901663"><ele>224.00000000000003</ele><time>2026-04-04T16:55:00Z</time></trkpt><trkpt lat="44.637675773338984" lon="10.312417009500363"><ele>224.0</ele><time>2026-04-04T16:55:01Z</time></trkpt><trkpt lat="44.63770647370292" lon="10.312524988792092"><ele>224.0</ele><time>2026-04-04T16:55:02Z</time></trkpt><trkpt lat="44.63774491971028" lon="10.312629848117066"><ele>224.0</ele><time>2026-04-04T16:55:03Z</time></trkpt><trkpt lat="44.63779500405422" lon="10.31274242321503"><ele>224.00000000000003</ele><time>2026-04-04T16:55:04Z</time></trkpt><trkpt lat="44.63784030782115" lon="10.312845995520162"><ele>224.0</ele><time>2026-04-04T16:55:05Z</time></trkpt><trkpt lat="44.63789428882704" lon="10.312970061910198"><ele>223.79999999999998</ele><time>2026-04-04T16:55:06Z</time></trkpt><trkpt lat="44.63793742811076" lon="10.313063913587156"><ele>223.59999999999997</ele><time>2026-04-04T16:55:07Z</time></trkpt><trkpt lat="44.63800148333254" lon="10.313175043892818"><ele>223.4</ele><time>2026-04-04T16:55:08Z</time></trkpt><trkpt lat="44.63804444559436" lon="10.313275824867434"><ele>223.2</ele><time>2026-04-04T16:55:09Z</time></trkpt><trkpt lat="44.63810292775719" lon="10.313409954038676"><ele>223.0</ele><time>2026-04-04T16:55:10Z</time></trkpt><trkpt lat="44.63815504192779" lon="10.313515965946353"><ele>223.0</ele><time>2026-04-04T16:55:11Z</time></trkpt><trkpt lat="44.6382125673288" lon="10.313602022862934"><ele>223.0</ele><time>2026-04-04T16:55:12Z</time></trkpt><trkpt lat="44.638272370378914" lon="10.313691645407642"><ele>223.0</ele><time>2026-04-04T16:55:13Z</time></trkpt><trkpt lat="44.63836238141613" lon="10.313788498908396"><ele>223.0</ele><time>2026-04-04T16:55:15Z</time></trkpt><trkpt lat="44.63845035824597" lon="10.313818796226878"><ele>223.0</ele><time>2026-04-04T16:55:17Z</time></trkpt><trkpt lat="44.638566042105516" lon="10.313688822152445"><ele>223.0</ele><time>2026-04-04T16:55:19Z</time></trkpt><trkpt lat="44.638570021594035" lon="10.313563318455659"><ele>223.0</ele><time>2026-04-04T16:55:20Z</time></trkpt><trkpt lat="44.63858750454663" lon="10.313402934030265"><ele>223.0</ele><time>2026-04-04T16:55:21Z</time></trkpt><trkpt lat="44.638597103376306" lon="10.31323984273399"><ele>223.0</ele><time>2026-04-04T16:55:22Z</time></trkpt><trkpt lat="44.63860676858321" lon="10.313067218385335"><ele>223.0</ele><time>2026-04-04T16:55:23Z</time></trkpt><trkpt lat="44.63859395879406" lon="10.312885241232202"><ele>224.5</ele><time>2026-04-04T16:55:24Z</time></trkpt><trkpt lat="44.63855050114564" lon="10.312702121590993"><ele>226.0</ele><time>2026-04-04T16:55:25Z</time></trkpt><trkpt lat="44.63849567578147" lon="10.312515881085586"><ele>227.5</ele><time>2026-04-04T16:55:26Z</time></trkpt><trkpt lat="44.638447809681395" lon="10.312327340002602"><ele>229.0</ele><time>2026-04-04T16:55:27Z</time></trkpt><trkpt lat="44.638394740392314" lon="10.312181704991392"><ele>229.66666666666666</ele><time>2026-04-04T16:55:28Z</time></trkpt><trkpt lat="44.638342482855045" lon="10.312057755364524"><ele>230.33333333333331</ele><time>2026-04-04T16:55:29Z</time></trkpt><trkpt lat="44.63831122002939" lon="10.311945412894962"><ele>231.0</ele><time>2026-04-04T16:55:30Z</time></trkpt><trkpt lat="44.63831897473101" lon="10.311843057315716"><ele>231.66666666666669</ele><time>2026-04-04T16:55:31Z</time></trkpt><trkpt lat="44.638355069645485" lon="10.311741277983932"><ele>232.33333333333334</ele><time>2026-04-04T16:55:32Z</time></trkpt><trkpt lat="44.638414649141666" lon="10.311626515332373"><ele>233.0</ele><time>2026-04-04T16:55:33Z</time></trkpt><trkpt lat="44.63846556010845" lon="10.311527332603625"><ele>233.00000000000003</ele><time>2026-04-04T16:55:34Z</time></trkpt><trkpt lat="44.638567496100556" lon="10.31145221869908"><ele>233.0</ele><time>2026-04-04T16:55:36Z</time></trkpt><trkpt lat="44.63863058669107" lon="10.311480084898662"><ele>233.0</ele><time>2026-04-04T16:55:37Z</time></trkpt><trkpt lat="44.638682592854" lon="10.311556572049057"><ele>233.0</ele><time>2026-04-04T16:55:38Z</time></trkpt><trkpt lat="44.63871049446691" lon="10.311669009535441"><ele>233.00000000000003</ele><time>2026-04-04T16:55:39Z</time></trkpt><trkpt lat="44.63871781980889" lon="10.311809205826872"><ele>233.0</ele><time>2026-04-04T16:55:40Z</time></trkpt><trkpt lat="44.63870270658266" lon="10.31194433890672"><ele>236.00000000000003</ele><time>2026-04-04T16:55:41Z</time></trkpt><trkpt lat="44.638699566696204" lon="10.31204701927556"><ele>239.0</ele><time>2026-04-04T16:55:42Z</time></trkpt><trkpt lat="44.63878914069078" lon="10.312114571541075"><ele>242.0</ele><time>2026-04-04T16:55:44Z</time></trkpt><trkpt lat="44.63885681393761" lon="10.31208500088821"><ele>245.0</ele><time>2026-04-04T16:55:45Z</time></trkpt><trkpt lat="44.638909761191854" lon="10.311999989468628"><ele>248.00000000000003</ele><time>2026-04-04T16:55:46Z</time></trkpt><trkpt lat="44.63896018319202" lon="10.311879306755268"><ele>251.0</ele><time>2026-04-04T16:55:47Z</time></trkpt><trkpt lat="44.63901539783764" lon="10.311732331754994"><ele>251.0</ele><time>2026-04-04T16:55:48Z</time></trkpt><trkpt lat="44.63906447921928" lon="10.311555152894098"><ele>251.0</ele><time>2026-04-04T16:55:49Z</time></trkpt><trkpt lat="44.63911689646009" lon="10.311355712176956"><ele>251.0</ele><time>2026-04-04T16:55:50Z</time></trkpt><trkpt lat="44.639173973579844" lon="10.311146245306846"><ele>251.0</ele><time>2026-04-04T16:55:51Z</time></trkpt><trkpt lat="44.639241148324615" lon="10.310936097215558"><ele>251.0</ele><time>2026-04-04T16:55:52Z</time></trkpt><trkpt lat="44.63933070992225" lon="10.310719028645199"><ele>251.0</ele><time>2026-04-04T16:55:53Z</time></trkpt><trkpt lat="44.6394092077295" lon="10.31050264020502"><ele>251.0</ele><time>2026-04-04T16:55:54Z</time></trkpt><trkpt lat="44.63948369650982" lon="10.31028010924483"><ele>255.66666666666669</ele><time>2026-04-04T16:55:55Z</time></trkpt><trkpt lat="44.63954883178065" lon="10.310059234346173"><ele>260.3333333333333</ele><time>2026-04-04T16:55:56Z</time></trkpt><trkpt lat="44.63960953016624" lon="10.309851118143637"><ele>265.0</ele><time>2026-04-04T16:55:57Z</time></trkpt><trkpt lat="44.63967023367747" lon="10.309656869035715"><ele>265.0</ele><time>2026-04-04T16:55:58Z</time></trkpt><trkpt lat="44.63974243348173" lon="10.309466541825314"><ele>265.0</ele><time>2026-04-04T16:55:59Z</time></trkpt><trkpt lat="44.63983694496268" lon="10.309292493875951"><ele>265.0</ele><time>2026-04-04T16:56:00Z</time></trkpt><trkpt lat="44.63996737999569" lon="10.309146492096819"><ele>265.0</ele><time>2026-04-04T16:56:01Z</time></trkpt><trkpt lat="44.64009529986804" lon="10.309002883492733"><ele>265.0</ele><time>2026-04-04T16:56:02Z</time></trkpt><trkpt lat="44.64021210616874" lon="10.3088868748663"><ele>265.0</ele><time>2026-04-04T16:56:03Z</time></trkpt><trkpt lat="44.640307984149295" lon="10.30877172843231"><ele>265.0</ele><time>2026-04-04T16:56:04Z</time></trkpt><trkpt lat="44.64037617030086" lon="10.3086530291808"><ele>268.2</ele><time>2026-04-04T16:56:05Z</time></trkpt><trkpt lat="44.64040985911293" lon="10.308525402258455"><ele>271.4</ele><time>2026-04-04T16:56:06Z</time></trkpt><trkpt lat="44.64039875421356" lon="10.308396962438325"><ele>274.6</ele><time>2026-04-04T16:56:07Z</time></trkpt><trkpt lat="44.64043720738521" lon="10.308247861810228"><ele>277.8</ele><time>2026-04-04T16:56:09Z</time></trkpt><trkpt lat="44.64057662961388" lon="10.308251679555719"><ele>281.0</ele><time>2026-04-04T16:56:11Z</time></trkpt><trkpt lat="44.64067248851558" lon="10.308280249816017"><ele>281.0</ele><time>2026-04-04T16:56:12Z</time></trkpt><trkpt lat="44.6407847306775" lon="10.30826254912078"><ele>281.0</ele><time>2026-04-04T16:56:13Z</time></trkpt><trkpt lat="44.64090174834528" lon="10.30822305673347"><ele>281.0</ele><time>2026-04-04T16:56:14Z</time></trkpt><trkpt lat="44.64102755487057" lon="10.308177816411948"><ele>281.0</ele><time>2026-04-04T16:56:15Z</time></trkpt><trkpt lat="44.641157731598156" lon="10.308157344660518"><ele>284.0</ele><time>2026-04-04T16:56:16Z</time></trkpt><trkpt lat="44.64129521487021" lon="10.308193195942819"><ele>287.0</ele><time>2026-04-04T16:56:17Z</time></trkpt><trkpt lat="44.6414343741605" lon="10.308259731180573"><ele>290.0</ele><time>2026-04-04T16:56:18Z</time></trkpt><trkpt lat="44.64157925636434" lon="10.308347533276232"><ele>293.0</ele><time>2026-04-04T16:56:19Z</time></trkpt><trkpt lat="44.64171970881045" lon="10.308424747979663"><ele>293.0</ele><time>2026-04-04T16:56:20Z</time></trkpt><trkpt lat="44.64184268295163" lon="10.308488261104456"><ele>293.0</ele><time>2026-04-04T16:56:21Z</time></trkpt><trkpt lat="44.64194240695488" lon="10.308528535875794"><ele>293.0</ele><time>2026-04-04T16:56:22Z</time></trkpt><trkpt lat="44.64202898720629" lon="10.308529082921918"><ele>293.0</ele><time>2026-04-04T16:56:23Z</time></trkpt><trkpt lat="44.64211260082214" lon="10.308481228120945"><ele>293.0</ele><time>2026-04-04T16:56:24Z</time></trkpt><trkpt lat="44.64217954389222" lon="10.308407854243933"><ele>294.4</ele><time>2026-04-04T16:56:25Z</time></trkpt><trkpt lat="44.642279465012045" lon="10.308373722687875"><ele>295.8</ele><time>2026-04-04T16:56:27Z</time></trkpt><trkpt lat="44.64237282148091" lon="10.308500124521853"><ele>297.2</ele><time>2026-04-04T16:56:29Z</time></trkpt><trkpt lat="44.64242396592764" lon="10.308613942440768"><ele>298.6</ele><time>2026-04-04T16:56:30Z</time></trkpt><trkpt lat="44.642483368657935" lon="10.308745929554947"><ele>300.0</ele><time>2026-04-04T16:56:31Z</time></trkpt><trkpt lat="44.642539005734776" lon="10.308898852685129"><ele>300.0</ele><time>2026-04-04T16:56:32Z</time></trkpt><trkpt lat="44.64258147152648" lon="10.309061220471566"><ele>300.0</ele><time>2026-04-04T16:56:33Z</time></trkpt><trkpt lat="44.64262216181762" lon="10.309201980620802"><ele>300.0</ele><time>2026-04-04T16:56:34Z</time></trkpt><trkpt lat="44.642670538194494" lon="10.30931374305542"><ele>300.0</ele><time>2026-04-04T16:56:35Z</time></trkpt><trkpt lat="44.64271128185052" lon="10.309414668623702"><ele>300.0</ele><time>2026-04-04T16:56:36Z</time></trkpt><trkpt lat="44.64271469187517" lon="10.309515569124219"><ele>300.0</ele><time>2026-04-04T16:56:37Z</time></trkpt><trkpt lat="44.64270629708388" lon="10.309640937101554"><ele>300.0</ele><time>2026-04-04T16:56:38Z</time></trkpt><trkpt lat="44.64270411799935" lon="10.309785736828164"><ele>300.0</ele><time>2026-04-04T16:56:39Z</time></trkpt><trkpt lat="44.64271758790201" lon="10.309920268135492"><ele>300.0</ele><time>2026-04-04T16:56:40Z</time></trkpt><trkpt lat="44.64274233809773" lon="10.310049391350935"><ele>300.0</ele><time>2026-04-04T16:56:41Z</time></trkpt><trkpt lat="44.64275833328894" lon="10.310153657666726"><ele>302.8333333333333</ele><time>2026-04-04T16:56:42Z</time></trkpt><trkpt lat="44.64280512226736" lon="10.310252316231615"><ele>305.6666666666667</ele><time>2026-04-04T16:56:43Z</time></trkpt><trkpt lat="44.642838332241894" lon="10.31034131192828"><ele>308.5</ele><time>2026-04-04T16:56:44Z</time></trkpt><trkpt lat="44.64287085560662" lon="10.310435259562341"><ele>311.33333333333337</ele><time>2026-04-04T16:56:45Z</time></trkpt><trkpt lat="44.64287647090096" lon="10.310528131650166"><ele>314.1666666666667</ele><time>2026-04-04T16:56:46Z</time></trkpt><trkpt lat="44.64286249359572" lon="10.310616975869822"><ele>317.0</ele><time>2026-04-04T16:56:47Z</time></trkpt><trkpt lat="44.64291006462114" lon="10.310761210833261"><ele>317.25</ele><time>2026-04-04T16:56:48Z</time></trkpt><trkpt lat="44.642938349137594" lon="10.310904815765246"><ele>317.5</ele><time>2026-04-04T16:56:49Z</time></trkpt><trkpt lat="44.64294286078308" lon="10.311077989343707"><ele>317.75</ele><time>2026-04-04T16:56:50Z</time></trkpt><trkpt lat="44.64298709819507" lon="10.311213555458226"><ele>318.0</ele><time>2026-04-04T16:56:51Z</time></trkpt><trkpt lat="44.64303419556277" lon="10.31138714856369"><ele>317.4</ele><time>2026-04-04T16:56:52Z</time></trkpt><trkpt lat="44.64305412648491" lon="10.31155701115397"><ele>316.8</ele><time>2026-04-04T16:56:55Z</time></trkpt><trkpt lat="44.64309527317057" lon="10.311698711294357"><ele>316.2</ele><time>2026-04-04T16:56:57Z</time></trkpt><trkpt lat="44.643140409934006" lon="10.311775973776268"><ele>315.6</ele><time>2026-04-04T16:56:58Z</time></trkpt><trkpt lat="44.64319091582954" lon="10.311877825617511"><ele>315.0</ele><time>2026-04-04T16:56:59Z</time></trkpt><trkpt lat="44.643271185632074" lon="10.311983062778266"><ele>315.0</ele><time>2026-04-04T16:57:00Z</time></trkpt><trkpt lat="44.64333592441144" lon="10.312103627038386"><ele>315.0</ele><time>2026-04-04T16:57:01Z</time></trkpt><trkpt lat="44.64340665168752" lon="10.312239150028818"><ele>315.0</ele><time>2026-04-04T16:57:02Z</time></trkpt><trkpt lat="44.64345581408996" lon="10.312363720974245"><ele>315.0</ele><time>2026-04-04T16:57:03Z</time></trkpt><trkpt lat="44.64352920365132" lon="10.312526610295906"><ele>312.5</ele><time>2026-04-04T16:57:04Z</time></trkpt><trkpt lat="44.643583532300745" lon="10.3126552752887"><ele>310.0</ele><time>2026-04-04T16:57:05Z</time></trkpt><trkpt lat="44.643654615868826" lon="10.312803429237787"><ele>307.5</ele><time>2026-04-04T16:57:06Z</time></trkpt><trkpt lat="44.64371585062616" lon="10.312924325835265"><ele>305.0</ele><time>2026-04-04T16:57:07Z</time></trkpt><trkpt lat="44.64377683819441" lon="10.313065676745593"><ele>304.33333333333337</ele><time>2026-04-04T16:57:08Z</time></trkpt><trkpt lat="44.6438258650419" lon="10.313192813488294"><ele>303.6666666666667</ele><time>2026-04-04T16:57:09Z</time></trkpt><trkpt lat="44.64388728784735" lon="10.31330520960318"><ele>303.0</ele><time>2026-04-04T16:57:10Z</time></trkpt><trkpt lat="44.64394956482462" lon="10.313398074511925"><ele>302.3333333333333</ele><time>2026-04-04T16:57:11Z</time></trkpt><trkpt lat="44.64400871162745" lon="10.313471245632382"><ele>301.66666666666663</ele><time>2026-04-04T16:57:12Z</time></trkpt><trkpt lat="44.64407119027787" lon="10.31352679575176"><ele>301.0</ele><time>2026-04-04T16:57:13Z</time></trkpt><trkpt lat="44.644157558718526" lon="10.31356978978144"><ele>301.0</ele><time>2026-04-04T16:57:14Z</time></trkpt><trkpt lat="44.6442616415051" lon="10.313585313936983"><ele>301.0</ele><time>2026-04-04T16:57:15Z</time></trkpt><trkpt lat="44.64437572490482" lon="10.31357411877087"><ele>301.0</ele><time>2026-04-04T16:57:16Z</time></trkpt><trkpt lat="44.64448669446783" lon="10.313597593014597"><ele>301.0</ele><time>2026-04-04T16:57:17Z</time></trkpt><trkpt lat="44.644594038650915" lon="10.313634505178872"><ele>301.0</ele><time>2026-04-04T16:57:18Z</time></trkpt><trkpt lat="44.64468330445441" lon="10.313683235360333"><ele>299.40000000000003</ele><time>2026-04-04T16:57:19Z</time></trkpt><trkpt lat="44.64477331575189" lon="10.313740155816141"><ele>297.8</ele><time>2026-04-04T16:57:20Z</time></trkpt><trkpt lat="44.64485497520415" lon="10.31380298538895"><ele>296.20000000000005</ele><time>2026-04-04T16:57:21Z</time></trkpt><trkpt lat="44.64493756505902" lon="10.313870926150509"><ele>294.6</ele><time>2026-04-04T16:57:22Z</time></trkpt><trkpt lat="44.645036246664525" lon="10.313977174134"><ele>293.0</ele><time>2026-04-04T16:57:23Z</time></trkpt><trkpt lat="44.6451172081958" lon="10.314087992777923"><ele>293.2</ele><time>2026-04-04T16:57:24Z</time></trkpt><trkpt lat="44.645190193757706" lon="10.314215793487268"><ele>293.4</ele><time>2026-04-04T16:57:25Z</time></trkpt><trkpt lat="44.645245811902335" lon="10.314305840725906"><ele>293.59999999999997</ele><time>2026-04-04T16:57:26Z</time></trkpt><trkpt lat="44.645317128945024" lon="10.314339916598746"><ele>293.8</ele><time>2026-04-04T16:57:27Z</time></trkpt><trkpt lat="44.6453865618382" lon="10.314444607215776"><ele>294.0</ele><time>2026-04-04T16:57:28Z</time></trkpt><trkpt lat="44.64547991368917" lon="10.31459155105014"><ele>296.6666666666667</ele><time>2026-04-04T16:57:29Z</time></trkpt><trkpt lat="44.6455727996248" lon="10.314759148312703"><ele>299.33333333333337</ele><time>2026-04-04T16:57:30Z</time></trkpt><trkpt lat="44.64567226550711" lon="10.314940342070175"><ele>302.0</ele><time>2026-04-04T16:57:31Z</time></trkpt><trkpt lat="44.64576449057437" lon="10.315107338570813"><ele>302.0</ele><time>2026-04-04T16:57:32Z</time></trkpt><trkpt lat="44.64585268845905" lon="10.315262391574604"><ele>302.0</ele><time>2026-04-04T16:57:33Z</time></trkpt><trkpt lat="44.64597941422868" lon="10.31544958631167"><ele>302.0</ele><time>2026-04-04T16:57:34Z</time></trkpt><trkpt lat="44.64607738023807" lon="10.315581267445024"><ele>299.25</ele><time>2026-04-04T16:57:35Z</time></trkpt><trkpt lat="44.64614488707531" lon="10.315696435618166"><ele>296.5</ele><time>2026-04-04T16:57:37Z</time></trkpt><trkpt lat="44.64625021123607" lon="10.315757736115206"><ele>293.75</ele><time>2026-04-04T16:57:38Z</time></trkpt><trkpt lat="44.646313835323504" lon="10.315897315390211"><ele>291.0</ele><time>2026-04-04T16:57:39Z</time></trkpt><trkpt lat="44.64640040587504" lon="10.316057474801408"><ele>291.0</ele><time>2026-04-04T16:57:40Z</time></trkpt><trkpt lat="44.646472720796105" lon="10.316176965317126"><ele>291.0</ele><time>2026-04-04T16:57:41Z</time></trkpt><trkpt lat="44.64652433339042" lon="10.316302707797888"><ele>291.0</ele><time>2026-04-04T16:57:42Z</time></trkpt><trkpt lat="44.64655749723466" lon="10.316446297224031"><ele>291.0</ele><time>2026-04-04T16:57:43Z</time></trkpt><trkpt lat="44.646569523283084" lon="10.316607468934349"><ele>291.0</ele><time>2026-04-04T16:57:44Z</time></trkpt><trkpt lat="44.64656617756438" lon="10.31678589566412"><ele>291.5</ele><time>2026-04-04T16:57:45Z</time></trkpt><trkpt lat="44.64658539272823" lon="10.316993362577858"><ele>292.0</ele><time>2026-04-04T16:57:46Z</time></trkpt><trkpt lat="44.6465540545123" lon="10.317140704989097"><ele>292.5</ele><time>2026-04-04T16:57:47Z</time></trkpt><trkpt lat="44.64659946112404" lon="10.317308212069653"><ele>293.0</ele><time>2026-04-04T16:57:48Z</time></trkpt><trkpt lat="44.64662669044668" lon="10.317438742596414"><ele>293.2</ele><time>2026-04-04T16:57:49Z</time></trkpt><trkpt lat="44.64669589713292" lon="10.317570146399545"><ele>293.4</ele><time>2026-04-04T16:57:50Z</time></trkpt><trkpt lat="44.64674583052368" lon="10.317724467449592"><ele>293.59999999999997</ele><time>2026-04-04T16:57:51Z</time></trkpt><trkpt lat="44.64677110934247" lon="10.317860447813949"><ele>293.8</ele><time>2026-04-04T16:57:52Z</time></trkpt><trkpt lat="44.646804726961555" lon="10.317993419888186"><ele>294.0</ele><time>2026-04-04T16:57:53Z</time></trkpt><trkpt lat="44.646859251980096" lon="10.318085464232887"><ele>292.8</ele><time>2026-04-04T16:57:54Z</time></trkpt><trkpt lat="44.646932777602146" lon="10.318162099547399"><ele>291.59999999999997</ele><time>2026-04-04T16:57:55Z</time></trkpt><trkpt lat="44.64702227047139" lon="10.318233935743967"><ele>290.4</ele><time>2026-04-04T16:57:56Z</time></trkpt><trkpt lat="44.647124650328664" lon="10.318333195620392"><ele>289.2</ele><time>2026-04-04T16:57:57Z</time></trkpt><trkpt lat="44.64722564827848" lon="10.318408685000419"><ele>288.0</ele><time>2026-04-04T16:57:58Z</time></trkpt><trkpt lat="44.64729736875583" lon="10.318494338422079"><ele>288.0</ele><time>2026-04-04T16:57:59Z</time></trkpt><trkpt lat="44.64735638405744" lon="10.318560453625608"><ele>288.0</ele><time>2026-04-04T16:58:00Z</time></trkpt><trkpt lat="44.64741530777606" lon="10.318596474265052"><ele>288.0</ele><time>2026-04-04T16:58:02Z</time></trkpt><trkpt lat="44.647555757723914" lon="10.318526040312674"><ele>288.0</ele><time>2026-04-04T16:58:04Z</time></trkpt><trkpt lat="44.64765933982322" lon="10.31843858398527"><ele>288.0</ele><time>2026-04-04T16:58:05Z</time></trkpt><trkpt lat="44.647776946395034" lon="10.318341041671422"><ele>286.5</ele><time>2026-04-04T16:58:06Z</time></trkpt><trkpt lat="44.64789694773287" lon="10.31824395867816"><ele>285.0</ele><time>2026-04-04T16:58:07Z</time></trkpt><trkpt lat="44.6480149575373" lon="10.318154397050067"><ele>283.5</ele><time>2026-04-04T16:58:08Z</time></trkpt><trkpt lat="44.64813019097606" lon="10.318064133293747"><ele>282.0</ele><time>2026-04-04T16:58:09Z</time></trkpt><trkpt lat="44.64825267140271" lon="10.317968751767776"><ele>278.25</ele><time>2026-04-04T16:58:10Z</time></trkpt><trkpt lat="44.64837293037118" lon="10.317868731838288"><ele>274.5</ele><time>2026-04-04T16:58:11Z</time></trkpt><trkpt lat="44.64849377641936" lon="10.317764675020362"><ele>270.75</ele><time>2026-04-04T16:58:12Z</time></trkpt><trkpt lat="44.64862702414403" lon="10.31766799743054"><ele>267.0</ele><time>2026-04-04T16:58:13Z</time></trkpt><trkpt lat="44.648749123370116" lon="10.317574332767913"><ele>264.0</ele><time>2026-04-04T16:58:14Z</time></trkpt><trkpt lat="44.64887821651223" lon="10.317471255975727"><ele>261.0</ele><time>2026-04-04T16:58:15Z</time></trkpt><trkpt lat="44.649011868440596" lon="10.317361078680218"><ele>258.0</ele><time>2026-04-04T16:58:16Z</time></trkpt><trkpt lat="44.64913729568889" lon="10.317272756875745"><ele>255.0</ele><time>2026-04-04T16:58:17Z</time></trkpt><trkpt lat="44.64926473911244" lon="10.317179849955574"><ele>251.66666666666669</ele><time>2026-04-04T16:58:18Z</time></trkpt><trkpt lat="44.64940459385515" lon="10.317068258291924"><ele>248.33333333333334</ele><time>2026-04-04T16:58:19Z</time></trkpt><trkpt lat="44.64954042520351" lon="10.31696372896182"><ele>245.0</ele><time>2026-04-04T16:58:20Z</time></trkpt><trkpt lat="44.649658294207825" lon="10.316851251840202"><ele>241.33333333333334</ele><time>2026-04-04T16:58:21Z</time></trkpt><trkpt lat="44.64976931922771" lon="10.31673169916634"><ele>237.66666666666669</ele><time>2026-04-04T16:58:22Z</time></trkpt><trkpt lat="44.64994237835417" lon="10.316653205434807"><ele>234.0</ele><time>2026-04-04T16:58:23Z</time></trkpt><trkpt lat="44.65010149479794" lon="10.316551154914139"><ele>234.0</ele><time>2026-04-04T16:58:24Z</time></trkpt><trkpt lat="44.65022018386809" lon="10.316474281928798"><ele>234.0</ele><time>2026-04-04T16:58:25Z</time></trkpt><trkpt lat="44.65034840868653" lon="10.316382543381373"><ele>234.0</ele><time>2026-04-04T16:58:26Z</time></trkpt><trkpt lat="44.65047718726073" lon="10.31630131735685"><ele>234.0</ele><time>2026-04-04T16:58:27Z</time></trkpt><trkpt lat="44.6505924861324" lon="10.316223671168984"><ele>232.2</ele><time>2026-04-04T16:58:28Z</time></trkpt><trkpt lat="44.65068945407167" lon="10.31614968810641"><ele>230.39999999999998</ele><time>2026-04-04T16:58:29Z</time></trkpt><trkpt lat="44.65077146234778" lon="10.316094065838762"><ele>228.6</ele><time>2026-04-04T16:58:30Z</time></trkpt><trkpt lat="44.65083544312171" lon="10.316054663429256"><ele>226.8</ele><time>2026-04-04T16:58:31Z</time></trkpt><trkpt lat="44.65090451666269" lon="10.316050676401904"><ele>225.0</ele><time>2026-04-04T16:58:32Z</time></trkpt><trkpt lat="44.65102737780693" lon="10.316098387757972"><ele>225.0</ele><time>2026-04-04T16:58:34Z</time></trkpt><trkpt lat="44.651095904588395" lon="10.316198221246989"><ele>225.0</ele><time>2026-04-04T16:58:35Z</time></trkpt><trkpt lat="44.65117249620772" lon="10.316338163901305"><ele>225.0</ele><time>2026-04-04T16:58:36Z</time></trkpt><trkpt lat="44.65125465470705" lon="10.316500553287888"><ele>225.0</ele><time>2026-04-04T16:58:37Z</time></trkpt><trkpt lat="44.65134343558624" lon="10.316657812082937"><ele>223.0</ele><time>2026-04-04T16:58:38Z</time></trkpt><trkpt lat="44.65142315222779" lon="10.316803249668062"><ele>221.0</ele><time>2026-04-04T16:58:39Z</time></trkpt><trkpt lat="44.651497705225474" lon="10.31693137629352"><ele>219.0</ele><time>2026-04-04T16:58:40Z</time></trkpt><trkpt lat="44.65155504197578" lon="10.317021218807483"><ele>217.0</ele><time>2026-04-04T16:58:41Z</time></trkpt><trkpt lat="44.65163557691793" lon="10.317138610232151"><ele>216.75</ele><time>2026-04-04T16:58:43Z</time></trkpt><trkpt lat="44.65170130894808" lon="10.31731031255187"><ele>216.5</ele><time>2026-04-04T16:58:45Z</time></trkpt><trkpt lat="44.65172888568531" lon="10.31746861731589"><ele>216.25</ele><time>2026-04-04T16:58:46Z</time></trkpt><trkpt lat="44.65176722822569" lon="10.317633468292652"><ele>216.0</ele><time>2026-04-04T16:58:47Z</time></trkpt><trkpt lat="44.65182758932581" lon="10.317783061422535"><ele>216.0</ele><time>2026-04-04T16:58:48Z</time></trkpt><trkpt lat="44.65183383500379" lon="10.317888262366594"><ele>216.00000000000003</ele><time>2026-04-04T16:58:49Z</time></trkpt><trkpt lat="44.65189266902414" lon="10.318018732046516"><ele>216.00000000000003</ele><time>2026-04-04T16:58:50Z</time></trkpt><trkpt lat="44.65192549091437" lon="10.318155776479669"><ele>216.0</ele><time>2026-04-04T16:58:51Z</time></trkpt><trkpt lat="44.65200676689766" lon="10.318284702042368"><ele>216.0</ele><time>2026-04-04T16:58:52Z</time></trkpt><trkpt lat="44.65210724766785" lon="10.318383798483113"><ele>214.75</ele><time>2026-04-04T16:58:53Z</time></trkpt><trkpt lat="44.65221982415487" lon="10.318453988614175"><ele>213.5</ele><time>2026-04-04T16:58:54Z</time></trkpt><trkpt lat="44.652322229771265" lon="10.318527228869785"><ele>212.25</ele><time>2026-04-04T16:58:55Z</time></trkpt><trkpt lat="44.65242677311874" lon="10.318599093828"><ele>211.0</ele><time>2026-04-04T16:58:56Z</time></trkpt><trkpt lat="44.65251639441079" lon="10.318691145514734"><ele>211.0</ele><time>2026-04-04T16:58:57Z</time></trkpt><trkpt lat="44.652646371644295" lon="10.31875639943032"><ele>211.0</ele><time>2026-04-04T16:58:58Z</time></trkpt><trkpt lat="44.65274271399197" lon="10.318790631664593"><ele>211.0</ele><time>2026-04-04T16:58:59Z</time></trkpt><trkpt lat="44.65286706365765" lon="10.3189049536505"><ele>211.0</ele><time>2026-04-04T16:59:00Z</time></trkpt><trkpt lat="44.65291787629515" lon="10.318960080678904"><ele>210.20000000000002</ele><time>2026-04-04T16:59:01Z</time></trkpt><trkpt lat="44.65304520763836" lon="10.319055443799728"><ele>209.4</ele><time>2026-04-04T16:59:02Z</time></trkpt><trkpt lat="44.653122883239426" lon="10.319024110119628"><ele>208.6</ele><time>2026-04-04T16:59:04Z</time></trkpt><trkpt lat="44.65318885478327" lon="10.318931308455324"><ele>207.8</ele><time>2026-04-04T16:59:05Z</time></trkpt><trkpt lat="44.65327926778724" lon="10.318809684518747"><ele>207.0</ele><time>2026-04-04T16:59:06Z</time></trkpt><trkpt lat="44.653370609078294" lon="10.318674044044435"><ele>207.0</ele><time>2026-04-04T16:59:07Z</time></trkpt><trkpt lat="44.653477223360255" lon="10.31855186589313"><ele>207.0</ele><time>2026-04-04T16:59:08Z</time></trkpt><trkpt lat="44.65357284631913" lon="10.318457944975309"><ele>207.0</ele><time>2026-04-04T16:59:09Z</time></trkpt><trkpt lat="44.65367958364849" lon="10.31836431225285"><ele>207.0</ele><time>2026-04-04T16:59:10Z</time></trkpt><trkpt lat="44.65374946943494" lon="10.31833549281343"><ele>206.0</ele><time>2026-04-04T16:59:11Z</time></trkpt><trkpt lat="44.65386060535493" lon="10.318321656117979"><ele>205.0</ele><time>2026-04-04T16:59:12Z</time></trkpt><trkpt lat="44.65396358311726" lon="10.318307209105921"><ele>204.0</ele><time>2026-04-04T16:59:13Z</time></trkpt><trkpt lat="44.654070404090845" lon="10.318312936490855"><ele>203.0</ele><time>2026-04-04T16:59:14Z</time></trkpt><trkpt lat="44.6541797416876" lon="10.318351961009615"><ele>202.0</ele><time>2026-04-04T16:59:15Z</time></trkpt><trkpt lat="44.65431460621132" lon="10.318409093550427"><ele>202.0</ele><time>2026-04-04T16:59:16Z</time></trkpt><trkpt lat="44.65442522197935" lon="10.318506581529778"><ele>202.0</ele><time>2026-04-04T16:59:17Z</time></trkpt><trkpt lat="44.65454425082542" lon="10.318567493596046"><ele>202.0</ele><time>2026-04-04T16:59:18Z</time></trkpt><trkpt lat="44.654603195609" lon="10.31868588361162"><ele>202.0</ele><time>2026-04-04T16:59:19Z</time></trkpt><trkpt lat="44.65466706714326" lon="10.31875235764236"><ele>202.0</ele><time>2026-04-04T16:59:20Z</time></trkpt><trkpt lat="44.65473540714921" lon="10.31877577273089"><ele>201.83333333333331</ele><time>2026-04-04T16:59:21Z</time></trkpt><trkpt lat="44.65483185047638" lon="10.318762520230836"><ele>201.66666666666666</ele><time>2026-04-04T16:59:22Z</time></trkpt><trkpt lat="44.6548832031019" lon="10.318685129244734"><ele>201.5</ele><time>2026-04-04T16:59:23Z</time></trkpt><trkpt lat="44.65496115851814" lon="10.318636219101656"><ele>201.33333333333331</ele><time>2026-04-04T16:59:24Z</time></trkpt><trkpt lat="44.65503484391116" lon="10.318644765327353"><ele>201.16666666666666</ele><time>2026-04-04T16:59:26Z</time></trkpt><trkpt lat="44.65509932510926" lon="10.318711620310289"><ele>201.0</ele><time>2026-04-04T16:59:29Z</time></trkpt><trkpt lat="44.65515233658014" lon="10.318793391945313"><ele>201.0</ele><time>2026-04-04T16:59:30Z</time></trkpt><trkpt lat="44.655222794701224" lon="10.318868527667943"><ele>201.0</ele><time>2026-04-04T16:59:31Z</time></trkpt><trkpt lat="44.655296667766805" lon="10.318971837104526"><ele>201.0</ele><time>2026-04-04T16:59:32Z</time></trkpt><trkpt lat="44.65537409630131" lon="10.319060746358323"><ele>201.0</ele><time>2026-04-04T16:59:33Z</time></trkpt><trkpt lat="44.65545079799672" lon="10.319137467491919"><ele>201.0</ele><time>2026-04-04T16:59:34Z</time></trkpt><trkpt lat="44.65550359296069" lon="10.319210270481227"><ele>200.60000000000002</ele><time>2026-04-04T16:59:35Z</time></trkpt><trkpt lat="44.65557596332101" lon="10.319309582095919"><ele>200.2</ele><time>2026-04-04T16:59:37Z</time></trkpt><trkpt lat="44.655670276237885" lon="10.319310996315536"><ele>199.8</ele><time>2026-04-04T16:59:39.001Z</time></trkpt><trkpt lat="44.65571142157146" lon="10.319235752342417"><ele>199.39999999999998</ele><time>2026-04-04T16:59:40.001Z</time></trkpt><trkpt lat="44.655802215596594" lon="10.319146303690747"><ele>199.0</ele><time>2026-04-04T16:59:41.001Z</time></trkpt><trkpt lat="44.65590454084208" lon="10.319051186051047"><ele>199.0</ele><time>2026-04-04T16:59:42.001Z</time></trkpt><trkpt lat="44.656031769806056" lon="10.318961069382567"><ele>199.0</ele><time>2026-04-04T16:59:43.001Z</time></trkpt><trkpt lat="44.656170794121415" lon="10.318870909173684"><ele>199.0</ele><time>2026-04-04T16:59:44.001Z</time></trkpt><trkpt lat="44.65633126570333" lon="10.318774814042959"><ele>199.0</ele><time>2026-04-04T16:59:45.001Z</time></trkpt><trkpt lat="44.656492378049464" lon="10.318657051289229"><ele>199.0</ele><time>2026-04-04T16:59:46.001Z</time></trkpt><trkpt lat="44.65666114704795" lon="10.318539168651402"><ele>199.0</ele><time>2026-04-04T16:59:47.001Z</time></trkpt><trkpt lat="44.65683632421355" lon="10.318416684523028"><ele>199.0</ele><time>2026-04-04T16:59:48.001Z</time></trkpt><trkpt lat="44.6570101962391" lon="10.318292744675194"><ele>199.0</ele><time>2026-04-04T16:59:49.001Z</time></trkpt><trkpt lat="44.657191806775955" lon="10.318167197372317"><ele>199.0</ele><time>2026-04-04T16:59:50.001Z</time></trkpt><trkpt lat="44.65738232211016" lon="10.318032787872326"><ele>199.0</ele><time>2026-04-04T16:59:51.001Z</time></trkpt><trkpt lat="44.65757422987834" lon="10.317900930331925"><ele>199.0</ele><time>2026-04-04T16:59:52.001Z</time></trkpt><trkpt lat="44.657762124838406" lon="10.317768629844755"><ele>199.0</ele><time>2026-04-04T16:59:53.001Z</time></trkpt><trkpt lat="44.657950531844044" lon="10.317636553744997"><ele>198.0</ele><time>2026-04-04T16:59:54.001Z</time></trkpt><trkpt lat="44.65812739721225" lon="10.317513549793699"><ele>197.0</ele><time>2026-04-04T16:59:55.001Z</time></trkpt><trkpt lat="44.6583002288175" lon="10.317427810927756"><ele>196.0</ele><time>2026-04-04T16:59:56.001Z</time></trkpt><trkpt lat="44.65846369478579" lon="10.317362910984086"><ele>196.0</ele><time>2026-04-04T16:59:57.001Z</time></trkpt><trkpt lat="44.65859695836609" lon="10.317257371527868"><ele>196.0</ele><time>2026-04-04T16:59:58.001Z</time></trkpt><trkpt lat="44.6586869590927" lon="10.317157612577276"><ele>196.0</ele><time>2026-04-04T16:59:59.001Z</time></trkpt><trkpt lat="44.658767833841694" lon="10.317093524008113"><ele>196.0</ele><time>2026-04-04T17:00:00Z</time></trkpt><trkpt lat="44.65883217732232" lon="10.317049521123081"><ele>196.0</ele><time>2026-04-04T17:00:01Z</time></trkpt><trkpt lat="44.65888976775689" lon="10.316992673728528"><ele>196.0</ele><time>2026-04-04T17:00:03Z</time></trkpt><trkpt lat="44.65896546466393" lon="10.317017992995622"><ele>196.0</ele><time>2026-04-04T17:00:10Z</time></trkpt><trkpt lat="44.65903322763768" lon="10.317084705466488"><ele>196.0</ele><time>2026-04-04T17:00:11Z</time></trkpt><trkpt lat="44.659114666252215" lon="10.317171131920544"><ele>196.0</ele><time>2026-04-04T17:00:12Z</time></trkpt><trkpt lat="44.659213517775115" lon="10.317269034514194"><ele>196.0</ele><time>2026-04-04T17:00:13Z</time></trkpt><trkpt lat="44.65933461931128" lon="10.317375652828778"><ele>195.0</ele><time>2026-04-04T17:00:14Z</time></trkpt><trkpt lat="44.65946854632886" lon="10.317492156560688"><ele>194.0</ele><time>2026-04-04T17:00:15Z</time></trkpt><trkpt lat="44.65961139354141" lon="10.317609018942326"><ele>193.0</ele><time>2026-04-04T17:00:16Z</time></trkpt><trkpt lat="44.65975737771913" lon="10.317728464533634"><ele>193.0</ele><time>2026-04-04T17:00:17Z</time></trkpt><trkpt lat="44.659923872824145" lon="10.31785598319697"><ele>193.0</ele><time>2026-04-04T17:00:18Z</time></trkpt><trkpt lat="44.66006818288304" lon="10.317976294792464"><ele>193.0</ele><time>2026-04-04T17:00:19Z</time></trkpt><trkpt lat="44.66022384048381" lon="10.318117053833333"><ele>192.33333333333331</ele><time>2026-04-04T17:00:20Z</time></trkpt><trkpt lat="44.660379580685486" lon="10.318251217196071"><ele>191.66666666666666</ele><time>2026-04-04T17:00:21Z</time></trkpt><trkpt lat="44.66053440990129" lon="10.31840313373372"><ele>191.0</ele><time>2026-04-04T17:00:22Z</time></trkpt><trkpt lat="44.66067975406061" lon="10.31855275745423"><ele>191.0</ele><time>2026-04-04T17:00:23Z</time></trkpt><trkpt lat="44.66082944892544" lon="10.31870594310468"><ele>191.0</ele><time>2026-04-04T17:00:24Z</time></trkpt><trkpt lat="44.66097833222993" lon="10.318859583471406"><ele>191.0</ele><time>2026-04-04T17:00:25Z</time></trkpt><trkpt lat="44.66116150378398" lon="10.319022513858716"><ele>190.33333333333331</ele><time>2026-04-04T17:00:26Z</time></trkpt><trkpt lat="44.66129550639537" lon="10.31917036687568"><ele>189.66666666666666</ele><time>2026-04-04T17:00:27Z</time></trkpt><trkpt lat="44.6614389967396" lon="10.319318737705558"><ele>189.0</ele><time>2026-04-04T17:00:28Z</time></trkpt><trkpt lat="44.661592427933826" lon="10.319487835921649"><ele>189.0</ele><time>2026-04-04T17:00:29Z</time></trkpt><trkpt lat="44.66174182366365" lon="10.319630489830208"><ele>189.0</ele><time>2026-04-04T17:00:30Z</time></trkpt><trkpt lat="44.661897102804446" lon="10.319782329372108"><ele>189.0</ele><time>2026-04-04T17:00:31Z</time></trkpt><trkpt lat="44.6620699548978" lon="10.319949327674827"><ele>188.66666666666666</ele><time>2026-04-04T17:00:32Z</time></trkpt><trkpt lat="44.66220807622642" lon="10.320113892239641"><ele>188.33333333333331</ele><time>2026-04-04T17:00:33Z</time></trkpt><trkpt lat="44.662357478726136" lon="10.320284251751987"><ele>188.0</ele><time>2026-04-04T17:00:34Z</time></trkpt><trkpt lat="44.66250965206104" lon="10.320449663549615"><ele>188.33333333333331</ele><time>2026-04-04T17:00:35Z</time></trkpt><trkpt lat="44.66269352061926" lon="10.320579589004554"><ele>188.66666666666666</ele><time>2026-04-04T17:00:36Z</time></trkpt><trkpt lat="44.662831342445585" lon="10.320779905115831"><ele>189.0</ele><time>2026-04-04T17:00:37Z</time></trkpt><trkpt lat="44.66298182662601" lon="10.320960600536667"><ele>188.66666666666666</ele><time>2026-04-04T17:00:38Z</time></trkpt><trkpt lat="44.66312323039755" lon="10.321139469436796"><ele>188.33333333333331</ele><time>2026-04-04T17:00:39Z</time></trkpt><trkpt lat="44.66329115421564" lon="10.321332622736493"><ele>188.0</ele><time>2026-04-04T17:00:39.999Z</time></trkpt><trkpt lat="44.66340484524069" lon="10.321509926919262"><ele>188.0</ele><time>2026-04-04T17:00:40.999Z</time></trkpt><trkpt lat="44.66356122865259" lon="10.32165048175283"><ele>188.0</ele><time>2026-04-04T17:00:41.999Z</time></trkpt><trkpt lat="44.66365759364848" lon="10.321889214856126"><ele>188.0</ele><time>2026-04-04T17:00:42.999Z</time></trkpt><trkpt lat="44.66377592465247" lon="10.322086912850766"><ele>186.33333333333331</ele><time>2026-04-04T17:00:43.999Z</time></trkpt><trkpt lat="44.66389916505819" lon="10.322290777373576"><ele>184.66666666666666</ele><time>2026-04-04T17:00:44.999Z</time></trkpt><trkpt lat="44.664016903852186" lon="10.322477704347206"><ele>183.0</ele><time>2026-04-04T17:00:45.999Z</time></trkpt><trkpt lat="44.664124624032155" lon="10.322647188499834"><ele>183.0</ele><time>2026-04-04T17:00:46.999Z</time></trkpt><trkpt lat="44.66422878843322" lon="10.322806507663765"><ele>183.0</ele><time>2026-04-04T17:00:47.999Z</time></trkpt><trkpt lat="44.66431960827756" lon="10.322968680540253"><ele>183.0</ele><time>2026-04-04T17:00:48.999Z</time></trkpt><trkpt lat="44.6644092377481" lon="10.323118969578795"><ele>183.0</ele><time>2026-04-04T17:00:49.999Z</time></trkpt><trkpt lat="44.66449366536418" lon="10.323272915116219"><ele>182.66666666666666</ele><time>2026-04-04T17:00:50.999Z</time></trkpt><trkpt lat="44.66461150601169" lon="10.323471947577818"><ele>182.33333333333331</ele><time>2026-04-04T17:00:51.999Z</time></trkpt><trkpt lat="44.664696764765516" lon="10.323662666104385"><ele>182.0</ele><time>2026-04-04T17:00:52.999Z</time></trkpt><trkpt lat="44.66480874276607" lon="10.323872282683254"><ele>182.0</ele><time>2026-04-04T17:00:53.999Z</time></trkpt><trkpt lat="44.66490495639504" lon="10.324112606474655"><ele>182.0</ele><time>2026-04-04T17:00:54.999Z</time></trkpt><trkpt lat="44.665017896082226" lon="10.324336178319038"><ele>182.0</ele><time>2026-04-04T17:00:55.999Z</time></trkpt><trkpt lat="44.66511150525995" lon="10.32459884106332"><ele>181.66666666666666</ele><time>2026-04-04T17:00:56.999Z</time></trkpt><trkpt lat="44.66522732613423" lon="10.324844463769981"><ele>181.33333333333334</ele><time>2026-04-04T17:00:57.999Z</time></trkpt><trkpt lat="44.66535666981076" lon="10.32509448331346"><ele>181.0</ele><time>2026-04-04T17:00:58.999Z</time></trkpt><trkpt lat="44.66549203443115" lon="10.325319303613028"><ele>180.66666666666669</ele><time>2026-04-04T17:00:59.999Z</time></trkpt><trkpt lat="44.66562052336642" lon="10.325522100891341"><ele>180.33333333333334</ele><time>2026-04-04T17:01:00.999Z</time></trkpt><trkpt lat="44.66574617313694" lon="10.325702531762227"><ele>180.0</ele><time>2026-04-04T17:01:01.999Z</time></trkpt><trkpt lat="44.665851091433986" lon="10.325879844609496"><ele>179.66666666666666</ele><time>2026-04-04T17:01:02.999Z</time></trkpt><trkpt lat="44.66596287016124" lon="10.326031878913792"><ele>179.33333333333331</ele><time>2026-04-04T17:01:03.999Z</time></trkpt><trkpt lat="44.6660576606416" lon="10.326208905488294"><ele>179.0</ele><time>2026-04-04T17:01:04.999Z</time></trkpt><trkpt lat="44.666153936663115" lon="10.326367524248084"><ele>178.25</ele><time>2026-04-04T17:01:05.999Z</time></trkpt><trkpt lat="44.66623330089057" lon="10.326507681324273"><ele>177.5</ele><time>2026-04-04T17:01:06.999Z</time></trkpt><trkpt lat="44.66631716139803" lon="10.326645319097459"><ele>176.75</ele><time>2026-04-04T17:01:07.999Z</time></trkpt><trkpt lat="44.66640839653023" lon="10.32679409070564"><ele>176.0</ele><time>2026-04-04T17:01:08.999Z</time></trkpt><trkpt lat="44.66654214397568" lon="10.326967790408267"><ele>176.0</ele><time>2026-04-04T17:01:09.999Z</time></trkpt><trkpt lat="44.66668723838914" lon="10.32715283677835"><ele>176.0</ele><time>2026-04-04T17:01:10.999Z</time></trkpt><trkpt lat="44.666776180903916" lon="10.327352164038329"><ele>176.0</ele><time>2026-04-04T17:01:11.999Z</time></trkpt><trkpt lat="44.666892937169216" lon="10.327583121924347"><ele>175.33333333333331</ele><time>2026-04-04T17:01:12.999Z</time></trkpt><trkpt lat="44.667039807413154" lon="10.327797891929878"><ele>174.66666666666666</ele><time>2026-04-04T17:01:13.999Z</time></trkpt><trkpt lat="44.66717023964753" lon="10.328029589581806"><ele>174.0</ele><time>2026-04-04T17:01:14.999Z</time></trkpt><trkpt lat="44.66730837588595" lon="10.328268745712471"><ele>174.0</ele><time>2026-04-04T17:01:15.999Z</time></trkpt><trkpt lat="44.667446430726166" lon="10.328496343197171"><ele>174.0</ele><time>2026-04-04T17:01:16.999Z</time></trkpt><trkpt lat="44.667603116724344" lon="10.328723676492176"><ele>174.0</ele><time>2026-04-04T17:01:17.999Z</time></trkpt><trkpt lat="44.6677185451078" lon="10.328936205811782"><ele>173.66666666666666</ele><time>2026-04-04T17:01:18.999Z</time></trkpt><trkpt lat="44.667857612528515" lon="10.329150776789346"><ele>173.33333333333331</ele><time>2026-04-04T17:01:19.999Z</time></trkpt><trkpt lat="44.667979667447476" lon="10.329358711078655"><ele>173.0</ele><time>2026-04-04T17:01:20.999Z</time></trkpt><trkpt lat="44.668120551344956" lon="10.329548447922614"><ele>173.0</ele><time>2026-04-04T17:01:21.999Z</time></trkpt><trkpt lat="44.66827290193473" lon="10.329716030865953"><ele>173.0</ele><time>2026-04-04T17:01:22.999Z</time></trkpt><trkpt lat="44.668451092324574" lon="10.329892959137881"><ele>173.0</ele><time>2026-04-04T17:01:23.999Z</time></trkpt><trkpt lat="44.668569312266634" lon="10.330026849704513"><ele>171.33333333333331</ele><time>2026-04-04T17:01:24.999Z</time></trkpt><trkpt lat="44.668690541091365" lon="10.330174047672383"><ele>169.66666666666666</ele><time>2026-04-04T17:01:25.999Z</time></trkpt><trkpt lat="44.66880109682706" lon="10.330353994468439"><ele>168.0</ele><time>2026-04-04T17:01:26.999Z</time></trkpt><trkpt lat="44.668894394504605" lon="10.330554335679917"><ele>168.0</ele><time>2026-04-04T17:01:27.999Z</time></trkpt><trkpt lat="44.668955139654976" lon="10.330790670787966"><ele>168.0</ele><time>2026-04-04T17:01:28.999Z</time></trkpt><trkpt lat="44.66900021628253" lon="10.331048856609785"><ele>168.0</ele><time>2026-04-04T17:01:29.999Z</time></trkpt><trkpt lat="44.669052730149595" lon="10.331315866354553"><ele>168.33333333333334</ele><time>2026-04-04T17:01:30.999Z</time></trkpt><trkpt lat="44.669139874413325" lon="10.331603092167635"><ele>168.66666666666669</ele><time>2026-04-04T17:01:31.999Z</time></trkpt><trkpt lat="44.66918623425866" lon="10.33186591080149"><ele>169.0</ele><time>2026-04-04T17:01:32.999Z</time></trkpt><trkpt lat="44.66924475191472" lon="10.33213261028302"><ele>168.66666666666669</ele><time>2026-04-04T17:01:33.999Z</time></trkpt><trkpt lat="44.66931396299719" lon="10.332388607541192"><ele>168.33333333333334</ele><time>2026-04-04T17:01:34.999Z</time></trkpt><trkpt lat="44.66943045875722" lon="10.332601359719796"><ele>168.0</ele><time>2026-04-04T17:01:35.999Z</time></trkpt><trkpt lat="44.669545328818735" lon="10.332829821609913"><ele>168.0</ele><time>2026-04-04T17:01:36.999Z</time></trkpt><trkpt lat="44.66968498859494" lon="10.333027571489847"><ele>168.0</ele><time>2026-04-04T17:01:37.999Z</time></trkpt><trkpt lat="44.669794767660285" lon="10.333216805902572"><ele>168.0</ele><time>2026-04-04T17:01:38.999Z</time></trkpt><trkpt lat="44.66990439418841" lon="10.333416674197203"><ele>167.75</ele><time>2026-04-04T17:01:39.999Z</time></trkpt><trkpt lat="44.66999328427242" lon="10.333576643581392"><ele>167.5</ele><time>2026-04-04T17:01:40.999Z</time></trkpt><trkpt lat="44.67008321603738" lon="10.333728027518088"><ele>167.25</ele><time>2026-04-04T17:01:41.999Z</time></trkpt><trkpt lat="44.670149630457836" lon="10.333867065084124"><ele>167.0</ele><time>2026-04-04T17:01:42.999Z</time></trkpt><trkpt lat="44.670228050395146" lon="10.334009372946547"><ele>167.0</ele><time>2026-04-04T17:01:44Z</time></trkpt><trkpt lat="44.670222950000785" lon="10.33411266304979"><ele>167.0</ele><time>2026-04-04T17:01:45Z</time></trkpt><trkpt lat="44.670206220555755" lon="10.334206632995357"><ele>167.0</ele><time>2026-04-04T17:01:46Z</time></trkpt><trkpt lat="44.670151834231376" lon="10.334297714471285"><ele>167.0</ele><time>2026-04-04T17:01:48Z</time></trkpt><trkpt lat="44.6701262924082" lon="10.334379763835662"><ele>167.0</ele><time>2026-04-04T17:01:49Z</time></trkpt><trkpt lat="44.670085383652484" lon="10.334514051757655"><ele>167.0</ele><time>2026-04-04T17:01:50Z</time></trkpt><trkpt lat="44.670039835432064" lon="10.334659925965127"><ele>166.6</ele><time>2026-04-04T17:01:51Z</time></trkpt><trkpt lat="44.66999293024959" lon="10.334821619201264"><ele>166.2</ele><time>2026-04-04T17:01:52Z</time></trkpt><trkpt lat="44.669955970275936" lon="10.334964562762854"><ele>165.8</ele><time>2026-04-04T17:01:53Z</time></trkpt><trkpt lat="44.66991727223585" lon="10.335082277778042"><ele>165.4</ele><time>2026-04-04T17:01:54Z</time></trkpt><trkpt lat="44.66986717779142" lon="10.335170473987521"><ele>165.0</ele><time>2026-04-04T17:01:55Z</time></trkpt><trkpt lat="44.669795139540504" lon="10.33524530865102"><ele>165.0</ele><time>2026-04-04T17:01:56Z</time></trkpt><trkpt lat="44.669718886654934" lon="10.335328914962673"><ele>165.0</ele><time>2026-04-04T17:01:57Z</time></trkpt><trkpt lat="44.669667825354516" lon="10.335420782969996"><ele>165.0</ele><time>2026-04-04T17:01:58Z</time></trkpt><trkpt lat="44.66966097649514" lon="10.33552625717744"><ele>165.0</ele><time>2026-04-04T17:01:59Z</time></trkpt><trkpt lat="44.66969756608126" lon="10.335634280835466"><ele>165.0</ele><time>2026-04-04T17:02:00Z</time></trkpt><trkpt lat="44.66976672864569" lon="10.335703952341802"><ele>165.0</ele><time>2026-04-04T17:02:01Z</time></trkpt><trkpt lat="44.66985338833316" lon="10.335715969102441"><ele>165.0</ele><time>2026-04-04T17:02:02Z</time></trkpt><trkpt lat="44.66993104032295" lon="10.335665459405945"><ele>165.0</ele><time>2026-04-04T17:02:03Z</time></trkpt><trkpt lat="44.669996379319144" lon="10.335544681511502"><ele>165.0</ele><time>2026-04-04T17:02:04Z</time></trkpt><trkpt lat="44.670018292217634" lon="10.335427940690009"><ele>165.0</ele><time>2026-04-04T17:02:05Z</time></trkpt><trkpt lat="44.67001341793714" lon="10.335276007260532"><ele>165.0</ele><time>2026-04-04T17:02:06Z</time></trkpt><trkpt lat="44.670001201242044" lon="10.335111032347461"><ele>165.0</ele><time>2026-04-04T17:02:07Z</time></trkpt><trkpt lat="44.670008065387464" lon="10.334931575166484"><ele>165.0</ele><time>2026-04-04T17:02:08Z</time></trkpt><trkpt lat="44.670054864415484" lon="10.334739521704016"><ele>165.0</ele><time>2026-04-04T17:02:09Z</time></trkpt><trkpt lat="44.67012419539521" lon="10.334536735901532"><ele>165.0</ele><time>2026-04-04T17:02:10Z</time></trkpt><trkpt lat="44.67021094790737" lon="10.334345941963468"><ele>165.0</ele><time>2026-04-04T17:02:11Z</time></trkpt><trkpt lat="44.67029819085112" lon="10.334156232678405"><ele>165.0</ele><time>2026-04-04T17:02:12Z</time></trkpt><trkpt lat="44.67039239127128" lon="10.333966474548097"><ele>165.0</ele><time>2026-04-04T17:02:13Z</time></trkpt><trkpt lat="44.6705146850949" lon="10.333788298374227"><ele>165.0</ele><time>2026-04-04T17:02:14Z</time></trkpt><trkpt lat="44.67063224803323" lon="10.333614426006969"><ele>165.0</ele><time>2026-04-04T17:02:15Z</time></trkpt><trkpt lat="44.67068319799033" lon="10.333382706970218"><ele>165.0</ele><time>2026-04-04T17:02:16Z</time></trkpt><trkpt lat="44.670765056198405" lon="10.33316889815572"><ele>165.0</ele><time>2026-04-04T17:02:17Z</time></trkpt><trkpt lat="44.670828816463604" lon="10.332954469080798"><ele>165.0</ele><time>2026-04-04T17:02:18Z</time></trkpt><trkpt lat="44.670887560385104" lon="10.332713678013363"><ele>165.0</ele><time>2026-04-04T17:02:19Z</time></trkpt><trkpt lat="44.670949424307395" lon="10.332475026517118"><ele>165.0</ele><time>2026-04-04T17:02:20Z</time></trkpt><trkpt lat="44.670989256844905" lon="10.33225885275047"><ele>165.0</ele><time>2026-04-04T17:02:21Z</time></trkpt><trkpt lat="44.671055222958095" lon="10.332003161055422"><ele>165.0</ele><time>2026-04-04T17:02:22Z</time></trkpt><trkpt lat="44.67109243180561" lon="10.33178679219491"><ele>165.33333333333334</ele><time>2026-04-04T17:02:23Z</time></trkpt><trkpt lat="44.67113637721212" lon="10.33156046106414"><ele>165.66666666666669</ele><time>2026-04-04T17:02:24Z</time></trkpt><trkpt lat="44.67118678488602" lon="10.33134705888223"><ele>166.0</ele><time>2026-04-04T17:02:25Z</time></trkpt><trkpt lat="44.671232190701126" lon="10.33115082867403"><ele>166.0</ele><time>2026-04-04T17:02:26Z</time></trkpt><trkpt lat="44.67126935754072" lon="10.33096796013943"><ele>166.0</ele><time>2026-04-04T17:02:27Z</time></trkpt><trkpt lat="44.671303534430386" lon="10.330800892539157"><ele>166.0</ele><time>2026-04-04T17:02:28Z</time></trkpt><trkpt lat="44.671333252004175" lon="10.330656830466069"><ele>166.0</ele><time>2026-04-04T17:02:29Z</time></trkpt><trkpt lat="44.67134996999243" lon="10.330538726980915"><ele>166.0</ele><time>2026-04-04T17:02:30Z</time></trkpt><trkpt lat="44.67138862478868" lon="10.330439338847897"><ele>166.0</ele><time>2026-04-04T17:02:31Z</time></trkpt><trkpt lat="44.67144335623319" lon="10.330370671005014"><ele>166.0</ele><time>2026-04-04T17:02:32Z</time></trkpt><trkpt lat="44.67151066789392" lon="10.33037350929153"><ele>166.0</ele><time>2026-04-04T17:02:33Z</time></trkpt><trkpt lat="44.671596677304606" lon="10.330397561468002"><ele>166.0</ele><time>2026-04-04T17:02:34Z</time></trkpt><trkpt lat="44.67170670516086" lon="10.33043737751882"><ele>166.0</ele><time>2026-04-04T17:02:35Z</time></trkpt><trkpt lat="44.671837033363836" lon="10.330466249906845"><ele>165.75</ele><time>2026-04-04T17:02:36Z</time></trkpt><trkpt lat="44.671975758853804" lon="10.330467639296625"><ele>165.5</ele><time>2026-04-04T17:02:37Z</time></trkpt><trkpt lat="44.67212320235234" lon="10.330449465653269"><ele>165.25</ele><time>2026-04-04T17:02:38Z</time></trkpt><trkpt lat="44.67225113438312" lon="10.330421941305238"><ele>165.0</ele><time>2026-04-04T17:02:39Z</time></trkpt><trkpt lat="44.67237777140647" lon="10.330397714804926"><ele>165.0</ele><time>2026-04-04T17:02:40Z</time></trkpt><trkpt lat="44.672462247366916" lon="10.33045127411938"><ele>165.0</ele><time>2026-04-04T17:02:41Z</time></trkpt><trkpt lat="44.67253014390007" lon="10.33052405085784"><ele>165.0</ele><time>2026-04-04T17:02:42Z</time></trkpt><trkpt lat="44.67258385872035" lon="10.330630605306313"><ele>165.0</ele><time>2026-04-04T17:02:43Z</time></trkpt><trkpt lat="44.67264722522657" lon="10.330773542097834"><ele>165.0</ele><time>2026-04-04T17:02:44Z</time></trkpt><trkpt lat="44.672711952468696" lon="10.330917422583783"><ele>164.2</ele><time>2026-04-04T17:02:45Z</time></trkpt><trkpt lat="44.67277929895816" lon="10.331038505414968"><ele>163.4</ele><time>2026-04-04T17:02:46Z</time></trkpt><trkpt lat="44.67284318770668" lon="10.331152178243862"><ele>162.60000000000002</ele><time>2026-04-04T17:02:47Z</time></trkpt><trkpt lat="44.6728981605232" lon="10.331244441402355"><ele>161.8</ele><time>2026-04-04T17:02:48Z</time></trkpt><trkpt lat="44.67294781708646" lon="10.33132728319479"><ele>161.0</ele><time>2026-04-04T17:02:49Z</time></trkpt><trkpt lat="44.67301624101102" lon="10.331405337204073"><ele>161.0</ele><time>2026-04-04T17:02:50Z</time></trkpt><trkpt lat="44.673065145351494" lon="10.331501076322953"><ele>161.0</ele><time>2026-04-04T17:02:51Z</time></trkpt><trkpt lat="44.67314851584766" lon="10.331577098113891"><ele>161.0</ele><time>2026-04-04T17:02:52Z</time></trkpt><trkpt lat="44.67321893342255" lon="10.33161731206784"><ele>161.0</ele><time>2026-04-04T17:02:53Z</time></trkpt><trkpt lat="44.67330955214781" lon="10.331616295349681"><ele>161.0</ele><time>2026-04-04T17:02:54Z</time></trkpt><trkpt lat="44.67341987368351" lon="10.331602323980814"><ele>161.0</ele><time>2026-04-04T17:02:55Z</time></trkpt><trkpt lat="44.67353798964277" lon="10.331596196130363"><ele>161.0</ele><time>2026-04-04T17:02:56Z</time></trkpt><trkpt lat="44.673678062319205" lon="10.33159731423901"><ele>161.0</ele><time>2026-04-04T17:02:57Z</time></trkpt><trkpt lat="44.67381764725308" lon="10.331593518233465"><ele>161.0</ele><time>2026-04-04T17:02:58Z</time></trkpt><trkpt lat="44.673948987301955" lon="10.331591427934832"><ele>161.0</ele><time>2026-04-04T17:02:59Z</time></trkpt><trkpt lat="44.67408796430209" lon="10.331595180683724"><ele>161.0</ele><time>2026-04-04T17:03:00Z</time></trkpt><trkpt lat="44.67423017733203" lon="10.331596237984806"><ele>161.0</ele><time>2026-04-04T17:03:01Z</time></trkpt><trkpt lat="44.674344701585866" lon="10.331593826113066"><ele>161.0</ele><time>2026-04-04T17:03:02Z</time></trkpt><trkpt lat="44.67445816817695" lon="10.331596986361859"><ele>161.0</ele><time>2026-04-04T17:03:03Z</time></trkpt><trkpt lat="44.67456364726737" lon="10.331600805762408"><ele>161.0</ele><time>2026-04-04T17:03:04Z</time></trkpt><trkpt lat="44.67466590880389" lon="10.33162362087584"><ele>161.0</ele><time>2026-04-04T17:03:05Z</time></trkpt><trkpt lat="44.674763451151506" lon="10.331679458048468"><ele>161.0</ele><time>2026-04-04T17:03:06Z</time></trkpt><trkpt lat="44.67485731961116" lon="10.331765449871051"><ele>161.0</ele><time>2026-04-04T17:03:07Z</time></trkpt><trkpt lat="44.67494754037242" lon="10.331878979987987"><ele>161.0</ele><time>2026-04-04T17:03:08Z</time></trkpt><trkpt lat="44.6750432007236" lon="10.331985932973563"><ele>161.0</ele><time>2026-04-04T17:03:09Z</time></trkpt><trkpt lat="44.67515104017597" lon="10.332089530915004"><ele>161.0</ele><time>2026-04-04T17:03:10Z</time></trkpt><trkpt lat="44.6752427911215" lon="10.332198862767415"><ele>161.0</ele><time>2026-04-04T17:03:11Z</time></trkpt><trkpt lat="44.67536338225634" lon="10.332277073450317"><ele>160.5</ele><time>2026-04-04T17:03:12Z</time></trkpt><trkpt lat="44.675451755934816" lon="10.33241172871421"><ele>160.0</ele><time>2026-04-04T17:03:13Z</time></trkpt><trkpt lat="44.67555019967387" lon="10.33251897345064"><ele>159.5</ele><time>2026-04-04T17:03:14Z</time></trkpt><trkpt lat="44.675655812534295" lon="10.33262815272096"><ele>159.0</ele><time>2026-04-04T17:03:15Z</time></trkpt><trkpt lat="44.67576887098758" lon="10.332718857784306"><ele>159.0</ele><time>2026-04-04T17:03:16Z</time></trkpt><trkpt lat="44.67585343704355" lon="10.332838321816189"><ele>159.0</ele><time>2026-04-04T17:03:17Z</time></trkpt><trkpt lat="44.675959390374345" lon="10.332942219648514"><ele>159.0</ele><time>2026-04-04T17:03:18Z</time></trkpt><trkpt lat="44.67605227598843" lon="10.333055001212669"><ele>159.0</ele><time>2026-04-04T17:03:19Z</time></trkpt><trkpt lat="44.67615359162433" lon="10.333176311453835"><ele>158.8</ele><time>2026-04-04T17:03:20Z</time></trkpt><trkpt lat="44.67624774235049" lon="10.333284508493788"><ele>158.60000000000002</ele><time>2026-04-04T17:03:20.999Z</time></trkpt><trkpt lat="44.676336921369476" lon="10.333384052474177"><ele>158.4</ele><time>2026-04-04T17:03:21.999Z</time></trkpt><trkpt lat="44.67641698991158" lon="10.3334724357797"><ele>158.20000000000002</ele><time>2026-04-04T17:03:22.999Z</time></trkpt><trkpt lat="44.676503941668464" lon="10.33354420440033"><ele>158.0</ele><time>2026-04-04T17:03:23.999Z</time></trkpt><trkpt lat="44.676574895509155" lon="10.33362310073947"><ele>158.0</ele><time>2026-04-04T17:03:24.999Z</time></trkpt><trkpt lat="44.676617399665744" lon="10.333689466640958"><ele>158.0</ele><time>2026-04-04T17:03:25.999Z</time></trkpt><trkpt lat="44.67671127417918" lon="10.333780774605282"><ele>158.0</ele><time>2026-04-04T17:03:27.999Z</time></trkpt><trkpt lat="44.676788213395064" lon="10.333851142008257"><ele>158.0</ele><time>2026-04-04T17:03:28.999Z</time></trkpt><trkpt lat="44.676886640844025" lon="10.333939452481305"><ele>158.0</ele><time>2026-04-04T17:03:29.999Z</time></trkpt><trkpt lat="44.67698350401295" lon="10.334028475236703"><ele>158.0</ele><time>2026-04-04T17:03:30.999Z</time></trkpt><trkpt lat="44.677080790904945" lon="10.334091976064357"><ele>158.0</ele><time>2026-04-04T17:03:31.999Z</time></trkpt><trkpt lat="44.677199920009706" lon="10.334141661667063"><ele>158.0</ele><time>2026-04-04T17:03:32.999Z</time></trkpt><trkpt lat="44.67733480986617" lon="10.334193007925926"><ele>158.0</ele><time>2026-04-04T17:03:33.999Z</time></trkpt><trkpt lat="44.67746373515219" lon="10.334237807394087"><ele>158.0</ele><time>2026-04-04T17:03:34.999Z</time></trkpt><trkpt lat="44.67759589411692" lon="10.334287145559317"><ele>158.0</ele><time>2026-04-04T17:03:35.999Z</time></trkpt><trkpt lat="44.677728608051034" lon="10.334347646468755"><ele>158.0</ele><time>2026-04-04T17:03:36.999Z</time></trkpt><trkpt lat="44.67785839406849" lon="10.334426481197312"><ele>158.0</ele><time>2026-04-04T17:03:37.999Z</time></trkpt><trkpt lat="44.67798408335234" lon="10.33450231178474"><ele>157.75</ele><time>2026-04-04T17:03:38.999Z</time></trkpt><trkpt lat="44.67811256819794" lon="10.334574297630935"><ele>157.5</ele><time>2026-04-04T17:03:39.999Z</time></trkpt><trkpt lat="44.67824274829038" lon="10.33464812460433"><ele>157.25</ele><time>2026-04-04T17:03:40.999Z</time></trkpt><trkpt lat="44.67837890743357" lon="10.334732338918995"><ele>157.0</ele><time>2026-04-04T17:03:41.999Z</time></trkpt><trkpt lat="44.67850557106242" lon="10.334812387373375"><ele>156.5</ele><time>2026-04-04T17:03:42.999Z</time></trkpt><trkpt lat="44.67863003815349" lon="10.334884573205155"><ele>156.0</ele><time>2026-04-04T17:03:43.999Z</time></trkpt><trkpt lat="44.67874183523189" lon="10.334950837960262"><ele>155.5</ele><time>2026-04-04T17:03:44.999Z</time></trkpt><trkpt lat="44.67883859887546" lon="10.33501361044386"><ele>155.0</ele><time>2026-04-04T17:03:45.999Z</time></trkpt><trkpt lat="44.678923139037636" lon="10.33506802593487"><ele>155.0</ele><time>2026-04-04T17:03:46.999Z</time></trkpt><trkpt lat="44.67901503471615" lon="10.335113589159914"><ele>155.0</ele><time>2026-04-04T17:03:47.999Z</time></trkpt><trkpt lat="44.67909218549078" lon="10.335087885340748"><ele>155.0</ele><time>2026-04-04T17:03:48.999Z</time></trkpt><trkpt lat="44.679196913554" lon="10.335016598284826"><ele>155.0</ele><time>2026-04-04T17:03:50Z</time></trkpt><trkpt lat="44.679290618608995" lon="10.334936083296212"><ele>155.0</ele><time>2026-04-04T17:03:51Z</time></trkpt><trkpt lat="44.67939164914123" lon="10.334848160957238"><ele>155.2</ele><time>2026-04-04T17:03:52Z</time></trkpt><trkpt lat="44.67950127710358" lon="10.334771736244548"><ele>155.4</ele><time>2026-04-04T17:03:53Z</time></trkpt><trkpt lat="44.67960740101167" lon="10.334698475168187"><ele>155.6</ele><time>2026-04-04T17:03:54Z</time></trkpt><trkpt lat="44.67969769843558" lon="10.334632212905749"><ele>155.8</ele><time>2026-04-04T17:03:55Z</time></trkpt><trkpt lat="44.679776746599124" lon="10.334572684187167"><ele>156.0</ele><time>2026-04-04T17:03:56Z</time></trkpt><trkpt lat="44.67984579378566" lon="10.334521601490207"><ele>156.0</ele><time>2026-04-04T17:03:57Z</time></trkpt><trkpt lat="44.67994878906314" lon="10.33445673407247"><ele>156.0</ele><time>2026-04-04T17:03:59Z</time></trkpt><trkpt lat="44.68002602555496" lon="10.334496991375959"><ele>156.0</ele><time>2026-04-04T17:04:01Z</time></trkpt><trkpt lat="44.68008432144359" lon="10.334549843376656"><ele>156.0</ele><time>2026-04-04T17:04:02Z</time></trkpt><trkpt lat="44.68015564443066" lon="10.33460433945922"><ele>156.0</ele><time>2026-04-04T17:04:03Z</time></trkpt><trkpt lat="44.680239630762" lon="10.334668249495936"><ele>156.0</ele><time>2026-04-04T17:04:04Z</time></trkpt><trkpt lat="44.68032419690236" lon="10.334725237700004"><ele>155.8</ele><time>2026-04-04T17:04:05Z</time></trkpt><trkpt lat="44.68041375720733" lon="10.334774363275082"><ele>155.6</ele><time>2026-04-04T17:04:06Z</time></trkpt><trkpt lat="44.680496243242345" lon="10.334811628298196"><ele>155.4</ele><time>2026-04-04T17:04:07Z</time></trkpt><trkpt lat="44.68059993141057" lon="10.33483629446393"><ele>155.2</ele><time>2026-04-04T17:04:08Z</time></trkpt><trkpt lat="44.68070410476779" lon="10.334863855942626"><ele>155.0</ele><time>2026-04-04T17:04:09Z</time></trkpt><trkpt lat="44.68081525991084" lon="10.334896232923606"><ele>155.0</ele><time>2026-04-04T17:04:10Z</time></trkpt><trkpt lat="44.68092373346579" lon="10.334928282893035"><ele>155.0</ele><time>2026-04-04T17:04:11Z</time></trkpt><trkpt lat="44.681036578597265" lon="10.334967571585743"><ele>155.0</ele><time>2026-04-04T17:04:12Z</time></trkpt><trkpt lat="44.681161861695834" lon="10.335022763329409"><ele>155.0</ele><time>2026-04-04T17:04:13Z</time></trkpt><trkpt lat="44.68128038686206" lon="10.33507794043406"><ele>154.25</ele><time>2026-04-04T17:04:14Z</time></trkpt><trkpt lat="44.68140734621702" lon="10.33513228277665"><ele>153.5</ele><time>2026-04-04T17:04:15Z</time></trkpt><trkpt lat="44.68152413243737" lon="10.335184743067964"><ele>152.75</ele><time>2026-04-04T17:04:16Z</time></trkpt><trkpt lat="44.681643305227816" lon="10.335238159807677"><ele>152.0</ele><time>2026-04-04T17:04:17Z</time></trkpt><trkpt lat="44.681768053960255" lon="10.33529561232127"><ele>152.0</ele><time>2026-04-04T17:04:18Z</time></trkpt><trkpt lat="44.681885038009234" lon="10.33535035799523"><ele>152.0</ele><time>2026-04-04T17:04:19Z</time></trkpt><trkpt lat="44.682007196945634" lon="10.335404836482397"><ele>152.0</ele><time>2026-04-04T17:04:20Z</time></trkpt><trkpt lat="44.68212838374594" lon="10.335457716828811"><ele>152.0</ele><time>2026-04-04T17:04:21Z</time></trkpt><trkpt lat="44.68224852454227" lon="10.3355114510995"><ele>152.4</ele><time>2026-04-04T17:04:22Z</time></trkpt><trkpt lat="44.682354737594665" lon="10.335556455500857"><ele>152.79999999999998</ele><time>2026-04-04T17:04:23Z</time></trkpt><trkpt lat="44.68244766411021" lon="10.335600502395682"><ele>153.2</ele><time>2026-04-04T17:04:24Z</time></trkpt><trkpt lat="44.682533351157474" lon="10.335636021910341"><ele>153.6</ele><time>2026-04-04T17:04:25Z</time></trkpt><trkpt lat="44.68262242625884" lon="10.335684393138006"><ele>154.0</ele><time>2026-04-04T17:04:26Z</time></trkpt><trkpt lat="44.68274157311622" lon="10.335719741629077"><ele>154.0</ele><time>2026-04-04T17:04:28Z</time></trkpt><trkpt lat="44.68278235600482" lon="10.335817263454953"><ele>154.0</ele><time>2026-04-04T17:04:30Z</time></trkpt><trkpt lat="44.682774543304184" lon="10.335905119030514"><ele>154.0</ele><time>2026-04-04T17:04:31Z</time></trkpt><trkpt lat="44.682756880209055" lon="10.336032257670668"><ele>154.0</ele><time>2026-04-04T17:04:32Z</time></trkpt><trkpt lat="44.68272723017185" lon="10.336192510363054"><ele>154.0</ele><time>2026-04-04T17:04:33Z</time></trkpt><trkpt lat="44.682695984582054" lon="10.33633588280546"><ele>153.5</ele><time>2026-04-04T17:04:34Z</time></trkpt><trkpt lat="44.68266588005245" lon="10.336477887502399"><ele>153.0</ele><time>2026-04-04T17:04:35Z</time></trkpt><trkpt lat="44.682630044921304" lon="10.336634958141506"><ele>152.5</ele><time>2026-04-04T17:04:36Z</time></trkpt><trkpt lat="44.682596002563855" lon="10.336796043299916"><ele>152.0</ele><time>2026-04-04T17:04:37Z</time></trkpt><trkpt lat="44.68256569354106" lon="10.336969243258777"><ele>152.0</ele><time>2026-04-04T17:04:38Z</time></trkpt><trkpt lat="44.68253527646105" lon="10.337145217797811"><ele>152.0</ele><time>2026-04-04T17:04:39Z</time></trkpt><trkpt lat="44.68250113820281" lon="10.33732940944958"><ele>152.0</ele><time>2026-04-04T17:04:40Z</time></trkpt><trkpt lat="44.682464814198745" lon="10.337529208061868"><ele>152.0</ele><time>2026-04-04T17:04:41Z</time></trkpt><trkpt lat="44.68242961987167" lon="10.337725193134562"><ele>152.0</ele><time>2026-04-04T17:04:42Z</time></trkpt><trkpt lat="44.682399621761775" lon="10.337891090250977"><ele>152.0</ele><time>2026-04-04T17:04:43Z</time></trkpt><trkpt lat="44.68239000690688" lon="10.338064020585056"><ele>152.0</ele><time>2026-04-04T17:04:44Z</time></trkpt><trkpt lat="44.68238477931592" lon="10.338238213467985"><ele>152.0</ele><time>2026-04-04T17:04:45Z</time></trkpt><trkpt lat="44.68231789504004" lon="10.338312283533723"><ele>152.28571428571428</ele><time>2026-04-04T17:04:46Z</time></trkpt><trkpt lat="44.682294380703034" lon="10.338428105991571"><ele>152.57142857142858</ele><time>2026-04-04T17:04:47Z</time></trkpt><trkpt lat="44.68227900662779" lon="10.338518064599814"><ele>152.85714285714286</ele><time>2026-04-04T17:04:48Z</time></trkpt><trkpt lat="44.682263063216865" lon="10.338604219846262"><ele>153.14285714285714</ele><time>2026-04-04T17:04:49Z</time></trkpt><trkpt lat="44.68230210492114" lon="10.338698415614711"><ele>153.42857142857144</ele><time>2026-04-04T17:04:51Z</time></trkpt><trkpt lat="44.68236700726005" lon="10.338751107810335"><ele>153.71428571428572</ele><time>2026-04-04T17:04:52Z</time></trkpt><trkpt lat="44.68244541603701" lon="10.338767354001623"><ele>154.0</ele><time>2026-04-04T17:04:53Z</time></trkpt><trkpt lat="44.68252373770359" lon="10.338808865133807"><ele>154.0</ele><time>2026-04-04T17:04:54Z</time></trkpt><trkpt lat="44.6826157971407" lon="10.33879776563064"><ele>154.0</ele><time>2026-04-04T17:04:55Z</time></trkpt><trkpt lat="44.682688197294574" lon="10.33882981474645"><ele>154.0</ele><time>2026-04-04T17:04:56Z</time></trkpt><trkpt lat="44.682730984528604" lon="10.338940264718424"><ele>154.0</ele><time>2026-04-04T17:04:58Z</time></trkpt><trkpt lat="44.6827261974923" lon="10.339044406913228"><ele>154.0</ele><time>2026-04-04T17:04:59Z</time></trkpt><trkpt lat="44.68270619146878" lon="10.339156760814188"><ele>154.0</ele><time>2026-04-04T17:05:00Z</time></trkpt><trkpt lat="44.682680711842934" lon="10.339307755303011"><ele>153.25</ele><time>2026-04-04T17:05:01Z</time></trkpt><trkpt lat="44.682684788691354" lon="10.339448422205512"><ele>152.5</ele><time>2026-04-04T17:05:02Z</time></trkpt><trkpt lat="44.68264905153582" lon="10.339596909822959"><ele>151.75</ele><time>2026-04-04T17:05:03Z</time></trkpt><trkpt lat="44.68264128736838" lon="10.339749544101895"><ele>151.0</ele><time>2026-04-04T17:05:04Z</time></trkpt><trkpt lat="44.68261295216047" lon="10.33995233595821"><ele>150.5</ele><time>2026-04-04T17:05:05Z</time></trkpt><trkpt lat="44.682587915184456" lon="10.340141053410411"><ele>150.0</ele><time>2026-04-04T17:05:06Z</time></trkpt><trkpt lat="44.68256345875774" lon="10.340338625418688"><ele>149.5</ele><time>2026-04-04T17:05:07Z</time></trkpt><trkpt lat="44.68254989684101" lon="10.340545331470915"><ele>149.0</ele><time>2026-04-04T17:05:08Z</time></trkpt><trkpt lat="44.6825318888218" lon="10.340729045955998"><ele>149.0</ele><time>2026-04-04T17:05:09Z</time></trkpt><trkpt lat="44.682513319700504" lon="10.34090131585367"><ele>149.0</ele><time>2026-04-04T17:05:10Z</time></trkpt><trkpt lat="44.68249655640726" lon="10.341073105778774"><ele>149.0</ele><time>2026-04-04T17:05:11Z</time></trkpt><trkpt lat="44.68244516836325" lon="10.341250970352384"><ele>149.0</ele><time>2026-04-04T17:05:12Z</time></trkpt><trkpt lat="44.682425734034126" lon="10.341439624197978"><ele>149.5</ele><time>2026-04-04T17:05:13Z</time></trkpt><trkpt lat="44.6824081570207" lon="10.341620743855414"><ele>150.0</ele><time>2026-04-04T17:05:14Z</time></trkpt><trkpt lat="44.68239095800012" lon="10.341805011934733"><ele>150.5</ele><time>2026-04-04T17:05:15Z</time></trkpt><trkpt lat="44.682373767143474" lon="10.341987271385966"><ele>151.0</ele><time>2026-04-04T17:05:16Z</time></trkpt><trkpt lat="44.68235444413964" lon="10.34218004271059"><ele>150.5</ele><time>2026-04-04T17:05:17Z</time></trkpt><trkpt lat="44.682335028821264" lon="10.342373735011927"><ele>150.0</ele><time>2026-04-04T17:05:18Z</time></trkpt><trkpt lat="44.682316789421336" lon="10.342555696012505"><ele>149.5</ele><time>2026-04-04T17:05:19Z</time></trkpt><trkpt lat="44.682298713214244" lon="10.342736028970137"><ele>149.0</ele><time>2026-04-04T17:05:20Z</time></trkpt><trkpt lat="44.68228081637448" lon="10.342914572519053"><ele>148.5</ele><time>2026-04-04T17:05:21Z</time></trkpt><trkpt lat="44.68226185449243" lon="10.343100363468686"><ele>148.0</ele><time>2026-04-04T17:05:22Z</time></trkpt><trkpt lat="44.682242211029894" lon="10.343292510424092"><ele>147.5</ele><time>2026-04-04T17:05:23Z</time></trkpt><trkpt lat="44.68222384943149" lon="10.343472118536813"><ele>147.0</ele><time>2026-04-04T17:05:24Z</time></trkpt><trkpt lat="44.68220675473572" lon="10.343642120877432"><ele>147.0</ele><time>2026-04-04T17:05:25Z</time></trkpt><trkpt lat="44.68218959330543" lon="10.343813568208564"><ele>147.0</ele><time>2026-04-04T17:05:26Z</time></trkpt><trkpt lat="44.68218264233355" lon="10.343988006944675"><ele>147.0</ele><time>2026-04-04T17:05:27Z</time></trkpt><trkpt lat="44.682165946345435" lon="10.344170675737733"><ele>147.0</ele><time>2026-04-04T17:05:28Z</time></trkpt><trkpt lat="44.682135643422704" lon="10.344352542107291"><ele>147.25</ele><time>2026-04-04T17:05:29Z</time></trkpt><trkpt lat="44.68211683965475" lon="10.344534703243543"><ele>147.5</ele><time>2026-04-04T17:05:30Z</time></trkpt><trkpt lat="44.68209789453766" lon="10.344713966914952"><ele>147.75</ele><time>2026-04-04T17:05:31Z</time></trkpt><trkpt lat="44.6820801808566" lon="10.344881578444209"><ele>148.0</ele><time>2026-04-04T17:05:32Z</time></trkpt><trkpt lat="44.68206451168162" lon="10.345029844303689"><ele>147.8</ele><time>2026-04-04T17:05:33Z</time></trkpt><trkpt lat="44.68204906589939" lon="10.34517599637381"><ele>147.60000000000002</ele><time>2026-04-04T17:05:34Z</time></trkpt><trkpt lat="44.68203393693307" lon="10.345319150648907"><ele>147.39999999999998</ele><time>2026-04-04T17:05:35Z</time></trkpt><trkpt lat="44.68201898290561" lon="10.345444714101905"><ele>147.2</ele><time>2026-04-04T17:05:35.999Z</time></trkpt><trkpt lat="44.68200509808591" lon="10.345559428333468"><ele>147.0</ele><time>2026-04-04T17:05:36.999Z</time></trkpt><trkpt lat="44.68199298498472" lon="10.345657319990567"><ele>147.0</ele><time>2026-04-04T17:05:37.999Z</time></trkpt><trkpt lat="44.68198475687097" lon="10.34576172916748"><ele>147.0</ele><time>2026-04-04T17:05:39.999Z</time></trkpt><trkpt lat="44.68191795891549" lon="10.345730432377277"><ele>147.0</ele><time>2026-04-04T17:05:58Z</time></trkpt><trkpt lat="44.68181839288435" lon="10.345711081424131"><ele>147.0</ele><time>2026-04-04T17:06:00Z</time></trkpt><trkpt lat="44.681694955870945" lon="10.345638374048745"><ele>147.0</ele><time>2026-04-04T17:06:02Z</time></trkpt><trkpt lat="44.68160080025319" lon="10.345600434469103"><ele>147.25</ele><time>2026-04-04T17:06:03Z</time></trkpt><trkpt lat="44.68149656733547" lon="10.345582366997268"><ele>147.5</ele><time>2026-04-04T17:06:04Z</time></trkpt><trkpt lat="44.68137657253169" lon="10.3455349760076"><ele>147.75</ele><time>2026-04-04T17:06:05Z</time></trkpt><trkpt lat="44.68125878248079" lon="10.345465029792804"><ele>148.0</ele><time>2026-04-04T17:06:06Z</time></trkpt><trkpt lat="44.68112413400421" lon="10.345412401472979"><ele>148.0</ele><time>2026-04-04T17:06:07Z</time></trkpt><trkpt lat="44.68098666110466" lon="10.345357276907691"><ele>148.0</ele><time>2026-04-04T17:06:08Z</time></trkpt><trkpt lat="44.68084457648773" lon="10.34530011354918"><ele>148.0</ele><time>2026-04-04T17:06:09Z</time></trkpt><trkpt lat="44.680691351789235" lon="10.345260147066991"><ele>148.0</ele><time>2026-04-04T17:06:10Z</time></trkpt><trkpt lat="44.68055702264625" lon="10.34518470135601"><ele>148.0</ele><time>2026-04-04T17:06:11Z</time></trkpt><trkpt lat="44.68041564589892" lon="10.345128075605691"><ele>148.0</ele><time>2026-04-04T17:06:12Z</time></trkpt><trkpt lat="44.6802691631571" lon="10.34506940474706"><ele>148.0</ele><time>2026-04-04T17:06:13Z</time></trkpt><trkpt lat="44.680135035779045" lon="10.34501568259437"><ele>148.0</ele><time>2026-04-04T17:06:14Z</time></trkpt><trkpt lat="44.68002062151695" lon="10.344969856152481"><ele>148.4</ele><time>2026-04-04T17:06:15Z</time></trkpt><trkpt lat="44.67991635877324" lon="10.34492743921684"><ele>148.8</ele><time>2026-04-04T17:06:16Z</time></trkpt><trkpt lat="44.679827361037596" lon="10.34489039171363"><ele>149.2</ele><time>2026-04-04T17:06:17Z</time></trkpt><trkpt lat="44.67973795645052" lon="10.34485344994799"><ele>149.6</ele><time>2026-04-04T17:06:18Z</time></trkpt><trkpt lat="44.67963985314617" lon="10.344816458122567"><ele>150.0</ele><time>2026-04-04T17:06:19Z</time></trkpt><trkpt lat="44.67953299728479" lon="10.344781217737447"><ele>149.5</ele><time>2026-04-04T17:06:20Z</time></trkpt><trkpt lat="44.67941746402779" lon="10.344755032548287"><ele>149.0</ele><time>2026-04-04T17:06:21Z</time></trkpt><trkpt lat="44.67929599578689" lon="10.34473527492435"><ele>148.5</ele><time>2026-04-04T17:06:22Z</time></trkpt><trkpt lat="44.67916988996316" lon="10.34472715869058"><ele>148.0</ele><time>2026-04-04T17:06:23Z</time></trkpt><trkpt lat="44.67903888974866" lon="10.34472386584467"><ele>148.0</ele><time>2026-04-04T17:06:24Z</time></trkpt><trkpt lat="44.67890536774671" lon="10.344724628526755"><ele>148.0</ele><time>2026-04-04T17:06:25Z</time></trkpt><trkpt lat="44.67877963071476" lon="10.34472709275014"><ele>148.0</ele><time>2026-04-04T17:06:26Z</time></trkpt><trkpt lat="44.67861649581908" lon="10.344732394063467"><ele>148.0</ele><time>2026-04-04T17:06:27Z</time></trkpt><trkpt lat="44.67847740225507" lon="10.344737490456508"><ele>148.25</ele><time>2026-04-04T17:06:28Z</time></trkpt><trkpt lat="44.67834857096541" lon="10.344742210839742"><ele>148.5</ele><time>2026-04-04T17:06:29Z</time></trkpt><trkpt lat="44.678227116417204" lon="10.344746663140086"><ele>148.75</ele><time>2026-04-04T17:06:30Z</time></trkpt><trkpt lat="44.67812037575381" lon="10.344749815557822"><ele>149.0</ele><time>2026-04-04T17:06:31Z</time></trkpt><trkpt lat="44.67801950643877" lon="10.344752792759852"><ele>149.0</ele><time>2026-04-04T17:06:32Z</time></trkpt><trkpt lat="44.67792922175632" lon="10.34475785749324"><ele>149.0</ele><time>2026-04-04T17:06:33Z</time></trkpt><trkpt lat="44.677834927580456" lon="10.344771816196065"><ele>149.0</ele><time>2026-04-04T17:06:34Z</time></trkpt><trkpt lat="44.67774884917106" lon="10.344792030343058"><ele>149.0</ele><time>2026-04-04T17:06:35Z</time></trkpt><trkpt lat="44.677653784897515" lon="10.344819843904698"><ele>149.0</ele><time>2026-04-04T17:06:36Z</time></trkpt><trkpt lat="44.67754643796375" lon="10.34485312138173"><ele>149.0</ele><time>2026-04-04T17:06:37Z</time></trkpt><trkpt lat="44.67741544463103" lon="10.344894176942132"><ele>149.0</ele><time>2026-04-04T17:06:38Z</time></trkpt><trkpt lat="44.677306548142006" lon="10.34501566953784"><ele>149.0</ele><time>2026-04-04T17:06:39Z</time></trkpt><trkpt lat="44.67718727433956" lon="10.34514072551403"><ele>149.0</ele><time>2026-04-04T17:06:40Z</time></trkpt><trkpt lat="44.67707382794311" lon="10.345270271830145"><ele>149.0</ele><time>2026-04-04T17:06:41Z</time></trkpt><trkpt lat="44.67697615889133" lon="10.345414891043635"><ele>149.0</ele><time>2026-04-04T17:06:42Z</time></trkpt><trkpt lat="44.67686762810807" lon="10.345525893577623"><ele>149.0</ele><time>2026-04-04T17:06:43Z</time></trkpt><trkpt lat="44.67680273707921" lon="10.345572182287931"><ele>149.0</ele><time>2026-04-04T17:06:44Z</time></trkpt><trkpt lat="44.67669385624333" lon="10.345573221813652"><ele>149.66666666666666</ele><time>2026-04-04T17:06:46Z</time></trkpt><trkpt lat="44.67662683078878" lon="10.345588847130493"><ele>150.33333333333334</ele><time>2026-04-04T17:06:48Z</time></trkpt><trkpt lat="44.67670968342626" lon="10.345955594746833"><ele>151.0</ele><time>2026-04-04T17:06:54Z</time></trkpt><trkpt lat="44.67677046839843" lon="10.34611723844146"><ele>151.0</ele><time>2026-04-04T17:06:55Z</time></trkpt><trkpt lat="44.67681545297092" lon="10.34629993547323"><ele>151.0</ele><time>2026-04-04T17:06:56Z</time></trkpt><trkpt lat="44.67685012072309" lon="10.346477234939611"><ele>151.0</ele><time>2026-04-04T17:06:57Z</time></trkpt><trkpt lat="44.67687860491466" lon="10.34665666077592"><ele>151.0</ele><time>2026-04-04T17:06:58Z</time></trkpt><trkpt lat="44.67691117153031" lon="10.346832363410524"><ele>150.5</ele><time>2026-04-04T17:06:59Z</time></trkpt><trkpt lat="44.6769548914542" lon="10.346991961897961"><ele>150.0</ele><time>2026-04-04T17:07:00Z</time></trkpt><trkpt lat="44.677000785359894" lon="10.34711770518446"><ele>149.5</ele><time>2026-04-04T17:07:01Z</time></trkpt><trkpt lat="44.67707203499224" lon="10.347256056938308"><ele>149.0</ele><time>2026-04-04T17:07:02Z</time></trkpt><trkpt lat="44.677163886155846" lon="10.347393837656005"><ele>149.0</ele><time>2026-04-04T17:07:03Z</time></trkpt><trkpt lat="44.677271713330185" lon="10.347539390036216"><ele>149.0</ele><time>2026-04-04T17:07:04Z</time></trkpt><trkpt lat="44.67738043841899" lon="10.347687273913659"><ele>149.0</ele><time>2026-04-04T17:07:05Z</time></trkpt><trkpt lat="44.67750717046753" lon="10.347846411371798"><ele>149.0</ele><time>2026-04-04T17:07:06Z</time></trkpt><trkpt lat="44.67761407526097" lon="10.347986277445457"><ele>149.0</ele><time>2026-04-04T17:07:07Z</time></trkpt><trkpt lat="44.67773026788887" lon="10.348123228447303"><ele>149.0</ele><time>2026-04-04T17:07:08Z</time></trkpt><trkpt lat="44.677845088321135" lon="10.34825253127027"><ele>149.0</ele><time>2026-04-04T17:07:09Z</time></trkpt><trkpt lat="44.677962620831956" lon="10.348385256449818"><ele>148.66666666666666</ele><time>2026-04-04T17:07:10Z</time></trkpt><trkpt lat="44.67808060761919" lon="10.348514584717375"><ele>148.33333333333334</ele><time>2026-04-04T17:07:11Z</time></trkpt><trkpt lat="44.678212608458445" lon="10.348664483406942"><ele>148.0</ele><time>2026-04-04T17:07:12Z</time></trkpt><trkpt lat="44.67835316145489" lon="10.348823365792999"><ele>148.0</ele><time>2026-04-04T17:07:13Z</time></trkpt><trkpt lat="44.67848343860467" lon="10.348976422007063"><ele>148.0</ele><time>2026-04-04T17:07:14Z</time></trkpt><trkpt lat="44.67861733462156" lon="10.349131439306728"><ele>148.0</ele><time>2026-04-04T17:07:15Z</time></trkpt><trkpt lat="44.67874269144093" lon="10.349282861342626"><ele>147.33333333333334</ele><time>2026-04-04T17:07:16Z</time></trkpt><trkpt lat="44.67886819047949" lon="10.34945401987282"><ele>146.66666666666666</ele><time>2026-04-04T17:07:17Z</time></trkpt><trkpt lat="44.678978903971654" lon="10.349634273067531"><ele>146.0</ele><time>2026-04-04T17:07:18Z</time></trkpt><trkpt lat="44.67908997423799" lon="10.349835271823643"><ele>146.0</ele><time>2026-04-04T17:07:19Z</time></trkpt><trkpt lat="44.67918865963796" lon="10.350009716719034"><ele>146.0</ele><time>2026-04-04T17:07:20Z</time></trkpt><trkpt lat="44.679301640731424" lon="10.350193451426026"><ele>146.0</ele><time>2026-04-04T17:07:21Z</time></trkpt><trkpt lat="44.67941706099729" lon="10.35036098350213"><ele>146.0</ele><time>2026-04-04T17:07:22Z</time></trkpt><trkpt lat="44.67954143792527" lon="10.350510326527106"><ele>146.0</ele><time>2026-04-04T17:07:23Z</time></trkpt><trkpt lat="44.67967902581845" lon="10.350649215178754"><ele>146.0</ele><time>2026-04-04T17:07:24Z</time></trkpt><trkpt lat="44.67982250151564" lon="10.350789778443087"><ele>146.0</ele><time>2026-04-04T17:07:25Z</time></trkpt><trkpt lat="44.67996860783582" lon="10.35093419476724"><ele>146.0</ele><time>2026-04-04T17:07:26Z</time></trkpt><trkpt lat="44.680119478063936" lon="10.351083928999365"><ele>146.0</ele><time>2026-04-04T17:07:27Z</time></trkpt><trkpt lat="44.680278515522666" lon="10.351235839850858"><ele>145.66666666666666</ele><time>2026-04-04T17:07:28Z</time></trkpt><trkpt lat="44.680438223310794" lon="10.351390316768315"><ele>145.33333333333334</ele><time>2026-04-04T17:07:29Z</time></trkpt><trkpt lat="44.68059177129178" lon="10.351554314646014"><ele>145.0</ele><time>2026-04-04T17:07:30Z</time></trkpt><trkpt lat="44.68073564986316" lon="10.351734831160321"><ele>145.0</ele><time>2026-04-04T17:07:31Z</time></trkpt><trkpt lat="44.680852609503205" lon="10.351952271275891"><ele>145.0</ele><time>2026-04-04T17:07:32Z</time></trkpt><trkpt lat="44.680982683365684" lon="10.35216122865924"><ele>145.0</ele><time>2026-04-04T17:07:33Z</time></trkpt><trkpt lat="44.68111173568123" lon="10.352370946802678"><ele>144.0</ele><time>2026-04-04T17:07:34Z</time></trkpt><trkpt lat="44.68124575874021" lon="10.352590590655382"><ele>143.0</ele><time>2026-04-04T17:07:35Z</time></trkpt><trkpt lat="44.68137102328945" lon="10.352787419727997"><ele>142.0</ele><time>2026-04-04T17:07:36Z</time></trkpt><trkpt lat="44.68149725164637" lon="10.352977773488039"><ele>142.0</ele><time>2026-04-04T17:07:37Z</time></trkpt><trkpt lat="44.68165266087259" lon="10.353133579734495"><ele>142.0</ele><time>2026-04-04T17:07:38Z</time></trkpt><trkpt lat="44.6818112734175" lon="10.35328583886721"><ele>142.0</ele><time>2026-04-04T17:07:39Z</time></trkpt><trkpt lat="44.681992941523774" lon="10.353392618873754"><ele>142.0</ele><time>2026-04-04T17:07:40Z</time></trkpt><trkpt lat="44.68218733738683" lon="10.353486738507472"><ele>142.0</ele><time>2026-04-04T17:07:41Z</time></trkpt><trkpt lat="44.68239491731353" lon="10.353591419888149"><ele>142.0</ele><time>2026-04-04T17:07:42Z</time></trkpt><trkpt lat="44.68256861307339" lon="10.353702724118891"><ele>142.0</ele><time>2026-04-04T17:07:43Z</time></trkpt><trkpt lat="44.682743895131054" lon="10.353800760874401"><ele>142.0</ele><time>2026-04-04T17:07:44Z</time></trkpt><trkpt lat="44.68292366168188" lon="10.353889554399265"><ele>142.0</ele><time>2026-04-04T17:07:45Z</time></trkpt><trkpt lat="44.68312397632221" lon="10.353957443447346"><ele>142.33333333333334</ele><time>2026-04-04T17:07:45.999Z</time></trkpt><trkpt lat="44.683312259467606" lon="10.353949522170229"><ele>142.66666666666666</ele><time>2026-04-04T17:07:46.999Z</time></trkpt><trkpt lat="44.68349656384111" lon="10.3538904312511"><ele>143.0</ele><time>2026-04-04T17:07:47.999Z</time></trkpt><trkpt lat="44.683682747493336" lon="10.353804798271478"><ele>142.33333333333331</ele><time>2026-04-04T17:07:48.999Z</time></trkpt><trkpt lat="44.68388559434156" lon="10.353712732384992"><ele>141.66666666666666</ele><time>2026-04-04T17:07:49.999Z</time></trkpt><trkpt lat="44.684092895753345" lon="10.353629338749679"><ele>141.0</ele><time>2026-04-04T17:07:50.999Z</time></trkpt><trkpt lat="44.68431256165235" lon="10.353557121264863"><ele>141.0</ele><time>2026-04-04T17:07:51.999Z</time></trkpt><trkpt lat="44.6845123894921" lon="10.353497395720415"><ele>141.0</ele><time>2026-04-04T17:07:52.999Z</time></trkpt><trkpt lat="44.68475388382" lon="10.353489644924103"><ele>141.0</ele><time>2026-04-04T17:07:53.999Z</time></trkpt><trkpt lat="44.68494962042462" lon="10.353471494259304"><ele>141.0</ele><time>2026-04-04T17:07:54.999Z</time></trkpt><trkpt lat="44.685163372893015" lon="10.353440224546947"><ele>141.0</ele><time>2026-04-04T17:07:55.999Z</time></trkpt><trkpt lat="44.68538561031721" lon="10.353437720655373"><ele>141.0</ele><time>2026-04-04T17:07:56.999Z</time></trkpt><trkpt lat="44.68565309651255" lon="10.353429404229631"><ele>141.0</ele><time>2026-04-04T17:07:57.999Z</time></trkpt><trkpt lat="44.685874192841155" lon="10.35342244346451"><ele>141.0</ele><time>2026-04-04T17:07:58.999Z</time></trkpt><trkpt lat="44.686132178836694" lon="10.353431114616454"><ele>140.0</ele><time>2026-04-04T17:07:59.999Z</time></trkpt><trkpt lat="44.68636938597034" lon="10.35345053970241"><ele>139.0</ele><time>2026-04-04T17:08:00.999Z</time></trkpt><trkpt lat="44.68658768932892" lon="10.353472584196089"><ele>139.0</ele><time>2026-04-04T17:08:02Z</time></trkpt><trkpt lat="44.686797656873" lon="10.353480917263525"><ele>139.0</ele><time>2026-04-04T17:08:03Z</time></trkpt><trkpt lat="44.68703990700686" lon="10.35348987995908"><ele>138.66666666666669</ele><time>2026-04-04T17:08:04Z</time></trkpt><trkpt lat="44.68724011766015" lon="10.353499030005185"><ele>138.33333333333334</ele><time>2026-04-04T17:08:05Z</time></trkpt><trkpt lat="44.68746460521801" lon="10.353510111874996"><ele>138.0</ele><time>2026-04-04T17:08:06Z</time></trkpt><trkpt lat="44.687669309381086" lon="10.353517425719037"><ele>137.33333333333334</ele><time>2026-04-04T17:08:07Z</time></trkpt><trkpt lat="44.687892838101746" lon="10.35351671911824"><ele>136.66666666666669</ele><time>2026-04-04T17:08:08Z</time></trkpt><trkpt lat="44.688068599624565" lon="10.353523014261466"><ele>136.0</ele><time>2026-04-04T17:08:09Z</time></trkpt><trkpt lat="44.68824378801589" lon="10.35353120299779"><ele>136.0</ele><time>2026-04-04T17:08:10Z</time></trkpt><trkpt lat="44.68842589086216" lon="10.353532854159521"><ele>136.0</ele><time>2026-04-04T17:08:11Z</time></trkpt><trkpt lat="44.6886206112718" lon="10.35352947032021"><ele>136.0</ele><time>2026-04-04T17:08:12Z</time></trkpt><trkpt lat="44.68882222539647" lon="10.353529317642717"><ele>135.66666666666669</ele><time>2026-04-04T17:08:13Z</time></trkpt><trkpt lat="44.6890132098271" lon="10.353541040183856"><ele>135.33333333333334</ele><time>2026-04-04T17:08:14Z</time></trkpt><trkpt lat="44.68918202885596" lon="10.353539189207362"><ele>135.0</ele><time>2026-04-04T17:08:15Z</time></trkpt><trkpt lat="44.68934990578792" lon="10.353537654896067"><ele>135.66666666666666</ele><time>2026-04-04T17:08:16Z</time></trkpt><trkpt lat="44.689509612233735" lon="10.353527505253986"><ele>136.33333333333331</ele><time>2026-04-04T17:08:17Z</time></trkpt><trkpt lat="44.68968846975576" lon="10.353517234418451"><ele>137.0</ele><time>2026-04-04T17:08:18Z</time></trkpt><trkpt lat="44.689843968813854" lon="10.353507406143141"><ele>137.0</ele><time>2026-04-04T17:08:19Z</time></trkpt><trkpt lat="44.690004872258235" lon="10.353494216023446"><ele>137.0</ele><time>2026-04-04T17:08:20Z</time></trkpt><trkpt lat="44.69016540331811" lon="10.353481743151898"><ele>137.0</ele><time>2026-04-04T17:08:21Z</time></trkpt><trkpt lat="44.69033674785363" lon="10.353471257078292"><ele>136.66666666666666</ele><time>2026-04-04T17:08:22Z</time></trkpt><trkpt lat="44.69050232956" lon="10.353457842409647"><ele>136.33333333333334</ele><time>2026-04-04T17:08:23Z</time></trkpt><trkpt lat="44.690669050539086" lon="10.353444344609688"><ele>136.0</ele><time>2026-04-04T17:08:24Z</time></trkpt><trkpt lat="44.69083672735075" lon="10.353436873599538"><ele>136.0</ele><time>2026-04-04T17:08:25Z</time></trkpt><trkpt lat="44.69101319590973" lon="10.353434884911966"><ele>136.0</ele><time>2026-04-04T17:08:26Z</time></trkpt><trkpt lat="44.69116249750024" lon="10.353424106311467"><ele>136.0</ele><time>2026-04-04T17:08:27Z</time></trkpt><trkpt lat="44.69132350130678" lon="10.353416533260498"><ele>136.33333333333334</ele><time>2026-04-04T17:08:28Z</time></trkpt><trkpt lat="44.69148871645491" lon="10.353406511022067"><ele>136.66666666666666</ele><time>2026-04-04T17:08:29Z</time></trkpt><trkpt lat="44.691685792824565" lon="10.353402515130387"><ele>137.0</ele><time>2026-04-04T17:08:30Z</time></trkpt><trkpt lat="44.691830998376226" lon="10.353407474615718"><ele>136.0</ele><time>2026-04-04T17:08:31Z</time></trkpt><trkpt lat="44.691998999890856" lon="10.35339402979085"><ele>135.0</ele><time>2026-04-04T17:08:32Z</time></trkpt><trkpt lat="44.69216941521362" lon="10.353379472447536"><ele>134.0</ele><time>2026-04-04T17:08:33Z</time></trkpt><trkpt lat="44.6923534813689" lon="10.353348878591428"><ele>134.0</ele><time>2026-04-04T17:08:34Z</time></trkpt><trkpt lat="44.692508184249824" lon="10.353351627997585"><ele>134.0</ele><time>2026-04-04T17:08:35Z</time></trkpt><trkpt lat="44.69268057984136" lon="10.353350862226181"><ele>134.0</ele><time>2026-04-04T17:08:36Z</time></trkpt><trkpt lat="44.6928383062616" lon="10.35335595062057"><ele>134.33333333333331</ele><time>2026-04-04T17:08:37Z</time></trkpt><trkpt lat="44.69301495057769" lon="10.353360575321378"><ele>134.66666666666666</ele><time>2026-04-04T17:08:38Z</time></trkpt><trkpt lat="44.69317486856353" lon="10.35336648623286"><ele>135.0</ele><time>2026-04-04T17:08:39Z</time></trkpt><trkpt lat="44.69333449124293" lon="10.353377572195585"><ele>135.0</ele><time>2026-04-04T17:08:40Z</time></trkpt><trkpt lat="44.6935104792722" lon="10.353387303714824"><ele>135.0</ele><time>2026-04-04T17:08:41Z</time></trkpt><trkpt lat="44.69370819908987" lon="10.353407241564726"><ele>135.0</ele><time>2026-04-04T17:08:42Z</time></trkpt><trkpt lat="44.69390652598034" lon="10.353439485303266"><ele>135.33333333333334</ele><time>2026-04-04T17:08:43Z</time></trkpt><trkpt lat="44.694084499304346" lon="10.353475916356894"><ele>135.66666666666669</ele><time>2026-04-04T17:08:44Z</time></trkpt><trkpt lat="44.69424942236329" lon="10.353477468052722"><ele>136.0</ele><time>2026-04-04T17:08:45Z</time></trkpt><trkpt lat="44.69441329666578" lon="10.35346865031794"><ele>135.5</ele><time>2026-04-04T17:08:46Z</time></trkpt><trkpt lat="44.69453768731798" lon="10.353468981094657"><ele>135.0</ele><time>2026-04-04T17:08:47Z</time></trkpt><trkpt lat="44.69464806583294" lon="10.353481668421257"><ele>134.5</ele><time>2026-04-04T17:08:48Z</time></trkpt><trkpt lat="44.69477659183356" lon="10.35349186589023"><ele>134.0</ele><time>2026-04-04T17:08:49Z</time></trkpt><trkpt lat="44.69490371592641" lon="10.353502433003834"><ele>134.0</ele><time>2026-04-04T17:08:50Z</time></trkpt><trkpt lat="44.69498839965951" lon="10.353506380990673"><ele>134.0</ele><time>2026-04-04T17:08:51Z</time></trkpt><trkpt lat="44.695081505965085" lon="10.353507046593261"><ele>134.0</ele><time>2026-04-04T17:08:52Z</time></trkpt><trkpt lat="44.69516761650383" lon="10.353510811454404"><ele>134.0</ele><time>2026-04-04T17:08:53Z</time></trkpt><trkpt lat="44.695250582691585" lon="10.353517423502694"><ele>134.0</ele><time>2026-04-04T17:08:54Z</time></trkpt><trkpt lat="44.695342125821064" lon="10.35352189314632"><ele>134.0</ele><time>2026-04-04T17:08:55Z</time></trkpt><trkpt lat="44.695428760800965" lon="10.3535195587548"><ele>134.0</ele><time>2026-04-04T17:08:56Z</time></trkpt><trkpt lat="44.69551176576875" lon="10.353515506396096"><ele>134.0</ele><time>2026-04-04T17:08:57Z</time></trkpt><trkpt lat="44.69560248677582" lon="10.353514706451943"><ele>134.0</ele><time>2026-04-04T17:08:58Z</time></trkpt><trkpt lat="44.69572292281041" lon="10.353512398921586"><ele>134.0</ele><time>2026-04-04T17:08:59Z</time></trkpt><trkpt lat="44.69585669194343" lon="10.353526388472284"><ele>134.0</ele><time>2026-04-04T17:09:00Z</time></trkpt><trkpt lat="44.69600613788374" lon="10.353539034166708"><ele>134.0</ele><time>2026-04-04T17:09:01Z</time></trkpt><trkpt lat="44.69617394150017" lon="10.353537582177102"><ele>134.0</ele><time>2026-04-04T17:09:02Z</time></trkpt><trkpt lat="44.69632796111402" lon="10.353536246940571"><ele>134.0</ele><time>2026-04-04T17:09:03Z</time></trkpt><trkpt lat="44.69647973062813" lon="10.353537682995128"><ele>134.0</ele><time>2026-04-04T17:09:04Z</time></trkpt><trkpt lat="44.69662015742751" lon="10.353549190367682"><ele>134.0</ele><time>2026-04-04T17:09:05Z</time></trkpt><trkpt lat="44.69675634703214" lon="10.353569685333952"><ele>134.0</ele><time>2026-04-04T17:09:06Z</time></trkpt><trkpt lat="44.696899915979635" lon="10.353580167736556"><ele>134.0</ele><time>2026-04-04T17:09:07Z</time></trkpt><trkpt lat="44.69705606402195" lon="10.35356457672612"><ele>134.0</ele><time>2026-04-04T17:09:08Z</time></trkpt><trkpt lat="44.69722235640726" lon="10.353534694102086"><ele>134.0</ele><time>2026-04-04T17:09:09Z</time></trkpt><trkpt lat="44.69739997424705" lon="10.35351577784058"><ele>134.0</ele><time>2026-04-04T17:09:10Z</time></trkpt><trkpt lat="44.69757888472469" lon="10.353514219576432"><ele>133.33333333333331</ele><time>2026-04-04T17:09:11Z</time></trkpt><trkpt lat="44.69777115334152" lon="10.35350594141757"><ele>132.66666666666666</ele><time>2026-04-04T17:09:12Z</time></trkpt><trkpt lat="44.69794408793746" lon="10.3534862999366"><ele>132.0</ele><time>2026-04-04T17:09:13Z</time></trkpt><trkpt lat="44.69810355682829" lon="10.353475650183631"><ele>132.0</ele><time>2026-04-04T17:09:14Z</time></trkpt><trkpt lat="44.69827294013296" lon="10.35347097658466"><ele>132.0</ele><time>2026-04-04T17:09:15Z</time></trkpt><trkpt lat="44.69844822580969" lon="10.353464776255253"><ele>132.0</ele><time>2026-04-04T17:09:16Z</time></trkpt><trkpt lat="44.69863642892446" lon="10.353459231894472"><ele>132.0</ele><time>2026-04-04T17:09:17Z</time></trkpt><trkpt lat="44.698828685603914" lon="10.353452831373621"><ele>132.0</ele><time>2026-04-04T17:09:18Z</time></trkpt><trkpt lat="44.699037202636205" lon="10.35344123487859"><ele>132.0</ele><time>2026-04-04T17:09:19Z</time></trkpt><trkpt lat="44.69924034927413" lon="10.353428148701349"><ele>131.33333333333334</ele><time>2026-04-04T17:09:20Z</time></trkpt><trkpt lat="44.699432859998566" lon="10.35341931886853"><ele>130.66666666666669</ele><time>2026-04-04T17:09:21Z</time></trkpt><trkpt lat="44.69962883223431" lon="10.353411998530802"><ele>130.0</ele><time>2026-04-04T17:09:22Z</time></trkpt><trkpt lat="44.6998297296474" lon="10.353421607845315"><ele>130.0</ele><time>2026-04-04T17:09:23Z</time></trkpt><trkpt lat="44.70003921212051" lon="10.353469465510223"><ele>130.0</ele><time>2026-04-04T17:09:24Z</time></trkpt><trkpt lat="44.70024644434379" lon="10.353524772275335"><ele>130.0</ele><time>2026-04-04T17:09:25Z</time></trkpt><trkpt lat="44.70044172374895" lon="10.3535582647808"><ele>129.66666666666669</ele><time>2026-04-04T17:09:26Z</time></trkpt><trkpt lat="44.70062836879408" lon="10.353617422299376"><ele>129.33333333333334</ele><time>2026-04-04T17:09:27Z</time></trkpt><trkpt lat="44.70082149037004" lon="10.353674147884664"><ele>129.0</ele><time>2026-04-04T17:09:28Z</time></trkpt><trkpt lat="44.701001372051124" lon="10.353730938969465"><ele>128.66666666666666</ele><time>2026-04-04T17:09:29Z</time></trkpt><trkpt lat="44.70117952837964" lon="10.353785786910024"><ele>128.33333333333331</ele><time>2026-04-04T17:09:30Z</time></trkpt><trkpt lat="44.70135190334118" lon="10.353822604655523"><ele>128.0</ele><time>2026-04-04T17:09:31Z</time></trkpt><trkpt lat="44.70152355828913" lon="10.353838534198065"><ele>128.0</ele><time>2026-04-04T17:09:32Z</time></trkpt><trkpt lat="44.70168261180201" lon="10.353827158446384"><ele>128.0</ele><time>2026-04-04T17:09:33Z</time></trkpt><trkpt lat="44.701855961219046" lon="10.353796864733694"><ele>128.0</ele><time>2026-04-04T17:09:34Z</time></trkpt><trkpt lat="44.70198255997343" lon="10.353746123415341"><ele>127.66666666666666</ele><time>2026-04-04T17:09:35Z</time></trkpt><trkpt lat="44.70217247775656" lon="10.353695182645836"><ele>127.33333333333334</ele><time>2026-04-04T17:09:36Z</time></trkpt><trkpt lat="44.70232149743254" lon="10.35357930215966"><ele>127.0</ele><time>2026-04-04T17:09:37Z</time></trkpt><trkpt lat="44.702489597319165" lon="10.353484770978966"><ele>127.0</ele><time>2026-04-04T17:09:38Z</time></trkpt><trkpt lat="44.70265491548164" lon="10.35340545890198"><ele>127.0</ele><time>2026-04-04T17:09:39Z</time></trkpt><trkpt lat="44.70285601253186" lon="10.353343263285359"><ele>127.0</ele><time>2026-04-04T17:09:40Z</time></trkpt><trkpt lat="44.70302128519303" lon="10.353349341398935"><ele>126.66666666666667</ele><time>2026-04-04T17:09:41Z</time></trkpt><trkpt lat="44.70320724740874" lon="10.35335857987651"><ele>126.33333333333334</ele><time>2026-04-04T17:09:42Z</time></trkpt><trkpt lat="44.70339129900007" lon="10.353364455453946"><ele>126.0</ele><time>2026-04-04T17:09:43Z</time></trkpt><trkpt lat="44.70360665264465" lon="10.35342205731254"><ele>125.66666666666666</ele><time>2026-04-04T17:09:44Z</time></trkpt><trkpt lat="44.7037707617805" lon="10.353449811176805"><ele>125.33333333333333</ele><time>2026-04-04T17:09:45Z</time></trkpt><trkpt lat="44.703964323586305" lon="10.353484237225944"><ele>125.0</ele><time>2026-04-04T17:09:46Z</time></trkpt><trkpt lat="44.70414062138377" lon="10.353518765320525"><ele>125.0</ele><time>2026-04-04T17:09:47Z</time></trkpt><trkpt lat="44.70432607977141" lon="10.353558533163573"><ele>125.0</ele><time>2026-04-04T17:09:48Z</time></trkpt><trkpt lat="44.70452742957593" lon="10.353582852020924"><ele>125.0</ele><time>2026-04-04T17:09:49Z</time></trkpt><trkpt lat="44.70473659864013" lon="10.353606016406628"><ele>124.5</ele><time>2026-04-04T17:09:50Z</time></trkpt><trkpt lat="44.7049477608991" lon="10.353618804004524"><ele>124.0</ele><time>2026-04-04T17:09:51Z</time></trkpt><trkpt lat="44.70518646487241" lon="10.353638058323854"><ele>124.0</ele><time>2026-04-04T17:09:52Z</time></trkpt><trkpt lat="44.7053839127129" lon="10.353701288111635"><ele>124.0</ele><time>2026-04-04T17:09:53Z</time></trkpt><trkpt lat="44.70560434564244" lon="10.353741123791606"><ele>124.0</ele><time>2026-04-04T17:09:54Z</time></trkpt><trkpt lat="44.70581326248593" lon="10.353806245861438"><ele>124.0</ele><time>2026-04-04T17:09:55Z</time></trkpt><trkpt lat="44.70601244741179" lon="10.35386058142912"><ele>124.0</ele><time>2026-04-04T17:09:56Z</time></trkpt><trkpt lat="44.70621836824672" lon="10.353918834803574"><ele>124.0</ele><time>2026-04-04T17:09:57Z</time></trkpt><trkpt lat="44.70642554425177" lon="10.353971925509782"><ele>123.66666666666667</ele><time>2026-04-04T17:09:58Z</time></trkpt><trkpt lat="44.70660750610956" lon="10.35401856002596"><ele>123.33333333333334</ele><time>2026-04-04T17:09:59Z</time></trkpt><trkpt lat="44.70681334943209" lon="10.354094670210573"><ele>123.0</ele><time>2026-04-04T17:10:00Z</time></trkpt><trkpt lat="44.706949059456996" lon="10.354130534458124"><ele>122.66666666666666</ele><time>2026-04-04T17:10:01Z</time></trkpt><trkpt lat="44.70711000652977" lon="10.354185050744876"><ele>122.33333333333333</ele><time>2026-04-04T17:10:02Z</time></trkpt><trkpt lat="44.70727482680091" lon="10.354253438146745"><ele>122.0</ele><time>2026-04-04T17:10:03Z</time></trkpt><trkpt lat="44.707464849189705" lon="10.35432875099188"><ele>122.0</ele><time>2026-04-04T17:10:04Z</time></trkpt><trkpt lat="44.70765754433146" lon="10.354397217708774"><ele>122.0</ele><time>2026-04-04T17:10:05Z</time></trkpt><trkpt lat="44.707867273098444" lon="10.354470844510764"><ele>122.0</ele><time>2026-04-04T17:10:06Z</time></trkpt><trkpt lat="44.70805759616755" lon="10.354540903934408"><ele>121.66666666666666</ele><time>2026-04-04T17:10:07Z</time></trkpt><trkpt lat="44.70825210099653" lon="10.354641253661596"><ele>121.33333333333334</ele><time>2026-04-04T17:10:08Z</time></trkpt><trkpt lat="44.708445425540766" lon="10.354751219449021"><ele>121.0</ele><time>2026-04-04T17:10:09Z</time></trkpt><trkpt lat="44.708633706240256" lon="10.354874592533454"><ele>121.0</ele><time>2026-04-04T17:10:10Z</time></trkpt><trkpt lat="44.708820313325795" lon="10.355004048053202"><ele>121.0</ele><time>2026-04-04T17:10:11Z</time></trkpt><trkpt lat="44.709008291014314" lon="10.355125149762133"><ele>121.0</ele><time>2026-04-04T17:10:12Z</time></trkpt><trkpt lat="44.70919864593416" lon="10.355233346941272"><ele>121.0</ele><time>2026-04-04T17:10:13Z</time></trkpt><trkpt lat="44.70937388705959" lon="10.355325508609114"><ele>121.0</ele><time>2026-04-04T17:10:14Z</time></trkpt><trkpt lat="44.70953957743484" lon="10.355413347961765"><ele>121.0</ele><time>2026-04-04T17:10:15Z</time></trkpt><trkpt lat="44.7097025119298" lon="10.35549264795186"><ele>120.0</ele><time>2026-04-04T17:10:16Z</time></trkpt><trkpt lat="44.709874753377726" lon="10.355562547649782"><ele>119.0</ele><time>2026-04-04T17:10:17Z</time></trkpt><trkpt lat="44.71004165027204" lon="10.3555964299355"><ele>118.0</ele><time>2026-04-04T17:10:18Z</time></trkpt><trkpt lat="44.710222067313325" lon="10.355591540571316"><ele>118.66666666666667</ele><time>2026-04-04T17:10:19Z</time></trkpt><trkpt lat="44.710405026281094" lon="10.35556438063828"><ele>119.33333333333334</ele><time>2026-04-04T17:10:20Z</time></trkpt><trkpt lat="44.71059350477778" lon="10.355541995007167"><ele>120.0</ele><time>2026-04-04T17:10:21Z</time></trkpt><trkpt lat="44.71078633261593" lon="10.355525990433598"><ele>120.0</ele><time>2026-04-04T17:10:22Z</time></trkpt><trkpt lat="44.71098368862658" lon="10.355495233564989"><ele>120.0</ele><time>2026-04-04T17:10:23Z</time></trkpt><trkpt lat="44.71118127494865" lon="10.355433164115285"><ele>120.0</ele><time>2026-04-04T17:10:24Z</time></trkpt><trkpt lat="44.71136838393302" lon="10.355342049998628"><ele>120.0</ele><time>2026-04-04T17:10:25Z</time></trkpt><trkpt lat="44.71155964475529" lon="10.355244366904993"><ele>120.0</ele><time>2026-04-04T17:10:26Z</time></trkpt><trkpt lat="44.71175467818406" lon="10.355142129043546"><ele>120.0</ele><time>2026-04-04T17:10:27Z</time></trkpt><trkpt lat="44.71195707940083" lon="10.355050464213992"><ele>120.0</ele><time>2026-04-04T17:10:28Z</time></trkpt><trkpt lat="44.71213244968631" lon="10.354939392169506"><ele>120.0</ele><time>2026-04-04T17:10:29Z</time></trkpt><trkpt lat="44.712307548212536" lon="10.354830923081263"><ele>120.0</ele><time>2026-04-04T17:10:30Z</time></trkpt><trkpt lat="44.71248378202469" lon="10.354731509269191"><ele>119.66666666666666</ele><time>2026-04-04T17:10:31Z</time></trkpt><trkpt lat="44.71264629937361" lon="10.35464985257209"><ele>119.33333333333333</ele><time>2026-04-04T17:10:32Z</time></trkpt><trkpt lat="44.712800092757966" lon="10.354563044704761"><ele>119.0</ele><time>2026-04-04T17:10:33Z</time></trkpt><trkpt lat="44.71294735271211" lon="10.354472210140038"><ele>119.66666666666666</ele><time>2026-04-04T17:10:34Z</time></trkpt><trkpt lat="44.713104581086185" lon="10.354388786270292"><ele>120.33333333333334</ele><time>2026-04-04T17:10:35Z</time></trkpt><trkpt lat="44.713277546812854" lon="10.354352132739645"><ele>121.0</ele><time>2026-04-04T17:10:36Z</time></trkpt><trkpt lat="44.71345738084773" lon="10.354386659890261"><ele>120.0</ele><time>2026-04-04T17:10:37Z</time></trkpt><trkpt lat="44.713644163483764" lon="10.354414314175166"><ele>119.0</ele><time>2026-04-04T17:10:38Z</time></trkpt><trkpt lat="44.713834762260724" lon="10.35442664361904"><ele>118.0</ele><time>2026-04-04T17:10:39Z</time></trkpt><trkpt lat="44.71403125765826" lon="10.3544660410853"><ele>118.0</ele><time>2026-04-04T17:10:40Z</time></trkpt><trkpt lat="44.71422357838849" lon="10.354526088599826"><ele>118.0</ele><time>2026-04-04T17:10:41Z</time></trkpt><trkpt lat="44.71441987044791" lon="10.3546250867856"><ele>118.0</ele><time>2026-04-04T17:10:42Z</time></trkpt><trkpt lat="44.714597552014425" lon="10.354750741223699"><ele>117.0</ele><time>2026-04-04T17:10:43Z</time></trkpt><trkpt lat="44.714764582059" lon="10.354918023771782"><ele>116.0</ele><time>2026-04-04T17:10:44Z</time></trkpt><trkpt lat="44.71492903901758" lon="10.35508322567717"><ele>115.0</ele><time>2026-04-04T17:10:45Z</time></trkpt><trkpt lat="44.71511243282436" lon="10.355246609313307"><ele>115.0</ele><time>2026-04-04T17:10:46Z</time></trkpt><trkpt lat="44.71528095852422" lon="10.355416712682944"><ele>115.0</ele><time>2026-04-04T17:10:47Z</time></trkpt><trkpt lat="44.71546033090605" lon="10.355563758584"><ele>115.0</ele><time>2026-04-04T17:10:48Z</time></trkpt><trkpt lat="44.71565415424686" lon="10.355689787158328"><ele>115.33333333333334</ele><time>2026-04-04T17:10:49Z</time></trkpt><trkpt lat="44.71585531224358" lon="10.355800556647418"><ele>115.66666666666666</ele><time>2026-04-04T17:10:50Z</time></trkpt><trkpt lat="44.71606303120113" lon="10.355879129813907"><ele>116.0</ele><time>2026-04-04T17:10:51Z</time></trkpt><trkpt lat="44.71627849625073" lon="10.355932901317324"><ele>114.5</ele><time>2026-04-04T17:10:52Z</time></trkpt><trkpt lat="44.71650241336687" lon="10.355985731575878"><ele>113.0</ele><time>2026-04-04T17:10:53Z</time></trkpt><trkpt lat="44.716725865936546" lon="10.356046308958819"><ele>112.0</ele><time>2026-04-04T17:10:54Z</time></trkpt><trkpt lat="44.716949545673835" lon="10.356127231235718"><ele>111.0</ele><time>2026-04-04T17:10:55Z</time></trkpt><trkpt lat="44.7171576935843" lon="10.356226477001481"><ele>111.0</ele><time>2026-04-04T17:10:56Z</time></trkpt><trkpt lat="44.71735751114232" lon="10.356333028984512"><ele>111.0</ele><time>2026-04-04T17:10:57Z</time></trkpt><trkpt lat="44.717564840873635" lon="10.356415442857783"><ele>111.0</ele><time>2026-04-04T17:10:58Z</time></trkpt><trkpt lat="44.71778059075113" lon="10.356464060774933"><ele>112.0</ele><time>2026-04-04T17:10:59Z</time></trkpt><trkpt lat="44.71800190251653" lon="10.356486233049727"><ele>113.0</ele><time>2026-04-04T17:11:00Z</time></trkpt><trkpt lat="44.718235641831605" lon="10.356493975653185"><ele>113.0</ele><time>2026-04-04T17:11:01Z</time></trkpt><trkpt lat="44.71846914195664" lon="10.356508388780327"><ele>113.0</ele><time>2026-04-04T17:11:02Z</time></trkpt><trkpt lat="44.71868787872984" lon="10.356535940036382"><ele>113.33333333333333</ele><time>2026-04-04T17:11:03Z</time></trkpt><trkpt lat="44.71891354177135" lon="10.356575860216688"><ele>113.66666666666666</ele><time>2026-04-04T17:11:04Z</time></trkpt><trkpt lat="44.71910940143176" lon="10.356592919233554"><ele>114.0</ele><time>2026-04-04T17:11:05Z</time></trkpt><trkpt lat="44.719298327227314" lon="10.356610562460347"><ele>113.33333333333334</ele><time>2026-04-04T17:11:06Z</time></trkpt><trkpt lat="44.71949554730217" lon="10.35663094719542"><ele>112.66666666666667</ele><time>2026-04-04T17:11:07Z</time></trkpt><trkpt lat="44.7197000156584" lon="10.356632660048414"><ele>112.0</ele><time>2026-04-04T17:11:08Z</time></trkpt><trkpt lat="44.71989547175579" lon="10.356579735956137"><ele>112.0</ele><time>2026-04-04T17:11:09Z</time></trkpt><trkpt lat="44.72007757647606" lon="10.35647576032419"><ele>112.0</ele><time>2026-04-04T17:11:10Z</time></trkpt><trkpt lat="44.72025755524039" lon="10.356334768272252"><ele>112.0</ele><time>2026-04-04T17:11:11Z</time></trkpt><trkpt lat="44.7204337852639" lon="10.356175345518263"><ele>111.66666666666667</ele><time>2026-04-04T17:11:12Z</time></trkpt><trkpt lat="44.720622538949655" lon="10.356026847788458"><ele>111.33333333333334</ele><time>2026-04-04T17:11:13Z</time></trkpt><trkpt lat="44.720832161762395" lon="10.35591667817673"><ele>111.0</ele><time>2026-04-04T17:11:14Z</time></trkpt><trkpt lat="44.7210550525985" lon="10.355824208716866"><ele>110.5</ele><time>2026-04-04T17:11:15Z</time></trkpt><trkpt lat="44.7212702820272" lon="10.35573460987299"><ele>110.0</ele><time>2026-04-04T17:11:16Z</time></trkpt><trkpt lat="44.721488933952834" lon="10.355656517358495"><ele>110.0</ele><time>2026-04-04T17:11:17Z</time></trkpt><trkpt lat="44.72169821815372" lon="10.355604333491188"><ele>110.0</ele><time>2026-04-04T17:11:18Z</time></trkpt><trkpt lat="44.72191625127255" lon="10.355562120195387"><ele>110.0</ele><time>2026-04-04T17:11:19Z</time></trkpt><trkpt lat="44.72213609308949" lon="10.35554617967278"><ele>109.66666666666666</ele><time>2026-04-04T17:11:20Z</time></trkpt><trkpt lat="44.72235654815733" lon="10.355504383908126"><ele>109.33333333333334</ele><time>2026-04-04T17:11:21Z</time></trkpt><trkpt lat="44.72257349039634" lon="10.355463645377263"><ele>109.0</ele><time>2026-04-04T17:11:22Z</time></trkpt><trkpt lat="44.722771982081944" lon="10.355431050888015"><ele>109.0</ele><time>2026-04-04T17:11:23Z</time></trkpt><trkpt lat="44.72297239767191" lon="10.355398753964158"><ele>109.0</ele><time>2026-04-04T17:11:24Z</time></trkpt><trkpt lat="44.72317219527421" lon="10.355360438240421"><ele>109.0</ele><time>2026-04-04T17:11:25Z</time></trkpt><trkpt lat="44.72337984103569" lon="10.355319020167418"><ele>109.0</ele><time>2026-04-04T17:11:26Z</time></trkpt><trkpt lat="44.72358265935203" lon="10.355293850439299"><ele>109.0</ele><time>2026-04-04T17:11:27Z</time></trkpt><trkpt lat="44.723808047560375" lon="10.35529383079444"><ele>109.0</ele><time>2026-04-04T17:11:28Z</time></trkpt><trkpt lat="44.72400085395588" lon="10.355275323205058"><ele>109.0</ele><time>2026-04-04T17:11:29Z</time></trkpt><trkpt lat="44.724210469986346" lon="10.355323319831129"><ele>109.0</ele><time>2026-04-04T17:11:30Z</time></trkpt><trkpt lat="44.72442341074844" lon="10.35533095165878"><ele>109.0</ele><time>2026-04-04T17:11:31Z</time></trkpt><trkpt lat="44.72463369089683" lon="10.355290910947252"><ele>108.5</ele><time>2026-04-04T17:11:32Z</time></trkpt><trkpt lat="44.72485313748576" lon="10.355221149549937"><ele>108.0</ele><time>2026-04-04T17:11:33Z</time></trkpt><trkpt lat="44.72507485161371" lon="10.355144800559788"><ele>108.0</ele><time>2026-04-04T17:11:34Z</time></trkpt><trkpt lat="44.72529742471332" lon="10.355074379440262"><ele>108.0</ele><time>2026-04-04T17:11:35Z</time></trkpt><trkpt lat="44.72552389074646" lon="10.35500859479509"><ele>108.0</ele><time>2026-04-04T17:11:36Z</time></trkpt><trkpt lat="44.72575291236441" lon="10.3549399234284"><ele>108.0</ele><time>2026-04-04T17:11:37Z</time></trkpt><trkpt lat="44.725969712541776" lon="10.354870785389496"><ele>108.0</ele><time>2026-04-04T17:11:38Z</time></trkpt><trkpt lat="44.726182552956644" lon="10.354800964905772"><ele>108.0</ele><time>2026-04-04T17:11:39Z</time></trkpt><trkpt lat="44.726392516965106" lon="10.35473067404342"><ele>108.0</ele><time>2026-04-04T17:11:40Z</time></trkpt><trkpt lat="44.7266059891059" lon="10.354655738653298"><ele>107.66666666666666</ele><time>2026-04-04T17:11:41Z</time></trkpt><trkpt lat="44.726820249332754" lon="10.354577497903366"><ele>107.33333333333333</ele><time>2026-04-04T17:11:42Z</time></trkpt><trkpt lat="44.72703726959655" lon="10.354493133233522"><ele>107.0</ele><time>2026-04-04T17:11:43Z</time></trkpt><trkpt lat="44.72725414801588" lon="10.354416178504"><ele>105.5</ele><time>2026-04-04T17:11:44Z</time></trkpt><trkpt lat="44.72747413098763" lon="10.354336412187042"><ele>104.0</ele><time>2026-04-04T17:11:45Z</time></trkpt><trkpt lat="44.727690834303004" lon="10.354243770174559"><ele>103.0</ele><time>2026-04-04T17:11:46Z</time></trkpt><trkpt lat="44.72790597840105" lon="10.35415387242161"><ele>102.0</ele><time>2026-04-04T17:11:47Z</time></trkpt><trkpt lat="44.72812427319255" lon="10.354066994859958"><ele>102.0</ele><time>2026-04-04T17:11:48Z</time></trkpt><trkpt lat="44.728344935178164" lon="10.353977393545385"><ele>102.0</ele><time>2026-04-04T17:11:49Z</time></trkpt><trkpt lat="44.72856253714899" lon="10.353890498942771"><ele>103.5</ele><time>2026-04-04T17:11:50Z</time></trkpt><trkpt lat="44.72879001502551" lon="10.353801680646606"><ele>105.0</ele><time>2026-04-04T17:11:51Z</time></trkpt><trkpt lat="44.729021750309556" lon="10.353723268397157"><ele>105.0</ele><time>2026-04-04T17:11:52Z</time></trkpt><trkpt lat="44.72923328669619" lon="10.353622935213078"><ele>105.0</ele><time>2026-04-04T17:11:53Z</time></trkpt><trkpt lat="44.729452892562485" lon="10.35353389860902"><ele>104.5</ele><time>2026-04-04T17:11:54Z</time></trkpt><trkpt lat="44.729674355652975" lon="10.353440233965472"><ele>104.0</ele><time>2026-04-04T17:11:55Z</time></trkpt><trkpt lat="44.729898526555495" lon="10.353346723521078"><ele>104.0</ele><time>2026-04-04T17:11:56Z</time></trkpt><trkpt lat="44.73012216824036" lon="10.353255262351459"><ele>104.0</ele><time>2026-04-04T17:11:57Z</time></trkpt><trkpt lat="44.73033845641886" lon="10.353169899548657"><ele>103.5</ele><time>2026-04-04T17:11:58Z</time></trkpt><trkpt lat="44.73056042305146" lon="10.353085171068562"><ele>103.0</ele><time>2026-04-04T17:11:59Z</time></trkpt><trkpt lat="44.73077517639794" lon="10.353009150758197"><ele>103.0</ele><time>2026-04-04T17:12:00Z</time></trkpt><trkpt lat="44.730991143117905" lon="10.352932215781578"><ele>103.0</ele><time>2026-04-04T17:12:01Z</time></trkpt><trkpt lat="44.73120367330563" lon="10.352853332739281"><ele>103.0</ele><time>2026-04-04T17:12:02Z</time></trkpt><trkpt lat="44.73142026826747" lon="10.352774106749274"><ele>103.0</ele><time>2026-04-04T17:12:03Z</time></trkpt><trkpt lat="44.7316460081498" lon="10.352714389465449"><ele>103.0</ele><time>2026-04-04T17:12:04Z</time></trkpt><trkpt lat="44.73185734850802" lon="10.352649963725248"><ele>103.0</ele><time>2026-04-04T17:12:05Z</time></trkpt><trkpt lat="44.732077380195044" lon="10.352598465398563"><ele>103.0</ele><time>2026-04-04T17:12:06Z</time></trkpt><trkpt lat="44.73230167854649" lon="10.352546809822979"><ele>103.0</ele><time>2026-04-04T17:12:07Z</time></trkpt><trkpt lat="44.732531308551074" lon="10.35251091274848"><ele>101.66666666666667</ele><time>2026-04-04T17:12:08Z</time></trkpt><trkpt lat="44.73274341345197" lon="10.352450330059598"><ele>100.33333333333334</ele><time>2026-04-04T17:12:09Z</time></trkpt><trkpt lat="44.732962497315974" lon="10.352374047040142"><ele>99.0</ele><time>2026-04-04T17:12:10Z</time></trkpt><trkpt lat="44.73317180166148" lon="10.352282607398463"><ele>100.0</ele><time>2026-04-04T17:12:11Z</time></trkpt><trkpt lat="44.733375396117545" lon="10.352181975910774"><ele>101.0</ele><time>2026-04-04T17:12:12Z</time></trkpt><trkpt lat="44.733583950523" lon="10.352083374509975"><ele>102.0</ele><time>2026-04-04T17:12:13Z</time></trkpt><trkpt lat="44.73379255845042" lon="10.351986064891479"><ele>102.0</ele><time>2026-04-04T17:12:14Z</time></trkpt><trkpt lat="44.73400319954076" lon="10.351919143978842"><ele>102.0</ele><time>2026-04-04T17:12:15Z</time></trkpt><trkpt lat="44.73421785320851" lon="10.351904186683237"><ele>102.0</ele><time>2026-04-04T17:12:16Z</time></trkpt><trkpt lat="44.73444418163047" lon="10.351923041610828"><ele>101.0</ele><time>2026-04-04T17:12:17Z</time></trkpt><trkpt lat="44.73466652434493" lon="10.35195445139429"><ele>100.0</ele><time>2026-04-04T17:12:18Z</time></trkpt><trkpt lat="44.734890631763356" lon="10.35197001515196"><ele>99.0</ele><time>2026-04-04T17:12:19Z</time></trkpt><trkpt lat="44.73511617909371" lon="10.351980999554877"><ele>99.0</ele><time>2026-04-04T17:12:20Z</time></trkpt><trkpt lat="44.73533650566302" lon="10.351997110553445"><ele>99.0</ele><time>2026-04-04T17:12:21Z</time></trkpt><trkpt lat="44.735556992899475" lon="10.352001339235459"><ele>99.0</ele><time>2026-04-04T17:12:22Z</time></trkpt><trkpt lat="44.73578713733947" lon="10.351980913783773"><ele>99.0</ele><time>2026-04-04T17:12:23Z</time></trkpt><trkpt lat="44.73601595985817" lon="10.35194368326013"><ele>99.0</ele><time>2026-04-04T17:12:24Z</time></trkpt><trkpt lat="44.736252700117" lon="10.351887141412972"><ele>100.0</ele><time>2026-04-04T17:12:25Z</time></trkpt><trkpt lat="44.73647333013305" lon="10.351827742589949"><ele>101.0</ele><time>2026-04-04T17:12:26Z</time></trkpt><trkpt lat="44.73669622242419" lon="10.35177528361305"><ele>100.33333333333333</ele><time>2026-04-04T17:12:27Z</time></trkpt><trkpt lat="44.73691786572601" lon="10.351716539819328"><ele>99.66666666666666</ele><time>2026-04-04T17:12:28Z</time></trkpt><trkpt lat="44.737134539050835" lon="10.35164243385626"><ele>99.0</ele><time>2026-04-04T17:12:29Z</time></trkpt><trkpt lat="44.737353075411974" lon="10.351563202020133"><ele>99.0</ele><time>2026-04-04T17:12:30Z</time></trkpt><trkpt lat="44.7375582604385" lon="10.351493204050154"><ele>99.0</ele><time>2026-04-04T17:12:31Z</time></trkpt><trkpt lat="44.737754293613484" lon="10.351425782313793"><ele>99.0</ele><time>2026-04-04T17:12:32Z</time></trkpt><trkpt lat="44.73796100090046" lon="10.351355114043802"><ele>98.66666666666666</ele><time>2026-04-04T17:12:33Z</time></trkpt><trkpt lat="44.73816616804546" lon="10.351290076073616"><ele>98.33333333333333</ele><time>2026-04-04T17:12:34Z</time></trkpt><trkpt lat="44.73837573603738" lon="10.351232127791185"><ele>98.0</ele><time>2026-04-04T17:12:35Z</time></trkpt><trkpt lat="44.73858720912365" lon="10.351183853877645"><ele>97.66666666666666</ele><time>2026-04-04T17:12:36Z</time></trkpt><trkpt lat="44.73880100988858" lon="10.351133229949635"><ele>97.33333333333334</ele><time>2026-04-04T17:12:37Z</time></trkpt><trkpt lat="44.73901707645756" lon="10.351069973417713"><ele>97.0</ele><time>2026-04-04T17:12:38Z</time></trkpt><trkpt lat="44.739229635415235" lon="10.350995019109169"><ele>96.66666666666667</ele><time>2026-04-04T17:12:39Z</time></trkpt><trkpt lat="44.73944779407495" lon="10.350926461283883"><ele>96.33333333333334</ele><time>2026-04-04T17:12:40Z</time></trkpt><trkpt lat="44.739666751558836" lon="10.350859178873645"><ele>96.0</ele><time>2026-04-04T17:12:41Z</time></trkpt><trkpt lat="44.739889246475514" lon="10.350788473951788"><ele>96.0</ele><time>2026-04-04T17:12:42Z</time></trkpt><trkpt lat="44.74011112668843" lon="10.35071932382751"><ele>96.0</ele><time>2026-04-04T17:12:43Z</time></trkpt><trkpt lat="44.74032447466927" lon="10.350655557809628"><ele>96.0</ele><time>2026-04-04T17:12:44Z</time></trkpt><trkpt lat="44.74053774118778" lon="10.350598699107046"><ele>96.66666666666666</ele><time>2026-04-04T17:12:45Z</time></trkpt><trkpt lat="44.740753928089646" lon="10.350559053699007"><ele>97.33333333333333</ele><time>2026-04-04T17:12:46Z</time></trkpt><trkpt lat="44.74097081661178" lon="10.350544053703189"><ele>98.0</ele><time>2026-04-04T17:12:47Z</time></trkpt><trkpt lat="44.74119055216234" lon="10.350550548083486"><ele>96.0</ele><time>2026-04-04T17:12:48Z</time></trkpt><trkpt lat="44.74141378158126" lon="10.350564085313572"><ele>94.0</ele><time>2026-04-04T17:12:49Z</time></trkpt><trkpt lat="44.74165697050956" lon="10.350584573798425"><ele>94.0</ele><time>2026-04-04T17:12:50Z</time></trkpt><trkpt lat="44.741857871172954" lon="10.350581961182803"><ele>94.0</ele><time>2026-04-04T17:12:51Z</time></trkpt><trkpt lat="44.742064830581675" lon="10.350589898647442"><ele>94.0</ele><time>2026-04-04T17:12:52Z</time></trkpt><trkpt lat="44.7422757580847" lon="10.350603711165839"><ele>93.33333333333333</ele><time>2026-04-04T17:12:53Z</time></trkpt><trkpt lat="44.74249685732863" lon="10.350630120374973"><ele>92.66666666666667</ele><time>2026-04-04T17:12:54Z</time></trkpt><trkpt lat="44.74269781583742" lon="10.350633573158238"><ele>92.0</ele><time>2026-04-04T17:12:55Z</time></trkpt><trkpt lat="44.74290918493535" lon="10.350640946117007"><ele>92.0</ele><time>2026-04-04T17:12:56Z</time></trkpt><trkpt lat="44.74311114511581" lon="10.350637360074817"><ele>92.0</ele><time>2026-04-04T17:12:57Z</time></trkpt><trkpt lat="44.743311910997484" lon="10.350612915151128"><ele>92.0</ele><time>2026-04-04T17:12:58Z</time></trkpt><trkpt lat="44.743495915027594" lon="10.350575003025686"><ele>92.33333333333334</ele><time>2026-04-04T17:12:59Z</time></trkpt><trkpt lat="44.743663395106715" lon="10.350538758550705"><ele>92.66666666666667</ele><time>2026-04-04T17:13:00Z</time></trkpt><trkpt lat="44.74381895936659" lon="10.350509750174124"><ele>93.0</ele><time>2026-04-04T17:13:01Z</time></trkpt><trkpt lat="44.743963464971486" lon="10.350484768825245"><ele>93.0</ele><time>2026-04-04T17:13:02Z</time></trkpt><trkpt lat="44.74410110764959" lon="10.350462928649922"><ele>93.0</ele><time>2026-04-04T17:13:03Z</time></trkpt><trkpt lat="44.7442320007129" lon="10.350435648615768"><ele>93.0</ele><time>2026-04-04T17:13:04Z</time></trkpt><trkpt lat="44.744350286512045" lon="10.350403050902184"><ele>93.0</ele><time>2026-04-04T17:13:05Z</time></trkpt><trkpt lat="44.74446039389378" lon="10.350372512316637"><ele>92.75</ele><time>2026-04-04T17:13:06Z</time></trkpt><trkpt lat="44.744577639152105" lon="10.350327321295097"><ele>92.5</ele><time>2026-04-04T17:13:07Z</time></trkpt><trkpt lat="44.744715752616116" lon="10.350265892091906"><ele>92.25</ele><time>2026-04-04T17:13:08Z</time></trkpt><trkpt lat="44.74487820898929" lon="10.350186654556632"><ele>92.0</ele><time>2026-04-04T17:13:09Z</time></trkpt><trkpt lat="44.74503022049513" lon="10.350101719736879"><ele>92.0</ele><time>2026-04-04T17:13:10Z</time></trkpt><trkpt lat="44.74520693008487" lon="10.350005345451146"><ele>92.0</ele><time>2026-04-04T17:13:11Z</time></trkpt><trkpt lat="44.7453894876594" lon="10.349913032701345"><ele>92.0</ele><time>2026-04-04T17:13:12Z</time></trkpt><trkpt lat="44.74557937754182" lon="10.349814609555626"><ele>92.0</ele><time>2026-04-04T17:13:13Z</time></trkpt><trkpt lat="44.74578279731061" lon="10.349715674205937"><ele>92.0</ele><time>2026-04-04T17:13:14Z</time></trkpt><trkpt lat="44.745983293982896" lon="10.349632616799074"><ele>92.0</ele><time>2026-04-04T17:13:15Z</time></trkpt><trkpt lat="44.74618939678968" lon="10.349549062998484"><ele>92.0</ele><time>2026-04-04T17:13:16Z</time></trkpt><trkpt lat="44.74638475200483" lon="10.349463542420406"><ele>92.0</ele><time>2026-04-04T17:13:17Z</time></trkpt><trkpt lat="44.746575503770586" lon="10.349361892772576"><ele>92.0</ele><time>2026-04-04T17:13:18Z</time></trkpt><trkpt lat="44.74677197867085" lon="10.349290066009553"><ele>91.33333333333334</ele><time>2026-04-04T17:13:19Z</time></trkpt><trkpt lat="44.74696675237139" lon="10.349210322232906"><ele>90.66666666666667</ele><time>2026-04-04T17:13:20Z</time></trkpt><trkpt lat="44.74716342426856" lon="10.34913061973109"><ele>90.0</ele><time>2026-04-04T17:13:21Z</time></trkpt><trkpt lat="44.74737193573938" lon="10.349061064524582"><ele>90.0</ele><time>2026-04-04T17:13:22Z</time></trkpt><trkpt lat="44.747544977630106" lon="10.348979954223514"><ele>90.0</ele><time>2026-04-04T17:13:23Z</time></trkpt><trkpt lat="44.747719015829645" lon="10.34890643632174"><ele>90.0</ele><time>2026-04-04T17:13:24Z</time></trkpt><trkpt lat="44.747893279177966" lon="10.348833548297577"><ele>90.33333333333333</ele><time>2026-04-04T17:13:25Z</time></trkpt><trkpt lat="44.74806038015083" lon="10.348754098713707"><ele>90.66666666666666</ele><time>2026-04-04T17:13:26Z</time></trkpt><trkpt lat="44.74821660169249" lon="10.348642279843649"><ele>91.0</ele><time>2026-04-04T17:13:27Z</time></trkpt><trkpt lat="44.74838422328191" lon="10.348479446476741"><ele>91.0</ele><time>2026-04-04T17:13:28Z</time></trkpt><trkpt lat="44.74850329103605" lon="10.348298870270566"><ele>91.0</ele><time>2026-04-04T17:13:29Z</time></trkpt><trkpt lat="44.748619122992224" lon="10.348096688561775"><ele>91.0</ele><time>2026-04-04T17:13:30Z</time></trkpt><trkpt lat="44.74875395077683" lon="10.347901190015275"><ele>91.0</ele><time>2026-04-04T17:13:31Z</time></trkpt><trkpt lat="44.74891692515136" lon="10.347738948410942"><ele>91.0</ele><time>2026-04-04T17:13:32Z</time></trkpt><trkpt lat="44.74907628958331" lon="10.347571979519918"><ele>91.0</ele><time>2026-04-04T17:13:33Z</time></trkpt><trkpt lat="44.74925511033036" lon="10.347418141391465"><ele>90.66666666666666</ele><time>2026-04-04T17:13:34Z</time></trkpt><trkpt lat="44.74943770887139" lon="10.347271187886971"><ele>90.33333333333333</ele><time>2026-04-04T17:13:35Z</time></trkpt><trkpt lat="44.749626982491534" lon="10.347117662545308"><ele>90.0</ele><time>2026-04-04T17:13:36Z</time></trkpt><trkpt lat="44.749808332889295" lon="10.346938778951225"><ele>90.0</ele><time>2026-04-04T17:13:37Z</time></trkpt><trkpt lat="44.74997659219563" lon="10.346727174864876"><ele>90.0</ele><time>2026-04-04T17:13:38Z</time></trkpt><trkpt lat="44.75014434639102" lon="10.346497747917864"><ele>89.66666666666667</ele><time>2026-04-04T17:13:39Z</time></trkpt><trkpt lat="44.7503108074464" lon="10.346287632773132"><ele>89.33333333333334</ele><time>2026-04-04T17:13:40Z</time></trkpt><trkpt lat="44.75048062310643" lon="10.34608160662537"><ele>89.0</ele><time>2026-04-04T17:13:41Z</time></trkpt><trkpt lat="44.750649012551655" lon="10.34590893000647"><ele>89.0</ele><time>2026-04-04T17:13:42Z</time></trkpt><trkpt lat="44.750802734970634" lon="10.345717601252414"><ele>89.0</ele><time>2026-04-04T17:13:43Z</time></trkpt><trkpt lat="44.75095673515923" lon="10.345525186409605"><ele>89.0</ele><time>2026-04-04T17:13:44Z</time></trkpt><trkpt lat="44.75110414612955" lon="10.345305578726546"><ele>88.66666666666667</ele><time>2026-04-04T17:13:45Z</time></trkpt><trkpt lat="44.751242569319885" lon="10.345071287737817"><ele>88.33333333333333</ele><time>2026-04-04T17:13:46Z</time></trkpt><trkpt lat="44.75137640949631" lon="10.344833882690013"><ele>88.0</ele><time>2026-04-04T17:13:47Z</time></trkpt><trkpt lat="44.75151520966933" lon="10.344596787531284"><ele>88.0</ele><time>2026-04-04T17:13:48Z</time></trkpt><trkpt lat="44.751658458128105" lon="10.344359058308594"><ele>88.0</ele><time>2026-04-04T17:13:49Z</time></trkpt><trkpt lat="44.75179642963809" lon="10.344123840201947"><ele>88.0</ele><time>2026-04-04T17:13:50Z</time></trkpt><trkpt lat="44.75193465825708" lon="10.343887911792258"><ele>87.66666666666666</ele><time>2026-04-04T17:13:51Z</time></trkpt><trkpt lat="44.75207011193352" lon="10.343653383657662"><ele>87.33333333333333</ele><time>2026-04-04T17:13:52Z</time></trkpt><trkpt lat="44.75221286058623" lon="10.343419226808203"><ele>87.0</ele><time>2026-04-04T17:13:53Z</time></trkpt><trkpt lat="44.75236416400659" lon="10.343191395086642"><ele>87.0</ele><time>2026-04-04T17:13:54Z</time></trkpt><trkpt lat="44.75251883574939" lon="10.34298920206353"><ele>87.0</ele><time>2026-04-04T17:13:55Z</time></trkpt><trkpt lat="44.75266602569295" lon="10.342815098811823"><ele>87.0</ele><time>2026-04-04T17:13:56Z</time></trkpt><trkpt lat="44.75280937107069" lon="10.342646226978983"><ele>86.33333333333333</ele><time>2026-04-04T17:13:57Z</time></trkpt><trkpt lat="44.75294558220106" lon="10.342474535270002"><ele>85.66666666666666</ele><time>2026-04-04T17:13:58Z</time></trkpt><trkpt lat="44.75308816970805" lon="10.34230622723299"><ele>85.0</ele><time>2026-04-04T17:13:59Z</time></trkpt><trkpt lat="44.75324337610895" lon="10.342146331244379"><ele>85.0</ele><time>2026-04-04T17:14:00Z</time></trkpt><trkpt lat="44.75341258050582" lon="10.34200601149937"><ele>85.0</ele><time>2026-04-04T17:14:01Z</time></trkpt><trkpt lat="44.75359372108307" lon="10.341892222808372"><ele>85.0</ele><time>2026-04-04T17:14:02Z</time></trkpt><trkpt lat="44.75378540061282" lon="10.34179297423904"><ele>85.0</ele><time>2026-04-04T17:14:03Z</time></trkpt><trkpt lat="44.75398191512085" lon="10.341696725662779"><ele>85.0</ele><time>2026-04-04T17:14:04Z</time></trkpt><trkpt lat="44.754181768701514" lon="10.341585240813702"><ele>85.0</ele><time>2026-04-04T17:14:05Z</time></trkpt><trkpt lat="44.754384600206045" lon="10.341471611876432"><ele>85.0</ele><time>2026-04-04T17:14:06Z</time></trkpt><trkpt lat="44.754591216136795" lon="10.341362836370672"><ele>85.0</ele><time>2026-04-04T17:14:07Z</time></trkpt><trkpt lat="44.75480404308505" lon="10.34125001345142"><ele>85.0</ele><time>2026-04-04T17:14:08Z</time></trkpt><trkpt lat="44.755001841971165" lon="10.341140105151144"><ele>85.0</ele><time>2026-04-04T17:14:09Z</time></trkpt><trkpt lat="44.75519730714497" lon="10.34103171185982"><ele>85.0</ele><time>2026-04-04T17:14:10Z</time></trkpt><trkpt lat="44.75540243283285" lon="10.340913820135674"><ele>85.0</ele><time>2026-04-04T17:14:11Z</time></trkpt><trkpt lat="44.755598643485065" lon="10.34079068371054"><ele>84.66666666666666</ele><time>2026-04-04T17:14:12Z</time></trkpt><trkpt lat="44.7557922133838" lon="10.34065509185498"><ele>84.33333333333333</ele><time>2026-04-04T17:14:13Z</time></trkpt><trkpt lat="44.75598920700303" lon="10.340510989197586"><ele>84.0</ele><time>2026-04-04T17:14:14Z</time></trkpt><trkpt lat="44.756185925398356" lon="10.340362315604017"><ele>83.66666666666667</ele><time>2026-04-04T17:14:15Z</time></trkpt><trkpt lat="44.756383339253375" lon="10.340217790767959"><ele>83.33333333333334</ele><time>2026-04-04T17:14:16Z</time></trkpt><trkpt lat="44.75657818004845" lon="10.340079860860188"><ele>83.0</ele><time>2026-04-04T17:14:17Z</time></trkpt><trkpt lat="44.75676584318453" lon="10.339948399076697"><ele>83.0</ele><time>2026-04-04T17:14:18Z</time></trkpt><trkpt lat="44.756954492290426" lon="10.339820788581298"><ele>83.0</ele><time>2026-04-04T17:14:19Z</time></trkpt><trkpt lat="44.75714789308047" lon="10.339695585866918"><ele>83.0</ele><time>2026-04-04T17:14:20Z</time></trkpt><trkpt lat="44.7573401828341" lon="10.33956402109066"><ele>83.0</ele><time>2026-04-04T17:14:21Z</time></trkpt><trkpt lat="44.7575356100129" lon="10.33943477688448"><ele>83.0</ele><time>2026-04-04T17:14:22Z</time></trkpt><trkpt lat="44.75773440976232" lon="10.339305475650388"><ele>83.0</ele><time>2026-04-04T17:14:23Z</time></trkpt><trkpt lat="44.75793710049167" lon="10.33917589511032"><ele>82.66666666666667</ele><time>2026-04-04T17:14:24Z</time></trkpt><trkpt lat="44.75813856390872" lon="10.339044872011875"><ele>82.33333333333333</ele><time>2026-04-04T17:14:25Z</time></trkpt><trkpt lat="44.75834399404677" lon="10.338909822334413"><ele>82.0</ele><time>2026-04-04T17:14:26Z</time></trkpt><trkpt lat="44.758549342874154" lon="10.338777324067529"><ele>80.5</ele><time>2026-04-04T17:14:27Z</time></trkpt><trkpt lat="44.758759777916595" lon="10.338647198647719"><ele>79.0</ele><time>2026-04-04T17:14:28Z</time></trkpt><trkpt lat="44.75896590828727" lon="10.338519721287414"><ele>79.0</ele><time>2026-04-04T17:14:29Z</time></trkpt><trkpt lat="44.75916653142303" lon="10.3383944854982"><ele>79.0</ele><time>2026-04-04T17:14:30Z</time></trkpt><trkpt lat="44.75937092247561" lon="10.338272403531638"><ele>79.0</ele><time>2026-04-04T17:14:31Z</time></trkpt><trkpt lat="44.75957452855041" lon="10.338152695327745"><ele>79.66666666666666</ele><time>2026-04-04T17:14:32Z</time></trkpt><trkpt lat="44.759782255916086" lon="10.338036176274146"><ele>80.33333333333333</ele><time>2026-04-04T17:14:33Z</time></trkpt><trkpt lat="44.75997735493982" lon="10.337928460427959"><ele>81.0</ele><time>2026-04-04T17:14:34Z</time></trkpt><trkpt lat="44.76016671919347" lon="10.337824224709385"><ele>80.0</ele><time>2026-04-04T17:14:35Z</time></trkpt><trkpt lat="44.760357342616174" lon="10.33771678723013"><ele>79.0</ele><time>2026-04-04T17:14:36Z</time></trkpt><trkpt lat="44.76053526365249" lon="10.337622414912014"><ele>78.0</ele><time>2026-04-04T17:14:37Z</time></trkpt><trkpt lat="44.76070187936506" lon="10.337538652327265"><ele>78.0</ele><time>2026-04-04T17:14:38Z</time></trkpt><trkpt lat="44.76086752233375" lon="10.337457998671388"><ele>78.0</ele><time>2026-04-04T17:14:39Z</time></trkpt><trkpt lat="44.761031520266116" lon="10.337376073404617"><ele>78.0</ele><time>2026-04-04T17:14:40Z</time></trkpt><trkpt lat="44.76119034963446" lon="10.337296447727935"><ele>77.66666666666667</ele><time>2026-04-04T17:14:41Z</time></trkpt><trkpt lat="44.76134334834586" lon="10.337223999800182"><ele>77.33333333333334</ele><time>2026-04-04T17:14:42Z</time></trkpt><trkpt lat="44.76149181993297" lon="10.3371558478378"><ele>77.0</ele><time>2026-04-04T17:14:43Z</time></trkpt><trkpt lat="44.7616512381589" lon="10.337084190132614"><ele>77.33333333333334</ele><time>2026-04-04T17:14:44Z</time></trkpt><trkpt lat="44.761813156336224" lon="10.337010496524785"><ele>77.66666666666667</ele><time>2026-04-04T17:14:45Z</time></trkpt><trkpt lat="44.7619740171671" lon="10.33693710107455"><ele>78.0</ele><time>2026-04-04T17:14:46Z</time></trkpt><trkpt lat="44.7621414370624" lon="10.336858977004606"><ele>78.0</ele><time>2026-04-04T17:14:47Z</time></trkpt><trkpt lat="44.7623017278654" lon="10.336780481894419"><ele>78.0</ele><time>2026-04-04T17:14:48Z</time></trkpt><trkpt lat="44.76246925958426" lon="10.336701378957848"><ele>78.0</ele><time>2026-04-04T17:14:49Z</time></trkpt><trkpt lat="44.762640961177404" lon="10.336630758428743"><ele>77.66666666666667</ele><time>2026-04-04T17:14:50Z</time></trkpt><trkpt lat="44.76280105560695" lon="10.336575507784554"><ele>77.33333333333334</ele><time>2026-04-04T17:14:51Z</time></trkpt><trkpt lat="44.762961805060904" lon="10.336527271899344"><ele>77.0</ele><time>2026-04-04T17:14:52Z</time></trkpt><trkpt lat="44.763116756784136" lon="10.336485640257797"><ele>77.0</ele><time>2026-04-04T17:14:53Z</time></trkpt><trkpt lat="44.763264327638595" lon="10.336438796399797"><ele>77.0</ele><time>2026-04-04T17:14:54Z</time></trkpt><trkpt lat="44.763402390999445" lon="10.336379605591565"><ele>77.0</ele><time>2026-04-04T17:14:55Z</time></trkpt><trkpt lat="44.76354219104359" lon="10.336292188883077"><ele>77.0</ele><time>2026-04-04T17:14:56Z</time></trkpt><trkpt lat="44.76367228028179" lon="10.336169917874118"><ele>77.66666666666667</ele><time>2026-04-04T17:14:57Z</time></trkpt><trkpt lat="44.76379532991839" lon="10.336027408637005"><ele>78.33333333333333</ele><time>2026-04-04T17:14:58Z</time></trkpt><trkpt lat="44.763913937546256" lon="10.335882810861811"><ele>79.0</ele><time>2026-04-04T17:14:59Z</time></trkpt><trkpt lat="44.764023191653884" lon="10.335748318877615"><ele>79.0</ele><time>2026-04-04T17:15:00Z</time></trkpt><trkpt lat="44.764136895674476" lon="10.33561543307973"><ele>79.0</ele><time>2026-04-04T17:15:01Z</time></trkpt><trkpt lat="44.76425110745731" lon="10.335481559896685"><ele>79.0</ele><time>2026-04-04T17:15:02Z</time></trkpt><trkpt lat="44.764364537138356" lon="10.335350644010441"><ele>79.0</ele><time>2026-04-04T17:15:03Z</time></trkpt><trkpt lat="44.76448065574119" lon="10.33520926089202"><ele>78.33333333333333</ele><time>2026-04-04T17:15:04Z</time></trkpt><trkpt lat="44.76460474285902" lon="10.335070061654632"><ele>77.66666666666667</ele><time>2026-04-04T17:15:05Z</time></trkpt><trkpt lat="44.76472543957676" lon="10.334919666108533"><ele>77.0</ele><time>2026-04-04T17:15:06Z</time></trkpt><trkpt lat="44.76485100029974" lon="10.33477474535939"><ele>77.33333333333334</ele><time>2026-04-04T17:15:07Z</time></trkpt><trkpt lat="44.76497610222858" lon="10.33463093516008"><ele>77.66666666666667</ele><time>2026-04-04T17:15:08Z</time></trkpt><trkpt lat="44.76508992153745" lon="10.334496271215254"><ele>78.0</ele><time>2026-04-04T17:15:09Z</time></trkpt><trkpt lat="44.76519842297402" lon="10.334366139206029"><ele>78.0</ele><time>2026-04-04T17:15:10Z</time></trkpt><trkpt lat="44.7653094657394" lon="10.334235179130014"><ele>78.0</ele><time>2026-04-04T17:15:11Z</time></trkpt><trkpt lat="44.765423580055725" lon="10.3340943789405"><ele>78.0</ele><time>2026-04-04T17:15:12Z</time></trkpt><trkpt lat="44.76553933329757" lon="10.333962366630308"><ele>78.0</ele><time>2026-04-04T17:15:13Z</time></trkpt><trkpt lat="44.76564802630337" lon="10.33383566858456"><ele>78.0</ele><time>2026-04-04T17:15:14Z</time></trkpt><trkpt lat="44.765759290992456" lon="10.33370561048893"><ele>78.0</ele><time>2026-04-04T17:15:15Z</time></trkpt><trkpt lat="44.76586150137602" lon="10.333579072719"><ele>78.0</ele><time>2026-04-04T17:15:16Z</time></trkpt><trkpt lat="44.76595826052701" lon="10.3334574590028"><ele>78.0</ele><time>2026-04-04T17:15:17Z</time></trkpt><trkpt lat="44.76605353802731" lon="10.333344499694196"><ele>77.75</ele><time>2026-04-04T17:15:18Z</time></trkpt><trkpt lat="44.76616948044036" lon="10.3332337042063"><ele>77.5</ele><time>2026-04-04T17:15:19Z</time></trkpt><trkpt lat="44.766292392551655" lon="10.333129241926459"><ele>77.25</ele><time>2026-04-04T17:15:20Z</time></trkpt><trkpt lat="44.766416535125416" lon="10.333020581814766"><ele>77.0</ele><time>2026-04-04T17:15:21Z</time></trkpt><trkpt lat="44.76653242113852" lon="10.332923731859566"><ele>77.0</ele><time>2026-04-04T17:15:22Z</time></trkpt><trkpt lat="44.766651717654554" lon="10.332826972440701"><ele>77.0</ele><time>2026-04-04T17:15:23Z</time></trkpt><trkpt lat="44.76677088446514" lon="10.332718631085427"><ele>77.0</ele><time>2026-04-04T17:15:24Z</time></trkpt><trkpt lat="44.76689109335055" lon="10.332610997252004"><ele>77.0</ele><time>2026-04-04T17:15:25Z</time></trkpt><trkpt lat="44.76701181373554" lon="10.332495884838469"><ele>76.75</ele><time>2026-04-04T17:15:26Z</time></trkpt><trkpt lat="44.76713029350549" lon="10.332363868242938"><ele>76.5</ele><time>2026-04-04T17:15:27Z</time></trkpt><trkpt lat="44.76724055047651" lon="10.332229492276783"><ele>76.25</ele><time>2026-04-04T17:15:28Z</time></trkpt><trkpt lat="44.76735082266685" lon="10.332094735508731"><ele>76.0</ele><time>2026-04-04T17:15:29Z</time></trkpt><trkpt lat="44.76746354521057" lon="10.33195544879987"><ele>76.0</ele><time>2026-04-04T17:15:30Z</time></trkpt><trkpt lat="44.76756713989266" lon="10.331830758382548"><ele>76.0</ele><time>2026-04-04T17:15:31Z</time></trkpt><trkpt lat="44.7676715358744" lon="10.331713196419333"><ele>76.0</ele><time>2026-04-04T17:15:32Z</time></trkpt><trkpt lat="44.76778739746562" lon="10.331606635344077"><ele>76.0</ele><time>2026-04-04T17:15:33Z</time></trkpt><trkpt lat="44.767909109655044" lon="10.331517180697064"><ele>76.0</ele><time>2026-04-04T17:15:34Z</time></trkpt><trkpt lat="44.76803209503782" lon="10.331441194136952"><ele>76.0</ele><time>2026-04-04T17:15:35Z</time></trkpt><trkpt lat="44.76815679627986" lon="10.331371613637602"><ele>76.0</ele><time>2026-04-04T17:15:36Z</time></trkpt><trkpt lat="44.76828661512583" lon="10.33129624416227"><ele>76.0</ele><time>2026-04-04T17:15:37Z</time></trkpt><trkpt lat="44.768418858077354" lon="10.331221573247051"><ele>75.75</ele><time>2026-04-04T17:15:38Z</time></trkpt><trkpt lat="44.76855183925361" lon="10.331152134049214"><ele>75.5</ele><time>2026-04-04T17:15:39Z</time></trkpt><trkpt lat="44.768683500966866" lon="10.331080711616677"><ele>75.25</ele><time>2026-04-04T17:15:40Z</time></trkpt><trkpt lat="44.76880907083582" lon="10.331007350272419"><ele>75.0</ele><time>2026-04-04T17:15:41Z</time></trkpt><trkpt lat="44.768923080802566" lon="10.330946101249257"><ele>75.0</ele><time>2026-04-04T17:15:42Z</time></trkpt><trkpt lat="44.76904292487843" lon="10.33088999417078"><ele>75.0</ele><time>2026-04-04T17:15:43Z</time></trkpt><trkpt lat="44.76916633255566" lon="10.330852509028137"><ele>75.0</ele><time>2026-04-04T17:15:44Z</time></trkpt><trkpt lat="44.769294714988064" lon="10.330815679729207"><ele>75.0</ele><time>2026-04-04T17:15:45Z</time></trkpt><trkpt lat="44.76942821986551" lon="10.330773122178675"><ele>75.0</ele><time>2026-04-04T17:15:46Z</time></trkpt><trkpt lat="44.76955088971126" lon="10.330731568040154"><ele>75.0</ele><time>2026-04-04T17:15:47Z</time></trkpt><trkpt lat="44.76967161648403" lon="10.330692359248072"><ele>75.0</ele><time>2026-04-04T17:15:48Z</time></trkpt><trkpt lat="44.769795393005474" lon="10.330657887058823"><ele>75.0</ele><time>2026-04-04T17:15:49Z</time></trkpt><trkpt lat="44.76992187383351" lon="10.33062250879451"><ele>75.0</ele><time>2026-04-04T17:15:50Z</time></trkpt><trkpt lat="44.77005635434282" lon="10.330574512258348"><ele>75.0</ele><time>2026-04-04T17:15:51Z</time></trkpt><trkpt lat="44.77018947482682" lon="10.3305261186985"><ele>75.0</ele><time>2026-04-04T17:15:52Z</time></trkpt><trkpt lat="44.770310828483886" lon="10.330491257984608"><ele>75.0</ele><time>2026-04-04T17:15:53Z</time></trkpt><trkpt lat="44.77042761270437" lon="10.330458430595082"><ele>74.75</ele><time>2026-04-04T17:15:54Z</time></trkpt><trkpt lat="44.7705603071305" lon="10.330416795043158"><ele>74.5</ele><time>2026-04-04T17:15:55Z</time></trkpt><trkpt lat="44.77068622055524" lon="10.33037248268699"><ele>74.25</ele><time>2026-04-04T17:15:56Z</time></trkpt><trkpt lat="44.77080348061721" lon="10.330336735904716"><ele>74.0</ele><time>2026-04-04T17:15:57Z</time></trkpt><trkpt lat="44.77091510733481" lon="10.330293605547006"><ele>73.66666666666667</ele><time>2026-04-04T17:15:58Z</time></trkpt><trkpt lat="44.77104120676376" lon="10.330237372004994"><ele>73.33333333333333</ele><time>2026-04-04T17:15:59Z</time></trkpt><trkpt lat="44.771204378497764" lon="10.33019617848589"><ele>73.0</ele><time>2026-04-04T17:16:00Z</time></trkpt><trkpt lat="44.771388224355746" lon="10.330133833215102"><ele>73.0</ele><time>2026-04-04T17:16:01Z</time></trkpt><trkpt lat="44.771579782692754" lon="10.330056792285932"><ele>73.0</ele><time>2026-04-04T17:16:02Z</time></trkpt><trkpt lat="44.77177876887527" lon="10.330020421401647"><ele>73.0</ele><time>2026-04-04T17:16:03Z</time></trkpt><trkpt lat="44.771975874283946" lon="10.32997108960735"><ele>73.66666666666666</ele><time>2026-04-04T17:16:04Z</time></trkpt><trkpt lat="44.772167688235875" lon="10.329942691986643"><ele>74.33333333333333</ele><time>2026-04-04T17:16:05Z</time></trkpt><trkpt lat="44.772362290452214" lon="10.32994145121515"><ele>75.0</ele><time>2026-04-04T17:16:06Z</time></trkpt><trkpt lat="44.77254614625852" lon="10.329939377515327"><ele>74.33333333333333</ele><time>2026-04-04T17:16:07Z</time></trkpt><trkpt lat="44.7727225305846" lon="10.329929634417773"><ele>73.66666666666666</ele><time>2026-04-04T17:16:08Z</time></trkpt><trkpt lat="44.7728966983668" lon="10.329937484867619"><ele>73.0</ele><time>2026-04-04T17:16:09Z</time></trkpt><trkpt lat="44.77306332012233" lon="10.329962481715599"><ele>73.0</ele><time>2026-04-04T17:16:10Z</time></trkpt><trkpt lat="44.773234192342464" lon="10.329991355093725"><ele>73.0</ele><time>2026-04-04T17:16:11Z</time></trkpt><trkpt lat="44.77340791905678" lon="10.330020980077274"><ele>73.0</ele><time>2026-04-04T17:16:12Z</time></trkpt><trkpt lat="44.773589338796675" lon="10.33007755114766"><ele>72.33333333333333</ele><time>2026-04-04T17:16:13Z</time></trkpt><trkpt lat="44.77378856789388" lon="10.330125041071158"><ele>71.66666666666667</ele><time>2026-04-04T17:16:14Z</time></trkpt><trkpt lat="44.77399215147951" lon="10.330171699546028"><ele>71.0</ele><time>2026-04-04T17:16:15Z</time></trkpt><trkpt lat="44.774187476078616" lon="10.330213396674605"><ele>71.0</ele><time>2026-04-04T17:16:16Z</time></trkpt><trkpt lat="44.77436146908863" lon="10.330257113952136"><ele>71.0</ele><time>2026-04-04T17:16:17Z</time></trkpt><trkpt lat="44.77453654790577" lon="10.330302925951477"><ele>71.0</ele><time>2026-04-04T17:16:18Z</time></trkpt><trkpt lat="44.77469877992225" lon="10.330351565645453"><ele>71.0</ele><time>2026-04-04T17:16:19Z</time></trkpt><trkpt lat="44.77485172690055" lon="10.330407048479927"><ele>71.0</ele><time>2026-04-04T17:16:20Z</time></trkpt><trkpt lat="44.7749951493717" lon="10.330453971707776"><ele>71.0</ele><time>2026-04-04T17:16:21Z</time></trkpt><trkpt lat="44.775124738306076" lon="10.33049839940104"><ele>71.0</ele><time>2026-04-04T17:16:22Z</time></trkpt><trkpt lat="44.775234244003" lon="10.33055498257111"><ele>71.16666666666667</ele><time>2026-04-04T17:16:23Z</time></trkpt><trkpt lat="44.775317561594335" lon="10.33061825048058"><ele>71.33333333333334</ele><time>2026-04-04T17:16:24Z</time></trkpt><trkpt lat="44.775390183862555" lon="10.330677867895531"><ele>71.5</ele><time>2026-04-04T17:16:26Z</time></trkpt><trkpt lat="44.77545534692815" lon="10.330734893539502"><ele>71.66666666666667</ele><time>2026-04-04T17:16:30Z</time></trkpt><trkpt lat="44.77552114217415" lon="10.330818506041533"><ele>71.83333333333333</ele><time>2026-04-04T17:16:31Z</time></trkpt><trkpt lat="44.775589153652504" lon="10.33088248172195"><ele>72.0</ele><time>2026-04-04T17:16:32Z</time></trkpt><trkpt lat="44.77567041801021" lon="10.330899432818459"><ele>72.0</ele><time>2026-04-04T17:16:33Z</time></trkpt><trkpt lat="44.77575206684177" lon="10.330866883396656"><ele>72.0</ele><time>2026-04-04T17:16:34Z</time></trkpt><trkpt lat="44.77581659761125" lon="10.330805781093598"><ele>72.0</ele><time>2026-04-04T17:16:35Z</time></trkpt><trkpt lat="44.77587959533908" lon="10.33073991487984"><ele>72.0</ele><time>2026-04-04T17:16:36Z</time></trkpt><trkpt lat="44.77594970484791" lon="10.330699033714037"><ele>72.0</ele><time>2026-04-04T17:16:37Z</time></trkpt><trkpt lat="44.776018753924426" lon="10.330673901501884"><ele>72.0</ele><time>2026-04-04T17:16:38Z</time></trkpt><trkpt lat="44.77608745556643" lon="10.330664603290085"><ele>72.0</ele><time>2026-04-04T17:16:39Z</time></trkpt><trkpt lat="44.77622018459231" lon="10.33067346943193"><ele>72.0</ele><time>2026-04-04T17:16:41Z</time></trkpt><trkpt lat="44.77630013388651" lon="10.330687173738488"><ele>72.0</ele><time>2026-04-04T17:16:42Z</time></trkpt><trkpt lat="44.77638318926552" lon="10.33069887811147"><ele>72.0</ele><time>2026-04-04T17:16:43Z</time></trkpt><trkpt lat="44.77645182785041" lon="10.33070700616301"><ele>72.0</ele><time>2026-04-04T17:16:44Z</time></trkpt><trkpt lat="44.77657399683851" lon="10.33073662655937"><ele>72.0</ele><time>2026-04-04T17:16:46Z</time></trkpt><trkpt lat="44.776637666843456" lon="10.330751424480217"><ele>72.0</ele><time>2026-04-04T17:16:47Z</time></trkpt><trkpt lat="44.77686294638312" lon="10.330688893184051"><ele>72.0</ele><time>2026-04-04T17:16:49Z</time></trkpt><trkpt lat="44.77693355944076" lon="10.330595928712313"><ele>72.0</ele><time>2026-04-04T17:16:51Z</time></trkpt><trkpt lat="44.77699256542573" lon="10.330540340376292"><ele>72.2</ele><time>2026-04-04T17:16:52Z</time></trkpt><trkpt lat="44.777055858006364" lon="10.330497177308871"><ele>72.4</ele><time>2026-04-04T17:16:53Z</time></trkpt><trkpt lat="44.77715049738392" lon="10.330437922540396"><ele>72.6</ele><time>2026-04-04T17:16:54Z</time></trkpt><trkpt lat="44.77724129945611" lon="10.33038170353745"><ele>72.8</ele><time>2026-04-04T17:16:55Z</time></trkpt><trkpt lat="44.77732624339193" lon="10.330330833157616"><ele>73.0</ele><time>2026-04-04T17:16:56Z</time></trkpt><trkpt lat="44.777405333676505" lon="10.33028346840159"><ele>73.0</ele><time>2026-04-04T17:16:57Z</time></trkpt><trkpt lat="44.77749425841369" lon="10.330241783083169"><ele>73.0</ele><time>2026-04-04T17:16:58Z</time></trkpt><trkpt lat="44.777576336618864" lon="10.330233336690835"><ele>73.0</ele><time>2026-04-04T17:16:59Z</time></trkpt><trkpt lat="44.777673402409604" lon="10.330220758543158"><ele>73.0</ele><time>2026-04-04T17:17:00Z</time></trkpt><trkpt lat="44.77777735482654" lon="10.330207288001931"><ele>73.0</ele><time>2026-04-04T17:17:01Z</time></trkpt><trkpt lat="44.77786266801718" lon="10.329937882118417"><ele>72.5</ele><time>2026-04-04T17:17:02Z</time></trkpt><trkpt lat="44.77794838400583" lon="10.329883145062727"><ele>72.0</ele><time>2026-04-04T17:17:03Z</time></trkpt><trkpt lat="44.77802311928403" lon="10.3298374304489"><ele>71.5</ele><time>2026-04-04T17:17:04Z</time></trkpt><trkpt lat="44.77808225562194" lon="10.329803722492198"><ele>71.0</ele><time>2026-04-04T17:17:05Z</time></trkpt><trkpt lat="44.77814598244856" lon="10.329768032496393"><ele>70.5</ele><time>2026-04-04T17:17:07Z</time></trkpt><trkpt lat="44.778030859692926" lon="10.329823844547677"><ele>70.0</ele><time>2026-04-04T17:17:40Z</time></trkpt><trkpt lat="44.77797379870726" lon="10.329870527132417"><ele>70.0</ele><time>2026-04-04T17:17:41Z</time></trkpt><trkpt lat="44.77790758985069" lon="10.329916305746297"><ele>70.0</ele><time>2026-04-04T17:17:42Z</time></trkpt><trkpt lat="44.7778220314715" lon="10.329969028530938"><ele>70.0</ele><time>2026-04-04T17:17:43Z</time></trkpt><trkpt lat="44.777722806052104" lon="10.330026479018839"><ele>70.0</ele><time>2026-04-04T17:17:44Z</time></trkpt><trkpt lat="44.77763102754176" lon="10.330070330012845"><ele>70.0</ele><time>2026-04-04T17:17:45Z</time></trkpt><trkpt lat="44.777548932067894" lon="10.330111649797015"><ele>70.6</ele><time>2026-04-04T17:17:46Z</time></trkpt><trkpt lat="44.77746534569455" lon="10.330156787430498"><ele>71.2</ele><time>2026-04-04T17:17:47Z</time></trkpt><trkpt lat="44.77738292989957" lon="10.330206496300823"><ele>71.8</ele><time>2026-04-04T17:17:48Z</time></trkpt><trkpt lat="44.77730627547019" lon="10.330254286013664"><ele>72.4</ele><time>2026-04-04T17:17:49Z</time></trkpt><trkpt lat="44.777244283042826" lon="10.330294240528762"><ele>73.0</ele><time>2026-04-04T17:17:50Z</time></trkpt><trkpt lat="44.77713252918181" lon="10.330367007643378"><ele>73.0</ele><time>2026-04-04T17:17:52Z</time></trkpt><trkpt lat="44.77702150581813" lon="10.330437783738798"><ele>73.0</ele><time>2026-04-04T17:17:54Z</time></trkpt><trkpt lat="44.7769547829586" lon="10.330465593283224"><ele>73.0</ele><time>2026-04-04T17:17:55Z</time></trkpt><trkpt lat="44.776877927742014" lon="10.330500068057304"><ele>73.0</ele><time>2026-04-04T17:17:56Z</time></trkpt><trkpt lat="44.776809896413646" lon="10.33052703855879"><ele>73.0</ele><time>2026-04-04T17:17:57Z</time></trkpt><trkpt lat="44.77670730397053" lon="10.330580920203676"><ele>72.83333333333333</ele><time>2026-04-04T17:17:59Z</time></trkpt><trkpt lat="44.776641937482786" lon="10.330636366297123"><ele>72.66666666666666</ele><time>2026-04-04T17:18:01Z</time></trkpt><trkpt lat="44.776639500146075" lon="10.330734635182067"><ele>72.5</ele><time>2026-04-04T17:18:11Z</time></trkpt><trkpt lat="44.776718695045545" lon="10.330814731123592"><ele>72.33333333333333</ele><time>2026-04-04T17:18:13Z</time></trkpt><trkpt lat="44.77679945504734" lon="10.330832953968784"><ele>72.16666666666667</ele><time>2026-04-04T17:18:14Z</time></trkpt><trkpt lat="44.77688965856718" lon="10.3308843957916"><ele>72.0</ele><time>2026-04-04T17:18:15Z</time></trkpt><trkpt lat="44.77698904908243" lon="10.330955735538904"><ele>71.75</ele><time>2026-04-04T17:18:16Z</time></trkpt><trkpt lat="44.77709362004898" lon="10.331038715390608"><ele>71.5</ele><time>2026-04-04T17:18:17Z</time></trkpt><trkpt lat="44.77720912075283" lon="10.331123316041541"><ele>71.25</ele><time>2026-04-04T17:18:18Z</time></trkpt><trkpt lat="44.77733987975304" lon="10.331224820172501"><ele>71.0</ele><time>2026-04-04T17:18:19Z</time></trkpt><trkpt lat="44.77747079434435" lon="10.33133165052104"><ele>70.33333333333334</ele><time>2026-04-04T17:18:20Z</time></trkpt><trkpt lat="44.77761175178196" lon="10.33143056526161"><ele>69.66666666666667</ele><time>2026-04-04T17:18:21Z</time></trkpt><trkpt lat="44.77775759866905" lon="10.331499171959184"><ele>69.0</ele><time>2026-04-04T17:18:22Z</time></trkpt><trkpt lat="44.77789977495039" lon="10.331563238154944"><ele>69.0</ele><time>2026-04-04T17:18:23Z</time></trkpt><trkpt lat="44.778038789062755" lon="10.33162592639865"><ele>69.0</ele><time>2026-04-04T17:18:24Z</time></trkpt><trkpt lat="44.77818970749613" lon="10.331667600993146"><ele>69.0</ele><time>2026-04-04T17:18:25Z</time></trkpt><trkpt lat="44.77833717342198" lon="10.331689288478783"><ele>69.0</ele><time>2026-04-04T17:18:26Z</time></trkpt><trkpt lat="44.77848582791697" lon="10.33170753269792"><ele>68.75</ele><time>2026-04-04T17:18:27Z</time></trkpt><trkpt lat="44.77862789201054" lon="10.331711168770772"><ele>68.5</ele><time>2026-04-04T17:18:28Z</time></trkpt><trkpt lat="44.77876383970221" lon="10.331700747309434"><ele>68.25</ele><time>2026-04-04T17:18:29Z</time></trkpt><trkpt lat="44.778885884362666" lon="10.33169271291261"><ele>68.0</ele><time>2026-04-04T17:18:30Z</time></trkpt><trkpt lat="44.77901174572652" lon="10.33169588139541"><ele>68.0</ele><time>2026-04-04T17:18:31Z</time></trkpt><trkpt lat="44.77913358620239" lon="10.331701988008044"><ele>68.0</ele><time>2026-04-04T17:18:32Z</time></trkpt><trkpt lat="44.779248644454995" lon="10.33170459983771"><ele>68.0</ele><time>2026-04-04T17:18:33Z</time></trkpt><trkpt lat="44.77936102619959" lon="10.331705956202718"><ele>68.0</ele><time>2026-04-04T17:18:34Z</time></trkpt><trkpt lat="44.779476348843914" lon="10.331706268067137"><ele>68.0</ele><time>2026-04-04T17:18:35Z</time></trkpt><trkpt lat="44.77958303991169" lon="10.331704823931135"><ele>68.0</ele><time>2026-04-04T17:18:36Z</time></trkpt><trkpt lat="44.77968859382629" lon="10.331702224190028"><ele>68.0</ele><time>2026-04-04T17:18:37Z</time></trkpt><trkpt lat="44.77980496765049" lon="10.331702979414985"><ele>68.0</ele><time>2026-04-04T17:18:38Z</time></trkpt><trkpt lat="44.77992590160592" lon="10.331714911457029"><ele>68.0</ele><time>2026-04-04T17:18:39Z</time></trkpt><trkpt lat="44.780038217437635" lon="10.331717329192191"><ele>68.0</ele><time>2026-04-04T17:18:40Z</time></trkpt><trkpt lat="44.78014102158321" lon="10.331714103448187"><ele>68.0</ele><time>2026-04-04T17:18:41Z</time></trkpt><trkpt lat="44.78024585353546" lon="10.331712168679791"><ele>68.0</ele><time>2026-04-04T17:18:42Z</time></trkpt><trkpt lat="44.780353558352374" lon="10.331706391636143"><ele>68.0</ele><time>2026-04-04T17:18:43Z</time></trkpt><trkpt lat="44.780450210958314" lon="10.331704154490007"><ele>68.2</ele><time>2026-04-04T17:18:44Z</time></trkpt><trkpt lat="44.78053821809316" lon="10.331708026315566"><ele>68.4</ele><time>2026-04-04T17:18:45Z</time></trkpt><trkpt lat="44.780630028831524" lon="10.331709203715008"><ele>68.60000000000001</ele><time>2026-04-04T17:18:46Z</time></trkpt><trkpt lat="44.780733986820294" lon="10.331706647803793"><ele>68.8</ele><time>2026-04-04T17:18:47Z</time></trkpt><trkpt lat="44.78086184670443" lon="10.331706725300048"><ele>69.0</ele><time>2026-04-04T17:18:48Z</time></trkpt><trkpt lat="44.781006706474194" lon="10.33170343603383"><ele>68.5</ele><time>2026-04-04T17:18:49Z</time></trkpt><trkpt lat="44.781143341316195" lon="10.331681691607645"><ele>68.0</ele><time>2026-04-04T17:18:50Z</time></trkpt><trkpt lat="44.781273283045536" lon="10.3316479378665"><ele>67.5</ele><time>2026-04-04T17:18:51Z</time></trkpt><trkpt lat="44.78140647377913" lon="10.331595282348598"><ele>67.0</ele><time>2026-04-04T17:18:52Z</time></trkpt><trkpt lat="44.781559415004956" lon="10.331508468403054"><ele>67.0</ele><time>2026-04-04T17:18:53Z</time></trkpt><trkpt lat="44.78170320930636" lon="10.331422564575309"><ele>67.0</ele><time>2026-04-04T17:18:54Z</time></trkpt><trkpt lat="44.781820818411695" lon="10.331361582805712"><ele>67.0</ele><time>2026-04-04T17:18:55Z</time></trkpt><trkpt lat="44.7819116626646" lon="10.331328659287157"><ele>67.0</ele><time>2026-04-04T17:18:56Z</time></trkpt><trkpt lat="44.78198526672098" lon="10.331324468647077"><ele>67.0</ele><time>2026-04-04T17:18:57Z</time></trkpt><trkpt lat="44.78210783961007" lon="10.331388718198252"><ele>67.0</ele><time>2026-04-04T17:18:59Z</time></trkpt><trkpt lat="44.78217158525121" lon="10.331417446639907"><ele>67.0</ele><time>2026-04-04T17:19:00Z</time></trkpt><trkpt lat="44.78223387148544" lon="10.331396526229124"><ele>67.0</ele><time>2026-04-04T17:19:01Z</time></trkpt><trkpt lat="44.7822810683525" lon="10.331335750221282"><ele>67.0</ele><time>2026-04-04T17:19:02Z</time></trkpt><trkpt lat="44.782320385097336" lon="10.331247037501484"><ele>67.0</ele><time>2026-04-04T17:19:03Z</time></trkpt><trkpt lat="44.78236306104403" lon="10.331146663665896"><ele>67.0</ele><time>2026-04-04T17:19:04Z</time></trkpt><trkpt lat="44.78242253732594" lon="10.331080973597922"><ele>67.0</ele><time>2026-04-04T17:19:05Z</time></trkpt><trkpt lat="44.78250066837657" lon="10.331038885898199"><ele>67.0</ele><time>2026-04-04T17:19:06Z</time></trkpt><trkpt lat="44.78260039069332" lon="10.33099611572778"><ele>67.0</ele><time>2026-04-04T17:19:07Z</time></trkpt><trkpt lat="44.78270265699271" lon="10.330945241869053"><ele>67.0</ele><time>2026-04-04T17:19:08Z</time></trkpt><trkpt lat="44.7828052050752" lon="10.330888440176055"><ele>67.0</ele><time>2026-04-04T17:19:09Z</time></trkpt><trkpt lat="44.78291260441104" lon="10.330836483541901"><ele>67.0</ele><time>2026-04-04T17:19:10Z</time></trkpt><trkpt lat="44.78303626008234" lon="10.330777188165886"><ele>67.0</ele><time>2026-04-04T17:19:11Z</time></trkpt><trkpt lat="44.78316576429785" lon="10.330700148496007"><ele>67.0</ele><time>2026-04-04T17:19:12Z</time></trkpt><trkpt lat="44.78328648315861" lon="10.330637165906689"><ele>67.0</ele><time>2026-04-04T17:19:13Z</time></trkpt><trkpt lat="44.78339569631455" lon="10.330598338113804"><ele>67.0</ele><time>2026-04-04T17:19:14Z</time></trkpt><trkpt lat="44.783502105502144" lon="10.330566481081622"><ele>67.75</ele><time>2026-04-04T17:19:15Z</time></trkpt><trkpt lat="44.78362656664001" lon="10.330530225247257"><ele>68.5</ele><time>2026-04-04T17:19:16Z</time></trkpt><trkpt lat="44.78376389790173" lon="10.330485477996561"><ele>69.25</ele><time>2026-04-04T17:19:17Z</time></trkpt><trkpt lat="44.7839238087818" lon="10.330430070009731"><ele>70.0</ele><time>2026-04-04T17:19:18Z</time></trkpt><trkpt lat="44.78411008656201" lon="10.33040471992878"><ele>70.0</ele><time>2026-04-04T17:19:19Z</time></trkpt><trkpt lat="44.784308334527545" lon="10.33037359447686"><ele>70.0</ele><time>2026-04-04T17:19:20Z</time></trkpt><trkpt lat="44.7844908629785" lon="10.330334983551356"><ele>70.0</ele><time>2026-04-04T17:19:21Z</time></trkpt><trkpt lat="44.78468708710827" lon="10.330334454868282"><ele>69.66666666666666</ele><time>2026-04-04T17:19:22Z</time></trkpt><trkpt lat="44.78489536331293" lon="10.330332698157024"><ele>69.33333333333333</ele><time>2026-04-04T17:19:23Z</time></trkpt><trkpt lat="44.785082254157885" lon="10.330325101396582"><ele>69.0</ele><time>2026-04-04T17:19:24Z</time></trkpt><trkpt lat="44.78525935247193" lon="10.330316735215854"><ele>67.33333333333333</ele><time>2026-04-04T17:19:25Z</time></trkpt><trkpt lat="44.785424744643855" lon="10.33030906940005"><ele>65.66666666666666</ele><time>2026-04-04T17:19:26Z</time></trkpt><trkpt lat="44.78558500317625" lon="10.33029967202486"><ele>64.0</ele><time>2026-04-04T17:19:27Z</time></trkpt><trkpt lat="44.78573523841179" lon="10.330292833252765"><ele>64.0</ele><time>2026-04-04T17:19:28Z</time></trkpt><trkpt lat="44.78586407934964" lon="10.330286744623272"><ele>64.0</ele><time>2026-04-04T17:19:29Z</time></trkpt><trkpt lat="44.785966603711096" lon="10.33029068716912"><ele>64.0</ele><time>2026-04-04T17:19:30Z</time></trkpt><trkpt lat="44.78604510273147" lon="10.33031785540367"><ele>64.0</ele><time>2026-04-04T17:19:31Z</time></trkpt><trkpt lat="44.7861051064988" lon="10.33040332503786"><ele>64.0</ele><time>2026-04-04T17:19:32Z</time></trkpt><trkpt lat="44.786173014488725" lon="10.330484980269315"><ele>64.4</ele><time>2026-04-04T17:19:33Z</time></trkpt><trkpt lat="44.78622870394375" lon="10.33062222593587"><ele>64.80000000000001</ele><time>2026-04-04T17:19:34Z</time></trkpt><trkpt lat="44.78627334854509" lon="10.330738150904063"><ele>65.19999999999999</ele><time>2026-04-04T17:19:35Z</time></trkpt><trkpt lat="44.78633970001015" lon="10.330806892596733"><ele>65.6</ele><time>2026-04-04T17:19:36Z</time></trkpt><trkpt lat="44.786422602919906" lon="10.33082594453879"><ele>66.0</ele><time>2026-04-04T17:19:37Z</time></trkpt><trkpt lat="44.786515487356795" lon="10.33079634657328"><ele>66.0</ele><time>2026-04-04T17:19:38Z</time></trkpt><trkpt lat="44.78659691810996" lon="10.330715584877266"><ele>66.0</ele><time>2026-04-04T17:19:39Z</time></trkpt><trkpt lat="44.78664804943632" lon="10.330579457080578"><ele>66.0</ele><time>2026-04-04T17:19:40Z</time></trkpt><trkpt lat="44.78673132139567" lon="10.330446283917135"><ele>66.0</ele><time>2026-04-04T17:19:41Z</time></trkpt><trkpt lat="44.78681548177545" lon="10.330302908066567"><ele>67.0</ele><time>2026-04-04T17:19:42Z</time></trkpt><trkpt lat="44.786922174617665" lon="10.330184354981723"><ele>68.0</ele><time>2026-04-04T17:19:43Z</time></trkpt><trkpt lat="44.787041350010995" lon="10.330076509952255"><ele>69.0</ele><time>2026-04-04T17:19:44Z</time></trkpt><trkpt lat="44.78715499461498" lon="10.329969938635928"><ele>70.0</ele><time>2026-04-04T17:19:45Z</time></trkpt><trkpt lat="44.78726497866153" lon="10.329848293885004"><ele>70.0</ele><time>2026-04-04T17:19:46Z</time></trkpt><trkpt lat="44.78736012682223" lon="10.329739356589444"><ele>70.0</ele><time>2026-04-04T17:19:47Z</time></trkpt><trkpt lat="44.78745296087753" lon="10.329632686482526"><ele>70.0</ele><time>2026-04-04T17:19:48Z</time></trkpt><trkpt lat="44.78754515452926" lon="10.329528119855107"><ele>70.0</ele><time>2026-04-04T17:19:49Z</time></trkpt><trkpt lat="44.78764433148602" lon="10.32941093235033"><ele>70.0</ele><time>2026-04-04T17:19:50Z</time></trkpt><trkpt lat="44.787767791077634" lon="10.329271241967952"><ele>70.0</ele><time>2026-04-04T17:19:51Z</time></trkpt><trkpt lat="44.78791024243792" lon="10.329126239590696"><ele>70.0</ele><time>2026-04-04T17:19:52Z</time></trkpt><trkpt lat="44.78803474527115" lon="10.329004941687876"><ele>70.0</ele><time>2026-04-04T17:19:53Z</time></trkpt><trkpt lat="44.788134623246826" lon="10.32890025593526"><ele>70.0</ele><time>2026-04-04T17:19:54Z</time></trkpt><trkpt lat="44.78822116650274" lon="10.328812836265936"><ele>70.0</ele><time>2026-04-04T17:19:55Z</time></trkpt><trkpt lat="44.78829564492059" lon="10.328740612582232"><ele>70.0</ele><time>2026-04-04T17:19:56Z</time></trkpt><trkpt lat="44.78835689518724" lon="10.328672426693805"><ele>70.0</ele><time>2026-04-04T17:19:57Z</time></trkpt><trkpt lat="44.788409244665544" lon="10.328615152257381"><ele>70.0</ele><time>2026-04-04T17:19:58Z</time></trkpt><trkpt lat="44.78849677944924" lon="10.328543312267373"><ele>70.0</ele><time>2026-04-04T17:20:00Z</time></trkpt><trkpt lat="44.78857627561345" lon="10.328548462865449"><ele>70.0</ele><time>2026-04-04T17:20:03Z</time></trkpt><trkpt lat="44.788640807318764" lon="10.328605050613028"><ele>70.0</ele><time>2026-04-04T17:20:05Z</time></trkpt><trkpt lat="44.78867012805256" lon="10.328688532146822"><ele>70.0</ele><time>2026-04-04T17:20:06Z</time></trkpt><trkpt lat="44.78870577727426" lon="10.328785905352346"><ele>70.0</ele><time>2026-04-04T17:20:07Z</time></trkpt><trkpt lat="44.78867626295681" lon="10.328944937047835"><ele>69.75</ele><time>2026-04-04T17:20:08Z</time></trkpt><trkpt lat="44.788680822372" lon="10.329110607101745"><ele>69.5</ele><time>2026-04-04T17:20:09Z</time></trkpt><trkpt lat="44.788686841565465" lon="10.32931593346116"><ele>69.25</ele><time>2026-04-04T17:20:10Z</time></trkpt><trkpt lat="44.78869593132775" lon="10.329557613238395"><ele>69.0</ele><time>2026-04-04T17:20:11Z</time></trkpt><trkpt lat="44.78871163665435" lon="10.329807172416112"><ele>68.75</ele><time>2026-04-04T17:20:12Z</time></trkpt><trkpt lat="44.788713735668445" lon="10.330025169281702"><ele>68.5</ele><time>2026-04-04T17:20:13Z</time></trkpt><trkpt lat="44.78872288486787" lon="10.330218905206614"><ele>68.25</ele><time>2026-04-04T17:20:14Z</time></trkpt><trkpt lat="44.788728971864195" lon="10.330396980385743"><ele>68.0</ele><time>2026-04-04T17:20:15Z</time></trkpt><trkpt lat="44.78873595538884" lon="10.33056749212308"><ele>68.0</ele><time>2026-04-04T17:20:16Z</time></trkpt><trkpt lat="44.78874599427904" lon="10.330736508725064"><ele>68.0</ele><time>2026-04-04T17:20:17Z</time></trkpt><trkpt lat="44.78875524282243" lon="10.330941211154038"><ele>68.0</ele><time>2026-04-04T17:20:18Z</time></trkpt><trkpt lat="44.788768670827636" lon="10.331149625119505"><ele>68.0</ele><time>2026-04-04T17:20:19Z</time></trkpt><trkpt lat="44.788789133515664" lon="10.331356195838687"><ele>67.25</ele><time>2026-04-04T17:20:20Z</time></trkpt><trkpt lat="44.788828079020945" lon="10.331553373342105"><ele>66.5</ele><time>2026-04-04T17:20:21Z</time></trkpt><trkpt lat="44.78887560630497" lon="10.331748120877254"><ele>65.75</ele><time>2026-04-04T17:20:22Z</time></trkpt><trkpt lat="44.7889372502702" lon="10.331935179083853"><ele>65.0</ele><time>2026-04-04T17:20:23Z</time></trkpt><trkpt lat="44.78901463186986" lon="10.332132152576476"><ele>64.5</ele><time>2026-04-04T17:20:24Z</time></trkpt><trkpt lat="44.7891007628064" lon="10.332316011474633"><ele>64.0</ele><time>2026-04-04T17:20:25Z</time></trkpt><trkpt lat="44.78918087073052" lon="10.332473836842185"><ele>63.5</ele><time>2026-04-04T17:20:26Z</time></trkpt><trkpt lat="44.789264592417204" lon="10.332614389401067"><ele>63.0</ele><time>2026-04-04T17:20:27Z</time></trkpt><trkpt lat="44.78935367079221" lon="10.332727678236221"><ele>63.0</ele><time>2026-04-04T17:20:28Z</time></trkpt><trkpt lat="44.78944907379601" lon="10.332817476281042"><ele>63.0</ele><time>2026-04-04T17:20:29Z</time></trkpt><trkpt lat="44.78955214753296" lon="10.332918433230544"><ele>63.0</ele><time>2026-04-04T17:20:30Z</time></trkpt><trkpt lat="44.78966196263393" lon="10.333041482267927"><ele>63.0</ele><time>2026-04-04T17:20:31Z</time></trkpt><trkpt lat="44.78978619259333" lon="10.333178170397357"><ele>63.0</ele><time>2026-04-04T17:20:32Z</time></trkpt><trkpt lat="44.789903606774004" lon="10.33330915537645"><ele>63.0</ele><time>2026-04-04T17:20:33Z</time></trkpt><trkpt lat="44.790022393226366" lon="10.33344483456996"><ele>63.0</ele><time>2026-04-04T17:20:34Z</time></trkpt><trkpt lat="44.79013762094869" lon="10.333567864215729"><ele>63.0</ele><time>2026-04-04T17:20:35Z</time></trkpt><trkpt lat="44.79024535880667" lon="10.33367668042449"><ele>62.8</ele><time>2026-04-04T17:20:36Z</time></trkpt><trkpt lat="44.79034343436637" lon="10.333779650159949"><ele>62.599999999999994</ele><time>2026-04-04T17:20:37Z</time></trkpt><trkpt lat="44.790425192576045" lon="10.333870073539622"><ele>62.400000000000006</ele><time>2026-04-04T17:20:38Z</time></trkpt><trkpt lat="44.79049913203253" lon="10.333961341018378"><ele>62.2</ele><time>2026-04-04T17:20:39Z</time></trkpt><trkpt lat="44.790574165484585" lon="10.334054244317636"><ele>62.0</ele><time>2026-04-04T17:20:40Z</time></trkpt><trkpt lat="44.79067794855077" lon="10.33415472270986"><ele>62.0</ele><time>2026-04-04T17:20:41Z</time></trkpt><trkpt lat="44.79079616546862" lon="10.334274884291181"><ele>62.0</ele><time>2026-04-04T17:20:42Z</time></trkpt><trkpt lat="44.790917845136015" lon="10.334410861707417"><ele>62.0</ele><time>2026-04-04T17:20:43Z</time></trkpt><trkpt lat="44.79102881223247" lon="10.334531140116402"><ele>62.0</ele><time>2026-04-04T17:20:44Z</time></trkpt><trkpt lat="44.79114551437848" lon="10.334665553204838"><ele>61.333333333333336</ele><time>2026-04-04T17:20:45Z</time></trkpt><trkpt lat="44.79127317973333" lon="10.334804615077788"><ele>60.66666666666667</ele><time>2026-04-04T17:20:46Z</time></trkpt><trkpt lat="44.79140047046742" lon="10.334936406815633"><ele>60.0</ele><time>2026-04-04T17:20:47Z</time></trkpt><trkpt lat="44.79151667871035" lon="10.335068449785938"><ele>60.0</ele><time>2026-04-04T17:20:48Z</time></trkpt><trkpt lat="44.791638861770124" lon="10.335191058027739"><ele>60.0</ele><time>2026-04-04T17:20:49Z</time></trkpt><trkpt lat="44.7917609898159" lon="10.335282620614413"><ele>60.0</ele><time>2026-04-04T17:20:50Z</time></trkpt><trkpt lat="44.79188769619382" lon="10.335340357727889"><ele>60.0</ele><time>2026-04-04T17:20:51Z</time></trkpt><trkpt lat="44.7920114057314" lon="10.335386484222857"><ele>60.75</ele><time>2026-04-04T17:20:52Z</time></trkpt><trkpt lat="44.79212569360909" lon="10.335403985369743"><ele>61.5</ele><time>2026-04-04T17:20:53Z</time></trkpt><trkpt lat="44.7922480079194" lon="10.335423296131674"><ele>62.25</ele><time>2026-04-04T17:20:54Z</time></trkpt><trkpt lat="44.79236618658212" lon="10.335445567647222"><ele>63.0</ele><time>2026-04-04T17:20:55Z</time></trkpt><trkpt lat="44.7924969303668" lon="10.335466799919459"><ele>63.0</ele><time>2026-04-04T17:20:56Z</time></trkpt><trkpt lat="44.79264731526167" lon="10.33549736201416"><ele>63.0</ele><time>2026-04-04T17:20:57Z</time></trkpt><trkpt lat="44.79280590291501" lon="10.335529217302302"><ele>63.0</ele><time>2026-04-04T17:20:58Z</time></trkpt><trkpt lat="44.79294709907445" lon="10.335579710389888"><ele>62.8</ele><time>2026-04-04T17:20:59Z</time></trkpt><trkpt lat="44.793080926446656" lon="10.335619080323365"><ele>62.599999999999994</ele><time>2026-04-04T17:21:00Z</time></trkpt><trkpt lat="44.79320554261317" lon="10.335629248386818"><ele>62.400000000000006</ele><time>2026-04-04T17:21:01Z</time></trkpt><trkpt lat="44.793306154254196" lon="10.335642155150039"><ele>62.2</ele><time>2026-04-04T17:21:02Z</time></trkpt><trkpt lat="44.79337298144511" lon="10.335659084879804"><ele>62.0</ele><time>2026-04-04T17:21:03Z</time></trkpt><trkpt lat="44.79343142395984" lon="10.335699334440983"><ele>62.00000000000001</ele><time>2026-04-04T17:21:05Z</time></trkpt><trkpt lat="44.793424016473566" lon="10.335830600547808"><ele>62.0</ele><time>2026-04-04T17:21:06Z</time></trkpt><trkpt lat="44.793423324138594" lon="10.335952679066118"><ele>62.0</ele><time>2026-04-04T17:21:08Z</time></trkpt><trkpt lat="44.79341304315261" lon="10.336049477643606"><ele>62.0</ele><time>2026-04-04T17:21:09Z</time></trkpt><trkpt lat="44.793396568198084" lon="10.336189313537261"><ele>62.00000000000001</ele><time>2026-04-04T17:21:10Z</time></trkpt><trkpt lat="44.7933763874043" lon="10.336325313615058"><ele>62.0</ele><time>2026-04-04T17:21:11Z</time></trkpt><trkpt lat="44.79337091010669" lon="10.336415255000245"><ele>62.0</ele><time>2026-04-04T17:21:12Z</time></trkpt><trkpt lat="44.79336250585526" lon="10.336556625793785"><ele>62.0</ele><time>2026-04-04T17:21:14Z</time></trkpt><trkpt lat="44.79334671804459" lon="10.336674894876756"><ele>62.0</ele><time>2026-04-04T17:21:15Z</time></trkpt><trkpt lat="44.79333109160678" lon="10.336794033674595"><ele>62.0</ele><time>2026-04-04T17:21:16Z</time></trkpt><trkpt lat="44.79331242834408" lon="10.336941674997124"><ele>62.0</ele><time>2026-04-04T17:21:18Z</time></trkpt><trkpt lat="44.79330687932766" lon="10.337084319599711"><ele>62.0</ele><time>2026-04-04T17:21:20Z</time></trkpt><trkpt lat="44.79331423904986" lon="10.33721114164797"><ele>62.0</ele><time>2026-04-04T17:21:22Z</time></trkpt><trkpt lat="44.79343569129704" lon="10.3371925648701"><ele>62.0</ele><time>2026-04-04T17:21:23Z</time></trkpt><trkpt lat="44.793524302628235" lon="10.337161204393192"><ele>62.0</ele><time>2026-04-04T17:21:24Z</time></trkpt><trkpt lat="44.79362898430853" lon="10.337105329773093"><ele>62.0</ele><time>2026-04-04T17:21:25Z</time></trkpt><trkpt lat="44.79374879636504" lon="10.337043814349647"><ele>62.0</ele><time>2026-04-04T17:21:26Z</time></trkpt><trkpt lat="44.79388009916321" lon="10.33699656711938"><ele>62.0</ele><time>2026-04-04T17:21:27Z</time></trkpt><trkpt lat="44.79403275865889" lon="10.336954734395981"><ele>62.0</ele><time>2026-04-04T17:21:28Z</time></trkpt><trkpt lat="44.79419424970541" lon="10.336902012817568"><ele>62.0</ele><time>2026-04-04T17:21:29Z</time></trkpt><trkpt lat="44.79436233502206" lon="10.33682236783641"><ele>62.0</ele><time>2026-04-04T17:21:30Z</time></trkpt><trkpt lat="44.79451966380365" lon="10.33671820194357"><ele>62.0</ele><time>2026-04-04T17:21:31Z</time></trkpt><trkpt lat="44.79467476021677" lon="10.336669627161546"><ele>62.0</ele><time>2026-04-04T17:21:32Z</time></trkpt><trkpt lat="44.79481202291908" lon="10.336614547922823"><ele>62.0</ele><time>2026-04-04T17:21:33Z</time></trkpt><trkpt lat="44.79493346105504" lon="10.33654801597748"><ele>62.0</ele><time>2026-04-04T17:21:34Z</time></trkpt><trkpt lat="44.795058924470695" lon="10.336505697546208"><ele>62.0</ele><time>2026-04-04T17:21:35Z</time></trkpt><trkpt lat="44.79517947833836" lon="10.336476291771167"><ele>62.0</ele><time>2026-04-04T17:21:36Z</time></trkpt><trkpt lat="44.795289992409074" lon="10.336442996427795"><ele>62.0</ele><time>2026-04-04T17:21:37Z</time></trkpt><trkpt lat="44.795388642562585" lon="10.336394558655654"><ele>62.0</ele><time>2026-04-04T17:21:38Z</time></trkpt><trkpt lat="44.79548888309094" lon="10.336327312831488"><ele>62.0</ele><time>2026-04-04T17:21:39Z</time></trkpt><trkpt lat="44.795595606627934" lon="10.33625893048422"><ele>62.0</ele><time>2026-04-04T17:21:40Z</time></trkpt><trkpt lat="44.79568491931467" lon="10.336195477944488"><ele>62.00000000000001</ele><time>2026-04-04T17:21:41Z</time></trkpt><trkpt lat="44.79575350035672" lon="10.336144284292562"><ele>62.0</ele><time>2026-04-04T17:21:42Z</time></trkpt><trkpt lat="44.795822844571404" lon="10.336118178029192"><ele>62.0</ele><time>2026-04-04T17:21:44Z</time></trkpt><trkpt lat="44.79590175234729" lon="10.336099381663862"><ele>62.0</ele><time>2026-04-04T17:21:48Z</time></trkpt><trkpt lat="44.79597623663315" lon="10.336166686764825"><ele>62.00000000000001</ele><time>2026-04-04T17:21:49Z</time></trkpt><trkpt lat="44.79605109435196" lon="10.336171160955816"><ele>62.0</ele><time>2026-04-04T17:21:50Z</time></trkpt><trkpt lat="44.79612519996714" lon="10.336162239162077"><ele>62.0</ele><time>2026-04-04T17:21:51Z</time></trkpt><trkpt lat="44.7962664867734" lon="10.33621053458135"><ele>62.0</ele><time>2026-04-04T17:21:53Z</time></trkpt><trkpt lat="44.79635263976349" lon="10.336286896793407"><ele>62.0</ele><time>2026-04-04T17:21:54Z</time></trkpt><trkpt lat="44.79645321591063" lon="10.336366868157974"><ele>62.0</ele><time>2026-04-04T17:21:55Z</time></trkpt><trkpt lat="44.796569789982996" lon="10.336453305497317"><ele>62.0</ele><time>2026-04-04T17:21:56Z</time></trkpt><trkpt lat="44.79669218810392" lon="10.336556939464783"><ele>62.0</ele><time>2026-04-04T17:21:57Z</time></trkpt><trkpt lat="44.796824084374556" lon="10.336668455898097"><ele>62.0</ele><time>2026-04-04T17:21:58Z</time></trkpt><trkpt lat="44.79696885521491" lon="10.33679165002962"><ele>62.0</ele><time>2026-04-04T17:21:59Z</time></trkpt><trkpt lat="44.797121905816226" lon="10.336925063905673"><ele>62.0</ele><time>2026-04-04T17:22:00Z</time></trkpt><trkpt lat="44.79728802710062" lon="10.337073753101068"><ele>62.0</ele><time>2026-04-04T17:22:01Z</time></trkpt><trkpt lat="44.797450892604786" lon="10.337221206530456"><ele>62.0</ele><time>2026-04-04T17:22:02Z</time></trkpt><trkpt lat="44.797607469561775" lon="10.33734972530766"><ele>62.0</ele><time>2026-04-04T17:22:03Z</time></trkpt><trkpt lat="44.79775436019532" lon="10.337487746337928"><ele>62.0</ele><time>2026-04-04T17:22:04Z</time></trkpt><trkpt lat="44.79790340203394" lon="10.337587264125117"><ele>62.0</ele><time>2026-04-04T17:22:05Z</time></trkpt><trkpt lat="44.798051905459786" lon="10.337713329286332"><ele>62.0</ele><time>2026-04-04T17:22:06Z</time></trkpt><trkpt lat="44.798195111933715" lon="10.337845799790932"><ele>62.0</ele><time>2026-04-04T17:22:07Z</time></trkpt><trkpt lat="44.798325825890366" lon="10.337956634080234"><ele>62.0</ele><time>2026-04-04T17:22:08Z</time></trkpt><trkpt lat="44.79845299450536" lon="10.338051643075794"><ele>62.0</ele><time>2026-04-04T17:22:09Z</time></trkpt><trkpt lat="44.79857112271605" lon="10.338134351082493"><ele>62.0</ele><time>2026-04-04T17:22:10Z</time></trkpt><trkpt lat="44.79867893020671" lon="10.338221315827317"><ele>62.0</ele><time>2026-04-04T17:22:11Z</time></trkpt><trkpt lat="44.79877493669276" lon="10.338310022573628"><ele>61.25</ele><time>2026-04-04T17:22:12Z</time></trkpt><trkpt lat="44.79885907357663" lon="10.338393773303222"><ele>60.5</ele><time>2026-04-04T17:22:13Z</time></trkpt><trkpt lat="44.79894910121805" lon="10.33848241151696"><ele>59.75</ele><time>2026-04-04T17:22:14Z</time></trkpt><trkpt lat="44.79905503246206" lon="10.338582828099195"><ele>59.0</ele><time>2026-04-04T17:22:15Z</time></trkpt><trkpt lat="44.79916834707858" lon="10.338691597299562"><ele>59.0</ele><time>2026-04-04T17:22:16Z</time></trkpt><trkpt lat="44.799283730718756" lon="10.33876941185781"><ele>59.0</ele><time>2026-04-04T17:22:17Z</time></trkpt><trkpt lat="44.79939568438438" lon="10.338833353874909"><ele>59.0</ele><time>2026-04-04T17:22:18Z</time></trkpt><trkpt lat="44.79952353748947" lon="10.33888881944586"><ele>59.0</ele><time>2026-04-04T17:22:19Z</time></trkpt><trkpt lat="44.79966368803395" lon="10.338942804589482"><ele>58.0</ele><time>2026-04-04T17:22:20Z</time></trkpt><trkpt lat="44.79981386046934" lon="10.339008289993085"><ele>57.0</ele><time>2026-04-04T17:22:21Z</time></trkpt><trkpt lat="44.79996785730855" lon="10.339076910738001"><ele>56.0</ele><time>2026-04-04T17:22:22Z</time></trkpt><trkpt lat="44.80011179475632" lon="10.339133218332446"><ele>56.0</ele><time>2026-04-04T17:22:23Z</time></trkpt><trkpt lat="44.800257184898214" lon="10.339195099675601"><ele>56.0</ele><time>2026-04-04T17:22:24Z</time></trkpt><trkpt lat="44.80040472999993" lon="10.339275993975454"><ele>56.0</ele><time>2026-04-04T17:22:25Z</time></trkpt><trkpt lat="44.800551723669734" lon="10.339336780151235"><ele>56.0</ele><time>2026-04-04T17:22:26Z</time></trkpt><trkpt lat="44.800703529630496" lon="10.339391674423585"><ele>56.0</ele><time>2026-04-04T17:22:27Z</time></trkpt><trkpt lat="44.800843586632034" lon="10.339456379227979"><ele>56.0</ele><time>2026-04-04T17:22:28Z</time></trkpt><trkpt lat="44.80097659700005" lon="10.339524766694861"><ele>56.0</ele><time>2026-04-04T17:22:29Z</time></trkpt><trkpt lat="44.801105163531346" lon="10.339575370796334"><ele>55.599999999999994</ele><time>2026-04-04T17:22:30Z</time></trkpt><trkpt lat="44.80121927773674" lon="10.339614325994171"><ele>55.199999999999996</ele><time>2026-04-04T17:22:31Z</time></trkpt><trkpt lat="44.80131298122575" lon="10.339664305613056"><ele>54.800000000000004</ele><time>2026-04-04T17:22:32Z</time></trkpt><trkpt lat="44.80140965319085" lon="10.339710620319503"><ele>54.400000000000006</ele><time>2026-04-04T17:22:33Z</time></trkpt><trkpt lat="44.80152418412633" lon="10.33974112712167"><ele>54.0</ele><time>2026-04-04T17:22:34Z</time></trkpt><trkpt lat="44.80165142517316" lon="10.339749113689846"><ele>54.0</ele><time>2026-04-04T17:22:35Z</time></trkpt><trkpt lat="44.8017880610736" lon="10.339746108903817"><ele>54.0</ele><time>2026-04-04T17:22:36Z</time></trkpt><trkpt lat="44.80192567966005" lon="10.339742749678619"><ele>54.0</ele><time>2026-04-04T17:22:37Z</time></trkpt><trkpt lat="44.80207245761225" lon="10.339737697849703"><ele>54.0</ele><time>2026-04-04T17:22:38Z</time></trkpt><trkpt lat="44.80221095392156" lon="10.339730797356857"><ele>54.0</ele><time>2026-04-04T17:22:39Z</time></trkpt><trkpt lat="44.802345728957015" lon="10.339720525536098"><ele>54.0</ele><time>2026-04-04T17:22:40Z</time></trkpt><trkpt lat="44.80247980942216" lon="10.339713682917818"><ele>54.0</ele><time>2026-04-04T17:22:41Z</time></trkpt><trkpt lat="44.80260770260871" lon="10.33970949656175"><ele>54.0</ele><time>2026-04-04T17:22:42Z</time></trkpt><trkpt lat="44.802748785396496" lon="10.33970399326991"><ele>54.0</ele><time>2026-04-04T17:22:43Z</time></trkpt><trkpt lat="44.80290882996873" lon="10.339702131097223"><ele>54.0</ele><time>2026-04-04T17:22:44Z</time></trkpt><trkpt lat="44.803052902876566" lon="10.339698040809509"><ele>54.0</ele><time>2026-04-04T17:22:45Z</time></trkpt><trkpt lat="44.80318986445396" lon="10.339685731635655"><ele>54.0</ele><time>2026-04-04T17:22:46Z</time></trkpt><trkpt lat="44.80332974632976" lon="10.339673962130554"><ele>54.0</ele><time>2026-04-04T17:22:47Z</time></trkpt><trkpt lat="44.8034686188558" lon="10.339680765476084"><ele>54.0</ele><time>2026-04-04T17:22:48Z</time></trkpt><trkpt lat="44.803618624288845" lon="10.339643734417228"><ele>54.0</ele><time>2026-04-04T17:22:49Z</time></trkpt><trkpt lat="44.8037632900601" lon="10.339573715828084"><ele>54.0</ele><time>2026-04-04T17:22:50Z</time></trkpt><trkpt lat="44.80388152774031" lon="10.339472805656992"><ele>54.0</ele><time>2026-04-04T17:22:51Z</time></trkpt><trkpt lat="44.803995124925784" lon="10.33942163627433"><ele>54.0</ele><time>2026-04-04T17:22:52Z</time></trkpt><trkpt lat="44.8040997933677" lon="10.339333179931373"><ele>54.0</ele><time>2026-04-04T17:22:53Z</time></trkpt><trkpt lat="44.80421918668007" lon="10.33926897703176"><ele>54.0</ele><time>2026-04-04T17:22:54Z</time></trkpt><trkpt lat="44.80433503422342" lon="10.339186758063862"><ele>54.0</ele><time>2026-04-04T17:22:55Z</time></trkpt><trkpt lat="44.80442349916772" lon="10.339101758248624"><ele>54.00000000000001</ele><time>2026-04-04T17:22:56Z</time></trkpt><trkpt lat="44.80450385670554" lon="10.33901700206699"><ele>54.00000000000001</ele><time>2026-04-04T17:22:57Z</time></trkpt><trkpt lat="44.80458061559655" lon="10.338957255423047"><ele>54.0</ele><time>2026-04-04T17:22:58Z</time></trkpt><trkpt lat="44.804641114021926" lon="10.338869461422757"><ele>54.0</ele><time>2026-04-04T17:22:59Z</time></trkpt><trkpt lat="44.80469140351277" lon="10.338788226280446"><ele>54.0</ele><time>2026-04-04T17:23:00Z</time></trkpt><trkpt lat="44.80476599010075" lon="10.338678168996806"><ele>54.0</ele><time>2026-04-04T17:23:02Z</time></trkpt><trkpt lat="44.80480662946487" lon="10.338604705400876"><ele>54.0</ele><time>2026-04-04T17:23:04Z</time></trkpt><trkpt lat="44.80485441442177" lon="10.338524822526647"><ele>54.0</ele><time>2026-04-04T17:23:06Z</time></trkpt><trkpt lat="44.80491955664092" lon="10.338433760219582"><ele>54.0</ele><time>2026-04-04T17:23:08Z</time></trkpt><trkpt lat="44.80497677946279" lon="10.338360591318288"><ele>54.0</ele><time>2026-04-04T17:23:10Z</time></trkpt><trkpt lat="44.80490158366066" lon="10.338191359881533"><ele>54.0</ele><time>2026-04-04T17:23:13Z</time></trkpt><trkpt lat="44.804824133182464" lon="10.33811803106168"><ele>54.0</ele><time>2026-04-04T17:23:14Z</time></trkpt><trkpt lat="44.80474446518505" lon="10.338044072094922"><ele>54.0</ele><time>2026-04-04T17:23:15Z</time></trkpt><trkpt lat="44.80468231064978" lon="10.337986989381644"><ele>54.0</ele><time>2026-04-04T17:23:16Z</time></trkpt><trkpt lat="44.80463007933361" lon="10.33791312628903"><ele>54.0</ele><time>2026-04-04T17:23:17Z</time></trkpt><trkpt lat="44.804575422943614" lon="10.337866367006475"><ele>54.0</ele><time>2026-04-04T17:23:18Z</time></trkpt><trkpt lat="44.80450088966321" lon="10.337805767561145"><ele>53.833333333333336</ele><time>2026-04-04T17:23:20Z</time></trkpt><trkpt lat="44.80444717478354" lon="10.337757747849075"><ele>53.66666666666667</ele><time>2026-04-04T17:23:26Z</time></trkpt><trkpt lat="44.80438487177967" lon="10.337700548711261"><ele>53.5</ele><time>2026-04-04T17:23:27Z</time></trkpt><trkpt lat="44.804315805586214" lon="10.337643969569175"><ele>53.333333333333336</ele><time>2026-04-04T17:23:28Z</time></trkpt><trkpt lat="44.80424012694153" lon="10.33757764486313"><ele>53.16666666666667</ele><time>2026-04-04T17:23:29Z</time></trkpt><trkpt lat="44.804198077672645" lon="10.337444260602329"><ele>53.0</ele><time>2026-04-04T17:23:30Z</time></trkpt><trkpt lat="44.80411459574349" lon="10.337321459227041"><ele>53.2</ele><time>2026-04-04T17:23:31Z</time></trkpt><trkpt lat="44.80402631104516" lon="10.337200113886876"><ele>53.4</ele><time>2026-04-04T17:23:32Z</time></trkpt><trkpt lat="44.803951400532696" lon="10.337097151329527"><ele>53.60000000000001</ele><time>2026-04-04T17:23:33Z</time></trkpt><trkpt lat="44.8038847591278" lon="10.337005554392354"><ele>53.800000000000004</ele><time>2026-04-04T17:23:34Z</time></trkpt><trkpt lat="44.803830651954186" lon="10.336931185191165"><ele>54.0</ele><time>2026-04-04T17:23:35Z</time></trkpt><trkpt lat="44.80377271744032" lon="10.336851555700898"><ele>54.0</ele><time>2026-04-04T17:23:37Z</time></trkpt><trkpt lat="44.803864156057294" lon="10.336631815989488"><ele>54.0</ele><time>2026-04-04T17:23:40Z</time></trkpt><trkpt lat="44.803944134209004" lon="10.336540633814508"><ele>54.0</ele><time>2026-04-04T17:23:41Z</time></trkpt><trkpt lat="44.80403440848407" lon="10.336438294170462"><ele>54.0</ele><time>2026-04-04T17:23:42Z</time></trkpt><trkpt lat="44.804127992991674" lon="10.336316368726864"><ele>54.0</ele><time>2026-04-04T17:23:43Z</time></trkpt><trkpt lat="44.80421226571534" lon="10.336198364834301"><ele>54.0</ele><time>2026-04-04T17:23:44Z</time></trkpt><trkpt lat="44.80429520652078" lon="10.336083844521209"><ele>54.0</ele><time>2026-04-04T17:23:45Z</time></trkpt><trkpt lat="44.8043869590024" lon="10.335972963575363"><ele>54.0</ele><time>2026-04-04T17:23:46Z</time></trkpt><trkpt lat="44.80446892857627" lon="10.335855009258788"><ele>54.25</ele><time>2026-04-04T17:23:47Z</time></trkpt><trkpt lat="44.80454676083633" lon="10.335738282392361"><ele>54.5</ele><time>2026-04-04T17:23:48Z</time></trkpt><trkpt lat="44.804636785870976" lon="10.335624070716927"><ele>54.75</ele><time>2026-04-04T17:23:49Z</time></trkpt><trkpt lat="44.8047208198345" lon="10.33550780389832"><ele>55.0</ele><time>2026-04-04T17:23:50Z</time></trkpt><trkpt lat="44.80479802947706" lon="10.335408917782953"><ele>54.5</ele><time>2026-04-04T17:23:51Z</time></trkpt><trkpt lat="44.80485997450294" lon="10.33532429366426"><ele>54.0</ele><time>2026-04-04T17:23:52Z</time></trkpt><trkpt lat="44.80490975664955" lon="10.33525832587591"><ele>53.5</ele><time>2026-04-04T17:23:53Z</time></trkpt><trkpt lat="44.80497343522101" lon="10.335179814395925"><ele>53.0</ele><time>2026-04-04T17:23:55Z</time></trkpt><trkpt lat="44.80501883206822" lon="10.334752453620036"><ele>53.0</ele><time>2026-04-04T17:24:09Z</time></trkpt><trkpt lat="44.80499528288331" lon="10.33466176691907"><ele>53.0</ele><time>2026-04-04T17:24:12Z</time></trkpt><trkpt lat="44.804733293486095" lon="10.33508955766101"><ele>53.0</ele><time>2026-04-04T17:24:28Z</time></trkpt><trkpt lat="44.804789592357785" lon="10.335194387103629"><ele>53.0</ele><time>2026-04-04T17:24:30Z</time></trkpt><trkpt lat="44.80481307565247" lon="10.335281892496717"><ele>53.0</ele><time>2026-04-04T17:24:31Z</time></trkpt><trkpt lat="44.804933599443935" lon="10.335298710217236"><ele>53.0</ele><time>2026-04-04T17:24:33Z</time></trkpt><trkpt lat="44.804999635497474" lon="10.335274515131703"><ele>53.0</ele><time>2026-04-04T17:24:34Z</time></trkpt><trkpt lat="44.8050213312069" lon="10.335135717633635"><ele>53.0</ele><time>2026-04-04T17:24:36Z</time></trkpt><trkpt lat="44.80490046712724" lon="10.335251583090825"><ele>53.0</ele><time>2026-04-04T17:24:37Z</time></trkpt></trkseg></trk></gpx>